<?xml version="1.0" encoding="UTF-8" standalone="no" ?>
<gpx xmlns="http://www.topografix.com/GPX/1/1" xmlns:xsi="http://www.w3.org/2001/XMLSchema-instance" xsi:schemaLocation="http://www.topografix.com/GPX/1/1 http://www.topografix.com/GPX/1/1/gpx.xsd" version="1.1" creator="VisuGPX - https://www.visugpx.com">
  <metadata>
    <name>ajoncs20-2</name>
  </metadata>
  <trk>
    <name><![CDATA[ajoncs20-2_1]]></name>
    <trkseg>
      <trkpt lat="45.77894" lon="-1.23674">
        <ele>57.2</ele>
        <time>2020-01-26T08:45:22Z</time>
      </trkpt>
      <trkpt lat="45.77893" lon="-1.23679">
        <ele>57.4</ele>
        <time>2020-01-26T08:45:23Z</time>
      </trkpt>
      <trkpt lat="45.77892" lon="-1.23683">
        <ele>57.6</ele>
        <time>2020-01-26T08:45:24Z</time>
      </trkpt>
      <trkpt lat="45.77891" lon="-1.23684">
        <ele>57.6</ele>
        <time>2020-01-26T08:45:25Z</time>
      </trkpt>
      <trkpt lat="45.77892" lon="-1.23685">
        <ele>57.8</ele>
        <time>2020-01-26T08:45:26Z</time>
      </trkpt>
      <trkpt lat="45.77892" lon="-1.23686">
        <ele>57.8</ele>
        <time>2020-01-26T08:45:27Z</time>
      </trkpt>
      <trkpt lat="45.77893" lon="-1.23688">
        <ele>57.8</ele>
        <time>2020-01-26T08:45:28Z</time>
      </trkpt>
      <trkpt lat="45.77894" lon="-1.2369">
        <ele>58.2</ele>
        <time>2020-01-26T08:45:29Z</time>
      </trkpt>
      <trkpt lat="45.77895" lon="-1.23692">
        <ele>58.4</ele>
        <time>2020-01-26T08:45:30Z</time>
      </trkpt>
      <trkpt lat="45.77897" lon="-1.23693">
        <ele>58.6</ele>
        <time>2020-01-26T08:45:31Z</time>
      </trkpt>
      <trkpt lat="45.77898" lon="-1.23693">
        <ele>58.6</ele>
        <time>2020-01-26T08:45:32Z</time>
      </trkpt>
      <trkpt lat="45.77898" lon="-1.23693">
        <ele>58.8</ele>
        <time>2020-01-26T08:45:33Z</time>
      </trkpt>
      <trkpt lat="45.77898" lon="-1.23693">
        <ele>58.8</ele>
        <time>2020-01-26T08:45:34Z</time>
      </trkpt>
      <trkpt lat="45.77898" lon="-1.23693">
        <ele>58.8</ele>
        <time>2020-01-26T08:45:35Z</time>
      </trkpt>
      <trkpt lat="45.77898" lon="-1.23693">
        <ele>58.6</ele>
        <time>2020-01-26T08:45:36Z</time>
      </trkpt>
      <trkpt lat="45.77898" lon="-1.23693">
        <ele>58.4</ele>
        <time>2020-01-26T08:45:37Z</time>
      </trkpt>
      <trkpt lat="45.77898" lon="-1.23693">
        <ele>58.4</ele>
        <time>2020-01-26T08:45:38Z</time>
      </trkpt>
      <trkpt lat="45.77898" lon="-1.23693">
        <ele>58.2</ele>
        <time>2020-01-26T08:45:39Z</time>
      </trkpt>
      <trkpt lat="45.77898" lon="-1.23693">
        <ele>58.2</ele>
        <time>2020-01-26T08:45:40Z</time>
      </trkpt>
      <trkpt lat="45.77898" lon="-1.23693">
        <ele>58.2</ele>
        <time>2020-01-26T08:45:41Z</time>
      </trkpt>
      <trkpt lat="45.77898" lon="-1.23693">
        <ele>57.8</ele>
        <time>2020-01-26T08:45:42Z</time>
      </trkpt>
      <trkpt lat="45.77898" lon="-1.23693">
        <ele>57.6</ele>
        <time>2020-01-26T08:45:43Z</time>
      </trkpt>
      <trkpt lat="45.77898" lon="-1.23693">
        <ele>57.4</ele>
        <time>2020-01-26T08:45:44Z</time>
      </trkpt>
      <trkpt lat="45.77898" lon="-1.23693">
        <ele>57.4</ele>
        <time>2020-01-26T08:45:45Z</time>
      </trkpt>
      <trkpt lat="45.77898" lon="-1.23693">
        <ele>57.2</ele>
        <time>2020-01-26T08:45:46Z</time>
      </trkpt>
      <trkpt lat="45.77898" lon="-1.23693">
        <ele>57.2</ele>
        <time>2020-01-26T08:45:47Z</time>
      </trkpt>
      <trkpt lat="45.77898" lon="-1.23693">
        <ele>57.2</ele>
        <time>2020-01-26T08:45:48Z</time>
      </trkpt>
      <trkpt lat="45.77898" lon="-1.23693">
        <ele>57.2</ele>
        <time>2020-01-26T08:45:49Z</time>
      </trkpt>
      <trkpt lat="45.77898" lon="-1.23693">
        <ele>57</ele>
        <time>2020-01-26T08:45:50Z</time>
      </trkpt>
      <trkpt lat="45.77898" lon="-1.23693">
        <ele>57</ele>
        <time>2020-01-26T08:45:51Z</time>
      </trkpt>
      <trkpt lat="45.77898" lon="-1.23693">
        <ele>57</ele>
        <time>2020-01-26T08:45:52Z</time>
      </trkpt>
      <trkpt lat="45.77898" lon="-1.23693">
        <ele>57</ele>
        <time>2020-01-26T08:45:53Z</time>
      </trkpt>
      <trkpt lat="45.77898" lon="-1.23693">
        <ele>57</ele>
        <time>2020-01-26T08:45:54Z</time>
      </trkpt>
      <trkpt lat="45.77898" lon="-1.23693">
        <ele>57</ele>
        <time>2020-01-26T08:45:55Z</time>
      </trkpt>
      <trkpt lat="45.77898" lon="-1.23693">
        <ele>57</ele>
        <time>2020-01-26T08:45:56Z</time>
      </trkpt>
      <trkpt lat="45.77898" lon="-1.23693">
        <ele>57</ele>
        <time>2020-01-26T08:45:57Z</time>
      </trkpt>
      <trkpt lat="45.77898" lon="-1.23693">
        <ele>57</ele>
        <time>2020-01-26T08:45:58Z</time>
      </trkpt>
      <trkpt lat="45.77898" lon="-1.23693">
        <ele>57</ele>
        <time>2020-01-26T08:45:59Z</time>
      </trkpt>
      <trkpt lat="45.77898" lon="-1.23693">
        <ele>57</ele>
        <time>2020-01-26T08:46:00Z</time>
      </trkpt>
      <trkpt lat="45.77898" lon="-1.23693">
        <ele>57</ele>
        <time>2020-01-26T08:46:01Z</time>
      </trkpt>
      <trkpt lat="45.77898" lon="-1.23693">
        <ele>57</ele>
        <time>2020-01-26T08:46:02Z</time>
      </trkpt>
      <trkpt lat="45.77898" lon="-1.23693">
        <ele>57</ele>
        <time>2020-01-26T08:46:03Z</time>
      </trkpt>
      <trkpt lat="45.77898" lon="-1.23693">
        <ele>57</ele>
        <time>2020-01-26T08:46:04Z</time>
      </trkpt>
      <trkpt lat="45.77898" lon="-1.23693">
        <ele>57</ele>
        <time>2020-01-26T08:46:05Z</time>
      </trkpt>
      <trkpt lat="45.77898" lon="-1.23693">
        <ele>57</ele>
        <time>2020-01-26T08:46:06Z</time>
      </trkpt>
      <trkpt lat="45.77898" lon="-1.23693">
        <ele>57</ele>
        <time>2020-01-26T08:46:07Z</time>
      </trkpt>
      <trkpt lat="45.77898" lon="-1.23693">
        <ele>57</ele>
        <time>2020-01-26T08:46:08Z</time>
      </trkpt>
      <trkpt lat="45.77898" lon="-1.23693">
        <ele>57</ele>
        <time>2020-01-26T08:46:09Z</time>
      </trkpt>
      <trkpt lat="45.77898" lon="-1.23693">
        <ele>57</ele>
        <time>2020-01-26T08:46:10Z</time>
      </trkpt>
      <trkpt lat="45.77898" lon="-1.23693">
        <ele>57</ele>
        <time>2020-01-26T08:46:11Z</time>
      </trkpt>
      <trkpt lat="45.77898" lon="-1.23693">
        <ele>57</ele>
        <time>2020-01-26T08:46:12Z</time>
      </trkpt>
      <trkpt lat="45.77898" lon="-1.23693">
        <ele>57</ele>
        <time>2020-01-26T08:46:13Z</time>
      </trkpt>
      <trkpt lat="45.77898" lon="-1.23693">
        <ele>57</ele>
        <time>2020-01-26T08:46:14Z</time>
      </trkpt>
      <trkpt lat="45.77898" lon="-1.23693">
        <ele>57</ele>
        <time>2020-01-26T08:46:15Z</time>
      </trkpt>
      <trkpt lat="45.77898" lon="-1.23693">
        <ele>57</ele>
        <time>2020-01-26T08:46:16Z</time>
      </trkpt>
      <trkpt lat="45.77898" lon="-1.23693">
        <ele>57</ele>
        <time>2020-01-26T08:46:17Z</time>
      </trkpt>
      <trkpt lat="45.77898" lon="-1.23693">
        <ele>57</ele>
        <time>2020-01-26T08:46:18Z</time>
      </trkpt>
      <trkpt lat="45.77898" lon="-1.23693">
        <ele>57</ele>
        <time>2020-01-26T08:46:19Z</time>
      </trkpt>
      <trkpt lat="45.77898" lon="-1.23693">
        <ele>57</ele>
        <time>2020-01-26T08:46:20Z</time>
      </trkpt>
      <trkpt lat="45.77898" lon="-1.23693">
        <ele>57</ele>
        <time>2020-01-26T08:46:21Z</time>
      </trkpt>
      <trkpt lat="45.77898" lon="-1.23693">
        <ele>57</ele>
        <time>2020-01-26T08:46:22Z</time>
      </trkpt>
      <trkpt lat="45.77898" lon="-1.23693">
        <ele>57</ele>
        <time>2020-01-26T08:46:23Z</time>
      </trkpt>
      <trkpt lat="45.77898" lon="-1.23693">
        <ele>57</ele>
        <time>2020-01-26T08:46:24Z</time>
      </trkpt>
      <trkpt lat="45.77898" lon="-1.23693">
        <ele>57</ele>
        <time>2020-01-26T08:46:25Z</time>
      </trkpt>
      <trkpt lat="45.77898" lon="-1.23693">
        <ele>57</ele>
        <time>2020-01-26T08:46:26Z</time>
      </trkpt>
      <trkpt lat="45.77898" lon="-1.23693">
        <ele>57</ele>
        <time>2020-01-26T08:46:27Z</time>
      </trkpt>
      <trkpt lat="45.77898" lon="-1.23693">
        <ele>57</ele>
        <time>2020-01-26T08:46:28Z</time>
      </trkpt>
      <trkpt lat="45.77898" lon="-1.23693">
        <ele>57</ele>
        <time>2020-01-26T08:46:29Z</time>
      </trkpt>
      <trkpt lat="45.77898" lon="-1.23693">
        <ele>57</ele>
        <time>2020-01-26T08:46:30Z</time>
      </trkpt>
      <trkpt lat="45.77898" lon="-1.23693">
        <ele>57</ele>
        <time>2020-01-26T08:46:31Z</time>
      </trkpt>
      <trkpt lat="45.77898" lon="-1.23693">
        <ele>57</ele>
        <time>2020-01-26T08:46:32Z</time>
      </trkpt>
      <trkpt lat="45.77898" lon="-1.23693">
        <ele>57</ele>
        <time>2020-01-26T08:46:33Z</time>
      </trkpt>
      <trkpt lat="45.77898" lon="-1.23693">
        <ele>57</ele>
        <time>2020-01-26T08:46:34Z</time>
      </trkpt>
      <trkpt lat="45.77898" lon="-1.23693">
        <ele>57</ele>
        <time>2020-01-26T08:46:35Z</time>
      </trkpt>
      <trkpt lat="45.77898" lon="-1.23693">
        <ele>57</ele>
        <time>2020-01-26T08:46:36Z</time>
      </trkpt>
      <trkpt lat="45.77898" lon="-1.23693">
        <ele>57</ele>
        <time>2020-01-26T08:46:37Z</time>
      </trkpt>
      <trkpt lat="45.77898" lon="-1.23693">
        <ele>57</ele>
        <time>2020-01-26T08:46:38Z</time>
      </trkpt>
      <trkpt lat="45.77898" lon="-1.23693">
        <ele>57</ele>
        <time>2020-01-26T08:46:39Z</time>
      </trkpt>
      <trkpt lat="45.77898" lon="-1.23693">
        <ele>57</ele>
        <time>2020-01-26T08:46:40Z</time>
      </trkpt>
      <trkpt lat="45.77898" lon="-1.23693">
        <ele>57</ele>
        <time>2020-01-26T08:46:41Z</time>
      </trkpt>
      <trkpt lat="45.77898" lon="-1.23693">
        <ele>57</ele>
        <time>2020-01-26T08:46:42Z</time>
      </trkpt>
      <trkpt lat="45.77898" lon="-1.23693">
        <ele>57</ele>
        <time>2020-01-26T08:46:43Z</time>
      </trkpt>
      <trkpt lat="45.77898" lon="-1.23693">
        <ele>57</ele>
        <time>2020-01-26T08:46:44Z</time>
      </trkpt>
      <trkpt lat="45.77898" lon="-1.23693">
        <ele>57</ele>
        <time>2020-01-26T08:46:45Z</time>
      </trkpt>
      <trkpt lat="45.77898" lon="-1.23693">
        <ele>57</ele>
        <time>2020-01-26T08:46:46Z</time>
      </trkpt>
      <trkpt lat="45.77898" lon="-1.23693">
        <ele>57</ele>
        <time>2020-01-26T08:46:47Z</time>
      </trkpt>
      <trkpt lat="45.77898" lon="-1.23693">
        <ele>57</ele>
        <time>2020-01-26T08:46:48Z</time>
      </trkpt>
      <trkpt lat="45.77898" lon="-1.23693">
        <ele>57</ele>
        <time>2020-01-26T08:46:49Z</time>
      </trkpt>
      <trkpt lat="45.77898" lon="-1.23693">
        <ele>57</ele>
        <time>2020-01-26T08:46:50Z</time>
      </trkpt>
      <trkpt lat="45.77898" lon="-1.23693">
        <ele>57</ele>
        <time>2020-01-26T08:46:51Z</time>
      </trkpt>
      <trkpt lat="45.77898" lon="-1.23693">
        <ele>57</ele>
        <time>2020-01-26T08:46:52Z</time>
      </trkpt>
      <trkpt lat="45.77898" lon="-1.23693">
        <ele>57</ele>
        <time>2020-01-26T08:46:53Z</time>
      </trkpt>
      <trkpt lat="45.77898" lon="-1.23693">
        <ele>57</ele>
        <time>2020-01-26T08:46:54Z</time>
      </trkpt>
      <trkpt lat="45.77898" lon="-1.23693">
        <ele>57</ele>
        <time>2020-01-26T08:46:55Z</time>
      </trkpt>
      <trkpt lat="45.77898" lon="-1.23693">
        <ele>57</ele>
        <time>2020-01-26T08:46:56Z</time>
      </trkpt>
      <trkpt lat="45.77898" lon="-1.23693">
        <ele>57</ele>
        <time>2020-01-26T08:46:57Z</time>
      </trkpt>
      <trkpt lat="45.77898" lon="-1.23693">
        <ele>57</ele>
        <time>2020-01-26T08:46:58Z</time>
      </trkpt>
      <trkpt lat="45.77898" lon="-1.23693">
        <ele>57</ele>
        <time>2020-01-26T08:46:59Z</time>
      </trkpt>
      <trkpt lat="45.77898" lon="-1.23693">
        <ele>57</ele>
        <time>2020-01-26T08:47:00Z</time>
      </trkpt>
      <trkpt lat="45.77898" lon="-1.23693">
        <ele>57</ele>
        <time>2020-01-26T08:47:01Z</time>
      </trkpt>
      <trkpt lat="45.77898" lon="-1.23693">
        <ele>57</ele>
        <time>2020-01-26T08:47:02Z</time>
      </trkpt>
      <trkpt lat="45.77898" lon="-1.23693">
        <ele>57</ele>
        <time>2020-01-26T08:47:03Z</time>
      </trkpt>
      <trkpt lat="45.77898" lon="-1.23693">
        <ele>57</ele>
        <time>2020-01-26T08:47:04Z</time>
      </trkpt>
      <trkpt lat="45.77898" lon="-1.23693">
        <ele>57</ele>
        <time>2020-01-26T08:47:05Z</time>
      </trkpt>
      <trkpt lat="45.77898" lon="-1.23693">
        <ele>57</ele>
        <time>2020-01-26T08:47:06Z</time>
      </trkpt>
      <trkpt lat="45.77898" lon="-1.23693">
        <ele>57</ele>
        <time>2020-01-26T08:47:07Z</time>
      </trkpt>
      <trkpt lat="45.77898" lon="-1.23693">
        <ele>57</ele>
        <time>2020-01-26T08:47:08Z</time>
      </trkpt>
      <trkpt lat="45.77898" lon="-1.23693">
        <ele>57</ele>
        <time>2020-01-26T08:47:09Z</time>
      </trkpt>
      <trkpt lat="45.77898" lon="-1.23693">
        <ele>57</ele>
        <time>2020-01-26T08:47:10Z</time>
      </trkpt>
      <trkpt lat="45.77898" lon="-1.23693">
        <ele>57</ele>
        <time>2020-01-26T08:47:11Z</time>
      </trkpt>
      <trkpt lat="45.77898" lon="-1.23693">
        <ele>57</ele>
        <time>2020-01-26T08:47:12Z</time>
      </trkpt>
      <trkpt lat="45.77898" lon="-1.23693">
        <ele>57</ele>
        <time>2020-01-26T08:47:13Z</time>
      </trkpt>
      <trkpt lat="45.77898" lon="-1.23693">
        <ele>57</ele>
        <time>2020-01-26T08:47:14Z</time>
      </trkpt>
      <trkpt lat="45.77898" lon="-1.23693">
        <ele>57</ele>
        <time>2020-01-26T08:47:15Z</time>
      </trkpt>
      <trkpt lat="45.77898" lon="-1.23693">
        <ele>57</ele>
        <time>2020-01-26T08:47:16Z</time>
      </trkpt>
      <trkpt lat="45.77898" lon="-1.23693">
        <ele>57</ele>
        <time>2020-01-26T08:47:17Z</time>
      </trkpt>
      <trkpt lat="45.77898" lon="-1.23693">
        <ele>57</ele>
        <time>2020-01-26T08:47:18Z</time>
      </trkpt>
      <trkpt lat="45.77898" lon="-1.23693">
        <ele>57</ele>
        <time>2020-01-26T08:47:19Z</time>
      </trkpt>
      <trkpt lat="45.77898" lon="-1.23693">
        <ele>57</ele>
        <time>2020-01-26T08:47:20Z</time>
      </trkpt>
      <trkpt lat="45.77897" lon="-1.23693">
        <ele>56.8</ele>
        <time>2020-01-26T08:47:21Z</time>
      </trkpt>
      <trkpt lat="45.77897" lon="-1.23693">
        <ele>56.2</ele>
        <time>2020-01-26T08:47:22Z</time>
      </trkpt>
      <trkpt lat="45.77897" lon="-1.23693">
        <ele>56</ele>
        <time>2020-01-26T08:47:23Z</time>
      </trkpt>
      <trkpt lat="45.77896" lon="-1.23693">
        <ele>55.8</ele>
        <time>2020-01-26T08:47:24Z</time>
      </trkpt>
      <trkpt lat="45.77896" lon="-1.23693">
        <ele>55.6</ele>
        <time>2020-01-26T08:47:25Z</time>
      </trkpt>
      <trkpt lat="45.77896" lon="-1.23693">
        <ele>55.4</ele>
        <time>2020-01-26T08:47:26Z</time>
      </trkpt>
      <trkpt lat="45.77896" lon="-1.23693">
        <ele>55.4</ele>
        <time>2020-01-26T08:47:27Z</time>
      </trkpt>
      <trkpt lat="45.77895" lon="-1.23692">
        <ele>55.2</ele>
        <time>2020-01-26T08:47:28Z</time>
      </trkpt>
      <trkpt lat="45.77895" lon="-1.23692">
        <ele>55.2</ele>
        <time>2020-01-26T08:47:29Z</time>
      </trkpt>
      <trkpt lat="45.77895" lon="-1.23692">
        <ele>55.2</ele>
        <time>2020-01-26T08:47:30Z</time>
      </trkpt>
      <trkpt lat="45.77895" lon="-1.23692">
        <ele>55</ele>
        <time>2020-01-26T08:47:31Z</time>
      </trkpt>
      <trkpt lat="45.77895" lon="-1.23692">
        <ele>55</ele>
        <time>2020-01-26T08:47:32Z</time>
      </trkpt>
      <trkpt lat="45.77895" lon="-1.23692">
        <ele>55</ele>
        <time>2020-01-26T08:47:33Z</time>
      </trkpt>
      <trkpt lat="45.77895" lon="-1.23692">
        <ele>55</ele>
        <time>2020-01-26T08:47:34Z</time>
      </trkpt>
      <trkpt lat="45.77895" lon="-1.23692">
        <ele>55</ele>
        <time>2020-01-26T08:47:35Z</time>
      </trkpt>
      <trkpt lat="45.77895" lon="-1.23692">
        <ele>55</ele>
        <time>2020-01-26T08:47:36Z</time>
      </trkpt>
      <trkpt lat="45.77895" lon="-1.23692">
        <ele>55</ele>
        <time>2020-01-26T08:47:37Z</time>
      </trkpt>
      <trkpt lat="45.77895" lon="-1.23692">
        <ele>55</ele>
        <time>2020-01-26T08:47:38Z</time>
      </trkpt>
      <trkpt lat="45.77895" lon="-1.23692">
        <ele>55</ele>
        <time>2020-01-26T08:47:39Z</time>
      </trkpt>
      <trkpt lat="45.77895" lon="-1.23692">
        <ele>55</ele>
        <time>2020-01-26T08:47:40Z</time>
      </trkpt>
      <trkpt lat="45.77895" lon="-1.23692">
        <ele>55</ele>
        <time>2020-01-26T08:47:41Z</time>
      </trkpt>
      <trkpt lat="45.77895" lon="-1.23692">
        <ele>55</ele>
        <time>2020-01-26T08:47:42Z</time>
      </trkpt>
      <trkpt lat="45.77895" lon="-1.23692">
        <ele>55</ele>
        <time>2020-01-26T08:47:43Z</time>
      </trkpt>
      <trkpt lat="45.77895" lon="-1.23692">
        <ele>55</ele>
        <time>2020-01-26T08:47:44Z</time>
      </trkpt>
      <trkpt lat="45.77895" lon="-1.23692">
        <ele>55</ele>
        <time>2020-01-26T08:47:45Z</time>
      </trkpt>
      <trkpt lat="45.77895" lon="-1.23692">
        <ele>55</ele>
        <time>2020-01-26T08:47:46Z</time>
      </trkpt>
      <trkpt lat="45.77895" lon="-1.23692">
        <ele>55</ele>
        <time>2020-01-26T08:47:47Z</time>
      </trkpt>
      <trkpt lat="45.77895" lon="-1.23692">
        <ele>55</ele>
        <time>2020-01-26T08:47:48Z</time>
      </trkpt>
      <trkpt lat="45.77895" lon="-1.23692">
        <ele>55</ele>
        <time>2020-01-26T08:47:49Z</time>
      </trkpt>
      <trkpt lat="45.77895" lon="-1.23692">
        <ele>55</ele>
        <time>2020-01-26T08:47:50Z</time>
      </trkpt>
      <trkpt lat="45.77895" lon="-1.23692">
        <ele>55</ele>
        <time>2020-01-26T08:47:51Z</time>
      </trkpt>
      <trkpt lat="45.77895" lon="-1.23692">
        <ele>55</ele>
        <time>2020-01-26T08:47:52Z</time>
      </trkpt>
      <trkpt lat="45.77895" lon="-1.23692">
        <ele>55</ele>
        <time>2020-01-26T08:47:53Z</time>
      </trkpt>
      <trkpt lat="45.77895" lon="-1.23692">
        <ele>55</ele>
        <time>2020-01-26T08:47:54Z</time>
      </trkpt>
      <trkpt lat="45.77895" lon="-1.23692">
        <ele>55</ele>
        <time>2020-01-26T08:47:55Z</time>
      </trkpt>
      <trkpt lat="45.77895" lon="-1.23692">
        <ele>55</ele>
        <time>2020-01-26T08:47:56Z</time>
      </trkpt>
      <trkpt lat="45.77895" lon="-1.23692">
        <ele>55</ele>
        <time>2020-01-26T08:47:57Z</time>
      </trkpt>
      <trkpt lat="45.77895" lon="-1.23692">
        <ele>55</ele>
        <time>2020-01-26T08:47:58Z</time>
      </trkpt>
      <trkpt lat="45.77895" lon="-1.23692">
        <ele>55</ele>
        <time>2020-01-26T08:47:59Z</time>
      </trkpt>
      <trkpt lat="45.77895" lon="-1.23692">
        <ele>55</ele>
        <time>2020-01-26T08:48:00Z</time>
      </trkpt>
      <trkpt lat="45.77895" lon="-1.23692">
        <ele>55</ele>
        <time>2020-01-26T08:48:01Z</time>
      </trkpt>
      <trkpt lat="45.77895" lon="-1.23692">
        <ele>55</ele>
        <time>2020-01-26T08:48:02Z</time>
      </trkpt>
      <trkpt lat="45.77895" lon="-1.23692">
        <ele>55</ele>
        <time>2020-01-26T08:48:03Z</time>
      </trkpt>
      <trkpt lat="45.77895" lon="-1.23692">
        <ele>55</ele>
        <time>2020-01-26T08:48:04Z</time>
      </trkpt>
      <trkpt lat="45.77895" lon="-1.23692">
        <ele>55</ele>
        <time>2020-01-26T08:48:05Z</time>
      </trkpt>
      <trkpt lat="45.77895" lon="-1.23692">
        <ele>55</ele>
        <time>2020-01-26T08:48:06Z</time>
      </trkpt>
      <trkpt lat="45.77895" lon="-1.23692">
        <ele>55</ele>
        <time>2020-01-26T08:48:07Z</time>
      </trkpt>
      <trkpt lat="45.77895" lon="-1.23692">
        <ele>55</ele>
        <time>2020-01-26T08:48:08Z</time>
      </trkpt>
      <trkpt lat="45.77895" lon="-1.23692">
        <ele>55</ele>
        <time>2020-01-26T08:48:09Z</time>
      </trkpt>
      <trkpt lat="45.77895" lon="-1.23692">
        <ele>55</ele>
        <time>2020-01-26T08:48:10Z</time>
      </trkpt>
      <trkpt lat="45.77895" lon="-1.23692">
        <ele>55</ele>
        <time>2020-01-26T08:48:11Z</time>
      </trkpt>
      <trkpt lat="45.77895" lon="-1.23692">
        <ele>55</ele>
        <time>2020-01-26T08:48:12Z</time>
      </trkpt>
      <trkpt lat="45.77896" lon="-1.23692">
        <ele>54.8</ele>
        <time>2020-01-26T08:48:13Z</time>
      </trkpt>
      <trkpt lat="45.77896" lon="-1.23692">
        <ele>54.6</ele>
        <time>2020-01-26T08:48:14Z</time>
      </trkpt>
      <trkpt lat="45.77896" lon="-1.23692">
        <ele>54.4</ele>
        <time>2020-01-26T08:48:15Z</time>
      </trkpt>
      <trkpt lat="45.77895" lon="-1.23692">
        <ele>54.4</ele>
        <time>2020-01-26T08:48:16Z</time>
      </trkpt>
      <trkpt lat="45.77895" lon="-1.23692">
        <ele>54.2</ele>
        <time>2020-01-26T08:48:17Z</time>
      </trkpt>
      <trkpt lat="45.77894" lon="-1.23693">
        <ele>54</ele>
        <time>2020-01-26T08:48:18Z</time>
      </trkpt>
      <trkpt lat="45.77893" lon="-1.23692">
        <ele>54</ele>
        <time>2020-01-26T08:48:19Z</time>
      </trkpt>
      <trkpt lat="45.77893" lon="-1.23693">
        <ele>54</ele>
        <time>2020-01-26T08:48:20Z</time>
      </trkpt>
      <trkpt lat="45.77893" lon="-1.23693">
        <ele>54</ele>
        <time>2020-01-26T08:48:21Z</time>
      </trkpt>
      <trkpt lat="45.77893" lon="-1.23693">
        <ele>54</ele>
        <time>2020-01-26T08:48:22Z</time>
      </trkpt>
      <trkpt lat="45.77893" lon="-1.23694">
        <ele>54</ele>
        <time>2020-01-26T08:48:23Z</time>
      </trkpt>
      <trkpt lat="45.77892" lon="-1.23696">
        <ele>54.2</ele>
        <time>2020-01-26T08:48:24Z</time>
      </trkpt>
      <trkpt lat="45.77891" lon="-1.23697">
        <ele>54.2</ele>
        <time>2020-01-26T08:48:25Z</time>
      </trkpt>
      <trkpt lat="45.7789" lon="-1.23698">
        <ele>54.4</ele>
        <time>2020-01-26T08:48:26Z</time>
      </trkpt>
      <trkpt lat="45.77889" lon="-1.237">
        <ele>54.4</ele>
        <time>2020-01-26T08:48:27Z</time>
      </trkpt>
      <trkpt lat="45.77888" lon="-1.23701">
        <ele>54.4</ele>
        <time>2020-01-26T08:48:28Z</time>
      </trkpt>
      <trkpt lat="45.77888" lon="-1.23703">
        <ele>54.4</ele>
        <time>2020-01-26T08:48:29Z</time>
      </trkpt>
      <trkpt lat="45.77887" lon="-1.23704">
        <ele>54.4</ele>
        <time>2020-01-26T08:48:30Z</time>
      </trkpt>
      <trkpt lat="45.77886" lon="-1.23706">
        <ele>54.4</ele>
        <time>2020-01-26T08:48:31Z</time>
      </trkpt>
      <trkpt lat="45.77885" lon="-1.23708">
        <ele>54.6</ele>
        <time>2020-01-26T08:48:32Z</time>
      </trkpt>
      <trkpt lat="45.77885" lon="-1.23709">
        <ele>54.6</ele>
        <time>2020-01-26T08:48:33Z</time>
      </trkpt>
      <trkpt lat="45.77884" lon="-1.2371">
        <ele>54.8</ele>
        <time>2020-01-26T08:48:34Z</time>
      </trkpt>
      <trkpt lat="45.77884" lon="-1.2371">
        <ele>54.8</ele>
        <time>2020-01-26T08:48:35Z</time>
      </trkpt>
      <trkpt lat="45.77883" lon="-1.2371">
        <ele>54.8</ele>
        <time>2020-01-26T08:48:36Z</time>
      </trkpt>
      <trkpt lat="45.77882" lon="-1.2371">
        <ele>54.8</ele>
        <time>2020-01-26T08:48:37Z</time>
      </trkpt>
      <trkpt lat="45.77882" lon="-1.23711">
        <ele>54.8</ele>
        <time>2020-01-26T08:48:38Z</time>
      </trkpt>
      <trkpt lat="45.77881" lon="-1.23711">
        <ele>55</ele>
        <time>2020-01-26T08:48:39Z</time>
      </trkpt>
      <trkpt lat="45.7788" lon="-1.23711">
        <ele>55</ele>
        <time>2020-01-26T08:48:40Z</time>
      </trkpt>
      <trkpt lat="45.7788" lon="-1.23711">
        <ele>55</ele>
        <time>2020-01-26T08:48:41Z</time>
      </trkpt>
      <trkpt lat="45.7788" lon="-1.23711">
        <ele>55</ele>
        <time>2020-01-26T08:48:42Z</time>
      </trkpt>
      <trkpt lat="45.77879" lon="-1.23712">
        <ele>55</ele>
        <time>2020-01-26T08:48:43Z</time>
      </trkpt>
      <trkpt lat="45.77879" lon="-1.23712">
        <ele>55</ele>
        <time>2020-01-26T08:48:44Z</time>
      </trkpt>
      <trkpt lat="45.77879" lon="-1.23713">
        <ele>54.8</ele>
        <time>2020-01-26T08:48:45Z</time>
      </trkpt>
      <trkpt lat="45.77879" lon="-1.23713">
        <ele>54.6</ele>
        <time>2020-01-26T08:48:46Z</time>
      </trkpt>
      <trkpt lat="45.77878" lon="-1.23714">
        <ele>54.6</ele>
        <time>2020-01-26T08:48:47Z</time>
      </trkpt>
      <trkpt lat="45.77877" lon="-1.23714">
        <ele>54.6</ele>
        <time>2020-01-26T08:48:48Z</time>
      </trkpt>
      <trkpt lat="45.77876" lon="-1.23715">
        <ele>54.4</ele>
        <time>2020-01-26T08:48:49Z</time>
      </trkpt>
      <trkpt lat="45.77875" lon="-1.23715">
        <ele>54.4</ele>
        <time>2020-01-26T08:48:50Z</time>
      </trkpt>
      <trkpt lat="45.77874" lon="-1.23716">
        <ele>54</ele>
        <time>2020-01-26T08:48:51Z</time>
      </trkpt>
      <trkpt lat="45.77874" lon="-1.23717">
        <ele>53.8</ele>
        <time>2020-01-26T08:48:52Z</time>
      </trkpt>
      <trkpt lat="45.77874" lon="-1.23718">
        <ele>53.6</ele>
        <time>2020-01-26T08:48:53Z</time>
      </trkpt>
      <trkpt lat="45.77874" lon="-1.23719">
        <ele>53.2</ele>
        <time>2020-01-26T08:48:54Z</time>
      </trkpt>
      <trkpt lat="45.77874" lon="-1.23719">
        <ele>53.2</ele>
        <time>2020-01-26T08:48:55Z</time>
      </trkpt>
      <trkpt lat="45.77874" lon="-1.23719">
        <ele>53.2</ele>
        <time>2020-01-26T08:48:56Z</time>
      </trkpt>
      <trkpt lat="45.77874" lon="-1.2372">
        <ele>53</ele>
        <time>2020-01-26T08:48:57Z</time>
      </trkpt>
      <trkpt lat="45.77874" lon="-1.2372">
        <ele>53</ele>
        <time>2020-01-26T08:48:58Z</time>
      </trkpt>
      <trkpt lat="45.77875" lon="-1.2372">
        <ele>53</ele>
        <time>2020-01-26T08:48:59Z</time>
      </trkpt>
      <trkpt lat="45.77875" lon="-1.2372">
        <ele>53.2</ele>
        <time>2020-01-26T08:49:00Z</time>
      </trkpt>
      <trkpt lat="45.77875" lon="-1.2372">
        <ele>53.4</ele>
        <time>2020-01-26T08:49:01Z</time>
      </trkpt>
      <trkpt lat="45.77875" lon="-1.2372">
        <ele>53.4</ele>
        <time>2020-01-26T08:49:02Z</time>
      </trkpt>
      <trkpt lat="45.77875" lon="-1.2372">
        <ele>53.6</ele>
        <time>2020-01-26T08:49:03Z</time>
      </trkpt>
      <trkpt lat="45.77875" lon="-1.2372">
        <ele>53.8</ele>
        <time>2020-01-26T08:49:04Z</time>
      </trkpt>
      <trkpt lat="45.77875" lon="-1.2372">
        <ele>54</ele>
        <time>2020-01-26T08:49:05Z</time>
      </trkpt>
      <trkpt lat="45.77875" lon="-1.2372">
        <ele>54.2</ele>
        <time>2020-01-26T08:49:06Z</time>
      </trkpt>
      <trkpt lat="45.77875" lon="-1.2372">
        <ele>54.4</ele>
        <time>2020-01-26T08:49:07Z</time>
      </trkpt>
      <trkpt lat="45.77875" lon="-1.2372">
        <ele>54.6</ele>
        <time>2020-01-26T08:49:08Z</time>
      </trkpt>
      <trkpt lat="45.77875" lon="-1.2372">
        <ele>54.6</ele>
        <time>2020-01-26T08:49:09Z</time>
      </trkpt>
      <trkpt lat="45.77875" lon="-1.2372">
        <ele>54.8</ele>
        <time>2020-01-26T08:49:10Z</time>
      </trkpt>
      <trkpt lat="45.77875" lon="-1.2372">
        <ele>54.8</ele>
        <time>2020-01-26T08:49:11Z</time>
      </trkpt>
      <trkpt lat="45.77875" lon="-1.2372">
        <ele>54.8</ele>
        <time>2020-01-26T08:49:12Z</time>
      </trkpt>
      <trkpt lat="45.77875" lon="-1.2372">
        <ele>55</ele>
        <time>2020-01-26T08:49:13Z</time>
      </trkpt>
      <trkpt lat="45.77875" lon="-1.2372">
        <ele>55</ele>
        <time>2020-01-26T08:49:14Z</time>
      </trkpt>
      <trkpt lat="45.77875" lon="-1.2372">
        <ele>55</ele>
        <time>2020-01-26T08:49:15Z</time>
      </trkpt>
      <trkpt lat="45.77875" lon="-1.2372">
        <ele>55</ele>
        <time>2020-01-26T08:49:16Z</time>
      </trkpt>
      <trkpt lat="45.77875" lon="-1.2372">
        <ele>55</ele>
        <time>2020-01-26T08:49:17Z</time>
      </trkpt>
      <trkpt lat="45.77875" lon="-1.2372">
        <ele>55</ele>
        <time>2020-01-26T08:49:18Z</time>
      </trkpt>
      <trkpt lat="45.77875" lon="-1.2372">
        <ele>55</ele>
        <time>2020-01-26T08:49:19Z</time>
      </trkpt>
      <trkpt lat="45.77875" lon="-1.2372">
        <ele>55</ele>
        <time>2020-01-26T08:49:20Z</time>
      </trkpt>
      <trkpt lat="45.77875" lon="-1.2372">
        <ele>55</ele>
        <time>2020-01-26T08:49:21Z</time>
      </trkpt>
      <trkpt lat="45.77875" lon="-1.2372">
        <ele>55</ele>
        <time>2020-01-26T08:49:22Z</time>
      </trkpt>
      <trkpt lat="45.77875" lon="-1.2372">
        <ele>55</ele>
        <time>2020-01-26T08:49:23Z</time>
      </trkpt>
      <trkpt lat="45.77875" lon="-1.2372">
        <ele>55</ele>
        <time>2020-01-26T08:49:24Z</time>
      </trkpt>
      <trkpt lat="45.77875" lon="-1.2372">
        <ele>55</ele>
        <time>2020-01-26T08:49:25Z</time>
      </trkpt>
      <trkpt lat="45.77875" lon="-1.2372">
        <ele>55</ele>
        <time>2020-01-26T08:49:26Z</time>
      </trkpt>
      <trkpt lat="45.77875" lon="-1.2372">
        <ele>55</ele>
        <time>2020-01-26T08:49:27Z</time>
      </trkpt>
      <trkpt lat="45.77875" lon="-1.2372">
        <ele>55</ele>
        <time>2020-01-26T08:49:28Z</time>
      </trkpt>
      <trkpt lat="45.77875" lon="-1.2372">
        <ele>55</ele>
        <time>2020-01-26T08:49:29Z</time>
      </trkpt>
      <trkpt lat="45.77875" lon="-1.2372">
        <ele>55</ele>
        <time>2020-01-26T08:49:30Z</time>
      </trkpt>
      <trkpt lat="45.77875" lon="-1.2372">
        <ele>55</ele>
        <time>2020-01-26T08:49:31Z</time>
      </trkpt>
      <trkpt lat="45.77875" lon="-1.2372">
        <ele>55</ele>
        <time>2020-01-26T08:49:32Z</time>
      </trkpt>
      <trkpt lat="45.77875" lon="-1.2372">
        <ele>55</ele>
        <time>2020-01-26T08:49:33Z</time>
      </trkpt>
      <trkpt lat="45.77875" lon="-1.2372">
        <ele>55</ele>
        <time>2020-01-26T08:49:34Z</time>
      </trkpt>
      <trkpt lat="45.77875" lon="-1.2372">
        <ele>55</ele>
        <time>2020-01-26T08:49:35Z</time>
      </trkpt>
      <trkpt lat="45.77875" lon="-1.2372">
        <ele>55</ele>
        <time>2020-01-26T08:49:36Z</time>
      </trkpt>
      <trkpt lat="45.77875" lon="-1.2372">
        <ele>55</ele>
        <time>2020-01-26T08:49:37Z</time>
      </trkpt>
      <trkpt lat="45.77875" lon="-1.2372">
        <ele>55</ele>
        <time>2020-01-26T08:49:38Z</time>
      </trkpt>
      <trkpt lat="45.77875" lon="-1.2372">
        <ele>55</ele>
        <time>2020-01-26T08:49:39Z</time>
      </trkpt>
      <trkpt lat="45.77875" lon="-1.2372">
        <ele>55</ele>
        <time>2020-01-26T08:49:40Z</time>
      </trkpt>
      <trkpt lat="45.77875" lon="-1.2372">
        <ele>55</ele>
        <time>2020-01-26T08:49:41Z</time>
      </trkpt>
      <trkpt lat="45.77875" lon="-1.2372">
        <ele>55</ele>
        <time>2020-01-26T08:49:42Z</time>
      </trkpt>
      <trkpt lat="45.77875" lon="-1.2372">
        <ele>55</ele>
        <time>2020-01-26T08:49:43Z</time>
      </trkpt>
      <trkpt lat="45.77875" lon="-1.2372">
        <ele>55</ele>
        <time>2020-01-26T08:49:44Z</time>
      </trkpt>
      <trkpt lat="45.77875" lon="-1.2372">
        <ele>55</ele>
        <time>2020-01-26T08:49:45Z</time>
      </trkpt>
      <trkpt lat="45.77875" lon="-1.2372">
        <ele>55</ele>
        <time>2020-01-26T08:49:46Z</time>
      </trkpt>
      <trkpt lat="45.77875" lon="-1.2372">
        <ele>55</ele>
        <time>2020-01-26T08:49:47Z</time>
      </trkpt>
      <trkpt lat="45.77875" lon="-1.2372">
        <ele>55</ele>
        <time>2020-01-26T08:49:48Z</time>
      </trkpt>
      <trkpt lat="45.77875" lon="-1.2372">
        <ele>55</ele>
        <time>2020-01-26T08:49:49Z</time>
      </trkpt>
      <trkpt lat="45.77875" lon="-1.2372">
        <ele>55</ele>
        <time>2020-01-26T08:49:50Z</time>
      </trkpt>
      <trkpt lat="45.77875" lon="-1.2372">
        <ele>55</ele>
        <time>2020-01-26T08:49:51Z</time>
      </trkpt>
      <trkpt lat="45.77875" lon="-1.2372">
        <ele>55</ele>
        <time>2020-01-26T08:49:52Z</time>
      </trkpt>
      <trkpt lat="45.77875" lon="-1.2372">
        <ele>55</ele>
        <time>2020-01-26T08:49:53Z</time>
      </trkpt>
      <trkpt lat="45.77875" lon="-1.2372">
        <ele>55</ele>
        <time>2020-01-26T08:49:54Z</time>
      </trkpt>
      <trkpt lat="45.77875" lon="-1.2372">
        <ele>55</ele>
        <time>2020-01-26T08:49:55Z</time>
      </trkpt>
      <trkpt lat="45.77875" lon="-1.2372">
        <ele>55</ele>
        <time>2020-01-26T08:49:56Z</time>
      </trkpt>
      <trkpt lat="45.77875" lon="-1.2372">
        <ele>55</ele>
        <time>2020-01-26T08:49:57Z</time>
      </trkpt>
      <trkpt lat="45.77875" lon="-1.2372">
        <ele>55</ele>
        <time>2020-01-26T08:49:58Z</time>
      </trkpt>
      <trkpt lat="45.77875" lon="-1.2372">
        <ele>55</ele>
        <time>2020-01-26T08:49:59Z</time>
      </trkpt>
      <trkpt lat="45.77875" lon="-1.2372">
        <ele>55</ele>
        <time>2020-01-26T08:50:00Z</time>
      </trkpt>
      <trkpt lat="45.77875" lon="-1.2372">
        <ele>55</ele>
        <time>2020-01-26T08:50:01Z</time>
      </trkpt>
      <trkpt lat="45.77875" lon="-1.2372">
        <ele>55</ele>
        <time>2020-01-26T08:50:02Z</time>
      </trkpt>
      <trkpt lat="45.77875" lon="-1.2372">
        <ele>55</ele>
        <time>2020-01-26T08:50:03Z</time>
      </trkpt>
      <trkpt lat="45.77875" lon="-1.2372">
        <ele>55</ele>
        <time>2020-01-26T08:50:04Z</time>
      </trkpt>
      <trkpt lat="45.77875" lon="-1.2372">
        <ele>55</ele>
        <time>2020-01-26T08:50:05Z</time>
      </trkpt>
      <trkpt lat="45.77875" lon="-1.2372">
        <ele>55</ele>
        <time>2020-01-26T08:50:06Z</time>
      </trkpt>
      <trkpt lat="45.77875" lon="-1.2372">
        <ele>55</ele>
        <time>2020-01-26T08:50:07Z</time>
      </trkpt>
      <trkpt lat="45.77875" lon="-1.2372">
        <ele>55</ele>
        <time>2020-01-26T08:50:08Z</time>
      </trkpt>
      <trkpt lat="45.77875" lon="-1.2372">
        <ele>55</ele>
        <time>2020-01-26T08:50:09Z</time>
      </trkpt>
      <trkpt lat="45.77875" lon="-1.2372">
        <ele>55</ele>
        <time>2020-01-26T08:50:10Z</time>
      </trkpt>
      <trkpt lat="45.77875" lon="-1.2372">
        <ele>55</ele>
        <time>2020-01-26T08:50:11Z</time>
      </trkpt>
      <trkpt lat="45.77875" lon="-1.2372">
        <ele>55</ele>
        <time>2020-01-26T08:50:12Z</time>
      </trkpt>
      <trkpt lat="45.77875" lon="-1.2372">
        <ele>55</ele>
        <time>2020-01-26T08:50:13Z</time>
      </trkpt>
      <trkpt lat="45.77875" lon="-1.2372">
        <ele>55</ele>
        <time>2020-01-26T08:50:14Z</time>
      </trkpt>
      <trkpt lat="45.77875" lon="-1.2372">
        <ele>55</ele>
        <time>2020-01-26T08:50:15Z</time>
      </trkpt>
      <trkpt lat="45.77875" lon="-1.2372">
        <ele>55</ele>
        <time>2020-01-26T08:50:16Z</time>
      </trkpt>
      <trkpt lat="45.77875" lon="-1.2372">
        <ele>55</ele>
        <time>2020-01-26T08:50:17Z</time>
      </trkpt>
      <trkpt lat="45.77875" lon="-1.2372">
        <ele>55</ele>
        <time>2020-01-26T08:50:18Z</time>
      </trkpt>
      <trkpt lat="45.77875" lon="-1.2372">
        <ele>55</ele>
        <time>2020-01-26T08:50:19Z</time>
      </trkpt>
      <trkpt lat="45.77875" lon="-1.2372">
        <ele>55</ele>
        <time>2020-01-26T08:50:20Z</time>
      </trkpt>
      <trkpt lat="45.77875" lon="-1.2372">
        <ele>55</ele>
        <time>2020-01-26T08:50:21Z</time>
      </trkpt>
      <trkpt lat="45.77875" lon="-1.2372">
        <ele>55</ele>
        <time>2020-01-26T08:50:22Z</time>
      </trkpt>
      <trkpt lat="45.77875" lon="-1.2372">
        <ele>55</ele>
        <time>2020-01-26T08:50:23Z</time>
      </trkpt>
      <trkpt lat="45.77875" lon="-1.2372">
        <ele>55</ele>
        <time>2020-01-26T08:50:24Z</time>
      </trkpt>
      <trkpt lat="45.77875" lon="-1.2372">
        <ele>55</ele>
        <time>2020-01-26T08:50:25Z</time>
      </trkpt>
      <trkpt lat="45.77875" lon="-1.2372">
        <ele>55</ele>
        <time>2020-01-26T08:50:26Z</time>
      </trkpt>
      <trkpt lat="45.77875" lon="-1.2372">
        <ele>55</ele>
        <time>2020-01-26T08:50:27Z</time>
      </trkpt>
      <trkpt lat="45.77875" lon="-1.2372">
        <ele>55</ele>
        <time>2020-01-26T08:50:28Z</time>
      </trkpt>
      <trkpt lat="45.77875" lon="-1.2372">
        <ele>55</ele>
        <time>2020-01-26T08:50:29Z</time>
      </trkpt>
      <trkpt lat="45.77875" lon="-1.2372">
        <ele>55</ele>
        <time>2020-01-26T08:50:30Z</time>
      </trkpt>
      <trkpt lat="45.77875" lon="-1.2372">
        <ele>55</ele>
        <time>2020-01-26T08:50:31Z</time>
      </trkpt>
      <trkpt lat="45.77875" lon="-1.2372">
        <ele>55</ele>
        <time>2020-01-26T08:50:32Z</time>
      </trkpt>
      <trkpt lat="45.77875" lon="-1.2372">
        <ele>55</ele>
        <time>2020-01-26T08:50:33Z</time>
      </trkpt>
      <trkpt lat="45.77875" lon="-1.2372">
        <ele>55</ele>
        <time>2020-01-26T08:50:34Z</time>
      </trkpt>
      <trkpt lat="45.77875" lon="-1.2372">
        <ele>55</ele>
        <time>2020-01-26T08:50:35Z</time>
      </trkpt>
      <trkpt lat="45.77875" lon="-1.2372">
        <ele>55</ele>
        <time>2020-01-26T08:50:36Z</time>
      </trkpt>
      <trkpt lat="45.77875" lon="-1.2372">
        <ele>55</ele>
        <time>2020-01-26T08:50:37Z</time>
      </trkpt>
      <trkpt lat="45.77875" lon="-1.2372">
        <ele>55</ele>
        <time>2020-01-26T08:50:38Z</time>
      </trkpt>
      <trkpt lat="45.77875" lon="-1.2372">
        <ele>55</ele>
        <time>2020-01-26T08:50:39Z</time>
      </trkpt>
      <trkpt lat="45.77875" lon="-1.2372">
        <ele>55</ele>
        <time>2020-01-26T08:50:40Z</time>
      </trkpt>
      <trkpt lat="45.77875" lon="-1.2372">
        <ele>55</ele>
        <time>2020-01-26T08:50:41Z</time>
      </trkpt>
      <trkpt lat="45.77875" lon="-1.2372">
        <ele>55</ele>
        <time>2020-01-26T08:50:42Z</time>
      </trkpt>
      <trkpt lat="45.77875" lon="-1.2372">
        <ele>55</ele>
        <time>2020-01-26T08:50:43Z</time>
      </trkpt>
      <trkpt lat="45.77875" lon="-1.2372">
        <ele>55</ele>
        <time>2020-01-26T08:50:44Z</time>
      </trkpt>
      <trkpt lat="45.77875" lon="-1.2372">
        <ele>55</ele>
        <time>2020-01-26T08:50:45Z</time>
      </trkpt>
      <trkpt lat="45.77875" lon="-1.2372">
        <ele>55</ele>
        <time>2020-01-26T08:50:46Z</time>
      </trkpt>
      <trkpt lat="45.77875" lon="-1.2372">
        <ele>55</ele>
        <time>2020-01-26T08:50:47Z</time>
      </trkpt>
      <trkpt lat="45.77875" lon="-1.2372">
        <ele>55</ele>
        <time>2020-01-26T08:50:48Z</time>
      </trkpt>
      <trkpt lat="45.77875" lon="-1.2372">
        <ele>55</ele>
        <time>2020-01-26T08:50:49Z</time>
      </trkpt>
      <trkpt lat="45.77875" lon="-1.2372">
        <ele>55</ele>
        <time>2020-01-26T08:50:50Z</time>
      </trkpt>
      <trkpt lat="45.77875" lon="-1.2372">
        <ele>55</ele>
        <time>2020-01-26T08:50:51Z</time>
      </trkpt>
      <trkpt lat="45.77875" lon="-1.2372">
        <ele>55</ele>
        <time>2020-01-26T08:50:52Z</time>
      </trkpt>
      <trkpt lat="45.77875" lon="-1.2372">
        <ele>55</ele>
        <time>2020-01-26T08:50:53Z</time>
      </trkpt>
      <trkpt lat="45.77875" lon="-1.2372">
        <ele>55</ele>
        <time>2020-01-26T08:50:54Z</time>
      </trkpt>
      <trkpt lat="45.77875" lon="-1.2372">
        <ele>55</ele>
        <time>2020-01-26T08:50:55Z</time>
      </trkpt>
      <trkpt lat="45.77875" lon="-1.2372">
        <ele>55</ele>
        <time>2020-01-26T08:50:56Z</time>
      </trkpt>
      <trkpt lat="45.77875" lon="-1.2372">
        <ele>55</ele>
        <time>2020-01-26T08:50:57Z</time>
      </trkpt>
      <trkpt lat="45.77875" lon="-1.2372">
        <ele>55</ele>
        <time>2020-01-26T08:50:58Z</time>
      </trkpt>
      <trkpt lat="45.77875" lon="-1.2372">
        <ele>55</ele>
        <time>2020-01-26T08:50:59Z</time>
      </trkpt>
      <trkpt lat="45.77875" lon="-1.2372">
        <ele>55</ele>
        <time>2020-01-26T08:51:00Z</time>
      </trkpt>
      <trkpt lat="45.77875" lon="-1.2372">
        <ele>55</ele>
        <time>2020-01-26T08:51:01Z</time>
      </trkpt>
      <trkpt lat="45.77875" lon="-1.2372">
        <ele>55</ele>
        <time>2020-01-26T08:51:02Z</time>
      </trkpt>
      <trkpt lat="45.77875" lon="-1.2372">
        <ele>55</ele>
        <time>2020-01-26T08:51:03Z</time>
      </trkpt>
      <trkpt lat="45.77875" lon="-1.2372">
        <ele>55</ele>
        <time>2020-01-26T08:51:04Z</time>
      </trkpt>
      <trkpt lat="45.77875" lon="-1.2372">
        <ele>55</ele>
        <time>2020-01-26T08:51:05Z</time>
      </trkpt>
      <trkpt lat="45.77875" lon="-1.2372">
        <ele>55</ele>
        <time>2020-01-26T08:51:06Z</time>
      </trkpt>
      <trkpt lat="45.77875" lon="-1.2372">
        <ele>55</ele>
        <time>2020-01-26T08:51:07Z</time>
      </trkpt>
      <trkpt lat="45.77875" lon="-1.2372">
        <ele>55</ele>
        <time>2020-01-26T08:51:08Z</time>
      </trkpt>
      <trkpt lat="45.77875" lon="-1.2372">
        <ele>55</ele>
        <time>2020-01-26T08:51:09Z</time>
      </trkpt>
      <trkpt lat="45.77875" lon="-1.2372">
        <ele>55</ele>
        <time>2020-01-26T08:51:10Z</time>
      </trkpt>
      <trkpt lat="45.77875" lon="-1.2372">
        <ele>55</ele>
        <time>2020-01-26T08:51:11Z</time>
      </trkpt>
      <trkpt lat="45.77875" lon="-1.2372">
        <ele>55</ele>
        <time>2020-01-26T08:51:12Z</time>
      </trkpt>
      <trkpt lat="45.77875" lon="-1.2372">
        <ele>55</ele>
        <time>2020-01-26T08:51:13Z</time>
      </trkpt>
      <trkpt lat="45.77875" lon="-1.2372">
        <ele>55</ele>
        <time>2020-01-26T08:51:14Z</time>
      </trkpt>
      <trkpt lat="45.77875" lon="-1.2372">
        <ele>55</ele>
        <time>2020-01-26T08:51:15Z</time>
      </trkpt>
      <trkpt lat="45.77875" lon="-1.2372">
        <ele>55</ele>
        <time>2020-01-26T08:51:16Z</time>
      </trkpt>
      <trkpt lat="45.77875" lon="-1.2372">
        <ele>55</ele>
        <time>2020-01-26T08:51:17Z</time>
      </trkpt>
      <trkpt lat="45.77875" lon="-1.2372">
        <ele>55</ele>
        <time>2020-01-26T08:51:18Z</time>
      </trkpt>
      <trkpt lat="45.77875" lon="-1.2372">
        <ele>55</ele>
        <time>2020-01-26T08:51:19Z</time>
      </trkpt>
      <trkpt lat="45.77875" lon="-1.2372">
        <ele>55</ele>
        <time>2020-01-26T08:51:20Z</time>
      </trkpt>
      <trkpt lat="45.77875" lon="-1.2372">
        <ele>55</ele>
        <time>2020-01-26T08:51:21Z</time>
      </trkpt>
      <trkpt lat="45.77875" lon="-1.2372">
        <ele>55</ele>
        <time>2020-01-26T08:51:22Z</time>
      </trkpt>
      <trkpt lat="45.77875" lon="-1.2372">
        <ele>55</ele>
        <time>2020-01-26T08:51:23Z</time>
      </trkpt>
      <trkpt lat="45.77875" lon="-1.2372">
        <ele>55</ele>
        <time>2020-01-26T08:51:24Z</time>
      </trkpt>
      <trkpt lat="45.77875" lon="-1.2372">
        <ele>55</ele>
        <time>2020-01-26T08:51:25Z</time>
      </trkpt>
      <trkpt lat="45.77875" lon="-1.2372">
        <ele>55</ele>
        <time>2020-01-26T08:51:26Z</time>
      </trkpt>
      <trkpt lat="45.77875" lon="-1.2372">
        <ele>55</ele>
        <time>2020-01-26T08:51:27Z</time>
      </trkpt>
      <trkpt lat="45.77875" lon="-1.2372">
        <ele>55</ele>
        <time>2020-01-26T08:51:28Z</time>
      </trkpt>
      <trkpt lat="45.77875" lon="-1.2372">
        <ele>55</ele>
        <time>2020-01-26T08:51:29Z</time>
      </trkpt>
      <trkpt lat="45.77875" lon="-1.2372">
        <ele>55</ele>
        <time>2020-01-26T08:51:30Z</time>
      </trkpt>
      <trkpt lat="45.77875" lon="-1.2372">
        <ele>55</ele>
        <time>2020-01-26T08:51:31Z</time>
      </trkpt>
      <trkpt lat="45.77875" lon="-1.2372">
        <ele>55</ele>
        <time>2020-01-26T08:51:32Z</time>
      </trkpt>
      <trkpt lat="45.77875" lon="-1.2372">
        <ele>55</ele>
        <time>2020-01-26T08:51:33Z</time>
      </trkpt>
      <trkpt lat="45.77875" lon="-1.2372">
        <ele>55</ele>
        <time>2020-01-26T08:51:34Z</time>
      </trkpt>
      <trkpt lat="45.77875" lon="-1.2372">
        <ele>55</ele>
        <time>2020-01-26T08:51:35Z</time>
      </trkpt>
      <trkpt lat="45.77875" lon="-1.2372">
        <ele>55</ele>
        <time>2020-01-26T08:51:36Z</time>
      </trkpt>
      <trkpt lat="45.77875" lon="-1.2372">
        <ele>55</ele>
        <time>2020-01-26T08:51:37Z</time>
      </trkpt>
      <trkpt lat="45.77875" lon="-1.2372">
        <ele>55</ele>
        <time>2020-01-26T08:51:38Z</time>
      </trkpt>
      <trkpt lat="45.77875" lon="-1.2372">
        <ele>55</ele>
        <time>2020-01-26T08:51:39Z</time>
      </trkpt>
      <trkpt lat="45.77875" lon="-1.2372">
        <ele>55</ele>
        <time>2020-01-26T08:51:40Z</time>
      </trkpt>
      <trkpt lat="45.77875" lon="-1.2372">
        <ele>55</ele>
        <time>2020-01-26T08:51:41Z</time>
      </trkpt>
      <trkpt lat="45.77875" lon="-1.2372">
        <ele>55</ele>
        <time>2020-01-26T08:51:42Z</time>
      </trkpt>
      <trkpt lat="45.77875" lon="-1.2372">
        <ele>55</ele>
        <time>2020-01-26T08:51:43Z</time>
      </trkpt>
      <trkpt lat="45.77875" lon="-1.2372">
        <ele>55</ele>
        <time>2020-01-26T08:51:44Z</time>
      </trkpt>
      <trkpt lat="45.77875" lon="-1.2372">
        <ele>55</ele>
        <time>2020-01-26T08:51:45Z</time>
      </trkpt>
      <trkpt lat="45.77875" lon="-1.2372">
        <ele>55</ele>
        <time>2020-01-26T08:51:46Z</time>
      </trkpt>
      <trkpt lat="45.77875" lon="-1.2372">
        <ele>55</ele>
        <time>2020-01-26T08:51:47Z</time>
      </trkpt>
      <trkpt lat="45.77875" lon="-1.2372">
        <ele>55</ele>
        <time>2020-01-26T08:51:48Z</time>
      </trkpt>
      <trkpt lat="45.77875" lon="-1.2372">
        <ele>55</ele>
        <time>2020-01-26T08:51:49Z</time>
      </trkpt>
      <trkpt lat="45.77875" lon="-1.2372">
        <ele>55</ele>
        <time>2020-01-26T08:51:50Z</time>
      </trkpt>
      <trkpt lat="45.77875" lon="-1.2372">
        <ele>55</ele>
        <time>2020-01-26T08:51:51Z</time>
      </trkpt>
      <trkpt lat="45.77875" lon="-1.2372">
        <ele>55</ele>
        <time>2020-01-26T08:51:52Z</time>
      </trkpt>
      <trkpt lat="45.77875" lon="-1.2372">
        <ele>55</ele>
        <time>2020-01-26T08:51:53Z</time>
      </trkpt>
      <trkpt lat="45.77875" lon="-1.2372">
        <ele>55</ele>
        <time>2020-01-26T08:51:54Z</time>
      </trkpt>
      <trkpt lat="45.77875" lon="-1.2372">
        <ele>55</ele>
        <time>2020-01-26T08:51:55Z</time>
      </trkpt>
      <trkpt lat="45.77875" lon="-1.2372">
        <ele>55</ele>
        <time>2020-01-26T08:51:56Z</time>
      </trkpt>
      <trkpt lat="45.77875" lon="-1.2372">
        <ele>55</ele>
        <time>2020-01-26T08:51:57Z</time>
      </trkpt>
      <trkpt lat="45.77875" lon="-1.2372">
        <ele>55</ele>
        <time>2020-01-26T08:51:58Z</time>
      </trkpt>
      <trkpt lat="45.77875" lon="-1.2372">
        <ele>55</ele>
        <time>2020-01-26T08:51:59Z</time>
      </trkpt>
      <trkpt lat="45.77875" lon="-1.2372">
        <ele>55</ele>
        <time>2020-01-26T08:52:00Z</time>
      </trkpt>
      <trkpt lat="45.77875" lon="-1.2372">
        <ele>55</ele>
        <time>2020-01-26T08:52:01Z</time>
      </trkpt>
      <trkpt lat="45.77875" lon="-1.2372">
        <ele>55</ele>
        <time>2020-01-26T08:52:02Z</time>
      </trkpt>
      <trkpt lat="45.77875" lon="-1.2372">
        <ele>55</ele>
        <time>2020-01-26T08:52:03Z</time>
      </trkpt>
      <trkpt lat="45.77875" lon="-1.2372">
        <ele>55</ele>
        <time>2020-01-26T08:52:04Z</time>
      </trkpt>
      <trkpt lat="45.77875" lon="-1.2372">
        <ele>55</ele>
        <time>2020-01-26T08:52:05Z</time>
      </trkpt>
      <trkpt lat="45.77875" lon="-1.2372">
        <ele>55</ele>
        <time>2020-01-26T08:52:06Z</time>
      </trkpt>
      <trkpt lat="45.77875" lon="-1.2372">
        <ele>55</ele>
        <time>2020-01-26T08:52:07Z</time>
      </trkpt>
      <trkpt lat="45.77875" lon="-1.2372">
        <ele>55</ele>
        <time>2020-01-26T08:52:08Z</time>
      </trkpt>
      <trkpt lat="45.77875" lon="-1.2372">
        <ele>55</ele>
        <time>2020-01-26T08:52:09Z</time>
      </trkpt>
      <trkpt lat="45.77875" lon="-1.2372">
        <ele>55</ele>
        <time>2020-01-26T08:52:10Z</time>
      </trkpt>
      <trkpt lat="45.77875" lon="-1.2372">
        <ele>55</ele>
        <time>2020-01-26T08:52:11Z</time>
      </trkpt>
      <trkpt lat="45.77875" lon="-1.2372">
        <ele>55</ele>
        <time>2020-01-26T08:52:12Z</time>
      </trkpt>
      <trkpt lat="45.77875" lon="-1.2372">
        <ele>55</ele>
        <time>2020-01-26T08:52:13Z</time>
      </trkpt>
      <trkpt lat="45.77875" lon="-1.2372">
        <ele>55</ele>
        <time>2020-01-26T08:52:14Z</time>
      </trkpt>
      <trkpt lat="45.77875" lon="-1.2372">
        <ele>55</ele>
        <time>2020-01-26T08:52:15Z</time>
      </trkpt>
      <trkpt lat="45.77875" lon="-1.2372">
        <ele>55</ele>
        <time>2020-01-26T08:52:16Z</time>
      </trkpt>
      <trkpt lat="45.77875" lon="-1.2372">
        <ele>55</ele>
        <time>2020-01-26T08:52:17Z</time>
      </trkpt>
      <trkpt lat="45.77875" lon="-1.2372">
        <ele>55</ele>
        <time>2020-01-26T08:52:18Z</time>
      </trkpt>
      <trkpt lat="45.77875" lon="-1.2372">
        <ele>55</ele>
        <time>2020-01-26T08:52:19Z</time>
      </trkpt>
      <trkpt lat="45.77875" lon="-1.2372">
        <ele>55</ele>
        <time>2020-01-26T08:52:20Z</time>
      </trkpt>
      <trkpt lat="45.77875" lon="-1.2372">
        <ele>55</ele>
        <time>2020-01-26T08:52:21Z</time>
      </trkpt>
      <trkpt lat="45.77875" lon="-1.2372">
        <ele>55</ele>
        <time>2020-01-26T08:52:22Z</time>
      </trkpt>
      <trkpt lat="45.77875" lon="-1.2372">
        <ele>55</ele>
        <time>2020-01-26T08:52:23Z</time>
      </trkpt>
      <trkpt lat="45.77875" lon="-1.2372">
        <ele>55</ele>
        <time>2020-01-26T08:52:24Z</time>
      </trkpt>
      <trkpt lat="45.77875" lon="-1.2372">
        <ele>55</ele>
        <time>2020-01-26T08:52:25Z</time>
      </trkpt>
      <trkpt lat="45.77875" lon="-1.2372">
        <ele>55</ele>
        <time>2020-01-26T08:52:26Z</time>
      </trkpt>
      <trkpt lat="45.77875" lon="-1.2372">
        <ele>55</ele>
        <time>2020-01-26T08:52:27Z</time>
      </trkpt>
      <trkpt lat="45.77875" lon="-1.2372">
        <ele>55</ele>
        <time>2020-01-26T08:52:28Z</time>
      </trkpt>
      <trkpt lat="45.77875" lon="-1.2372">
        <ele>55</ele>
        <time>2020-01-26T08:52:29Z</time>
      </trkpt>
      <trkpt lat="45.77875" lon="-1.2372">
        <ele>55</ele>
        <time>2020-01-26T08:52:30Z</time>
      </trkpt>
      <trkpt lat="45.77875" lon="-1.2372">
        <ele>55</ele>
        <time>2020-01-26T08:52:31Z</time>
      </trkpt>
      <trkpt lat="45.77875" lon="-1.2372">
        <ele>55</ele>
        <time>2020-01-26T08:52:32Z</time>
      </trkpt>
      <trkpt lat="45.77875" lon="-1.2372">
        <ele>55</ele>
        <time>2020-01-26T08:52:33Z</time>
      </trkpt>
      <trkpt lat="45.77875" lon="-1.2372">
        <ele>55</ele>
        <time>2020-01-26T08:52:34Z</time>
      </trkpt>
      <trkpt lat="45.77875" lon="-1.2372">
        <ele>55</ele>
        <time>2020-01-26T08:52:35Z</time>
      </trkpt>
      <trkpt lat="45.77875" lon="-1.2372">
        <ele>55</ele>
        <time>2020-01-26T08:52:36Z</time>
      </trkpt>
      <trkpt lat="45.77875" lon="-1.2372">
        <ele>55</ele>
        <time>2020-01-26T08:52:37Z</time>
      </trkpt>
      <trkpt lat="45.77875" lon="-1.2372">
        <ele>55</ele>
        <time>2020-01-26T08:52:38Z</time>
      </trkpt>
      <trkpt lat="45.77875" lon="-1.2372">
        <ele>55</ele>
        <time>2020-01-26T08:52:39Z</time>
      </trkpt>
      <trkpt lat="45.77875" lon="-1.2372">
        <ele>55</ele>
        <time>2020-01-26T08:52:40Z</time>
      </trkpt>
      <trkpt lat="45.77875" lon="-1.2372">
        <ele>55</ele>
        <time>2020-01-26T08:52:41Z</time>
      </trkpt>
      <trkpt lat="45.77875" lon="-1.2372">
        <ele>55</ele>
        <time>2020-01-26T08:52:42Z</time>
      </trkpt>
      <trkpt lat="45.77875" lon="-1.2372">
        <ele>55</ele>
        <time>2020-01-26T08:52:43Z</time>
      </trkpt>
      <trkpt lat="45.77875" lon="-1.2372">
        <ele>55</ele>
        <time>2020-01-26T08:52:44Z</time>
      </trkpt>
      <trkpt lat="45.77875" lon="-1.2372">
        <ele>55</ele>
        <time>2020-01-26T08:52:45Z</time>
      </trkpt>
      <trkpt lat="45.77875" lon="-1.2372">
        <ele>55</ele>
        <time>2020-01-26T08:52:46Z</time>
      </trkpt>
      <trkpt lat="45.77875" lon="-1.2372">
        <ele>55</ele>
        <time>2020-01-26T08:52:47Z</time>
      </trkpt>
      <trkpt lat="45.77875" lon="-1.2372">
        <ele>55</ele>
        <time>2020-01-26T08:52:48Z</time>
      </trkpt>
      <trkpt lat="45.77875" lon="-1.2372">
        <ele>55</ele>
        <time>2020-01-26T08:52:49Z</time>
      </trkpt>
      <trkpt lat="45.77875" lon="-1.2372">
        <ele>55</ele>
        <time>2020-01-26T08:52:50Z</time>
      </trkpt>
      <trkpt lat="45.77875" lon="-1.2372">
        <ele>55</ele>
        <time>2020-01-26T08:52:51Z</time>
      </trkpt>
      <trkpt lat="45.77875" lon="-1.2372">
        <ele>55</ele>
        <time>2020-01-26T08:52:52Z</time>
      </trkpt>
      <trkpt lat="45.77875" lon="-1.2372">
        <ele>55</ele>
        <time>2020-01-26T08:52:53Z</time>
      </trkpt>
      <trkpt lat="45.77875" lon="-1.2372">
        <ele>55</ele>
        <time>2020-01-26T08:52:54Z</time>
      </trkpt>
      <trkpt lat="45.77875" lon="-1.2372">
        <ele>55</ele>
        <time>2020-01-26T08:52:55Z</time>
      </trkpt>
      <trkpt lat="45.77875" lon="-1.2372">
        <ele>55</ele>
        <time>2020-01-26T08:52:56Z</time>
      </trkpt>
      <trkpt lat="45.77875" lon="-1.2372">
        <ele>55</ele>
        <time>2020-01-26T08:52:57Z</time>
      </trkpt>
      <trkpt lat="45.77875" lon="-1.2372">
        <ele>55</ele>
        <time>2020-01-26T08:52:58Z</time>
      </trkpt>
      <trkpt lat="45.77875" lon="-1.2372">
        <ele>55</ele>
        <time>2020-01-26T08:52:59Z</time>
      </trkpt>
      <trkpt lat="45.77874" lon="-1.2372">
        <ele>55</ele>
        <time>2020-01-26T08:53:00Z</time>
      </trkpt>
      <trkpt lat="45.77874" lon="-1.2372">
        <ele>55</ele>
        <time>2020-01-26T08:53:01Z</time>
      </trkpt>
      <trkpt lat="45.77874" lon="-1.2372">
        <ele>55</ele>
        <time>2020-01-26T08:53:02Z</time>
      </trkpt>
      <trkpt lat="45.77874" lon="-1.2372">
        <ele>55</ele>
        <time>2020-01-26T08:53:03Z</time>
      </trkpt>
      <trkpt lat="45.77873" lon="-1.2372">
        <ele>55</ele>
        <time>2020-01-26T08:53:04Z</time>
      </trkpt>
      <trkpt lat="45.77873" lon="-1.23721">
        <ele>55</ele>
        <time>2020-01-26T08:53:05Z</time>
      </trkpt>
      <trkpt lat="45.77873" lon="-1.23721">
        <ele>55</ele>
        <time>2020-01-26T08:53:06Z</time>
      </trkpt>
      <trkpt lat="45.77873" lon="-1.23721">
        <ele>55</ele>
        <time>2020-01-26T08:53:07Z</time>
      </trkpt>
      <trkpt lat="45.77873" lon="-1.23721">
        <ele>55</ele>
        <time>2020-01-26T08:53:08Z</time>
      </trkpt>
      <trkpt lat="45.77873" lon="-1.23721">
        <ele>55</ele>
        <time>2020-01-26T08:53:09Z</time>
      </trkpt>
      <trkpt lat="45.77873" lon="-1.23721">
        <ele>55</ele>
        <time>2020-01-26T08:53:10Z</time>
      </trkpt>
      <trkpt lat="45.77873" lon="-1.23721">
        <ele>55</ele>
        <time>2020-01-26T08:53:11Z</time>
      </trkpt>
      <trkpt lat="45.77873" lon="-1.23721">
        <ele>55</ele>
        <time>2020-01-26T08:53:12Z</time>
      </trkpt>
      <trkpt lat="45.77873" lon="-1.23721">
        <ele>55</ele>
        <time>2020-01-26T08:53:13Z</time>
      </trkpt>
      <trkpt lat="45.77873" lon="-1.23721">
        <ele>55</ele>
        <time>2020-01-26T08:53:14Z</time>
      </trkpt>
      <trkpt lat="45.77873" lon="-1.23721">
        <ele>55</ele>
        <time>2020-01-26T08:53:15Z</time>
      </trkpt>
      <trkpt lat="45.77873" lon="-1.23721">
        <ele>55</ele>
        <time>2020-01-26T08:53:16Z</time>
      </trkpt>
      <trkpt lat="45.77873" lon="-1.23721">
        <ele>55</ele>
        <time>2020-01-26T08:53:17Z</time>
      </trkpt>
      <trkpt lat="45.77873" lon="-1.23721">
        <ele>55</ele>
        <time>2020-01-26T08:53:18Z</time>
      </trkpt>
      <trkpt lat="45.77873" lon="-1.23721">
        <ele>54.8</ele>
        <time>2020-01-26T08:53:19Z</time>
      </trkpt>
      <trkpt lat="45.77873" lon="-1.23721">
        <ele>54.6</ele>
        <time>2020-01-26T08:53:20Z</time>
      </trkpt>
      <trkpt lat="45.77873" lon="-1.23721">
        <ele>54.4</ele>
        <time>2020-01-26T08:53:21Z</time>
      </trkpt>
      <trkpt lat="45.77873" lon="-1.23721">
        <ele>54.4</ele>
        <time>2020-01-26T08:53:22Z</time>
      </trkpt>
      <trkpt lat="45.77873" lon="-1.23721">
        <ele>54.2</ele>
        <time>2020-01-26T08:53:23Z</time>
      </trkpt>
      <trkpt lat="45.77873" lon="-1.23721">
        <ele>54.2</ele>
        <time>2020-01-26T08:53:24Z</time>
      </trkpt>
      <trkpt lat="45.77873" lon="-1.23721">
        <ele>54.2</ele>
        <time>2020-01-26T08:53:25Z</time>
      </trkpt>
      <trkpt lat="45.77873" lon="-1.23721">
        <ele>54</ele>
        <time>2020-01-26T08:53:26Z</time>
      </trkpt>
      <trkpt lat="45.77873" lon="-1.23721">
        <ele>54</ele>
        <time>2020-01-26T08:53:27Z</time>
      </trkpt>
      <trkpt lat="45.77873" lon="-1.23721">
        <ele>54</ele>
        <time>2020-01-26T08:53:28Z</time>
      </trkpt>
      <trkpt lat="45.77873" lon="-1.23721">
        <ele>54</ele>
        <time>2020-01-26T08:53:29Z</time>
      </trkpt>
      <trkpt lat="45.77873" lon="-1.23721">
        <ele>54</ele>
        <time>2020-01-26T08:53:30Z</time>
      </trkpt>
      <trkpt lat="45.77873" lon="-1.23721">
        <ele>54</ele>
        <time>2020-01-26T08:53:31Z</time>
      </trkpt>
      <trkpt lat="45.77873" lon="-1.23721">
        <ele>54</ele>
        <time>2020-01-26T08:53:32Z</time>
      </trkpt>
      <trkpt lat="45.77873" lon="-1.23721">
        <ele>54</ele>
        <time>2020-01-26T08:53:33Z</time>
      </trkpt>
      <trkpt lat="45.77873" lon="-1.23721">
        <ele>54</ele>
        <time>2020-01-26T08:53:34Z</time>
      </trkpt>
      <trkpt lat="45.77873" lon="-1.23721">
        <ele>54</ele>
        <time>2020-01-26T08:53:35Z</time>
      </trkpt>
      <trkpt lat="45.77873" lon="-1.23721">
        <ele>54</ele>
        <time>2020-01-26T08:53:36Z</time>
      </trkpt>
      <trkpt lat="45.77873" lon="-1.23721">
        <ele>54</ele>
        <time>2020-01-26T08:53:37Z</time>
      </trkpt>
      <trkpt lat="45.77873" lon="-1.23721">
        <ele>54</ele>
        <time>2020-01-26T08:53:38Z</time>
      </trkpt>
      <trkpt lat="45.77873" lon="-1.23721">
        <ele>54</ele>
        <time>2020-01-26T08:53:39Z</time>
      </trkpt>
      <trkpt lat="45.77873" lon="-1.23721">
        <ele>54</ele>
        <time>2020-01-26T08:53:40Z</time>
      </trkpt>
      <trkpt lat="45.77873" lon="-1.23721">
        <ele>54</ele>
        <time>2020-01-26T08:53:41Z</time>
      </trkpt>
      <trkpt lat="45.77873" lon="-1.23721">
        <ele>54</ele>
        <time>2020-01-26T08:53:42Z</time>
      </trkpt>
      <trkpt lat="45.77873" lon="-1.23721">
        <ele>54</ele>
        <time>2020-01-26T08:53:43Z</time>
      </trkpt>
      <trkpt lat="45.77873" lon="-1.23721">
        <ele>54</ele>
        <time>2020-01-26T08:53:44Z</time>
      </trkpt>
      <trkpt lat="45.77873" lon="-1.23721">
        <ele>54</ele>
        <time>2020-01-26T08:53:45Z</time>
      </trkpt>
      <trkpt lat="45.77873" lon="-1.23721">
        <ele>54</ele>
        <time>2020-01-26T08:53:46Z</time>
      </trkpt>
      <trkpt lat="45.77873" lon="-1.23721">
        <ele>54</ele>
        <time>2020-01-26T08:53:47Z</time>
      </trkpt>
      <trkpt lat="45.77873" lon="-1.23721">
        <ele>54</ele>
        <time>2020-01-26T08:53:48Z</time>
      </trkpt>
      <trkpt lat="45.77873" lon="-1.23721">
        <ele>54</ele>
        <time>2020-01-26T08:53:49Z</time>
      </trkpt>
      <trkpt lat="45.77873" lon="-1.23721">
        <ele>54</ele>
        <time>2020-01-26T08:53:50Z</time>
      </trkpt>
      <trkpt lat="45.77873" lon="-1.23721">
        <ele>54</ele>
        <time>2020-01-26T08:53:51Z</time>
      </trkpt>
      <trkpt lat="45.77873" lon="-1.23721">
        <ele>54</ele>
        <time>2020-01-26T08:53:52Z</time>
      </trkpt>
      <trkpt lat="45.77873" lon="-1.23721">
        <ele>54</ele>
        <time>2020-01-26T08:53:53Z</time>
      </trkpt>
      <trkpt lat="45.77873" lon="-1.23721">
        <ele>54</ele>
        <time>2020-01-26T08:53:54Z</time>
      </trkpt>
      <trkpt lat="45.77873" lon="-1.23721">
        <ele>54</ele>
        <time>2020-01-26T08:53:55Z</time>
      </trkpt>
      <trkpt lat="45.77873" lon="-1.23721">
        <ele>54</ele>
        <time>2020-01-26T08:53:56Z</time>
      </trkpt>
      <trkpt lat="45.77873" lon="-1.23721">
        <ele>54</ele>
        <time>2020-01-26T08:53:57Z</time>
      </trkpt>
      <trkpt lat="45.77873" lon="-1.23721">
        <ele>54</ele>
        <time>2020-01-26T08:53:58Z</time>
      </trkpt>
      <trkpt lat="45.77873" lon="-1.23721">
        <ele>54</ele>
        <time>2020-01-26T08:53:59Z</time>
      </trkpt>
      <trkpt lat="45.77873" lon="-1.23721">
        <ele>54</ele>
        <time>2020-01-26T08:54:00Z</time>
      </trkpt>
      <trkpt lat="45.77873" lon="-1.23721">
        <ele>54</ele>
        <time>2020-01-26T08:54:01Z</time>
      </trkpt>
      <trkpt lat="45.77873" lon="-1.23721">
        <ele>54</ele>
        <time>2020-01-26T08:54:02Z</time>
      </trkpt>
      <trkpt lat="45.77873" lon="-1.23721">
        <ele>54</ele>
        <time>2020-01-26T08:54:03Z</time>
      </trkpt>
      <trkpt lat="45.77873" lon="-1.23721">
        <ele>54</ele>
        <time>2020-01-26T08:54:04Z</time>
      </trkpt>
      <trkpt lat="45.77873" lon="-1.23721">
        <ele>54</ele>
        <time>2020-01-26T08:54:05Z</time>
      </trkpt>
      <trkpt lat="45.77873" lon="-1.23721">
        <ele>54</ele>
        <time>2020-01-26T08:54:06Z</time>
      </trkpt>
      <trkpt lat="45.77873" lon="-1.23721">
        <ele>54</ele>
        <time>2020-01-26T08:54:07Z</time>
      </trkpt>
      <trkpt lat="45.77873" lon="-1.23721">
        <ele>54</ele>
        <time>2020-01-26T08:54:08Z</time>
      </trkpt>
      <trkpt lat="45.77873" lon="-1.23721">
        <ele>54</ele>
        <time>2020-01-26T08:54:09Z</time>
      </trkpt>
      <trkpt lat="45.77873" lon="-1.23721">
        <ele>54</ele>
        <time>2020-01-26T08:54:10Z</time>
      </trkpt>
      <trkpt lat="45.77873" lon="-1.23721">
        <ele>54</ele>
        <time>2020-01-26T08:54:11Z</time>
      </trkpt>
      <trkpt lat="45.77873" lon="-1.23721">
        <ele>54</ele>
        <time>2020-01-26T08:54:12Z</time>
      </trkpt>
      <trkpt lat="45.77873" lon="-1.23721">
        <ele>54</ele>
        <time>2020-01-26T08:54:13Z</time>
      </trkpt>
      <trkpt lat="45.77873" lon="-1.23721">
        <ele>54</ele>
        <time>2020-01-26T08:54:14Z</time>
      </trkpt>
      <trkpt lat="45.77873" lon="-1.23721">
        <ele>54</ele>
        <time>2020-01-26T08:54:15Z</time>
      </trkpt>
      <trkpt lat="45.77873" lon="-1.23721">
        <ele>54</ele>
        <time>2020-01-26T08:54:16Z</time>
      </trkpt>
      <trkpt lat="45.77873" lon="-1.23721">
        <ele>54</ele>
        <time>2020-01-26T08:54:17Z</time>
      </trkpt>
      <trkpt lat="45.77873" lon="-1.23721">
        <ele>54</ele>
        <time>2020-01-26T08:54:18Z</time>
      </trkpt>
      <trkpt lat="45.77873" lon="-1.23721">
        <ele>54</ele>
        <time>2020-01-26T08:54:19Z</time>
      </trkpt>
      <trkpt lat="45.77873" lon="-1.23721">
        <ele>54</ele>
        <time>2020-01-26T08:54:20Z</time>
      </trkpt>
      <trkpt lat="45.77873" lon="-1.23721">
        <ele>54</ele>
        <time>2020-01-26T08:54:21Z</time>
      </trkpt>
      <trkpt lat="45.77873" lon="-1.23721">
        <ele>54</ele>
        <time>2020-01-26T08:54:22Z</time>
      </trkpt>
      <trkpt lat="45.77873" lon="-1.23721">
        <ele>54</ele>
        <time>2020-01-26T08:54:23Z</time>
      </trkpt>
      <trkpt lat="45.77873" lon="-1.23721">
        <ele>54</ele>
        <time>2020-01-26T08:54:24Z</time>
      </trkpt>
      <trkpt lat="45.77873" lon="-1.23721">
        <ele>54</ele>
        <time>2020-01-26T08:54:25Z</time>
      </trkpt>
      <trkpt lat="45.77873" lon="-1.23721">
        <ele>54</ele>
        <time>2020-01-26T08:54:26Z</time>
      </trkpt>
      <trkpt lat="45.77873" lon="-1.23721">
        <ele>54</ele>
        <time>2020-01-26T08:54:27Z</time>
      </trkpt>
      <trkpt lat="45.77873" lon="-1.23721">
        <ele>54</ele>
        <time>2020-01-26T08:54:28Z</time>
      </trkpt>
      <trkpt lat="45.77873" lon="-1.23721">
        <ele>54</ele>
        <time>2020-01-26T08:54:29Z</time>
      </trkpt>
      <trkpt lat="45.77873" lon="-1.23721">
        <ele>54</ele>
        <time>2020-01-26T08:54:30Z</time>
      </trkpt>
      <trkpt lat="45.77873" lon="-1.23721">
        <ele>54</ele>
        <time>2020-01-26T08:54:31Z</time>
      </trkpt>
      <trkpt lat="45.77873" lon="-1.23721">
        <ele>54</ele>
        <time>2020-01-26T08:54:32Z</time>
      </trkpt>
      <trkpt lat="45.77873" lon="-1.23721">
        <ele>54</ele>
        <time>2020-01-26T08:54:33Z</time>
      </trkpt>
      <trkpt lat="45.77873" lon="-1.23721">
        <ele>54</ele>
        <time>2020-01-26T08:54:34Z</time>
      </trkpt>
      <trkpt lat="45.77873" lon="-1.2372">
        <ele>54.2</ele>
        <time>2020-01-26T08:54:35Z</time>
      </trkpt>
      <trkpt lat="45.77873" lon="-1.2372">
        <ele>54.4</ele>
        <time>2020-01-26T08:54:36Z</time>
      </trkpt>
      <trkpt lat="45.77873" lon="-1.2372">
        <ele>54.6</ele>
        <time>2020-01-26T08:54:37Z</time>
      </trkpt>
      <trkpt lat="45.77873" lon="-1.2372">
        <ele>54.6</ele>
        <time>2020-01-26T08:54:38Z</time>
      </trkpt>
      <trkpt lat="45.77873" lon="-1.2372">
        <ele>54.8</ele>
        <time>2020-01-26T08:54:39Z</time>
      </trkpt>
      <trkpt lat="45.77873" lon="-1.2372">
        <ele>54.8</ele>
        <time>2020-01-26T08:54:40Z</time>
      </trkpt>
      <trkpt lat="45.77873" lon="-1.2372">
        <ele>54.8</ele>
        <time>2020-01-26T08:54:41Z</time>
      </trkpt>
      <trkpt lat="45.77873" lon="-1.2372">
        <ele>55</ele>
        <time>2020-01-26T08:54:42Z</time>
      </trkpt>
      <trkpt lat="45.77873" lon="-1.2372">
        <ele>55</ele>
        <time>2020-01-26T08:54:43Z</time>
      </trkpt>
      <trkpt lat="45.77873" lon="-1.2372">
        <ele>55</ele>
        <time>2020-01-26T08:54:44Z</time>
      </trkpt>
      <trkpt lat="45.77873" lon="-1.2372">
        <ele>55</ele>
        <time>2020-01-26T08:54:45Z</time>
      </trkpt>
      <trkpt lat="45.77873" lon="-1.2372">
        <ele>55</ele>
        <time>2020-01-26T08:54:46Z</time>
      </trkpt>
      <trkpt lat="45.77873" lon="-1.2372">
        <ele>55</ele>
        <time>2020-01-26T08:54:47Z</time>
      </trkpt>
      <trkpt lat="45.77873" lon="-1.2372">
        <ele>55</ele>
        <time>2020-01-26T08:54:48Z</time>
      </trkpt>
      <trkpt lat="45.77873" lon="-1.2372">
        <ele>55</ele>
        <time>2020-01-26T08:54:49Z</time>
      </trkpt>
      <trkpt lat="45.77873" lon="-1.2372">
        <ele>55</ele>
        <time>2020-01-26T08:54:50Z</time>
      </trkpt>
      <trkpt lat="45.77873" lon="-1.2372">
        <ele>55</ele>
        <time>2020-01-26T08:54:51Z</time>
      </trkpt>
      <trkpt lat="45.77873" lon="-1.2372">
        <ele>55</ele>
        <time>2020-01-26T08:54:52Z</time>
      </trkpt>
      <trkpt lat="45.77873" lon="-1.2372">
        <ele>55</ele>
        <time>2020-01-26T08:54:53Z</time>
      </trkpt>
      <trkpt lat="45.77873" lon="-1.2372">
        <ele>55</ele>
        <time>2020-01-26T08:54:54Z</time>
      </trkpt>
      <trkpt lat="45.77873" lon="-1.2372">
        <ele>55</ele>
        <time>2020-01-26T08:54:55Z</time>
      </trkpt>
      <trkpt lat="45.77873" lon="-1.2372">
        <ele>55</ele>
        <time>2020-01-26T08:54:56Z</time>
      </trkpt>
      <trkpt lat="45.77873" lon="-1.2372">
        <ele>55</ele>
        <time>2020-01-26T08:54:57Z</time>
      </trkpt>
      <trkpt lat="45.77873" lon="-1.2372">
        <ele>55</ele>
        <time>2020-01-26T08:54:58Z</time>
      </trkpt>
      <trkpt lat="45.77873" lon="-1.2372">
        <ele>55</ele>
        <time>2020-01-26T08:54:59Z</time>
      </trkpt>
      <trkpt lat="45.77873" lon="-1.2372">
        <ele>55</ele>
        <time>2020-01-26T08:55:00Z</time>
      </trkpt>
      <trkpt lat="45.77873" lon="-1.2372">
        <ele>55</ele>
        <time>2020-01-26T08:55:01Z</time>
      </trkpt>
      <trkpt lat="45.77873" lon="-1.2372">
        <ele>55</ele>
        <time>2020-01-26T08:55:02Z</time>
      </trkpt>
      <trkpt lat="45.77873" lon="-1.2372">
        <ele>55</ele>
        <time>2020-01-26T08:55:03Z</time>
      </trkpt>
      <trkpt lat="45.77873" lon="-1.2372">
        <ele>55</ele>
        <time>2020-01-26T08:55:04Z</time>
      </trkpt>
      <trkpt lat="45.77873" lon="-1.2372">
        <ele>55</ele>
        <time>2020-01-26T08:55:05Z</time>
      </trkpt>
      <trkpt lat="45.77873" lon="-1.2372">
        <ele>55</ele>
        <time>2020-01-26T08:55:06Z</time>
      </trkpt>
      <trkpt lat="45.77873" lon="-1.2372">
        <ele>55</ele>
        <time>2020-01-26T08:55:07Z</time>
      </trkpt>
      <trkpt lat="45.77873" lon="-1.2372">
        <ele>55</ele>
        <time>2020-01-26T08:55:08Z</time>
      </trkpt>
      <trkpt lat="45.77873" lon="-1.2372">
        <ele>55</ele>
        <time>2020-01-26T08:55:09Z</time>
      </trkpt>
      <trkpt lat="45.77873" lon="-1.2372">
        <ele>55</ele>
        <time>2020-01-26T08:55:10Z</time>
      </trkpt>
      <trkpt lat="45.77873" lon="-1.2372">
        <ele>55</ele>
        <time>2020-01-26T08:55:11Z</time>
      </trkpt>
      <trkpt lat="45.77873" lon="-1.2372">
        <ele>55</ele>
        <time>2020-01-26T08:55:12Z</time>
      </trkpt>
      <trkpt lat="45.77873" lon="-1.2372">
        <ele>55</ele>
        <time>2020-01-26T08:55:13Z</time>
      </trkpt>
      <trkpt lat="45.77873" lon="-1.2372">
        <ele>55</ele>
        <time>2020-01-26T08:55:14Z</time>
      </trkpt>
      <trkpt lat="45.77873" lon="-1.2372">
        <ele>55</ele>
        <time>2020-01-26T08:55:15Z</time>
      </trkpt>
      <trkpt lat="45.77873" lon="-1.2372">
        <ele>55</ele>
        <time>2020-01-26T08:55:16Z</time>
      </trkpt>
      <trkpt lat="45.77873" lon="-1.2372">
        <ele>55</ele>
        <time>2020-01-26T08:55:17Z</time>
      </trkpt>
      <trkpt lat="45.77873" lon="-1.2372">
        <ele>55</ele>
        <time>2020-01-26T08:55:18Z</time>
      </trkpt>
      <trkpt lat="45.77873" lon="-1.2372">
        <ele>55</ele>
        <time>2020-01-26T08:55:19Z</time>
      </trkpt>
      <trkpt lat="45.77873" lon="-1.2372">
        <ele>55</ele>
        <time>2020-01-26T08:55:20Z</time>
      </trkpt>
      <trkpt lat="45.77873" lon="-1.2372">
        <ele>55</ele>
        <time>2020-01-26T08:55:21Z</time>
      </trkpt>
      <trkpt lat="45.77873" lon="-1.2372">
        <ele>55</ele>
        <time>2020-01-26T08:55:22Z</time>
      </trkpt>
      <trkpt lat="45.77873" lon="-1.2372">
        <ele>55</ele>
        <time>2020-01-26T08:55:23Z</time>
      </trkpt>
      <trkpt lat="45.77873" lon="-1.2372">
        <ele>55</ele>
        <time>2020-01-26T08:55:24Z</time>
      </trkpt>
      <trkpt lat="45.77873" lon="-1.2372">
        <ele>55</ele>
        <time>2020-01-26T08:55:25Z</time>
      </trkpt>
      <trkpt lat="45.77873" lon="-1.2372">
        <ele>55</ele>
        <time>2020-01-26T08:55:26Z</time>
      </trkpt>
      <trkpt lat="45.77873" lon="-1.2372">
        <ele>55</ele>
        <time>2020-01-26T08:55:27Z</time>
      </trkpt>
      <trkpt lat="45.77873" lon="-1.2372">
        <ele>55</ele>
        <time>2020-01-26T08:55:28Z</time>
      </trkpt>
      <trkpt lat="45.77873" lon="-1.2372">
        <ele>55</ele>
        <time>2020-01-26T08:55:29Z</time>
      </trkpt>
      <trkpt lat="45.77873" lon="-1.2372">
        <ele>55</ele>
        <time>2020-01-26T08:55:30Z</time>
      </trkpt>
      <trkpt lat="45.77873" lon="-1.2372">
        <ele>55</ele>
        <time>2020-01-26T08:55:31Z</time>
      </trkpt>
      <trkpt lat="45.77873" lon="-1.2372">
        <ele>55</ele>
        <time>2020-01-26T08:55:32Z</time>
      </trkpt>
      <trkpt lat="45.77873" lon="-1.2372">
        <ele>55</ele>
        <time>2020-01-26T08:55:33Z</time>
      </trkpt>
      <trkpt lat="45.77873" lon="-1.2372">
        <ele>55</ele>
        <time>2020-01-26T08:55:34Z</time>
      </trkpt>
      <trkpt lat="45.77873" lon="-1.2372">
        <ele>55</ele>
        <time>2020-01-26T08:55:35Z</time>
      </trkpt>
      <trkpt lat="45.77873" lon="-1.2372">
        <ele>55</ele>
        <time>2020-01-26T08:55:36Z</time>
      </trkpt>
      <trkpt lat="45.77873" lon="-1.2372">
        <ele>55</ele>
        <time>2020-01-26T08:55:37Z</time>
      </trkpt>
      <trkpt lat="45.77873" lon="-1.2372">
        <ele>55</ele>
        <time>2020-01-26T08:55:38Z</time>
      </trkpt>
      <trkpt lat="45.77873" lon="-1.2372">
        <ele>55</ele>
        <time>2020-01-26T08:55:39Z</time>
      </trkpt>
      <trkpt lat="45.77873" lon="-1.2372">
        <ele>55</ele>
        <time>2020-01-26T08:55:40Z</time>
      </trkpt>
      <trkpt lat="45.77873" lon="-1.2372">
        <ele>55</ele>
        <time>2020-01-26T08:55:41Z</time>
      </trkpt>
      <trkpt lat="45.77873" lon="-1.2372">
        <ele>55</ele>
        <time>2020-01-26T08:55:42Z</time>
      </trkpt>
      <trkpt lat="45.77873" lon="-1.2372">
        <ele>55</ele>
        <time>2020-01-26T08:55:43Z</time>
      </trkpt>
      <trkpt lat="45.77873" lon="-1.2372">
        <ele>55</ele>
        <time>2020-01-26T08:55:44Z</time>
      </trkpt>
      <trkpt lat="45.77873" lon="-1.2372">
        <ele>55</ele>
        <time>2020-01-26T08:55:45Z</time>
      </trkpt>
      <trkpt lat="45.77873" lon="-1.2372">
        <ele>55</ele>
        <time>2020-01-26T08:55:46Z</time>
      </trkpt>
      <trkpt lat="45.77873" lon="-1.2372">
        <ele>55</ele>
        <time>2020-01-26T08:55:47Z</time>
      </trkpt>
      <trkpt lat="45.77873" lon="-1.2372">
        <ele>55</ele>
        <time>2020-01-26T08:55:48Z</time>
      </trkpt>
      <trkpt lat="45.77873" lon="-1.2372">
        <ele>55</ele>
        <time>2020-01-26T08:55:49Z</time>
      </trkpt>
      <trkpt lat="45.77873" lon="-1.2372">
        <ele>55</ele>
        <time>2020-01-26T08:55:50Z</time>
      </trkpt>
      <trkpt lat="45.77873" lon="-1.2372">
        <ele>55</ele>
        <time>2020-01-26T08:55:51Z</time>
      </trkpt>
      <trkpt lat="45.77873" lon="-1.2372">
        <ele>55</ele>
        <time>2020-01-26T08:55:52Z</time>
      </trkpt>
      <trkpt lat="45.77873" lon="-1.2372">
        <ele>55</ele>
        <time>2020-01-26T08:55:53Z</time>
      </trkpt>
      <trkpt lat="45.77873" lon="-1.2372">
        <ele>55</ele>
        <time>2020-01-26T08:55:54Z</time>
      </trkpt>
      <trkpt lat="45.77873" lon="-1.2372">
        <ele>55</ele>
        <time>2020-01-26T08:55:55Z</time>
      </trkpt>
      <trkpt lat="45.77873" lon="-1.2372">
        <ele>55</ele>
        <time>2020-01-26T08:55:56Z</time>
      </trkpt>
      <trkpt lat="45.77873" lon="-1.2372">
        <ele>55</ele>
        <time>2020-01-26T08:55:57Z</time>
      </trkpt>
      <trkpt lat="45.77873" lon="-1.2372">
        <ele>55</ele>
        <time>2020-01-26T08:55:58Z</time>
      </trkpt>
      <trkpt lat="45.77873" lon="-1.2372">
        <ele>55</ele>
        <time>2020-01-26T08:55:59Z</time>
      </trkpt>
      <trkpt lat="45.77873" lon="-1.2372">
        <ele>55</ele>
        <time>2020-01-26T08:56:00Z</time>
      </trkpt>
      <trkpt lat="45.77873" lon="-1.2372">
        <ele>55</ele>
        <time>2020-01-26T08:56:01Z</time>
      </trkpt>
      <trkpt lat="45.77873" lon="-1.2372">
        <ele>55</ele>
        <time>2020-01-26T08:56:02Z</time>
      </trkpt>
      <trkpt lat="45.77873" lon="-1.2372">
        <ele>55</ele>
        <time>2020-01-26T08:56:03Z</time>
      </trkpt>
      <trkpt lat="45.77873" lon="-1.2372">
        <ele>55</ele>
        <time>2020-01-26T08:56:04Z</time>
      </trkpt>
      <trkpt lat="45.77873" lon="-1.2372">
        <ele>55</ele>
        <time>2020-01-26T08:56:05Z</time>
      </trkpt>
      <trkpt lat="45.77873" lon="-1.2372">
        <ele>55</ele>
        <time>2020-01-26T08:56:06Z</time>
      </trkpt>
      <trkpt lat="45.77873" lon="-1.2372">
        <ele>55</ele>
        <time>2020-01-26T08:56:07Z</time>
      </trkpt>
      <trkpt lat="45.77873" lon="-1.2372">
        <ele>55</ele>
        <time>2020-01-26T08:56:08Z</time>
      </trkpt>
      <trkpt lat="45.77873" lon="-1.2372">
        <ele>55</ele>
        <time>2020-01-26T08:56:09Z</time>
      </trkpt>
      <trkpt lat="45.77873" lon="-1.2372">
        <ele>55</ele>
        <time>2020-01-26T08:56:10Z</time>
      </trkpt>
      <trkpt lat="45.77873" lon="-1.2372">
        <ele>55</ele>
        <time>2020-01-26T08:56:11Z</time>
      </trkpt>
      <trkpt lat="45.77873" lon="-1.2372">
        <ele>55</ele>
        <time>2020-01-26T08:56:12Z</time>
      </trkpt>
      <trkpt lat="45.77873" lon="-1.2372">
        <ele>55</ele>
        <time>2020-01-26T08:56:13Z</time>
      </trkpt>
      <trkpt lat="45.77873" lon="-1.2372">
        <ele>55</ele>
        <time>2020-01-26T08:56:14Z</time>
      </trkpt>
      <trkpt lat="45.77873" lon="-1.2372">
        <ele>55</ele>
        <time>2020-01-26T08:56:15Z</time>
      </trkpt>
      <trkpt lat="45.77873" lon="-1.2372">
        <ele>55</ele>
        <time>2020-01-26T08:56:16Z</time>
      </trkpt>
      <trkpt lat="45.77873" lon="-1.2372">
        <ele>55</ele>
        <time>2020-01-26T08:56:17Z</time>
      </trkpt>
      <trkpt lat="45.77873" lon="-1.2372">
        <ele>55</ele>
        <time>2020-01-26T08:56:18Z</time>
      </trkpt>
      <trkpt lat="45.77873" lon="-1.2372">
        <ele>55</ele>
        <time>2020-01-26T08:56:19Z</time>
      </trkpt>
      <trkpt lat="45.77873" lon="-1.2372">
        <ele>55</ele>
        <time>2020-01-26T08:56:20Z</time>
      </trkpt>
      <trkpt lat="45.77873" lon="-1.2372">
        <ele>55</ele>
        <time>2020-01-26T08:56:21Z</time>
      </trkpt>
      <trkpt lat="45.77873" lon="-1.2372">
        <ele>55</ele>
        <time>2020-01-26T08:56:22Z</time>
      </trkpt>
      <trkpt lat="45.77873" lon="-1.2372">
        <ele>55</ele>
        <time>2020-01-26T08:56:23Z</time>
      </trkpt>
      <trkpt lat="45.77873" lon="-1.2372">
        <ele>55</ele>
        <time>2020-01-26T08:56:24Z</time>
      </trkpt>
      <trkpt lat="45.77873" lon="-1.2372">
        <ele>55</ele>
        <time>2020-01-26T08:56:25Z</time>
      </trkpt>
      <trkpt lat="45.77873" lon="-1.2372">
        <ele>55</ele>
        <time>2020-01-26T08:56:26Z</time>
      </trkpt>
      <trkpt lat="45.77873" lon="-1.2372">
        <ele>55</ele>
        <time>2020-01-26T08:56:27Z</time>
      </trkpt>
      <trkpt lat="45.77873" lon="-1.2372">
        <ele>55</ele>
        <time>2020-01-26T08:56:28Z</time>
      </trkpt>
      <trkpt lat="45.77873" lon="-1.2372">
        <ele>55</ele>
        <time>2020-01-26T08:56:29Z</time>
      </trkpt>
      <trkpt lat="45.77873" lon="-1.2372">
        <ele>55</ele>
        <time>2020-01-26T08:56:30Z</time>
      </trkpt>
      <trkpt lat="45.77873" lon="-1.2372">
        <ele>55</ele>
        <time>2020-01-26T08:56:31Z</time>
      </trkpt>
      <trkpt lat="45.77873" lon="-1.2372">
        <ele>55</ele>
        <time>2020-01-26T08:56:32Z</time>
      </trkpt>
      <trkpt lat="45.77873" lon="-1.2372">
        <ele>55</ele>
        <time>2020-01-26T08:56:33Z</time>
      </trkpt>
      <trkpt lat="45.77873" lon="-1.2372">
        <ele>55</ele>
        <time>2020-01-26T08:56:34Z</time>
      </trkpt>
      <trkpt lat="45.77873" lon="-1.2372">
        <ele>55</ele>
        <time>2020-01-26T08:56:35Z</time>
      </trkpt>
      <trkpt lat="45.77873" lon="-1.2372">
        <ele>55</ele>
        <time>2020-01-26T08:56:36Z</time>
      </trkpt>
      <trkpt lat="45.77873" lon="-1.2372">
        <ele>55</ele>
        <time>2020-01-26T08:56:37Z</time>
      </trkpt>
      <trkpt lat="45.77873" lon="-1.2372">
        <ele>55</ele>
        <time>2020-01-26T08:56:38Z</time>
      </trkpt>
      <trkpt lat="45.77873" lon="-1.2372">
        <ele>55</ele>
        <time>2020-01-26T08:56:39Z</time>
      </trkpt>
      <trkpt lat="45.77873" lon="-1.2372">
        <ele>55</ele>
        <time>2020-01-26T08:56:40Z</time>
      </trkpt>
      <trkpt lat="45.77873" lon="-1.2372">
        <ele>55</ele>
        <time>2020-01-26T08:56:41Z</time>
      </trkpt>
      <trkpt lat="45.77873" lon="-1.2372">
        <ele>55</ele>
        <time>2020-01-26T08:56:42Z</time>
      </trkpt>
      <trkpt lat="45.77873" lon="-1.2372">
        <ele>55</ele>
        <time>2020-01-26T08:56:43Z</time>
      </trkpt>
      <trkpt lat="45.77873" lon="-1.2372">
        <ele>55</ele>
        <time>2020-01-26T08:56:44Z</time>
      </trkpt>
      <trkpt lat="45.77873" lon="-1.2372">
        <ele>55</ele>
        <time>2020-01-26T08:56:45Z</time>
      </trkpt>
      <trkpt lat="45.77873" lon="-1.2372">
        <ele>55</ele>
        <time>2020-01-26T08:56:46Z</time>
      </trkpt>
      <trkpt lat="45.77873" lon="-1.2372">
        <ele>55</ele>
        <time>2020-01-26T08:56:47Z</time>
      </trkpt>
      <trkpt lat="45.77873" lon="-1.2372">
        <ele>55</ele>
        <time>2020-01-26T08:56:48Z</time>
      </trkpt>
      <trkpt lat="45.77873" lon="-1.2372">
        <ele>55</ele>
        <time>2020-01-26T08:56:49Z</time>
      </trkpt>
      <trkpt lat="45.77873" lon="-1.2372">
        <ele>55</ele>
        <time>2020-01-26T08:56:50Z</time>
      </trkpt>
      <trkpt lat="45.77873" lon="-1.2372">
        <ele>55</ele>
        <time>2020-01-26T08:56:51Z</time>
      </trkpt>
      <trkpt lat="45.77873" lon="-1.2372">
        <ele>55</ele>
        <time>2020-01-26T08:56:52Z</time>
      </trkpt>
      <trkpt lat="45.77873" lon="-1.2372">
        <ele>55</ele>
        <time>2020-01-26T08:56:53Z</time>
      </trkpt>
      <trkpt lat="45.77873" lon="-1.2372">
        <ele>55</ele>
        <time>2020-01-26T08:56:54Z</time>
      </trkpt>
      <trkpt lat="45.77873" lon="-1.2372">
        <ele>55</ele>
        <time>2020-01-26T08:56:55Z</time>
      </trkpt>
      <trkpt lat="45.77873" lon="-1.2372">
        <ele>55</ele>
        <time>2020-01-26T08:56:56Z</time>
      </trkpt>
      <trkpt lat="45.77873" lon="-1.2372">
        <ele>55</ele>
        <time>2020-01-26T08:56:57Z</time>
      </trkpt>
      <trkpt lat="45.77873" lon="-1.2372">
        <ele>55</ele>
        <time>2020-01-26T08:56:58Z</time>
      </trkpt>
      <trkpt lat="45.77873" lon="-1.2372">
        <ele>55</ele>
        <time>2020-01-26T08:56:59Z</time>
      </trkpt>
      <trkpt lat="45.77873" lon="-1.2372">
        <ele>55</ele>
        <time>2020-01-26T08:57:00Z</time>
      </trkpt>
      <trkpt lat="45.77873" lon="-1.2372">
        <ele>55</ele>
        <time>2020-01-26T08:57:01Z</time>
      </trkpt>
      <trkpt lat="45.77873" lon="-1.2372">
        <ele>55</ele>
        <time>2020-01-26T08:57:02Z</time>
      </trkpt>
      <trkpt lat="45.77873" lon="-1.2372">
        <ele>55</ele>
        <time>2020-01-26T08:57:03Z</time>
      </trkpt>
      <trkpt lat="45.77873" lon="-1.2372">
        <ele>55</ele>
        <time>2020-01-26T08:57:04Z</time>
      </trkpt>
      <trkpt lat="45.77873" lon="-1.2372">
        <ele>55</ele>
        <time>2020-01-26T08:57:05Z</time>
      </trkpt>
      <trkpt lat="45.77873" lon="-1.2372">
        <ele>55</ele>
        <time>2020-01-26T08:57:06Z</time>
      </trkpt>
      <trkpt lat="45.77873" lon="-1.2372">
        <ele>55</ele>
        <time>2020-01-26T08:57:07Z</time>
      </trkpt>
      <trkpt lat="45.77873" lon="-1.2372">
        <ele>55</ele>
        <time>2020-01-26T08:57:08Z</time>
      </trkpt>
      <trkpt lat="45.77873" lon="-1.2372">
        <ele>55</ele>
        <time>2020-01-26T08:57:09Z</time>
      </trkpt>
      <trkpt lat="45.77873" lon="-1.2372">
        <ele>55</ele>
        <time>2020-01-26T08:57:10Z</time>
      </trkpt>
      <trkpt lat="45.77873" lon="-1.2372">
        <ele>55</ele>
        <time>2020-01-26T08:57:11Z</time>
      </trkpt>
      <trkpt lat="45.77873" lon="-1.2372">
        <ele>55</ele>
        <time>2020-01-26T08:57:12Z</time>
      </trkpt>
      <trkpt lat="45.77873" lon="-1.2372">
        <ele>55</ele>
        <time>2020-01-26T08:57:13Z</time>
      </trkpt>
      <trkpt lat="45.77873" lon="-1.2372">
        <ele>55</ele>
        <time>2020-01-26T08:57:14Z</time>
      </trkpt>
      <trkpt lat="45.77873" lon="-1.2372">
        <ele>55</ele>
        <time>2020-01-26T08:57:15Z</time>
      </trkpt>
      <trkpt lat="45.77873" lon="-1.2372">
        <ele>55</ele>
        <time>2020-01-26T08:57:16Z</time>
      </trkpt>
      <trkpt lat="45.77873" lon="-1.2372">
        <ele>55</ele>
        <time>2020-01-26T08:57:17Z</time>
      </trkpt>
      <trkpt lat="45.77873" lon="-1.2372">
        <ele>55</ele>
        <time>2020-01-26T08:57:18Z</time>
      </trkpt>
      <trkpt lat="45.77873" lon="-1.2372">
        <ele>55</ele>
        <time>2020-01-26T08:57:19Z</time>
      </trkpt>
      <trkpt lat="45.77873" lon="-1.2372">
        <ele>55</ele>
        <time>2020-01-26T08:57:20Z</time>
      </trkpt>
      <trkpt lat="45.77873" lon="-1.2372">
        <ele>55</ele>
        <time>2020-01-26T08:57:21Z</time>
      </trkpt>
      <trkpt lat="45.77873" lon="-1.2372">
        <ele>55</ele>
        <time>2020-01-26T08:57:22Z</time>
      </trkpt>
      <trkpt lat="45.77873" lon="-1.2372">
        <ele>55</ele>
        <time>2020-01-26T08:57:23Z</time>
      </trkpt>
      <trkpt lat="45.77873" lon="-1.2372">
        <ele>55</ele>
        <time>2020-01-26T08:57:24Z</time>
      </trkpt>
      <trkpt lat="45.77873" lon="-1.2372">
        <ele>55</ele>
        <time>2020-01-26T08:57:25Z</time>
      </trkpt>
      <trkpt lat="45.77873" lon="-1.2372">
        <ele>55</ele>
        <time>2020-01-26T08:57:26Z</time>
      </trkpt>
      <trkpt lat="45.77873" lon="-1.2372">
        <ele>55</ele>
        <time>2020-01-26T08:57:27Z</time>
      </trkpt>
      <trkpt lat="45.77873" lon="-1.2372">
        <ele>55</ele>
        <time>2020-01-26T08:57:28Z</time>
      </trkpt>
      <trkpt lat="45.77873" lon="-1.2372">
        <ele>55</ele>
        <time>2020-01-26T08:57:29Z</time>
      </trkpt>
      <trkpt lat="45.77873" lon="-1.2372">
        <ele>55</ele>
        <time>2020-01-26T08:57:30Z</time>
      </trkpt>
      <trkpt lat="45.77873" lon="-1.2372">
        <ele>55</ele>
        <time>2020-01-26T08:57:31Z</time>
      </trkpt>
      <trkpt lat="45.77873" lon="-1.2372">
        <ele>55</ele>
        <time>2020-01-26T08:57:32Z</time>
      </trkpt>
      <trkpt lat="45.77873" lon="-1.2372">
        <ele>55</ele>
        <time>2020-01-26T08:57:33Z</time>
      </trkpt>
      <trkpt lat="45.77873" lon="-1.2372">
        <ele>55</ele>
        <time>2020-01-26T08:57:34Z</time>
      </trkpt>
      <trkpt lat="45.77873" lon="-1.2372">
        <ele>55</ele>
        <time>2020-01-26T08:57:35Z</time>
      </trkpt>
      <trkpt lat="45.77873" lon="-1.2372">
        <ele>55</ele>
        <time>2020-01-26T08:57:36Z</time>
      </trkpt>
      <trkpt lat="45.77873" lon="-1.2372">
        <ele>55</ele>
        <time>2020-01-26T08:57:37Z</time>
      </trkpt>
      <trkpt lat="45.77873" lon="-1.2372">
        <ele>55</ele>
        <time>2020-01-26T08:57:38Z</time>
      </trkpt>
      <trkpt lat="45.77873" lon="-1.2372">
        <ele>55</ele>
        <time>2020-01-26T08:57:39Z</time>
      </trkpt>
      <trkpt lat="45.77873" lon="-1.2372">
        <ele>55</ele>
        <time>2020-01-26T08:57:40Z</time>
      </trkpt>
      <trkpt lat="45.77873" lon="-1.2372">
        <ele>55</ele>
        <time>2020-01-26T08:57:41Z</time>
      </trkpt>
      <trkpt lat="45.77873" lon="-1.2372">
        <ele>55</ele>
        <time>2020-01-26T08:57:42Z</time>
      </trkpt>
      <trkpt lat="45.77873" lon="-1.2372">
        <ele>55</ele>
        <time>2020-01-26T08:57:43Z</time>
      </trkpt>
      <trkpt lat="45.77873" lon="-1.2372">
        <ele>55</ele>
        <time>2020-01-26T08:57:44Z</time>
      </trkpt>
      <trkpt lat="45.77873" lon="-1.2372">
        <ele>55</ele>
        <time>2020-01-26T08:57:45Z</time>
      </trkpt>
      <trkpt lat="45.77873" lon="-1.2372">
        <ele>55</ele>
        <time>2020-01-26T08:57:46Z</time>
      </trkpt>
      <trkpt lat="45.77873" lon="-1.2372">
        <ele>55</ele>
        <time>2020-01-26T08:57:47Z</time>
      </trkpt>
      <trkpt lat="45.77873" lon="-1.2372">
        <ele>55</ele>
        <time>2020-01-26T08:57:48Z</time>
      </trkpt>
      <trkpt lat="45.77873" lon="-1.2372">
        <ele>55</ele>
        <time>2020-01-26T08:57:49Z</time>
      </trkpt>
      <trkpt lat="45.77873" lon="-1.2372">
        <ele>55</ele>
        <time>2020-01-26T08:57:50Z</time>
      </trkpt>
      <trkpt lat="45.77873" lon="-1.2372">
        <ele>55</ele>
        <time>2020-01-26T08:57:51Z</time>
      </trkpt>
      <trkpt lat="45.77873" lon="-1.2372">
        <ele>55</ele>
        <time>2020-01-26T08:57:52Z</time>
      </trkpt>
      <trkpt lat="45.77873" lon="-1.2372">
        <ele>55</ele>
        <time>2020-01-26T08:57:53Z</time>
      </trkpt>
      <trkpt lat="45.77873" lon="-1.2372">
        <ele>55</ele>
        <time>2020-01-26T08:57:54Z</time>
      </trkpt>
      <trkpt lat="45.77873" lon="-1.2372">
        <ele>55</ele>
        <time>2020-01-26T08:57:55Z</time>
      </trkpt>
      <trkpt lat="45.77873" lon="-1.2372">
        <ele>55</ele>
        <time>2020-01-26T08:57:56Z</time>
      </trkpt>
      <trkpt lat="45.77873" lon="-1.2372">
        <ele>55</ele>
        <time>2020-01-26T08:57:57Z</time>
      </trkpt>
      <trkpt lat="45.77873" lon="-1.2372">
        <ele>55</ele>
        <time>2020-01-26T08:57:58Z</time>
      </trkpt>
      <trkpt lat="45.77873" lon="-1.2372">
        <ele>55</ele>
        <time>2020-01-26T08:57:59Z</time>
      </trkpt>
      <trkpt lat="45.77873" lon="-1.2372">
        <ele>55</ele>
        <time>2020-01-26T08:58:00Z</time>
      </trkpt>
      <trkpt lat="45.77873" lon="-1.2372">
        <ele>55</ele>
        <time>2020-01-26T08:58:01Z</time>
      </trkpt>
      <trkpt lat="45.77873" lon="-1.2372">
        <ele>55</ele>
        <time>2020-01-26T08:58:02Z</time>
      </trkpt>
      <trkpt lat="45.77873" lon="-1.2372">
        <ele>55</ele>
        <time>2020-01-26T08:58:03Z</time>
      </trkpt>
      <trkpt lat="45.77873" lon="-1.2372">
        <ele>55</ele>
        <time>2020-01-26T08:58:04Z</time>
      </trkpt>
      <trkpt lat="45.77873" lon="-1.2372">
        <ele>55</ele>
        <time>2020-01-26T08:58:05Z</time>
      </trkpt>
      <trkpt lat="45.77873" lon="-1.2372">
        <ele>55</ele>
        <time>2020-01-26T08:58:06Z</time>
      </trkpt>
      <trkpt lat="45.77873" lon="-1.2372">
        <ele>55</ele>
        <time>2020-01-26T08:58:07Z</time>
      </trkpt>
      <trkpt lat="45.77873" lon="-1.2372">
        <ele>55</ele>
        <time>2020-01-26T08:58:08Z</time>
      </trkpt>
      <trkpt lat="45.77873" lon="-1.2372">
        <ele>55</ele>
        <time>2020-01-26T08:58:09Z</time>
      </trkpt>
      <trkpt lat="45.77873" lon="-1.2372">
        <ele>55</ele>
        <time>2020-01-26T08:58:10Z</time>
      </trkpt>
      <trkpt lat="45.77873" lon="-1.2372">
        <ele>55</ele>
        <time>2020-01-26T08:58:11Z</time>
      </trkpt>
      <trkpt lat="45.77873" lon="-1.2372">
        <ele>55</ele>
        <time>2020-01-26T08:58:12Z</time>
      </trkpt>
      <trkpt lat="45.77873" lon="-1.2372">
        <ele>55</ele>
        <time>2020-01-26T08:58:13Z</time>
      </trkpt>
      <trkpt lat="45.77873" lon="-1.2372">
        <ele>55</ele>
        <time>2020-01-26T08:58:14Z</time>
      </trkpt>
      <trkpt lat="45.77873" lon="-1.2372">
        <ele>55</ele>
        <time>2020-01-26T08:58:15Z</time>
      </trkpt>
      <trkpt lat="45.77873" lon="-1.2372">
        <ele>55</ele>
        <time>2020-01-26T08:58:16Z</time>
      </trkpt>
      <trkpt lat="45.77873" lon="-1.2372">
        <ele>55</ele>
        <time>2020-01-26T08:58:17Z</time>
      </trkpt>
      <trkpt lat="45.77873" lon="-1.2372">
        <ele>55</ele>
        <time>2020-01-26T08:58:18Z</time>
      </trkpt>
      <trkpt lat="45.77873" lon="-1.2372">
        <ele>55</ele>
        <time>2020-01-26T08:58:19Z</time>
      </trkpt>
      <trkpt lat="45.77873" lon="-1.2372">
        <ele>55</ele>
        <time>2020-01-26T08:58:20Z</time>
      </trkpt>
      <trkpt lat="45.77873" lon="-1.2372">
        <ele>55</ele>
        <time>2020-01-26T08:58:21Z</time>
      </trkpt>
      <trkpt lat="45.77873" lon="-1.2372">
        <ele>55</ele>
        <time>2020-01-26T08:58:22Z</time>
      </trkpt>
      <trkpt lat="45.77873" lon="-1.2372">
        <ele>55</ele>
        <time>2020-01-26T08:58:23Z</time>
      </trkpt>
      <trkpt lat="45.77873" lon="-1.2372">
        <ele>55</ele>
        <time>2020-01-26T08:58:24Z</time>
      </trkpt>
      <trkpt lat="45.77873" lon="-1.2372">
        <ele>55</ele>
        <time>2020-01-26T08:58:25Z</time>
      </trkpt>
      <trkpt lat="45.77873" lon="-1.2372">
        <ele>55</ele>
        <time>2020-01-26T08:58:26Z</time>
      </trkpt>
      <trkpt lat="45.77873" lon="-1.2372">
        <ele>55</ele>
        <time>2020-01-26T08:58:27Z</time>
      </trkpt>
      <trkpt lat="45.77873" lon="-1.2372">
        <ele>55</ele>
        <time>2020-01-26T08:58:28Z</time>
      </trkpt>
      <trkpt lat="45.77873" lon="-1.2372">
        <ele>55</ele>
        <time>2020-01-26T08:58:29Z</time>
      </trkpt>
      <trkpt lat="45.77873" lon="-1.2372">
        <ele>55</ele>
        <time>2020-01-26T08:58:30Z</time>
      </trkpt>
      <trkpt lat="45.77873" lon="-1.2372">
        <ele>55</ele>
        <time>2020-01-26T08:58:31Z</time>
      </trkpt>
      <trkpt lat="45.77873" lon="-1.2372">
        <ele>55</ele>
        <time>2020-01-26T08:58:32Z</time>
      </trkpt>
      <trkpt lat="45.77873" lon="-1.2372">
        <ele>55</ele>
        <time>2020-01-26T08:58:33Z</time>
      </trkpt>
      <trkpt lat="45.77873" lon="-1.2372">
        <ele>55</ele>
        <time>2020-01-26T08:58:34Z</time>
      </trkpt>
      <trkpt lat="45.77873" lon="-1.2372">
        <ele>55</ele>
        <time>2020-01-26T08:58:35Z</time>
      </trkpt>
      <trkpt lat="45.77873" lon="-1.2372">
        <ele>55</ele>
        <time>2020-01-26T08:58:36Z</time>
      </trkpt>
      <trkpt lat="45.77873" lon="-1.2372">
        <ele>55</ele>
        <time>2020-01-26T08:58:37Z</time>
      </trkpt>
      <trkpt lat="45.77873" lon="-1.2372">
        <ele>55</ele>
        <time>2020-01-26T08:58:38Z</time>
      </trkpt>
      <trkpt lat="45.77873" lon="-1.2372">
        <ele>55</ele>
        <time>2020-01-26T08:58:39Z</time>
      </trkpt>
      <trkpt lat="45.77873" lon="-1.2372">
        <ele>55</ele>
        <time>2020-01-26T08:58:40Z</time>
      </trkpt>
      <trkpt lat="45.77873" lon="-1.2372">
        <ele>55</ele>
        <time>2020-01-26T08:58:41Z</time>
      </trkpt>
      <trkpt lat="45.77873" lon="-1.2372">
        <ele>55</ele>
        <time>2020-01-26T08:58:42Z</time>
      </trkpt>
      <trkpt lat="45.77873" lon="-1.2372">
        <ele>55</ele>
        <time>2020-01-26T08:58:43Z</time>
      </trkpt>
      <trkpt lat="45.77873" lon="-1.2372">
        <ele>55</ele>
        <time>2020-01-26T08:58:44Z</time>
      </trkpt>
      <trkpt lat="45.77873" lon="-1.2372">
        <ele>55</ele>
        <time>2020-01-26T08:58:45Z</time>
      </trkpt>
      <trkpt lat="45.77873" lon="-1.2372">
        <ele>55</ele>
        <time>2020-01-26T08:58:46Z</time>
      </trkpt>
      <trkpt lat="45.77873" lon="-1.2372">
        <ele>55</ele>
        <time>2020-01-26T08:58:47Z</time>
      </trkpt>
      <trkpt lat="45.77873" lon="-1.2372">
        <ele>55</ele>
        <time>2020-01-26T08:58:48Z</time>
      </trkpt>
      <trkpt lat="45.77873" lon="-1.2372">
        <ele>55</ele>
        <time>2020-01-26T08:58:49Z</time>
      </trkpt>
      <trkpt lat="45.77873" lon="-1.2372">
        <ele>55</ele>
        <time>2020-01-26T08:58:50Z</time>
      </trkpt>
      <trkpt lat="45.77873" lon="-1.2372">
        <ele>55</ele>
        <time>2020-01-26T08:58:51Z</time>
      </trkpt>
      <trkpt lat="45.77873" lon="-1.2372">
        <ele>55</ele>
        <time>2020-01-26T08:58:52Z</time>
      </trkpt>
      <trkpt lat="45.77873" lon="-1.2372">
        <ele>55</ele>
        <time>2020-01-26T08:58:53Z</time>
      </trkpt>
      <trkpt lat="45.77873" lon="-1.2372">
        <ele>55</ele>
        <time>2020-01-26T08:58:54Z</time>
      </trkpt>
      <trkpt lat="45.77873" lon="-1.2372">
        <ele>55</ele>
        <time>2020-01-26T08:58:55Z</time>
      </trkpt>
      <trkpt lat="45.77873" lon="-1.2372">
        <ele>55</ele>
        <time>2020-01-26T08:58:56Z</time>
      </trkpt>
      <trkpt lat="45.77873" lon="-1.2372">
        <ele>55</ele>
        <time>2020-01-26T08:58:57Z</time>
      </trkpt>
      <trkpt lat="45.77873" lon="-1.2372">
        <ele>55</ele>
        <time>2020-01-26T08:58:58Z</time>
      </trkpt>
      <trkpt lat="45.77874" lon="-1.2372">
        <ele>55.2</ele>
        <time>2020-01-26T08:58:59Z</time>
      </trkpt>
      <trkpt lat="45.77874" lon="-1.2372">
        <ele>55.4</ele>
        <time>2020-01-26T08:59:00Z</time>
      </trkpt>
      <trkpt lat="45.77873" lon="-1.2372">
        <ele>55.6</ele>
        <time>2020-01-26T08:59:01Z</time>
      </trkpt>
      <trkpt lat="45.77874" lon="-1.2372">
        <ele>56</ele>
        <time>2020-01-26T08:59:02Z</time>
      </trkpt>
      <trkpt lat="45.77874" lon="-1.2372">
        <ele>56.2</ele>
        <time>2020-01-26T08:59:03Z</time>
      </trkpt>
      <trkpt lat="45.77874" lon="-1.2372">
        <ele>56.4</ele>
        <time>2020-01-26T08:59:04Z</time>
      </trkpt>
      <trkpt lat="45.77874" lon="-1.2372">
        <ele>56.6</ele>
        <time>2020-01-26T08:59:05Z</time>
      </trkpt>
      <trkpt lat="45.77874" lon="-1.2372">
        <ele>56.8</ele>
        <time>2020-01-26T08:59:06Z</time>
      </trkpt>
      <trkpt lat="45.77873" lon="-1.2372">
        <ele>57</ele>
        <time>2020-01-26T08:59:07Z</time>
      </trkpt>
      <trkpt lat="45.77874" lon="-1.2372">
        <ele>57.2</ele>
        <time>2020-01-26T08:59:08Z</time>
      </trkpt>
      <trkpt lat="45.77874" lon="-1.2372">
        <ele>57.8</ele>
        <time>2020-01-26T08:59:09Z</time>
      </trkpt>
      <trkpt lat="45.77874" lon="-1.2372">
        <ele>58</ele>
        <time>2020-01-26T08:59:10Z</time>
      </trkpt>
      <trkpt lat="45.77874" lon="-1.2372">
        <ele>58.2</ele>
        <time>2020-01-26T08:59:11Z</time>
      </trkpt>
      <trkpt lat="45.77874" lon="-1.2372">
        <ele>58.4</ele>
        <time>2020-01-26T08:59:12Z</time>
      </trkpt>
      <trkpt lat="45.77874" lon="-1.2372">
        <ele>58.6</ele>
        <time>2020-01-26T08:59:13Z</time>
      </trkpt>
      <trkpt lat="45.77874" lon="-1.2372">
        <ele>58.6</ele>
        <time>2020-01-26T08:59:14Z</time>
      </trkpt>
      <trkpt lat="45.77874" lon="-1.2372">
        <ele>58.8</ele>
        <time>2020-01-26T08:59:15Z</time>
      </trkpt>
      <trkpt lat="45.77874" lon="-1.2372">
        <ele>58.8</ele>
        <time>2020-01-26T08:59:16Z</time>
      </trkpt>
      <trkpt lat="45.77874" lon="-1.2372">
        <ele>58.8</ele>
        <time>2020-01-26T08:59:17Z</time>
      </trkpt>
      <trkpt lat="45.77874" lon="-1.2372">
        <ele>59</ele>
        <time>2020-01-26T08:59:18Z</time>
      </trkpt>
      <trkpt lat="45.77874" lon="-1.2372">
        <ele>59</ele>
        <time>2020-01-26T08:59:19Z</time>
      </trkpt>
      <trkpt lat="45.77874" lon="-1.2372">
        <ele>59</ele>
        <time>2020-01-26T08:59:20Z</time>
      </trkpt>
      <trkpt lat="45.77874" lon="-1.2372">
        <ele>59</ele>
        <time>2020-01-26T08:59:21Z</time>
      </trkpt>
      <trkpt lat="45.77874" lon="-1.2372">
        <ele>59</ele>
        <time>2020-01-26T08:59:22Z</time>
      </trkpt>
      <trkpt lat="45.77874" lon="-1.2372">
        <ele>59</ele>
        <time>2020-01-26T08:59:23Z</time>
      </trkpt>
      <trkpt lat="45.77874" lon="-1.2372">
        <ele>59</ele>
        <time>2020-01-26T08:59:24Z</time>
      </trkpt>
      <trkpt lat="45.77874" lon="-1.2372">
        <ele>59</ele>
        <time>2020-01-26T08:59:25Z</time>
      </trkpt>
      <trkpt lat="45.77874" lon="-1.2372">
        <ele>59</ele>
        <time>2020-01-26T08:59:26Z</time>
      </trkpt>
      <trkpt lat="45.77874" lon="-1.2372">
        <ele>59</ele>
        <time>2020-01-26T08:59:27Z</time>
      </trkpt>
      <trkpt lat="45.77874" lon="-1.2372">
        <ele>59</ele>
        <time>2020-01-26T08:59:28Z</time>
      </trkpt>
      <trkpt lat="45.77874" lon="-1.2372">
        <ele>59</ele>
        <time>2020-01-26T08:59:29Z</time>
      </trkpt>
      <trkpt lat="45.77874" lon="-1.2372">
        <ele>59</ele>
        <time>2020-01-26T08:59:30Z</time>
      </trkpt>
      <trkpt lat="45.77874" lon="-1.2372">
        <ele>59</ele>
        <time>2020-01-26T08:59:31Z</time>
      </trkpt>
      <trkpt lat="45.77874" lon="-1.2372">
        <ele>59</ele>
        <time>2020-01-26T08:59:32Z</time>
      </trkpt>
      <trkpt lat="45.77874" lon="-1.2372">
        <ele>59</ele>
        <time>2020-01-26T08:59:33Z</time>
      </trkpt>
      <trkpt lat="45.77874" lon="-1.2372">
        <ele>59</ele>
        <time>2020-01-26T08:59:34Z</time>
      </trkpt>
      <trkpt lat="45.77874" lon="-1.2372">
        <ele>59</ele>
        <time>2020-01-26T08:59:35Z</time>
      </trkpt>
      <trkpt lat="45.77874" lon="-1.2372">
        <ele>59</ele>
        <time>2020-01-26T08:59:36Z</time>
      </trkpt>
      <trkpt lat="45.77874" lon="-1.2372">
        <ele>59</ele>
        <time>2020-01-26T08:59:37Z</time>
      </trkpt>
      <trkpt lat="45.77874" lon="-1.2372">
        <ele>59</ele>
        <time>2020-01-26T08:59:38Z</time>
      </trkpt>
      <trkpt lat="45.77874" lon="-1.2372">
        <ele>59</ele>
        <time>2020-01-26T08:59:39Z</time>
      </trkpt>
      <trkpt lat="45.77874" lon="-1.2372">
        <ele>59</ele>
        <time>2020-01-26T08:59:40Z</time>
      </trkpt>
      <trkpt lat="45.77874" lon="-1.2372">
        <ele>59</ele>
        <time>2020-01-26T08:59:41Z</time>
      </trkpt>
      <trkpt lat="45.77874" lon="-1.2372">
        <ele>59</ele>
        <time>2020-01-26T08:59:42Z</time>
      </trkpt>
      <trkpt lat="45.77874" lon="-1.2372">
        <ele>59</ele>
        <time>2020-01-26T08:59:43Z</time>
      </trkpt>
      <trkpt lat="45.77874" lon="-1.2372">
        <ele>59</ele>
        <time>2020-01-26T08:59:44Z</time>
      </trkpt>
      <trkpt lat="45.77874" lon="-1.2372">
        <ele>59</ele>
        <time>2020-01-26T08:59:45Z</time>
      </trkpt>
      <trkpt lat="45.77874" lon="-1.2372">
        <ele>59</ele>
        <time>2020-01-26T08:59:46Z</time>
      </trkpt>
      <trkpt lat="45.77874" lon="-1.2372">
        <ele>59</ele>
        <time>2020-01-26T08:59:47Z</time>
      </trkpt>
      <trkpt lat="45.77874" lon="-1.2372">
        <ele>59</ele>
        <time>2020-01-26T08:59:48Z</time>
      </trkpt>
      <trkpt lat="45.77874" lon="-1.2372">
        <ele>59</ele>
        <time>2020-01-26T08:59:49Z</time>
      </trkpt>
      <trkpt lat="45.77874" lon="-1.2372">
        <ele>59</ele>
        <time>2020-01-26T08:59:50Z</time>
      </trkpt>
      <trkpt lat="45.77874" lon="-1.2372">
        <ele>59</ele>
        <time>2020-01-26T08:59:51Z</time>
      </trkpt>
      <trkpt lat="45.77874" lon="-1.2372">
        <ele>59</ele>
        <time>2020-01-26T08:59:52Z</time>
      </trkpt>
      <trkpt lat="45.77874" lon="-1.2372">
        <ele>59</ele>
        <time>2020-01-26T08:59:53Z</time>
      </trkpt>
      <trkpt lat="45.77874" lon="-1.2372">
        <ele>59</ele>
        <time>2020-01-26T08:59:54Z</time>
      </trkpt>
      <trkpt lat="45.77874" lon="-1.2372">
        <ele>59</ele>
        <time>2020-01-26T08:59:55Z</time>
      </trkpt>
      <trkpt lat="45.77874" lon="-1.2372">
        <ele>59</ele>
        <time>2020-01-26T08:59:56Z</time>
      </trkpt>
      <trkpt lat="45.77874" lon="-1.2372">
        <ele>59</ele>
        <time>2020-01-26T08:59:57Z</time>
      </trkpt>
      <trkpt lat="45.77874" lon="-1.2372">
        <ele>59</ele>
        <time>2020-01-26T08:59:58Z</time>
      </trkpt>
      <trkpt lat="45.77874" lon="-1.2372">
        <ele>59</ele>
        <time>2020-01-26T08:59:59Z</time>
      </trkpt>
      <trkpt lat="45.77874" lon="-1.2372">
        <ele>59</ele>
        <time>2020-01-26T09:00:00Z</time>
      </trkpt>
      <trkpt lat="45.77874" lon="-1.2372">
        <ele>59</ele>
        <time>2020-01-26T09:00:01Z</time>
      </trkpt>
      <trkpt lat="45.77874" lon="-1.2372">
        <ele>59</ele>
        <time>2020-01-26T09:00:02Z</time>
      </trkpt>
      <trkpt lat="45.77874" lon="-1.2372">
        <ele>59</ele>
        <time>2020-01-26T09:00:03Z</time>
      </trkpt>
      <trkpt lat="45.77874" lon="-1.2372">
        <ele>59</ele>
        <time>2020-01-26T09:00:04Z</time>
      </trkpt>
      <trkpt lat="45.77874" lon="-1.2372">
        <ele>59</ele>
        <time>2020-01-26T09:00:05Z</time>
      </trkpt>
      <trkpt lat="45.77874" lon="-1.2372">
        <ele>59</ele>
        <time>2020-01-26T09:00:06Z</time>
      </trkpt>
      <trkpt lat="45.77874" lon="-1.2372">
        <ele>59</ele>
        <time>2020-01-26T09:00:07Z</time>
      </trkpt>
      <trkpt lat="45.77874" lon="-1.2372">
        <ele>59</ele>
        <time>2020-01-26T09:00:08Z</time>
      </trkpt>
      <trkpt lat="45.77874" lon="-1.2372">
        <ele>59</ele>
        <time>2020-01-26T09:00:09Z</time>
      </trkpt>
      <trkpt lat="45.77874" lon="-1.2372">
        <ele>59</ele>
        <time>2020-01-26T09:00:10Z</time>
      </trkpt>
      <trkpt lat="45.77874" lon="-1.2372">
        <ele>59</ele>
        <time>2020-01-26T09:00:11Z</time>
      </trkpt>
      <trkpt lat="45.77873" lon="-1.23719">
        <ele>58.8</ele>
        <time>2020-01-26T09:00:12Z</time>
      </trkpt>
      <trkpt lat="45.77873" lon="-1.23718">
        <ele>58.8</ele>
        <time>2020-01-26T09:00:13Z</time>
      </trkpt>
      <trkpt lat="45.77873" lon="-1.23717">
        <ele>58.8</ele>
        <time>2020-01-26T09:00:14Z</time>
      </trkpt>
      <trkpt lat="45.77874" lon="-1.23716">
        <ele>58.8</ele>
        <time>2020-01-26T09:00:15Z</time>
      </trkpt>
      <trkpt lat="45.77875" lon="-1.23716">
        <ele>58.8</ele>
        <time>2020-01-26T09:00:16Z</time>
      </trkpt>
      <trkpt lat="45.77876" lon="-1.23716">
        <ele>58.6</ele>
        <time>2020-01-26T09:00:17Z</time>
      </trkpt>
      <trkpt lat="45.77877" lon="-1.23715">
        <ele>58.2</ele>
        <time>2020-01-26T09:00:18Z</time>
      </trkpt>
      <trkpt lat="45.77877" lon="-1.23715">
        <ele>58</ele>
        <time>2020-01-26T09:00:19Z</time>
      </trkpt>
      <trkpt lat="45.77877" lon="-1.23714">
        <ele>57.6</ele>
        <time>2020-01-26T09:00:20Z</time>
      </trkpt>
      <trkpt lat="45.77877" lon="-1.23713">
        <ele>57</ele>
        <time>2020-01-26T09:00:21Z</time>
      </trkpt>
      <trkpt lat="45.77877" lon="-1.23712">
        <ele>56.4</ele>
        <time>2020-01-26T09:00:22Z</time>
      </trkpt>
      <trkpt lat="45.77878" lon="-1.23712">
        <ele>55.8</ele>
        <time>2020-01-26T09:00:23Z</time>
      </trkpt>
      <trkpt lat="45.77878" lon="-1.23711">
        <ele>55.2</ele>
        <time>2020-01-26T09:00:24Z</time>
      </trkpt>
      <trkpt lat="45.77879" lon="-1.2371">
        <ele>54.4</ele>
        <time>2020-01-26T09:00:25Z</time>
      </trkpt>
      <trkpt lat="45.7788" lon="-1.2371">
        <ele>54</ele>
        <time>2020-01-26T09:00:26Z</time>
      </trkpt>
      <trkpt lat="45.7788" lon="-1.23709">
        <ele>53.8</ele>
        <time>2020-01-26T09:00:27Z</time>
      </trkpt>
      <trkpt lat="45.77881" lon="-1.2371">
        <ele>53.6</ele>
        <time>2020-01-26T09:00:28Z</time>
      </trkpt>
      <trkpt lat="45.77882" lon="-1.23709">
        <ele>53.4</ele>
        <time>2020-01-26T09:00:29Z</time>
      </trkpt>
      <trkpt lat="45.77882" lon="-1.23709">
        <ele>53.4</ele>
        <time>2020-01-26T09:00:30Z</time>
      </trkpt>
      <trkpt lat="45.77883" lon="-1.23708">
        <ele>53.2</ele>
        <time>2020-01-26T09:00:31Z</time>
      </trkpt>
      <trkpt lat="45.77883" lon="-1.23707">
        <ele>53.2</ele>
        <time>2020-01-26T09:00:32Z</time>
      </trkpt>
      <trkpt lat="45.77884" lon="-1.23706">
        <ele>53.2</ele>
        <time>2020-01-26T09:00:33Z</time>
      </trkpt>
      <trkpt lat="45.77885" lon="-1.23706">
        <ele>53.2</ele>
        <time>2020-01-26T09:00:34Z</time>
      </trkpt>
      <trkpt lat="45.77886" lon="-1.23705">
        <ele>53</ele>
        <time>2020-01-26T09:00:35Z</time>
      </trkpt>
      <trkpt lat="45.77887" lon="-1.23705">
        <ele>53.2</ele>
        <time>2020-01-26T09:00:36Z</time>
      </trkpt>
      <trkpt lat="45.77887" lon="-1.23708">
        <ele>53.2</ele>
        <time>2020-01-26T09:00:37Z</time>
      </trkpt>
      <trkpt lat="45.77888" lon="-1.23709">
        <ele>53.2</ele>
        <time>2020-01-26T09:00:38Z</time>
      </trkpt>
      <trkpt lat="45.77888" lon="-1.2371">
        <ele>53.2</ele>
        <time>2020-01-26T09:00:39Z</time>
      </trkpt>
      <trkpt lat="45.77888" lon="-1.23711">
        <ele>53</ele>
        <time>2020-01-26T09:00:40Z</time>
      </trkpt>
      <trkpt lat="45.77888" lon="-1.23712">
        <ele>53.2</ele>
        <time>2020-01-26T09:00:41Z</time>
      </trkpt>
      <trkpt lat="45.77887" lon="-1.23714">
        <ele>53.8</ele>
        <time>2020-01-26T09:00:42Z</time>
      </trkpt>
      <trkpt lat="45.77888" lon="-1.23713">
        <ele>54.6</ele>
        <time>2020-01-26T09:00:43Z</time>
      </trkpt>
      <trkpt lat="45.77887" lon="-1.23713">
        <ele>55.2</ele>
        <time>2020-01-26T09:00:44Z</time>
      </trkpt>
      <trkpt lat="45.77888" lon="-1.23714">
        <ele>55.6</ele>
        <time>2020-01-26T09:00:45Z</time>
      </trkpt>
      <trkpt lat="45.77887" lon="-1.23714">
        <ele>56</ele>
        <time>2020-01-26T09:00:46Z</time>
      </trkpt>
      <trkpt lat="45.77887" lon="-1.23714">
        <ele>56.2</ele>
        <time>2020-01-26T09:00:47Z</time>
      </trkpt>
      <trkpt lat="45.77887" lon="-1.23714">
        <ele>56.4</ele>
        <time>2020-01-26T09:00:48Z</time>
      </trkpt>
      <trkpt lat="45.77887" lon="-1.23714">
        <ele>56.6</ele>
        <time>2020-01-26T09:00:49Z</time>
      </trkpt>
      <trkpt lat="45.77888" lon="-1.23714">
        <ele>56.6</ele>
        <time>2020-01-26T09:00:50Z</time>
      </trkpt>
      <trkpt lat="45.77888" lon="-1.23714">
        <ele>56.8</ele>
        <time>2020-01-26T09:00:51Z</time>
      </trkpt>
      <trkpt lat="45.77888" lon="-1.23714">
        <ele>56.8</ele>
        <time>2020-01-26T09:00:52Z</time>
      </trkpt>
      <trkpt lat="45.77888" lon="-1.23714">
        <ele>56.8</ele>
        <time>2020-01-26T09:00:53Z</time>
      </trkpt>
      <trkpt lat="45.77888" lon="-1.23714">
        <ele>57</ele>
        <time>2020-01-26T09:00:54Z</time>
      </trkpt>
      <trkpt lat="45.77888" lon="-1.23714">
        <ele>57</ele>
        <time>2020-01-26T09:00:55Z</time>
      </trkpt>
      <trkpt lat="45.77888" lon="-1.23714">
        <ele>56.6</ele>
        <time>2020-01-26T09:00:56Z</time>
      </trkpt>
      <trkpt lat="45.77888" lon="-1.23714">
        <ele>56.4</ele>
        <time>2020-01-26T09:00:57Z</time>
      </trkpt>
      <trkpt lat="45.77888" lon="-1.23714">
        <ele>56.2</ele>
        <time>2020-01-26T09:00:58Z</time>
      </trkpt>
      <trkpt lat="45.77888" lon="-1.23714">
        <ele>55.8</ele>
        <time>2020-01-26T09:00:59Z</time>
      </trkpt>
      <trkpt lat="45.77888" lon="-1.23714">
        <ele>55.6</ele>
        <time>2020-01-26T09:01:00Z</time>
      </trkpt>
      <trkpt lat="45.77888" lon="-1.23714">
        <ele>55.4</ele>
        <time>2020-01-26T09:01:01Z</time>
      </trkpt>
      <trkpt lat="45.77888" lon="-1.23713">
        <ele>55.4</ele>
        <time>2020-01-26T09:01:02Z</time>
      </trkpt>
      <trkpt lat="45.77887" lon="-1.23713">
        <ele>55.2</ele>
        <time>2020-01-26T09:01:03Z</time>
      </trkpt>
      <trkpt lat="45.77887" lon="-1.23713">
        <ele>55.4</ele>
        <time>2020-01-26T09:01:04Z</time>
      </trkpt>
      <trkpt lat="45.77888" lon="-1.23713">
        <ele>55.6</ele>
        <time>2020-01-26T09:01:05Z</time>
      </trkpt>
      <trkpt lat="45.77888" lon="-1.23713">
        <ele>55.6</ele>
        <time>2020-01-26T09:01:06Z</time>
      </trkpt>
      <trkpt lat="45.77888" lon="-1.23713">
        <ele>55.8</ele>
        <time>2020-01-26T09:01:07Z</time>
      </trkpt>
      <trkpt lat="45.77888" lon="-1.23713">
        <ele>55.8</ele>
        <time>2020-01-26T09:01:08Z</time>
      </trkpt>
      <trkpt lat="45.77888" lon="-1.23713">
        <ele>55.8</ele>
        <time>2020-01-26T09:01:09Z</time>
      </trkpt>
      <trkpt lat="45.77888" lon="-1.23713">
        <ele>56</ele>
        <time>2020-01-26T09:01:10Z</time>
      </trkpt>
      <trkpt lat="45.77888" lon="-1.23713">
        <ele>56</ele>
        <time>2020-01-26T09:01:11Z</time>
      </trkpt>
      <trkpt lat="45.77888" lon="-1.23713">
        <ele>56</ele>
        <time>2020-01-26T09:01:12Z</time>
      </trkpt>
      <trkpt lat="45.77888" lon="-1.23713">
        <ele>56</ele>
        <time>2020-01-26T09:01:13Z</time>
      </trkpt>
      <trkpt lat="45.77888" lon="-1.23713">
        <ele>56</ele>
        <time>2020-01-26T09:01:14Z</time>
      </trkpt>
      <trkpt lat="45.77888" lon="-1.23713">
        <ele>56</ele>
        <time>2020-01-26T09:01:15Z</time>
      </trkpt>
      <trkpt lat="45.77888" lon="-1.23713">
        <ele>56</ele>
        <time>2020-01-26T09:01:16Z</time>
      </trkpt>
      <trkpt lat="45.77888" lon="-1.23713">
        <ele>56</ele>
        <time>2020-01-26T09:01:17Z</time>
      </trkpt>
      <trkpt lat="45.77888" lon="-1.23713">
        <ele>56</ele>
        <time>2020-01-26T09:01:18Z</time>
      </trkpt>
      <trkpt lat="45.77888" lon="-1.23713">
        <ele>56</ele>
        <time>2020-01-26T09:01:19Z</time>
      </trkpt>
      <trkpt lat="45.77888" lon="-1.23713">
        <ele>56</ele>
        <time>2020-01-26T09:01:20Z</time>
      </trkpt>
      <trkpt lat="45.77888" lon="-1.23713">
        <ele>56</ele>
        <time>2020-01-26T09:01:21Z</time>
      </trkpt>
      <trkpt lat="45.77888" lon="-1.23713">
        <ele>56</ele>
        <time>2020-01-26T09:01:22Z</time>
      </trkpt>
      <trkpt lat="45.77888" lon="-1.23713">
        <ele>56</ele>
        <time>2020-01-26T09:01:23Z</time>
      </trkpt>
      <trkpt lat="45.77888" lon="-1.23713">
        <ele>56</ele>
        <time>2020-01-26T09:01:24Z</time>
      </trkpt>
      <trkpt lat="45.77888" lon="-1.23713">
        <ele>56</ele>
        <time>2020-01-26T09:01:25Z</time>
      </trkpt>
      <trkpt lat="45.77888" lon="-1.23713">
        <ele>56</ele>
        <time>2020-01-26T09:01:26Z</time>
      </trkpt>
      <trkpt lat="45.77888" lon="-1.23713">
        <ele>56</ele>
        <time>2020-01-26T09:01:27Z</time>
      </trkpt>
      <trkpt lat="45.77888" lon="-1.23714">
        <ele>56</ele>
        <time>2020-01-26T09:01:28Z</time>
      </trkpt>
      <trkpt lat="45.77888" lon="-1.23713">
        <ele>56</ele>
        <time>2020-01-26T09:01:29Z</time>
      </trkpt>
      <trkpt lat="45.77888" lon="-1.23713">
        <ele>56</ele>
        <time>2020-01-26T09:01:30Z</time>
      </trkpt>
      <trkpt lat="45.77888" lon="-1.23713">
        <ele>56</ele>
        <time>2020-01-26T09:01:31Z</time>
      </trkpt>
      <trkpt lat="45.77888" lon="-1.23713">
        <ele>56</ele>
        <time>2020-01-26T09:01:32Z</time>
      </trkpt>
      <trkpt lat="45.77888" lon="-1.23713">
        <ele>56</ele>
        <time>2020-01-26T09:01:33Z</time>
      </trkpt>
      <trkpt lat="45.77888" lon="-1.23713">
        <ele>56</ele>
        <time>2020-01-26T09:01:34Z</time>
      </trkpt>
      <trkpt lat="45.77888" lon="-1.23713">
        <ele>56</ele>
        <time>2020-01-26T09:01:35Z</time>
      </trkpt>
      <trkpt lat="45.77888" lon="-1.23713">
        <ele>56</ele>
        <time>2020-01-26T09:01:36Z</time>
      </trkpt>
      <trkpt lat="45.77888" lon="-1.23713">
        <ele>56</ele>
        <time>2020-01-26T09:01:37Z</time>
      </trkpt>
      <trkpt lat="45.77888" lon="-1.23713">
        <ele>56</ele>
        <time>2020-01-26T09:01:38Z</time>
      </trkpt>
      <trkpt lat="45.77887" lon="-1.23713">
        <ele>55.8</ele>
        <time>2020-01-26T09:01:39Z</time>
      </trkpt>
      <trkpt lat="45.77887" lon="-1.23713">
        <ele>55.6</ele>
        <time>2020-01-26T09:01:40Z</time>
      </trkpt>
      <trkpt lat="45.77887" lon="-1.23713">
        <ele>55.4</ele>
        <time>2020-01-26T09:01:41Z</time>
      </trkpt>
      <trkpt lat="45.77887" lon="-1.23713">
        <ele>55.4</ele>
        <time>2020-01-26T09:01:42Z</time>
      </trkpt>
      <trkpt lat="45.77887" lon="-1.23713">
        <ele>55.2</ele>
        <time>2020-01-26T09:01:43Z</time>
      </trkpt>
      <trkpt lat="45.77887" lon="-1.23713">
        <ele>55.2</ele>
        <time>2020-01-26T09:01:44Z</time>
      </trkpt>
      <trkpt lat="45.77887" lon="-1.23713">
        <ele>55.2</ele>
        <time>2020-01-26T09:01:45Z</time>
      </trkpt>
      <trkpt lat="45.77887" lon="-1.23713">
        <ele>55</ele>
        <time>2020-01-26T09:01:46Z</time>
      </trkpt>
      <trkpt lat="45.77887" lon="-1.23713">
        <ele>55</ele>
        <time>2020-01-26T09:01:47Z</time>
      </trkpt>
      <trkpt lat="45.77887" lon="-1.23713">
        <ele>55</ele>
        <time>2020-01-26T09:01:48Z</time>
      </trkpt>
      <trkpt lat="45.77887" lon="-1.23713">
        <ele>55</ele>
        <time>2020-01-26T09:01:49Z</time>
      </trkpt>
      <trkpt lat="45.77887" lon="-1.23713">
        <ele>55</ele>
        <time>2020-01-26T09:01:50Z</time>
      </trkpt>
      <trkpt lat="45.77887" lon="-1.23713">
        <ele>55</ele>
        <time>2020-01-26T09:01:51Z</time>
      </trkpt>
      <trkpt lat="45.77887" lon="-1.23713">
        <ele>55</ele>
        <time>2020-01-26T09:01:52Z</time>
      </trkpt>
      <trkpt lat="45.77887" lon="-1.23713">
        <ele>55</ele>
        <time>2020-01-26T09:01:53Z</time>
      </trkpt>
      <trkpt lat="45.77887" lon="-1.23713">
        <ele>55</ele>
        <time>2020-01-26T09:01:54Z</time>
      </trkpt>
      <trkpt lat="45.77887" lon="-1.23713">
        <ele>55</ele>
        <time>2020-01-26T09:01:55Z</time>
      </trkpt>
      <trkpt lat="45.77887" lon="-1.23713">
        <ele>55</ele>
        <time>2020-01-26T09:01:56Z</time>
      </trkpt>
      <trkpt lat="45.77887" lon="-1.23713">
        <ele>55</ele>
        <time>2020-01-26T09:01:57Z</time>
      </trkpt>
      <trkpt lat="45.77887" lon="-1.23713">
        <ele>55</ele>
        <time>2020-01-26T09:01:58Z</time>
      </trkpt>
      <trkpt lat="45.77887" lon="-1.23713">
        <ele>55</ele>
        <time>2020-01-26T09:01:59Z</time>
      </trkpt>
      <trkpt lat="45.77887" lon="-1.23713">
        <ele>55</ele>
        <time>2020-01-26T09:02:00Z</time>
      </trkpt>
      <trkpt lat="45.77887" lon="-1.23713">
        <ele>55</ele>
        <time>2020-01-26T09:02:01Z</time>
      </trkpt>
      <trkpt lat="45.77887" lon="-1.23713">
        <ele>55</ele>
        <time>2020-01-26T09:02:02Z</time>
      </trkpt>
      <trkpt lat="45.77887" lon="-1.23713">
        <ele>55</ele>
        <time>2020-01-26T09:02:03Z</time>
      </trkpt>
      <trkpt lat="45.77887" lon="-1.23713">
        <ele>55</ele>
        <time>2020-01-26T09:02:04Z</time>
      </trkpt>
      <trkpt lat="45.77887" lon="-1.23713">
        <ele>55</ele>
        <time>2020-01-26T09:02:05Z</time>
      </trkpt>
      <trkpt lat="45.77887" lon="-1.23713">
        <ele>55</ele>
        <time>2020-01-26T09:02:06Z</time>
      </trkpt>
      <trkpt lat="45.77887" lon="-1.23713">
        <ele>55</ele>
        <time>2020-01-26T09:02:07Z</time>
      </trkpt>
      <trkpt lat="45.77887" lon="-1.23713">
        <ele>55</ele>
        <time>2020-01-26T09:02:08Z</time>
      </trkpt>
      <trkpt lat="45.77887" lon="-1.23713">
        <ele>55</ele>
        <time>2020-01-26T09:02:09Z</time>
      </trkpt>
      <trkpt lat="45.77887" lon="-1.23713">
        <ele>55</ele>
        <time>2020-01-26T09:02:10Z</time>
      </trkpt>
      <trkpt lat="45.77887" lon="-1.23713">
        <ele>55</ele>
        <time>2020-01-26T09:02:11Z</time>
      </trkpt>
      <trkpt lat="45.77887" lon="-1.23713">
        <ele>55</ele>
        <time>2020-01-26T09:02:12Z</time>
      </trkpt>
      <trkpt lat="45.77887" lon="-1.23713">
        <ele>55</ele>
        <time>2020-01-26T09:02:13Z</time>
      </trkpt>
      <trkpt lat="45.77887" lon="-1.23713">
        <ele>55</ele>
        <time>2020-01-26T09:02:14Z</time>
      </trkpt>
      <trkpt lat="45.77887" lon="-1.23713">
        <ele>55</ele>
        <time>2020-01-26T09:02:15Z</time>
      </trkpt>
      <trkpt lat="45.77887" lon="-1.23713">
        <ele>55</ele>
        <time>2020-01-26T09:02:16Z</time>
      </trkpt>
      <trkpt lat="45.77887" lon="-1.23713">
        <ele>55</ele>
        <time>2020-01-26T09:02:17Z</time>
      </trkpt>
      <trkpt lat="45.77887" lon="-1.23713">
        <ele>55</ele>
        <time>2020-01-26T09:02:18Z</time>
      </trkpt>
      <trkpt lat="45.77887" lon="-1.23713">
        <ele>55</ele>
        <time>2020-01-26T09:02:19Z</time>
      </trkpt>
      <trkpt lat="45.77887" lon="-1.23713">
        <ele>55</ele>
        <time>2020-01-26T09:02:20Z</time>
      </trkpt>
      <trkpt lat="45.77887" lon="-1.23713">
        <ele>55</ele>
        <time>2020-01-26T09:02:21Z</time>
      </trkpt>
      <trkpt lat="45.77887" lon="-1.23713">
        <ele>55</ele>
        <time>2020-01-26T09:02:22Z</time>
      </trkpt>
      <trkpt lat="45.77887" lon="-1.23713">
        <ele>55</ele>
        <time>2020-01-26T09:02:23Z</time>
      </trkpt>
      <trkpt lat="45.77887" lon="-1.23713">
        <ele>55</ele>
        <time>2020-01-26T09:02:24Z</time>
      </trkpt>
      <trkpt lat="45.77887" lon="-1.23713">
        <ele>55</ele>
        <time>2020-01-26T09:02:25Z</time>
      </trkpt>
      <trkpt lat="45.77887" lon="-1.23713">
        <ele>55</ele>
        <time>2020-01-26T09:02:26Z</time>
      </trkpt>
      <trkpt lat="45.77887" lon="-1.23713">
        <ele>55</ele>
        <time>2020-01-26T09:02:27Z</time>
      </trkpt>
      <trkpt lat="45.77887" lon="-1.23713">
        <ele>55</ele>
        <time>2020-01-26T09:02:28Z</time>
      </trkpt>
      <trkpt lat="45.77887" lon="-1.23713">
        <ele>55</ele>
        <time>2020-01-26T09:02:29Z</time>
      </trkpt>
      <trkpt lat="45.77887" lon="-1.23713">
        <ele>55</ele>
        <time>2020-01-26T09:02:30Z</time>
      </trkpt>
      <trkpt lat="45.77887" lon="-1.23713">
        <ele>55</ele>
        <time>2020-01-26T09:02:31Z</time>
      </trkpt>
      <trkpt lat="45.77887" lon="-1.23713">
        <ele>55</ele>
        <time>2020-01-26T09:02:32Z</time>
      </trkpt>
      <trkpt lat="45.77887" lon="-1.23713">
        <ele>55</ele>
        <time>2020-01-26T09:02:33Z</time>
      </trkpt>
      <trkpt lat="45.77887" lon="-1.23713">
        <ele>55</ele>
        <time>2020-01-26T09:02:34Z</time>
      </trkpt>
      <trkpt lat="45.77887" lon="-1.23713">
        <ele>55</ele>
        <time>2020-01-26T09:02:35Z</time>
      </trkpt>
      <trkpt lat="45.77887" lon="-1.23713">
        <ele>55</ele>
        <time>2020-01-26T09:02:36Z</time>
      </trkpt>
      <trkpt lat="45.77887" lon="-1.23713">
        <ele>55</ele>
        <time>2020-01-26T09:02:37Z</time>
      </trkpt>
      <trkpt lat="45.77887" lon="-1.23713">
        <ele>55</ele>
        <time>2020-01-26T09:02:38Z</time>
      </trkpt>
      <trkpt lat="45.77887" lon="-1.23713">
        <ele>55</ele>
        <time>2020-01-26T09:02:39Z</time>
      </trkpt>
      <trkpt lat="45.77887" lon="-1.23713">
        <ele>55</ele>
        <time>2020-01-26T09:02:40Z</time>
      </trkpt>
      <trkpt lat="45.77887" lon="-1.23713">
        <ele>55</ele>
        <time>2020-01-26T09:02:41Z</time>
      </trkpt>
      <trkpt lat="45.77887" lon="-1.23713">
        <ele>55</ele>
        <time>2020-01-26T09:02:42Z</time>
      </trkpt>
      <trkpt lat="45.77887" lon="-1.23713">
        <ele>55</ele>
        <time>2020-01-26T09:02:43Z</time>
      </trkpt>
      <trkpt lat="45.77887" lon="-1.23713">
        <ele>55</ele>
        <time>2020-01-26T09:02:44Z</time>
      </trkpt>
      <trkpt lat="45.77887" lon="-1.23713">
        <ele>55</ele>
        <time>2020-01-26T09:02:45Z</time>
      </trkpt>
      <trkpt lat="45.77887" lon="-1.23713">
        <ele>55</ele>
        <time>2020-01-26T09:02:46Z</time>
      </trkpt>
      <trkpt lat="45.77887" lon="-1.23713">
        <ele>55</ele>
        <time>2020-01-26T09:02:47Z</time>
      </trkpt>
      <trkpt lat="45.77887" lon="-1.23713">
        <ele>55</ele>
        <time>2020-01-26T09:02:48Z</time>
      </trkpt>
      <trkpt lat="45.77887" lon="-1.23713">
        <ele>55</ele>
        <time>2020-01-26T09:02:49Z</time>
      </trkpt>
      <trkpt lat="45.77887" lon="-1.23713">
        <ele>55</ele>
        <time>2020-01-26T09:02:50Z</time>
      </trkpt>
      <trkpt lat="45.77887" lon="-1.23713">
        <ele>55</ele>
        <time>2020-01-26T09:02:51Z</time>
      </trkpt>
      <trkpt lat="45.77887" lon="-1.23713">
        <ele>55</ele>
        <time>2020-01-26T09:02:52Z</time>
      </trkpt>
      <trkpt lat="45.77887" lon="-1.23713">
        <ele>55</ele>
        <time>2020-01-26T09:02:53Z</time>
      </trkpt>
      <trkpt lat="45.77887" lon="-1.23713">
        <ele>55</ele>
        <time>2020-01-26T09:02:54Z</time>
      </trkpt>
      <trkpt lat="45.77887" lon="-1.23713">
        <ele>55</ele>
        <time>2020-01-26T09:02:55Z</time>
      </trkpt>
      <trkpt lat="45.77887" lon="-1.23713">
        <ele>55</ele>
        <time>2020-01-26T09:02:56Z</time>
      </trkpt>
      <trkpt lat="45.77887" lon="-1.23713">
        <ele>55</ele>
        <time>2020-01-26T09:02:57Z</time>
      </trkpt>
      <trkpt lat="45.77887" lon="-1.23713">
        <ele>55</ele>
        <time>2020-01-26T09:02:58Z</time>
      </trkpt>
      <trkpt lat="45.77887" lon="-1.23713">
        <ele>55</ele>
        <time>2020-01-26T09:02:59Z</time>
      </trkpt>
      <trkpt lat="45.77887" lon="-1.23713">
        <ele>55</ele>
        <time>2020-01-26T09:03:00Z</time>
      </trkpt>
      <trkpt lat="45.77887" lon="-1.23713">
        <ele>55</ele>
        <time>2020-01-26T09:03:01Z</time>
      </trkpt>
      <trkpt lat="45.77887" lon="-1.23713">
        <ele>55</ele>
        <time>2020-01-26T09:03:02Z</time>
      </trkpt>
      <trkpt lat="45.77887" lon="-1.23713">
        <ele>55</ele>
        <time>2020-01-26T09:03:03Z</time>
      </trkpt>
      <trkpt lat="45.77887" lon="-1.23713">
        <ele>55</ele>
        <time>2020-01-26T09:03:04Z</time>
      </trkpt>
      <trkpt lat="45.77887" lon="-1.23713">
        <ele>55</ele>
        <time>2020-01-26T09:03:05Z</time>
      </trkpt>
      <trkpt lat="45.77887" lon="-1.23713">
        <ele>55</ele>
        <time>2020-01-26T09:03:06Z</time>
      </trkpt>
      <trkpt lat="45.77887" lon="-1.23713">
        <ele>55</ele>
        <time>2020-01-26T09:03:07Z</time>
      </trkpt>
      <trkpt lat="45.77887" lon="-1.23713">
        <ele>55</ele>
        <time>2020-01-26T09:03:08Z</time>
      </trkpt>
      <trkpt lat="45.77887" lon="-1.23713">
        <ele>55</ele>
        <time>2020-01-26T09:03:09Z</time>
      </trkpt>
      <trkpt lat="45.77887" lon="-1.23713">
        <ele>55</ele>
        <time>2020-01-26T09:03:10Z</time>
      </trkpt>
      <trkpt lat="45.77887" lon="-1.23713">
        <ele>55</ele>
        <time>2020-01-26T09:03:11Z</time>
      </trkpt>
      <trkpt lat="45.77887" lon="-1.23713">
        <ele>55</ele>
        <time>2020-01-26T09:03:12Z</time>
      </trkpt>
      <trkpt lat="45.77887" lon="-1.23713">
        <ele>55</ele>
        <time>2020-01-26T09:03:13Z</time>
      </trkpt>
      <trkpt lat="45.77887" lon="-1.23713">
        <ele>55</ele>
        <time>2020-01-26T09:03:14Z</time>
      </trkpt>
      <trkpt lat="45.77887" lon="-1.23713">
        <ele>55</ele>
        <time>2020-01-26T09:03:15Z</time>
      </trkpt>
      <trkpt lat="45.77887" lon="-1.23713">
        <ele>55</ele>
        <time>2020-01-26T09:03:16Z</time>
      </trkpt>
      <trkpt lat="45.77887" lon="-1.23713">
        <ele>55</ele>
        <time>2020-01-26T09:03:17Z</time>
      </trkpt>
      <trkpt lat="45.77887" lon="-1.23713">
        <ele>55</ele>
        <time>2020-01-26T09:03:18Z</time>
      </trkpt>
      <trkpt lat="45.77887" lon="-1.23713">
        <ele>55</ele>
        <time>2020-01-26T09:03:19Z</time>
      </trkpt>
      <trkpt lat="45.77887" lon="-1.23713">
        <ele>55</ele>
        <time>2020-01-26T09:03:20Z</time>
      </trkpt>
      <trkpt lat="45.77887" lon="-1.23713">
        <ele>55</ele>
        <time>2020-01-26T09:03:21Z</time>
      </trkpt>
      <trkpt lat="45.77887" lon="-1.23713">
        <ele>55</ele>
        <time>2020-01-26T09:03:22Z</time>
      </trkpt>
      <trkpt lat="45.77887" lon="-1.23713">
        <ele>55</ele>
        <time>2020-01-26T09:03:23Z</time>
      </trkpt>
      <trkpt lat="45.77887" lon="-1.23713">
        <ele>55</ele>
        <time>2020-01-26T09:03:24Z</time>
      </trkpt>
      <trkpt lat="45.77887" lon="-1.23713">
        <ele>55</ele>
        <time>2020-01-26T09:03:25Z</time>
      </trkpt>
      <trkpt lat="45.77887" lon="-1.23713">
        <ele>55</ele>
        <time>2020-01-26T09:03:26Z</time>
      </trkpt>
      <trkpt lat="45.77887" lon="-1.23713">
        <ele>55</ele>
        <time>2020-01-26T09:03:27Z</time>
      </trkpt>
      <trkpt lat="45.77887" lon="-1.23713">
        <ele>55</ele>
        <time>2020-01-26T09:03:28Z</time>
      </trkpt>
      <trkpt lat="45.77887" lon="-1.23713">
        <ele>55</ele>
        <time>2020-01-26T09:03:29Z</time>
      </trkpt>
      <trkpt lat="45.77887" lon="-1.23713">
        <ele>55</ele>
        <time>2020-01-26T09:03:30Z</time>
      </trkpt>
      <trkpt lat="45.77887" lon="-1.23713">
        <ele>55</ele>
        <time>2020-01-26T09:03:31Z</time>
      </trkpt>
      <trkpt lat="45.77887" lon="-1.23713">
        <ele>55</ele>
        <time>2020-01-26T09:03:32Z</time>
      </trkpt>
      <trkpt lat="45.77887" lon="-1.23713">
        <ele>55</ele>
        <time>2020-01-26T09:03:33Z</time>
      </trkpt>
      <trkpt lat="45.77887" lon="-1.23713">
        <ele>55</ele>
        <time>2020-01-26T09:03:34Z</time>
      </trkpt>
      <trkpt lat="45.77887" lon="-1.23713">
        <ele>55</ele>
        <time>2020-01-26T09:03:35Z</time>
      </trkpt>
      <trkpt lat="45.77887" lon="-1.23713">
        <ele>55</ele>
        <time>2020-01-26T09:03:36Z</time>
      </trkpt>
      <trkpt lat="45.77887" lon="-1.23713">
        <ele>55</ele>
        <time>2020-01-26T09:03:37Z</time>
      </trkpt>
      <trkpt lat="45.77887" lon="-1.23713">
        <ele>55</ele>
        <time>2020-01-26T09:03:38Z</time>
      </trkpt>
      <trkpt lat="45.77887" lon="-1.23713">
        <ele>55</ele>
        <time>2020-01-26T09:03:39Z</time>
      </trkpt>
      <trkpt lat="45.77887" lon="-1.23713">
        <ele>55</ele>
        <time>2020-01-26T09:03:40Z</time>
      </trkpt>
      <trkpt lat="45.77887" lon="-1.23713">
        <ele>55</ele>
        <time>2020-01-26T09:03:41Z</time>
      </trkpt>
      <trkpt lat="45.77887" lon="-1.23713">
        <ele>55</ele>
        <time>2020-01-26T09:03:42Z</time>
      </trkpt>
      <trkpt lat="45.77887" lon="-1.23713">
        <ele>55</ele>
        <time>2020-01-26T09:03:43Z</time>
      </trkpt>
      <trkpt lat="45.77887" lon="-1.23713">
        <ele>55</ele>
        <time>2020-01-26T09:03:44Z</time>
      </trkpt>
      <trkpt lat="45.77887" lon="-1.23713">
        <ele>55</ele>
        <time>2020-01-26T09:03:45Z</time>
      </trkpt>
      <trkpt lat="45.77887" lon="-1.23713">
        <ele>55</ele>
        <time>2020-01-26T09:03:46Z</time>
      </trkpt>
      <trkpt lat="45.77887" lon="-1.23713">
        <ele>55</ele>
        <time>2020-01-26T09:03:47Z</time>
      </trkpt>
      <trkpt lat="45.77887" lon="-1.23713">
        <ele>55</ele>
        <time>2020-01-26T09:03:48Z</time>
      </trkpt>
      <trkpt lat="45.77887" lon="-1.23713">
        <ele>55</ele>
        <time>2020-01-26T09:03:49Z</time>
      </trkpt>
      <trkpt lat="45.77887" lon="-1.23713">
        <ele>55</ele>
        <time>2020-01-26T09:03:50Z</time>
      </trkpt>
      <trkpt lat="45.77887" lon="-1.23713">
        <ele>55</ele>
        <time>2020-01-26T09:03:51Z</time>
      </trkpt>
      <trkpt lat="45.77887" lon="-1.23713">
        <ele>55</ele>
        <time>2020-01-26T09:03:52Z</time>
      </trkpt>
      <trkpt lat="45.77887" lon="-1.23713">
        <ele>55</ele>
        <time>2020-01-26T09:03:53Z</time>
      </trkpt>
      <trkpt lat="45.77887" lon="-1.23713">
        <ele>55</ele>
        <time>2020-01-26T09:03:54Z</time>
      </trkpt>
      <trkpt lat="45.77887" lon="-1.23713">
        <ele>55</ele>
        <time>2020-01-26T09:03:55Z</time>
      </trkpt>
      <trkpt lat="45.77887" lon="-1.23713">
        <ele>55</ele>
        <time>2020-01-26T09:03:56Z</time>
      </trkpt>
      <trkpt lat="45.77887" lon="-1.23713">
        <ele>55</ele>
        <time>2020-01-26T09:03:57Z</time>
      </trkpt>
      <trkpt lat="45.77887" lon="-1.23713">
        <ele>55</ele>
        <time>2020-01-26T09:03:58Z</time>
      </trkpt>
      <trkpt lat="45.77887" lon="-1.23713">
        <ele>55</ele>
        <time>2020-01-26T09:03:59Z</time>
      </trkpt>
      <trkpt lat="45.77887" lon="-1.23713">
        <ele>55</ele>
        <time>2020-01-26T09:04:00Z</time>
      </trkpt>
      <trkpt lat="45.77887" lon="-1.23713">
        <ele>55</ele>
        <time>2020-01-26T09:04:01Z</time>
      </trkpt>
      <trkpt lat="45.77887" lon="-1.23713">
        <ele>55</ele>
        <time>2020-01-26T09:04:02Z</time>
      </trkpt>
      <trkpt lat="45.77887" lon="-1.23713">
        <ele>55</ele>
        <time>2020-01-26T09:04:03Z</time>
      </trkpt>
      <trkpt lat="45.77887" lon="-1.23713">
        <ele>55</ele>
        <time>2020-01-26T09:04:04Z</time>
      </trkpt>
      <trkpt lat="45.77887" lon="-1.23713">
        <ele>55</ele>
        <time>2020-01-26T09:04:05Z</time>
      </trkpt>
      <trkpt lat="45.77887" lon="-1.23713">
        <ele>55</ele>
        <time>2020-01-26T09:04:06Z</time>
      </trkpt>
      <trkpt lat="45.77887" lon="-1.23713">
        <ele>55</ele>
        <time>2020-01-26T09:04:07Z</time>
      </trkpt>
      <trkpt lat="45.77887" lon="-1.23713">
        <ele>55</ele>
        <time>2020-01-26T09:04:08Z</time>
      </trkpt>
      <trkpt lat="45.77887" lon="-1.23713">
        <ele>55</ele>
        <time>2020-01-26T09:04:09Z</time>
      </trkpt>
      <trkpt lat="45.77887" lon="-1.23713">
        <ele>55</ele>
        <time>2020-01-26T09:04:10Z</time>
      </trkpt>
      <trkpt lat="45.77887" lon="-1.23713">
        <ele>55</ele>
        <time>2020-01-26T09:04:11Z</time>
      </trkpt>
      <trkpt lat="45.77887" lon="-1.23713">
        <ele>55</ele>
        <time>2020-01-26T09:04:12Z</time>
      </trkpt>
      <trkpt lat="45.77887" lon="-1.23713">
        <ele>55</ele>
        <time>2020-01-26T09:04:13Z</time>
      </trkpt>
      <trkpt lat="45.77887" lon="-1.23713">
        <ele>55</ele>
        <time>2020-01-26T09:04:14Z</time>
      </trkpt>
      <trkpt lat="45.77887" lon="-1.23713">
        <ele>55</ele>
        <time>2020-01-26T09:04:15Z</time>
      </trkpt>
      <trkpt lat="45.77887" lon="-1.23713">
        <ele>55</ele>
        <time>2020-01-26T09:04:16Z</time>
      </trkpt>
      <trkpt lat="45.77887" lon="-1.23713">
        <ele>55</ele>
        <time>2020-01-26T09:04:17Z</time>
      </trkpt>
      <trkpt lat="45.77887" lon="-1.23713">
        <ele>55</ele>
        <time>2020-01-26T09:04:18Z</time>
      </trkpt>
      <trkpt lat="45.77887" lon="-1.23713">
        <ele>55</ele>
        <time>2020-01-26T09:04:19Z</time>
      </trkpt>
      <trkpt lat="45.77887" lon="-1.23713">
        <ele>55</ele>
        <time>2020-01-26T09:04:20Z</time>
      </trkpt>
      <trkpt lat="45.77887" lon="-1.23713">
        <ele>55</ele>
        <time>2020-01-26T09:04:21Z</time>
      </trkpt>
      <trkpt lat="45.77887" lon="-1.23713">
        <ele>55</ele>
        <time>2020-01-26T09:04:22Z</time>
      </trkpt>
      <trkpt lat="45.77887" lon="-1.23713">
        <ele>55</ele>
        <time>2020-01-26T09:04:23Z</time>
      </trkpt>
      <trkpt lat="45.77887" lon="-1.23713">
        <ele>55</ele>
        <time>2020-01-26T09:04:24Z</time>
      </trkpt>
      <trkpt lat="45.77887" lon="-1.23713">
        <ele>55</ele>
        <time>2020-01-26T09:04:25Z</time>
      </trkpt>
      <trkpt lat="45.77887" lon="-1.23713">
        <ele>55</ele>
        <time>2020-01-26T09:04:26Z</time>
      </trkpt>
      <trkpt lat="45.77887" lon="-1.23713">
        <ele>55</ele>
        <time>2020-01-26T09:04:27Z</time>
      </trkpt>
      <trkpt lat="45.77887" lon="-1.23713">
        <ele>55</ele>
        <time>2020-01-26T09:04:28Z</time>
      </trkpt>
      <trkpt lat="45.77887" lon="-1.23713">
        <ele>55</ele>
        <time>2020-01-26T09:04:29Z</time>
      </trkpt>
      <trkpt lat="45.77887" lon="-1.23713">
        <ele>55</ele>
        <time>2020-01-26T09:04:30Z</time>
      </trkpt>
      <trkpt lat="45.77887" lon="-1.23713">
        <ele>55</ele>
        <time>2020-01-26T09:04:31Z</time>
      </trkpt>
      <trkpt lat="45.77887" lon="-1.23713">
        <ele>55</ele>
        <time>2020-01-26T09:04:32Z</time>
      </trkpt>
      <trkpt lat="45.77887" lon="-1.23713">
        <ele>55</ele>
        <time>2020-01-26T09:04:33Z</time>
      </trkpt>
      <trkpt lat="45.77887" lon="-1.23713">
        <ele>55</ele>
        <time>2020-01-26T09:04:34Z</time>
      </trkpt>
      <trkpt lat="45.77887" lon="-1.23713">
        <ele>55</ele>
        <time>2020-01-26T09:04:35Z</time>
      </trkpt>
      <trkpt lat="45.77887" lon="-1.23713">
        <ele>55</ele>
        <time>2020-01-26T09:04:36Z</time>
      </trkpt>
      <trkpt lat="45.77887" lon="-1.23713">
        <ele>55</ele>
        <time>2020-01-26T09:04:37Z</time>
      </trkpt>
      <trkpt lat="45.77887" lon="-1.23713">
        <ele>55</ele>
        <time>2020-01-26T09:04:38Z</time>
      </trkpt>
      <trkpt lat="45.77887" lon="-1.23713">
        <ele>55</ele>
        <time>2020-01-26T09:04:39Z</time>
      </trkpt>
      <trkpt lat="45.77887" lon="-1.23713">
        <ele>55</ele>
        <time>2020-01-26T09:04:40Z</time>
      </trkpt>
      <trkpt lat="45.77887" lon="-1.23713">
        <ele>55</ele>
        <time>2020-01-26T09:04:41Z</time>
      </trkpt>
      <trkpt lat="45.77887" lon="-1.23713">
        <ele>55</ele>
        <time>2020-01-26T09:04:42Z</time>
      </trkpt>
      <trkpt lat="45.77887" lon="-1.23713">
        <ele>55</ele>
        <time>2020-01-26T09:04:43Z</time>
      </trkpt>
      <trkpt lat="45.77887" lon="-1.23713">
        <ele>55</ele>
        <time>2020-01-26T09:04:44Z</time>
      </trkpt>
      <trkpt lat="45.77887" lon="-1.23713">
        <ele>55</ele>
        <time>2020-01-26T09:04:45Z</time>
      </trkpt>
      <trkpt lat="45.77887" lon="-1.23713">
        <ele>55</ele>
        <time>2020-01-26T09:04:46Z</time>
      </trkpt>
      <trkpt lat="45.77887" lon="-1.23713">
        <ele>55</ele>
        <time>2020-01-26T09:04:47Z</time>
      </trkpt>
      <trkpt lat="45.77887" lon="-1.23713">
        <ele>55</ele>
        <time>2020-01-26T09:04:48Z</time>
      </trkpt>
      <trkpt lat="45.77887" lon="-1.23713">
        <ele>55</ele>
        <time>2020-01-26T09:04:49Z</time>
      </trkpt>
      <trkpt lat="45.77887" lon="-1.23713">
        <ele>55</ele>
        <time>2020-01-26T09:04:50Z</time>
      </trkpt>
      <trkpt lat="45.77887" lon="-1.23713">
        <ele>55</ele>
        <time>2020-01-26T09:04:51Z</time>
      </trkpt>
      <trkpt lat="45.77887" lon="-1.23713">
        <ele>55</ele>
        <time>2020-01-26T09:04:52Z</time>
      </trkpt>
      <trkpt lat="45.77887" lon="-1.23713">
        <ele>55</ele>
        <time>2020-01-26T09:04:53Z</time>
      </trkpt>
      <trkpt lat="45.77887" lon="-1.23713">
        <ele>55</ele>
        <time>2020-01-26T09:04:54Z</time>
      </trkpt>
      <trkpt lat="45.77887" lon="-1.23713">
        <ele>55</ele>
        <time>2020-01-26T09:04:55Z</time>
      </trkpt>
      <trkpt lat="45.77887" lon="-1.23713">
        <ele>55</ele>
        <time>2020-01-26T09:04:56Z</time>
      </trkpt>
      <trkpt lat="45.77887" lon="-1.23713">
        <ele>55</ele>
        <time>2020-01-26T09:04:57Z</time>
      </trkpt>
      <trkpt lat="45.77887" lon="-1.23713">
        <ele>55</ele>
        <time>2020-01-26T09:04:58Z</time>
      </trkpt>
      <trkpt lat="45.77887" lon="-1.23713">
        <ele>55</ele>
        <time>2020-01-26T09:04:59Z</time>
      </trkpt>
      <trkpt lat="45.77887" lon="-1.23713">
        <ele>55</ele>
        <time>2020-01-26T09:05:00Z</time>
      </trkpt>
      <trkpt lat="45.77887" lon="-1.23713">
        <ele>55</ele>
        <time>2020-01-26T09:05:01Z</time>
      </trkpt>
      <trkpt lat="45.77887" lon="-1.23713">
        <ele>55</ele>
        <time>2020-01-26T09:05:02Z</time>
      </trkpt>
      <trkpt lat="45.77886" lon="-1.23713">
        <ele>55</ele>
        <time>2020-01-26T09:05:03Z</time>
      </trkpt>
      <trkpt lat="45.77886" lon="-1.23713">
        <ele>55</ele>
        <time>2020-01-26T09:05:04Z</time>
      </trkpt>
      <trkpt lat="45.77886" lon="-1.23713">
        <ele>55</ele>
        <time>2020-01-26T09:05:05Z</time>
      </trkpt>
      <trkpt lat="45.77886" lon="-1.23713">
        <ele>55</ele>
        <time>2020-01-26T09:05:06Z</time>
      </trkpt>
      <trkpt lat="45.77886" lon="-1.23713">
        <ele>55</ele>
        <time>2020-01-26T09:05:07Z</time>
      </trkpt>
      <trkpt lat="45.77886" lon="-1.23713">
        <ele>55</ele>
        <time>2020-01-26T09:05:08Z</time>
      </trkpt>
      <trkpt lat="45.77886" lon="-1.23713">
        <ele>55</ele>
        <time>2020-01-26T09:05:09Z</time>
      </trkpt>
      <trkpt lat="45.77886" lon="-1.23713">
        <ele>55</ele>
        <time>2020-01-26T09:05:10Z</time>
      </trkpt>
      <trkpt lat="45.77886" lon="-1.23713">
        <ele>55</ele>
        <time>2020-01-26T09:05:11Z</time>
      </trkpt>
      <trkpt lat="45.77886" lon="-1.23713">
        <ele>55</ele>
        <time>2020-01-26T09:05:12Z</time>
      </trkpt>
      <trkpt lat="45.77886" lon="-1.23713">
        <ele>55</ele>
        <time>2020-01-26T09:05:13Z</time>
      </trkpt>
      <trkpt lat="45.77886" lon="-1.23713">
        <ele>55</ele>
        <time>2020-01-26T09:05:14Z</time>
      </trkpt>
      <trkpt lat="45.77886" lon="-1.23713">
        <ele>55</ele>
        <time>2020-01-26T09:05:15Z</time>
      </trkpt>
      <trkpt lat="45.77886" lon="-1.23713">
        <ele>55</ele>
        <time>2020-01-26T09:05:16Z</time>
      </trkpt>
      <trkpt lat="45.77886" lon="-1.23713">
        <ele>55</ele>
        <time>2020-01-26T09:05:17Z</time>
      </trkpt>
      <trkpt lat="45.77886" lon="-1.23713">
        <ele>55</ele>
        <time>2020-01-26T09:05:18Z</time>
      </trkpt>
      <trkpt lat="45.77886" lon="-1.23713">
        <ele>55</ele>
        <time>2020-01-26T09:05:19Z</time>
      </trkpt>
      <trkpt lat="45.77886" lon="-1.23713">
        <ele>55</ele>
        <time>2020-01-26T09:05:20Z</time>
      </trkpt>
      <trkpt lat="45.77886" lon="-1.23713">
        <ele>55</ele>
        <time>2020-01-26T09:05:21Z</time>
      </trkpt>
      <trkpt lat="45.77886" lon="-1.23713">
        <ele>55</ele>
        <time>2020-01-26T09:05:22Z</time>
      </trkpt>
      <trkpt lat="45.77886" lon="-1.23713">
        <ele>55</ele>
        <time>2020-01-26T09:05:23Z</time>
      </trkpt>
      <trkpt lat="45.77886" lon="-1.23713">
        <ele>55</ele>
        <time>2020-01-26T09:05:24Z</time>
      </trkpt>
      <trkpt lat="45.77886" lon="-1.23713">
        <ele>55</ele>
        <time>2020-01-26T09:05:25Z</time>
      </trkpt>
      <trkpt lat="45.77886" lon="-1.23713">
        <ele>55</ele>
        <time>2020-01-26T09:05:26Z</time>
      </trkpt>
      <trkpt lat="45.77886" lon="-1.23713">
        <ele>55</ele>
        <time>2020-01-26T09:05:27Z</time>
      </trkpt>
      <trkpt lat="45.77886" lon="-1.23713">
        <ele>55</ele>
        <time>2020-01-26T09:05:28Z</time>
      </trkpt>
      <trkpt lat="45.77886" lon="-1.23713">
        <ele>55</ele>
        <time>2020-01-26T09:05:29Z</time>
      </trkpt>
      <trkpt lat="45.77886" lon="-1.23713">
        <ele>55</ele>
        <time>2020-01-26T09:05:30Z</time>
      </trkpt>
      <trkpt lat="45.77886" lon="-1.23713">
        <ele>55</ele>
        <time>2020-01-26T09:05:31Z</time>
      </trkpt>
      <trkpt lat="45.77886" lon="-1.23713">
        <ele>55</ele>
        <time>2020-01-26T09:05:32Z</time>
      </trkpt>
      <trkpt lat="45.77886" lon="-1.23713">
        <ele>55</ele>
        <time>2020-01-26T09:05:33Z</time>
      </trkpt>
      <trkpt lat="45.77886" lon="-1.23713">
        <ele>55</ele>
        <time>2020-01-26T09:05:34Z</time>
      </trkpt>
      <trkpt lat="45.77886" lon="-1.23713">
        <ele>55</ele>
        <time>2020-01-26T09:05:35Z</time>
      </trkpt>
      <trkpt lat="45.77886" lon="-1.23713">
        <ele>55</ele>
        <time>2020-01-26T09:05:36Z</time>
      </trkpt>
      <trkpt lat="45.77886" lon="-1.23713">
        <ele>55</ele>
        <time>2020-01-26T09:05:37Z</time>
      </trkpt>
      <trkpt lat="45.77886" lon="-1.23713">
        <ele>55</ele>
        <time>2020-01-26T09:05:38Z</time>
      </trkpt>
      <trkpt lat="45.77886" lon="-1.23713">
        <ele>55</ele>
        <time>2020-01-26T09:05:39Z</time>
      </trkpt>
      <trkpt lat="45.77886" lon="-1.23713">
        <ele>55</ele>
        <time>2020-01-26T09:05:40Z</time>
      </trkpt>
      <trkpt lat="45.77886" lon="-1.23713">
        <ele>55</ele>
        <time>2020-01-26T09:05:41Z</time>
      </trkpt>
      <trkpt lat="45.77886" lon="-1.23713">
        <ele>55</ele>
        <time>2020-01-26T09:05:42Z</time>
      </trkpt>
      <trkpt lat="45.77886" lon="-1.23713">
        <ele>55</ele>
        <time>2020-01-26T09:05:43Z</time>
      </trkpt>
      <trkpt lat="45.77886" lon="-1.23713">
        <ele>55</ele>
        <time>2020-01-26T09:05:44Z</time>
      </trkpt>
      <trkpt lat="45.77886" lon="-1.23713">
        <ele>55</ele>
        <time>2020-01-26T09:05:45Z</time>
      </trkpt>
      <trkpt lat="45.77886" lon="-1.23713">
        <ele>55</ele>
        <time>2020-01-26T09:05:46Z</time>
      </trkpt>
      <trkpt lat="45.77886" lon="-1.23713">
        <ele>55</ele>
        <time>2020-01-26T09:05:47Z</time>
      </trkpt>
      <trkpt lat="45.77886" lon="-1.23713">
        <ele>55</ele>
        <time>2020-01-26T09:05:48Z</time>
      </trkpt>
      <trkpt lat="45.77886" lon="-1.23713">
        <ele>55</ele>
        <time>2020-01-26T09:05:49Z</time>
      </trkpt>
      <trkpt lat="45.77886" lon="-1.23713">
        <ele>55</ele>
        <time>2020-01-26T09:05:50Z</time>
      </trkpt>
      <trkpt lat="45.77886" lon="-1.23713">
        <ele>55</ele>
        <time>2020-01-26T09:05:51Z</time>
      </trkpt>
      <trkpt lat="45.77886" lon="-1.23713">
        <ele>55</ele>
        <time>2020-01-26T09:05:52Z</time>
      </trkpt>
      <trkpt lat="45.77886" lon="-1.23713">
        <ele>55</ele>
        <time>2020-01-26T09:05:53Z</time>
      </trkpt>
      <trkpt lat="45.77886" lon="-1.23713">
        <ele>55</ele>
        <time>2020-01-26T09:05:54Z</time>
      </trkpt>
      <trkpt lat="45.77886" lon="-1.23713">
        <ele>55</ele>
        <time>2020-01-26T09:05:55Z</time>
      </trkpt>
      <trkpt lat="45.77886" lon="-1.23713">
        <ele>55</ele>
        <time>2020-01-26T09:05:56Z</time>
      </trkpt>
      <trkpt lat="45.77886" lon="-1.23713">
        <ele>55</ele>
        <time>2020-01-26T09:05:57Z</time>
      </trkpt>
      <trkpt lat="45.77886" lon="-1.23713">
        <ele>55</ele>
        <time>2020-01-26T09:05:58Z</time>
      </trkpt>
      <trkpt lat="45.77886" lon="-1.23713">
        <ele>55</ele>
        <time>2020-01-26T09:05:59Z</time>
      </trkpt>
      <trkpt lat="45.77886" lon="-1.23713">
        <ele>55</ele>
        <time>2020-01-26T09:06:00Z</time>
      </trkpt>
      <trkpt lat="45.77886" lon="-1.23713">
        <ele>55</ele>
        <time>2020-01-26T09:06:01Z</time>
      </trkpt>
      <trkpt lat="45.77886" lon="-1.23713">
        <ele>55</ele>
        <time>2020-01-26T09:06:02Z</time>
      </trkpt>
      <trkpt lat="45.77886" lon="-1.23713">
        <ele>55</ele>
        <time>2020-01-26T09:06:03Z</time>
      </trkpt>
      <trkpt lat="45.77886" lon="-1.23713">
        <ele>55</ele>
        <time>2020-01-26T09:06:04Z</time>
      </trkpt>
      <trkpt lat="45.77886" lon="-1.23713">
        <ele>55</ele>
        <time>2020-01-26T09:06:05Z</time>
      </trkpt>
      <trkpt lat="45.77886" lon="-1.23713">
        <ele>55</ele>
        <time>2020-01-26T09:06:06Z</time>
      </trkpt>
      <trkpt lat="45.77886" lon="-1.23713">
        <ele>55.2</ele>
        <time>2020-01-26T09:06:07Z</time>
      </trkpt>
      <trkpt lat="45.77886" lon="-1.23713">
        <ele>55.4</ele>
        <time>2020-01-26T09:06:08Z</time>
      </trkpt>
      <trkpt lat="45.77886" lon="-1.23713">
        <ele>55.6</ele>
        <time>2020-01-26T09:06:09Z</time>
      </trkpt>
      <trkpt lat="45.77886" lon="-1.23713">
        <ele>55.6</ele>
        <time>2020-01-26T09:06:10Z</time>
      </trkpt>
      <trkpt lat="45.77886" lon="-1.23713">
        <ele>55.8</ele>
        <time>2020-01-26T09:06:11Z</time>
      </trkpt>
      <trkpt lat="45.77886" lon="-1.23713">
        <ele>55.8</ele>
        <time>2020-01-26T09:06:12Z</time>
      </trkpt>
      <trkpt lat="45.77886" lon="-1.23713">
        <ele>55.8</ele>
        <time>2020-01-26T09:06:13Z</time>
      </trkpt>
      <trkpt lat="45.77886" lon="-1.23713">
        <ele>56</ele>
        <time>2020-01-26T09:06:14Z</time>
      </trkpt>
      <trkpt lat="45.77886" lon="-1.23713">
        <ele>56</ele>
        <time>2020-01-26T09:06:15Z</time>
      </trkpt>
      <trkpt lat="45.77886" lon="-1.23713">
        <ele>56</ele>
        <time>2020-01-26T09:06:16Z</time>
      </trkpt>
      <trkpt lat="45.77886" lon="-1.23713">
        <ele>56</ele>
        <time>2020-01-26T09:06:17Z</time>
      </trkpt>
      <trkpt lat="45.77886" lon="-1.23713">
        <ele>56</ele>
        <time>2020-01-26T09:06:18Z</time>
      </trkpt>
      <trkpt lat="45.77886" lon="-1.23713">
        <ele>56</ele>
        <time>2020-01-26T09:06:19Z</time>
      </trkpt>
      <trkpt lat="45.77886" lon="-1.23713">
        <ele>56</ele>
        <time>2020-01-26T09:06:20Z</time>
      </trkpt>
      <trkpt lat="45.77886" lon="-1.23713">
        <ele>56</ele>
        <time>2020-01-26T09:06:21Z</time>
      </trkpt>
      <trkpt lat="45.77886" lon="-1.23713">
        <ele>56</ele>
        <time>2020-01-26T09:06:22Z</time>
      </trkpt>
      <trkpt lat="45.77887" lon="-1.23713">
        <ele>56</ele>
        <time>2020-01-26T09:06:23Z</time>
      </trkpt>
      <trkpt lat="45.77887" lon="-1.23713">
        <ele>56</ele>
        <time>2020-01-26T09:06:24Z</time>
      </trkpt>
      <trkpt lat="45.77887" lon="-1.23713">
        <ele>56</ele>
        <time>2020-01-26T09:06:25Z</time>
      </trkpt>
      <trkpt lat="45.77887" lon="-1.23713">
        <ele>56</ele>
        <time>2020-01-26T09:06:26Z</time>
      </trkpt>
      <trkpt lat="45.77887" lon="-1.23713">
        <ele>56</ele>
        <time>2020-01-26T09:06:27Z</time>
      </trkpt>
      <trkpt lat="45.77887" lon="-1.23713">
        <ele>56</ele>
        <time>2020-01-26T09:06:28Z</time>
      </trkpt>
      <trkpt lat="45.77887" lon="-1.23713">
        <ele>56</ele>
        <time>2020-01-26T09:06:29Z</time>
      </trkpt>
      <trkpt lat="45.77887" lon="-1.23713">
        <ele>56</ele>
        <time>2020-01-26T09:06:30Z</time>
      </trkpt>
      <trkpt lat="45.77887" lon="-1.23713">
        <ele>56</ele>
        <time>2020-01-26T09:06:31Z</time>
      </trkpt>
      <trkpt lat="45.77887" lon="-1.23713">
        <ele>56</ele>
        <time>2020-01-26T09:06:32Z</time>
      </trkpt>
      <trkpt lat="45.77887" lon="-1.23713">
        <ele>56</ele>
        <time>2020-01-26T09:06:33Z</time>
      </trkpt>
      <trkpt lat="45.77887" lon="-1.23713">
        <ele>56</ele>
        <time>2020-01-26T09:06:34Z</time>
      </trkpt>
      <trkpt lat="45.77887" lon="-1.23713">
        <ele>56</ele>
        <time>2020-01-26T09:06:35Z</time>
      </trkpt>
      <trkpt lat="45.77887" lon="-1.23713">
        <ele>56</ele>
        <time>2020-01-26T09:06:36Z</time>
      </trkpt>
      <trkpt lat="45.77887" lon="-1.23713">
        <ele>56</ele>
        <time>2020-01-26T09:06:37Z</time>
      </trkpt>
      <trkpt lat="45.77887" lon="-1.23713">
        <ele>56</ele>
        <time>2020-01-26T09:06:38Z</time>
      </trkpt>
      <trkpt lat="45.77887" lon="-1.23713">
        <ele>56</ele>
        <time>2020-01-26T09:06:39Z</time>
      </trkpt>
      <trkpt lat="45.77887" lon="-1.23713">
        <ele>56</ele>
        <time>2020-01-26T09:06:40Z</time>
      </trkpt>
      <trkpt lat="45.77886" lon="-1.23713">
        <ele>56</ele>
        <time>2020-01-26T09:06:41Z</time>
      </trkpt>
      <trkpt lat="45.77886" lon="-1.23713">
        <ele>56</ele>
        <time>2020-01-26T09:06:42Z</time>
      </trkpt>
      <trkpt lat="45.77886" lon="-1.23713">
        <ele>56</ele>
        <time>2020-01-26T09:06:43Z</time>
      </trkpt>
      <trkpt lat="45.77886" lon="-1.23713">
        <ele>56</ele>
        <time>2020-01-26T09:06:44Z</time>
      </trkpt>
      <trkpt lat="45.77886" lon="-1.23713">
        <ele>56</ele>
        <time>2020-01-26T09:06:45Z</time>
      </trkpt>
      <trkpt lat="45.77886" lon="-1.23713">
        <ele>56</ele>
        <time>2020-01-26T09:06:46Z</time>
      </trkpt>
      <trkpt lat="45.77887" lon="-1.23713">
        <ele>56</ele>
        <time>2020-01-26T09:06:47Z</time>
      </trkpt>
      <trkpt lat="45.77887" lon="-1.23713">
        <ele>56</ele>
        <time>2020-01-26T09:06:48Z</time>
      </trkpt>
      <trkpt lat="45.77887" lon="-1.23713">
        <ele>56</ele>
        <time>2020-01-26T09:06:49Z</time>
      </trkpt>
      <trkpt lat="45.77887" lon="-1.23713">
        <ele>56</ele>
        <time>2020-01-26T09:06:50Z</time>
      </trkpt>
      <trkpt lat="45.77887" lon="-1.23713">
        <ele>56</ele>
        <time>2020-01-26T09:06:51Z</time>
      </trkpt>
      <trkpt lat="45.77887" lon="-1.23713">
        <ele>56</ele>
        <time>2020-01-26T09:06:52Z</time>
      </trkpt>
      <trkpt lat="45.77887" lon="-1.23713">
        <ele>56</ele>
        <time>2020-01-26T09:06:53Z</time>
      </trkpt>
      <trkpt lat="45.77887" lon="-1.23713">
        <ele>56</ele>
        <time>2020-01-26T09:06:54Z</time>
      </trkpt>
      <trkpt lat="45.77887" lon="-1.23713">
        <ele>56</ele>
        <time>2020-01-26T09:06:55Z</time>
      </trkpt>
      <trkpt lat="45.77887" lon="-1.23713">
        <ele>56</ele>
        <time>2020-01-26T09:06:56Z</time>
      </trkpt>
      <trkpt lat="45.77887" lon="-1.23713">
        <ele>56</ele>
        <time>2020-01-26T09:06:57Z</time>
      </trkpt>
      <trkpt lat="45.77887" lon="-1.23713">
        <ele>56</ele>
        <time>2020-01-26T09:06:58Z</time>
      </trkpt>
      <trkpt lat="45.77887" lon="-1.23713">
        <ele>56</ele>
        <time>2020-01-26T09:06:59Z</time>
      </trkpt>
      <trkpt lat="45.77887" lon="-1.23713">
        <ele>56</ele>
        <time>2020-01-26T09:07:00Z</time>
      </trkpt>
      <trkpt lat="45.77887" lon="-1.23713">
        <ele>56</ele>
        <time>2020-01-26T09:07:01Z</time>
      </trkpt>
      <trkpt lat="45.77887" lon="-1.23713">
        <ele>56</ele>
        <time>2020-01-26T09:07:02Z</time>
      </trkpt>
      <trkpt lat="45.77887" lon="-1.23713">
        <ele>56</ele>
        <time>2020-01-26T09:07:03Z</time>
      </trkpt>
      <trkpt lat="45.77887" lon="-1.23713">
        <ele>56</ele>
        <time>2020-01-26T09:07:04Z</time>
      </trkpt>
      <trkpt lat="45.77887" lon="-1.23713">
        <ele>56</ele>
        <time>2020-01-26T09:07:05Z</time>
      </trkpt>
      <trkpt lat="45.77887" lon="-1.23713">
        <ele>56</ele>
        <time>2020-01-26T09:07:06Z</time>
      </trkpt>
      <trkpt lat="45.77887" lon="-1.23713">
        <ele>56</ele>
        <time>2020-01-26T09:07:07Z</time>
      </trkpt>
      <trkpt lat="45.77887" lon="-1.23713">
        <ele>56</ele>
        <time>2020-01-26T09:07:08Z</time>
      </trkpt>
      <trkpt lat="45.77887" lon="-1.23713">
        <ele>56</ele>
        <time>2020-01-26T09:07:09Z</time>
      </trkpt>
      <trkpt lat="45.77887" lon="-1.23713">
        <ele>56</ele>
        <time>2020-01-26T09:07:10Z</time>
      </trkpt>
      <trkpt lat="45.77887" lon="-1.23713">
        <ele>56</ele>
        <time>2020-01-26T09:07:11Z</time>
      </trkpt>
      <trkpt lat="45.77887" lon="-1.23713">
        <ele>56</ele>
        <time>2020-01-26T09:07:12Z</time>
      </trkpt>
      <trkpt lat="45.77887" lon="-1.23713">
        <ele>56</ele>
        <time>2020-01-26T09:07:13Z</time>
      </trkpt>
      <trkpt lat="45.77887" lon="-1.23713">
        <ele>56</ele>
        <time>2020-01-26T09:07:14Z</time>
      </trkpt>
      <trkpt lat="45.77887" lon="-1.23713">
        <ele>56</ele>
        <time>2020-01-26T09:07:15Z</time>
      </trkpt>
      <trkpt lat="45.77887" lon="-1.23713">
        <ele>56</ele>
        <time>2020-01-26T09:07:16Z</time>
      </trkpt>
      <trkpt lat="45.77887" lon="-1.23713">
        <ele>56</ele>
        <time>2020-01-26T09:07:17Z</time>
      </trkpt>
      <trkpt lat="45.77887" lon="-1.23713">
        <ele>56</ele>
        <time>2020-01-26T09:07:18Z</time>
      </trkpt>
      <trkpt lat="45.77887" lon="-1.23713">
        <ele>56</ele>
        <time>2020-01-26T09:07:19Z</time>
      </trkpt>
      <trkpt lat="45.77887" lon="-1.23713">
        <ele>56</ele>
        <time>2020-01-26T09:07:20Z</time>
      </trkpt>
      <trkpt lat="45.77887" lon="-1.23713">
        <ele>56</ele>
        <time>2020-01-26T09:07:21Z</time>
      </trkpt>
      <trkpt lat="45.77887" lon="-1.23713">
        <ele>56</ele>
        <time>2020-01-26T09:07:22Z</time>
      </trkpt>
      <trkpt lat="45.77887" lon="-1.23713">
        <ele>56</ele>
        <time>2020-01-26T09:07:23Z</time>
      </trkpt>
      <trkpt lat="45.77887" lon="-1.23713">
        <ele>56</ele>
        <time>2020-01-26T09:07:24Z</time>
      </trkpt>
      <trkpt lat="45.77887" lon="-1.23713">
        <ele>56</ele>
        <time>2020-01-26T09:07:25Z</time>
      </trkpt>
      <trkpt lat="45.77887" lon="-1.23713">
        <ele>56</ele>
        <time>2020-01-26T09:07:26Z</time>
      </trkpt>
      <trkpt lat="45.77887" lon="-1.23713">
        <ele>56</ele>
        <time>2020-01-26T09:07:27Z</time>
      </trkpt>
      <trkpt lat="45.77887" lon="-1.23713">
        <ele>56</ele>
        <time>2020-01-26T09:07:28Z</time>
      </trkpt>
      <trkpt lat="45.77887" lon="-1.23713">
        <ele>56</ele>
        <time>2020-01-26T09:07:29Z</time>
      </trkpt>
      <trkpt lat="45.77887" lon="-1.23713">
        <ele>56</ele>
        <time>2020-01-26T09:07:30Z</time>
      </trkpt>
      <trkpt lat="45.77887" lon="-1.23713">
        <ele>56</ele>
        <time>2020-01-26T09:07:31Z</time>
      </trkpt>
      <trkpt lat="45.77887" lon="-1.23713">
        <ele>56</ele>
        <time>2020-01-26T09:07:32Z</time>
      </trkpt>
      <trkpt lat="45.77887" lon="-1.23713">
        <ele>56</ele>
        <time>2020-01-26T09:07:33Z</time>
      </trkpt>
      <trkpt lat="45.77887" lon="-1.23713">
        <ele>56</ele>
        <time>2020-01-26T09:07:34Z</time>
      </trkpt>
      <trkpt lat="45.77887" lon="-1.23713">
        <ele>56</ele>
        <time>2020-01-26T09:07:35Z</time>
      </trkpt>
      <trkpt lat="45.77887" lon="-1.23713">
        <ele>56</ele>
        <time>2020-01-26T09:07:36Z</time>
      </trkpt>
      <trkpt lat="45.77887" lon="-1.23713">
        <ele>56</ele>
        <time>2020-01-26T09:07:37Z</time>
      </trkpt>
      <trkpt lat="45.77887" lon="-1.23713">
        <ele>56</ele>
        <time>2020-01-26T09:07:38Z</time>
      </trkpt>
      <trkpt lat="45.77887" lon="-1.23713">
        <ele>56</ele>
        <time>2020-01-26T09:07:39Z</time>
      </trkpt>
      <trkpt lat="45.77887" lon="-1.23713">
        <ele>56</ele>
        <time>2020-01-26T09:07:40Z</time>
      </trkpt>
      <trkpt lat="45.77887" lon="-1.23713">
        <ele>56</ele>
        <time>2020-01-26T09:07:41Z</time>
      </trkpt>
      <trkpt lat="45.77887" lon="-1.23713">
        <ele>56</ele>
        <time>2020-01-26T09:07:42Z</time>
      </trkpt>
      <trkpt lat="45.77887" lon="-1.23713">
        <ele>56</ele>
        <time>2020-01-26T09:07:43Z</time>
      </trkpt>
      <trkpt lat="45.77887" lon="-1.23713">
        <ele>56</ele>
        <time>2020-01-26T09:07:44Z</time>
      </trkpt>
      <trkpt lat="45.77887" lon="-1.23713">
        <ele>56</ele>
        <time>2020-01-26T09:07:45Z</time>
      </trkpt>
      <trkpt lat="45.77887" lon="-1.23713">
        <ele>56</ele>
        <time>2020-01-26T09:07:46Z</time>
      </trkpt>
      <trkpt lat="45.77887" lon="-1.23713">
        <ele>56</ele>
        <time>2020-01-26T09:07:47Z</time>
      </trkpt>
      <trkpt lat="45.77887" lon="-1.23713">
        <ele>56</ele>
        <time>2020-01-26T09:07:48Z</time>
      </trkpt>
      <trkpt lat="45.77887" lon="-1.23713">
        <ele>56</ele>
        <time>2020-01-26T09:07:49Z</time>
      </trkpt>
      <trkpt lat="45.77887" lon="-1.23713">
        <ele>56</ele>
        <time>2020-01-26T09:07:50Z</time>
      </trkpt>
      <trkpt lat="45.77887" lon="-1.23713">
        <ele>56</ele>
        <time>2020-01-26T09:07:51Z</time>
      </trkpt>
      <trkpt lat="45.77887" lon="-1.23713">
        <ele>56</ele>
        <time>2020-01-26T09:07:52Z</time>
      </trkpt>
      <trkpt lat="45.77887" lon="-1.23713">
        <ele>56</ele>
        <time>2020-01-26T09:07:53Z</time>
      </trkpt>
      <trkpt lat="45.77887" lon="-1.23713">
        <ele>56</ele>
        <time>2020-01-26T09:07:54Z</time>
      </trkpt>
      <trkpt lat="45.77887" lon="-1.23713">
        <ele>56</ele>
        <time>2020-01-26T09:07:55Z</time>
      </trkpt>
      <trkpt lat="45.77887" lon="-1.23713">
        <ele>56</ele>
        <time>2020-01-26T09:07:56Z</time>
      </trkpt>
      <trkpt lat="45.77887" lon="-1.23713">
        <ele>56</ele>
        <time>2020-01-26T09:07:57Z</time>
      </trkpt>
      <trkpt lat="45.77887" lon="-1.23713">
        <ele>56</ele>
        <time>2020-01-26T09:07:58Z</time>
      </trkpt>
      <trkpt lat="45.77887" lon="-1.23713">
        <ele>56</ele>
        <time>2020-01-26T09:07:59Z</time>
      </trkpt>
      <trkpt lat="45.77887" lon="-1.23713">
        <ele>56</ele>
        <time>2020-01-26T09:08:00Z</time>
      </trkpt>
      <trkpt lat="45.77887" lon="-1.23713">
        <ele>56</ele>
        <time>2020-01-26T09:08:01Z</time>
      </trkpt>
      <trkpt lat="45.77887" lon="-1.23713">
        <ele>56</ele>
        <time>2020-01-26T09:08:02Z</time>
      </trkpt>
      <trkpt lat="45.77887" lon="-1.23713">
        <ele>56</ele>
        <time>2020-01-26T09:08:03Z</time>
      </trkpt>
      <trkpt lat="45.77887" lon="-1.23713">
        <ele>56</ele>
        <time>2020-01-26T09:08:04Z</time>
      </trkpt>
      <trkpt lat="45.77887" lon="-1.23713">
        <ele>56</ele>
        <time>2020-01-26T09:08:05Z</time>
      </trkpt>
      <trkpt lat="45.77887" lon="-1.23713">
        <ele>56</ele>
        <time>2020-01-26T09:08:06Z</time>
      </trkpt>
      <trkpt lat="45.77887" lon="-1.23713">
        <ele>56</ele>
        <time>2020-01-26T09:08:07Z</time>
      </trkpt>
      <trkpt lat="45.77887" lon="-1.23713">
        <ele>56</ele>
        <time>2020-01-26T09:08:08Z</time>
      </trkpt>
      <trkpt lat="45.77887" lon="-1.23713">
        <ele>56</ele>
        <time>2020-01-26T09:08:09Z</time>
      </trkpt>
      <trkpt lat="45.77887" lon="-1.23713">
        <ele>56</ele>
        <time>2020-01-26T09:08:10Z</time>
      </trkpt>
      <trkpt lat="45.77887" lon="-1.23713">
        <ele>56</ele>
        <time>2020-01-26T09:08:11Z</time>
      </trkpt>
      <trkpt lat="45.77887" lon="-1.23713">
        <ele>56</ele>
        <time>2020-01-26T09:08:12Z</time>
      </trkpt>
      <trkpt lat="45.77887" lon="-1.23713">
        <ele>56</ele>
        <time>2020-01-26T09:08:13Z</time>
      </trkpt>
      <trkpt lat="45.77887" lon="-1.23713">
        <ele>56</ele>
        <time>2020-01-26T09:08:14Z</time>
      </trkpt>
      <trkpt lat="45.77887" lon="-1.23713">
        <ele>56</ele>
        <time>2020-01-26T09:08:15Z</time>
      </trkpt>
      <trkpt lat="45.77887" lon="-1.23713">
        <ele>56</ele>
        <time>2020-01-26T09:08:16Z</time>
      </trkpt>
      <trkpt lat="45.77887" lon="-1.23713">
        <ele>56</ele>
        <time>2020-01-26T09:08:17Z</time>
      </trkpt>
      <trkpt lat="45.77887" lon="-1.23713">
        <ele>56</ele>
        <time>2020-01-26T09:08:18Z</time>
      </trkpt>
      <trkpt lat="45.77887" lon="-1.23713">
        <ele>56</ele>
        <time>2020-01-26T09:08:19Z</time>
      </trkpt>
      <trkpt lat="45.77887" lon="-1.23713">
        <ele>56</ele>
        <time>2020-01-26T09:08:20Z</time>
      </trkpt>
      <trkpt lat="45.77887" lon="-1.23713">
        <ele>56</ele>
        <time>2020-01-26T09:08:21Z</time>
      </trkpt>
      <trkpt lat="45.77887" lon="-1.23713">
        <ele>56</ele>
        <time>2020-01-26T09:08:22Z</time>
      </trkpt>
      <trkpt lat="45.77887" lon="-1.23713">
        <ele>56</ele>
        <time>2020-01-26T09:08:23Z</time>
      </trkpt>
      <trkpt lat="45.77887" lon="-1.23713">
        <ele>56</ele>
        <time>2020-01-26T09:08:24Z</time>
      </trkpt>
      <trkpt lat="45.77887" lon="-1.23713">
        <ele>56</ele>
        <time>2020-01-26T09:08:25Z</time>
      </trkpt>
      <trkpt lat="45.77887" lon="-1.23713">
        <ele>56</ele>
        <time>2020-01-26T09:08:26Z</time>
      </trkpt>
      <trkpt lat="45.77887" lon="-1.23713">
        <ele>56</ele>
        <time>2020-01-26T09:08:27Z</time>
      </trkpt>
      <trkpt lat="45.77887" lon="-1.23713">
        <ele>56</ele>
        <time>2020-01-26T09:08:28Z</time>
      </trkpt>
      <trkpt lat="45.77887" lon="-1.23713">
        <ele>56</ele>
        <time>2020-01-26T09:08:29Z</time>
      </trkpt>
      <trkpt lat="45.77887" lon="-1.23713">
        <ele>56</ele>
        <time>2020-01-26T09:08:30Z</time>
      </trkpt>
      <trkpt lat="45.77887" lon="-1.23713">
        <ele>56</ele>
        <time>2020-01-26T09:08:31Z</time>
      </trkpt>
      <trkpt lat="45.77887" lon="-1.23713">
        <ele>56</ele>
        <time>2020-01-26T09:08:32Z</time>
      </trkpt>
      <trkpt lat="45.77887" lon="-1.23713">
        <ele>56</ele>
        <time>2020-01-26T09:08:33Z</time>
      </trkpt>
      <trkpt lat="45.77887" lon="-1.23713">
        <ele>56</ele>
        <time>2020-01-26T09:08:34Z</time>
      </trkpt>
      <trkpt lat="45.77887" lon="-1.23713">
        <ele>56</ele>
        <time>2020-01-26T09:08:35Z</time>
      </trkpt>
      <trkpt lat="45.77887" lon="-1.23713">
        <ele>56</ele>
        <time>2020-01-26T09:08:36Z</time>
      </trkpt>
      <trkpt lat="45.77887" lon="-1.23713">
        <ele>56</ele>
        <time>2020-01-26T09:08:37Z</time>
      </trkpt>
      <trkpt lat="45.77887" lon="-1.23713">
        <ele>56</ele>
        <time>2020-01-26T09:08:38Z</time>
      </trkpt>
      <trkpt lat="45.77887" lon="-1.23713">
        <ele>56</ele>
        <time>2020-01-26T09:08:39Z</time>
      </trkpt>
      <trkpt lat="45.77887" lon="-1.23713">
        <ele>56</ele>
        <time>2020-01-26T09:08:40Z</time>
      </trkpt>
      <trkpt lat="45.77887" lon="-1.23713">
        <ele>56</ele>
        <time>2020-01-26T09:08:41Z</time>
      </trkpt>
      <trkpt lat="45.77887" lon="-1.23713">
        <ele>56</ele>
        <time>2020-01-26T09:08:42Z</time>
      </trkpt>
      <trkpt lat="45.77887" lon="-1.23713">
        <ele>56</ele>
        <time>2020-01-26T09:08:43Z</time>
      </trkpt>
      <trkpt lat="45.77887" lon="-1.23713">
        <ele>56</ele>
        <time>2020-01-26T09:08:44Z</time>
      </trkpt>
      <trkpt lat="45.77887" lon="-1.23713">
        <ele>56</ele>
        <time>2020-01-26T09:08:45Z</time>
      </trkpt>
      <trkpt lat="45.77887" lon="-1.23713">
        <ele>56</ele>
        <time>2020-01-26T09:08:46Z</time>
      </trkpt>
      <trkpt lat="45.77887" lon="-1.23713">
        <ele>56</ele>
        <time>2020-01-26T09:08:47Z</time>
      </trkpt>
      <trkpt lat="45.77887" lon="-1.23713">
        <ele>56</ele>
        <time>2020-01-26T09:08:48Z</time>
      </trkpt>
      <trkpt lat="45.77887" lon="-1.23713">
        <ele>56</ele>
        <time>2020-01-26T09:08:49Z</time>
      </trkpt>
      <trkpt lat="45.77887" lon="-1.23713">
        <ele>56</ele>
        <time>2020-01-26T09:08:50Z</time>
      </trkpt>
      <trkpt lat="45.77887" lon="-1.23711">
        <ele>55.8</ele>
        <time>2020-01-26T09:08:51Z</time>
      </trkpt>
      <trkpt lat="45.77887" lon="-1.23709">
        <ele>55.6</ele>
        <time>2020-01-26T09:08:52Z</time>
      </trkpt>
      <trkpt lat="45.77887" lon="-1.23709">
        <ele>55.4</ele>
        <time>2020-01-26T09:08:53Z</time>
      </trkpt>
      <trkpt lat="45.77887" lon="-1.23708">
        <ele>55.4</ele>
        <time>2020-01-26T09:08:54Z</time>
      </trkpt>
      <trkpt lat="45.77887" lon="-1.23708">
        <ele>55.2</ele>
        <time>2020-01-26T09:08:55Z</time>
      </trkpt>
      <trkpt lat="45.77887" lon="-1.23708">
        <ele>55.2</ele>
        <time>2020-01-26T09:08:56Z</time>
      </trkpt>
      <trkpt lat="45.77887" lon="-1.23708">
        <ele>55.4</ele>
        <time>2020-01-26T09:08:57Z</time>
      </trkpt>
      <trkpt lat="45.77888" lon="-1.23708">
        <ele>55.6</ele>
        <time>2020-01-26T09:08:58Z</time>
      </trkpt>
      <trkpt lat="45.77888" lon="-1.23708">
        <ele>55.6</ele>
        <time>2020-01-26T09:08:59Z</time>
      </trkpt>
      <trkpt lat="45.77888" lon="-1.23708">
        <ele>55.6</ele>
        <time>2020-01-26T09:09:00Z</time>
      </trkpt>
      <trkpt lat="45.77888" lon="-1.23708">
        <ele>55.6</ele>
        <time>2020-01-26T09:09:01Z</time>
      </trkpt>
      <trkpt lat="45.77888" lon="-1.23708">
        <ele>55.6</ele>
        <time>2020-01-26T09:09:02Z</time>
      </trkpt>
      <trkpt lat="45.77888" lon="-1.23706">
        <ele>55.6</ele>
        <time>2020-01-26T09:09:03Z</time>
      </trkpt>
      <trkpt lat="45.77888" lon="-1.23703">
        <ele>55.4</ele>
        <time>2020-01-26T09:09:04Z</time>
      </trkpt>
      <trkpt lat="45.77889" lon="-1.237">
        <ele>55.2</ele>
        <time>2020-01-26T09:09:05Z</time>
      </trkpt>
      <trkpt lat="45.77889" lon="-1.23697">
        <ele>55.2</ele>
        <time>2020-01-26T09:09:06Z</time>
      </trkpt>
      <trkpt lat="45.77889" lon="-1.23694">
        <ele>54.8</ele>
        <time>2020-01-26T09:09:07Z</time>
      </trkpt>
      <trkpt lat="45.77889" lon="-1.23691">
        <ele>54.6</ele>
        <time>2020-01-26T09:09:08Z</time>
      </trkpt>
      <trkpt lat="45.77888" lon="-1.23688">
        <ele>54.4</ele>
        <time>2020-01-26T09:09:09Z</time>
      </trkpt>
      <trkpt lat="45.77888" lon="-1.23686">
        <ele>53.8</ele>
        <time>2020-01-26T09:09:10Z</time>
      </trkpt>
      <trkpt lat="45.77888" lon="-1.23684">
        <ele>53.4</ele>
        <time>2020-01-26T09:09:11Z</time>
      </trkpt>
      <trkpt lat="45.77889" lon="-1.2368">
        <ele>53</ele>
        <time>2020-01-26T09:09:12Z</time>
      </trkpt>
      <trkpt lat="45.7789" lon="-1.23677">
        <ele>52.8</ele>
        <time>2020-01-26T09:09:13Z</time>
      </trkpt>
      <trkpt lat="45.77889" lon="-1.23672">
        <ele>52.6</ele>
        <time>2020-01-26T09:09:14Z</time>
      </trkpt>
      <trkpt lat="45.77889" lon="-1.23668">
        <ele>52.8</ele>
        <time>2020-01-26T09:09:15Z</time>
      </trkpt>
      <trkpt lat="45.77889" lon="-1.23665">
        <ele>52.8</ele>
        <time>2020-01-26T09:09:16Z</time>
      </trkpt>
      <trkpt lat="45.7789" lon="-1.2366">
        <ele>52.6</ele>
        <time>2020-01-26T09:09:17Z</time>
      </trkpt>
      <trkpt lat="45.7789" lon="-1.23656">
        <ele>52.2</ele>
        <time>2020-01-26T09:09:18Z</time>
      </trkpt>
      <trkpt lat="45.7789" lon="-1.23651">
        <ele>51.6</ele>
        <time>2020-01-26T09:09:19Z</time>
      </trkpt>
      <trkpt lat="45.7789" lon="-1.23646">
        <ele>51.2</ele>
        <time>2020-01-26T09:09:20Z</time>
      </trkpt>
      <trkpt lat="45.77891" lon="-1.23641">
        <ele>51</ele>
        <time>2020-01-26T09:09:21Z</time>
      </trkpt>
      <trkpt lat="45.77891" lon="-1.23634">
        <ele>51</ele>
        <time>2020-01-26T09:09:22Z</time>
      </trkpt>
      <trkpt lat="45.77892" lon="-1.23629">
        <ele>51</ele>
        <time>2020-01-26T09:09:23Z</time>
      </trkpt>
      <trkpt lat="45.77894" lon="-1.23624">
        <ele>50.6</ele>
        <time>2020-01-26T09:09:24Z</time>
      </trkpt>
      <trkpt lat="45.77896" lon="-1.2362">
        <ele>50.4</ele>
        <time>2020-01-26T09:09:25Z</time>
      </trkpt>
      <trkpt lat="45.77898" lon="-1.23618">
        <ele>50.2</ele>
        <time>2020-01-26T09:09:26Z</time>
      </trkpt>
      <trkpt lat="45.77899" lon="-1.23616">
        <ele>49.8</ele>
        <time>2020-01-26T09:09:27Z</time>
      </trkpt>
      <trkpt lat="45.779" lon="-1.23615">
        <ele>49.6</ele>
        <time>2020-01-26T09:09:28Z</time>
      </trkpt>
      <trkpt lat="45.77904" lon="-1.2361">
        <ele>49.2</ele>
        <time>2020-01-26T09:09:29Z</time>
      </trkpt>
      <trkpt lat="45.77903" lon="-1.23606">
        <ele>48.8</ele>
        <time>2020-01-26T09:09:30Z</time>
      </trkpt>
      <trkpt lat="45.77904" lon="-1.23603">
        <ele>48.4</ele>
        <time>2020-01-26T09:09:31Z</time>
      </trkpt>
      <trkpt lat="45.77905" lon="-1.23599">
        <ele>48</ele>
        <time>2020-01-26T09:09:32Z</time>
      </trkpt>
      <trkpt lat="45.77905" lon="-1.23596">
        <ele>47.4</ele>
        <time>2020-01-26T09:09:33Z</time>
      </trkpt>
      <trkpt lat="45.77906" lon="-1.23593">
        <ele>46.8</ele>
        <time>2020-01-26T09:09:34Z</time>
      </trkpt>
      <trkpt lat="45.77906" lon="-1.2359">
        <ele>46.2</ele>
        <time>2020-01-26T09:09:35Z</time>
      </trkpt>
      <trkpt lat="45.77907" lon="-1.23587">
        <ele>45.4</ele>
        <time>2020-01-26T09:09:36Z</time>
      </trkpt>
      <trkpt lat="45.77908" lon="-1.23584">
        <ele>44.6</ele>
        <time>2020-01-26T09:09:37Z</time>
      </trkpt>
      <trkpt lat="45.77909" lon="-1.23575">
        <ele>44.4</ele>
        <time>2020-01-26T09:09:38Z</time>
      </trkpt>
      <trkpt lat="45.77909" lon="-1.23569">
        <ele>44.2</ele>
        <time>2020-01-26T09:09:39Z</time>
      </trkpt>
      <trkpt lat="45.77908" lon="-1.23562">
        <ele>44</ele>
        <time>2020-01-26T09:09:40Z</time>
      </trkpt>
      <trkpt lat="45.77907" lon="-1.23555">
        <ele>43.8</ele>
        <time>2020-01-26T09:09:41Z</time>
      </trkpt>
      <trkpt lat="45.77907" lon="-1.2355">
        <ele>43.8</ele>
        <time>2020-01-26T09:09:42Z</time>
      </trkpt>
      <trkpt lat="45.77906" lon="-1.23544">
        <ele>43.6</ele>
        <time>2020-01-26T09:09:43Z</time>
      </trkpt>
      <trkpt lat="45.77907" lon="-1.23537">
        <ele>43.8</ele>
        <time>2020-01-26T09:09:44Z</time>
      </trkpt>
      <trkpt lat="45.77908" lon="-1.23529">
        <ele>44.4</ele>
        <time>2020-01-26T09:09:45Z</time>
      </trkpt>
      <trkpt lat="45.77908" lon="-1.23521">
        <ele>45</ele>
        <time>2020-01-26T09:09:46Z</time>
      </trkpt>
      <trkpt lat="45.77908" lon="-1.23515">
        <ele>45.2</ele>
        <time>2020-01-26T09:09:47Z</time>
      </trkpt>
      <trkpt lat="45.77909" lon="-1.23508">
        <ele>45.4</ele>
        <time>2020-01-26T09:09:48Z</time>
      </trkpt>
      <trkpt lat="45.77909" lon="-1.23501">
        <ele>45.6</ele>
        <time>2020-01-26T09:09:49Z</time>
      </trkpt>
      <trkpt lat="45.77908" lon="-1.23494">
        <ele>45.6</ele>
        <time>2020-01-26T09:09:50Z</time>
      </trkpt>
      <trkpt lat="45.77908" lon="-1.23487">
        <ele>45.6</ele>
        <time>2020-01-26T09:09:51Z</time>
      </trkpt>
      <trkpt lat="45.77907" lon="-1.2348">
        <ele>46</ele>
        <time>2020-01-26T09:09:52Z</time>
      </trkpt>
      <trkpt lat="45.77906" lon="-1.23472">
        <ele>46.4</ele>
        <time>2020-01-26T09:09:53Z</time>
      </trkpt>
      <trkpt lat="45.77906" lon="-1.23465">
        <ele>47.2</ele>
        <time>2020-01-26T09:09:54Z</time>
      </trkpt>
      <trkpt lat="45.77906" lon="-1.23458">
        <ele>47.8</ele>
        <time>2020-01-26T09:09:55Z</time>
      </trkpt>
      <trkpt lat="45.77906" lon="-1.23451">
        <ele>48.4</ele>
        <time>2020-01-26T09:09:56Z</time>
      </trkpt>
      <trkpt lat="45.77906" lon="-1.23444">
        <ele>48.8</ele>
        <time>2020-01-26T09:09:57Z</time>
      </trkpt>
      <trkpt lat="45.77907" lon="-1.23437">
        <ele>48.8</ele>
        <time>2020-01-26T09:09:58Z</time>
      </trkpt>
      <trkpt lat="45.77907" lon="-1.23429">
        <ele>49.2</ele>
        <time>2020-01-26T09:09:59Z</time>
      </trkpt>
      <trkpt lat="45.77907" lon="-1.23423">
        <ele>49</ele>
        <time>2020-01-26T09:10:00Z</time>
      </trkpt>
      <trkpt lat="45.77908" lon="-1.23416">
        <ele>49</ele>
        <time>2020-01-26T09:10:01Z</time>
      </trkpt>
      <trkpt lat="45.77909" lon="-1.23409">
        <ele>48.8</ele>
        <time>2020-01-26T09:10:02Z</time>
      </trkpt>
      <trkpt lat="45.7791" lon="-1.23401">
        <ele>48.8</ele>
        <time>2020-01-26T09:10:03Z</time>
      </trkpt>
      <trkpt lat="45.77911" lon="-1.23395">
        <ele>48.8</ele>
        <time>2020-01-26T09:10:04Z</time>
      </trkpt>
      <trkpt lat="45.77911" lon="-1.23389">
        <ele>48.6</ele>
        <time>2020-01-26T09:10:05Z</time>
      </trkpt>
      <trkpt lat="45.77911" lon="-1.23381">
        <ele>48.8</ele>
        <time>2020-01-26T09:10:06Z</time>
      </trkpt>
      <trkpt lat="45.77913" lon="-1.23373">
        <ele>48.8</ele>
        <time>2020-01-26T09:10:07Z</time>
      </trkpt>
      <trkpt lat="45.77914" lon="-1.23367">
        <ele>48.8</ele>
        <time>2020-01-26T09:10:08Z</time>
      </trkpt>
      <trkpt lat="45.77914" lon="-1.23359">
        <ele>48.4</ele>
        <time>2020-01-26T09:10:09Z</time>
      </trkpt>
      <trkpt lat="45.77914" lon="-1.23353">
        <ele>48</ele>
        <time>2020-01-26T09:10:10Z</time>
      </trkpt>
      <trkpt lat="45.77916" lon="-1.23347">
        <ele>47.6</ele>
        <time>2020-01-26T09:10:11Z</time>
      </trkpt>
      <trkpt lat="45.77917" lon="-1.23341">
        <ele>47.2</ele>
        <time>2020-01-26T09:10:12Z</time>
      </trkpt>
      <trkpt lat="45.77917" lon="-1.23334">
        <ele>46.8</ele>
        <time>2020-01-26T09:10:13Z</time>
      </trkpt>
      <trkpt lat="45.77919" lon="-1.23328">
        <ele>46.4</ele>
        <time>2020-01-26T09:10:14Z</time>
      </trkpt>
      <trkpt lat="45.77921" lon="-1.2332">
        <ele>46.2</ele>
        <time>2020-01-26T09:10:15Z</time>
      </trkpt>
      <trkpt lat="45.77921" lon="-1.23314">
        <ele>46.2</ele>
        <time>2020-01-26T09:10:16Z</time>
      </trkpt>
      <trkpt lat="45.77922" lon="-1.23309">
        <ele>46</ele>
        <time>2020-01-26T09:10:17Z</time>
      </trkpt>
      <trkpt lat="45.77922" lon="-1.233">
        <ele>46</ele>
        <time>2020-01-26T09:10:18Z</time>
      </trkpt>
      <trkpt lat="45.77923" lon="-1.23293">
        <ele>46</ele>
        <time>2020-01-26T09:10:19Z</time>
      </trkpt>
      <trkpt lat="45.77925" lon="-1.23287">
        <ele>46.2</ele>
        <time>2020-01-26T09:10:20Z</time>
      </trkpt>
      <trkpt lat="45.77928" lon="-1.23281">
        <ele>46.2</ele>
        <time>2020-01-26T09:10:21Z</time>
      </trkpt>
      <trkpt lat="45.77932" lon="-1.23278">
        <ele>46.2</ele>
        <time>2020-01-26T09:10:22Z</time>
      </trkpt>
      <trkpt lat="45.77937" lon="-1.23278">
        <ele>46.4</ele>
        <time>2020-01-26T09:10:23Z</time>
      </trkpt>
      <trkpt lat="45.7794" lon="-1.23278">
        <ele>46.8</ele>
        <time>2020-01-26T09:10:24Z</time>
      </trkpt>
      <trkpt lat="45.77946" lon="-1.23276">
        <ele>47.4</ele>
        <time>2020-01-26T09:10:25Z</time>
      </trkpt>
      <trkpt lat="45.77953" lon="-1.23274">
        <ele>48</ele>
        <time>2020-01-26T09:10:26Z</time>
      </trkpt>
      <trkpt lat="45.77958" lon="-1.23273">
        <ele>48.6</ele>
        <time>2020-01-26T09:10:27Z</time>
      </trkpt>
      <trkpt lat="45.77963" lon="-1.23271">
        <ele>49.2</ele>
        <time>2020-01-26T09:10:28Z</time>
      </trkpt>
      <trkpt lat="45.77967" lon="-1.23271">
        <ele>50</ele>
        <time>2020-01-26T09:10:29Z</time>
      </trkpt>
      <trkpt lat="45.77972" lon="-1.23269">
        <ele>50.6</ele>
        <time>2020-01-26T09:10:30Z</time>
      </trkpt>
      <trkpt lat="45.77978" lon="-1.23271">
        <ele>50.4</ele>
        <time>2020-01-26T09:10:31Z</time>
      </trkpt>
      <trkpt lat="45.77983" lon="-1.23271">
        <ele>49.8</ele>
        <time>2020-01-26T09:10:32Z</time>
      </trkpt>
      <trkpt lat="45.77988" lon="-1.23271">
        <ele>49</ele>
        <time>2020-01-26T09:10:33Z</time>
      </trkpt>
      <trkpt lat="45.77993" lon="-1.23271">
        <ele>48.6</ele>
        <time>2020-01-26T09:10:34Z</time>
      </trkpt>
      <trkpt lat="45.77998" lon="-1.23271">
        <ele>48.2</ele>
        <time>2020-01-26T09:10:35Z</time>
      </trkpt>
      <trkpt lat="45.78005" lon="-1.2327">
        <ele>48.4</ele>
        <time>2020-01-26T09:10:36Z</time>
      </trkpt>
      <trkpt lat="45.7801" lon="-1.2327">
        <ele>48.6</ele>
        <time>2020-01-26T09:10:37Z</time>
      </trkpt>
      <trkpt lat="45.78015" lon="-1.2327">
        <ele>48.6</ele>
        <time>2020-01-26T09:10:38Z</time>
      </trkpt>
      <trkpt lat="45.7802" lon="-1.23266">
        <ele>48.4</ele>
        <time>2020-01-26T09:10:39Z</time>
      </trkpt>
      <trkpt lat="45.78025" lon="-1.23265">
        <ele>47.6</ele>
        <time>2020-01-26T09:10:40Z</time>
      </trkpt>
      <trkpt lat="45.78032" lon="-1.23263">
        <ele>47.2</ele>
        <time>2020-01-26T09:10:41Z</time>
      </trkpt>
      <trkpt lat="45.78038" lon="-1.23263">
        <ele>47.4</ele>
        <time>2020-01-26T09:10:42Z</time>
      </trkpt>
      <trkpt lat="45.78043" lon="-1.23262">
        <ele>47.6</ele>
        <time>2020-01-26T09:10:43Z</time>
      </trkpt>
      <trkpt lat="45.78048" lon="-1.23261">
        <ele>48.2</ele>
        <time>2020-01-26T09:10:44Z</time>
      </trkpt>
      <trkpt lat="45.78054" lon="-1.2326">
        <ele>49</ele>
        <time>2020-01-26T09:10:45Z</time>
      </trkpt>
      <trkpt lat="45.78061" lon="-1.2326">
        <ele>49.4</ele>
        <time>2020-01-26T09:10:46Z</time>
      </trkpt>
      <trkpt lat="45.78067" lon="-1.2326">
        <ele>49.6</ele>
        <time>2020-01-26T09:10:47Z</time>
      </trkpt>
      <trkpt lat="45.78071" lon="-1.23257">
        <ele>49.4</ele>
        <time>2020-01-26T09:10:48Z</time>
      </trkpt>
      <trkpt lat="45.78077" lon="-1.23257">
        <ele>49.6</ele>
        <time>2020-01-26T09:10:49Z</time>
      </trkpt>
      <trkpt lat="45.78082" lon="-1.23256">
        <ele>49.6</ele>
        <time>2020-01-26T09:10:50Z</time>
      </trkpt>
      <trkpt lat="45.78087" lon="-1.23254">
        <ele>49.8</ele>
        <time>2020-01-26T09:10:51Z</time>
      </trkpt>
      <trkpt lat="45.78093" lon="-1.23252">
        <ele>50</ele>
        <time>2020-01-26T09:10:52Z</time>
      </trkpt>
      <trkpt lat="45.78098" lon="-1.2325">
        <ele>50.4</ele>
        <time>2020-01-26T09:10:53Z</time>
      </trkpt>
      <trkpt lat="45.78104" lon="-1.2325">
        <ele>50.8</ele>
        <time>2020-01-26T09:10:54Z</time>
      </trkpt>
      <trkpt lat="45.78109" lon="-1.23249">
        <ele>51</ele>
        <time>2020-01-26T09:10:55Z</time>
      </trkpt>
      <trkpt lat="45.78112" lon="-1.23246">
        <ele>51.4</ele>
        <time>2020-01-26T09:10:56Z</time>
      </trkpt>
      <trkpt lat="45.78117" lon="-1.23242">
        <ele>51.8</ele>
        <time>2020-01-26T09:10:57Z</time>
      </trkpt>
      <trkpt lat="45.78122" lon="-1.23239">
        <ele>52</ele>
        <time>2020-01-26T09:10:58Z</time>
      </trkpt>
      <trkpt lat="45.78126" lon="-1.23237">
        <ele>52</ele>
        <time>2020-01-26T09:10:59Z</time>
      </trkpt>
      <trkpt lat="45.78131" lon="-1.23235">
        <ele>52</ele>
        <time>2020-01-26T09:11:00Z</time>
      </trkpt>
      <trkpt lat="45.78136" lon="-1.23233">
        <ele>52</ele>
        <time>2020-01-26T09:11:01Z</time>
      </trkpt>
      <trkpt lat="45.78145" lon="-1.2323">
        <ele>51.4</ele>
        <time>2020-01-26T09:11:02Z</time>
      </trkpt>
      <trkpt lat="45.78153" lon="-1.23227">
        <ele>51.2</ele>
        <time>2020-01-26T09:11:03Z</time>
      </trkpt>
      <trkpt lat="45.78159" lon="-1.23225">
        <ele>51.2</ele>
        <time>2020-01-26T09:11:04Z</time>
      </trkpt>
      <trkpt lat="45.78165" lon="-1.23225">
        <ele>51.4</ele>
        <time>2020-01-26T09:11:05Z</time>
      </trkpt>
      <trkpt lat="45.78171" lon="-1.23224">
        <ele>51.6</ele>
        <time>2020-01-26T09:11:06Z</time>
      </trkpt>
      <trkpt lat="45.78176" lon="-1.23222">
        <ele>51.6</ele>
        <time>2020-01-26T09:11:07Z</time>
      </trkpt>
      <trkpt lat="45.78181" lon="-1.2322">
        <ele>52</ele>
        <time>2020-01-26T09:11:08Z</time>
      </trkpt>
      <trkpt lat="45.78187" lon="-1.23218">
        <ele>52</ele>
        <time>2020-01-26T09:11:09Z</time>
      </trkpt>
      <trkpt lat="45.78193" lon="-1.23215">
        <ele>52</ele>
        <time>2020-01-26T09:11:10Z</time>
      </trkpt>
      <trkpt lat="45.78198" lon="-1.23213">
        <ele>52</ele>
        <time>2020-01-26T09:11:11Z</time>
      </trkpt>
      <trkpt lat="45.78201" lon="-1.2321">
        <ele>52.2</ele>
        <time>2020-01-26T09:11:12Z</time>
      </trkpt>
      <trkpt lat="45.78204" lon="-1.23207">
        <ele>52.4</ele>
        <time>2020-01-26T09:11:13Z</time>
      </trkpt>
      <trkpt lat="45.7821" lon="-1.23204">
        <ele>52.8</ele>
        <time>2020-01-26T09:11:14Z</time>
      </trkpt>
      <trkpt lat="45.78216" lon="-1.23201">
        <ele>53.2</ele>
        <time>2020-01-26T09:11:15Z</time>
      </trkpt>
      <trkpt lat="45.78224" lon="-1.23198">
        <ele>53.6</ele>
        <time>2020-01-26T09:11:16Z</time>
      </trkpt>
      <trkpt lat="45.78229" lon="-1.23196">
        <ele>53.6</ele>
        <time>2020-01-26T09:11:17Z</time>
      </trkpt>
      <trkpt lat="45.78234" lon="-1.23192">
        <ele>53.8</ele>
        <time>2020-01-26T09:11:18Z</time>
      </trkpt>
      <trkpt lat="45.78239" lon="-1.23189">
        <ele>53.6</ele>
        <time>2020-01-26T09:11:19Z</time>
      </trkpt>
      <trkpt lat="45.78244" lon="-1.23186">
        <ele>53.4</ele>
        <time>2020-01-26T09:11:20Z</time>
      </trkpt>
      <trkpt lat="45.7825" lon="-1.23183">
        <ele>53</ele>
        <time>2020-01-26T09:11:21Z</time>
      </trkpt>
      <trkpt lat="45.78255" lon="-1.2318">
        <ele>52.8</ele>
        <time>2020-01-26T09:11:22Z</time>
      </trkpt>
      <trkpt lat="45.78262" lon="-1.23177">
        <ele>52.6</ele>
        <time>2020-01-26T09:11:23Z</time>
      </trkpt>
      <trkpt lat="45.78268" lon="-1.23174">
        <ele>52.2</ele>
        <time>2020-01-26T09:11:24Z</time>
      </trkpt>
      <trkpt lat="45.78273" lon="-1.23171">
        <ele>51.4</ele>
        <time>2020-01-26T09:11:25Z</time>
      </trkpt>
      <trkpt lat="45.78279" lon="-1.23169">
        <ele>51</ele>
        <time>2020-01-26T09:11:26Z</time>
      </trkpt>
      <trkpt lat="45.78284" lon="-1.23166">
        <ele>50.6</ele>
        <time>2020-01-26T09:11:27Z</time>
      </trkpt>
      <trkpt lat="45.78289" lon="-1.23162">
        <ele>50.4</ele>
        <time>2020-01-26T09:11:28Z</time>
      </trkpt>
      <trkpt lat="45.78294" lon="-1.23159">
        <ele>50.2</ele>
        <time>2020-01-26T09:11:29Z</time>
      </trkpt>
      <trkpt lat="45.78299" lon="-1.23155">
        <ele>50.2</ele>
        <time>2020-01-26T09:11:30Z</time>
      </trkpt>
      <trkpt lat="45.78304" lon="-1.23151">
        <ele>49.8</ele>
        <time>2020-01-26T09:11:31Z</time>
      </trkpt>
      <trkpt lat="45.7831" lon="-1.23147">
        <ele>49.6</ele>
        <time>2020-01-26T09:11:32Z</time>
      </trkpt>
      <trkpt lat="45.78315" lon="-1.23144">
        <ele>49.8</ele>
        <time>2020-01-26T09:11:33Z</time>
      </trkpt>
      <trkpt lat="45.7832" lon="-1.2314">
        <ele>50</ele>
        <time>2020-01-26T09:11:34Z</time>
      </trkpt>
      <trkpt lat="45.78326" lon="-1.23137">
        <ele>50.2</ele>
        <time>2020-01-26T09:11:35Z</time>
      </trkpt>
      <trkpt lat="45.78332" lon="-1.23134">
        <ele>50.4</ele>
        <time>2020-01-26T09:11:36Z</time>
      </trkpt>
      <trkpt lat="45.78338" lon="-1.23131">
        <ele>50.6</ele>
        <time>2020-01-26T09:11:37Z</time>
      </trkpt>
      <trkpt lat="45.78342" lon="-1.23129">
        <ele>50.4</ele>
        <time>2020-01-26T09:11:38Z</time>
      </trkpt>
      <trkpt lat="45.78348" lon="-1.23126">
        <ele>50</ele>
        <time>2020-01-26T09:11:39Z</time>
      </trkpt>
      <trkpt lat="45.78354" lon="-1.23124">
        <ele>49.8</ele>
        <time>2020-01-26T09:11:40Z</time>
      </trkpt>
      <trkpt lat="45.7836" lon="-1.23121">
        <ele>49.8</ele>
        <time>2020-01-26T09:11:41Z</time>
      </trkpt>
      <trkpt lat="45.78366" lon="-1.2312">
        <ele>49.8</ele>
        <time>2020-01-26T09:11:42Z</time>
      </trkpt>
      <trkpt lat="45.78373" lon="-1.23119">
        <ele>50</ele>
        <time>2020-01-26T09:11:43Z</time>
      </trkpt>
      <trkpt lat="45.78379" lon="-1.23114">
        <ele>50</ele>
        <time>2020-01-26T09:11:44Z</time>
      </trkpt>
      <trkpt lat="45.78385" lon="-1.23109">
        <ele>50</ele>
        <time>2020-01-26T09:11:45Z</time>
      </trkpt>
      <trkpt lat="45.78391" lon="-1.23105">
        <ele>50</ele>
        <time>2020-01-26T09:11:46Z</time>
      </trkpt>
      <trkpt lat="45.78393" lon="-1.23098">
        <ele>50.2</ele>
        <time>2020-01-26T09:11:47Z</time>
      </trkpt>
      <trkpt lat="45.78399" lon="-1.23096">
        <ele>50.4</ele>
        <time>2020-01-26T09:11:48Z</time>
      </trkpt>
      <trkpt lat="45.78405" lon="-1.23092">
        <ele>50.8</ele>
        <time>2020-01-26T09:11:49Z</time>
      </trkpt>
      <trkpt lat="45.7841" lon="-1.23086">
        <ele>51.2</ele>
        <time>2020-01-26T09:11:50Z</time>
      </trkpt>
      <trkpt lat="45.78413" lon="-1.23081">
        <ele>51</ele>
        <time>2020-01-26T09:11:51Z</time>
      </trkpt>
      <trkpt lat="45.78419" lon="-1.23077">
        <ele>50.8</ele>
        <time>2020-01-26T09:11:52Z</time>
      </trkpt>
      <trkpt lat="45.78426" lon="-1.23071">
        <ele>50.8</ele>
        <time>2020-01-26T09:11:53Z</time>
      </trkpt>
      <trkpt lat="45.78431" lon="-1.23067">
        <ele>50.8</ele>
        <time>2020-01-26T09:11:54Z</time>
      </trkpt>
      <trkpt lat="45.78439" lon="-1.23064">
        <ele>50.4</ele>
        <time>2020-01-26T09:11:55Z</time>
      </trkpt>
      <trkpt lat="45.78445" lon="-1.23059">
        <ele>50.4</ele>
        <time>2020-01-26T09:11:56Z</time>
      </trkpt>
      <trkpt lat="45.7845" lon="-1.23056">
        <ele>50.2</ele>
        <time>2020-01-26T09:11:57Z</time>
      </trkpt>
      <trkpt lat="45.78455" lon="-1.23053">
        <ele>50.4</ele>
        <time>2020-01-26T09:11:58Z</time>
      </trkpt>
      <trkpt lat="45.7846" lon="-1.23049">
        <ele>50.8</ele>
        <time>2020-01-26T09:11:59Z</time>
      </trkpt>
      <trkpt lat="45.78465" lon="-1.23046">
        <ele>51.6</ele>
        <time>2020-01-26T09:12:00Z</time>
      </trkpt>
      <trkpt lat="45.78471" lon="-1.23043">
        <ele>52.2</ele>
        <time>2020-01-26T09:12:01Z</time>
      </trkpt>
      <trkpt lat="45.78476" lon="-1.23037">
        <ele>52.8</ele>
        <time>2020-01-26T09:12:02Z</time>
      </trkpt>
      <trkpt lat="45.78481" lon="-1.23032">
        <ele>54.2</ele>
        <time>2020-01-26T09:12:03Z</time>
      </trkpt>
      <trkpt lat="45.78487" lon="-1.23029">
        <ele>55.4</ele>
        <time>2020-01-26T09:12:04Z</time>
      </trkpt>
      <trkpt lat="45.78493" lon="-1.23028">
        <ele>56.2</ele>
        <time>2020-01-26T09:12:05Z</time>
      </trkpt>
      <trkpt lat="45.78499" lon="-1.23025">
        <ele>57</ele>
        <time>2020-01-26T09:12:06Z</time>
      </trkpt>
      <trkpt lat="45.78505" lon="-1.23023">
        <ele>57.4</ele>
        <time>2020-01-26T09:12:07Z</time>
      </trkpt>
      <trkpt lat="45.78511" lon="-1.23022">
        <ele>58.2</ele>
        <time>2020-01-26T09:12:08Z</time>
      </trkpt>
      <trkpt lat="45.78518" lon="-1.23021">
        <ele>58.6</ele>
        <time>2020-01-26T09:12:09Z</time>
      </trkpt>
      <trkpt lat="45.78522" lon="-1.23017">
        <ele>59</ele>
        <time>2020-01-26T09:12:10Z</time>
      </trkpt>
      <trkpt lat="45.78528" lon="-1.23016">
        <ele>59.4</ele>
        <time>2020-01-26T09:12:11Z</time>
      </trkpt>
      <trkpt lat="45.78532" lon="-1.23012">
        <ele>59.6</ele>
        <time>2020-01-26T09:12:12Z</time>
      </trkpt>
      <trkpt lat="45.78538" lon="-1.23009">
        <ele>59.4</ele>
        <time>2020-01-26T09:12:13Z</time>
      </trkpt>
      <trkpt lat="45.78544" lon="-1.23008">
        <ele>59.2</ele>
        <time>2020-01-26T09:12:14Z</time>
      </trkpt>
      <trkpt lat="45.78551" lon="-1.23007">
        <ele>59</ele>
        <time>2020-01-26T09:12:15Z</time>
      </trkpt>
      <trkpt lat="45.78558" lon="-1.23005">
        <ele>58.8</ele>
        <time>2020-01-26T09:12:16Z</time>
      </trkpt>
      <trkpt lat="45.78565" lon="-1.23003">
        <ele>58.6</ele>
        <time>2020-01-26T09:12:17Z</time>
      </trkpt>
      <trkpt lat="45.78571" lon="-1.23001">
        <ele>58.4</ele>
        <time>2020-01-26T09:12:18Z</time>
      </trkpt>
      <trkpt lat="45.78579" lon="-1.23001">
        <ele>57.8</ele>
        <time>2020-01-26T09:12:19Z</time>
      </trkpt>
      <trkpt lat="45.78586" lon="-1.22998">
        <ele>57.4</ele>
        <time>2020-01-26T09:12:20Z</time>
      </trkpt>
      <trkpt lat="45.78592" lon="-1.22995">
        <ele>57</ele>
        <time>2020-01-26T09:12:21Z</time>
      </trkpt>
      <trkpt lat="45.78599" lon="-1.22993">
        <ele>56.8</ele>
        <time>2020-01-26T09:12:22Z</time>
      </trkpt>
      <trkpt lat="45.78604" lon="-1.22988">
        <ele>56.8</ele>
        <time>2020-01-26T09:12:23Z</time>
      </trkpt>
      <trkpt lat="45.78611" lon="-1.22988">
        <ele>56.4</ele>
        <time>2020-01-26T09:12:24Z</time>
      </trkpt>
      <trkpt lat="45.78616" lon="-1.22983">
        <ele>55.2</ele>
        <time>2020-01-26T09:12:25Z</time>
      </trkpt>
      <trkpt lat="45.78621" lon="-1.22979">
        <ele>54.4</ele>
        <time>2020-01-26T09:12:26Z</time>
      </trkpt>
      <trkpt lat="45.78625" lon="-1.22975">
        <ele>53.8</ele>
        <time>2020-01-26T09:12:27Z</time>
      </trkpt>
      <trkpt lat="45.78629" lon="-1.22971">
        <ele>53.2</ele>
        <time>2020-01-26T09:12:28Z</time>
      </trkpt>
      <trkpt lat="45.78635" lon="-1.22966">
        <ele>52.8</ele>
        <time>2020-01-26T09:12:29Z</time>
      </trkpt>
      <trkpt lat="45.78641" lon="-1.22962">
        <ele>52.4</ele>
        <time>2020-01-26T09:12:30Z</time>
      </trkpt>
      <trkpt lat="45.78647" lon="-1.22958">
        <ele>52.2</ele>
        <time>2020-01-26T09:12:31Z</time>
      </trkpt>
      <trkpt lat="45.78653" lon="-1.22955">
        <ele>51.6</ele>
        <time>2020-01-26T09:12:32Z</time>
      </trkpt>
      <trkpt lat="45.78658" lon="-1.22948">
        <ele>51.2</ele>
        <time>2020-01-26T09:12:33Z</time>
      </trkpt>
      <trkpt lat="45.78662" lon="-1.22943">
        <ele>50.6</ele>
        <time>2020-01-26T09:12:34Z</time>
      </trkpt>
      <trkpt lat="45.78666" lon="-1.22937">
        <ele>50</ele>
        <time>2020-01-26T09:12:35Z</time>
      </trkpt>
      <trkpt lat="45.78669" lon="-1.22929">
        <ele>49.8</ele>
        <time>2020-01-26T09:12:36Z</time>
      </trkpt>
      <trkpt lat="45.78671" lon="-1.22922">
        <ele>49.4</ele>
        <time>2020-01-26T09:12:37Z</time>
      </trkpt>
      <trkpt lat="45.78672" lon="-1.22914">
        <ele>49.2</ele>
        <time>2020-01-26T09:12:38Z</time>
      </trkpt>
      <trkpt lat="45.78672" lon="-1.22907">
        <ele>49.4</ele>
        <time>2020-01-26T09:12:39Z</time>
      </trkpt>
      <trkpt lat="45.78673" lon="-1.22899">
        <ele>49.6</ele>
        <time>2020-01-26T09:12:40Z</time>
      </trkpt>
      <trkpt lat="45.78672" lon="-1.2289">
        <ele>49.6</ele>
        <time>2020-01-26T09:12:41Z</time>
      </trkpt>
      <trkpt lat="45.78676" lon="-1.22886">
        <ele>49.6</ele>
        <time>2020-01-26T09:12:42Z</time>
      </trkpt>
      <trkpt lat="45.78679" lon="-1.22878">
        <ele>49.6</ele>
        <time>2020-01-26T09:12:43Z</time>
      </trkpt>
      <trkpt lat="45.7868" lon="-1.2287">
        <ele>49.8</ele>
        <time>2020-01-26T09:12:44Z</time>
      </trkpt>
      <trkpt lat="45.7868" lon="-1.22862">
        <ele>49.6</ele>
        <time>2020-01-26T09:12:45Z</time>
      </trkpt>
      <trkpt lat="45.78682" lon="-1.22854">
        <ele>49.6</ele>
        <time>2020-01-26T09:12:46Z</time>
      </trkpt>
      <trkpt lat="45.78682" lon="-1.22846">
        <ele>49.8</ele>
        <time>2020-01-26T09:12:47Z</time>
      </trkpt>
      <trkpt lat="45.78683" lon="-1.22838">
        <ele>50</ele>
        <time>2020-01-26T09:12:48Z</time>
      </trkpt>
      <trkpt lat="45.78682" lon="-1.2283">
        <ele>50.4</ele>
        <time>2020-01-26T09:12:49Z</time>
      </trkpt>
      <trkpt lat="45.78683" lon="-1.22823">
        <ele>50.4</ele>
        <time>2020-01-26T09:12:50Z</time>
      </trkpt>
      <trkpt lat="45.78684" lon="-1.22817">
        <ele>50.4</ele>
        <time>2020-01-26T09:12:51Z</time>
      </trkpt>
      <trkpt lat="45.78685" lon="-1.2281">
        <ele>50</ele>
        <time>2020-01-26T09:12:52Z</time>
      </trkpt>
      <trkpt lat="45.78686" lon="-1.22802">
        <ele>49.8</ele>
        <time>2020-01-26T09:12:53Z</time>
      </trkpt>
      <trkpt lat="45.78687" lon="-1.22795">
        <ele>49.6</ele>
        <time>2020-01-26T09:12:54Z</time>
      </trkpt>
      <trkpt lat="45.78687" lon="-1.22791">
        <ele>49.2</ele>
        <time>2020-01-26T09:12:55Z</time>
      </trkpt>
      <trkpt lat="45.78686" lon="-1.2278">
        <ele>49.6</ele>
        <time>2020-01-26T09:12:56Z</time>
      </trkpt>
      <trkpt lat="45.78687" lon="-1.22772">
        <ele>50.2</ele>
        <time>2020-01-26T09:12:57Z</time>
      </trkpt>
      <trkpt lat="45.78687" lon="-1.22767">
        <ele>50.4</ele>
        <time>2020-01-26T09:12:58Z</time>
      </trkpt>
      <trkpt lat="45.78687" lon="-1.22761">
        <ele>50.8</ele>
        <time>2020-01-26T09:12:59Z</time>
      </trkpt>
      <trkpt lat="45.78687" lon="-1.22755">
        <ele>50.8</ele>
        <time>2020-01-26T09:13:00Z</time>
      </trkpt>
      <trkpt lat="45.78687" lon="-1.22749">
        <ele>51</ele>
        <time>2020-01-26T09:13:01Z</time>
      </trkpt>
      <trkpt lat="45.78689" lon="-1.22742">
        <ele>51.2</ele>
        <time>2020-01-26T09:13:02Z</time>
      </trkpt>
      <trkpt lat="45.78691" lon="-1.22735">
        <ele>51.4</ele>
        <time>2020-01-26T09:13:03Z</time>
      </trkpt>
      <trkpt lat="45.78691" lon="-1.22727">
        <ele>51.6</ele>
        <time>2020-01-26T09:13:04Z</time>
      </trkpt>
      <trkpt lat="45.78692" lon="-1.22721">
        <ele>51.6</ele>
        <time>2020-01-26T09:13:05Z</time>
      </trkpt>
      <trkpt lat="45.78693" lon="-1.22716">
        <ele>51.8</ele>
        <time>2020-01-26T09:13:06Z</time>
      </trkpt>
      <trkpt lat="45.78694" lon="-1.2271">
        <ele>51.8</ele>
        <time>2020-01-26T09:13:07Z</time>
      </trkpt>
      <trkpt lat="45.78695" lon="-1.22705">
        <ele>52.2</ele>
        <time>2020-01-26T09:13:08Z</time>
      </trkpt>
      <trkpt lat="45.78694" lon="-1.22699">
        <ele>52.6</ele>
        <time>2020-01-26T09:13:09Z</time>
      </trkpt>
      <trkpt lat="45.78695" lon="-1.22693">
        <ele>53.2</ele>
        <time>2020-01-26T09:13:10Z</time>
      </trkpt>
      <trkpt lat="45.78695" lon="-1.22689">
        <ele>53.6</ele>
        <time>2020-01-26T09:13:11Z</time>
      </trkpt>
      <trkpt lat="45.78696" lon="-1.22685">
        <ele>54.2</ele>
        <time>2020-01-26T09:13:12Z</time>
      </trkpt>
      <trkpt lat="45.78697" lon="-1.22681">
        <ele>55</ele>
        <time>2020-01-26T09:13:13Z</time>
      </trkpt>
      <trkpt lat="45.78695" lon="-1.22678">
        <ele>55.2</ele>
        <time>2020-01-26T09:13:14Z</time>
      </trkpt>
      <trkpt lat="45.78694" lon="-1.22672">
        <ele>54.8</ele>
        <time>2020-01-26T09:13:15Z</time>
      </trkpt>
      <trkpt lat="45.78696" lon="-1.22665">
        <ele>54.8</ele>
        <time>2020-01-26T09:13:16Z</time>
      </trkpt>
      <trkpt lat="45.78696" lon="-1.2266">
        <ele>54.6</ele>
        <time>2020-01-26T09:13:17Z</time>
      </trkpt>
      <trkpt lat="45.78698" lon="-1.22655">
        <ele>54.8</ele>
        <time>2020-01-26T09:13:18Z</time>
      </trkpt>
      <trkpt lat="45.78699" lon="-1.22649">
        <ele>54.8</ele>
        <time>2020-01-26T09:13:19Z</time>
      </trkpt>
      <trkpt lat="45.78701" lon="-1.22645">
        <ele>55.2</ele>
        <time>2020-01-26T09:13:20Z</time>
      </trkpt>
      <trkpt lat="45.78704" lon="-1.22643">
        <ele>55.4</ele>
        <time>2020-01-26T09:13:21Z</time>
      </trkpt>
      <trkpt lat="45.78707" lon="-1.22642">
        <ele>56</ele>
        <time>2020-01-26T09:13:22Z</time>
      </trkpt>
      <trkpt lat="45.78709" lon="-1.22641">
        <ele>56.8</ele>
        <time>2020-01-26T09:13:23Z</time>
      </trkpt>
      <trkpt lat="45.78713" lon="-1.22642">
        <ele>57.4</ele>
        <time>2020-01-26T09:13:24Z</time>
      </trkpt>
      <trkpt lat="45.78716" lon="-1.22642">
        <ele>57.8</ele>
        <time>2020-01-26T09:13:25Z</time>
      </trkpt>
      <trkpt lat="45.78719" lon="-1.22643">
        <ele>57.8</ele>
        <time>2020-01-26T09:13:26Z</time>
      </trkpt>
      <trkpt lat="45.78724" lon="-1.22643">
        <ele>58.6</ele>
        <time>2020-01-26T09:13:27Z</time>
      </trkpt>
      <trkpt lat="45.78728" lon="-1.22643">
        <ele>59.2</ele>
        <time>2020-01-26T09:13:28Z</time>
      </trkpt>
      <trkpt lat="45.78732" lon="-1.22643">
        <ele>59.4</ele>
        <time>2020-01-26T09:13:29Z</time>
      </trkpt>
      <trkpt lat="45.78736" lon="-1.22643">
        <ele>59.4</ele>
        <time>2020-01-26T09:13:30Z</time>
      </trkpt>
      <trkpt lat="45.78739" lon="-1.22643">
        <ele>59.4</ele>
        <time>2020-01-26T09:13:31Z</time>
      </trkpt>
      <trkpt lat="45.78741" lon="-1.22643">
        <ele>59.4</ele>
        <time>2020-01-26T09:13:32Z</time>
      </trkpt>
      <trkpt lat="45.78743" lon="-1.22644">
        <ele>59.6</ele>
        <time>2020-01-26T09:13:33Z</time>
      </trkpt>
      <trkpt lat="45.78748" lon="-1.22645">
        <ele>59.6</ele>
        <time>2020-01-26T09:13:34Z</time>
      </trkpt>
      <trkpt lat="45.78756" lon="-1.22646">
        <ele>59.4</ele>
        <time>2020-01-26T09:13:35Z</time>
      </trkpt>
      <trkpt lat="45.7876" lon="-1.22647">
        <ele>59.4</ele>
        <time>2020-01-26T09:13:36Z</time>
      </trkpt>
      <trkpt lat="45.78764" lon="-1.22648">
        <ele>59</ele>
        <time>2020-01-26T09:13:37Z</time>
      </trkpt>
      <trkpt lat="45.78767" lon="-1.22647">
        <ele>59</ele>
        <time>2020-01-26T09:13:38Z</time>
      </trkpt>
      <trkpt lat="45.7877" lon="-1.22649">
        <ele>59</ele>
        <time>2020-01-26T09:13:39Z</time>
      </trkpt>
      <trkpt lat="45.78773" lon="-1.2265">
        <ele>59.2</ele>
        <time>2020-01-26T09:13:40Z</time>
      </trkpt>
      <trkpt lat="45.78777" lon="-1.22652">
        <ele>59.4</ele>
        <time>2020-01-26T09:13:41Z</time>
      </trkpt>
      <trkpt lat="45.7878" lon="-1.22653">
        <ele>59.4</ele>
        <time>2020-01-26T09:13:42Z</time>
      </trkpt>
      <trkpt lat="45.78783" lon="-1.22651">
        <ele>59.8</ele>
        <time>2020-01-26T09:13:43Z</time>
      </trkpt>
      <trkpt lat="45.78786" lon="-1.22648">
        <ele>60</ele>
        <time>2020-01-26T09:13:44Z</time>
      </trkpt>
      <trkpt lat="45.78788" lon="-1.22645">
        <ele>60.4</ele>
        <time>2020-01-26T09:13:45Z</time>
      </trkpt>
      <trkpt lat="45.7879" lon="-1.2264">
        <ele>60.4</ele>
        <time>2020-01-26T09:13:46Z</time>
      </trkpt>
      <trkpt lat="45.78791" lon="-1.22635">
        <ele>60.6</ele>
        <time>2020-01-26T09:13:47Z</time>
      </trkpt>
      <trkpt lat="45.78791" lon="-1.22631">
        <ele>60.2</ele>
        <time>2020-01-26T09:13:48Z</time>
      </trkpt>
      <trkpt lat="45.78792" lon="-1.22627">
        <ele>59.8</ele>
        <time>2020-01-26T09:13:49Z</time>
      </trkpt>
      <trkpt lat="45.78791" lon="-1.22622">
        <ele>59.6</ele>
        <time>2020-01-26T09:13:50Z</time>
      </trkpt>
      <trkpt lat="45.7879" lon="-1.22618">
        <ele>59.2</ele>
        <time>2020-01-26T09:13:51Z</time>
      </trkpt>
      <trkpt lat="45.78791" lon="-1.22613">
        <ele>59</ele>
        <time>2020-01-26T09:13:52Z</time>
      </trkpt>
      <trkpt lat="45.78793" lon="-1.22609">
        <ele>58.6</ele>
        <time>2020-01-26T09:13:53Z</time>
      </trkpt>
      <trkpt lat="45.78794" lon="-1.22604">
        <ele>58.6</ele>
        <time>2020-01-26T09:13:54Z</time>
      </trkpt>
      <trkpt lat="45.78795" lon="-1.22599">
        <ele>58.4</ele>
        <time>2020-01-26T09:13:55Z</time>
      </trkpt>
      <trkpt lat="45.78796" lon="-1.22594">
        <ele>58.4</ele>
        <time>2020-01-26T09:13:56Z</time>
      </trkpt>
      <trkpt lat="45.78797" lon="-1.22589">
        <ele>58.4</ele>
        <time>2020-01-26T09:13:57Z</time>
      </trkpt>
      <trkpt lat="45.78797" lon="-1.22583">
        <ele>58.4</ele>
        <time>2020-01-26T09:13:58Z</time>
      </trkpt>
      <trkpt lat="45.78798" lon="-1.22578">
        <ele>58.6</ele>
        <time>2020-01-26T09:13:59Z</time>
      </trkpt>
      <trkpt lat="45.788" lon="-1.22572">
        <ele>58.6</ele>
        <time>2020-01-26T09:14:00Z</time>
      </trkpt>
      <trkpt lat="45.78801" lon="-1.22566">
        <ele>58.8</ele>
        <time>2020-01-26T09:14:01Z</time>
      </trkpt>
      <trkpt lat="45.78802" lon="-1.22561">
        <ele>58.8</ele>
        <time>2020-01-26T09:14:02Z</time>
      </trkpt>
      <trkpt lat="45.78803" lon="-1.22556">
        <ele>58.8</ele>
        <time>2020-01-26T09:14:03Z</time>
      </trkpt>
      <trkpt lat="45.78805" lon="-1.22551">
        <ele>58.8</ele>
        <time>2020-01-26T09:14:04Z</time>
      </trkpt>
      <trkpt lat="45.78806" lon="-1.22547">
        <ele>59</ele>
        <time>2020-01-26T09:14:05Z</time>
      </trkpt>
      <trkpt lat="45.78808" lon="-1.22542">
        <ele>59</ele>
        <time>2020-01-26T09:14:06Z</time>
      </trkpt>
      <trkpt lat="45.78809" lon="-1.22537">
        <ele>59</ele>
        <time>2020-01-26T09:14:07Z</time>
      </trkpt>
      <trkpt lat="45.78809" lon="-1.22532">
        <ele>59</ele>
        <time>2020-01-26T09:14:08Z</time>
      </trkpt>
      <trkpt lat="45.78809" lon="-1.22528">
        <ele>59.2</ele>
        <time>2020-01-26T09:14:09Z</time>
      </trkpt>
      <trkpt lat="45.78809" lon="-1.22525">
        <ele>59.2</ele>
        <time>2020-01-26T09:14:10Z</time>
      </trkpt>
      <trkpt lat="45.78808" lon="-1.22523">
        <ele>59.4</ele>
        <time>2020-01-26T09:14:11Z</time>
      </trkpt>
      <trkpt lat="45.78807" lon="-1.22521">
        <ele>59.6</ele>
        <time>2020-01-26T09:14:12Z</time>
      </trkpt>
      <trkpt lat="45.78807" lon="-1.2252">
        <ele>59.6</ele>
        <time>2020-01-26T09:14:13Z</time>
      </trkpt>
      <trkpt lat="45.78806" lon="-1.22517">
        <ele>60</ele>
        <time>2020-01-26T09:14:14Z</time>
      </trkpt>
      <trkpt lat="45.78806" lon="-1.22515">
        <ele>60</ele>
        <time>2020-01-26T09:14:15Z</time>
      </trkpt>
      <trkpt lat="45.78805" lon="-1.22513">
        <ele>60</ele>
        <time>2020-01-26T09:14:16Z</time>
      </trkpt>
      <trkpt lat="45.78804" lon="-1.22511">
        <ele>60.2</ele>
        <time>2020-01-26T09:14:17Z</time>
      </trkpt>
      <trkpt lat="45.78802" lon="-1.22512">
        <ele>60</ele>
        <time>2020-01-26T09:14:18Z</time>
      </trkpt>
      <trkpt lat="45.788" lon="-1.22512">
        <ele>59.6</ele>
        <time>2020-01-26T09:14:19Z</time>
      </trkpt>
      <trkpt lat="45.78799" lon="-1.22515">
        <ele>59.6</ele>
        <time>2020-01-26T09:14:20Z</time>
      </trkpt>
      <trkpt lat="45.78798" lon="-1.22518">
        <ele>59.4</ele>
        <time>2020-01-26T09:14:21Z</time>
      </trkpt>
      <trkpt lat="45.78796" lon="-1.2252">
        <ele>59.4</ele>
        <time>2020-01-26T09:14:22Z</time>
      </trkpt>
      <trkpt lat="45.78794" lon="-1.22521">
        <ele>59.4</ele>
        <time>2020-01-26T09:14:23Z</time>
      </trkpt>
      <trkpt lat="45.78792" lon="-1.22521">
        <ele>59.6</ele>
        <time>2020-01-26T09:14:24Z</time>
      </trkpt>
      <trkpt lat="45.7879" lon="-1.2252">
        <ele>59.8</ele>
        <time>2020-01-26T09:14:25Z</time>
      </trkpt>
      <trkpt lat="45.78789" lon="-1.2252">
        <ele>59.8</ele>
        <time>2020-01-26T09:14:26Z</time>
      </trkpt>
      <trkpt lat="45.78788" lon="-1.22518">
        <ele>60</ele>
        <time>2020-01-26T09:14:27Z</time>
      </trkpt>
      <trkpt lat="45.78789" lon="-1.22516">
        <ele>60</ele>
        <time>2020-01-26T09:14:28Z</time>
      </trkpt>
      <trkpt lat="45.7879" lon="-1.22514">
        <ele>60</ele>
        <time>2020-01-26T09:14:29Z</time>
      </trkpt>
      <trkpt lat="45.78791" lon="-1.22512">
        <ele>59.8</ele>
        <time>2020-01-26T09:14:30Z</time>
      </trkpt>
      <trkpt lat="45.78791" lon="-1.2251">
        <ele>60</ele>
        <time>2020-01-26T09:14:31Z</time>
      </trkpt>
      <trkpt lat="45.78791" lon="-1.22509">
        <ele>60.6</ele>
        <time>2020-01-26T09:14:32Z</time>
      </trkpt>
      <trkpt lat="45.78791" lon="-1.22507">
        <ele>61.4</ele>
        <time>2020-01-26T09:14:33Z</time>
      </trkpt>
      <trkpt lat="45.78791" lon="-1.22506">
        <ele>62</ele>
        <time>2020-01-26T09:14:34Z</time>
      </trkpt>
      <trkpt lat="45.78791" lon="-1.22504">
        <ele>62.4</ele>
        <time>2020-01-26T09:14:35Z</time>
      </trkpt>
      <trkpt lat="45.78792" lon="-1.22502">
        <ele>62.8</ele>
        <time>2020-01-26T09:14:36Z</time>
      </trkpt>
      <trkpt lat="45.78793" lon="-1.225">
        <ele>63.4</ele>
        <time>2020-01-26T09:14:37Z</time>
      </trkpt>
      <trkpt lat="45.78794" lon="-1.22498">
        <ele>63.8</ele>
        <time>2020-01-26T09:14:38Z</time>
      </trkpt>
      <trkpt lat="45.78795" lon="-1.22497">
        <ele>64.2</ele>
        <time>2020-01-26T09:14:39Z</time>
      </trkpt>
      <trkpt lat="45.78796" lon="-1.22496">
        <ele>64.6</ele>
        <time>2020-01-26T09:14:40Z</time>
      </trkpt>
      <trkpt lat="45.78798" lon="-1.22496">
        <ele>65</ele>
        <time>2020-01-26T09:14:41Z</time>
      </trkpt>
      <trkpt lat="45.78799" lon="-1.22494">
        <ele>65.2</ele>
        <time>2020-01-26T09:14:42Z</time>
      </trkpt>
      <trkpt lat="45.78799" lon="-1.22493">
        <ele>65.4</ele>
        <time>2020-01-26T09:14:43Z</time>
      </trkpt>
      <trkpt lat="45.788" lon="-1.22491">
        <ele>65.6</ele>
        <time>2020-01-26T09:14:44Z</time>
      </trkpt>
      <trkpt lat="45.78801" lon="-1.2249">
        <ele>65.6</ele>
        <time>2020-01-26T09:14:45Z</time>
      </trkpt>
      <trkpt lat="45.78802" lon="-1.22489">
        <ele>65.4</ele>
        <time>2020-01-26T09:14:46Z</time>
      </trkpt>
      <trkpt lat="45.78802" lon="-1.22489">
        <ele>65.4</ele>
        <time>2020-01-26T09:14:47Z</time>
      </trkpt>
      <trkpt lat="45.78804" lon="-1.22488">
        <ele>65.2</ele>
        <time>2020-01-26T09:14:48Z</time>
      </trkpt>
      <trkpt lat="45.78804" lon="-1.22488">
        <ele>65.2</ele>
        <time>2020-01-26T09:14:49Z</time>
      </trkpt>
      <trkpt lat="45.78805" lon="-1.22487">
        <ele>65.2</ele>
        <time>2020-01-26T09:14:50Z</time>
      </trkpt>
      <trkpt lat="45.78806" lon="-1.22486">
        <ele>65.2</ele>
        <time>2020-01-26T09:14:51Z</time>
      </trkpt>
      <trkpt lat="45.78806" lon="-1.22485">
        <ele>65</ele>
        <time>2020-01-26T09:14:52Z</time>
      </trkpt>
      <trkpt lat="45.78807" lon="-1.22484">
        <ele>65</ele>
        <time>2020-01-26T09:14:53Z</time>
      </trkpt>
      <trkpt lat="45.78807" lon="-1.22482">
        <ele>65</ele>
        <time>2020-01-26T09:14:54Z</time>
      </trkpt>
      <trkpt lat="45.78806" lon="-1.22483">
        <ele>65</ele>
        <time>2020-01-26T09:14:55Z</time>
      </trkpt>
      <trkpt lat="45.78806" lon="-1.22482">
        <ele>65</ele>
        <time>2020-01-26T09:14:56Z</time>
      </trkpt>
      <trkpt lat="45.78806" lon="-1.22481">
        <ele>65.2</ele>
        <time>2020-01-26T09:14:57Z</time>
      </trkpt>
      <trkpt lat="45.78806" lon="-1.22482">
        <ele>65.4</ele>
        <time>2020-01-26T09:14:58Z</time>
      </trkpt>
      <trkpt lat="45.78805" lon="-1.22483">
        <ele>65.6</ele>
        <time>2020-01-26T09:14:59Z</time>
      </trkpt>
      <trkpt lat="45.78805" lon="-1.22484">
        <ele>65.6</ele>
        <time>2020-01-26T09:15:00Z</time>
      </trkpt>
      <trkpt lat="45.78804" lon="-1.22485">
        <ele>65.8</ele>
        <time>2020-01-26T09:15:01Z</time>
      </trkpt>
      <trkpt lat="45.78803" lon="-1.22485">
        <ele>65.8</ele>
        <time>2020-01-26T09:15:02Z</time>
      </trkpt>
      <trkpt lat="45.78803" lon="-1.22486">
        <ele>65.8</ele>
        <time>2020-01-26T09:15:03Z</time>
      </trkpt>
      <trkpt lat="45.78803" lon="-1.22486">
        <ele>66.2</ele>
        <time>2020-01-26T09:15:04Z</time>
      </trkpt>
      <trkpt lat="45.78802" lon="-1.22486">
        <ele>66.2</ele>
        <time>2020-01-26T09:15:05Z</time>
      </trkpt>
      <trkpt lat="45.78802" lon="-1.22486">
        <ele>66.4</ele>
        <time>2020-01-26T09:15:06Z</time>
      </trkpt>
      <trkpt lat="45.78801" lon="-1.22486">
        <ele>66.6</ele>
        <time>2020-01-26T09:15:07Z</time>
      </trkpt>
      <trkpt lat="45.78799" lon="-1.22486">
        <ele>66.6</ele>
        <time>2020-01-26T09:15:08Z</time>
      </trkpt>
      <trkpt lat="45.78798" lon="-1.22486">
        <ele>66.8</ele>
        <time>2020-01-26T09:15:09Z</time>
      </trkpt>
      <trkpt lat="45.78796" lon="-1.22487">
        <ele>66.8</ele>
        <time>2020-01-26T09:15:10Z</time>
      </trkpt>
      <trkpt lat="45.78796" lon="-1.22488">
        <ele>66.8</ele>
        <time>2020-01-26T09:15:11Z</time>
      </trkpt>
      <trkpt lat="45.78794" lon="-1.22488">
        <ele>66.8</ele>
        <time>2020-01-26T09:15:12Z</time>
      </trkpt>
      <trkpt lat="45.78793" lon="-1.22488">
        <ele>67</ele>
        <time>2020-01-26T09:15:13Z</time>
      </trkpt>
      <trkpt lat="45.78792" lon="-1.22488">
        <ele>67</ele>
        <time>2020-01-26T09:15:14Z</time>
      </trkpt>
      <trkpt lat="45.78791" lon="-1.22488">
        <ele>67</ele>
        <time>2020-01-26T09:15:15Z</time>
      </trkpt>
      <trkpt lat="45.7879" lon="-1.22488">
        <ele>67</ele>
        <time>2020-01-26T09:15:16Z</time>
      </trkpt>
      <trkpt lat="45.78788" lon="-1.22488">
        <ele>67</ele>
        <time>2020-01-26T09:15:17Z</time>
      </trkpt>
      <trkpt lat="45.78787" lon="-1.22488">
        <ele>67</ele>
        <time>2020-01-26T09:15:18Z</time>
      </trkpt>
      <trkpt lat="45.78785" lon="-1.22489">
        <ele>67.2</ele>
        <time>2020-01-26T09:15:19Z</time>
      </trkpt>
      <trkpt lat="45.78784" lon="-1.22489">
        <ele>67.4</ele>
        <time>2020-01-26T09:15:20Z</time>
      </trkpt>
      <trkpt lat="45.78782" lon="-1.22489">
        <ele>67.4</ele>
        <time>2020-01-26T09:15:21Z</time>
      </trkpt>
      <trkpt lat="45.7878" lon="-1.2249">
        <ele>67.6</ele>
        <time>2020-01-26T09:15:22Z</time>
      </trkpt>
      <trkpt lat="45.78779" lon="-1.22492">
        <ele>67.8</ele>
        <time>2020-01-26T09:15:23Z</time>
      </trkpt>
      <trkpt lat="45.78777" lon="-1.22492">
        <ele>68</ele>
        <time>2020-01-26T09:15:24Z</time>
      </trkpt>
      <trkpt lat="45.78774" lon="-1.22493">
        <ele>68</ele>
        <time>2020-01-26T09:15:25Z</time>
      </trkpt>
      <trkpt lat="45.78772" lon="-1.22494">
        <ele>68.2</ele>
        <time>2020-01-26T09:15:26Z</time>
      </trkpt>
      <trkpt lat="45.78769" lon="-1.22495">
        <ele>68.4</ele>
        <time>2020-01-26T09:15:27Z</time>
      </trkpt>
      <trkpt lat="45.78767" lon="-1.22496">
        <ele>68.6</ele>
        <time>2020-01-26T09:15:28Z</time>
      </trkpt>
      <trkpt lat="45.78765" lon="-1.22497">
        <ele>68.6</ele>
        <time>2020-01-26T09:15:29Z</time>
      </trkpt>
      <trkpt lat="45.78761" lon="-1.22499">
        <ele>68.8</ele>
        <time>2020-01-26T09:15:30Z</time>
      </trkpt>
      <trkpt lat="45.78758" lon="-1.22499">
        <ele>69</ele>
        <time>2020-01-26T09:15:31Z</time>
      </trkpt>
      <trkpt lat="45.78755" lon="-1.225">
        <ele>69.6</ele>
        <time>2020-01-26T09:15:32Z</time>
      </trkpt>
      <trkpt lat="45.78752" lon="-1.225">
        <ele>70</ele>
        <time>2020-01-26T09:15:33Z</time>
      </trkpt>
      <trkpt lat="45.78749" lon="-1.225">
        <ele>70.2</ele>
        <time>2020-01-26T09:15:34Z</time>
      </trkpt>
      <trkpt lat="45.78746" lon="-1.225">
        <ele>70.4</ele>
        <time>2020-01-26T09:15:35Z</time>
      </trkpt>
      <trkpt lat="45.78743" lon="-1.22501">
        <ele>70.8</ele>
        <time>2020-01-26T09:15:36Z</time>
      </trkpt>
      <trkpt lat="45.7874" lon="-1.22502">
        <ele>71.2</ele>
        <time>2020-01-26T09:15:37Z</time>
      </trkpt>
      <trkpt lat="45.78737" lon="-1.22501">
        <ele>71.4</ele>
        <time>2020-01-26T09:15:38Z</time>
      </trkpt>
      <trkpt lat="45.78734" lon="-1.22499">
        <ele>71.4</ele>
        <time>2020-01-26T09:15:39Z</time>
      </trkpt>
      <trkpt lat="45.78731" lon="-1.22499">
        <ele>71.6</ele>
        <time>2020-01-26T09:15:40Z</time>
      </trkpt>
      <trkpt lat="45.78728" lon="-1.22498">
        <ele>71.6</ele>
        <time>2020-01-26T09:15:41Z</time>
      </trkpt>
      <trkpt lat="45.78726" lon="-1.22498">
        <ele>71.6</ele>
        <time>2020-01-26T09:15:42Z</time>
      </trkpt>
      <trkpt lat="45.78724" lon="-1.22497">
        <ele>71.4</ele>
        <time>2020-01-26T09:15:43Z</time>
      </trkpt>
      <trkpt lat="45.7872" lon="-1.22497">
        <ele>71.2</ele>
        <time>2020-01-26T09:15:44Z</time>
      </trkpt>
      <trkpt lat="45.78713" lon="-1.22497">
        <ele>71.2</ele>
        <time>2020-01-26T09:15:45Z</time>
      </trkpt>
      <trkpt lat="45.78707" lon="-1.22497">
        <ele>71.2</ele>
        <time>2020-01-26T09:15:46Z</time>
      </trkpt>
      <trkpt lat="45.78701" lon="-1.22496">
        <ele>71.2</ele>
        <time>2020-01-26T09:15:47Z</time>
      </trkpt>
      <trkpt lat="45.78694" lon="-1.22493">
        <ele>71.2</ele>
        <time>2020-01-26T09:15:48Z</time>
      </trkpt>
      <trkpt lat="45.78687" lon="-1.22489">
        <ele>71.4</ele>
        <time>2020-01-26T09:15:49Z</time>
      </trkpt>
      <trkpt lat="45.78681" lon="-1.22488">
        <ele>71.6</ele>
        <time>2020-01-26T09:15:50Z</time>
      </trkpt>
      <trkpt lat="45.78675" lon="-1.22487">
        <ele>71.6</ele>
        <time>2020-01-26T09:15:51Z</time>
      </trkpt>
      <trkpt lat="45.78672" lon="-1.22488">
        <ele>71.8</ele>
        <time>2020-01-26T09:15:52Z</time>
      </trkpt>
      <trkpt lat="45.78666" lon="-1.22488">
        <ele>71.8</ele>
        <time>2020-01-26T09:15:53Z</time>
      </trkpt>
      <trkpt lat="45.7866" lon="-1.22486">
        <ele>71.8</ele>
        <time>2020-01-26T09:15:54Z</time>
      </trkpt>
      <trkpt lat="45.78655" lon="-1.22485">
        <ele>71.8</ele>
        <time>2020-01-26T09:15:55Z</time>
      </trkpt>
      <trkpt lat="45.78649" lon="-1.22484">
        <ele>72</ele>
        <time>2020-01-26T09:15:56Z</time>
      </trkpt>
      <trkpt lat="45.78645" lon="-1.22483">
        <ele>72.2</ele>
        <time>2020-01-26T09:15:57Z</time>
      </trkpt>
      <trkpt lat="45.78641" lon="-1.22481">
        <ele>72.4</ele>
        <time>2020-01-26T09:15:58Z</time>
      </trkpt>
      <trkpt lat="45.78637" lon="-1.2248">
        <ele>72.2</ele>
        <time>2020-01-26T09:15:59Z</time>
      </trkpt>
      <trkpt lat="45.78632" lon="-1.22479">
        <ele>72.2</ele>
        <time>2020-01-26T09:16:00Z</time>
      </trkpt>
      <trkpt lat="45.78628" lon="-1.22477">
        <ele>72.2</ele>
        <time>2020-01-26T09:16:01Z</time>
      </trkpt>
      <trkpt lat="45.78624" lon="-1.22477">
        <ele>72.4</ele>
        <time>2020-01-26T09:16:02Z</time>
      </trkpt>
      <trkpt lat="45.78621" lon="-1.22477">
        <ele>72.8</ele>
        <time>2020-01-26T09:16:03Z</time>
      </trkpt>
      <trkpt lat="45.78617" lon="-1.22476">
        <ele>73.4</ele>
        <time>2020-01-26T09:16:04Z</time>
      </trkpt>
      <trkpt lat="45.78614" lon="-1.22475">
        <ele>73.8</ele>
        <time>2020-01-26T09:16:05Z</time>
      </trkpt>
      <trkpt lat="45.7861" lon="-1.22473">
        <ele>74</ele>
        <time>2020-01-26T09:16:06Z</time>
      </trkpt>
      <trkpt lat="45.78607" lon="-1.22474">
        <ele>74.4</ele>
        <time>2020-01-26T09:16:07Z</time>
      </trkpt>
      <trkpt lat="45.78602" lon="-1.22473">
        <ele>74.8</ele>
        <time>2020-01-26T09:16:08Z</time>
      </trkpt>
      <trkpt lat="45.78598" lon="-1.22472">
        <ele>74.8</ele>
        <time>2020-01-26T09:16:09Z</time>
      </trkpt>
      <trkpt lat="45.78594" lon="-1.22471">
        <ele>74.8</ele>
        <time>2020-01-26T09:16:10Z</time>
      </trkpt>
      <trkpt lat="45.7859" lon="-1.2247">
        <ele>74.8</ele>
        <time>2020-01-26T09:16:11Z</time>
      </trkpt>
      <trkpt lat="45.78587" lon="-1.2247">
        <ele>75</ele>
        <time>2020-01-26T09:16:12Z</time>
      </trkpt>
      <trkpt lat="45.78584" lon="-1.2247">
        <ele>75.2</ele>
        <time>2020-01-26T09:16:13Z</time>
      </trkpt>
      <trkpt lat="45.78582" lon="-1.22471">
        <ele>75.4</ele>
        <time>2020-01-26T09:16:14Z</time>
      </trkpt>
      <trkpt lat="45.7858" lon="-1.22468">
        <ele>74.8</ele>
        <time>2020-01-26T09:16:15Z</time>
      </trkpt>
      <trkpt lat="45.78577" lon="-1.22466">
        <ele>74.4</ele>
        <time>2020-01-26T09:16:16Z</time>
      </trkpt>
      <trkpt lat="45.78576" lon="-1.22465">
        <ele>74</ele>
        <time>2020-01-26T09:16:17Z</time>
      </trkpt>
      <trkpt lat="45.78576" lon="-1.22465">
        <ele>74</ele>
        <time>2020-01-26T09:16:18Z</time>
      </trkpt>
      <trkpt lat="45.78576" lon="-1.22464">
        <ele>74</ele>
        <time>2020-01-26T09:16:19Z</time>
      </trkpt>
      <trkpt lat="45.78575" lon="-1.22464">
        <ele>73.8</ele>
        <time>2020-01-26T09:16:20Z</time>
      </trkpt>
      <trkpt lat="45.78575" lon="-1.22464">
        <ele>73.6</ele>
        <time>2020-01-26T09:16:21Z</time>
      </trkpt>
      <trkpt lat="45.78574" lon="-1.22464">
        <ele>73.4</ele>
        <time>2020-01-26T09:16:22Z</time>
      </trkpt>
      <trkpt lat="45.78572" lon="-1.22464">
        <ele>73.4</ele>
        <time>2020-01-26T09:16:23Z</time>
      </trkpt>
      <trkpt lat="45.7857" lon="-1.22463">
        <ele>73.2</ele>
        <time>2020-01-26T09:16:24Z</time>
      </trkpt>
      <trkpt lat="45.78568" lon="-1.22462">
        <ele>73.4</ele>
        <time>2020-01-26T09:16:25Z</time>
      </trkpt>
      <trkpt lat="45.78565" lon="-1.22461">
        <ele>73.6</ele>
        <time>2020-01-26T09:16:26Z</time>
      </trkpt>
      <trkpt lat="45.78561" lon="-1.22457">
        <ele>73.2</ele>
        <time>2020-01-26T09:16:27Z</time>
      </trkpt>
      <trkpt lat="45.78557" lon="-1.22455">
        <ele>72.6</ele>
        <time>2020-01-26T09:16:28Z</time>
      </trkpt>
      <trkpt lat="45.78553" lon="-1.22451">
        <ele>72.2</ele>
        <time>2020-01-26T09:16:29Z</time>
      </trkpt>
      <trkpt lat="45.7855" lon="-1.22447">
        <ele>71.8</ele>
        <time>2020-01-26T09:16:30Z</time>
      </trkpt>
      <trkpt lat="45.78547" lon="-1.22445">
        <ele>71.4</ele>
        <time>2020-01-26T09:16:31Z</time>
      </trkpt>
      <trkpt lat="45.78544" lon="-1.22444">
        <ele>71</ele>
        <time>2020-01-26T09:16:32Z</time>
      </trkpt>
      <trkpt lat="45.7854" lon="-1.22444">
        <ele>70.8</ele>
        <time>2020-01-26T09:16:33Z</time>
      </trkpt>
      <trkpt lat="45.78538" lon="-1.22443">
        <ele>70.4</ele>
        <time>2020-01-26T09:16:34Z</time>
      </trkpt>
      <trkpt lat="45.78535" lon="-1.22441">
        <ele>69.8</ele>
        <time>2020-01-26T09:16:35Z</time>
      </trkpt>
      <trkpt lat="45.78533" lon="-1.22439">
        <ele>69</ele>
        <time>2020-01-26T09:16:36Z</time>
      </trkpt>
      <trkpt lat="45.78532" lon="-1.22436">
        <ele>68.2</ele>
        <time>2020-01-26T09:16:37Z</time>
      </trkpt>
      <trkpt lat="45.78533" lon="-1.22433">
        <ele>67.2</ele>
        <time>2020-01-26T09:16:38Z</time>
      </trkpt>
      <trkpt lat="45.78534" lon="-1.2243">
        <ele>65.8</ele>
        <time>2020-01-26T09:16:39Z</time>
      </trkpt>
      <trkpt lat="45.78533" lon="-1.22427">
        <ele>64.6</ele>
        <time>2020-01-26T09:16:40Z</time>
      </trkpt>
      <trkpt lat="45.78534" lon="-1.22422">
        <ele>63.6</ele>
        <time>2020-01-26T09:16:41Z</time>
      </trkpt>
      <trkpt lat="45.78534" lon="-1.22417">
        <ele>62.4</ele>
        <time>2020-01-26T09:16:42Z</time>
      </trkpt>
      <trkpt lat="45.78535" lon="-1.22411">
        <ele>61.6</ele>
        <time>2020-01-26T09:16:43Z</time>
      </trkpt>
      <trkpt lat="45.78535" lon="-1.22406">
        <ele>60.8</ele>
        <time>2020-01-26T09:16:44Z</time>
      </trkpt>
      <trkpt lat="45.78536" lon="-1.22402">
        <ele>60.4</ele>
        <time>2020-01-26T09:16:45Z</time>
      </trkpt>
      <trkpt lat="45.78536" lon="-1.22395">
        <ele>60.2</ele>
        <time>2020-01-26T09:16:46Z</time>
      </trkpt>
      <trkpt lat="45.78538" lon="-1.22389">
        <ele>60.4</ele>
        <time>2020-01-26T09:16:47Z</time>
      </trkpt>
      <trkpt lat="45.78541" lon="-1.2238">
        <ele>60.4</ele>
        <time>2020-01-26T09:16:48Z</time>
      </trkpt>
      <trkpt lat="45.78545" lon="-1.22375">
        <ele>60.2</ele>
        <time>2020-01-26T09:16:49Z</time>
      </trkpt>
      <trkpt lat="45.78548" lon="-1.22368">
        <ele>60</ele>
        <time>2020-01-26T09:16:50Z</time>
      </trkpt>
      <trkpt lat="45.78551" lon="-1.2236">
        <ele>59.8</ele>
        <time>2020-01-26T09:16:51Z</time>
      </trkpt>
      <trkpt lat="45.78554" lon="-1.22354">
        <ele>59.8</ele>
        <time>2020-01-26T09:16:52Z</time>
      </trkpt>
      <trkpt lat="45.7856" lon="-1.22348">
        <ele>59.6</ele>
        <time>2020-01-26T09:16:53Z</time>
      </trkpt>
      <trkpt lat="45.78565" lon="-1.22341">
        <ele>59.4</ele>
        <time>2020-01-26T09:16:54Z</time>
      </trkpt>
      <trkpt lat="45.78569" lon="-1.22333">
        <ele>59.2</ele>
        <time>2020-01-26T09:16:55Z</time>
      </trkpt>
      <trkpt lat="45.78572" lon="-1.22325">
        <ele>59</ele>
        <time>2020-01-26T09:16:56Z</time>
      </trkpt>
      <trkpt lat="45.78576" lon="-1.22317">
        <ele>58.8</ele>
        <time>2020-01-26T09:16:57Z</time>
      </trkpt>
      <trkpt lat="45.78579" lon="-1.22313">
        <ele>58.8</ele>
        <time>2020-01-26T09:16:58Z</time>
      </trkpt>
      <trkpt lat="45.78582" lon="-1.22308">
        <ele>58.6</ele>
        <time>2020-01-26T09:16:59Z</time>
      </trkpt>
      <trkpt lat="45.78585" lon="-1.22304">
        <ele>58.2</ele>
        <time>2020-01-26T09:17:00Z</time>
      </trkpt>
      <trkpt lat="45.78587" lon="-1.22304">
        <ele>57.8</ele>
        <time>2020-01-26T09:17:01Z</time>
      </trkpt>
      <trkpt lat="45.78589" lon="-1.22302">
        <ele>57.4</ele>
        <time>2020-01-26T09:17:02Z</time>
      </trkpt>
      <trkpt lat="45.78591" lon="-1.22299">
        <ele>56.4</ele>
        <time>2020-01-26T09:17:03Z</time>
      </trkpt>
      <trkpt lat="45.78593" lon="-1.22296">
        <ele>55.6</ele>
        <time>2020-01-26T09:17:04Z</time>
      </trkpt>
      <trkpt lat="45.78596" lon="-1.22296">
        <ele>54.6</ele>
        <time>2020-01-26T09:17:05Z</time>
      </trkpt>
      <trkpt lat="45.78598" lon="-1.22294">
        <ele>53.8</ele>
        <time>2020-01-26T09:17:06Z</time>
      </trkpt>
      <trkpt lat="45.78601" lon="-1.22289">
        <ele>52.4</ele>
        <time>2020-01-26T09:17:07Z</time>
      </trkpt>
      <trkpt lat="45.78605" lon="-1.22282">
        <ele>51.2</ele>
        <time>2020-01-26T09:17:08Z</time>
      </trkpt>
      <trkpt lat="45.78607" lon="-1.22274">
        <ele>50.4</ele>
        <time>2020-01-26T09:17:09Z</time>
      </trkpt>
      <trkpt lat="45.78609" lon="-1.22266">
        <ele>50</ele>
        <time>2020-01-26T09:17:10Z</time>
      </trkpt>
      <trkpt lat="45.78612" lon="-1.2226">
        <ele>49.8</ele>
        <time>2020-01-26T09:17:11Z</time>
      </trkpt>
      <trkpt lat="45.78615" lon="-1.22254">
        <ele>49.6</ele>
        <time>2020-01-26T09:17:12Z</time>
      </trkpt>
      <trkpt lat="45.78619" lon="-1.22248">
        <ele>50</ele>
        <time>2020-01-26T09:17:13Z</time>
      </trkpt>
      <trkpt lat="45.78622" lon="-1.22243">
        <ele>50.8</ele>
        <time>2020-01-26T09:17:14Z</time>
      </trkpt>
      <trkpt lat="45.78626" lon="-1.2224">
        <ele>51</ele>
        <time>2020-01-26T09:17:15Z</time>
      </trkpt>
      <trkpt lat="45.78628" lon="-1.22239">
        <ele>51</ele>
        <time>2020-01-26T09:17:16Z</time>
      </trkpt>
      <trkpt lat="45.78631" lon="-1.22237">
        <ele>51.2</ele>
        <time>2020-01-26T09:17:17Z</time>
      </trkpt>
      <trkpt lat="45.78634" lon="-1.22236">
        <ele>51.2</ele>
        <time>2020-01-26T09:17:18Z</time>
      </trkpt>
      <trkpt lat="45.78634" lon="-1.22231">
        <ele>50.6</ele>
        <time>2020-01-26T09:17:19Z</time>
      </trkpt>
      <trkpt lat="45.78635" lon="-1.22228">
        <ele>49.8</ele>
        <time>2020-01-26T09:17:20Z</time>
      </trkpt>
      <trkpt lat="45.78635" lon="-1.22223">
        <ele>49</ele>
        <time>2020-01-26T09:17:21Z</time>
      </trkpt>
      <trkpt lat="45.78636" lon="-1.22218">
        <ele>48.2</ele>
        <time>2020-01-26T09:17:22Z</time>
      </trkpt>
      <trkpt lat="45.78637" lon="-1.22214">
        <ele>47.6</ele>
        <time>2020-01-26T09:17:23Z</time>
      </trkpt>
      <trkpt lat="45.78639" lon="-1.22211">
        <ele>47.2</ele>
        <time>2020-01-26T09:17:24Z</time>
      </trkpt>
      <trkpt lat="45.78643" lon="-1.22208">
        <ele>47.2</ele>
        <time>2020-01-26T09:17:25Z</time>
      </trkpt>
      <trkpt lat="45.78646" lon="-1.22203">
        <ele>47.2</ele>
        <time>2020-01-26T09:17:26Z</time>
      </trkpt>
      <trkpt lat="45.7865" lon="-1.22199">
        <ele>46.8</ele>
        <time>2020-01-26T09:17:27Z</time>
      </trkpt>
      <trkpt lat="45.78651" lon="-1.22195">
        <ele>46.4</ele>
        <time>2020-01-26T09:17:28Z</time>
      </trkpt>
      <trkpt lat="45.78652" lon="-1.22192">
        <ele>46</ele>
        <time>2020-01-26T09:17:29Z</time>
      </trkpt>
      <trkpt lat="45.78654" lon="-1.22188">
        <ele>45.8</ele>
        <time>2020-01-26T09:17:30Z</time>
      </trkpt>
      <trkpt lat="45.78656" lon="-1.22182">
        <ele>46</ele>
        <time>2020-01-26T09:17:31Z</time>
      </trkpt>
      <trkpt lat="45.78657" lon="-1.22176">
        <ele>46.2</ele>
        <time>2020-01-26T09:17:32Z</time>
      </trkpt>
      <trkpt lat="45.78659" lon="-1.22173">
        <ele>47.2</ele>
        <time>2020-01-26T09:17:33Z</time>
      </trkpt>
      <trkpt lat="45.78661" lon="-1.2217">
        <ele>48</ele>
        <time>2020-01-26T09:17:34Z</time>
      </trkpt>
      <trkpt lat="45.78663" lon="-1.22171">
        <ele>48.8</ele>
        <time>2020-01-26T09:17:35Z</time>
      </trkpt>
      <trkpt lat="45.78666" lon="-1.22171">
        <ele>49.4</ele>
        <time>2020-01-26T09:17:36Z</time>
      </trkpt>
      <trkpt lat="45.78669" lon="-1.22168">
        <ele>49.8</ele>
        <time>2020-01-26T09:17:37Z</time>
      </trkpt>
      <trkpt lat="45.78673" lon="-1.22164">
        <ele>50.4</ele>
        <time>2020-01-26T09:17:38Z</time>
      </trkpt>
      <trkpt lat="45.78675" lon="-1.22157">
        <ele>51.2</ele>
        <time>2020-01-26T09:17:39Z</time>
      </trkpt>
      <trkpt lat="45.78677" lon="-1.22151">
        <ele>52.4</ele>
        <time>2020-01-26T09:17:40Z</time>
      </trkpt>
      <trkpt lat="45.78677" lon="-1.22147">
        <ele>53.6</ele>
        <time>2020-01-26T09:17:41Z</time>
      </trkpt>
      <trkpt lat="45.78677" lon="-1.22146">
        <ele>54.2</ele>
        <time>2020-01-26T09:17:42Z</time>
      </trkpt>
      <trkpt lat="45.78676" lon="-1.22145">
        <ele>54.6</ele>
        <time>2020-01-26T09:17:43Z</time>
      </trkpt>
      <trkpt lat="45.78676" lon="-1.22142">
        <ele>55.2</ele>
        <time>2020-01-26T09:17:44Z</time>
      </trkpt>
      <trkpt lat="45.78678" lon="-1.22137">
        <ele>55.8</ele>
        <time>2020-01-26T09:17:45Z</time>
      </trkpt>
      <trkpt lat="45.78681" lon="-1.22134">
        <ele>56</ele>
        <time>2020-01-26T09:17:46Z</time>
      </trkpt>
      <trkpt lat="45.78682" lon="-1.22131">
        <ele>56.2</ele>
        <time>2020-01-26T09:17:47Z</time>
      </trkpt>
      <trkpt lat="45.78683" lon="-1.22128">
        <ele>56.4</ele>
        <time>2020-01-26T09:17:48Z</time>
      </trkpt>
      <trkpt lat="45.78685" lon="-1.22125">
        <ele>56.6</ele>
        <time>2020-01-26T09:17:49Z</time>
      </trkpt>
      <trkpt lat="45.78687" lon="-1.22122">
        <ele>56.4</ele>
        <time>2020-01-26T09:17:50Z</time>
      </trkpt>
      <trkpt lat="45.78688" lon="-1.22117">
        <ele>56.2</ele>
        <time>2020-01-26T09:17:51Z</time>
      </trkpt>
      <trkpt lat="45.78691" lon="-1.22115">
        <ele>55.8</ele>
        <time>2020-01-26T09:17:52Z</time>
      </trkpt>
      <trkpt lat="45.78694" lon="-1.22114">
        <ele>55.2</ele>
        <time>2020-01-26T09:17:53Z</time>
      </trkpt>
      <trkpt lat="45.78698" lon="-1.22115">
        <ele>54.4</ele>
        <time>2020-01-26T09:17:54Z</time>
      </trkpt>
      <trkpt lat="45.78701" lon="-1.22114">
        <ele>54.4</ele>
        <time>2020-01-26T09:17:55Z</time>
      </trkpt>
      <trkpt lat="45.78704" lon="-1.22113">
        <ele>54.2</ele>
        <time>2020-01-26T09:17:56Z</time>
      </trkpt>
      <trkpt lat="45.78705" lon="-1.22113">
        <ele>54.2</ele>
        <time>2020-01-26T09:17:57Z</time>
      </trkpt>
      <trkpt lat="45.78706" lon="-1.22109">
        <ele>54</ele>
        <time>2020-01-26T09:17:58Z</time>
      </trkpt>
      <trkpt lat="45.78708" lon="-1.22104">
        <ele>53.6</ele>
        <time>2020-01-26T09:17:59Z</time>
      </trkpt>
      <trkpt lat="45.78708" lon="-1.22098">
        <ele>53.4</ele>
        <time>2020-01-26T09:18:00Z</time>
      </trkpt>
      <trkpt lat="45.78709" lon="-1.22094">
        <ele>53</ele>
        <time>2020-01-26T09:18:01Z</time>
      </trkpt>
      <trkpt lat="45.7871" lon="-1.22089">
        <ele>52.6</ele>
        <time>2020-01-26T09:18:02Z</time>
      </trkpt>
      <trkpt lat="45.78711" lon="-1.22083">
        <ele>52.6</ele>
        <time>2020-01-26T09:18:03Z</time>
      </trkpt>
      <trkpt lat="45.78714" lon="-1.22079">
        <ele>53</ele>
        <time>2020-01-26T09:18:04Z</time>
      </trkpt>
      <trkpt lat="45.78716" lon="-1.22073">
        <ele>53.2</ele>
        <time>2020-01-26T09:18:05Z</time>
      </trkpt>
      <trkpt lat="45.78718" lon="-1.22068">
        <ele>53.6</ele>
        <time>2020-01-26T09:18:06Z</time>
      </trkpt>
      <trkpt lat="45.78722" lon="-1.22064">
        <ele>54.2</ele>
        <time>2020-01-26T09:18:07Z</time>
      </trkpt>
      <trkpt lat="45.78726" lon="-1.2206">
        <ele>54.6</ele>
        <time>2020-01-26T09:18:08Z</time>
      </trkpt>
      <trkpt lat="45.78729" lon="-1.22056">
        <ele>54.6</ele>
        <time>2020-01-26T09:18:09Z</time>
      </trkpt>
      <trkpt lat="45.78734" lon="-1.22052">
        <ele>55</ele>
        <time>2020-01-26T09:18:10Z</time>
      </trkpt>
      <trkpt lat="45.78737" lon="-1.22046">
        <ele>55.2</ele>
        <time>2020-01-26T09:18:11Z</time>
      </trkpt>
      <trkpt lat="45.78739" lon="-1.22042">
        <ele>55.4</ele>
        <time>2020-01-26T09:18:12Z</time>
      </trkpt>
      <trkpt lat="45.78741" lon="-1.22037">
        <ele>55.6</ele>
        <time>2020-01-26T09:18:13Z</time>
      </trkpt>
      <trkpt lat="45.78742" lon="-1.22032">
        <ele>56</ele>
        <time>2020-01-26T09:18:14Z</time>
      </trkpt>
      <trkpt lat="45.78744" lon="-1.22029">
        <ele>56</ele>
        <time>2020-01-26T09:18:15Z</time>
      </trkpt>
      <trkpt lat="45.78746" lon="-1.22025">
        <ele>56</ele>
        <time>2020-01-26T09:18:16Z</time>
      </trkpt>
      <trkpt lat="45.78748" lon="-1.2202">
        <ele>55.6</ele>
        <time>2020-01-26T09:18:17Z</time>
      </trkpt>
      <trkpt lat="45.78751" lon="-1.22015">
        <ele>55.6</ele>
        <time>2020-01-26T09:18:18Z</time>
      </trkpt>
      <trkpt lat="45.78752" lon="-1.2201">
        <ele>55.4</ele>
        <time>2020-01-26T09:18:19Z</time>
      </trkpt>
      <trkpt lat="45.78754" lon="-1.22006">
        <ele>55.6</ele>
        <time>2020-01-26T09:18:20Z</time>
      </trkpt>
      <trkpt lat="45.78755" lon="-1.22002">
        <ele>56</ele>
        <time>2020-01-26T09:18:21Z</time>
      </trkpt>
      <trkpt lat="45.78755" lon="-1.21999">
        <ele>56</ele>
        <time>2020-01-26T09:18:22Z</time>
      </trkpt>
      <trkpt lat="45.78755" lon="-1.21994">
        <ele>56</ele>
        <time>2020-01-26T09:18:23Z</time>
      </trkpt>
      <trkpt lat="45.78756" lon="-1.2199">
        <ele>56</ele>
        <time>2020-01-26T09:18:24Z</time>
      </trkpt>
      <trkpt lat="45.78759" lon="-1.21984">
        <ele>56</ele>
        <time>2020-01-26T09:18:25Z</time>
      </trkpt>
      <trkpt lat="45.78762" lon="-1.2198">
        <ele>56</ele>
        <time>2020-01-26T09:18:26Z</time>
      </trkpt>
      <trkpt lat="45.78765" lon="-1.21983">
        <ele>55.8</ele>
        <time>2020-01-26T09:18:27Z</time>
      </trkpt>
      <trkpt lat="45.78767" lon="-1.21983">
        <ele>55.8</ele>
        <time>2020-01-26T09:18:28Z</time>
      </trkpt>
      <trkpt lat="45.7877" lon="-1.21981">
        <ele>55.8</ele>
        <time>2020-01-26T09:18:29Z</time>
      </trkpt>
      <trkpt lat="45.78773" lon="-1.21978">
        <ele>55.8</ele>
        <time>2020-01-26T09:18:30Z</time>
      </trkpt>
      <trkpt lat="45.78775" lon="-1.21974">
        <ele>55.6</ele>
        <time>2020-01-26T09:18:31Z</time>
      </trkpt>
      <trkpt lat="45.78776" lon="-1.21969">
        <ele>55.2</ele>
        <time>2020-01-26T09:18:32Z</time>
      </trkpt>
      <trkpt lat="45.78779" lon="-1.21964">
        <ele>55</ele>
        <time>2020-01-26T09:18:33Z</time>
      </trkpt>
      <trkpt lat="45.78783" lon="-1.2196">
        <ele>54.6</ele>
        <time>2020-01-26T09:18:34Z</time>
      </trkpt>
      <trkpt lat="45.78785" lon="-1.21954">
        <ele>54</ele>
        <time>2020-01-26T09:18:35Z</time>
      </trkpt>
      <trkpt lat="45.78786" lon="-1.21948">
        <ele>53.4</ele>
        <time>2020-01-26T09:18:36Z</time>
      </trkpt>
      <trkpt lat="45.78787" lon="-1.21943">
        <ele>53.2</ele>
        <time>2020-01-26T09:18:37Z</time>
      </trkpt>
      <trkpt lat="45.78788" lon="-1.21938">
        <ele>52.8</ele>
        <time>2020-01-26T09:18:38Z</time>
      </trkpt>
      <trkpt lat="45.7879" lon="-1.21932">
        <ele>52.6</ele>
        <time>2020-01-26T09:18:39Z</time>
      </trkpt>
      <trkpt lat="45.78791" lon="-1.21929">
        <ele>52.4</ele>
        <time>2020-01-26T09:18:40Z</time>
      </trkpt>
      <trkpt lat="45.78794" lon="-1.21925">
        <ele>52.6</ele>
        <time>2020-01-26T09:18:41Z</time>
      </trkpt>
      <trkpt lat="45.78795" lon="-1.21922">
        <ele>52.8</ele>
        <time>2020-01-26T09:18:42Z</time>
      </trkpt>
      <trkpt lat="45.78798" lon="-1.21918">
        <ele>52.8</ele>
        <time>2020-01-26T09:18:43Z</time>
      </trkpt>
      <trkpt lat="45.78802" lon="-1.21916">
        <ele>52.8</ele>
        <time>2020-01-26T09:18:44Z</time>
      </trkpt>
      <trkpt lat="45.78805" lon="-1.21914">
        <ele>53</ele>
        <time>2020-01-26T09:18:45Z</time>
      </trkpt>
      <trkpt lat="45.78807" lon="-1.21914">
        <ele>53.2</ele>
        <time>2020-01-26T09:18:46Z</time>
      </trkpt>
      <trkpt lat="45.78811" lon="-1.21912">
        <ele>53.6</ele>
        <time>2020-01-26T09:18:47Z</time>
      </trkpt>
      <trkpt lat="45.78811" lon="-1.21909">
        <ele>54</ele>
        <time>2020-01-26T09:18:48Z</time>
      </trkpt>
      <trkpt lat="45.78814" lon="-1.21905">
        <ele>54.2</ele>
        <time>2020-01-26T09:18:49Z</time>
      </trkpt>
      <trkpt lat="45.78817" lon="-1.21903">
        <ele>54.8</ele>
        <time>2020-01-26T09:18:50Z</time>
      </trkpt>
      <trkpt lat="45.7882" lon="-1.21899">
        <ele>55</ele>
        <time>2020-01-26T09:18:51Z</time>
      </trkpt>
      <trkpt lat="45.78821" lon="-1.21894">
        <ele>55</ele>
        <time>2020-01-26T09:18:52Z</time>
      </trkpt>
      <trkpt lat="45.78823" lon="-1.21891">
        <ele>55.2</ele>
        <time>2020-01-26T09:18:53Z</time>
      </trkpt>
      <trkpt lat="45.78824" lon="-1.21887">
        <ele>55.4</ele>
        <time>2020-01-26T09:18:54Z</time>
      </trkpt>
      <trkpt lat="45.78825" lon="-1.21882">
        <ele>55.6</ele>
        <time>2020-01-26T09:18:55Z</time>
      </trkpt>
      <trkpt lat="45.78828" lon="-1.21879">
        <ele>55.8</ele>
        <time>2020-01-26T09:18:56Z</time>
      </trkpt>
      <trkpt lat="45.78828" lon="-1.21875">
        <ele>56</ele>
        <time>2020-01-26T09:18:57Z</time>
      </trkpt>
      <trkpt lat="45.7883" lon="-1.21873">
        <ele>56.2</ele>
        <time>2020-01-26T09:18:58Z</time>
      </trkpt>
      <trkpt lat="45.78831" lon="-1.21873">
        <ele>56.4</ele>
        <time>2020-01-26T09:18:59Z</time>
      </trkpt>
      <trkpt lat="45.78833" lon="-1.21873">
        <ele>56.6</ele>
        <time>2020-01-26T09:19:00Z</time>
      </trkpt>
      <trkpt lat="45.78835" lon="-1.21871">
        <ele>56.8</ele>
        <time>2020-01-26T09:19:01Z</time>
      </trkpt>
      <trkpt lat="45.78837" lon="-1.21865">
        <ele>57</ele>
        <time>2020-01-26T09:19:02Z</time>
      </trkpt>
      <trkpt lat="45.78839" lon="-1.2186">
        <ele>57</ele>
        <time>2020-01-26T09:19:03Z</time>
      </trkpt>
      <trkpt lat="45.78842" lon="-1.21853">
        <ele>56.8</ele>
        <time>2020-01-26T09:19:04Z</time>
      </trkpt>
      <trkpt lat="45.78844" lon="-1.21848">
        <ele>56.8</ele>
        <time>2020-01-26T09:19:05Z</time>
      </trkpt>
      <trkpt lat="45.78846" lon="-1.21843">
        <ele>56.6</ele>
        <time>2020-01-26T09:19:06Z</time>
      </trkpt>
      <trkpt lat="45.78848" lon="-1.21838">
        <ele>56.4</ele>
        <time>2020-01-26T09:19:07Z</time>
      </trkpt>
      <trkpt lat="45.7885" lon="-1.21832">
        <ele>56</ele>
        <time>2020-01-26T09:19:08Z</time>
      </trkpt>
      <trkpt lat="45.78851" lon="-1.21827">
        <ele>56</ele>
        <time>2020-01-26T09:19:09Z</time>
      </trkpt>
      <trkpt lat="45.78854" lon="-1.21824">
        <ele>56.4</ele>
        <time>2020-01-26T09:19:10Z</time>
      </trkpt>
      <trkpt lat="45.78857" lon="-1.21821">
        <ele>56.4</ele>
        <time>2020-01-26T09:19:11Z</time>
      </trkpt>
      <trkpt lat="45.7886" lon="-1.21818">
        <ele>56.4</ele>
        <time>2020-01-26T09:19:12Z</time>
      </trkpt>
      <trkpt lat="45.78864" lon="-1.21817">
        <ele>56.2</ele>
        <time>2020-01-26T09:19:13Z</time>
      </trkpt>
      <trkpt lat="45.78868" lon="-1.21821">
        <ele>56.2</ele>
        <time>2020-01-26T09:19:14Z</time>
      </trkpt>
      <trkpt lat="45.78873" lon="-1.21821">
        <ele>55.6</ele>
        <time>2020-01-26T09:19:15Z</time>
      </trkpt>
      <trkpt lat="45.78876" lon="-1.21819">
        <ele>55.2</ele>
        <time>2020-01-26T09:19:16Z</time>
      </trkpt>
      <trkpt lat="45.78879" lon="-1.21812">
        <ele>55</ele>
        <time>2020-01-26T09:19:17Z</time>
      </trkpt>
      <trkpt lat="45.78883" lon="-1.21807">
        <ele>54.6</ele>
        <time>2020-01-26T09:19:18Z</time>
      </trkpt>
      <trkpt lat="45.78888" lon="-1.21804">
        <ele>54.2</ele>
        <time>2020-01-26T09:19:19Z</time>
      </trkpt>
      <trkpt lat="45.7889" lon="-1.21798">
        <ele>54.2</ele>
        <time>2020-01-26T09:19:20Z</time>
      </trkpt>
      <trkpt lat="45.78893" lon="-1.21793">
        <ele>54.2</ele>
        <time>2020-01-26T09:19:21Z</time>
      </trkpt>
      <trkpt lat="45.78893" lon="-1.21789">
        <ele>54.4</ele>
        <time>2020-01-26T09:19:22Z</time>
      </trkpt>
      <trkpt lat="45.78893" lon="-1.21783">
        <ele>54.6</ele>
        <time>2020-01-26T09:19:23Z</time>
      </trkpt>
      <trkpt lat="45.78894" lon="-1.21778">
        <ele>54.6</ele>
        <time>2020-01-26T09:19:24Z</time>
      </trkpt>
      <trkpt lat="45.78896" lon="-1.21774">
        <ele>54.8</ele>
        <time>2020-01-26T09:19:25Z</time>
      </trkpt>
      <trkpt lat="45.78902" lon="-1.21775">
        <ele>55</ele>
        <time>2020-01-26T09:19:26Z</time>
      </trkpt>
      <trkpt lat="45.78907" lon="-1.21772">
        <ele>55.6</ele>
        <time>2020-01-26T09:19:27Z</time>
      </trkpt>
      <trkpt lat="45.78911" lon="-1.21769">
        <ele>56</ele>
        <time>2020-01-26T09:19:28Z</time>
      </trkpt>
      <trkpt lat="45.78914" lon="-1.21766">
        <ele>56.2</ele>
        <time>2020-01-26T09:19:29Z</time>
      </trkpt>
      <trkpt lat="45.78917" lon="-1.21762">
        <ele>56</ele>
        <time>2020-01-26T09:19:30Z</time>
      </trkpt>
      <trkpt lat="45.7892" lon="-1.21757">
        <ele>55.6</ele>
        <time>2020-01-26T09:19:31Z</time>
      </trkpt>
      <trkpt lat="45.78922" lon="-1.21749">
        <ele>56</ele>
        <time>2020-01-26T09:19:32Z</time>
      </trkpt>
      <trkpt lat="45.78923" lon="-1.21742">
        <ele>56.4</ele>
        <time>2020-01-26T09:19:33Z</time>
      </trkpt>
      <trkpt lat="45.78924" lon="-1.21736">
        <ele>57</ele>
        <time>2020-01-26T09:19:34Z</time>
      </trkpt>
      <trkpt lat="45.78926" lon="-1.21732">
        <ele>57.4</ele>
        <time>2020-01-26T09:19:35Z</time>
      </trkpt>
      <trkpt lat="45.78926" lon="-1.2173">
        <ele>58</ele>
        <time>2020-01-26T09:19:36Z</time>
      </trkpt>
      <trkpt lat="45.78928" lon="-1.21727">
        <ele>58.6</ele>
        <time>2020-01-26T09:19:37Z</time>
      </trkpt>
      <trkpt lat="45.78928" lon="-1.21725">
        <ele>58.6</ele>
        <time>2020-01-26T09:19:38Z</time>
      </trkpt>
      <trkpt lat="45.78928" lon="-1.21722">
        <ele>58.8</ele>
        <time>2020-01-26T09:19:39Z</time>
      </trkpt>
      <trkpt lat="45.78928" lon="-1.21719">
        <ele>58.6</ele>
        <time>2020-01-26T09:19:40Z</time>
      </trkpt>
      <trkpt lat="45.78928" lon="-1.21715">
        <ele>58.4</ele>
        <time>2020-01-26T09:19:41Z</time>
      </trkpt>
      <trkpt lat="45.78929" lon="-1.21712">
        <ele>58.4</ele>
        <time>2020-01-26T09:19:42Z</time>
      </trkpt>
      <trkpt lat="45.78929" lon="-1.21709">
        <ele>58.2</ele>
        <time>2020-01-26T09:19:43Z</time>
      </trkpt>
      <trkpt lat="45.78928" lon="-1.21706">
        <ele>58.2</ele>
        <time>2020-01-26T09:19:44Z</time>
      </trkpt>
      <trkpt lat="45.78928" lon="-1.21705">
        <ele>58.2</ele>
        <time>2020-01-26T09:19:45Z</time>
      </trkpt>
      <trkpt lat="45.78927" lon="-1.21702">
        <ele>58</ele>
        <time>2020-01-26T09:19:46Z</time>
      </trkpt>
      <trkpt lat="45.78928" lon="-1.21698">
        <ele>57.8</ele>
        <time>2020-01-26T09:19:47Z</time>
      </trkpt>
      <trkpt lat="45.78929" lon="-1.21693">
        <ele>57.6</ele>
        <time>2020-01-26T09:19:48Z</time>
      </trkpt>
      <trkpt lat="45.78932" lon="-1.21688">
        <ele>57.4</ele>
        <time>2020-01-26T09:19:49Z</time>
      </trkpt>
      <trkpt lat="45.78936" lon="-1.21685">
        <ele>57.4</ele>
        <time>2020-01-26T09:19:50Z</time>
      </trkpt>
      <trkpt lat="45.78939" lon="-1.21682">
        <ele>57</ele>
        <time>2020-01-26T09:19:51Z</time>
      </trkpt>
      <trkpt lat="45.78942" lon="-1.21678">
        <ele>56.4</ele>
        <time>2020-01-26T09:19:52Z</time>
      </trkpt>
      <trkpt lat="45.78942" lon="-1.21673">
        <ele>56</ele>
        <time>2020-01-26T09:19:53Z</time>
      </trkpt>
      <trkpt lat="45.78944" lon="-1.21669">
        <ele>55.6</ele>
        <time>2020-01-26T09:19:54Z</time>
      </trkpt>
      <trkpt lat="45.78946" lon="-1.21662">
        <ele>55</ele>
        <time>2020-01-26T09:19:55Z</time>
      </trkpt>
      <trkpt lat="45.7895" lon="-1.21654">
        <ele>54.4</ele>
        <time>2020-01-26T09:19:56Z</time>
      </trkpt>
      <trkpt lat="45.78952" lon="-1.21648">
        <ele>54</ele>
        <time>2020-01-26T09:19:57Z</time>
      </trkpt>
      <trkpt lat="45.78954" lon="-1.21642">
        <ele>53.4</ele>
        <time>2020-01-26T09:19:58Z</time>
      </trkpt>
      <trkpt lat="45.78955" lon="-1.21636">
        <ele>52.6</ele>
        <time>2020-01-26T09:19:59Z</time>
      </trkpt>
      <trkpt lat="45.78959" lon="-1.21629">
        <ele>52.2</ele>
        <time>2020-01-26T09:20:00Z</time>
      </trkpt>
      <trkpt lat="45.78961" lon="-1.21623">
        <ele>51.6</ele>
        <time>2020-01-26T09:20:01Z</time>
      </trkpt>
      <trkpt lat="45.78963" lon="-1.21617">
        <ele>51.2</ele>
        <time>2020-01-26T09:20:02Z</time>
      </trkpt>
      <trkpt lat="45.78967" lon="-1.21614">
        <ele>50.6</ele>
        <time>2020-01-26T09:20:03Z</time>
      </trkpt>
      <trkpt lat="45.78971" lon="-1.21614">
        <ele>50.6</ele>
        <time>2020-01-26T09:20:04Z</time>
      </trkpt>
      <trkpt lat="45.78975" lon="-1.21611">
        <ele>50.8</ele>
        <time>2020-01-26T09:20:05Z</time>
      </trkpt>
      <trkpt lat="45.78977" lon="-1.21606">
        <ele>51</ele>
        <time>2020-01-26T09:20:06Z</time>
      </trkpt>
      <trkpt lat="45.78979" lon="-1.216">
        <ele>51.2</ele>
        <time>2020-01-26T09:20:07Z</time>
      </trkpt>
      <trkpt lat="45.78978" lon="-1.21594">
        <ele>52</ele>
        <time>2020-01-26T09:20:08Z</time>
      </trkpt>
      <trkpt lat="45.78978" lon="-1.21588">
        <ele>52.8</ele>
        <time>2020-01-26T09:20:09Z</time>
      </trkpt>
      <trkpt lat="45.78979" lon="-1.21582">
        <ele>53.8</ele>
        <time>2020-01-26T09:20:10Z</time>
      </trkpt>
      <trkpt lat="45.78982" lon="-1.21579">
        <ele>54</ele>
        <time>2020-01-26T09:20:11Z</time>
      </trkpt>
      <trkpt lat="45.78984" lon="-1.21572">
        <ele>54</ele>
        <time>2020-01-26T09:20:12Z</time>
      </trkpt>
      <trkpt lat="45.78987" lon="-1.21566">
        <ele>54.2</ele>
        <time>2020-01-26T09:20:13Z</time>
      </trkpt>
      <trkpt lat="45.78988" lon="-1.2156">
        <ele>54.2</ele>
        <time>2020-01-26T09:20:14Z</time>
      </trkpt>
      <trkpt lat="45.78988" lon="-1.21554">
        <ele>54.4</ele>
        <time>2020-01-26T09:20:15Z</time>
      </trkpt>
      <trkpt lat="45.78988" lon="-1.21549">
        <ele>54.6</ele>
        <time>2020-01-26T09:20:16Z</time>
      </trkpt>
      <trkpt lat="45.78987" lon="-1.21543">
        <ele>55</ele>
        <time>2020-01-26T09:20:17Z</time>
      </trkpt>
      <trkpt lat="45.78987" lon="-1.21539">
        <ele>55.2</ele>
        <time>2020-01-26T09:20:18Z</time>
      </trkpt>
      <trkpt lat="45.78986" lon="-1.21534">
        <ele>55.4</ele>
        <time>2020-01-26T09:20:19Z</time>
      </trkpt>
      <trkpt lat="45.78987" lon="-1.2153">
        <ele>55.8</ele>
        <time>2020-01-26T09:20:20Z</time>
      </trkpt>
      <trkpt lat="45.78987" lon="-1.21525">
        <ele>56.2</ele>
        <time>2020-01-26T09:20:21Z</time>
      </trkpt>
      <trkpt lat="45.78988" lon="-1.2152">
        <ele>56.4</ele>
        <time>2020-01-26T09:20:22Z</time>
      </trkpt>
      <trkpt lat="45.78989" lon="-1.21515">
        <ele>56.6</ele>
        <time>2020-01-26T09:20:23Z</time>
      </trkpt>
      <trkpt lat="45.78991" lon="-1.2151">
        <ele>56.6</ele>
        <time>2020-01-26T09:20:24Z</time>
      </trkpt>
      <trkpt lat="45.78992" lon="-1.21505">
        <ele>56.8</ele>
        <time>2020-01-26T09:20:25Z</time>
      </trkpt>
      <trkpt lat="45.78994" lon="-1.215">
        <ele>56.8</ele>
        <time>2020-01-26T09:20:26Z</time>
      </trkpt>
      <trkpt lat="45.78993" lon="-1.21495">
        <ele>56.8</ele>
        <time>2020-01-26T09:20:27Z</time>
      </trkpt>
      <trkpt lat="45.78991" lon="-1.2149">
        <ele>57.2</ele>
        <time>2020-01-26T09:20:28Z</time>
      </trkpt>
      <trkpt lat="45.78988" lon="-1.21485">
        <ele>57</ele>
        <time>2020-01-26T09:20:29Z</time>
      </trkpt>
      <trkpt lat="45.78985" lon="-1.21481">
        <ele>56.8</ele>
        <time>2020-01-26T09:20:30Z</time>
      </trkpt>
      <trkpt lat="45.78983" lon="-1.21478">
        <ele>56.8</ele>
        <time>2020-01-26T09:20:31Z</time>
      </trkpt>
      <trkpt lat="45.78983" lon="-1.21473">
        <ele>57</ele>
        <time>2020-01-26T09:20:32Z</time>
      </trkpt>
      <trkpt lat="45.78984" lon="-1.21468">
        <ele>57</ele>
        <time>2020-01-26T09:20:33Z</time>
      </trkpt>
      <trkpt lat="45.78986" lon="-1.21463">
        <ele>57.2</ele>
        <time>2020-01-26T09:20:34Z</time>
      </trkpt>
      <trkpt lat="45.78988" lon="-1.21458">
        <ele>57.4</ele>
        <time>2020-01-26T09:20:35Z</time>
      </trkpt>
      <trkpt lat="45.78989" lon="-1.21453">
        <ele>57.6</ele>
        <time>2020-01-26T09:20:36Z</time>
      </trkpt>
      <trkpt lat="45.78991" lon="-1.21449">
        <ele>57.6</ele>
        <time>2020-01-26T09:20:37Z</time>
      </trkpt>
      <trkpt lat="45.78993" lon="-1.21444">
        <ele>57.4</ele>
        <time>2020-01-26T09:20:38Z</time>
      </trkpt>
      <trkpt lat="45.78994" lon="-1.2144">
        <ele>57</ele>
        <time>2020-01-26T09:20:39Z</time>
      </trkpt>
      <trkpt lat="45.78995" lon="-1.21437">
        <ele>56.6</ele>
        <time>2020-01-26T09:20:40Z</time>
      </trkpt>
      <trkpt lat="45.78996" lon="-1.21433">
        <ele>56.4</ele>
        <time>2020-01-26T09:20:41Z</time>
      </trkpt>
      <trkpt lat="45.78997" lon="-1.21428">
        <ele>56.6</ele>
        <time>2020-01-26T09:20:42Z</time>
      </trkpt>
      <trkpt lat="45.78998" lon="-1.21423">
        <ele>56.6</ele>
        <time>2020-01-26T09:20:43Z</time>
      </trkpt>
      <trkpt lat="45.78999" lon="-1.21416">
        <ele>56.8</ele>
        <time>2020-01-26T09:20:44Z</time>
      </trkpt>
      <trkpt lat="45.78999" lon="-1.21412">
        <ele>56.6</ele>
        <time>2020-01-26T09:20:45Z</time>
      </trkpt>
      <trkpt lat="45.79001" lon="-1.21407">
        <ele>56.4</ele>
        <time>2020-01-26T09:20:46Z</time>
      </trkpt>
      <trkpt lat="45.79003" lon="-1.21403">
        <ele>56.6</ele>
        <time>2020-01-26T09:20:47Z</time>
      </trkpt>
      <trkpt lat="45.79004" lon="-1.21398">
        <ele>56.6</ele>
        <time>2020-01-26T09:20:48Z</time>
      </trkpt>
      <trkpt lat="45.79005" lon="-1.21395">
        <ele>56.4</ele>
        <time>2020-01-26T09:20:49Z</time>
      </trkpt>
      <trkpt lat="45.79007" lon="-1.21392">
        <ele>56.4</ele>
        <time>2020-01-26T09:20:50Z</time>
      </trkpt>
      <trkpt lat="45.79012" lon="-1.21387">
        <ele>56</ele>
        <time>2020-01-26T09:20:51Z</time>
      </trkpt>
      <trkpt lat="45.79014" lon="-1.2138">
        <ele>55.4</ele>
        <time>2020-01-26T09:20:52Z</time>
      </trkpt>
      <trkpt lat="45.79016" lon="-1.21373">
        <ele>55.2</ele>
        <time>2020-01-26T09:20:53Z</time>
      </trkpt>
      <trkpt lat="45.79016" lon="-1.2137">
        <ele>55.2</ele>
        <time>2020-01-26T09:20:54Z</time>
      </trkpt>
      <trkpt lat="45.79017" lon="-1.21369">
        <ele>55</ele>
        <time>2020-01-26T09:20:55Z</time>
      </trkpt>
      <trkpt lat="45.79017" lon="-1.21369">
        <ele>55</ele>
        <time>2020-01-26T09:20:56Z</time>
      </trkpt>
      <trkpt lat="45.79017" lon="-1.21369">
        <ele>55</ele>
        <time>2020-01-26T09:20:57Z</time>
      </trkpt>
      <trkpt lat="45.79017" lon="-1.21369">
        <ele>55</ele>
        <time>2020-01-26T09:20:58Z</time>
      </trkpt>
      <trkpt lat="45.79017" lon="-1.21368">
        <ele>55</ele>
        <time>2020-01-26T09:20:59Z</time>
      </trkpt>
      <trkpt lat="45.79017" lon="-1.21368">
        <ele>54.8</ele>
        <time>2020-01-26T09:21:00Z</time>
      </trkpt>
      <trkpt lat="45.79017" lon="-1.21368">
        <ele>54.6</ele>
        <time>2020-01-26T09:21:01Z</time>
      </trkpt>
      <trkpt lat="45.79017" lon="-1.21367">
        <ele>54.6</ele>
        <time>2020-01-26T09:21:02Z</time>
      </trkpt>
      <trkpt lat="45.79016" lon="-1.21367">
        <ele>54.8</ele>
        <time>2020-01-26T09:21:03Z</time>
      </trkpt>
      <trkpt lat="45.79016" lon="-1.21367">
        <ele>55</ele>
        <time>2020-01-26T09:21:04Z</time>
      </trkpt>
      <trkpt lat="45.79016" lon="-1.21367">
        <ele>55.4</ele>
        <time>2020-01-26T09:21:05Z</time>
      </trkpt>
      <trkpt lat="45.79016" lon="-1.21367">
        <ele>55.8</ele>
        <time>2020-01-26T09:21:06Z</time>
      </trkpt>
      <trkpt lat="45.79016" lon="-1.21367">
        <ele>56</ele>
        <time>2020-01-26T09:21:07Z</time>
      </trkpt>
      <trkpt lat="45.79015" lon="-1.21367">
        <ele>56.2</ele>
        <time>2020-01-26T09:21:08Z</time>
      </trkpt>
      <trkpt lat="45.79015" lon="-1.21367">
        <ele>56.4</ele>
        <time>2020-01-26T09:21:09Z</time>
      </trkpt>
      <trkpt lat="45.79015" lon="-1.21367">
        <ele>56.4</ele>
        <time>2020-01-26T09:21:10Z</time>
      </trkpt>
      <trkpt lat="45.79015" lon="-1.21367">
        <ele>56.2</ele>
        <time>2020-01-26T09:21:11Z</time>
      </trkpt>
      <trkpt lat="45.79015" lon="-1.21367">
        <ele>56.2</ele>
        <time>2020-01-26T09:21:12Z</time>
      </trkpt>
      <trkpt lat="45.79015" lon="-1.21367">
        <ele>56.4</ele>
        <time>2020-01-26T09:21:13Z</time>
      </trkpt>
      <trkpt lat="45.79015" lon="-1.21366">
        <ele>56.6</ele>
        <time>2020-01-26T09:21:14Z</time>
      </trkpt>
      <trkpt lat="45.79015" lon="-1.21366">
        <ele>56.6</ele>
        <time>2020-01-26T09:21:15Z</time>
      </trkpt>
      <trkpt lat="45.79015" lon="-1.21366">
        <ele>56.8</ele>
        <time>2020-01-26T09:21:16Z</time>
      </trkpt>
      <trkpt lat="45.79015" lon="-1.21366">
        <ele>56.8</ele>
        <time>2020-01-26T09:21:17Z</time>
      </trkpt>
      <trkpt lat="45.79015" lon="-1.21366">
        <ele>56.8</ele>
        <time>2020-01-26T09:21:18Z</time>
      </trkpt>
      <trkpt lat="45.79015" lon="-1.21366">
        <ele>56.8</ele>
        <time>2020-01-26T09:21:19Z</time>
      </trkpt>
      <trkpt lat="45.79015" lon="-1.21365">
        <ele>57</ele>
        <time>2020-01-26T09:21:20Z</time>
      </trkpt>
      <trkpt lat="45.79015" lon="-1.21365">
        <ele>57</ele>
        <time>2020-01-26T09:21:21Z</time>
      </trkpt>
      <trkpt lat="45.79015" lon="-1.21365">
        <ele>57.2</ele>
        <time>2020-01-26T09:21:22Z</time>
      </trkpt>
      <trkpt lat="45.79015" lon="-1.21364">
        <ele>57.4</ele>
        <time>2020-01-26T09:21:23Z</time>
      </trkpt>
      <trkpt lat="45.79016" lon="-1.21362">
        <ele>57.6</ele>
        <time>2020-01-26T09:21:24Z</time>
      </trkpt>
      <trkpt lat="45.79017" lon="-1.2136">
        <ele>57.8</ele>
        <time>2020-01-26T09:21:25Z</time>
      </trkpt>
      <trkpt lat="45.79018" lon="-1.21358">
        <ele>58</ele>
        <time>2020-01-26T09:21:26Z</time>
      </trkpt>
      <trkpt lat="45.79018" lon="-1.21356">
        <ele>58.6</ele>
        <time>2020-01-26T09:21:27Z</time>
      </trkpt>
      <trkpt lat="45.79019" lon="-1.21353">
        <ele>59</ele>
        <time>2020-01-26T09:21:28Z</time>
      </trkpt>
      <trkpt lat="45.7902" lon="-1.21352">
        <ele>59.2</ele>
        <time>2020-01-26T09:21:29Z</time>
      </trkpt>
      <trkpt lat="45.79021" lon="-1.2135">
        <ele>59</ele>
        <time>2020-01-26T09:21:30Z</time>
      </trkpt>
      <trkpt lat="45.79022" lon="-1.21348">
        <ele>58.8</ele>
        <time>2020-01-26T09:21:31Z</time>
      </trkpt>
      <trkpt lat="45.79021" lon="-1.21345">
        <ele>58.4</ele>
        <time>2020-01-26T09:21:32Z</time>
      </trkpt>
      <trkpt lat="45.79023" lon="-1.21341">
        <ele>58</ele>
        <time>2020-01-26T09:21:33Z</time>
      </trkpt>
      <trkpt lat="45.79023" lon="-1.21341">
        <ele>57.8</ele>
        <time>2020-01-26T09:21:34Z</time>
      </trkpt>
      <trkpt lat="45.79024" lon="-1.21341">
        <ele>57.6</ele>
        <time>2020-01-26T09:21:35Z</time>
      </trkpt>
      <trkpt lat="45.79025" lon="-1.21341">
        <ele>57.4</ele>
        <time>2020-01-26T09:21:36Z</time>
      </trkpt>
      <trkpt lat="45.79025" lon="-1.2134">
        <ele>57.4</ele>
        <time>2020-01-26T09:21:37Z</time>
      </trkpt>
      <trkpt lat="45.79025" lon="-1.2134">
        <ele>57.2</ele>
        <time>2020-01-26T09:21:38Z</time>
      </trkpt>
      <trkpt lat="45.79025" lon="-1.21341">
        <ele>57.2</ele>
        <time>2020-01-26T09:21:39Z</time>
      </trkpt>
      <trkpt lat="45.79025" lon="-1.21341">
        <ele>57.2</ele>
        <time>2020-01-26T09:21:40Z</time>
      </trkpt>
      <trkpt lat="45.79026" lon="-1.21341">
        <ele>57.2</ele>
        <time>2020-01-26T09:21:41Z</time>
      </trkpt>
      <trkpt lat="45.79027" lon="-1.2134">
        <ele>57.4</ele>
        <time>2020-01-26T09:21:42Z</time>
      </trkpt>
      <trkpt lat="45.79028" lon="-1.21339">
        <ele>57.6</ele>
        <time>2020-01-26T09:21:43Z</time>
      </trkpt>
      <trkpt lat="45.79029" lon="-1.21338">
        <ele>57.6</ele>
        <time>2020-01-26T09:21:44Z</time>
      </trkpt>
      <trkpt lat="45.79027" lon="-1.21329">
        <ele>57.4</ele>
        <time>2020-01-26T09:21:45Z</time>
      </trkpt>
      <trkpt lat="45.79029" lon="-1.21325">
        <ele>57</ele>
        <time>2020-01-26T09:21:46Z</time>
      </trkpt>
      <trkpt lat="45.7903" lon="-1.21321">
        <ele>56.8</ele>
        <time>2020-01-26T09:21:47Z</time>
      </trkpt>
      <trkpt lat="45.79031" lon="-1.21316">
        <ele>56.6</ele>
        <time>2020-01-26T09:21:48Z</time>
      </trkpt>
      <trkpt lat="45.79031" lon="-1.21312">
        <ele>56</ele>
        <time>2020-01-26T09:21:49Z</time>
      </trkpt>
      <trkpt lat="45.79031" lon="-1.2131">
        <ele>55.4</ele>
        <time>2020-01-26T09:21:50Z</time>
      </trkpt>
      <trkpt lat="45.79029" lon="-1.21306">
        <ele>55.4</ele>
        <time>2020-01-26T09:21:51Z</time>
      </trkpt>
      <trkpt lat="45.79028" lon="-1.21302">
        <ele>55</ele>
        <time>2020-01-26T09:21:52Z</time>
      </trkpt>
      <trkpt lat="45.79029" lon="-1.21295">
        <ele>55</ele>
        <time>2020-01-26T09:21:53Z</time>
      </trkpt>
      <trkpt lat="45.79031" lon="-1.2129">
        <ele>55</ele>
        <time>2020-01-26T09:21:54Z</time>
      </trkpt>
      <trkpt lat="45.79034" lon="-1.21284">
        <ele>54.8</ele>
        <time>2020-01-26T09:21:55Z</time>
      </trkpt>
      <trkpt lat="45.79034" lon="-1.21278">
        <ele>54.6</ele>
        <time>2020-01-26T09:21:56Z</time>
      </trkpt>
      <trkpt lat="45.79034" lon="-1.21273">
        <ele>54.8</ele>
        <time>2020-01-26T09:21:57Z</time>
      </trkpt>
      <trkpt lat="45.79034" lon="-1.21269">
        <ele>55</ele>
        <time>2020-01-26T09:21:58Z</time>
      </trkpt>
      <trkpt lat="45.79034" lon="-1.21266">
        <ele>55.2</ele>
        <time>2020-01-26T09:21:59Z</time>
      </trkpt>
      <trkpt lat="45.79035" lon="-1.21262">
        <ele>55.4</ele>
        <time>2020-01-26T09:22:00Z</time>
      </trkpt>
      <trkpt lat="45.79035" lon="-1.21258">
        <ele>55.8</ele>
        <time>2020-01-26T09:22:01Z</time>
      </trkpt>
      <trkpt lat="45.79036" lon="-1.21254">
        <ele>56.2</ele>
        <time>2020-01-26T09:22:02Z</time>
      </trkpt>
      <trkpt lat="45.79036" lon="-1.21249">
        <ele>56.2</ele>
        <time>2020-01-26T09:22:03Z</time>
      </trkpt>
      <trkpt lat="45.79033" lon="-1.21244">
        <ele>56.4</ele>
        <time>2020-01-26T09:22:04Z</time>
      </trkpt>
      <trkpt lat="45.79033" lon="-1.21238">
        <ele>56.2</ele>
        <time>2020-01-26T09:22:05Z</time>
      </trkpt>
      <trkpt lat="45.79035" lon="-1.21228">
        <ele>56</ele>
        <time>2020-01-26T09:22:06Z</time>
      </trkpt>
      <trkpt lat="45.79035" lon="-1.21219">
        <ele>55.6</ele>
        <time>2020-01-26T09:22:07Z</time>
      </trkpt>
      <trkpt lat="45.79034" lon="-1.21209">
        <ele>55.6</ele>
        <time>2020-01-26T09:22:08Z</time>
      </trkpt>
      <trkpt lat="45.79035" lon="-1.21199">
        <ele>55.6</ele>
        <time>2020-01-26T09:22:09Z</time>
      </trkpt>
      <trkpt lat="45.79037" lon="-1.21191">
        <ele>55.8</ele>
        <time>2020-01-26T09:22:10Z</time>
      </trkpt>
      <trkpt lat="45.7904" lon="-1.21183">
        <ele>55.8</ele>
        <time>2020-01-26T09:22:11Z</time>
      </trkpt>
      <trkpt lat="45.79042" lon="-1.21175">
        <ele>55.8</ele>
        <time>2020-01-26T09:22:12Z</time>
      </trkpt>
      <trkpt lat="45.79045" lon="-1.21167">
        <ele>55.8</ele>
        <time>2020-01-26T09:22:13Z</time>
      </trkpt>
      <trkpt lat="45.79046" lon="-1.21157">
        <ele>56</ele>
        <time>2020-01-26T09:22:14Z</time>
      </trkpt>
      <trkpt lat="45.79049" lon="-1.21148">
        <ele>56</ele>
        <time>2020-01-26T09:22:15Z</time>
      </trkpt>
      <trkpt lat="45.79049" lon="-1.21139">
        <ele>55.8</ele>
        <time>2020-01-26T09:22:16Z</time>
      </trkpt>
      <trkpt lat="45.79051" lon="-1.21131">
        <ele>55.8</ele>
        <time>2020-01-26T09:22:17Z</time>
      </trkpt>
      <trkpt lat="45.79054" lon="-1.21129">
        <ele>55.8</ele>
        <time>2020-01-26T09:22:18Z</time>
      </trkpt>
      <trkpt lat="45.79057" lon="-1.21133">
        <ele>55.8</ele>
        <time>2020-01-26T09:22:19Z</time>
      </trkpt>
      <trkpt lat="45.79061" lon="-1.21132">
        <ele>55.6</ele>
        <time>2020-01-26T09:22:20Z</time>
      </trkpt>
      <trkpt lat="45.79061" lon="-1.21131">
        <ele>55</ele>
        <time>2020-01-26T09:22:21Z</time>
      </trkpt>
      <trkpt lat="45.79065" lon="-1.21131">
        <ele>54.2</ele>
        <time>2020-01-26T09:22:22Z</time>
      </trkpt>
      <trkpt lat="45.79069" lon="-1.21132">
        <ele>53.8</ele>
        <time>2020-01-26T09:22:23Z</time>
      </trkpt>
      <trkpt lat="45.79074" lon="-1.2113">
        <ele>53.4</ele>
        <time>2020-01-26T09:22:24Z</time>
      </trkpt>
      <trkpt lat="45.79079" lon="-1.21127">
        <ele>53</ele>
        <time>2020-01-26T09:22:25Z</time>
      </trkpt>
      <trkpt lat="45.79081" lon="-1.21121">
        <ele>52.8</ele>
        <time>2020-01-26T09:22:26Z</time>
      </trkpt>
      <trkpt lat="45.79082" lon="-1.21115">
        <ele>52.6</ele>
        <time>2020-01-26T09:22:27Z</time>
      </trkpt>
      <trkpt lat="45.79084" lon="-1.21109">
        <ele>52.4</ele>
        <time>2020-01-26T09:22:28Z</time>
      </trkpt>
      <trkpt lat="45.79085" lon="-1.21102">
        <ele>52.4</ele>
        <time>2020-01-26T09:22:29Z</time>
      </trkpt>
      <trkpt lat="45.79086" lon="-1.21096">
        <ele>52.2</ele>
        <time>2020-01-26T09:22:30Z</time>
      </trkpt>
      <trkpt lat="45.79089" lon="-1.21091">
        <ele>52.4</ele>
        <time>2020-01-26T09:22:31Z</time>
      </trkpt>
      <trkpt lat="45.79093" lon="-1.21089">
        <ele>52.6</ele>
        <time>2020-01-26T09:22:32Z</time>
      </trkpt>
      <trkpt lat="45.79096" lon="-1.21092">
        <ele>53</ele>
        <time>2020-01-26T09:22:33Z</time>
      </trkpt>
      <trkpt lat="45.791" lon="-1.21094">
        <ele>53.8</ele>
        <time>2020-01-26T09:22:34Z</time>
      </trkpt>
      <trkpt lat="45.79101" lon="-1.21092">
        <ele>54</ele>
        <time>2020-01-26T09:22:35Z</time>
      </trkpt>
      <trkpt lat="45.79102" lon="-1.21086">
        <ele>54.6</ele>
        <time>2020-01-26T09:22:36Z</time>
      </trkpt>
      <trkpt lat="45.79103" lon="-1.21081">
        <ele>55</ele>
        <time>2020-01-26T09:22:37Z</time>
      </trkpt>
      <trkpt lat="45.79103" lon="-1.21076">
        <ele>55.2</ele>
        <time>2020-01-26T09:22:38Z</time>
      </trkpt>
      <trkpt lat="45.79105" lon="-1.2107">
        <ele>55.4</ele>
        <time>2020-01-26T09:22:39Z</time>
      </trkpt>
      <trkpt lat="45.79107" lon="-1.21063">
        <ele>55.6</ele>
        <time>2020-01-26T09:22:40Z</time>
      </trkpt>
      <trkpt lat="45.79108" lon="-1.21056">
        <ele>55.6</ele>
        <time>2020-01-26T09:22:41Z</time>
      </trkpt>
      <trkpt lat="45.7911" lon="-1.2105">
        <ele>56</ele>
        <time>2020-01-26T09:22:42Z</time>
      </trkpt>
      <trkpt lat="45.79113" lon="-1.21045">
        <ele>56.2</ele>
        <time>2020-01-26T09:22:43Z</time>
      </trkpt>
      <trkpt lat="45.79116" lon="-1.21041">
        <ele>56.2</ele>
        <time>2020-01-26T09:22:44Z</time>
      </trkpt>
      <trkpt lat="45.79119" lon="-1.21037">
        <ele>56.2</ele>
        <time>2020-01-26T09:22:45Z</time>
      </trkpt>
      <trkpt lat="45.79122" lon="-1.21031">
        <ele>56.6</ele>
        <time>2020-01-26T09:22:46Z</time>
      </trkpt>
      <trkpt lat="45.79124" lon="-1.21026">
        <ele>56.8</ele>
        <time>2020-01-26T09:22:47Z</time>
      </trkpt>
      <trkpt lat="45.79127" lon="-1.2102">
        <ele>56.8</ele>
        <time>2020-01-26T09:22:48Z</time>
      </trkpt>
      <trkpt lat="45.7913" lon="-1.21013">
        <ele>56.6</ele>
        <time>2020-01-26T09:22:49Z</time>
      </trkpt>
      <trkpt lat="45.79134" lon="-1.21007">
        <ele>56.4</ele>
        <time>2020-01-26T09:22:50Z</time>
      </trkpt>
      <trkpt lat="45.79138" lon="-1.21001">
        <ele>56.4</ele>
        <time>2020-01-26T09:22:51Z</time>
      </trkpt>
      <trkpt lat="45.79141" lon="-1.20996">
        <ele>56</ele>
        <time>2020-01-26T09:22:52Z</time>
      </trkpt>
      <trkpt lat="45.79145" lon="-1.20994">
        <ele>55.8</ele>
        <time>2020-01-26T09:22:53Z</time>
      </trkpt>
      <trkpt lat="45.79149" lon="-1.20994">
        <ele>55.6</ele>
        <time>2020-01-26T09:22:54Z</time>
      </trkpt>
      <trkpt lat="45.79153" lon="-1.20994">
        <ele>55.4</ele>
        <time>2020-01-26T09:22:55Z</time>
      </trkpt>
      <trkpt lat="45.79156" lon="-1.20992">
        <ele>55.2</ele>
        <time>2020-01-26T09:22:56Z</time>
      </trkpt>
      <trkpt lat="45.7916" lon="-1.20987">
        <ele>55</ele>
        <time>2020-01-26T09:22:57Z</time>
      </trkpt>
      <trkpt lat="45.79163" lon="-1.20982">
        <ele>55.2</ele>
        <time>2020-01-26T09:22:58Z</time>
      </trkpt>
      <trkpt lat="45.79166" lon="-1.20977">
        <ele>55.4</ele>
        <time>2020-01-26T09:22:59Z</time>
      </trkpt>
      <trkpt lat="45.79168" lon="-1.20973">
        <ele>55.6</ele>
        <time>2020-01-26T09:23:00Z</time>
      </trkpt>
      <trkpt lat="45.79168" lon="-1.20969">
        <ele>56</ele>
        <time>2020-01-26T09:23:01Z</time>
      </trkpt>
      <trkpt lat="45.79169" lon="-1.20965">
        <ele>56.2</ele>
        <time>2020-01-26T09:23:02Z</time>
      </trkpt>
      <trkpt lat="45.79168" lon="-1.20961">
        <ele>56.4</ele>
        <time>2020-01-26T09:23:03Z</time>
      </trkpt>
      <trkpt lat="45.79168" lon="-1.20956">
        <ele>56.2</ele>
        <time>2020-01-26T09:23:04Z</time>
      </trkpt>
      <trkpt lat="45.79169" lon="-1.20952">
        <ele>56.2</ele>
        <time>2020-01-26T09:23:05Z</time>
      </trkpt>
      <trkpt lat="45.79169" lon="-1.20948">
        <ele>56.2</ele>
        <time>2020-01-26T09:23:06Z</time>
      </trkpt>
      <trkpt lat="45.79171" lon="-1.20945">
        <ele>56.2</ele>
        <time>2020-01-26T09:23:07Z</time>
      </trkpt>
      <trkpt lat="45.79173" lon="-1.2094">
        <ele>56</ele>
        <time>2020-01-26T09:23:08Z</time>
      </trkpt>
      <trkpt lat="45.79173" lon="-1.20934">
        <ele>55.2</ele>
        <time>2020-01-26T09:23:09Z</time>
      </trkpt>
      <trkpt lat="45.79174" lon="-1.20929">
        <ele>54.4</ele>
        <time>2020-01-26T09:23:10Z</time>
      </trkpt>
      <trkpt lat="45.79175" lon="-1.20923">
        <ele>53.8</ele>
        <time>2020-01-26T09:23:11Z</time>
      </trkpt>
      <trkpt lat="45.79177" lon="-1.20915">
        <ele>53.6</ele>
        <time>2020-01-26T09:23:12Z</time>
      </trkpt>
      <trkpt lat="45.79177" lon="-1.20909">
        <ele>53.4</ele>
        <time>2020-01-26T09:23:13Z</time>
      </trkpt>
      <trkpt lat="45.79177" lon="-1.20905">
        <ele>53.4</ele>
        <time>2020-01-26T09:23:14Z</time>
      </trkpt>
      <trkpt lat="45.79176" lon="-1.20898">
        <ele>53.2</ele>
        <time>2020-01-26T09:23:15Z</time>
      </trkpt>
      <trkpt lat="45.79176" lon="-1.20891">
        <ele>52.6</ele>
        <time>2020-01-26T09:23:16Z</time>
      </trkpt>
      <trkpt lat="45.79177" lon="-1.20885">
        <ele>52</ele>
        <time>2020-01-26T09:23:17Z</time>
      </trkpt>
      <trkpt lat="45.79175" lon="-1.20877">
        <ele>51.2</ele>
        <time>2020-01-26T09:23:18Z</time>
      </trkpt>
      <trkpt lat="45.79171" lon="-1.20872">
        <ele>50.4</ele>
        <time>2020-01-26T09:23:19Z</time>
      </trkpt>
      <trkpt lat="45.79168" lon="-1.20866">
        <ele>50</ele>
        <time>2020-01-26T09:23:20Z</time>
      </trkpt>
      <trkpt lat="45.79166" lon="-1.2086">
        <ele>50</ele>
        <time>2020-01-26T09:23:21Z</time>
      </trkpt>
      <trkpt lat="45.79165" lon="-1.20856">
        <ele>50.4</ele>
        <time>2020-01-26T09:23:22Z</time>
      </trkpt>
      <trkpt lat="45.79163" lon="-1.20851">
        <ele>50.4</ele>
        <time>2020-01-26T09:23:23Z</time>
      </trkpt>
      <trkpt lat="45.79161" lon="-1.20846">
        <ele>50.6</ele>
        <time>2020-01-26T09:23:24Z</time>
      </trkpt>
      <trkpt lat="45.7916" lon="-1.20841">
        <ele>51</ele>
        <time>2020-01-26T09:23:25Z</time>
      </trkpt>
      <trkpt lat="45.7916" lon="-1.20836">
        <ele>51.2</ele>
        <time>2020-01-26T09:23:26Z</time>
      </trkpt>
      <trkpt lat="45.7916" lon="-1.20832">
        <ele>51.4</ele>
        <time>2020-01-26T09:23:27Z</time>
      </trkpt>
      <trkpt lat="45.79161" lon="-1.20831">
        <ele>51.6</ele>
        <time>2020-01-26T09:23:28Z</time>
      </trkpt>
      <trkpt lat="45.79161" lon="-1.2083">
        <ele>51.8</ele>
        <time>2020-01-26T09:23:29Z</time>
      </trkpt>
      <trkpt lat="45.79161" lon="-1.2083">
        <ele>52</ele>
        <time>2020-01-26T09:23:30Z</time>
      </trkpt>
      <trkpt lat="45.79162" lon="-1.20829">
        <ele>52</ele>
        <time>2020-01-26T09:23:31Z</time>
      </trkpt>
      <trkpt lat="45.79162" lon="-1.20829">
        <ele>52</ele>
        <time>2020-01-26T09:23:32Z</time>
      </trkpt>
      <trkpt lat="45.79162" lon="-1.20829">
        <ele>52</ele>
        <time>2020-01-26T09:23:33Z</time>
      </trkpt>
      <trkpt lat="45.79162" lon="-1.20829">
        <ele>52.2</ele>
        <time>2020-01-26T09:23:34Z</time>
      </trkpt>
      <trkpt lat="45.79162" lon="-1.20829">
        <ele>52.4</ele>
        <time>2020-01-26T09:23:35Z</time>
      </trkpt>
      <trkpt lat="45.79162" lon="-1.20828">
        <ele>52.8</ele>
        <time>2020-01-26T09:23:36Z</time>
      </trkpt>
      <trkpt lat="45.79162" lon="-1.20828">
        <ele>53.4</ele>
        <time>2020-01-26T09:23:37Z</time>
      </trkpt>
      <trkpt lat="45.79162" lon="-1.20828">
        <ele>54</ele>
        <time>2020-01-26T09:23:38Z</time>
      </trkpt>
      <trkpt lat="45.79162" lon="-1.20827">
        <ele>54.6</ele>
        <time>2020-01-26T09:23:39Z</time>
      </trkpt>
      <trkpt lat="45.79161" lon="-1.20827">
        <ele>55</ele>
        <time>2020-01-26T09:23:40Z</time>
      </trkpt>
      <trkpt lat="45.79161" lon="-1.20827">
        <ele>55.2</ele>
        <time>2020-01-26T09:23:41Z</time>
      </trkpt>
      <trkpt lat="45.79161" lon="-1.20827">
        <ele>55.4</ele>
        <time>2020-01-26T09:23:42Z</time>
      </trkpt>
      <trkpt lat="45.79161" lon="-1.20827">
        <ele>55.8</ele>
        <time>2020-01-26T09:23:43Z</time>
      </trkpt>
      <trkpt lat="45.79161" lon="-1.20826">
        <ele>55.8</ele>
        <time>2020-01-26T09:23:44Z</time>
      </trkpt>
      <trkpt lat="45.79163" lon="-1.20825">
        <ele>55.8</ele>
        <time>2020-01-26T09:23:45Z</time>
      </trkpt>
      <trkpt lat="45.79164" lon="-1.20823">
        <ele>55.6</ele>
        <time>2020-01-26T09:23:46Z</time>
      </trkpt>
      <trkpt lat="45.79163" lon="-1.20821">
        <ele>55.8</ele>
        <time>2020-01-26T09:23:47Z</time>
      </trkpt>
      <trkpt lat="45.79163" lon="-1.2082">
        <ele>56.2</ele>
        <time>2020-01-26T09:23:48Z</time>
      </trkpt>
      <trkpt lat="45.79163" lon="-1.20818">
        <ele>56.6</ele>
        <time>2020-01-26T09:23:49Z</time>
      </trkpt>
      <trkpt lat="45.79164" lon="-1.20817">
        <ele>57.2</ele>
        <time>2020-01-26T09:23:50Z</time>
      </trkpt>
      <trkpt lat="45.79164" lon="-1.20815">
        <ele>57.8</ele>
        <time>2020-01-26T09:23:51Z</time>
      </trkpt>
      <trkpt lat="45.79165" lon="-1.20812">
        <ele>58</ele>
        <time>2020-01-26T09:23:52Z</time>
      </trkpt>
      <trkpt lat="45.79165" lon="-1.2081">
        <ele>58.2</ele>
        <time>2020-01-26T09:23:53Z</time>
      </trkpt>
      <trkpt lat="45.79163" lon="-1.20806">
        <ele>58.4</ele>
        <time>2020-01-26T09:23:54Z</time>
      </trkpt>
      <trkpt lat="45.79163" lon="-1.20805">
        <ele>58</ele>
        <time>2020-01-26T09:23:55Z</time>
      </trkpt>
      <trkpt lat="45.79162" lon="-1.20803">
        <ele>57.8</ele>
        <time>2020-01-26T09:23:56Z</time>
      </trkpt>
      <trkpt lat="45.79162" lon="-1.20802">
        <ele>57.6</ele>
        <time>2020-01-26T09:23:57Z</time>
      </trkpt>
      <trkpt lat="45.79161" lon="-1.20799">
        <ele>57.2</ele>
        <time>2020-01-26T09:23:58Z</time>
      </trkpt>
      <trkpt lat="45.79161" lon="-1.20796">
        <ele>56.8</ele>
        <time>2020-01-26T09:23:59Z</time>
      </trkpt>
      <trkpt lat="45.79163" lon="-1.20789">
        <ele>56.4</ele>
        <time>2020-01-26T09:24:00Z</time>
      </trkpt>
      <trkpt lat="45.79165" lon="-1.20783">
        <ele>56</ele>
        <time>2020-01-26T09:24:01Z</time>
      </trkpt>
      <trkpt lat="45.79166" lon="-1.20776">
        <ele>56.2</ele>
        <time>2020-01-26T09:24:02Z</time>
      </trkpt>
      <trkpt lat="45.79167" lon="-1.20769">
        <ele>56.4</ele>
        <time>2020-01-26T09:24:03Z</time>
      </trkpt>
      <trkpt lat="45.79169" lon="-1.20764">
        <ele>56.8</ele>
        <time>2020-01-26T09:24:04Z</time>
      </trkpt>
      <trkpt lat="45.7917" lon="-1.20761">
        <ele>57.4</ele>
        <time>2020-01-26T09:24:05Z</time>
      </trkpt>
      <trkpt lat="45.79171" lon="-1.20758">
        <ele>58</ele>
        <time>2020-01-26T09:24:06Z</time>
      </trkpt>
      <trkpt lat="45.79173" lon="-1.20756">
        <ele>58.2</ele>
        <time>2020-01-26T09:24:07Z</time>
      </trkpt>
      <trkpt lat="45.79176" lon="-1.20753">
        <ele>58.2</ele>
        <time>2020-01-26T09:24:08Z</time>
      </trkpt>
      <trkpt lat="45.79178" lon="-1.20749">
        <ele>58.2</ele>
        <time>2020-01-26T09:24:09Z</time>
      </trkpt>
      <trkpt lat="45.79179" lon="-1.20745">
        <ele>58.2</ele>
        <time>2020-01-26T09:24:10Z</time>
      </trkpt>
      <trkpt lat="45.7918" lon="-1.20741">
        <ele>58.2</ele>
        <time>2020-01-26T09:24:11Z</time>
      </trkpt>
      <trkpt lat="45.79179" lon="-1.20737">
        <ele>58.4</ele>
        <time>2020-01-26T09:24:12Z</time>
      </trkpt>
      <trkpt lat="45.79177" lon="-1.20733">
        <ele>58.6</ele>
        <time>2020-01-26T09:24:13Z</time>
      </trkpt>
      <trkpt lat="45.79174" lon="-1.20728">
        <ele>59</ele>
        <time>2020-01-26T09:24:14Z</time>
      </trkpt>
      <trkpt lat="45.79172" lon="-1.20724">
        <ele>59.6</ele>
        <time>2020-01-26T09:24:15Z</time>
      </trkpt>
      <trkpt lat="45.79171" lon="-1.2072">
        <ele>60.4</ele>
        <time>2020-01-26T09:24:16Z</time>
      </trkpt>
      <trkpt lat="45.79171" lon="-1.20715">
        <ele>61.2</ele>
        <time>2020-01-26T09:24:17Z</time>
      </trkpt>
      <trkpt lat="45.79171" lon="-1.20711">
        <ele>61.6</ele>
        <time>2020-01-26T09:24:18Z</time>
      </trkpt>
      <trkpt lat="45.79171" lon="-1.20705">
        <ele>62</ele>
        <time>2020-01-26T09:24:19Z</time>
      </trkpt>
      <trkpt lat="45.79172" lon="-1.207">
        <ele>62</ele>
        <time>2020-01-26T09:24:20Z</time>
      </trkpt>
      <trkpt lat="45.79173" lon="-1.20695">
        <ele>62</ele>
        <time>2020-01-26T09:24:21Z</time>
      </trkpt>
      <trkpt lat="45.79173" lon="-1.20688">
        <ele>61.8</ele>
        <time>2020-01-26T09:24:22Z</time>
      </trkpt>
      <trkpt lat="45.79173" lon="-1.20682">
        <ele>61.6</ele>
        <time>2020-01-26T09:24:23Z</time>
      </trkpt>
      <trkpt lat="45.79174" lon="-1.20676">
        <ele>61.4</ele>
        <time>2020-01-26T09:24:24Z</time>
      </trkpt>
      <trkpt lat="45.79175" lon="-1.20669">
        <ele>61</ele>
        <time>2020-01-26T09:24:25Z</time>
      </trkpt>
      <trkpt lat="45.79175" lon="-1.20662">
        <ele>60.8</ele>
        <time>2020-01-26T09:24:26Z</time>
      </trkpt>
      <trkpt lat="45.79176" lon="-1.20656">
        <ele>60.4</ele>
        <time>2020-01-26T09:24:27Z</time>
      </trkpt>
      <trkpt lat="45.79177" lon="-1.2065">
        <ele>60.2</ele>
        <time>2020-01-26T09:24:28Z</time>
      </trkpt>
      <trkpt lat="45.79179" lon="-1.20645">
        <ele>60.2</ele>
        <time>2020-01-26T09:24:29Z</time>
      </trkpt>
      <trkpt lat="45.79181" lon="-1.20641">
        <ele>60.4</ele>
        <time>2020-01-26T09:24:30Z</time>
      </trkpt>
      <trkpt lat="45.79181" lon="-1.20633">
        <ele>60.2</ele>
        <time>2020-01-26T09:24:31Z</time>
      </trkpt>
      <trkpt lat="45.79181" lon="-1.20625">
        <ele>60.2</ele>
        <time>2020-01-26T09:24:32Z</time>
      </trkpt>
      <trkpt lat="45.79184" lon="-1.20619">
        <ele>60.4</ele>
        <time>2020-01-26T09:24:33Z</time>
      </trkpt>
      <trkpt lat="45.79188" lon="-1.20612">
        <ele>60.6</ele>
        <time>2020-01-26T09:24:34Z</time>
      </trkpt>
      <trkpt lat="45.79193" lon="-1.20608">
        <ele>60.6</ele>
        <time>2020-01-26T09:24:35Z</time>
      </trkpt>
      <trkpt lat="45.79199" lon="-1.20604">
        <ele>60.4</ele>
        <time>2020-01-26T09:24:36Z</time>
      </trkpt>
      <trkpt lat="45.79204" lon="-1.20599">
        <ele>60.4</ele>
        <time>2020-01-26T09:24:37Z</time>
      </trkpt>
      <trkpt lat="45.79208" lon="-1.20595">
        <ele>60.6</ele>
        <time>2020-01-26T09:24:38Z</time>
      </trkpt>
      <trkpt lat="45.7921" lon="-1.20591">
        <ele>60.4</ele>
        <time>2020-01-26T09:24:39Z</time>
      </trkpt>
      <trkpt lat="45.79211" lon="-1.20586">
        <ele>60.6</ele>
        <time>2020-01-26T09:24:40Z</time>
      </trkpt>
      <trkpt lat="45.79214" lon="-1.20582">
        <ele>61</ele>
        <time>2020-01-26T09:24:41Z</time>
      </trkpt>
      <trkpt lat="45.79218" lon="-1.20579">
        <ele>61.2</ele>
        <time>2020-01-26T09:24:42Z</time>
      </trkpt>
      <trkpt lat="45.79221" lon="-1.20578">
        <ele>61.4</ele>
        <time>2020-01-26T09:24:43Z</time>
      </trkpt>
      <trkpt lat="45.79222" lon="-1.20576">
        <ele>61.6</ele>
        <time>2020-01-26T09:24:44Z</time>
      </trkpt>
      <trkpt lat="45.79225" lon="-1.20574">
        <ele>62</ele>
        <time>2020-01-26T09:24:45Z</time>
      </trkpt>
      <trkpt lat="45.79223" lon="-1.20571">
        <ele>62.2</ele>
        <time>2020-01-26T09:24:46Z</time>
      </trkpt>
      <trkpt lat="45.79221" lon="-1.20565">
        <ele>61.8</ele>
        <time>2020-01-26T09:24:47Z</time>
      </trkpt>
      <trkpt lat="45.7922" lon="-1.20559">
        <ele>61</ele>
        <time>2020-01-26T09:24:48Z</time>
      </trkpt>
      <trkpt lat="45.79219" lon="-1.20552">
        <ele>60</ele>
        <time>2020-01-26T09:24:49Z</time>
      </trkpt>
      <trkpt lat="45.79219" lon="-1.20542">
        <ele>59.6</ele>
        <time>2020-01-26T09:24:50Z</time>
      </trkpt>
      <trkpt lat="45.79221" lon="-1.20537">
        <ele>59.2</ele>
        <time>2020-01-26T09:24:51Z</time>
      </trkpt>
      <trkpt lat="45.79223" lon="-1.20532">
        <ele>58.6</ele>
        <time>2020-01-26T09:24:52Z</time>
      </trkpt>
      <trkpt lat="45.79221" lon="-1.2053">
        <ele>58.2</ele>
        <time>2020-01-26T09:24:53Z</time>
      </trkpt>
      <trkpt lat="45.79219" lon="-1.20528">
        <ele>57.6</ele>
        <time>2020-01-26T09:24:54Z</time>
      </trkpt>
      <trkpt lat="45.79218" lon="-1.20523">
        <ele>57.2</ele>
        <time>2020-01-26T09:24:55Z</time>
      </trkpt>
      <trkpt lat="45.79218" lon="-1.20517">
        <ele>57.2</ele>
        <time>2020-01-26T09:24:56Z</time>
      </trkpt>
      <trkpt lat="45.79216" lon="-1.20511">
        <ele>56.8</ele>
        <time>2020-01-26T09:24:57Z</time>
      </trkpt>
      <trkpt lat="45.79214" lon="-1.20505">
        <ele>56.6</ele>
        <time>2020-01-26T09:24:58Z</time>
      </trkpt>
      <trkpt lat="45.79211" lon="-1.20501">
        <ele>56.4</ele>
        <time>2020-01-26T09:24:59Z</time>
      </trkpt>
      <trkpt lat="45.79207" lon="-1.20505">
        <ele>56.4</ele>
        <time>2020-01-26T09:25:00Z</time>
      </trkpt>
      <trkpt lat="45.79205" lon="-1.20505">
        <ele>56</ele>
        <time>2020-01-26T09:25:01Z</time>
      </trkpt>
      <trkpt lat="45.79203" lon="-1.20502">
        <ele>56</ele>
        <time>2020-01-26T09:25:02Z</time>
      </trkpt>
      <trkpt lat="45.79202" lon="-1.20498">
        <ele>55.8</ele>
        <time>2020-01-26T09:25:03Z</time>
      </trkpt>
      <trkpt lat="45.79198" lon="-1.20492">
        <ele>55.6</ele>
        <time>2020-01-26T09:25:04Z</time>
      </trkpt>
      <trkpt lat="45.79196" lon="-1.20488">
        <ele>55.8</ele>
        <time>2020-01-26T09:25:05Z</time>
      </trkpt>
      <trkpt lat="45.79193" lon="-1.20485">
        <ele>56</ele>
        <time>2020-01-26T09:25:06Z</time>
      </trkpt>
      <trkpt lat="45.7919" lon="-1.20484">
        <ele>56.2</ele>
        <time>2020-01-26T09:25:07Z</time>
      </trkpt>
      <trkpt lat="45.79188" lon="-1.20482">
        <ele>56.8</ele>
        <time>2020-01-26T09:25:08Z</time>
      </trkpt>
      <trkpt lat="45.79187" lon="-1.20478">
        <ele>57.2</ele>
        <time>2020-01-26T09:25:09Z</time>
      </trkpt>
      <trkpt lat="45.79189" lon="-1.20474">
        <ele>57.4</ele>
        <time>2020-01-26T09:25:10Z</time>
      </trkpt>
      <trkpt lat="45.79188" lon="-1.20467">
        <ele>57.4</ele>
        <time>2020-01-26T09:25:11Z</time>
      </trkpt>
      <trkpt lat="45.79185" lon="-1.20463">
        <ele>57</ele>
        <time>2020-01-26T09:25:12Z</time>
      </trkpt>
      <trkpt lat="45.79184" lon="-1.20459">
        <ele>56.2</ele>
        <time>2020-01-26T09:25:13Z</time>
      </trkpt>
      <trkpt lat="45.79182" lon="-1.20453">
        <ele>55.6</ele>
        <time>2020-01-26T09:25:14Z</time>
      </trkpt>
      <trkpt lat="45.79182" lon="-1.20447">
        <ele>55.2</ele>
        <time>2020-01-26T09:25:15Z</time>
      </trkpt>
      <trkpt lat="45.79183" lon="-1.20442">
        <ele>54.6</ele>
        <time>2020-01-26T09:25:16Z</time>
      </trkpt>
      <trkpt lat="45.79185" lon="-1.20434">
        <ele>54.2</ele>
        <time>2020-01-26T09:25:17Z</time>
      </trkpt>
      <trkpt lat="45.79186" lon="-1.20427">
        <ele>54.2</ele>
        <time>2020-01-26T09:25:18Z</time>
      </trkpt>
      <trkpt lat="45.79186" lon="-1.20421">
        <ele>54</ele>
        <time>2020-01-26T09:25:19Z</time>
      </trkpt>
      <trkpt lat="45.79186" lon="-1.20414">
        <ele>54.2</ele>
        <time>2020-01-26T09:25:20Z</time>
      </trkpt>
      <trkpt lat="45.79187" lon="-1.2041">
        <ele>55.2</ele>
        <time>2020-01-26T09:25:21Z</time>
      </trkpt>
      <trkpt lat="45.79188" lon="-1.20406">
        <ele>56.2</ele>
        <time>2020-01-26T09:25:22Z</time>
      </trkpt>
      <trkpt lat="45.79191" lon="-1.20399">
        <ele>56.4</ele>
        <time>2020-01-26T09:25:23Z</time>
      </trkpt>
      <trkpt lat="45.79192" lon="-1.20394">
        <ele>56.2</ele>
        <time>2020-01-26T09:25:24Z</time>
      </trkpt>
      <trkpt lat="45.79192" lon="-1.20389">
        <ele>56.4</ele>
        <time>2020-01-26T09:25:25Z</time>
      </trkpt>
      <trkpt lat="45.79193" lon="-1.20383">
        <ele>56.6</ele>
        <time>2020-01-26T09:25:26Z</time>
      </trkpt>
      <trkpt lat="45.79193" lon="-1.20378">
        <ele>56.6</ele>
        <time>2020-01-26T09:25:27Z</time>
      </trkpt>
      <trkpt lat="45.79192" lon="-1.20374">
        <ele>56.2</ele>
        <time>2020-01-26T09:25:28Z</time>
      </trkpt>
      <trkpt lat="45.7919" lon="-1.20371">
        <ele>56</ele>
        <time>2020-01-26T09:25:29Z</time>
      </trkpt>
      <trkpt lat="45.79188" lon="-1.20368">
        <ele>56</ele>
        <time>2020-01-26T09:25:30Z</time>
      </trkpt>
      <trkpt lat="45.79187" lon="-1.20364">
        <ele>56</ele>
        <time>2020-01-26T09:25:31Z</time>
      </trkpt>
      <trkpt lat="45.79187" lon="-1.20362">
        <ele>56</ele>
        <time>2020-01-26T09:25:32Z</time>
      </trkpt>
      <trkpt lat="45.7919" lon="-1.20359">
        <ele>55.4</ele>
        <time>2020-01-26T09:25:33Z</time>
      </trkpt>
      <trkpt lat="45.79192" lon="-1.20355">
        <ele>54.8</ele>
        <time>2020-01-26T09:25:34Z</time>
      </trkpt>
      <trkpt lat="45.79191" lon="-1.20352">
        <ele>54</ele>
        <time>2020-01-26T09:25:35Z</time>
      </trkpt>
      <trkpt lat="45.79188" lon="-1.20348">
        <ele>53.6</ele>
        <time>2020-01-26T09:25:36Z</time>
      </trkpt>
      <trkpt lat="45.79185" lon="-1.20344">
        <ele>53</ele>
        <time>2020-01-26T09:25:37Z</time>
      </trkpt>
      <trkpt lat="45.79182" lon="-1.2034">
        <ele>52.6</ele>
        <time>2020-01-26T09:25:38Z</time>
      </trkpt>
      <trkpt lat="45.79181" lon="-1.20336">
        <ele>52.2</ele>
        <time>2020-01-26T09:25:39Z</time>
      </trkpt>
      <trkpt lat="45.79178" lon="-1.20332">
        <ele>52.2</ele>
        <time>2020-01-26T09:25:40Z</time>
      </trkpt>
      <trkpt lat="45.79177" lon="-1.20328">
        <ele>52.4</ele>
        <time>2020-01-26T09:25:41Z</time>
      </trkpt>
      <trkpt lat="45.79175" lon="-1.20324">
        <ele>52.4</ele>
        <time>2020-01-26T09:25:42Z</time>
      </trkpt>
      <trkpt lat="45.79173" lon="-1.2032">
        <ele>52.2</ele>
        <time>2020-01-26T09:25:43Z</time>
      </trkpt>
      <trkpt lat="45.7917" lon="-1.20317">
        <ele>52.4</ele>
        <time>2020-01-26T09:25:44Z</time>
      </trkpt>
      <trkpt lat="45.79167" lon="-1.20315">
        <ele>52.6</ele>
        <time>2020-01-26T09:25:45Z</time>
      </trkpt>
      <trkpt lat="45.79165" lon="-1.20313">
        <ele>53</ele>
        <time>2020-01-26T09:25:46Z</time>
      </trkpt>
      <trkpt lat="45.79162" lon="-1.20311">
        <ele>53</ele>
        <time>2020-01-26T09:25:47Z</time>
      </trkpt>
      <trkpt lat="45.7916" lon="-1.2031">
        <ele>53.2</ele>
        <time>2020-01-26T09:25:48Z</time>
      </trkpt>
      <trkpt lat="45.79156" lon="-1.20309">
        <ele>53.8</ele>
        <time>2020-01-26T09:25:49Z</time>
      </trkpt>
      <trkpt lat="45.79153" lon="-1.20308">
        <ele>54.4</ele>
        <time>2020-01-26T09:25:50Z</time>
      </trkpt>
      <trkpt lat="45.79151" lon="-1.20306">
        <ele>55</ele>
        <time>2020-01-26T09:25:51Z</time>
      </trkpt>
      <trkpt lat="45.79148" lon="-1.20303">
        <ele>55.8</ele>
        <time>2020-01-26T09:25:52Z</time>
      </trkpt>
      <trkpt lat="45.79146" lon="-1.20301">
        <ele>55.8</ele>
        <time>2020-01-26T09:25:53Z</time>
      </trkpt>
      <trkpt lat="45.79143" lon="-1.20299">
        <ele>55.6</ele>
        <time>2020-01-26T09:25:54Z</time>
      </trkpt>
      <trkpt lat="45.7914" lon="-1.20297">
        <ele>56</ele>
        <time>2020-01-26T09:25:55Z</time>
      </trkpt>
      <trkpt lat="45.79138" lon="-1.20292">
        <ele>56</ele>
        <time>2020-01-26T09:25:56Z</time>
      </trkpt>
      <trkpt lat="45.79137" lon="-1.20288">
        <ele>55.8</ele>
        <time>2020-01-26T09:25:57Z</time>
      </trkpt>
      <trkpt lat="45.79136" lon="-1.20283">
        <ele>55.8</ele>
        <time>2020-01-26T09:25:58Z</time>
      </trkpt>
      <trkpt lat="45.79134" lon="-1.20278">
        <ele>55.8</ele>
        <time>2020-01-26T09:25:59Z</time>
      </trkpt>
      <trkpt lat="45.79132" lon="-1.20277">
        <ele>55.8</ele>
        <time>2020-01-26T09:26:00Z</time>
      </trkpt>
      <trkpt lat="45.79128" lon="-1.20274">
        <ele>56</ele>
        <time>2020-01-26T09:26:01Z</time>
      </trkpt>
      <trkpt lat="45.79124" lon="-1.2027">
        <ele>56</ele>
        <time>2020-01-26T09:26:02Z</time>
      </trkpt>
      <trkpt lat="45.79121" lon="-1.20267">
        <ele>56</ele>
        <time>2020-01-26T09:26:03Z</time>
      </trkpt>
      <trkpt lat="45.79117" lon="-1.20263">
        <ele>56</ele>
        <time>2020-01-26T09:26:04Z</time>
      </trkpt>
      <trkpt lat="45.79114" lon="-1.20258">
        <ele>56</ele>
        <time>2020-01-26T09:26:05Z</time>
      </trkpt>
      <trkpt lat="45.79111" lon="-1.20255">
        <ele>56</ele>
        <time>2020-01-26T09:26:06Z</time>
      </trkpt>
      <trkpt lat="45.79107" lon="-1.20251">
        <ele>55.8</ele>
        <time>2020-01-26T09:26:07Z</time>
      </trkpt>
      <trkpt lat="45.79104" lon="-1.20247">
        <ele>55.6</ele>
        <time>2020-01-26T09:26:08Z</time>
      </trkpt>
      <trkpt lat="45.79103" lon="-1.20241">
        <ele>55.2</ele>
        <time>2020-01-26T09:26:09Z</time>
      </trkpt>
      <trkpt lat="45.79102" lon="-1.20236">
        <ele>55.2</ele>
        <time>2020-01-26T09:26:10Z</time>
      </trkpt>
      <trkpt lat="45.79101" lon="-1.20229">
        <ele>55</ele>
        <time>2020-01-26T09:26:11Z</time>
      </trkpt>
      <trkpt lat="45.79101" lon="-1.20222">
        <ele>55</ele>
        <time>2020-01-26T09:26:12Z</time>
      </trkpt>
      <trkpt lat="45.79102" lon="-1.20216">
        <ele>54.8</ele>
        <time>2020-01-26T09:26:13Z</time>
      </trkpt>
      <trkpt lat="45.79102" lon="-1.2021">
        <ele>55.2</ele>
        <time>2020-01-26T09:26:14Z</time>
      </trkpt>
      <trkpt lat="45.79102" lon="-1.20204">
        <ele>55.4</ele>
        <time>2020-01-26T09:26:15Z</time>
      </trkpt>
      <trkpt lat="45.79103" lon="-1.20198">
        <ele>55.6</ele>
        <time>2020-01-26T09:26:16Z</time>
      </trkpt>
      <trkpt lat="45.79103" lon="-1.20193">
        <ele>55.6</ele>
        <time>2020-01-26T09:26:17Z</time>
      </trkpt>
      <trkpt lat="45.79105" lon="-1.20188">
        <ele>56</ele>
        <time>2020-01-26T09:26:18Z</time>
      </trkpt>
      <trkpt lat="45.79108" lon="-1.20185">
        <ele>56.6</ele>
        <time>2020-01-26T09:26:19Z</time>
      </trkpt>
      <trkpt lat="45.79111" lon="-1.20182">
        <ele>56.8</ele>
        <time>2020-01-26T09:26:20Z</time>
      </trkpt>
      <trkpt lat="45.79115" lon="-1.20183">
        <ele>57.2</ele>
        <time>2020-01-26T09:26:21Z</time>
      </trkpt>
      <trkpt lat="45.79119" lon="-1.20184">
        <ele>56.8</ele>
        <time>2020-01-26T09:26:22Z</time>
      </trkpt>
      <trkpt lat="45.79123" lon="-1.20182">
        <ele>56.6</ele>
        <time>2020-01-26T09:26:23Z</time>
      </trkpt>
      <trkpt lat="45.79126" lon="-1.20178">
        <ele>55.8</ele>
        <time>2020-01-26T09:26:24Z</time>
      </trkpt>
      <trkpt lat="45.79127" lon="-1.20172">
        <ele>55.2</ele>
        <time>2020-01-26T09:26:25Z</time>
      </trkpt>
      <trkpt lat="45.79124" lon="-1.20166">
        <ele>55</ele>
        <time>2020-01-26T09:26:26Z</time>
      </trkpt>
      <trkpt lat="45.79124" lon="-1.20161">
        <ele>54.6</ele>
        <time>2020-01-26T09:26:27Z</time>
      </trkpt>
      <trkpt lat="45.79121" lon="-1.20154">
        <ele>54.2</ele>
        <time>2020-01-26T09:26:28Z</time>
      </trkpt>
      <trkpt lat="45.79119" lon="-1.20148">
        <ele>53.6</ele>
        <time>2020-01-26T09:26:29Z</time>
      </trkpt>
      <trkpt lat="45.79118" lon="-1.20141">
        <ele>53.2</ele>
        <time>2020-01-26T09:26:30Z</time>
      </trkpt>
      <trkpt lat="45.79116" lon="-1.20134">
        <ele>53</ele>
        <time>2020-01-26T09:26:31Z</time>
      </trkpt>
      <trkpt lat="45.79114" lon="-1.20129">
        <ele>52.4</ele>
        <time>2020-01-26T09:26:32Z</time>
      </trkpt>
      <trkpt lat="45.79112" lon="-1.20124">
        <ele>52.2</ele>
        <time>2020-01-26T09:26:33Z</time>
      </trkpt>
      <trkpt lat="45.79111" lon="-1.20118">
        <ele>51.8</ele>
        <time>2020-01-26T09:26:34Z</time>
      </trkpt>
      <trkpt lat="45.7911" lon="-1.20112">
        <ele>51.4</ele>
        <time>2020-01-26T09:26:35Z</time>
      </trkpt>
      <trkpt lat="45.79108" lon="-1.20106">
        <ele>51</ele>
        <time>2020-01-26T09:26:36Z</time>
      </trkpt>
      <trkpt lat="45.79107" lon="-1.20099">
        <ele>50.8</ele>
        <time>2020-01-26T09:26:37Z</time>
      </trkpt>
      <trkpt lat="45.79106" lon="-1.20093">
        <ele>50.6</ele>
        <time>2020-01-26T09:26:38Z</time>
      </trkpt>
      <trkpt lat="45.79105" lon="-1.20086">
        <ele>50.6</ele>
        <time>2020-01-26T09:26:39Z</time>
      </trkpt>
      <trkpt lat="45.79103" lon="-1.20081">
        <ele>50.8</ele>
        <time>2020-01-26T09:26:40Z</time>
      </trkpt>
      <trkpt lat="45.79102" lon="-1.20076">
        <ele>50.8</ele>
        <time>2020-01-26T09:26:41Z</time>
      </trkpt>
      <trkpt lat="45.79102" lon="-1.20072">
        <ele>51.2</ele>
        <time>2020-01-26T09:26:42Z</time>
      </trkpt>
      <trkpt lat="45.791" lon="-1.20067">
        <ele>51.4</ele>
        <time>2020-01-26T09:26:43Z</time>
      </trkpt>
      <trkpt lat="45.79099" lon="-1.20065">
        <ele>51.8</ele>
        <time>2020-01-26T09:26:44Z</time>
      </trkpt>
      <trkpt lat="45.79099" lon="-1.20064">
        <ele>52</ele>
        <time>2020-01-26T09:26:45Z</time>
      </trkpt>
      <trkpt lat="45.791" lon="-1.20065">
        <ele>52.4</ele>
        <time>2020-01-26T09:26:46Z</time>
      </trkpt>
      <trkpt lat="45.791" lon="-1.20065">
        <ele>52.4</ele>
        <time>2020-01-26T09:26:47Z</time>
      </trkpt>
      <trkpt lat="45.79099" lon="-1.20065">
        <ele>52.6</ele>
        <time>2020-01-26T09:26:48Z</time>
      </trkpt>
      <trkpt lat="45.79099" lon="-1.20065">
        <ele>52.8</ele>
        <time>2020-01-26T09:26:49Z</time>
      </trkpt>
      <trkpt lat="45.791" lon="-1.20064">
        <ele>52.8</ele>
        <time>2020-01-26T09:26:50Z</time>
      </trkpt>
      <trkpt lat="45.791" lon="-1.20064">
        <ele>53.2</ele>
        <time>2020-01-26T09:26:51Z</time>
      </trkpt>
      <trkpt lat="45.791" lon="-1.20063">
        <ele>53.4</ele>
        <time>2020-01-26T09:26:52Z</time>
      </trkpt>
      <trkpt lat="45.791" lon="-1.20063">
        <ele>53.4</ele>
        <time>2020-01-26T09:26:53Z</time>
      </trkpt>
      <trkpt lat="45.791" lon="-1.20063">
        <ele>53.4</ele>
        <time>2020-01-26T09:26:54Z</time>
      </trkpt>
      <trkpt lat="45.791" lon="-1.20063">
        <ele>53.6</ele>
        <time>2020-01-26T09:26:55Z</time>
      </trkpt>
      <trkpt lat="45.791" lon="-1.20063">
        <ele>53.6</ele>
        <time>2020-01-26T09:26:56Z</time>
      </trkpt>
      <trkpt lat="45.791" lon="-1.20063">
        <ele>53.8</ele>
        <time>2020-01-26T09:26:57Z</time>
      </trkpt>
      <trkpt lat="45.791" lon="-1.20063">
        <ele>53.8</ele>
        <time>2020-01-26T09:26:58Z</time>
      </trkpt>
      <trkpt lat="45.791" lon="-1.20063">
        <ele>53.8</ele>
        <time>2020-01-26T09:26:59Z</time>
      </trkpt>
      <trkpt lat="45.791" lon="-1.20063">
        <ele>53.8</ele>
        <time>2020-01-26T09:27:00Z</time>
      </trkpt>
      <trkpt lat="45.791" lon="-1.20063">
        <ele>54</ele>
        <time>2020-01-26T09:27:01Z</time>
      </trkpt>
      <trkpt lat="45.791" lon="-1.20063">
        <ele>54</ele>
        <time>2020-01-26T09:27:02Z</time>
      </trkpt>
      <trkpt lat="45.791" lon="-1.20063">
        <ele>54</ele>
        <time>2020-01-26T09:27:03Z</time>
      </trkpt>
      <trkpt lat="45.791" lon="-1.20063">
        <ele>54</ele>
        <time>2020-01-26T09:27:04Z</time>
      </trkpt>
      <trkpt lat="45.791" lon="-1.20064">
        <ele>54</ele>
        <time>2020-01-26T09:27:05Z</time>
      </trkpt>
      <trkpt lat="45.79101" lon="-1.20064">
        <ele>54.2</ele>
        <time>2020-01-26T09:27:06Z</time>
      </trkpt>
      <trkpt lat="45.79101" lon="-1.20064">
        <ele>54.4</ele>
        <time>2020-01-26T09:27:07Z</time>
      </trkpt>
      <trkpt lat="45.79101" lon="-1.20064">
        <ele>54.6</ele>
        <time>2020-01-26T09:27:08Z</time>
      </trkpt>
      <trkpt lat="45.79101" lon="-1.20064">
        <ele>54.6</ele>
        <time>2020-01-26T09:27:09Z</time>
      </trkpt>
      <trkpt lat="45.79101" lon="-1.20064">
        <ele>54.8</ele>
        <time>2020-01-26T09:27:10Z</time>
      </trkpt>
      <trkpt lat="45.79101" lon="-1.20064">
        <ele>54.8</ele>
        <time>2020-01-26T09:27:11Z</time>
      </trkpt>
      <trkpt lat="45.79101" lon="-1.20064">
        <ele>54.8</ele>
        <time>2020-01-26T09:27:12Z</time>
      </trkpt>
      <trkpt lat="45.79101" lon="-1.20064">
        <ele>54.8</ele>
        <time>2020-01-26T09:27:13Z</time>
      </trkpt>
      <trkpt lat="45.79101" lon="-1.20064">
        <ele>55</ele>
        <time>2020-01-26T09:27:14Z</time>
      </trkpt>
      <trkpt lat="45.79101" lon="-1.20064">
        <ele>54.6</ele>
        <time>2020-01-26T09:27:15Z</time>
      </trkpt>
      <trkpt lat="45.79101" lon="-1.20064">
        <ele>54.6</ele>
        <time>2020-01-26T09:27:16Z</time>
      </trkpt>
      <trkpt lat="45.79101" lon="-1.20064">
        <ele>54.4</ele>
        <time>2020-01-26T09:27:17Z</time>
      </trkpt>
      <trkpt lat="45.79102" lon="-1.20064">
        <ele>54.2</ele>
        <time>2020-01-26T09:27:18Z</time>
      </trkpt>
      <trkpt lat="45.79102" lon="-1.20064">
        <ele>54.2</ele>
        <time>2020-01-26T09:27:19Z</time>
      </trkpt>
      <trkpt lat="45.79102" lon="-1.20064">
        <ele>54.2</ele>
        <time>2020-01-26T09:27:20Z</time>
      </trkpt>
      <trkpt lat="45.79102" lon="-1.20064">
        <ele>54.2</ele>
        <time>2020-01-26T09:27:21Z</time>
      </trkpt>
      <trkpt lat="45.79102" lon="-1.20064">
        <ele>54</ele>
        <time>2020-01-26T09:27:22Z</time>
      </trkpt>
      <trkpt lat="45.79102" lon="-1.20064">
        <ele>54</ele>
        <time>2020-01-26T09:27:23Z</time>
      </trkpt>
      <trkpt lat="45.79102" lon="-1.20064">
        <ele>54</ele>
        <time>2020-01-26T09:27:24Z</time>
      </trkpt>
      <trkpt lat="45.79102" lon="-1.20064">
        <ele>54</ele>
        <time>2020-01-26T09:27:25Z</time>
      </trkpt>
      <trkpt lat="45.79102" lon="-1.20064">
        <ele>54</ele>
        <time>2020-01-26T09:27:26Z</time>
      </trkpt>
      <trkpt lat="45.79102" lon="-1.20064">
        <ele>54</ele>
        <time>2020-01-26T09:27:27Z</time>
      </trkpt>
      <trkpt lat="45.79102" lon="-1.20064">
        <ele>54</ele>
        <time>2020-01-26T09:27:28Z</time>
      </trkpt>
      <trkpt lat="45.79102" lon="-1.20064">
        <ele>54</ele>
        <time>2020-01-26T09:27:29Z</time>
      </trkpt>
      <trkpt lat="45.79102" lon="-1.20064">
        <ele>54</ele>
        <time>2020-01-26T09:27:30Z</time>
      </trkpt>
      <trkpt lat="45.79102" lon="-1.20064">
        <ele>54</ele>
        <time>2020-01-26T09:27:31Z</time>
      </trkpt>
      <trkpt lat="45.79102" lon="-1.20064">
        <ele>54</ele>
        <time>2020-01-26T09:27:32Z</time>
      </trkpt>
      <trkpt lat="45.79102" lon="-1.20064">
        <ele>54</ele>
        <time>2020-01-26T09:27:33Z</time>
      </trkpt>
      <trkpt lat="45.79102" lon="-1.20064">
        <ele>54</ele>
        <time>2020-01-26T09:27:34Z</time>
      </trkpt>
      <trkpt lat="45.79102" lon="-1.20064">
        <ele>54</ele>
        <time>2020-01-26T09:27:35Z</time>
      </trkpt>
      <trkpt lat="45.79102" lon="-1.20064">
        <ele>54</ele>
        <time>2020-01-26T09:27:36Z</time>
      </trkpt>
      <trkpt lat="45.79102" lon="-1.20064">
        <ele>54</ele>
        <time>2020-01-26T09:27:37Z</time>
      </trkpt>
      <trkpt lat="45.79102" lon="-1.20064">
        <ele>54</ele>
        <time>2020-01-26T09:27:38Z</time>
      </trkpt>
      <trkpt lat="45.79102" lon="-1.20064">
        <ele>54</ele>
        <time>2020-01-26T09:27:39Z</time>
      </trkpt>
      <trkpt lat="45.79102" lon="-1.20064">
        <ele>54</ele>
        <time>2020-01-26T09:27:40Z</time>
      </trkpt>
      <trkpt lat="45.79102" lon="-1.20064">
        <ele>54</ele>
        <time>2020-01-26T09:27:41Z</time>
      </trkpt>
      <trkpt lat="45.79102" lon="-1.20064">
        <ele>54</ele>
        <time>2020-01-26T09:27:42Z</time>
      </trkpt>
      <trkpt lat="45.791" lon="-1.20065">
        <ele>54</ele>
        <time>2020-01-26T09:27:43Z</time>
      </trkpt>
      <trkpt lat="45.79099" lon="-1.20067">
        <ele>53.8</ele>
        <time>2020-01-26T09:27:44Z</time>
      </trkpt>
      <trkpt lat="45.79096" lon="-1.20069">
        <ele>53.6</ele>
        <time>2020-01-26T09:27:45Z</time>
      </trkpt>
      <trkpt lat="45.79093" lon="-1.20068">
        <ele>53.6</ele>
        <time>2020-01-26T09:27:46Z</time>
      </trkpt>
      <trkpt lat="45.7909" lon="-1.20066">
        <ele>53.4</ele>
        <time>2020-01-26T09:27:47Z</time>
      </trkpt>
      <trkpt lat="45.79085" lon="-1.20065">
        <ele>53.4</ele>
        <time>2020-01-26T09:27:48Z</time>
      </trkpt>
      <trkpt lat="45.79081" lon="-1.20062">
        <ele>53.2</ele>
        <time>2020-01-26T09:27:49Z</time>
      </trkpt>
      <trkpt lat="45.79079" lon="-1.20055">
        <ele>52.6</ele>
        <time>2020-01-26T09:27:50Z</time>
      </trkpt>
      <trkpt lat="45.79077" lon="-1.20049">
        <ele>52.6</ele>
        <time>2020-01-26T09:27:51Z</time>
      </trkpt>
      <trkpt lat="45.79075" lon="-1.20044">
        <ele>52.4</ele>
        <time>2020-01-26T09:27:52Z</time>
      </trkpt>
      <trkpt lat="45.79073" lon="-1.20038">
        <ele>52.2</ele>
        <time>2020-01-26T09:27:53Z</time>
      </trkpt>
      <trkpt lat="45.7907" lon="-1.20036">
        <ele>52.2</ele>
        <time>2020-01-26T09:27:54Z</time>
      </trkpt>
      <trkpt lat="45.79066" lon="-1.20035">
        <ele>52.2</ele>
        <time>2020-01-26T09:27:55Z</time>
      </trkpt>
      <trkpt lat="45.79064" lon="-1.20034">
        <ele>52.4</ele>
        <time>2020-01-26T09:27:56Z</time>
      </trkpt>
      <trkpt lat="45.7906" lon="-1.20033">
        <ele>52.6</ele>
        <time>2020-01-26T09:27:57Z</time>
      </trkpt>
      <trkpt lat="45.79055" lon="-1.20035">
        <ele>52.8</ele>
        <time>2020-01-26T09:27:58Z</time>
      </trkpt>
      <trkpt lat="45.7905" lon="-1.20038">
        <ele>53</ele>
        <time>2020-01-26T09:27:59Z</time>
      </trkpt>
      <trkpt lat="45.79045" lon="-1.20039">
        <ele>53</ele>
        <time>2020-01-26T09:28:00Z</time>
      </trkpt>
      <trkpt lat="45.7904" lon="-1.2004">
        <ele>53</ele>
        <time>2020-01-26T09:28:01Z</time>
      </trkpt>
      <trkpt lat="45.79035" lon="-1.2004">
        <ele>53</ele>
        <time>2020-01-26T09:28:02Z</time>
      </trkpt>
      <trkpt lat="45.7903" lon="-1.20043">
        <ele>53.2</ele>
        <time>2020-01-26T09:28:03Z</time>
      </trkpt>
      <trkpt lat="45.79025" lon="-1.20045">
        <ele>53.2</ele>
        <time>2020-01-26T09:28:04Z</time>
      </trkpt>
      <trkpt lat="45.79021" lon="-1.20047">
        <ele>53.2</ele>
        <time>2020-01-26T09:28:05Z</time>
      </trkpt>
      <trkpt lat="45.79018" lon="-1.20048">
        <ele>53.6</ele>
        <time>2020-01-26T09:28:06Z</time>
      </trkpt>
      <trkpt lat="45.79012" lon="-1.20049">
        <ele>54</ele>
        <time>2020-01-26T09:28:07Z</time>
      </trkpt>
      <trkpt lat="45.79008" lon="-1.2005">
        <ele>54.4</ele>
        <time>2020-01-26T09:28:08Z</time>
      </trkpt>
      <trkpt lat="45.79003" lon="-1.2005">
        <ele>54.6</ele>
        <time>2020-01-26T09:28:09Z</time>
      </trkpt>
      <trkpt lat="45.78999" lon="-1.20048">
        <ele>54.8</ele>
        <time>2020-01-26T09:28:10Z</time>
      </trkpt>
      <trkpt lat="45.78996" lon="-1.20045">
        <ele>55</ele>
        <time>2020-01-26T09:28:11Z</time>
      </trkpt>
      <trkpt lat="45.78995" lon="-1.20037">
        <ele>55</ele>
        <time>2020-01-26T09:28:12Z</time>
      </trkpt>
      <trkpt lat="45.78993" lon="-1.20031">
        <ele>55.6</ele>
        <time>2020-01-26T09:28:13Z</time>
      </trkpt>
      <trkpt lat="45.78992" lon="-1.20025">
        <ele>56.2</ele>
        <time>2020-01-26T09:28:14Z</time>
      </trkpt>
      <trkpt lat="45.7899" lon="-1.20019">
        <ele>57</ele>
        <time>2020-01-26T09:28:15Z</time>
      </trkpt>
      <trkpt lat="45.78986" lon="-1.20011">
        <ele>57.4</ele>
        <time>2020-01-26T09:28:16Z</time>
      </trkpt>
      <trkpt lat="45.78984" lon="-1.20004">
        <ele>58</ele>
        <time>2020-01-26T09:28:17Z</time>
      </trkpt>
      <trkpt lat="45.78981" lon="-1.19998">
        <ele>58.6</ele>
        <time>2020-01-26T09:28:18Z</time>
      </trkpt>
      <trkpt lat="45.78978" lon="-1.1999">
        <ele>58.6</ele>
        <time>2020-01-26T09:28:19Z</time>
      </trkpt>
      <trkpt lat="45.78975" lon="-1.19984">
        <ele>58.8</ele>
        <time>2020-01-26T09:28:20Z</time>
      </trkpt>
      <trkpt lat="45.78973" lon="-1.19977">
        <ele>58.6</ele>
        <time>2020-01-26T09:28:21Z</time>
      </trkpt>
      <trkpt lat="45.78971" lon="-1.1997">
        <ele>58.6</ele>
        <time>2020-01-26T09:28:22Z</time>
      </trkpt>
      <trkpt lat="45.7897" lon="-1.19964">
        <ele>58.4</ele>
        <time>2020-01-26T09:28:23Z</time>
      </trkpt>
      <trkpt lat="45.78967" lon="-1.19957">
        <ele>58.4</ele>
        <time>2020-01-26T09:28:24Z</time>
      </trkpt>
      <trkpt lat="45.78965" lon="-1.1995">
        <ele>58.6</ele>
        <time>2020-01-26T09:28:25Z</time>
      </trkpt>
      <trkpt lat="45.78962" lon="-1.19943">
        <ele>58.4</ele>
        <time>2020-01-26T09:28:26Z</time>
      </trkpt>
      <trkpt lat="45.78959" lon="-1.19937">
        <ele>58.6</ele>
        <time>2020-01-26T09:28:27Z</time>
      </trkpt>
      <trkpt lat="45.78958" lon="-1.1993">
        <ele>59</ele>
        <time>2020-01-26T09:28:28Z</time>
      </trkpt>
      <trkpt lat="45.78956" lon="-1.19925">
        <ele>59.2</ele>
        <time>2020-01-26T09:28:29Z</time>
      </trkpt>
      <trkpt lat="45.78955" lon="-1.19919">
        <ele>59.6</ele>
        <time>2020-01-26T09:28:30Z</time>
      </trkpt>
      <trkpt lat="45.78957" lon="-1.19913">
        <ele>59.4</ele>
        <time>2020-01-26T09:28:31Z</time>
      </trkpt>
      <trkpt lat="45.78957" lon="-1.1991">
        <ele>59.4</ele>
        <time>2020-01-26T09:28:32Z</time>
      </trkpt>
      <trkpt lat="45.78959" lon="-1.19906">
        <ele>59.6</ele>
        <time>2020-01-26T09:28:33Z</time>
      </trkpt>
      <trkpt lat="45.78959" lon="-1.19904">
        <ele>59.6</ele>
        <time>2020-01-26T09:28:34Z</time>
      </trkpt>
      <trkpt lat="45.78954" lon="-1.19897">
        <ele>60</ele>
        <time>2020-01-26T09:28:35Z</time>
      </trkpt>
      <trkpt lat="45.78954" lon="-1.19891">
        <ele>59.4</ele>
        <time>2020-01-26T09:28:36Z</time>
      </trkpt>
      <trkpt lat="45.78955" lon="-1.19885">
        <ele>58.6</ele>
        <time>2020-01-26T09:28:37Z</time>
      </trkpt>
      <trkpt lat="45.78955" lon="-1.19879">
        <ele>58</ele>
        <time>2020-01-26T09:28:38Z</time>
      </trkpt>
      <trkpt lat="45.78952" lon="-1.19872">
        <ele>57.8</ele>
        <time>2020-01-26T09:28:39Z</time>
      </trkpt>
      <trkpt lat="45.78951" lon="-1.19867">
        <ele>57.8</ele>
        <time>2020-01-26T09:28:40Z</time>
      </trkpt>
      <trkpt lat="45.78949" lon="-1.19861">
        <ele>57.8</ele>
        <time>2020-01-26T09:28:41Z</time>
      </trkpt>
      <trkpt lat="45.78949" lon="-1.19852">
        <ele>58.2</ele>
        <time>2020-01-26T09:28:42Z</time>
      </trkpt>
      <trkpt lat="45.78947" lon="-1.19846">
        <ele>58.4</ele>
        <time>2020-01-26T09:28:43Z</time>
      </trkpt>
      <trkpt lat="45.78946" lon="-1.19837">
        <ele>58.2</ele>
        <time>2020-01-26T09:28:44Z</time>
      </trkpt>
      <trkpt lat="45.78944" lon="-1.19828">
        <ele>58</ele>
        <time>2020-01-26T09:28:45Z</time>
      </trkpt>
      <trkpt lat="45.78942" lon="-1.19821">
        <ele>58</ele>
        <time>2020-01-26T09:28:46Z</time>
      </trkpt>
      <trkpt lat="45.7894" lon="-1.19814">
        <ele>58.4</ele>
        <time>2020-01-26T09:28:47Z</time>
      </trkpt>
      <trkpt lat="45.7894" lon="-1.19809">
        <ele>58.6</ele>
        <time>2020-01-26T09:28:48Z</time>
      </trkpt>
      <trkpt lat="45.78939" lon="-1.19804">
        <ele>58</ele>
        <time>2020-01-26T09:28:49Z</time>
      </trkpt>
      <trkpt lat="45.78946" lon="-1.198">
        <ele>57.8</ele>
        <time>2020-01-26T09:28:50Z</time>
      </trkpt>
      <trkpt lat="45.78948" lon="-1.19795">
        <ele>57.8</ele>
        <time>2020-01-26T09:28:51Z</time>
      </trkpt>
      <trkpt lat="45.78947" lon="-1.19786">
        <ele>57.4</ele>
        <time>2020-01-26T09:28:52Z</time>
      </trkpt>
      <trkpt lat="45.78948" lon="-1.1978">
        <ele>57</ele>
        <time>2020-01-26T09:28:53Z</time>
      </trkpt>
      <trkpt lat="45.78944" lon="-1.19767">
        <ele>57</ele>
        <time>2020-01-26T09:28:54Z</time>
      </trkpt>
      <trkpt lat="45.78943" lon="-1.19759">
        <ele>56.8</ele>
        <time>2020-01-26T09:28:55Z</time>
      </trkpt>
      <trkpt lat="45.78942" lon="-1.19753">
        <ele>56.8</ele>
        <time>2020-01-26T09:28:56Z</time>
      </trkpt>
      <trkpt lat="45.78939" lon="-1.19746">
        <ele>56.8</ele>
        <time>2020-01-26T09:28:57Z</time>
      </trkpt>
      <trkpt lat="45.78939" lon="-1.19741">
        <ele>56.8</ele>
        <time>2020-01-26T09:28:58Z</time>
      </trkpt>
      <trkpt lat="45.78941" lon="-1.19735">
        <ele>57.8</ele>
        <time>2020-01-26T09:28:59Z</time>
      </trkpt>
      <trkpt lat="45.78942" lon="-1.19729">
        <ele>59.2</ele>
        <time>2020-01-26T09:29:00Z</time>
      </trkpt>
      <trkpt lat="45.78944" lon="-1.1972">
        <ele>60.4</ele>
        <time>2020-01-26T09:29:01Z</time>
      </trkpt>
      <trkpt lat="45.78943" lon="-1.19712">
        <ele>60.8</ele>
        <time>2020-01-26T09:29:02Z</time>
      </trkpt>
      <trkpt lat="45.78944" lon="-1.19706">
        <ele>60.8</ele>
        <time>2020-01-26T09:29:03Z</time>
      </trkpt>
      <trkpt lat="45.78945" lon="-1.197">
        <ele>60.8</ele>
        <time>2020-01-26T09:29:04Z</time>
      </trkpt>
      <trkpt lat="45.78946" lon="-1.19694">
        <ele>61</ele>
        <time>2020-01-26T09:29:05Z</time>
      </trkpt>
      <trkpt lat="45.78947" lon="-1.19678">
        <ele>61.4</ele>
        <time>2020-01-26T09:29:06Z</time>
      </trkpt>
      <trkpt lat="45.78949" lon="-1.1967">
        <ele>61</ele>
        <time>2020-01-26T09:29:07Z</time>
      </trkpt>
      <trkpt lat="45.78949" lon="-1.19661">
        <ele>60.6</ele>
        <time>2020-01-26T09:29:08Z</time>
      </trkpt>
      <trkpt lat="45.78949" lon="-1.19657">
        <ele>60.4</ele>
        <time>2020-01-26T09:29:09Z</time>
      </trkpt>
      <trkpt lat="45.78946" lon="-1.19652">
        <ele>60.6</ele>
        <time>2020-01-26T09:29:10Z</time>
      </trkpt>
      <trkpt lat="45.78944" lon="-1.19647">
        <ele>61</ele>
        <time>2020-01-26T09:29:11Z</time>
      </trkpt>
      <trkpt lat="45.78942" lon="-1.19639">
        <ele>61.2</ele>
        <time>2020-01-26T09:29:12Z</time>
      </trkpt>
      <trkpt lat="45.78945" lon="-1.19633">
        <ele>61.2</ele>
        <time>2020-01-26T09:29:13Z</time>
      </trkpt>
      <trkpt lat="45.78947" lon="-1.19627">
        <ele>61</ele>
        <time>2020-01-26T09:29:14Z</time>
      </trkpt>
      <trkpt lat="45.78947" lon="-1.19621">
        <ele>60.8</ele>
        <time>2020-01-26T09:29:15Z</time>
      </trkpt>
      <trkpt lat="45.78947" lon="-1.19614">
        <ele>60.8</ele>
        <time>2020-01-26T09:29:16Z</time>
      </trkpt>
      <trkpt lat="45.78947" lon="-1.19609">
        <ele>61.2</ele>
        <time>2020-01-26T09:29:17Z</time>
      </trkpt>
      <trkpt lat="45.78945" lon="-1.19602">
        <ele>61.4</ele>
        <time>2020-01-26T09:29:18Z</time>
      </trkpt>
      <trkpt lat="45.78944" lon="-1.19598">
        <ele>61.6</ele>
        <time>2020-01-26T09:29:19Z</time>
      </trkpt>
      <trkpt lat="45.78942" lon="-1.19595">
        <ele>61.6</ele>
        <time>2020-01-26T09:29:20Z</time>
      </trkpt>
      <trkpt lat="45.78942" lon="-1.19591">
        <ele>61.4</ele>
        <time>2020-01-26T09:29:21Z</time>
      </trkpt>
      <trkpt lat="45.78943" lon="-1.19586">
        <ele>60.6</ele>
        <time>2020-01-26T09:29:22Z</time>
      </trkpt>
      <trkpt lat="45.78943" lon="-1.19579">
        <ele>59.6</ele>
        <time>2020-01-26T09:29:23Z</time>
      </trkpt>
      <trkpt lat="45.7894" lon="-1.19572">
        <ele>59.2</ele>
        <time>2020-01-26T09:29:24Z</time>
      </trkpt>
      <trkpt lat="45.78944" lon="-1.19565">
        <ele>59</ele>
        <time>2020-01-26T09:29:25Z</time>
      </trkpt>
      <trkpt lat="45.78946" lon="-1.19561">
        <ele>58.8</ele>
        <time>2020-01-26T09:29:26Z</time>
      </trkpt>
      <trkpt lat="45.78946" lon="-1.19558">
        <ele>58.6</ele>
        <time>2020-01-26T09:29:27Z</time>
      </trkpt>
      <trkpt lat="45.78945" lon="-1.19554">
        <ele>58.4</ele>
        <time>2020-01-26T09:29:28Z</time>
      </trkpt>
      <trkpt lat="45.78947" lon="-1.19549">
        <ele>58.2</ele>
        <time>2020-01-26T09:29:29Z</time>
      </trkpt>
      <trkpt lat="45.78948" lon="-1.19545">
        <ele>58</ele>
        <time>2020-01-26T09:29:30Z</time>
      </trkpt>
      <trkpt lat="45.78943" lon="-1.19539">
        <ele>57.4</ele>
        <time>2020-01-26T09:29:31Z</time>
      </trkpt>
      <trkpt lat="45.78943" lon="-1.19535">
        <ele>57.2</ele>
        <time>2020-01-26T09:29:32Z</time>
      </trkpt>
      <trkpt lat="45.78944" lon="-1.19531">
        <ele>56.4</ele>
        <time>2020-01-26T09:29:33Z</time>
      </trkpt>
      <trkpt lat="45.78944" lon="-1.19527">
        <ele>56.2</ele>
        <time>2020-01-26T09:29:34Z</time>
      </trkpt>
      <trkpt lat="45.78945" lon="-1.19524">
        <ele>55.8</ele>
        <time>2020-01-26T09:29:35Z</time>
      </trkpt>
      <trkpt lat="45.78944" lon="-1.1952">
        <ele>55</ele>
        <time>2020-01-26T09:29:36Z</time>
      </trkpt>
      <trkpt lat="45.78945" lon="-1.19517">
        <ele>54.2</ele>
        <time>2020-01-26T09:29:37Z</time>
      </trkpt>
      <trkpt lat="45.78944" lon="-1.1951">
        <ele>53.2</ele>
        <time>2020-01-26T09:29:38Z</time>
      </trkpt>
      <trkpt lat="45.78942" lon="-1.19504">
        <ele>52.2</ele>
        <time>2020-01-26T09:29:39Z</time>
      </trkpt>
      <trkpt lat="45.7894" lon="-1.195">
        <ele>51.6</ele>
        <time>2020-01-26T09:29:40Z</time>
      </trkpt>
      <trkpt lat="45.78939" lon="-1.19497">
        <ele>51.4</ele>
        <time>2020-01-26T09:29:41Z</time>
      </trkpt>
      <trkpt lat="45.78938" lon="-1.19494">
        <ele>51.4</ele>
        <time>2020-01-26T09:29:42Z</time>
      </trkpt>
      <trkpt lat="45.7894" lon="-1.19488">
        <ele>51.2</ele>
        <time>2020-01-26T09:29:43Z</time>
      </trkpt>
      <trkpt lat="45.78938" lon="-1.19481">
        <ele>51.4</ele>
        <time>2020-01-26T09:29:44Z</time>
      </trkpt>
      <trkpt lat="45.78937" lon="-1.19477">
        <ele>51.6</ele>
        <time>2020-01-26T09:29:45Z</time>
      </trkpt>
      <trkpt lat="45.78936" lon="-1.19472">
        <ele>52</ele>
        <time>2020-01-26T09:29:46Z</time>
      </trkpt>
      <trkpt lat="45.78934" lon="-1.19468">
        <ele>52.6</ele>
        <time>2020-01-26T09:29:47Z</time>
      </trkpt>
      <trkpt lat="45.78934" lon="-1.19463">
        <ele>53</ele>
        <time>2020-01-26T09:29:48Z</time>
      </trkpt>
      <trkpt lat="45.78935" lon="-1.19457">
        <ele>52.8</ele>
        <time>2020-01-26T09:29:49Z</time>
      </trkpt>
      <trkpt lat="45.78935" lon="-1.19451">
        <ele>52.6</ele>
        <time>2020-01-26T09:29:50Z</time>
      </trkpt>
      <trkpt lat="45.78935" lon="-1.19444">
        <ele>52.4</ele>
        <time>2020-01-26T09:29:51Z</time>
      </trkpt>
      <trkpt lat="45.78936" lon="-1.19435">
        <ele>52.6</ele>
        <time>2020-01-26T09:29:52Z</time>
      </trkpt>
      <trkpt lat="45.78937" lon="-1.19429">
        <ele>52.8</ele>
        <time>2020-01-26T09:29:53Z</time>
      </trkpt>
      <trkpt lat="45.78938" lon="-1.19426">
        <ele>52.8</ele>
        <time>2020-01-26T09:29:54Z</time>
      </trkpt>
      <trkpt lat="45.78938" lon="-1.19421">
        <ele>52.4</ele>
        <time>2020-01-26T09:29:55Z</time>
      </trkpt>
      <trkpt lat="45.78938" lon="-1.19417">
        <ele>52</ele>
        <time>2020-01-26T09:29:56Z</time>
      </trkpt>
      <trkpt lat="45.78939" lon="-1.19406">
        <ele>51.4</ele>
        <time>2020-01-26T09:29:57Z</time>
      </trkpt>
      <trkpt lat="45.78939" lon="-1.19398">
        <ele>51.2</ele>
        <time>2020-01-26T09:29:58Z</time>
      </trkpt>
      <trkpt lat="45.78939" lon="-1.19392">
        <ele>51.2</ele>
        <time>2020-01-26T09:29:59Z</time>
      </trkpt>
      <trkpt lat="45.78939" lon="-1.19386">
        <ele>51.4</ele>
        <time>2020-01-26T09:30:00Z</time>
      </trkpt>
      <trkpt lat="45.78939" lon="-1.19381">
        <ele>51.8</ele>
        <time>2020-01-26T09:30:01Z</time>
      </trkpt>
      <trkpt lat="45.78937" lon="-1.19375">
        <ele>52.6</ele>
        <time>2020-01-26T09:30:02Z</time>
      </trkpt>
      <trkpt lat="45.78934" lon="-1.19372">
        <ele>53.2</ele>
        <time>2020-01-26T09:30:03Z</time>
      </trkpt>
      <trkpt lat="45.78934" lon="-1.19368">
        <ele>53.6</ele>
        <time>2020-01-26T09:30:04Z</time>
      </trkpt>
      <trkpt lat="45.78933" lon="-1.19363">
        <ele>54</ele>
        <time>2020-01-26T09:30:05Z</time>
      </trkpt>
      <trkpt lat="45.78932" lon="-1.19361">
        <ele>54</ele>
        <time>2020-01-26T09:30:06Z</time>
      </trkpt>
      <trkpt lat="45.78931" lon="-1.19356">
        <ele>54.2</ele>
        <time>2020-01-26T09:30:07Z</time>
      </trkpt>
      <trkpt lat="45.78933" lon="-1.1935">
        <ele>54.8</ele>
        <time>2020-01-26T09:30:08Z</time>
      </trkpt>
      <trkpt lat="45.78933" lon="-1.19347">
        <ele>55</ele>
        <time>2020-01-26T09:30:09Z</time>
      </trkpt>
      <trkpt lat="45.78934" lon="-1.19343">
        <ele>55.2</ele>
        <time>2020-01-26T09:30:10Z</time>
      </trkpt>
      <trkpt lat="45.78934" lon="-1.19338">
        <ele>55.4</ele>
        <time>2020-01-26T09:30:11Z</time>
      </trkpt>
      <trkpt lat="45.78933" lon="-1.19334">
        <ele>56.2</ele>
        <time>2020-01-26T09:30:12Z</time>
      </trkpt>
      <trkpt lat="45.78933" lon="-1.19331">
        <ele>57.2</ele>
        <time>2020-01-26T09:30:13Z</time>
      </trkpt>
      <trkpt lat="45.78931" lon="-1.19328">
        <ele>57.8</ele>
        <time>2020-01-26T09:30:14Z</time>
      </trkpt>
      <trkpt lat="45.78931" lon="-1.19326">
        <ele>58.6</ele>
        <time>2020-01-26T09:30:15Z</time>
      </trkpt>
      <trkpt lat="45.7893" lon="-1.19324">
        <ele>59.6</ele>
        <time>2020-01-26T09:30:16Z</time>
      </trkpt>
      <trkpt lat="45.78928" lon="-1.19321">
        <ele>60.6</ele>
        <time>2020-01-26T09:30:17Z</time>
      </trkpt>
      <trkpt lat="45.78926" lon="-1.19319">
        <ele>61.4</ele>
        <time>2020-01-26T09:30:18Z</time>
      </trkpt>
      <trkpt lat="45.78926" lon="-1.19317">
        <ele>62.2</ele>
        <time>2020-01-26T09:30:19Z</time>
      </trkpt>
      <trkpt lat="45.78926" lon="-1.19314">
        <ele>62.4</ele>
        <time>2020-01-26T09:30:20Z</time>
      </trkpt>
      <trkpt lat="45.78924" lon="-1.1931">
        <ele>62.4</ele>
        <time>2020-01-26T09:30:21Z</time>
      </trkpt>
      <trkpt lat="45.78924" lon="-1.19304">
        <ele>62.6</ele>
        <time>2020-01-26T09:30:22Z</time>
      </trkpt>
      <trkpt lat="45.78923" lon="-1.19299">
        <ele>61.6</ele>
        <time>2020-01-26T09:30:23Z</time>
      </trkpt>
      <trkpt lat="45.78925" lon="-1.1929">
        <ele>61</ele>
        <time>2020-01-26T09:30:24Z</time>
      </trkpt>
      <trkpt lat="45.78925" lon="-1.19281">
        <ele>60</ele>
        <time>2020-01-26T09:30:25Z</time>
      </trkpt>
      <trkpt lat="45.78926" lon="-1.19271">
        <ele>59.2</ele>
        <time>2020-01-26T09:30:26Z</time>
      </trkpt>
      <trkpt lat="45.78924" lon="-1.19262">
        <ele>59</ele>
        <time>2020-01-26T09:30:27Z</time>
      </trkpt>
      <trkpt lat="45.78923" lon="-1.19253">
        <ele>58.4</ele>
        <time>2020-01-26T09:30:28Z</time>
      </trkpt>
      <trkpt lat="45.78923" lon="-1.19244">
        <ele>57.8</ele>
        <time>2020-01-26T09:30:29Z</time>
      </trkpt>
      <trkpt lat="45.7892" lon="-1.19235">
        <ele>57.6</ele>
        <time>2020-01-26T09:30:30Z</time>
      </trkpt>
      <trkpt lat="45.7892" lon="-1.19227">
        <ele>57.2</ele>
        <time>2020-01-26T09:30:31Z</time>
      </trkpt>
      <trkpt lat="45.7892" lon="-1.19217">
        <ele>57</ele>
        <time>2020-01-26T09:30:32Z</time>
      </trkpt>
      <trkpt lat="45.78918" lon="-1.19209">
        <ele>56.6</ele>
        <time>2020-01-26T09:30:33Z</time>
      </trkpt>
      <trkpt lat="45.78917" lon="-1.19201">
        <ele>56.4</ele>
        <time>2020-01-26T09:30:34Z</time>
      </trkpt>
      <trkpt lat="45.78914" lon="-1.19194">
        <ele>56.2</ele>
        <time>2020-01-26T09:30:35Z</time>
      </trkpt>
      <trkpt lat="45.78912" lon="-1.19186">
        <ele>56.2</ele>
        <time>2020-01-26T09:30:36Z</time>
      </trkpt>
      <trkpt lat="45.78912" lon="-1.19181">
        <ele>56.2</ele>
        <time>2020-01-26T09:30:37Z</time>
      </trkpt>
      <trkpt lat="45.78911" lon="-1.19175">
        <ele>56.4</ele>
        <time>2020-01-26T09:30:38Z</time>
      </trkpt>
      <trkpt lat="45.78912" lon="-1.19169">
        <ele>56.2</ele>
        <time>2020-01-26T09:30:39Z</time>
      </trkpt>
      <trkpt lat="45.78912" lon="-1.19162">
        <ele>56.2</ele>
        <time>2020-01-26T09:30:40Z</time>
      </trkpt>
      <trkpt lat="45.78912" lon="-1.19157">
        <ele>56.2</ele>
        <time>2020-01-26T09:30:41Z</time>
      </trkpt>
      <trkpt lat="45.78912" lon="-1.19152">
        <ele>56</ele>
        <time>2020-01-26T09:30:42Z</time>
      </trkpt>
      <trkpt lat="45.78912" lon="-1.19146">
        <ele>56</ele>
        <time>2020-01-26T09:30:43Z</time>
      </trkpt>
      <trkpt lat="45.78912" lon="-1.1914">
        <ele>55.8</ele>
        <time>2020-01-26T09:30:44Z</time>
      </trkpt>
      <trkpt lat="45.7891" lon="-1.19133">
        <ele>55.8</ele>
        <time>2020-01-26T09:30:45Z</time>
      </trkpt>
      <trkpt lat="45.78908" lon="-1.19126">
        <ele>55.8</ele>
        <time>2020-01-26T09:30:46Z</time>
      </trkpt>
      <trkpt lat="45.78907" lon="-1.1912">
        <ele>56</ele>
        <time>2020-01-26T09:30:47Z</time>
      </trkpt>
      <trkpt lat="45.78905" lon="-1.19112">
        <ele>56.2</ele>
        <time>2020-01-26T09:30:48Z</time>
      </trkpt>
      <trkpt lat="45.78905" lon="-1.19104">
        <ele>56.4</ele>
        <time>2020-01-26T09:30:49Z</time>
      </trkpt>
      <trkpt lat="45.78904" lon="-1.19097">
        <ele>56.6</ele>
        <time>2020-01-26T09:30:50Z</time>
      </trkpt>
      <trkpt lat="45.78903" lon="-1.1909">
        <ele>56.8</ele>
        <time>2020-01-26T09:30:51Z</time>
      </trkpt>
      <trkpt lat="45.78904" lon="-1.19085">
        <ele>56.6</ele>
        <time>2020-01-26T09:30:52Z</time>
      </trkpt>
      <trkpt lat="45.78905" lon="-1.19079">
        <ele>56.2</ele>
        <time>2020-01-26T09:30:53Z</time>
      </trkpt>
      <trkpt lat="45.78907" lon="-1.19073">
        <ele>55.6</ele>
        <time>2020-01-26T09:30:54Z</time>
      </trkpt>
      <trkpt lat="45.7891" lon="-1.19068">
        <ele>55.4</ele>
        <time>2020-01-26T09:30:55Z</time>
      </trkpt>
      <trkpt lat="45.78913" lon="-1.19062">
        <ele>55.2</ele>
        <time>2020-01-26T09:30:56Z</time>
      </trkpt>
      <trkpt lat="45.78917" lon="-1.19059">
        <ele>54.8</ele>
        <time>2020-01-26T09:30:57Z</time>
      </trkpt>
      <trkpt lat="45.7892" lon="-1.19054">
        <ele>54.6</ele>
        <time>2020-01-26T09:30:58Z</time>
      </trkpt>
      <trkpt lat="45.78923" lon="-1.19048">
        <ele>54.4</ele>
        <time>2020-01-26T09:30:59Z</time>
      </trkpt>
      <trkpt lat="45.78926" lon="-1.19042">
        <ele>54.6</ele>
        <time>2020-01-26T09:31:00Z</time>
      </trkpt>
      <trkpt lat="45.78929" lon="-1.19036">
        <ele>54.4</ele>
        <time>2020-01-26T09:31:01Z</time>
      </trkpt>
      <trkpt lat="45.7893" lon="-1.19028">
        <ele>54.4</ele>
        <time>2020-01-26T09:31:02Z</time>
      </trkpt>
      <trkpt lat="45.78931" lon="-1.1902">
        <ele>54.2</ele>
        <time>2020-01-26T09:31:03Z</time>
      </trkpt>
      <trkpt lat="45.78931" lon="-1.19013">
        <ele>54.2</ele>
        <time>2020-01-26T09:31:04Z</time>
      </trkpt>
      <trkpt lat="45.78933" lon="-1.19007">
        <ele>53.8</ele>
        <time>2020-01-26T09:31:05Z</time>
      </trkpt>
      <trkpt lat="45.78931" lon="-1.18999">
        <ele>53.6</ele>
        <time>2020-01-26T09:31:06Z</time>
      </trkpt>
      <trkpt lat="45.7893" lon="-1.18993">
        <ele>53.4</ele>
        <time>2020-01-26T09:31:07Z</time>
      </trkpt>
      <trkpt lat="45.78931" lon="-1.18988">
        <ele>53.4</ele>
        <time>2020-01-26T09:31:08Z</time>
      </trkpt>
      <trkpt lat="45.78934" lon="-1.18983">
        <ele>53.8</ele>
        <time>2020-01-26T09:31:09Z</time>
      </trkpt>
      <trkpt lat="45.78936" lon="-1.18979">
        <ele>53.8</ele>
        <time>2020-01-26T09:31:10Z</time>
      </trkpt>
      <trkpt lat="45.78938" lon="-1.18973">
        <ele>53.8</ele>
        <time>2020-01-26T09:31:11Z</time>
      </trkpt>
      <trkpt lat="45.78938" lon="-1.18966">
        <ele>54</ele>
        <time>2020-01-26T09:31:12Z</time>
      </trkpt>
      <trkpt lat="45.78939" lon="-1.1896">
        <ele>54</ele>
        <time>2020-01-26T09:31:13Z</time>
      </trkpt>
      <trkpt lat="45.78938" lon="-1.18953">
        <ele>54.2</ele>
        <time>2020-01-26T09:31:14Z</time>
      </trkpt>
      <trkpt lat="45.78937" lon="-1.18947">
        <ele>54.4</ele>
        <time>2020-01-26T09:31:15Z</time>
      </trkpt>
      <trkpt lat="45.78935" lon="-1.18941">
        <ele>54.8</ele>
        <time>2020-01-26T09:31:16Z</time>
      </trkpt>
      <trkpt lat="45.78934" lon="-1.18936">
        <ele>55.4</ele>
        <time>2020-01-26T09:31:17Z</time>
      </trkpt>
      <trkpt lat="45.78933" lon="-1.18931">
        <ele>55.8</ele>
        <time>2020-01-26T09:31:18Z</time>
      </trkpt>
      <trkpt lat="45.78933" lon="-1.18926">
        <ele>56</ele>
        <time>2020-01-26T09:31:19Z</time>
      </trkpt>
      <trkpt lat="45.78934" lon="-1.18922">
        <ele>56</ele>
        <time>2020-01-26T09:31:20Z</time>
      </trkpt>
      <trkpt lat="45.78934" lon="-1.18918">
        <ele>56.4</ele>
        <time>2020-01-26T09:31:21Z</time>
      </trkpt>
      <trkpt lat="45.78936" lon="-1.18915">
        <ele>56.4</ele>
        <time>2020-01-26T09:31:22Z</time>
      </trkpt>
      <trkpt lat="45.78939" lon="-1.18913">
        <ele>56.6</ele>
        <time>2020-01-26T09:31:23Z</time>
      </trkpt>
      <trkpt lat="45.78943" lon="-1.1891">
        <ele>56.8</ele>
        <time>2020-01-26T09:31:24Z</time>
      </trkpt>
      <trkpt lat="45.78946" lon="-1.18906">
        <ele>56.8</ele>
        <time>2020-01-26T09:31:25Z</time>
      </trkpt>
      <trkpt lat="45.78948" lon="-1.18901">
        <ele>56.8</ele>
        <time>2020-01-26T09:31:26Z</time>
      </trkpt>
      <trkpt lat="45.78948" lon="-1.18896">
        <ele>56.8</ele>
        <time>2020-01-26T09:31:27Z</time>
      </trkpt>
      <trkpt lat="45.78947" lon="-1.18891">
        <ele>56.8</ele>
        <time>2020-01-26T09:31:28Z</time>
      </trkpt>
      <trkpt lat="45.78946" lon="-1.18886">
        <ele>56.6</ele>
        <time>2020-01-26T09:31:29Z</time>
      </trkpt>
      <trkpt lat="45.78945" lon="-1.18881">
        <ele>56.6</ele>
        <time>2020-01-26T09:31:30Z</time>
      </trkpt>
      <trkpt lat="45.78945" lon="-1.18877">
        <ele>56.4</ele>
        <time>2020-01-26T09:31:31Z</time>
      </trkpt>
      <trkpt lat="45.78946" lon="-1.18873">
        <ele>56</ele>
        <time>2020-01-26T09:31:32Z</time>
      </trkpt>
      <trkpt lat="45.78948" lon="-1.18869">
        <ele>55.8</ele>
        <time>2020-01-26T09:31:33Z</time>
      </trkpt>
      <trkpt lat="45.78951" lon="-1.18866">
        <ele>55.6</ele>
        <time>2020-01-26T09:31:34Z</time>
      </trkpt>
      <trkpt lat="45.78953" lon="-1.18861">
        <ele>55.4</ele>
        <time>2020-01-26T09:31:35Z</time>
      </trkpt>
      <trkpt lat="45.78955" lon="-1.18857">
        <ele>55.2</ele>
        <time>2020-01-26T09:31:36Z</time>
      </trkpt>
      <trkpt lat="45.78957" lon="-1.18853">
        <ele>54.8</ele>
        <time>2020-01-26T09:31:37Z</time>
      </trkpt>
      <trkpt lat="45.78957" lon="-1.18852">
        <ele>54.6</ele>
        <time>2020-01-26T09:31:38Z</time>
      </trkpt>
      <trkpt lat="45.78958" lon="-1.1885">
        <ele>54.6</ele>
        <time>2020-01-26T09:31:39Z</time>
      </trkpt>
      <trkpt lat="45.78959" lon="-1.18848">
        <ele>54.4</ele>
        <time>2020-01-26T09:31:40Z</time>
      </trkpt>
      <trkpt lat="45.78959" lon="-1.18846">
        <ele>54</ele>
        <time>2020-01-26T09:31:41Z</time>
      </trkpt>
      <trkpt lat="45.78962" lon="-1.18845">
        <ele>53.8</ele>
        <time>2020-01-26T09:31:42Z</time>
      </trkpt>
      <trkpt lat="45.78964" lon="-1.18845">
        <ele>53.4</ele>
        <time>2020-01-26T09:31:43Z</time>
      </trkpt>
      <trkpt lat="45.78968" lon="-1.18846">
        <ele>53</ele>
        <time>2020-01-26T09:31:44Z</time>
      </trkpt>
      <trkpt lat="45.78971" lon="-1.18847">
        <ele>52.6</ele>
        <time>2020-01-26T09:31:45Z</time>
      </trkpt>
      <trkpt lat="45.78974" lon="-1.18847">
        <ele>52</ele>
        <time>2020-01-26T09:31:46Z</time>
      </trkpt>
      <trkpt lat="45.78977" lon="-1.18846">
        <ele>51.6</ele>
        <time>2020-01-26T09:31:47Z</time>
      </trkpt>
      <trkpt lat="45.78979" lon="-1.18842">
        <ele>51.4</ele>
        <time>2020-01-26T09:31:48Z</time>
      </trkpt>
      <trkpt lat="45.78981" lon="-1.18837">
        <ele>51.2</ele>
        <time>2020-01-26T09:31:49Z</time>
      </trkpt>
      <trkpt lat="45.78982" lon="-1.18832">
        <ele>50.8</ele>
        <time>2020-01-26T09:31:50Z</time>
      </trkpt>
      <trkpt lat="45.78982" lon="-1.18828">
        <ele>50.6</ele>
        <time>2020-01-26T09:31:51Z</time>
      </trkpt>
      <trkpt lat="45.78983" lon="-1.18823">
        <ele>50.4</ele>
        <time>2020-01-26T09:31:52Z</time>
      </trkpt>
      <trkpt lat="45.78983" lon="-1.18818">
        <ele>50.4</ele>
        <time>2020-01-26T09:31:53Z</time>
      </trkpt>
      <trkpt lat="45.78984" lon="-1.18813">
        <ele>50.4</ele>
        <time>2020-01-26T09:31:54Z</time>
      </trkpt>
      <trkpt lat="45.78985" lon="-1.18809">
        <ele>50.2</ele>
        <time>2020-01-26T09:31:55Z</time>
      </trkpt>
      <trkpt lat="45.78986" lon="-1.18805">
        <ele>50.2</ele>
        <time>2020-01-26T09:31:56Z</time>
      </trkpt>
      <trkpt lat="45.78987" lon="-1.18801">
        <ele>50.2</ele>
        <time>2020-01-26T09:31:57Z</time>
      </trkpt>
      <trkpt lat="45.78988" lon="-1.18797">
        <ele>50.2</ele>
        <time>2020-01-26T09:31:58Z</time>
      </trkpt>
      <trkpt lat="45.78989" lon="-1.18793">
        <ele>50</ele>
        <time>2020-01-26T09:31:59Z</time>
      </trkpt>
      <trkpt lat="45.7899" lon="-1.18788">
        <ele>50</ele>
        <time>2020-01-26T09:32:00Z</time>
      </trkpt>
      <trkpt lat="45.78991" lon="-1.18784">
        <ele>50</ele>
        <time>2020-01-26T09:32:01Z</time>
      </trkpt>
      <trkpt lat="45.78992" lon="-1.18779">
        <ele>50</ele>
        <time>2020-01-26T09:32:02Z</time>
      </trkpt>
      <trkpt lat="45.78993" lon="-1.18775">
        <ele>50</ele>
        <time>2020-01-26T09:32:03Z</time>
      </trkpt>
      <trkpt lat="45.78994" lon="-1.18771">
        <ele>49.8</ele>
        <time>2020-01-26T09:32:04Z</time>
      </trkpt>
      <trkpt lat="45.78995" lon="-1.18767">
        <ele>49.6</ele>
        <time>2020-01-26T09:32:05Z</time>
      </trkpt>
      <trkpt lat="45.78996" lon="-1.18762">
        <ele>49.4</ele>
        <time>2020-01-26T09:32:06Z</time>
      </trkpt>
      <trkpt lat="45.78996" lon="-1.18758">
        <ele>49.4</ele>
        <time>2020-01-26T09:32:07Z</time>
      </trkpt>
      <trkpt lat="45.78996" lon="-1.18755">
        <ele>49.2</ele>
        <time>2020-01-26T09:32:08Z</time>
      </trkpt>
      <trkpt lat="45.78997" lon="-1.18751">
        <ele>49.2</ele>
        <time>2020-01-26T09:32:09Z</time>
      </trkpt>
      <trkpt lat="45.78997" lon="-1.18748">
        <ele>49.2</ele>
        <time>2020-01-26T09:32:10Z</time>
      </trkpt>
      <trkpt lat="45.78997" lon="-1.18745">
        <ele>49</ele>
        <time>2020-01-26T09:32:11Z</time>
      </trkpt>
      <trkpt lat="45.78998" lon="-1.18742">
        <ele>49</ele>
        <time>2020-01-26T09:32:12Z</time>
      </trkpt>
      <trkpt lat="45.79" lon="-1.18738">
        <ele>49</ele>
        <time>2020-01-26T09:32:13Z</time>
      </trkpt>
      <trkpt lat="45.79" lon="-1.18735">
        <ele>49</ele>
        <time>2020-01-26T09:32:14Z</time>
      </trkpt>
      <trkpt lat="45.79002" lon="-1.18731">
        <ele>49</ele>
        <time>2020-01-26T09:32:15Z</time>
      </trkpt>
      <trkpt lat="45.79003" lon="-1.18727">
        <ele>49</ele>
        <time>2020-01-26T09:32:16Z</time>
      </trkpt>
      <trkpt lat="45.79003" lon="-1.18725">
        <ele>49</ele>
        <time>2020-01-26T09:32:17Z</time>
      </trkpt>
      <trkpt lat="45.79004" lon="-1.18724">
        <ele>49</ele>
        <time>2020-01-26T09:32:18Z</time>
      </trkpt>
      <trkpt lat="45.79004" lon="-1.18724">
        <ele>49</ele>
        <time>2020-01-26T09:32:19Z</time>
      </trkpt>
      <trkpt lat="45.79004" lon="-1.18724">
        <ele>49</ele>
        <time>2020-01-26T09:32:20Z</time>
      </trkpt>
      <trkpt lat="45.79004" lon="-1.18724">
        <ele>49</ele>
        <time>2020-01-26T09:32:21Z</time>
      </trkpt>
      <trkpt lat="45.79004" lon="-1.18724">
        <ele>49</ele>
        <time>2020-01-26T09:32:22Z</time>
      </trkpt>
      <trkpt lat="45.79004" lon="-1.18723">
        <ele>49</ele>
        <time>2020-01-26T09:32:23Z</time>
      </trkpt>
      <trkpt lat="45.79004" lon="-1.18723">
        <ele>49</ele>
        <time>2020-01-26T09:32:24Z</time>
      </trkpt>
      <trkpt lat="45.79004" lon="-1.18723">
        <ele>49</ele>
        <time>2020-01-26T09:32:25Z</time>
      </trkpt>
      <trkpt lat="45.79005" lon="-1.18724">
        <ele>49.2</ele>
        <time>2020-01-26T09:32:26Z</time>
      </trkpt>
      <trkpt lat="45.79005" lon="-1.18724">
        <ele>49.4</ele>
        <time>2020-01-26T09:32:27Z</time>
      </trkpt>
      <trkpt lat="45.79005" lon="-1.18724">
        <ele>49.6</ele>
        <time>2020-01-26T09:32:28Z</time>
      </trkpt>
      <trkpt lat="45.79005" lon="-1.18724">
        <ele>49.6</ele>
        <time>2020-01-26T09:32:29Z</time>
      </trkpt>
      <trkpt lat="45.79005" lon="-1.18723">
        <ele>49.8</ele>
        <time>2020-01-26T09:32:30Z</time>
      </trkpt>
      <trkpt lat="45.79005" lon="-1.18724">
        <ele>49.8</ele>
        <time>2020-01-26T09:32:31Z</time>
      </trkpt>
      <trkpt lat="45.79005" lon="-1.18724">
        <ele>49.8</ele>
        <time>2020-01-26T09:32:32Z</time>
      </trkpt>
      <trkpt lat="45.79005" lon="-1.18724">
        <ele>50</ele>
        <time>2020-01-26T09:32:33Z</time>
      </trkpt>
      <trkpt lat="45.79005" lon="-1.18724">
        <ele>50</ele>
        <time>2020-01-26T09:32:34Z</time>
      </trkpt>
      <trkpt lat="45.79005" lon="-1.18724">
        <ele>50</ele>
        <time>2020-01-26T09:32:35Z</time>
      </trkpt>
      <trkpt lat="45.79005" lon="-1.18724">
        <ele>50</ele>
        <time>2020-01-26T09:32:36Z</time>
      </trkpt>
      <trkpt lat="45.79005" lon="-1.18724">
        <ele>50</ele>
        <time>2020-01-26T09:32:37Z</time>
      </trkpt>
      <trkpt lat="45.79005" lon="-1.18724">
        <ele>50</ele>
        <time>2020-01-26T09:32:38Z</time>
      </trkpt>
      <trkpt lat="45.79005" lon="-1.18724">
        <ele>50</ele>
        <time>2020-01-26T09:32:39Z</time>
      </trkpt>
      <trkpt lat="45.79005" lon="-1.18724">
        <ele>50</ele>
        <time>2020-01-26T09:32:40Z</time>
      </trkpt>
      <trkpt lat="45.79005" lon="-1.18724">
        <ele>50</ele>
        <time>2020-01-26T09:32:41Z</time>
      </trkpt>
      <trkpt lat="45.79005" lon="-1.18724">
        <ele>50</ele>
        <time>2020-01-26T09:32:42Z</time>
      </trkpt>
      <trkpt lat="45.79005" lon="-1.18724">
        <ele>50</ele>
        <time>2020-01-26T09:32:43Z</time>
      </trkpt>
      <trkpt lat="45.79005" lon="-1.18724">
        <ele>50</ele>
        <time>2020-01-26T09:32:44Z</time>
      </trkpt>
      <trkpt lat="45.79005" lon="-1.18724">
        <ele>50</ele>
        <time>2020-01-26T09:32:45Z</time>
      </trkpt>
      <trkpt lat="45.79005" lon="-1.18724">
        <ele>50</ele>
        <time>2020-01-26T09:32:46Z</time>
      </trkpt>
      <trkpt lat="45.79005" lon="-1.18724">
        <ele>50</ele>
        <time>2020-01-26T09:32:47Z</time>
      </trkpt>
      <trkpt lat="45.79005" lon="-1.18724">
        <ele>50</ele>
        <time>2020-01-26T09:32:48Z</time>
      </trkpt>
      <trkpt lat="45.79005" lon="-1.18725">
        <ele>50</ele>
        <time>2020-01-26T09:32:49Z</time>
      </trkpt>
      <trkpt lat="45.79005" lon="-1.18725">
        <ele>50</ele>
        <time>2020-01-26T09:32:50Z</time>
      </trkpt>
      <trkpt lat="45.79005" lon="-1.18724">
        <ele>50</ele>
        <time>2020-01-26T09:32:51Z</time>
      </trkpt>
      <trkpt lat="45.79005" lon="-1.18724">
        <ele>50</ele>
        <time>2020-01-26T09:32:52Z</time>
      </trkpt>
      <trkpt lat="45.79005" lon="-1.18724">
        <ele>50</ele>
        <time>2020-01-26T09:32:53Z</time>
      </trkpt>
      <trkpt lat="45.79005" lon="-1.18724">
        <ele>50</ele>
        <time>2020-01-26T09:32:54Z</time>
      </trkpt>
      <trkpt lat="45.79005" lon="-1.18724">
        <ele>50</ele>
        <time>2020-01-26T09:32:55Z</time>
      </trkpt>
      <trkpt lat="45.79005" lon="-1.18724">
        <ele>50</ele>
        <time>2020-01-26T09:32:56Z</time>
      </trkpt>
      <trkpt lat="45.79005" lon="-1.18724">
        <ele>50</ele>
        <time>2020-01-26T09:32:57Z</time>
      </trkpt>
      <trkpt lat="45.79005" lon="-1.18723">
        <ele>50</ele>
        <time>2020-01-26T09:32:58Z</time>
      </trkpt>
      <trkpt lat="45.79005" lon="-1.18723">
        <ele>50</ele>
        <time>2020-01-26T09:32:59Z</time>
      </trkpt>
      <trkpt lat="45.79005" lon="-1.18723">
        <ele>50</ele>
        <time>2020-01-26T09:33:00Z</time>
      </trkpt>
      <trkpt lat="45.79005" lon="-1.18723">
        <ele>50</ele>
        <time>2020-01-26T09:33:01Z</time>
      </trkpt>
      <trkpt lat="45.79005" lon="-1.18723">
        <ele>50</ele>
        <time>2020-01-26T09:33:02Z</time>
      </trkpt>
      <trkpt lat="45.79005" lon="-1.18723">
        <ele>50</ele>
        <time>2020-01-26T09:33:03Z</time>
      </trkpt>
      <trkpt lat="45.79005" lon="-1.18723">
        <ele>50</ele>
        <time>2020-01-26T09:33:04Z</time>
      </trkpt>
      <trkpt lat="45.79005" lon="-1.18723">
        <ele>50</ele>
        <time>2020-01-26T09:33:05Z</time>
      </trkpt>
      <trkpt lat="45.79005" lon="-1.18723">
        <ele>50</ele>
        <time>2020-01-26T09:33:06Z</time>
      </trkpt>
      <trkpt lat="45.79005" lon="-1.18723">
        <ele>50</ele>
        <time>2020-01-26T09:33:07Z</time>
      </trkpt>
      <trkpt lat="45.79005" lon="-1.18723">
        <ele>50</ele>
        <time>2020-01-26T09:33:08Z</time>
      </trkpt>
      <trkpt lat="45.79005" lon="-1.18723">
        <ele>50</ele>
        <time>2020-01-26T09:33:09Z</time>
      </trkpt>
      <trkpt lat="45.79005" lon="-1.18723">
        <ele>50</ele>
        <time>2020-01-26T09:33:10Z</time>
      </trkpt>
      <trkpt lat="45.79005" lon="-1.18723">
        <ele>50</ele>
        <time>2020-01-26T09:33:11Z</time>
      </trkpt>
      <trkpt lat="45.79005" lon="-1.18723">
        <ele>50</ele>
        <time>2020-01-26T09:33:12Z</time>
      </trkpt>
      <trkpt lat="45.79005" lon="-1.18723">
        <ele>50</ele>
        <time>2020-01-26T09:33:13Z</time>
      </trkpt>
      <trkpt lat="45.79005" lon="-1.18723">
        <ele>50</ele>
        <time>2020-01-26T09:33:14Z</time>
      </trkpt>
      <trkpt lat="45.79005" lon="-1.18723">
        <ele>50</ele>
        <time>2020-01-26T09:33:15Z</time>
      </trkpt>
      <trkpt lat="45.79005" lon="-1.18723">
        <ele>50</ele>
        <time>2020-01-26T09:33:16Z</time>
      </trkpt>
      <trkpt lat="45.79005" lon="-1.18723">
        <ele>50</ele>
        <time>2020-01-26T09:33:17Z</time>
      </trkpt>
      <trkpt lat="45.79005" lon="-1.18723">
        <ele>50</ele>
        <time>2020-01-26T09:33:18Z</time>
      </trkpt>
      <trkpt lat="45.79005" lon="-1.18723">
        <ele>50</ele>
        <time>2020-01-26T09:33:19Z</time>
      </trkpt>
      <trkpt lat="45.79005" lon="-1.18723">
        <ele>50</ele>
        <time>2020-01-26T09:33:20Z</time>
      </trkpt>
      <trkpt lat="45.79005" lon="-1.18723">
        <ele>50</ele>
        <time>2020-01-26T09:33:21Z</time>
      </trkpt>
      <trkpt lat="45.79005" lon="-1.18723">
        <ele>50</ele>
        <time>2020-01-26T09:33:22Z</time>
      </trkpt>
      <trkpt lat="45.79005" lon="-1.18723">
        <ele>50</ele>
        <time>2020-01-26T09:33:23Z</time>
      </trkpt>
      <trkpt lat="45.79005" lon="-1.18723">
        <ele>50</ele>
        <time>2020-01-26T09:33:24Z</time>
      </trkpt>
      <trkpt lat="45.79005" lon="-1.18723">
        <ele>50</ele>
        <time>2020-01-26T09:33:25Z</time>
      </trkpt>
      <trkpt lat="45.79005" lon="-1.18723">
        <ele>50</ele>
        <time>2020-01-26T09:33:26Z</time>
      </trkpt>
      <trkpt lat="45.79005" lon="-1.18723">
        <ele>50</ele>
        <time>2020-01-26T09:33:27Z</time>
      </trkpt>
      <trkpt lat="45.79005" lon="-1.18723">
        <ele>50</ele>
        <time>2020-01-26T09:33:28Z</time>
      </trkpt>
      <trkpt lat="45.79005" lon="-1.18723">
        <ele>50</ele>
        <time>2020-01-26T09:33:29Z</time>
      </trkpt>
      <trkpt lat="45.79005" lon="-1.18723">
        <ele>50</ele>
        <time>2020-01-26T09:33:30Z</time>
      </trkpt>
      <trkpt lat="45.79005" lon="-1.18723">
        <ele>50</ele>
        <time>2020-01-26T09:33:31Z</time>
      </trkpt>
      <trkpt lat="45.79005" lon="-1.18723">
        <ele>50</ele>
        <time>2020-01-26T09:33:32Z</time>
      </trkpt>
      <trkpt lat="45.79005" lon="-1.18723">
        <ele>50</ele>
        <time>2020-01-26T09:33:33Z</time>
      </trkpt>
      <trkpt lat="45.79005" lon="-1.18723">
        <ele>50</ele>
        <time>2020-01-26T09:33:34Z</time>
      </trkpt>
      <trkpt lat="45.79005" lon="-1.18723">
        <ele>50</ele>
        <time>2020-01-26T09:33:35Z</time>
      </trkpt>
      <trkpt lat="45.79005" lon="-1.18723">
        <ele>50</ele>
        <time>2020-01-26T09:33:36Z</time>
      </trkpt>
      <trkpt lat="45.79005" lon="-1.18723">
        <ele>50</ele>
        <time>2020-01-26T09:33:37Z</time>
      </trkpt>
      <trkpt lat="45.79005" lon="-1.18723">
        <ele>50</ele>
        <time>2020-01-26T09:33:38Z</time>
      </trkpt>
      <trkpt lat="45.79005" lon="-1.18723">
        <ele>50</ele>
        <time>2020-01-26T09:33:39Z</time>
      </trkpt>
      <trkpt lat="45.79005" lon="-1.18723">
        <ele>50</ele>
        <time>2020-01-26T09:33:40Z</time>
      </trkpt>
      <trkpt lat="45.79005" lon="-1.18723">
        <ele>50</ele>
        <time>2020-01-26T09:33:41Z</time>
      </trkpt>
      <trkpt lat="45.79005" lon="-1.18723">
        <ele>50</ele>
        <time>2020-01-26T09:33:42Z</time>
      </trkpt>
      <trkpt lat="45.79005" lon="-1.18723">
        <ele>50</ele>
        <time>2020-01-26T09:33:43Z</time>
      </trkpt>
      <trkpt lat="45.79005" lon="-1.18723">
        <ele>50</ele>
        <time>2020-01-26T09:33:44Z</time>
      </trkpt>
      <trkpt lat="45.79005" lon="-1.18723">
        <ele>50</ele>
        <time>2020-01-26T09:33:45Z</time>
      </trkpt>
      <trkpt lat="45.79005" lon="-1.18723">
        <ele>50</ele>
        <time>2020-01-26T09:33:46Z</time>
      </trkpt>
      <trkpt lat="45.79005" lon="-1.18723">
        <ele>50</ele>
        <time>2020-01-26T09:33:47Z</time>
      </trkpt>
      <trkpt lat="45.79005" lon="-1.18723">
        <ele>50</ele>
        <time>2020-01-26T09:33:48Z</time>
      </trkpt>
      <trkpt lat="45.79005" lon="-1.18723">
        <ele>50</ele>
        <time>2020-01-26T09:33:49Z</time>
      </trkpt>
      <trkpt lat="45.79005" lon="-1.18723">
        <ele>50</ele>
        <time>2020-01-26T09:33:50Z</time>
      </trkpt>
      <trkpt lat="45.79004" lon="-1.18721">
        <ele>50.2</ele>
        <time>2020-01-26T09:33:51Z</time>
      </trkpt>
      <trkpt lat="45.79005" lon="-1.1872">
        <ele>50.4</ele>
        <time>2020-01-26T09:33:52Z</time>
      </trkpt>
      <trkpt lat="45.79005" lon="-1.18722">
        <ele>50.4</ele>
        <time>2020-01-26T09:33:53Z</time>
      </trkpt>
      <trkpt lat="45.79006" lon="-1.18723">
        <ele>50.2</ele>
        <time>2020-01-26T09:33:54Z</time>
      </trkpt>
      <trkpt lat="45.79007" lon="-1.18722">
        <ele>50.2</ele>
        <time>2020-01-26T09:33:55Z</time>
      </trkpt>
      <trkpt lat="45.79007" lon="-1.18719">
        <ele>50.2</ele>
        <time>2020-01-26T09:33:56Z</time>
      </trkpt>
      <trkpt lat="45.79006" lon="-1.18717">
        <ele>50.2</ele>
        <time>2020-01-26T09:33:57Z</time>
      </trkpt>
      <trkpt lat="45.79006" lon="-1.18716">
        <ele>50.4</ele>
        <time>2020-01-26T09:33:58Z</time>
      </trkpt>
      <trkpt lat="45.79007" lon="-1.18713">
        <ele>50.4</ele>
        <time>2020-01-26T09:33:59Z</time>
      </trkpt>
      <trkpt lat="45.79007" lon="-1.18711">
        <ele>50.4</ele>
        <time>2020-01-26T09:34:00Z</time>
      </trkpt>
      <trkpt lat="45.79008" lon="-1.18708">
        <ele>50.2</ele>
        <time>2020-01-26T09:34:01Z</time>
      </trkpt>
      <trkpt lat="45.79009" lon="-1.18703">
        <ele>50.2</ele>
        <time>2020-01-26T09:34:02Z</time>
      </trkpt>
      <trkpt lat="45.79011" lon="-1.18698">
        <ele>50.2</ele>
        <time>2020-01-26T09:34:03Z</time>
      </trkpt>
      <trkpt lat="45.79012" lon="-1.18693">
        <ele>50.2</ele>
        <time>2020-01-26T09:34:04Z</time>
      </trkpt>
      <trkpt lat="45.79013" lon="-1.18687">
        <ele>50</ele>
        <time>2020-01-26T09:34:05Z</time>
      </trkpt>
      <trkpt lat="45.79015" lon="-1.18682">
        <ele>50</ele>
        <time>2020-01-26T09:34:06Z</time>
      </trkpt>
      <trkpt lat="45.79016" lon="-1.18676">
        <ele>50</ele>
        <time>2020-01-26T09:34:07Z</time>
      </trkpt>
      <trkpt lat="45.79018" lon="-1.1867">
        <ele>50</ele>
        <time>2020-01-26T09:34:08Z</time>
      </trkpt>
      <trkpt lat="45.7902" lon="-1.18664">
        <ele>50</ele>
        <time>2020-01-26T09:34:09Z</time>
      </trkpt>
      <trkpt lat="45.79021" lon="-1.18658">
        <ele>50</ele>
        <time>2020-01-26T09:34:10Z</time>
      </trkpt>
      <trkpt lat="45.79022" lon="-1.18652">
        <ele>50</ele>
        <time>2020-01-26T09:34:11Z</time>
      </trkpt>
      <trkpt lat="45.79024" lon="-1.18645">
        <ele>49.8</ele>
        <time>2020-01-26T09:34:12Z</time>
      </trkpt>
      <trkpt lat="45.79026" lon="-1.18638">
        <ele>49.6</ele>
        <time>2020-01-26T09:34:13Z</time>
      </trkpt>
      <trkpt lat="45.79028" lon="-1.18632">
        <ele>49.4</ele>
        <time>2020-01-26T09:34:14Z</time>
      </trkpt>
      <trkpt lat="45.7903" lon="-1.18625">
        <ele>49.4</ele>
        <time>2020-01-26T09:34:15Z</time>
      </trkpt>
      <trkpt lat="45.79032" lon="-1.18619">
        <ele>49.2</ele>
        <time>2020-01-26T09:34:16Z</time>
      </trkpt>
      <trkpt lat="45.79034" lon="-1.18612">
        <ele>49.2</ele>
        <time>2020-01-26T09:34:17Z</time>
      </trkpt>
      <trkpt lat="45.79035" lon="-1.18606">
        <ele>49.2</ele>
        <time>2020-01-26T09:34:18Z</time>
      </trkpt>
      <trkpt lat="45.79037" lon="-1.18599">
        <ele>48.8</ele>
        <time>2020-01-26T09:34:19Z</time>
      </trkpt>
      <trkpt lat="45.79039" lon="-1.18593">
        <ele>48.6</ele>
        <time>2020-01-26T09:34:20Z</time>
      </trkpt>
      <trkpt lat="45.79041" lon="-1.18586">
        <ele>48.4</ele>
        <time>2020-01-26T09:34:21Z</time>
      </trkpt>
      <trkpt lat="45.79042" lon="-1.18579">
        <ele>48.4</ele>
        <time>2020-01-26T09:34:22Z</time>
      </trkpt>
      <trkpt lat="45.79044" lon="-1.18572">
        <ele>48.2</ele>
        <time>2020-01-26T09:34:23Z</time>
      </trkpt>
      <trkpt lat="45.79047" lon="-1.18566">
        <ele>48.2</ele>
        <time>2020-01-26T09:34:24Z</time>
      </trkpt>
      <trkpt lat="45.79049" lon="-1.18559">
        <ele>48.2</ele>
        <time>2020-01-26T09:34:25Z</time>
      </trkpt>
      <trkpt lat="45.79052" lon="-1.18553">
        <ele>48.2</ele>
        <time>2020-01-26T09:34:26Z</time>
      </trkpt>
      <trkpt lat="45.79054" lon="-1.18547">
        <ele>48</ele>
        <time>2020-01-26T09:34:27Z</time>
      </trkpt>
      <trkpt lat="45.79057" lon="-1.18541">
        <ele>47.8</ele>
        <time>2020-01-26T09:34:28Z</time>
      </trkpt>
      <trkpt lat="45.79058" lon="-1.18535">
        <ele>47.6</ele>
        <time>2020-01-26T09:34:29Z</time>
      </trkpt>
      <trkpt lat="45.79061" lon="-1.18528">
        <ele>47.8</ele>
        <time>2020-01-26T09:34:30Z</time>
      </trkpt>
      <trkpt lat="45.79063" lon="-1.18522">
        <ele>47.8</ele>
        <time>2020-01-26T09:34:31Z</time>
      </trkpt>
      <trkpt lat="45.79065" lon="-1.18516">
        <ele>47.8</ele>
        <time>2020-01-26T09:34:32Z</time>
      </trkpt>
      <trkpt lat="45.79066" lon="-1.18509">
        <ele>47.8</ele>
        <time>2020-01-26T09:34:33Z</time>
      </trkpt>
      <trkpt lat="45.79069" lon="-1.18503">
        <ele>48</ele>
        <time>2020-01-26T09:34:34Z</time>
      </trkpt>
      <trkpt lat="45.79071" lon="-1.18497">
        <ele>48</ele>
        <time>2020-01-26T09:34:35Z</time>
      </trkpt>
      <trkpt lat="45.79074" lon="-1.18492">
        <ele>48</ele>
        <time>2020-01-26T09:34:36Z</time>
      </trkpt>
      <trkpt lat="45.79076" lon="-1.18486">
        <ele>48.2</ele>
        <time>2020-01-26T09:34:37Z</time>
      </trkpt>
      <trkpt lat="45.79079" lon="-1.1848">
        <ele>48.4</ele>
        <time>2020-01-26T09:34:38Z</time>
      </trkpt>
      <trkpt lat="45.79081" lon="-1.18474">
        <ele>48.2</ele>
        <time>2020-01-26T09:34:39Z</time>
      </trkpt>
      <trkpt lat="45.79084" lon="-1.18467">
        <ele>48.2</ele>
        <time>2020-01-26T09:34:40Z</time>
      </trkpt>
      <trkpt lat="45.79087" lon="-1.18461">
        <ele>48.2</ele>
        <time>2020-01-26T09:34:41Z</time>
      </trkpt>
      <trkpt lat="45.79089" lon="-1.18456">
        <ele>48.2</ele>
        <time>2020-01-26T09:34:42Z</time>
      </trkpt>
      <trkpt lat="45.79092" lon="-1.1845">
        <ele>48.2</ele>
        <time>2020-01-26T09:34:43Z</time>
      </trkpt>
      <trkpt lat="45.79094" lon="-1.18445">
        <ele>48.4</ele>
        <time>2020-01-26T09:34:44Z</time>
      </trkpt>
      <trkpt lat="45.79097" lon="-1.1844">
        <ele>48.6</ele>
        <time>2020-01-26T09:34:45Z</time>
      </trkpt>
      <trkpt lat="45.79099" lon="-1.18435">
        <ele>48.6</ele>
        <time>2020-01-26T09:34:46Z</time>
      </trkpt>
      <trkpt lat="45.79102" lon="-1.1843">
        <ele>48.8</ele>
        <time>2020-01-26T09:34:47Z</time>
      </trkpt>
      <trkpt lat="45.79104" lon="-1.18425">
        <ele>48.8</ele>
        <time>2020-01-26T09:34:48Z</time>
      </trkpt>
      <trkpt lat="45.79107" lon="-1.1842">
        <ele>48.8</ele>
        <time>2020-01-26T09:34:49Z</time>
      </trkpt>
      <trkpt lat="45.79109" lon="-1.18414">
        <ele>48.8</ele>
        <time>2020-01-26T09:34:50Z</time>
      </trkpt>
      <trkpt lat="45.79111" lon="-1.18409">
        <ele>48.6</ele>
        <time>2020-01-26T09:34:51Z</time>
      </trkpt>
      <trkpt lat="45.79114" lon="-1.18404">
        <ele>48.4</ele>
        <time>2020-01-26T09:34:52Z</time>
      </trkpt>
      <trkpt lat="45.79116" lon="-1.18398">
        <ele>48.4</ele>
        <time>2020-01-26T09:34:53Z</time>
      </trkpt>
      <trkpt lat="45.79119" lon="-1.18393">
        <ele>48.2</ele>
        <time>2020-01-26T09:34:54Z</time>
      </trkpt>
      <trkpt lat="45.79122" lon="-1.18388">
        <ele>48</ele>
        <time>2020-01-26T09:34:55Z</time>
      </trkpt>
      <trkpt lat="45.79124" lon="-1.18382">
        <ele>48</ele>
        <time>2020-01-26T09:34:56Z</time>
      </trkpt>
      <trkpt lat="45.79127" lon="-1.18376">
        <ele>48</ele>
        <time>2020-01-26T09:34:57Z</time>
      </trkpt>
      <trkpt lat="45.79129" lon="-1.1837">
        <ele>48</ele>
        <time>2020-01-26T09:34:58Z</time>
      </trkpt>
      <trkpt lat="45.79132" lon="-1.18363">
        <ele>48</ele>
        <time>2020-01-26T09:34:59Z</time>
      </trkpt>
      <trkpt lat="45.79135" lon="-1.18357">
        <ele>48</ele>
        <time>2020-01-26T09:35:00Z</time>
      </trkpt>
      <trkpt lat="45.79138" lon="-1.18352">
        <ele>48</ele>
        <time>2020-01-26T09:35:01Z</time>
      </trkpt>
      <trkpt lat="45.79141" lon="-1.18346">
        <ele>48</ele>
        <time>2020-01-26T09:35:02Z</time>
      </trkpt>
      <trkpt lat="45.79144" lon="-1.18341">
        <ele>48</ele>
        <time>2020-01-26T09:35:03Z</time>
      </trkpt>
      <trkpt lat="45.79147" lon="-1.18334">
        <ele>48.2</ele>
        <time>2020-01-26T09:35:04Z</time>
      </trkpt>
      <trkpt lat="45.79151" lon="-1.18329">
        <ele>48.2</ele>
        <time>2020-01-26T09:35:05Z</time>
      </trkpt>
      <trkpt lat="45.79153" lon="-1.18322">
        <ele>48.2</ele>
        <time>2020-01-26T09:35:06Z</time>
      </trkpt>
      <trkpt lat="45.79156" lon="-1.18315">
        <ele>48.4</ele>
        <time>2020-01-26T09:35:07Z</time>
      </trkpt>
      <trkpt lat="45.7916" lon="-1.18309">
        <ele>48.6</ele>
        <time>2020-01-26T09:35:08Z</time>
      </trkpt>
      <trkpt lat="45.79163" lon="-1.18303">
        <ele>48.6</ele>
        <time>2020-01-26T09:35:09Z</time>
      </trkpt>
      <trkpt lat="45.79166" lon="-1.18297">
        <ele>49</ele>
        <time>2020-01-26T09:35:10Z</time>
      </trkpt>
      <trkpt lat="45.79169" lon="-1.18291">
        <ele>49.2</ele>
        <time>2020-01-26T09:35:11Z</time>
      </trkpt>
      <trkpt lat="45.79172" lon="-1.18284">
        <ele>49.4</ele>
        <time>2020-01-26T09:35:12Z</time>
      </trkpt>
      <trkpt lat="45.79175" lon="-1.18279">
        <ele>49.6</ele>
        <time>2020-01-26T09:35:13Z</time>
      </trkpt>
      <trkpt lat="45.79177" lon="-1.18272">
        <ele>49.6</ele>
        <time>2020-01-26T09:35:14Z</time>
      </trkpt>
      <trkpt lat="45.79181" lon="-1.18266">
        <ele>49.8</ele>
        <time>2020-01-26T09:35:15Z</time>
      </trkpt>
      <trkpt lat="45.79184" lon="-1.1826">
        <ele>49.8</ele>
        <time>2020-01-26T09:35:16Z</time>
      </trkpt>
      <trkpt lat="45.79187" lon="-1.18254">
        <ele>49.8</ele>
        <time>2020-01-26T09:35:17Z</time>
      </trkpt>
      <trkpt lat="45.7919" lon="-1.18248">
        <ele>49.8</ele>
        <time>2020-01-26T09:35:18Z</time>
      </trkpt>
      <trkpt lat="45.79192" lon="-1.18242">
        <ele>50</ele>
        <time>2020-01-26T09:35:19Z</time>
      </trkpt>
      <trkpt lat="45.79195" lon="-1.18236">
        <ele>50</ele>
        <time>2020-01-26T09:35:20Z</time>
      </trkpt>
      <trkpt lat="45.79198" lon="-1.1823">
        <ele>50</ele>
        <time>2020-01-26T09:35:21Z</time>
      </trkpt>
      <trkpt lat="45.79202" lon="-1.18223">
        <ele>50</ele>
        <time>2020-01-26T09:35:22Z</time>
      </trkpt>
      <trkpt lat="45.79204" lon="-1.18217">
        <ele>50</ele>
        <time>2020-01-26T09:35:23Z</time>
      </trkpt>
      <trkpt lat="45.79207" lon="-1.18211">
        <ele>50</ele>
        <time>2020-01-26T09:35:24Z</time>
      </trkpt>
      <trkpt lat="45.7921" lon="-1.18206">
        <ele>50</ele>
        <time>2020-01-26T09:35:25Z</time>
      </trkpt>
      <trkpt lat="45.79213" lon="-1.18199">
        <ele>50</ele>
        <time>2020-01-26T09:35:26Z</time>
      </trkpt>
      <trkpt lat="45.79216" lon="-1.18193">
        <ele>50</ele>
        <time>2020-01-26T09:35:27Z</time>
      </trkpt>
      <trkpt lat="45.79219" lon="-1.18186">
        <ele>50</ele>
        <time>2020-01-26T09:35:28Z</time>
      </trkpt>
      <trkpt lat="45.79221" lon="-1.18179">
        <ele>49.8</ele>
        <time>2020-01-26T09:35:29Z</time>
      </trkpt>
      <trkpt lat="45.79224" lon="-1.18174">
        <ele>49.8</ele>
        <time>2020-01-26T09:35:30Z</time>
      </trkpt>
      <trkpt lat="45.79227" lon="-1.18168">
        <ele>49.8</ele>
        <time>2020-01-26T09:35:31Z</time>
      </trkpt>
      <trkpt lat="45.7923" lon="-1.18162">
        <ele>49.8</ele>
        <time>2020-01-26T09:35:32Z</time>
      </trkpt>
      <trkpt lat="45.79233" lon="-1.18155">
        <ele>49.8</ele>
        <time>2020-01-26T09:35:33Z</time>
      </trkpt>
      <trkpt lat="45.79236" lon="-1.1815">
        <ele>49.6</ele>
        <time>2020-01-26T09:35:34Z</time>
      </trkpt>
      <trkpt lat="45.79239" lon="-1.18144">
        <ele>49.6</ele>
        <time>2020-01-26T09:35:35Z</time>
      </trkpt>
      <trkpt lat="45.79243" lon="-1.18137">
        <ele>49.6</ele>
        <time>2020-01-26T09:35:36Z</time>
      </trkpt>
      <trkpt lat="45.79245" lon="-1.18131">
        <ele>49.8</ele>
        <time>2020-01-26T09:35:37Z</time>
      </trkpt>
      <trkpt lat="45.79249" lon="-1.18125">
        <ele>50</ele>
        <time>2020-01-26T09:35:38Z</time>
      </trkpt>
      <trkpt lat="45.79251" lon="-1.18118">
        <ele>50.4</ele>
        <time>2020-01-26T09:35:39Z</time>
      </trkpt>
      <trkpt lat="45.79254" lon="-1.18112">
        <ele>50.4</ele>
        <time>2020-01-26T09:35:40Z</time>
      </trkpt>
      <trkpt lat="45.79256" lon="-1.18105">
        <ele>50.6</ele>
        <time>2020-01-26T09:35:41Z</time>
      </trkpt>
      <trkpt lat="45.79259" lon="-1.18097">
        <ele>50.4</ele>
        <time>2020-01-26T09:35:42Z</time>
      </trkpt>
      <trkpt lat="45.79262" lon="-1.18091">
        <ele>50.4</ele>
        <time>2020-01-26T09:35:43Z</time>
      </trkpt>
      <trkpt lat="45.79264" lon="-1.18086">
        <ele>50.2</ele>
        <time>2020-01-26T09:35:44Z</time>
      </trkpt>
      <trkpt lat="45.79267" lon="-1.18078">
        <ele>50.4</ele>
        <time>2020-01-26T09:35:45Z</time>
      </trkpt>
      <trkpt lat="45.79269" lon="-1.18072">
        <ele>50.8</ele>
        <time>2020-01-26T09:35:46Z</time>
      </trkpt>
      <trkpt lat="45.79272" lon="-1.18064">
        <ele>51.2</ele>
        <time>2020-01-26T09:35:47Z</time>
      </trkpt>
      <trkpt lat="45.79276" lon="-1.18057">
        <ele>51.4</ele>
        <time>2020-01-26T09:35:48Z</time>
      </trkpt>
      <trkpt lat="45.79279" lon="-1.1805">
        <ele>51.6</ele>
        <time>2020-01-26T09:35:49Z</time>
      </trkpt>
      <trkpt lat="45.7928" lon="-1.18043">
        <ele>51.6</ele>
        <time>2020-01-26T09:35:50Z</time>
      </trkpt>
      <trkpt lat="45.79284" lon="-1.18037">
        <ele>51.8</ele>
        <time>2020-01-26T09:35:51Z</time>
      </trkpt>
      <trkpt lat="45.79286" lon="-1.1803">
        <ele>51.8</ele>
        <time>2020-01-26T09:35:52Z</time>
      </trkpt>
      <trkpt lat="45.79288" lon="-1.18022">
        <ele>51.8</ele>
        <time>2020-01-26T09:35:53Z</time>
      </trkpt>
      <trkpt lat="45.7929" lon="-1.18016">
        <ele>51.6</ele>
        <time>2020-01-26T09:35:54Z</time>
      </trkpt>
      <trkpt lat="45.79292" lon="-1.18009">
        <ele>51.4</ele>
        <time>2020-01-26T09:35:55Z</time>
      </trkpt>
      <trkpt lat="45.79295" lon="-1.18001">
        <ele>51</ele>
        <time>2020-01-26T09:35:56Z</time>
      </trkpt>
      <trkpt lat="45.79297" lon="-1.17995">
        <ele>50.8</ele>
        <time>2020-01-26T09:35:57Z</time>
      </trkpt>
      <trkpt lat="45.79299" lon="-1.17987">
        <ele>50.6</ele>
        <time>2020-01-26T09:35:58Z</time>
      </trkpt>
      <trkpt lat="45.79301" lon="-1.17979">
        <ele>50.4</ele>
        <time>2020-01-26T09:35:59Z</time>
      </trkpt>
      <trkpt lat="45.79303" lon="-1.17972">
        <ele>50.4</ele>
        <time>2020-01-26T09:36:00Z</time>
      </trkpt>
      <trkpt lat="45.79306" lon="-1.17966">
        <ele>50</ele>
        <time>2020-01-26T09:36:01Z</time>
      </trkpt>
      <trkpt lat="45.79308" lon="-1.17959">
        <ele>50</ele>
        <time>2020-01-26T09:36:02Z</time>
      </trkpt>
      <trkpt lat="45.7931" lon="-1.17951">
        <ele>50</ele>
        <time>2020-01-26T09:36:03Z</time>
      </trkpt>
      <trkpt lat="45.79313" lon="-1.17944">
        <ele>50</ele>
        <time>2020-01-26T09:36:04Z</time>
      </trkpt>
      <trkpt lat="45.79315" lon="-1.17937">
        <ele>50</ele>
        <time>2020-01-26T09:36:05Z</time>
      </trkpt>
      <trkpt lat="45.79317" lon="-1.17929">
        <ele>49.8</ele>
        <time>2020-01-26T09:36:06Z</time>
      </trkpt>
      <trkpt lat="45.7932" lon="-1.17923">
        <ele>49.2</ele>
        <time>2020-01-26T09:36:07Z</time>
      </trkpt>
      <trkpt lat="45.79322" lon="-1.17915">
        <ele>49</ele>
        <time>2020-01-26T09:36:08Z</time>
      </trkpt>
      <trkpt lat="45.79324" lon="-1.17908">
        <ele>48.6</ele>
        <time>2020-01-26T09:36:09Z</time>
      </trkpt>
      <trkpt lat="45.79326" lon="-1.17901">
        <ele>48.2</ele>
        <time>2020-01-26T09:36:10Z</time>
      </trkpt>
      <trkpt lat="45.79328" lon="-1.17893">
        <ele>48.2</ele>
        <time>2020-01-26T09:36:11Z</time>
      </trkpt>
      <trkpt lat="45.7933" lon="-1.17886">
        <ele>48.2</ele>
        <time>2020-01-26T09:36:12Z</time>
      </trkpt>
      <trkpt lat="45.79332" lon="-1.17878">
        <ele>48.2</ele>
        <time>2020-01-26T09:36:13Z</time>
      </trkpt>
      <trkpt lat="45.79334" lon="-1.1787">
        <ele>48</ele>
        <time>2020-01-26T09:36:14Z</time>
      </trkpt>
      <trkpt lat="45.79337" lon="-1.17862">
        <ele>48</ele>
        <time>2020-01-26T09:36:15Z</time>
      </trkpt>
      <trkpt lat="45.79338" lon="-1.17855">
        <ele>48.2</ele>
        <time>2020-01-26T09:36:16Z</time>
      </trkpt>
      <trkpt lat="45.7934" lon="-1.17849">
        <ele>48.2</ele>
        <time>2020-01-26T09:36:17Z</time>
      </trkpt>
      <trkpt lat="45.79342" lon="-1.17841">
        <ele>48.2</ele>
        <time>2020-01-26T09:36:18Z</time>
      </trkpt>
      <trkpt lat="45.79344" lon="-1.17833">
        <ele>48.2</ele>
        <time>2020-01-26T09:36:19Z</time>
      </trkpt>
      <trkpt lat="45.79346" lon="-1.17825">
        <ele>48.4</ele>
        <time>2020-01-26T09:36:20Z</time>
      </trkpt>
      <trkpt lat="45.79348" lon="-1.17818">
        <ele>48.6</ele>
        <time>2020-01-26T09:36:21Z</time>
      </trkpt>
      <trkpt lat="45.7935" lon="-1.1781">
        <ele>48.6</ele>
        <time>2020-01-26T09:36:22Z</time>
      </trkpt>
      <trkpt lat="45.79352" lon="-1.17803">
        <ele>48.8</ele>
        <time>2020-01-26T09:36:23Z</time>
      </trkpt>
      <trkpt lat="45.79353" lon="-1.17795">
        <ele>48.6</ele>
        <time>2020-01-26T09:36:24Z</time>
      </trkpt>
      <trkpt lat="45.79355" lon="-1.17787">
        <ele>48.6</ele>
        <time>2020-01-26T09:36:25Z</time>
      </trkpt>
      <trkpt lat="45.79356" lon="-1.17779">
        <ele>48.8</ele>
        <time>2020-01-26T09:36:26Z</time>
      </trkpt>
      <trkpt lat="45.79358" lon="-1.17771">
        <ele>48.8</ele>
        <time>2020-01-26T09:36:27Z</time>
      </trkpt>
      <trkpt lat="45.79359" lon="-1.17763">
        <ele>48.8</ele>
        <time>2020-01-26T09:36:28Z</time>
      </trkpt>
      <trkpt lat="45.79361" lon="-1.17756">
        <ele>48.8</ele>
        <time>2020-01-26T09:36:29Z</time>
      </trkpt>
      <trkpt lat="45.79362" lon="-1.17748">
        <ele>49</ele>
        <time>2020-01-26T09:36:30Z</time>
      </trkpt>
      <trkpt lat="45.79363" lon="-1.1774">
        <ele>49</ele>
        <time>2020-01-26T09:36:31Z</time>
      </trkpt>
      <trkpt lat="45.79365" lon="-1.17733">
        <ele>49</ele>
        <time>2020-01-26T09:36:32Z</time>
      </trkpt>
      <trkpt lat="45.79366" lon="-1.17726">
        <ele>49</ele>
        <time>2020-01-26T09:36:33Z</time>
      </trkpt>
      <trkpt lat="45.79368" lon="-1.17718">
        <ele>49</ele>
        <time>2020-01-26T09:36:34Z</time>
      </trkpt>
      <trkpt lat="45.7937" lon="-1.1771">
        <ele>49</ele>
        <time>2020-01-26T09:36:35Z</time>
      </trkpt>
      <trkpt lat="45.79371" lon="-1.17703">
        <ele>49</ele>
        <time>2020-01-26T09:36:36Z</time>
      </trkpt>
      <trkpt lat="45.79373" lon="-1.17696">
        <ele>49</ele>
        <time>2020-01-26T09:36:37Z</time>
      </trkpt>
      <trkpt lat="45.79375" lon="-1.17689">
        <ele>49</ele>
        <time>2020-01-26T09:36:38Z</time>
      </trkpt>
      <trkpt lat="45.79377" lon="-1.17682">
        <ele>49</ele>
        <time>2020-01-26T09:36:39Z</time>
      </trkpt>
      <trkpt lat="45.79378" lon="-1.17674">
        <ele>49</ele>
        <time>2020-01-26T09:36:40Z</time>
      </trkpt>
      <trkpt lat="45.7938" lon="-1.17667">
        <ele>49</ele>
        <time>2020-01-26T09:36:41Z</time>
      </trkpt>
      <trkpt lat="45.79382" lon="-1.17659">
        <ele>49</ele>
        <time>2020-01-26T09:36:42Z</time>
      </trkpt>
      <trkpt lat="45.79384" lon="-1.17652">
        <ele>49</ele>
        <time>2020-01-26T09:36:43Z</time>
      </trkpt>
      <trkpt lat="45.79385" lon="-1.17646">
        <ele>49</ele>
        <time>2020-01-26T09:36:44Z</time>
      </trkpt>
      <trkpt lat="45.79388" lon="-1.17638">
        <ele>49</ele>
        <time>2020-01-26T09:36:45Z</time>
      </trkpt>
      <trkpt lat="45.7939" lon="-1.17631">
        <ele>49</ele>
        <time>2020-01-26T09:36:46Z</time>
      </trkpt>
      <trkpt lat="45.79392" lon="-1.17624">
        <ele>49</ele>
        <time>2020-01-26T09:36:47Z</time>
      </trkpt>
      <trkpt lat="45.79395" lon="-1.17617">
        <ele>49</ele>
        <time>2020-01-26T09:36:48Z</time>
      </trkpt>
      <trkpt lat="45.79396" lon="-1.17609">
        <ele>49</ele>
        <time>2020-01-26T09:36:49Z</time>
      </trkpt>
      <trkpt lat="45.79398" lon="-1.17602">
        <ele>49</ele>
        <time>2020-01-26T09:36:50Z</time>
      </trkpt>
      <trkpt lat="45.794" lon="-1.17595">
        <ele>49</ele>
        <time>2020-01-26T09:36:51Z</time>
      </trkpt>
      <trkpt lat="45.79402" lon="-1.17587">
        <ele>49.2</ele>
        <time>2020-01-26T09:36:52Z</time>
      </trkpt>
      <trkpt lat="45.79404" lon="-1.17581">
        <ele>49.4</ele>
        <time>2020-01-26T09:36:53Z</time>
      </trkpt>
      <trkpt lat="45.79406" lon="-1.17574">
        <ele>49.6</ele>
        <time>2020-01-26T09:36:54Z</time>
      </trkpt>
      <trkpt lat="45.79408" lon="-1.17566">
        <ele>49.6</ele>
        <time>2020-01-26T09:36:55Z</time>
      </trkpt>
      <trkpt lat="45.7941" lon="-1.1756">
        <ele>49.8</ele>
        <time>2020-01-26T09:36:56Z</time>
      </trkpt>
      <trkpt lat="45.79412" lon="-1.17553">
        <ele>49.8</ele>
        <time>2020-01-26T09:36:57Z</time>
      </trkpt>
      <trkpt lat="45.79414" lon="-1.17547">
        <ele>50.2</ele>
        <time>2020-01-26T09:36:58Z</time>
      </trkpt>
      <trkpt lat="45.79416" lon="-1.1754">
        <ele>50</ele>
        <time>2020-01-26T09:36:59Z</time>
      </trkpt>
      <trkpt lat="45.79417" lon="-1.17533">
        <ele>50</ele>
        <time>2020-01-26T09:37:00Z</time>
      </trkpt>
      <trkpt lat="45.79419" lon="-1.17526">
        <ele>50</ele>
        <time>2020-01-26T09:37:01Z</time>
      </trkpt>
      <trkpt lat="45.7942" lon="-1.1752">
        <ele>50</ele>
        <time>2020-01-26T09:37:02Z</time>
      </trkpt>
      <trkpt lat="45.79422" lon="-1.17514">
        <ele>50</ele>
        <time>2020-01-26T09:37:03Z</time>
      </trkpt>
      <trkpt lat="45.79425" lon="-1.17507">
        <ele>49.8</ele>
        <time>2020-01-26T09:37:04Z</time>
      </trkpt>
      <trkpt lat="45.79427" lon="-1.175">
        <ele>49.6</ele>
        <time>2020-01-26T09:37:05Z</time>
      </trkpt>
      <trkpt lat="45.79428" lon="-1.17494">
        <ele>49.4</ele>
        <time>2020-01-26T09:37:06Z</time>
      </trkpt>
      <trkpt lat="45.7943" lon="-1.17487">
        <ele>49.6</ele>
        <time>2020-01-26T09:37:07Z</time>
      </trkpt>
      <trkpt lat="45.79433" lon="-1.1748">
        <ele>49.6</ele>
        <time>2020-01-26T09:37:08Z</time>
      </trkpt>
      <trkpt lat="45.79435" lon="-1.17474">
        <ele>49.8</ele>
        <time>2020-01-26T09:37:09Z</time>
      </trkpt>
      <trkpt lat="45.79436" lon="-1.17467">
        <ele>49.8</ele>
        <time>2020-01-26T09:37:10Z</time>
      </trkpt>
      <trkpt lat="45.79438" lon="-1.17461">
        <ele>49.8</ele>
        <time>2020-01-26T09:37:11Z</time>
      </trkpt>
      <trkpt lat="45.7944" lon="-1.17455">
        <ele>50</ele>
        <time>2020-01-26T09:37:12Z</time>
      </trkpt>
      <trkpt lat="45.79442" lon="-1.17448">
        <ele>50</ele>
        <time>2020-01-26T09:37:13Z</time>
      </trkpt>
      <trkpt lat="45.79444" lon="-1.17441">
        <ele>50</ele>
        <time>2020-01-26T09:37:14Z</time>
      </trkpt>
      <trkpt lat="45.79446" lon="-1.17434">
        <ele>50</ele>
        <time>2020-01-26T09:37:15Z</time>
      </trkpt>
      <trkpt lat="45.79448" lon="-1.17427">
        <ele>50</ele>
        <time>2020-01-26T09:37:16Z</time>
      </trkpt>
      <trkpt lat="45.79451" lon="-1.17419">
        <ele>50</ele>
        <time>2020-01-26T09:37:17Z</time>
      </trkpt>
      <trkpt lat="45.79453" lon="-1.17412">
        <ele>50</ele>
        <time>2020-01-26T09:37:18Z</time>
      </trkpt>
      <trkpt lat="45.79456" lon="-1.17405">
        <ele>50</ele>
        <time>2020-01-26T09:37:19Z</time>
      </trkpt>
      <trkpt lat="45.79458" lon="-1.17397">
        <ele>50.2</ele>
        <time>2020-01-26T09:37:20Z</time>
      </trkpt>
      <trkpt lat="45.79461" lon="-1.17391">
        <ele>50.4</ele>
        <time>2020-01-26T09:37:21Z</time>
      </trkpt>
      <trkpt lat="45.79464" lon="-1.17385">
        <ele>50.4</ele>
        <time>2020-01-26T09:37:22Z</time>
      </trkpt>
      <trkpt lat="45.79467" lon="-1.17378">
        <ele>50.2</ele>
        <time>2020-01-26T09:37:23Z</time>
      </trkpt>
      <trkpt lat="45.7947" lon="-1.17372">
        <ele>50.4</ele>
        <time>2020-01-26T09:37:24Z</time>
      </trkpt>
      <trkpt lat="45.79473" lon="-1.17365">
        <ele>50.6</ele>
        <time>2020-01-26T09:37:25Z</time>
      </trkpt>
      <trkpt lat="45.79476" lon="-1.17358">
        <ele>50.6</ele>
        <time>2020-01-26T09:37:26Z</time>
      </trkpt>
      <trkpt lat="45.79479" lon="-1.17352">
        <ele>50.8</ele>
        <time>2020-01-26T09:37:27Z</time>
      </trkpt>
      <trkpt lat="45.79482" lon="-1.17345">
        <ele>50.8</ele>
        <time>2020-01-26T09:37:28Z</time>
      </trkpt>
      <trkpt lat="45.79485" lon="-1.17338">
        <ele>50.6</ele>
        <time>2020-01-26T09:37:29Z</time>
      </trkpt>
      <trkpt lat="45.79488" lon="-1.17332">
        <ele>50.8</ele>
        <time>2020-01-26T09:37:30Z</time>
      </trkpt>
      <trkpt lat="45.79491" lon="-1.17325">
        <ele>50.8</ele>
        <time>2020-01-26T09:37:31Z</time>
      </trkpt>
      <trkpt lat="45.79494" lon="-1.17319">
        <ele>50.8</ele>
        <time>2020-01-26T09:37:32Z</time>
      </trkpt>
      <trkpt lat="45.79497" lon="-1.17312">
        <ele>50.8</ele>
        <time>2020-01-26T09:37:33Z</time>
      </trkpt>
      <trkpt lat="45.795" lon="-1.17306">
        <ele>51</ele>
        <time>2020-01-26T09:37:34Z</time>
      </trkpt>
      <trkpt lat="45.79503" lon="-1.17299">
        <ele>51</ele>
        <time>2020-01-26T09:37:35Z</time>
      </trkpt>
      <trkpt lat="45.79507" lon="-1.17293">
        <ele>51</ele>
        <time>2020-01-26T09:37:36Z</time>
      </trkpt>
      <trkpt lat="45.79509" lon="-1.17285">
        <ele>51</ele>
        <time>2020-01-26T09:37:37Z</time>
      </trkpt>
      <trkpt lat="45.79512" lon="-1.17279">
        <ele>51</ele>
        <time>2020-01-26T09:37:38Z</time>
      </trkpt>
      <trkpt lat="45.79515" lon="-1.17272">
        <ele>51</ele>
        <time>2020-01-26T09:37:39Z</time>
      </trkpt>
      <trkpt lat="45.79518" lon="-1.17266">
        <ele>51</ele>
        <time>2020-01-26T09:37:40Z</time>
      </trkpt>
      <trkpt lat="45.7952" lon="-1.1726">
        <ele>51</ele>
        <time>2020-01-26T09:37:41Z</time>
      </trkpt>
      <trkpt lat="45.79523" lon="-1.17254">
        <ele>51</ele>
        <time>2020-01-26T09:37:42Z</time>
      </trkpt>
      <trkpt lat="45.79527" lon="-1.17247">
        <ele>51</ele>
        <time>2020-01-26T09:37:43Z</time>
      </trkpt>
      <trkpt lat="45.79529" lon="-1.17241">
        <ele>51</ele>
        <time>2020-01-26T09:37:44Z</time>
      </trkpt>
      <trkpt lat="45.79532" lon="-1.17235">
        <ele>51.2</ele>
        <time>2020-01-26T09:37:45Z</time>
      </trkpt>
      <trkpt lat="45.79534" lon="-1.17229">
        <ele>51.4</ele>
        <time>2020-01-26T09:37:46Z</time>
      </trkpt>
      <trkpt lat="45.79536" lon="-1.17222">
        <ele>51.6</ele>
        <time>2020-01-26T09:37:47Z</time>
      </trkpt>
      <trkpt lat="45.79538" lon="-1.17215">
        <ele>51.6</ele>
        <time>2020-01-26T09:37:48Z</time>
      </trkpt>
      <trkpt lat="45.79538" lon="-1.17208">
        <ele>51.8</ele>
        <time>2020-01-26T09:37:49Z</time>
      </trkpt>
      <trkpt lat="45.79538" lon="-1.17201">
        <ele>51.8</ele>
        <time>2020-01-26T09:37:50Z</time>
      </trkpt>
      <trkpt lat="45.79537" lon="-1.17194">
        <ele>51.8</ele>
        <time>2020-01-26T09:37:51Z</time>
      </trkpt>
      <trkpt lat="45.79537" lon="-1.17188">
        <ele>52</ele>
        <time>2020-01-26T09:37:52Z</time>
      </trkpt>
      <trkpt lat="45.79536" lon="-1.17181">
        <ele>52.2</ele>
        <time>2020-01-26T09:37:53Z</time>
      </trkpt>
      <trkpt lat="45.79535" lon="-1.17176">
        <ele>52.4</ele>
        <time>2020-01-26T09:37:54Z</time>
      </trkpt>
      <trkpt lat="45.79534" lon="-1.17171">
        <ele>52.6</ele>
        <time>2020-01-26T09:37:55Z</time>
      </trkpt>
      <trkpt lat="45.79533" lon="-1.17166">
        <ele>52.6</ele>
        <time>2020-01-26T09:37:56Z</time>
      </trkpt>
      <trkpt lat="45.79533" lon="-1.17163">
        <ele>52.8</ele>
        <time>2020-01-26T09:37:57Z</time>
      </trkpt>
      <trkpt lat="45.79532" lon="-1.17161">
        <ele>52.8</ele>
        <time>2020-01-26T09:37:58Z</time>
      </trkpt>
      <trkpt lat="45.79531" lon="-1.17159">
        <ele>52.8</ele>
        <time>2020-01-26T09:37:59Z</time>
      </trkpt>
      <trkpt lat="45.7953" lon="-1.17156">
        <ele>53</ele>
        <time>2020-01-26T09:38:00Z</time>
      </trkpt>
      <trkpt lat="45.79529" lon="-1.17152">
        <ele>53.2</ele>
        <time>2020-01-26T09:38:01Z</time>
      </trkpt>
      <trkpt lat="45.7953" lon="-1.17149">
        <ele>53.4</ele>
        <time>2020-01-26T09:38:02Z</time>
      </trkpt>
      <trkpt lat="45.79529" lon="-1.17144">
        <ele>53.6</ele>
        <time>2020-01-26T09:38:03Z</time>
      </trkpt>
      <trkpt lat="45.79528" lon="-1.17141">
        <ele>53.6</ele>
        <time>2020-01-26T09:38:04Z</time>
      </trkpt>
      <trkpt lat="45.79528" lon="-1.17138">
        <ele>53.8</ele>
        <time>2020-01-26T09:38:05Z</time>
      </trkpt>
      <trkpt lat="45.79527" lon="-1.17135">
        <ele>53.8</ele>
        <time>2020-01-26T09:38:06Z</time>
      </trkpt>
      <trkpt lat="45.79527" lon="-1.17133">
        <ele>54</ele>
        <time>2020-01-26T09:38:07Z</time>
      </trkpt>
      <trkpt lat="45.79527" lon="-1.17131">
        <ele>54</ele>
        <time>2020-01-26T09:38:08Z</time>
      </trkpt>
      <trkpt lat="45.79527" lon="-1.17127">
        <ele>54.4</ele>
        <time>2020-01-26T09:38:09Z</time>
      </trkpt>
      <trkpt lat="45.79527" lon="-1.17123">
        <ele>54.4</ele>
        <time>2020-01-26T09:38:10Z</time>
      </trkpt>
      <trkpt lat="45.79526" lon="-1.17119">
        <ele>54.6</ele>
        <time>2020-01-26T09:38:11Z</time>
      </trkpt>
      <trkpt lat="45.79526" lon="-1.17114">
        <ele>54.8</ele>
        <time>2020-01-26T09:38:12Z</time>
      </trkpt>
      <trkpt lat="45.79525" lon="-1.1711">
        <ele>55</ele>
        <time>2020-01-26T09:38:13Z</time>
      </trkpt>
      <trkpt lat="45.79524" lon="-1.17107">
        <ele>55.2</ele>
        <time>2020-01-26T09:38:14Z</time>
      </trkpt>
      <trkpt lat="45.79524" lon="-1.17104">
        <ele>55.2</ele>
        <time>2020-01-26T09:38:15Z</time>
      </trkpt>
      <trkpt lat="45.79523" lon="-1.17102">
        <ele>55.2</ele>
        <time>2020-01-26T09:38:16Z</time>
      </trkpt>
      <trkpt lat="45.79523" lon="-1.17099">
        <ele>55.4</ele>
        <time>2020-01-26T09:38:17Z</time>
      </trkpt>
      <trkpt lat="45.79522" lon="-1.17097">
        <ele>55.2</ele>
        <time>2020-01-26T09:38:18Z</time>
      </trkpt>
      <trkpt lat="45.79523" lon="-1.17095">
        <ele>55.4</ele>
        <time>2020-01-26T09:38:19Z</time>
      </trkpt>
      <trkpt lat="45.79523" lon="-1.17095">
        <ele>55.4</ele>
        <time>2020-01-26T09:38:20Z</time>
      </trkpt>
      <trkpt lat="45.79523" lon="-1.17095">
        <ele>55.6</ele>
        <time>2020-01-26T09:38:21Z</time>
      </trkpt>
      <trkpt lat="45.79523" lon="-1.17095">
        <ele>55.4</ele>
        <time>2020-01-26T09:38:22Z</time>
      </trkpt>
      <trkpt lat="45.79523" lon="-1.17095">
        <ele>55.2</ele>
        <time>2020-01-26T09:38:23Z</time>
      </trkpt>
      <trkpt lat="45.79523" lon="-1.17092">
        <ele>55.2</ele>
        <time>2020-01-26T09:38:24Z</time>
      </trkpt>
      <trkpt lat="45.79523" lon="-1.17089">
        <ele>55.2</ele>
        <time>2020-01-26T09:38:25Z</time>
      </trkpt>
      <trkpt lat="45.79523" lon="-1.17087">
        <ele>55.2</ele>
        <time>2020-01-26T09:38:26Z</time>
      </trkpt>
      <trkpt lat="45.79521" lon="-1.17084">
        <ele>55.2</ele>
        <time>2020-01-26T09:38:27Z</time>
      </trkpt>
      <trkpt lat="45.7952" lon="-1.17081">
        <ele>55.4</ele>
        <time>2020-01-26T09:38:28Z</time>
      </trkpt>
      <trkpt lat="45.79519" lon="-1.17076">
        <ele>55.4</ele>
        <time>2020-01-26T09:38:29Z</time>
      </trkpt>
      <trkpt lat="45.79519" lon="-1.17072">
        <ele>55.6</ele>
        <time>2020-01-26T09:38:30Z</time>
      </trkpt>
      <trkpt lat="45.79519" lon="-1.17067">
        <ele>55.4</ele>
        <time>2020-01-26T09:38:31Z</time>
      </trkpt>
      <trkpt lat="45.79518" lon="-1.17062">
        <ele>55.4</ele>
        <time>2020-01-26T09:38:32Z</time>
      </trkpt>
      <trkpt lat="45.79515" lon="-1.17058">
        <ele>55.2</ele>
        <time>2020-01-26T09:38:33Z</time>
      </trkpt>
      <trkpt lat="45.79512" lon="-1.17056">
        <ele>55.2</ele>
        <time>2020-01-26T09:38:34Z</time>
      </trkpt>
      <trkpt lat="45.79509" lon="-1.17056">
        <ele>55.4</ele>
        <time>2020-01-26T09:38:35Z</time>
      </trkpt>
      <trkpt lat="45.79505" lon="-1.17058">
        <ele>55.6</ele>
        <time>2020-01-26T09:38:36Z</time>
      </trkpt>
      <trkpt lat="45.79502" lon="-1.17062">
        <ele>55.6</ele>
        <time>2020-01-26T09:38:37Z</time>
      </trkpt>
      <trkpt lat="45.795" lon="-1.17066">
        <ele>55.8</ele>
        <time>2020-01-26T09:38:38Z</time>
      </trkpt>
      <trkpt lat="45.79498" lon="-1.1707">
        <ele>55.8</ele>
        <time>2020-01-26T09:38:39Z</time>
      </trkpt>
      <trkpt lat="45.79495" lon="-1.17074">
        <ele>55.8</ele>
        <time>2020-01-26T09:38:40Z</time>
      </trkpt>
      <trkpt lat="45.79493" lon="-1.17078">
        <ele>55.8</ele>
        <time>2020-01-26T09:38:41Z</time>
      </trkpt>
      <trkpt lat="45.7949" lon="-1.17082">
        <ele>56.2</ele>
        <time>2020-01-26T09:38:42Z</time>
      </trkpt>
      <trkpt lat="45.79488" lon="-1.17087">
        <ele>56.2</ele>
        <time>2020-01-26T09:38:43Z</time>
      </trkpt>
      <trkpt lat="45.79486" lon="-1.17092">
        <ele>56</ele>
        <time>2020-01-26T09:38:44Z</time>
      </trkpt>
      <trkpt lat="45.79483" lon="-1.17097">
        <ele>56</ele>
        <time>2020-01-26T09:38:45Z</time>
      </trkpt>
      <trkpt lat="45.7948" lon="-1.17102">
        <ele>56</ele>
        <time>2020-01-26T09:38:46Z</time>
      </trkpt>
      <trkpt lat="45.79478" lon="-1.17107">
        <ele>56</ele>
        <time>2020-01-26T09:38:47Z</time>
      </trkpt>
      <trkpt lat="45.79475" lon="-1.17112">
        <ele>56</ele>
        <time>2020-01-26T09:38:48Z</time>
      </trkpt>
      <trkpt lat="45.79473" lon="-1.17117">
        <ele>56</ele>
        <time>2020-01-26T09:38:49Z</time>
      </trkpt>
      <trkpt lat="45.7947" lon="-1.17121">
        <ele>56</ele>
        <time>2020-01-26T09:38:50Z</time>
      </trkpt>
      <trkpt lat="45.79467" lon="-1.17126">
        <ele>56</ele>
        <time>2020-01-26T09:38:51Z</time>
      </trkpt>
      <trkpt lat="45.79465" lon="-1.17131">
        <ele>56</ele>
        <time>2020-01-26T09:38:52Z</time>
      </trkpt>
      <trkpt lat="45.79462" lon="-1.17136">
        <ele>56</ele>
        <time>2020-01-26T09:38:53Z</time>
      </trkpt>
      <trkpt lat="45.79459" lon="-1.1714">
        <ele>56</ele>
        <time>2020-01-26T09:38:54Z</time>
      </trkpt>
      <trkpt lat="45.79456" lon="-1.17145">
        <ele>56</ele>
        <time>2020-01-26T09:38:55Z</time>
      </trkpt>
      <trkpt lat="45.79453" lon="-1.1715">
        <ele>56</ele>
        <time>2020-01-26T09:38:56Z</time>
      </trkpt>
      <trkpt lat="45.79451" lon="-1.17154">
        <ele>56</ele>
        <time>2020-01-26T09:38:57Z</time>
      </trkpt>
      <trkpt lat="45.79447" lon="-1.17158">
        <ele>56</ele>
        <time>2020-01-26T09:38:58Z</time>
      </trkpt>
      <trkpt lat="45.79443" lon="-1.17161">
        <ele>56</ele>
        <time>2020-01-26T09:38:59Z</time>
      </trkpt>
      <trkpt lat="45.7944" lon="-1.17162">
        <ele>56</ele>
        <time>2020-01-26T09:39:00Z</time>
      </trkpt>
      <trkpt lat="45.79436" lon="-1.1716">
        <ele>56</ele>
        <time>2020-01-26T09:39:01Z</time>
      </trkpt>
      <trkpt lat="45.79433" lon="-1.17156">
        <ele>56</ele>
        <time>2020-01-26T09:39:02Z</time>
      </trkpt>
      <trkpt lat="45.79431" lon="-1.17153">
        <ele>56</ele>
        <time>2020-01-26T09:39:03Z</time>
      </trkpt>
      <trkpt lat="45.79429" lon="-1.17147">
        <ele>56</ele>
        <time>2020-01-26T09:39:04Z</time>
      </trkpt>
      <trkpt lat="45.79428" lon="-1.17142">
        <ele>56.2</ele>
        <time>2020-01-26T09:39:05Z</time>
      </trkpt>
      <trkpt lat="45.79428" lon="-1.17137">
        <ele>56.4</ele>
        <time>2020-01-26T09:39:06Z</time>
      </trkpt>
      <trkpt lat="45.79427" lon="-1.17131">
        <ele>56.6</ele>
        <time>2020-01-26T09:39:07Z</time>
      </trkpt>
      <trkpt lat="45.79427" lon="-1.17126">
        <ele>57</ele>
        <time>2020-01-26T09:39:08Z</time>
      </trkpt>
      <trkpt lat="45.79425" lon="-1.1712">
        <ele>57.2</ele>
        <time>2020-01-26T09:39:09Z</time>
      </trkpt>
      <trkpt lat="45.79425" lon="-1.17115">
        <ele>57.4</ele>
        <time>2020-01-26T09:39:10Z</time>
      </trkpt>
      <trkpt lat="45.79424" lon="-1.1711">
        <ele>57.8</ele>
        <time>2020-01-26T09:39:11Z</time>
      </trkpt>
      <trkpt lat="45.79423" lon="-1.17105">
        <ele>58.2</ele>
        <time>2020-01-26T09:39:12Z</time>
      </trkpt>
      <trkpt lat="45.79422" lon="-1.171">
        <ele>58.4</ele>
        <time>2020-01-26T09:39:13Z</time>
      </trkpt>
      <trkpt lat="45.79422" lon="-1.17095">
        <ele>58.6</ele>
        <time>2020-01-26T09:39:14Z</time>
      </trkpt>
      <trkpt lat="45.79422" lon="-1.17089">
        <ele>59</ele>
        <time>2020-01-26T09:39:15Z</time>
      </trkpt>
      <trkpt lat="45.7942" lon="-1.17083">
        <ele>59.2</ele>
        <time>2020-01-26T09:39:16Z</time>
      </trkpt>
      <trkpt lat="45.7942" lon="-1.17077">
        <ele>59.4</ele>
        <time>2020-01-26T09:39:17Z</time>
      </trkpt>
      <trkpt lat="45.79419" lon="-1.17071">
        <ele>59.6</ele>
        <time>2020-01-26T09:39:18Z</time>
      </trkpt>
      <trkpt lat="45.79418" lon="-1.17066">
        <ele>59.6</ele>
        <time>2020-01-26T09:39:19Z</time>
      </trkpt>
      <trkpt lat="45.79417" lon="-1.1706">
        <ele>59.8</ele>
        <time>2020-01-26T09:39:20Z</time>
      </trkpt>
      <trkpt lat="45.79417" lon="-1.17055">
        <ele>59.8</ele>
        <time>2020-01-26T09:39:21Z</time>
      </trkpt>
      <trkpt lat="45.79416" lon="-1.1705">
        <ele>59.8</ele>
        <time>2020-01-26T09:39:22Z</time>
      </trkpt>
      <trkpt lat="45.79416" lon="-1.17044">
        <ele>59.8</ele>
        <time>2020-01-26T09:39:23Z</time>
      </trkpt>
      <trkpt lat="45.79415" lon="-1.17038">
        <ele>60</ele>
        <time>2020-01-26T09:39:24Z</time>
      </trkpt>
      <trkpt lat="45.79414" lon="-1.17033">
        <ele>60</ele>
        <time>2020-01-26T09:39:25Z</time>
      </trkpt>
      <trkpt lat="45.79413" lon="-1.17027">
        <ele>60</ele>
        <time>2020-01-26T09:39:26Z</time>
      </trkpt>
      <trkpt lat="45.79412" lon="-1.17021">
        <ele>60</ele>
        <time>2020-01-26T09:39:27Z</time>
      </trkpt>
      <trkpt lat="45.79412" lon="-1.17016">
        <ele>60</ele>
        <time>2020-01-26T09:39:28Z</time>
      </trkpt>
      <trkpt lat="45.79411" lon="-1.1701">
        <ele>60</ele>
        <time>2020-01-26T09:39:29Z</time>
      </trkpt>
      <trkpt lat="45.79411" lon="-1.17004">
        <ele>60</ele>
        <time>2020-01-26T09:39:30Z</time>
      </trkpt>
      <trkpt lat="45.7941" lon="-1.16997">
        <ele>59.8</ele>
        <time>2020-01-26T09:39:31Z</time>
      </trkpt>
      <trkpt lat="45.79409" lon="-1.1699">
        <ele>59.6</ele>
        <time>2020-01-26T09:39:32Z</time>
      </trkpt>
      <trkpt lat="45.79408" lon="-1.16982">
        <ele>59.2</ele>
        <time>2020-01-26T09:39:33Z</time>
      </trkpt>
      <trkpt lat="45.79406" lon="-1.16974">
        <ele>58.8</ele>
        <time>2020-01-26T09:39:34Z</time>
      </trkpt>
      <trkpt lat="45.79405" lon="-1.16965">
        <ele>58.6</ele>
        <time>2020-01-26T09:39:35Z</time>
      </trkpt>
      <trkpt lat="45.79404" lon="-1.16956">
        <ele>58.4</ele>
        <time>2020-01-26T09:39:36Z</time>
      </trkpt>
      <trkpt lat="45.79403" lon="-1.16948">
        <ele>58.4</ele>
        <time>2020-01-26T09:39:37Z</time>
      </trkpt>
      <trkpt lat="45.79402" lon="-1.16939">
        <ele>58.2</ele>
        <time>2020-01-26T09:39:38Z</time>
      </trkpt>
      <trkpt lat="45.79401" lon="-1.16931">
        <ele>58.2</ele>
        <time>2020-01-26T09:39:39Z</time>
      </trkpt>
      <trkpt lat="45.794" lon="-1.16924">
        <ele>58.2</ele>
        <time>2020-01-26T09:39:40Z</time>
      </trkpt>
      <trkpt lat="45.79399" lon="-1.16916">
        <ele>58.2</ele>
        <time>2020-01-26T09:39:41Z</time>
      </trkpt>
      <trkpt lat="45.79398" lon="-1.16908">
        <ele>58</ele>
        <time>2020-01-26T09:39:42Z</time>
      </trkpt>
      <trkpt lat="45.79397" lon="-1.16901">
        <ele>58</ele>
        <time>2020-01-26T09:39:43Z</time>
      </trkpt>
      <trkpt lat="45.79396" lon="-1.16893">
        <ele>58.4</ele>
        <time>2020-01-26T09:39:44Z</time>
      </trkpt>
      <trkpt lat="45.79395" lon="-1.16886">
        <ele>58.4</ele>
        <time>2020-01-26T09:39:45Z</time>
      </trkpt>
      <trkpt lat="45.79395" lon="-1.16879">
        <ele>58.6</ele>
        <time>2020-01-26T09:39:46Z</time>
      </trkpt>
      <trkpt lat="45.79393" lon="-1.16873">
        <ele>58.8</ele>
        <time>2020-01-26T09:39:47Z</time>
      </trkpt>
      <trkpt lat="45.7939" lon="-1.16867">
        <ele>58.8</ele>
        <time>2020-01-26T09:39:48Z</time>
      </trkpt>
      <trkpt lat="45.79386" lon="-1.16864">
        <ele>58.6</ele>
        <time>2020-01-26T09:39:49Z</time>
      </trkpt>
      <trkpt lat="45.79381" lon="-1.16866">
        <ele>58.6</ele>
        <time>2020-01-26T09:39:50Z</time>
      </trkpt>
      <trkpt lat="45.79377" lon="-1.16869">
        <ele>58.8</ele>
        <time>2020-01-26T09:39:51Z</time>
      </trkpt>
      <trkpt lat="45.79374" lon="-1.16873">
        <ele>58.8</ele>
        <time>2020-01-26T09:39:52Z</time>
      </trkpt>
      <trkpt lat="45.7937" lon="-1.16877">
        <ele>58.8</ele>
        <time>2020-01-26T09:39:53Z</time>
      </trkpt>
      <trkpt lat="45.79366" lon="-1.16881">
        <ele>59</ele>
        <time>2020-01-26T09:39:54Z</time>
      </trkpt>
      <trkpt lat="45.79362" lon="-1.16884">
        <ele>59</ele>
        <time>2020-01-26T09:39:55Z</time>
      </trkpt>
      <trkpt lat="45.79359" lon="-1.16886">
        <ele>59</ele>
        <time>2020-01-26T09:39:56Z</time>
      </trkpt>
      <trkpt lat="45.79354" lon="-1.1689">
        <ele>58.6</ele>
        <time>2020-01-26T09:39:57Z</time>
      </trkpt>
      <trkpt lat="45.79351" lon="-1.16894">
        <ele>58.4</ele>
        <time>2020-01-26T09:39:58Z</time>
      </trkpt>
      <trkpt lat="45.79346" lon="-1.16897">
        <ele>58.2</ele>
        <time>2020-01-26T09:39:59Z</time>
      </trkpt>
      <trkpt lat="45.79341" lon="-1.16898">
        <ele>57.6</ele>
        <time>2020-01-26T09:40:00Z</time>
      </trkpt>
      <trkpt lat="45.79336" lon="-1.16896">
        <ele>57.2</ele>
        <time>2020-01-26T09:40:01Z</time>
      </trkpt>
      <trkpt lat="45.79332" lon="-1.16892">
        <ele>56.8</ele>
        <time>2020-01-26T09:40:02Z</time>
      </trkpt>
      <trkpt lat="45.79329" lon="-1.16885">
        <ele>56.6</ele>
        <time>2020-01-26T09:40:03Z</time>
      </trkpt>
      <trkpt lat="45.79329" lon="-1.16876">
        <ele>56.4</ele>
        <time>2020-01-26T09:40:04Z</time>
      </trkpt>
      <trkpt lat="45.79328" lon="-1.16869">
        <ele>56.4</ele>
        <time>2020-01-26T09:40:05Z</time>
      </trkpt>
      <trkpt lat="45.79327" lon="-1.1686">
        <ele>56.6</ele>
        <time>2020-01-26T09:40:06Z</time>
      </trkpt>
      <trkpt lat="45.79324" lon="-1.16853">
        <ele>56.4</ele>
        <time>2020-01-26T09:40:07Z</time>
      </trkpt>
      <trkpt lat="45.79321" lon="-1.16846">
        <ele>56</ele>
        <time>2020-01-26T09:40:08Z</time>
      </trkpt>
      <trkpt lat="45.79317" lon="-1.16842">
        <ele>56.4</ele>
        <time>2020-01-26T09:40:09Z</time>
      </trkpt>
      <trkpt lat="45.79311" lon="-1.16838">
        <ele>56.6</ele>
        <time>2020-01-26T09:40:10Z</time>
      </trkpt>
      <trkpt lat="45.79306" lon="-1.16836">
        <ele>56.8</ele>
        <time>2020-01-26T09:40:11Z</time>
      </trkpt>
      <trkpt lat="45.79301" lon="-1.16836">
        <ele>57.4</ele>
        <time>2020-01-26T09:40:12Z</time>
      </trkpt>
      <trkpt lat="45.79296" lon="-1.16836">
        <ele>58</ele>
        <time>2020-01-26T09:40:13Z</time>
      </trkpt>
      <trkpt lat="45.79291" lon="-1.16837">
        <ele>58.6</ele>
        <time>2020-01-26T09:40:14Z</time>
      </trkpt>
      <trkpt lat="45.79287" lon="-1.16838">
        <ele>59</ele>
        <time>2020-01-26T09:40:15Z</time>
      </trkpt>
      <trkpt lat="45.79282" lon="-1.16839">
        <ele>59</ele>
        <time>2020-01-26T09:40:16Z</time>
      </trkpt>
      <trkpt lat="45.79276" lon="-1.16839">
        <ele>59</ele>
        <time>2020-01-26T09:40:17Z</time>
      </trkpt>
      <trkpt lat="45.79269" lon="-1.16839">
        <ele>59</ele>
        <time>2020-01-26T09:40:18Z</time>
      </trkpt>
      <trkpt lat="45.79264" lon="-1.16839">
        <ele>59.2</ele>
        <time>2020-01-26T09:40:19Z</time>
      </trkpt>
      <trkpt lat="45.79259" lon="-1.1684">
        <ele>59.4</ele>
        <time>2020-01-26T09:40:20Z</time>
      </trkpt>
      <trkpt lat="45.79252" lon="-1.16839">
        <ele>59.6</ele>
        <time>2020-01-26T09:40:21Z</time>
      </trkpt>
      <trkpt lat="45.79247" lon="-1.1684">
        <ele>59.4</ele>
        <time>2020-01-26T09:40:22Z</time>
      </trkpt>
      <trkpt lat="45.79243" lon="-1.16842">
        <ele>58.8</ele>
        <time>2020-01-26T09:40:23Z</time>
      </trkpt>
      <trkpt lat="45.79237" lon="-1.16842">
        <ele>58.6</ele>
        <time>2020-01-26T09:40:24Z</time>
      </trkpt>
      <trkpt lat="45.79232" lon="-1.16842">
        <ele>58.4</ele>
        <time>2020-01-26T09:40:25Z</time>
      </trkpt>
      <trkpt lat="45.79226" lon="-1.16842">
        <ele>58</ele>
        <time>2020-01-26T09:40:26Z</time>
      </trkpt>
      <trkpt lat="45.79221" lon="-1.16843">
        <ele>58</ele>
        <time>2020-01-26T09:40:27Z</time>
      </trkpt>
      <trkpt lat="45.79215" lon="-1.16844">
        <ele>58</ele>
        <time>2020-01-26T09:40:28Z</time>
      </trkpt>
      <trkpt lat="45.7921" lon="-1.16844">
        <ele>58</ele>
        <time>2020-01-26T09:40:29Z</time>
      </trkpt>
      <trkpt lat="45.79205" lon="-1.16845">
        <ele>58</ele>
        <time>2020-01-26T09:40:30Z</time>
      </trkpt>
      <trkpt lat="45.792" lon="-1.16846">
        <ele>58</ele>
        <time>2020-01-26T09:40:31Z</time>
      </trkpt>
      <trkpt lat="45.79194" lon="-1.16846">
        <ele>58.2</ele>
        <time>2020-01-26T09:40:32Z</time>
      </trkpt>
      <trkpt lat="45.79189" lon="-1.16846">
        <ele>58.4</ele>
        <time>2020-01-26T09:40:33Z</time>
      </trkpt>
      <trkpt lat="45.79185" lon="-1.16847">
        <ele>58.4</ele>
        <time>2020-01-26T09:40:34Z</time>
      </trkpt>
      <trkpt lat="45.79181" lon="-1.16847">
        <ele>58</ele>
        <time>2020-01-26T09:40:35Z</time>
      </trkpt>
      <trkpt lat="45.79176" lon="-1.16849">
        <ele>58.2</ele>
        <time>2020-01-26T09:40:36Z</time>
      </trkpt>
      <trkpt lat="45.79174" lon="-1.16853">
        <ele>58.2</ele>
        <time>2020-01-26T09:40:37Z</time>
      </trkpt>
      <trkpt lat="45.79171" lon="-1.16858">
        <ele>58.2</ele>
        <time>2020-01-26T09:40:38Z</time>
      </trkpt>
      <trkpt lat="45.7917" lon="-1.16864">
        <ele>57.8</ele>
        <time>2020-01-26T09:40:39Z</time>
      </trkpt>
      <trkpt lat="45.79169" lon="-1.16871">
        <ele>57.4</ele>
        <time>2020-01-26T09:40:40Z</time>
      </trkpt>
      <trkpt lat="45.79169" lon="-1.16878">
        <ele>57</ele>
        <time>2020-01-26T09:40:41Z</time>
      </trkpt>
      <trkpt lat="45.79169" lon="-1.16886">
        <ele>57.4</ele>
        <time>2020-01-26T09:40:42Z</time>
      </trkpt>
      <trkpt lat="45.79171" lon="-1.16892">
        <ele>57.4</ele>
        <time>2020-01-26T09:40:43Z</time>
      </trkpt>
      <trkpt lat="45.79173" lon="-1.16898">
        <ele>57.6</ele>
        <time>2020-01-26T09:40:44Z</time>
      </trkpt>
      <trkpt lat="45.79177" lon="-1.16905">
        <ele>57.8</ele>
        <time>2020-01-26T09:40:45Z</time>
      </trkpt>
      <trkpt lat="45.79179" lon="-1.16911">
        <ele>57.8</ele>
        <time>2020-01-26T09:40:46Z</time>
      </trkpt>
      <trkpt lat="45.79182" lon="-1.1692">
        <ele>58</ele>
        <time>2020-01-26T09:40:47Z</time>
      </trkpt>
      <trkpt lat="45.79183" lon="-1.16928">
        <ele>58</ele>
        <time>2020-01-26T09:40:48Z</time>
      </trkpt>
      <trkpt lat="45.79186" lon="-1.16936">
        <ele>58.2</ele>
        <time>2020-01-26T09:40:49Z</time>
      </trkpt>
      <trkpt lat="45.79184" lon="-1.16943">
        <ele>58.2</ele>
        <time>2020-01-26T09:40:50Z</time>
      </trkpt>
      <trkpt lat="45.79185" lon="-1.16952">
        <ele>58.2</ele>
        <time>2020-01-26T09:40:51Z</time>
      </trkpt>
      <trkpt lat="45.79188" lon="-1.16959">
        <ele>58.2</ele>
        <time>2020-01-26T09:40:52Z</time>
      </trkpt>
      <trkpt lat="45.79188" lon="-1.16967">
        <ele>58</ele>
        <time>2020-01-26T09:40:53Z</time>
      </trkpt>
      <trkpt lat="45.79195" lon="-1.16976">
        <ele>57.4</ele>
        <time>2020-01-26T09:40:54Z</time>
      </trkpt>
      <trkpt lat="45.79197" lon="-1.16981">
        <ele>57.2</ele>
        <time>2020-01-26T09:40:55Z</time>
      </trkpt>
      <trkpt lat="45.79198" lon="-1.16987">
        <ele>57.4</ele>
        <time>2020-01-26T09:40:56Z</time>
      </trkpt>
      <trkpt lat="45.79201" lon="-1.16991">
        <ele>56.8</ele>
        <time>2020-01-26T09:40:57Z</time>
      </trkpt>
      <trkpt lat="45.79203" lon="-1.16996">
        <ele>55.8</ele>
        <time>2020-01-26T09:40:58Z</time>
      </trkpt>
      <trkpt lat="45.79206" lon="-1.17003">
        <ele>54.8</ele>
        <time>2020-01-26T09:40:59Z</time>
      </trkpt>
      <trkpt lat="45.7921" lon="-1.17007">
        <ele>53.6</ele>
        <time>2020-01-26T09:41:00Z</time>
      </trkpt>
      <trkpt lat="45.79212" lon="-1.17013">
        <ele>52</ele>
        <time>2020-01-26T09:41:01Z</time>
      </trkpt>
      <trkpt lat="45.79211" lon="-1.17021">
        <ele>50.6</ele>
        <time>2020-01-26T09:41:02Z</time>
      </trkpt>
      <trkpt lat="45.79213" lon="-1.17028">
        <ele>49.4</ele>
        <time>2020-01-26T09:41:03Z</time>
      </trkpt>
      <trkpt lat="45.79216" lon="-1.17036">
        <ele>48.8</ele>
        <time>2020-01-26T09:41:04Z</time>
      </trkpt>
      <trkpt lat="45.79219" lon="-1.17042">
        <ele>48.4</ele>
        <time>2020-01-26T09:41:05Z</time>
      </trkpt>
      <trkpt lat="45.79224" lon="-1.17051">
        <ele>48.6</ele>
        <time>2020-01-26T09:41:06Z</time>
      </trkpt>
      <trkpt lat="45.79227" lon="-1.17056">
        <ele>48.6</ele>
        <time>2020-01-26T09:41:07Z</time>
      </trkpt>
      <trkpt lat="45.79231" lon="-1.1706">
        <ele>48.6</ele>
        <time>2020-01-26T09:41:08Z</time>
      </trkpt>
      <trkpt lat="45.79234" lon="-1.17068">
        <ele>47.4</ele>
        <time>2020-01-26T09:41:09Z</time>
      </trkpt>
      <trkpt lat="45.79233" lon="-1.17074">
        <ele>46.4</ele>
        <time>2020-01-26T09:41:10Z</time>
      </trkpt>
      <trkpt lat="45.79234" lon="-1.17082">
        <ele>46</ele>
        <time>2020-01-26T09:41:11Z</time>
      </trkpt>
      <trkpt lat="45.79234" lon="-1.17089">
        <ele>45.8</ele>
        <time>2020-01-26T09:41:12Z</time>
      </trkpt>
      <trkpt lat="45.79232" lon="-1.17094">
        <ele>45.4</ele>
        <time>2020-01-26T09:41:13Z</time>
      </trkpt>
      <trkpt lat="45.79232" lon="-1.17102">
        <ele>45.8</ele>
        <time>2020-01-26T09:41:14Z</time>
      </trkpt>
      <trkpt lat="45.79234" lon="-1.17111">
        <ele>46</ele>
        <time>2020-01-26T09:41:15Z</time>
      </trkpt>
      <trkpt lat="45.79235" lon="-1.1712">
        <ele>46.4</ele>
        <time>2020-01-26T09:41:16Z</time>
      </trkpt>
      <trkpt lat="45.79237" lon="-1.17127">
        <ele>46.8</ele>
        <time>2020-01-26T09:41:17Z</time>
      </trkpt>
      <trkpt lat="45.79241" lon="-1.17133">
        <ele>47</ele>
        <time>2020-01-26T09:41:18Z</time>
      </trkpt>
      <trkpt lat="45.79243" lon="-1.1714">
        <ele>47.4</ele>
        <time>2020-01-26T09:41:19Z</time>
      </trkpt>
      <trkpt lat="45.79248" lon="-1.17152">
        <ele>47.6</ele>
        <time>2020-01-26T09:41:20Z</time>
      </trkpt>
      <trkpt lat="45.79246" lon="-1.17161">
        <ele>47.2</ele>
        <time>2020-01-26T09:41:21Z</time>
      </trkpt>
      <trkpt lat="45.79247" lon="-1.1717">
        <ele>47.2</ele>
        <time>2020-01-26T09:41:22Z</time>
      </trkpt>
      <trkpt lat="45.7925" lon="-1.17175">
        <ele>47.2</ele>
        <time>2020-01-26T09:41:23Z</time>
      </trkpt>
      <trkpt lat="45.79253" lon="-1.1718">
        <ele>47</ele>
        <time>2020-01-26T09:41:24Z</time>
      </trkpt>
      <trkpt lat="45.79255" lon="-1.17186">
        <ele>46.8</ele>
        <time>2020-01-26T09:41:25Z</time>
      </trkpt>
      <trkpt lat="45.79256" lon="-1.17193">
        <ele>46.6</ele>
        <time>2020-01-26T09:41:26Z</time>
      </trkpt>
      <trkpt lat="45.79256" lon="-1.17199">
        <ele>46.2</ele>
        <time>2020-01-26T09:41:27Z</time>
      </trkpt>
      <trkpt lat="45.79256" lon="-1.17207">
        <ele>46</ele>
        <time>2020-01-26T09:41:28Z</time>
      </trkpt>
      <trkpt lat="45.79256" lon="-1.17215">
        <ele>45.6</ele>
        <time>2020-01-26T09:41:29Z</time>
      </trkpt>
      <trkpt lat="45.79258" lon="-1.17222">
        <ele>45.6</ele>
        <time>2020-01-26T09:41:30Z</time>
      </trkpt>
      <trkpt lat="45.79259" lon="-1.17232">
        <ele>45.6</ele>
        <time>2020-01-26T09:41:31Z</time>
      </trkpt>
      <trkpt lat="45.79258" lon="-1.17241">
        <ele>46</ele>
        <time>2020-01-26T09:41:32Z</time>
      </trkpt>
      <trkpt lat="45.79259" lon="-1.1725">
        <ele>46.2</ele>
        <time>2020-01-26T09:41:33Z</time>
      </trkpt>
      <trkpt lat="45.79259" lon="-1.17256">
        <ele>46.2</ele>
        <time>2020-01-26T09:41:34Z</time>
      </trkpt>
      <trkpt lat="45.79258" lon="-1.17262">
        <ele>46.4</ele>
        <time>2020-01-26T09:41:35Z</time>
      </trkpt>
      <trkpt lat="45.79258" lon="-1.1727">
        <ele>47</ele>
        <time>2020-01-26T09:41:36Z</time>
      </trkpt>
      <trkpt lat="45.79259" lon="-1.17277">
        <ele>47.8</ele>
        <time>2020-01-26T09:41:37Z</time>
      </trkpt>
      <trkpt lat="45.7926" lon="-1.17283">
        <ele>48.6</ele>
        <time>2020-01-26T09:41:38Z</time>
      </trkpt>
      <trkpt lat="45.7926" lon="-1.17292">
        <ele>49.6</ele>
        <time>2020-01-26T09:41:39Z</time>
      </trkpt>
      <trkpt lat="45.79261" lon="-1.17299">
        <ele>50.4</ele>
        <time>2020-01-26T09:41:40Z</time>
      </trkpt>
      <trkpt lat="45.79261" lon="-1.17307">
        <ele>51</ele>
        <time>2020-01-26T09:41:41Z</time>
      </trkpt>
      <trkpt lat="45.79259" lon="-1.17315">
        <ele>51.8</ele>
        <time>2020-01-26T09:41:42Z</time>
      </trkpt>
      <trkpt lat="45.79259" lon="-1.17322">
        <ele>52.4</ele>
        <time>2020-01-26T09:41:43Z</time>
      </trkpt>
      <trkpt lat="45.79259" lon="-1.1733">
        <ele>52.8</ele>
        <time>2020-01-26T09:41:44Z</time>
      </trkpt>
      <trkpt lat="45.79258" lon="-1.1734">
        <ele>52.8</ele>
        <time>2020-01-26T09:41:45Z</time>
      </trkpt>
      <trkpt lat="45.79256" lon="-1.17349">
        <ele>53.2</ele>
        <time>2020-01-26T09:41:46Z</time>
      </trkpt>
      <trkpt lat="45.79255" lon="-1.17358">
        <ele>53.4</ele>
        <time>2020-01-26T09:41:47Z</time>
      </trkpt>
      <trkpt lat="45.79253" lon="-1.17364">
        <ele>53.8</ele>
        <time>2020-01-26T09:41:48Z</time>
      </trkpt>
      <trkpt lat="45.79251" lon="-1.17372">
        <ele>54</ele>
        <time>2020-01-26T09:41:49Z</time>
      </trkpt>
      <trkpt lat="45.79249" lon="-1.1738">
        <ele>54.2</ele>
        <time>2020-01-26T09:41:50Z</time>
      </trkpt>
      <trkpt lat="45.79248" lon="-1.17387">
        <ele>54.2</ele>
        <time>2020-01-26T09:41:51Z</time>
      </trkpt>
      <trkpt lat="45.79248" lon="-1.17394">
        <ele>54.2</ele>
        <time>2020-01-26T09:41:52Z</time>
      </trkpt>
      <trkpt lat="45.7925" lon="-1.17401">
        <ele>54.2</ele>
        <time>2020-01-26T09:41:53Z</time>
      </trkpt>
      <trkpt lat="45.79247" lon="-1.17409">
        <ele>54</ele>
        <time>2020-01-26T09:41:54Z</time>
      </trkpt>
      <trkpt lat="45.79246" lon="-1.17417">
        <ele>54.2</ele>
        <time>2020-01-26T09:41:55Z</time>
      </trkpt>
      <trkpt lat="45.79245" lon="-1.17426">
        <ele>54.4</ele>
        <time>2020-01-26T09:41:56Z</time>
      </trkpt>
      <trkpt lat="45.79244" lon="-1.17434">
        <ele>54.6</ele>
        <time>2020-01-26T09:41:57Z</time>
      </trkpt>
      <trkpt lat="45.79242" lon="-1.17443">
        <ele>54.8</ele>
        <time>2020-01-26T09:41:58Z</time>
      </trkpt>
      <trkpt lat="45.7924" lon="-1.1745">
        <ele>55.2</ele>
        <time>2020-01-26T09:41:59Z</time>
      </trkpt>
      <trkpt lat="45.7924" lon="-1.17458">
        <ele>55.2</ele>
        <time>2020-01-26T09:42:00Z</time>
      </trkpt>
      <trkpt lat="45.7924" lon="-1.17466">
        <ele>55</ele>
        <time>2020-01-26T09:42:01Z</time>
      </trkpt>
      <trkpt lat="45.79239" lon="-1.17474">
        <ele>54.8</ele>
        <time>2020-01-26T09:42:02Z</time>
      </trkpt>
      <trkpt lat="45.79239" lon="-1.17481">
        <ele>54.8</ele>
        <time>2020-01-26T09:42:03Z</time>
      </trkpt>
      <trkpt lat="45.79237" lon="-1.17483">
        <ele>54.4</ele>
        <time>2020-01-26T09:42:04Z</time>
      </trkpt>
      <trkpt lat="45.79234" lon="-1.17484">
        <ele>54.2</ele>
        <time>2020-01-26T09:42:05Z</time>
      </trkpt>
      <trkpt lat="45.79231" lon="-1.17484">
        <ele>54</ele>
        <time>2020-01-26T09:42:06Z</time>
      </trkpt>
      <trkpt lat="45.79227" lon="-1.17483">
        <ele>53.8</ele>
        <time>2020-01-26T09:42:07Z</time>
      </trkpt>
      <trkpt lat="45.79224" lon="-1.17484">
        <ele>53.6</ele>
        <time>2020-01-26T09:42:08Z</time>
      </trkpt>
      <trkpt lat="45.7922" lon="-1.17484">
        <ele>53.4</ele>
        <time>2020-01-26T09:42:09Z</time>
      </trkpt>
      <trkpt lat="45.79216" lon="-1.17484">
        <ele>53.2</ele>
        <time>2020-01-26T09:42:10Z</time>
      </trkpt>
      <trkpt lat="45.79212" lon="-1.17483">
        <ele>53.2</ele>
        <time>2020-01-26T09:42:11Z</time>
      </trkpt>
      <trkpt lat="45.79208" lon="-1.17483">
        <ele>53.2</ele>
        <time>2020-01-26T09:42:12Z</time>
      </trkpt>
      <trkpt lat="45.79205" lon="-1.17483">
        <ele>53.4</ele>
        <time>2020-01-26T09:42:13Z</time>
      </trkpt>
      <trkpt lat="45.792" lon="-1.17484">
        <ele>53.8</ele>
        <time>2020-01-26T09:42:14Z</time>
      </trkpt>
      <trkpt lat="45.79196" lon="-1.17485">
        <ele>53.8</ele>
        <time>2020-01-26T09:42:15Z</time>
      </trkpt>
      <trkpt lat="45.79192" lon="-1.17484">
        <ele>53.4</ele>
        <time>2020-01-26T09:42:16Z</time>
      </trkpt>
      <trkpt lat="45.79187" lon="-1.17483">
        <ele>53</ele>
        <time>2020-01-26T09:42:17Z</time>
      </trkpt>
      <trkpt lat="45.79181" lon="-1.17478">
        <ele>52.6</ele>
        <time>2020-01-26T09:42:18Z</time>
      </trkpt>
      <trkpt lat="45.79176" lon="-1.17474">
        <ele>52.2</ele>
        <time>2020-01-26T09:42:19Z</time>
      </trkpt>
      <trkpt lat="45.79171" lon="-1.1747">
        <ele>52.2</ele>
        <time>2020-01-26T09:42:20Z</time>
      </trkpt>
      <trkpt lat="45.79165" lon="-1.17465">
        <ele>52.4</ele>
        <time>2020-01-26T09:42:21Z</time>
      </trkpt>
      <trkpt lat="45.7916" lon="-1.17461">
        <ele>53</ele>
        <time>2020-01-26T09:42:22Z</time>
      </trkpt>
      <trkpt lat="45.79156" lon="-1.17456">
        <ele>53.6</ele>
        <time>2020-01-26T09:42:23Z</time>
      </trkpt>
      <trkpt lat="45.79153" lon="-1.1745">
        <ele>53.8</ele>
        <time>2020-01-26T09:42:24Z</time>
      </trkpt>
      <trkpt lat="45.7915" lon="-1.17444">
        <ele>54.2</ele>
        <time>2020-01-26T09:42:25Z</time>
      </trkpt>
      <trkpt lat="45.79145" lon="-1.1744">
        <ele>54.4</ele>
        <time>2020-01-26T09:42:26Z</time>
      </trkpt>
      <trkpt lat="45.7914" lon="-1.17439">
        <ele>54</ele>
        <time>2020-01-26T09:42:27Z</time>
      </trkpt>
      <trkpt lat="45.79136" lon="-1.1744">
        <ele>54</ele>
        <time>2020-01-26T09:42:28Z</time>
      </trkpt>
      <trkpt lat="45.7913" lon="-1.17441">
        <ele>54.2</ele>
        <time>2020-01-26T09:42:29Z</time>
      </trkpt>
      <trkpt lat="45.79124" lon="-1.17444">
        <ele>54.4</ele>
        <time>2020-01-26T09:42:30Z</time>
      </trkpt>
      <trkpt lat="45.7912" lon="-1.17447">
        <ele>54.4</ele>
        <time>2020-01-26T09:42:31Z</time>
      </trkpt>
      <trkpt lat="45.79116" lon="-1.17448">
        <ele>54.2</ele>
        <time>2020-01-26T09:42:32Z</time>
      </trkpt>
      <trkpt lat="45.79113" lon="-1.17451">
        <ele>54</ele>
        <time>2020-01-26T09:42:33Z</time>
      </trkpt>
      <trkpt lat="45.79111" lon="-1.17452">
        <ele>53.4</ele>
        <time>2020-01-26T09:42:34Z</time>
      </trkpt>
      <trkpt lat="45.79108" lon="-1.17456">
        <ele>52.8</ele>
        <time>2020-01-26T09:42:35Z</time>
      </trkpt>
      <trkpt lat="45.79108" lon="-1.17462">
        <ele>51.8</ele>
        <time>2020-01-26T09:42:36Z</time>
      </trkpt>
      <trkpt lat="45.79106" lon="-1.17467">
        <ele>50.8</ele>
        <time>2020-01-26T09:42:37Z</time>
      </trkpt>
      <trkpt lat="45.79105" lon="-1.17472">
        <ele>50.4</ele>
        <time>2020-01-26T09:42:38Z</time>
      </trkpt>
      <trkpt lat="45.79103" lon="-1.17477">
        <ele>50</ele>
        <time>2020-01-26T09:42:39Z</time>
      </trkpt>
      <trkpt lat="45.79102" lon="-1.17481">
        <ele>49.8</ele>
        <time>2020-01-26T09:42:40Z</time>
      </trkpt>
      <trkpt lat="45.791" lon="-1.17485">
        <ele>50.2</ele>
        <time>2020-01-26T09:42:41Z</time>
      </trkpt>
      <trkpt lat="45.79099" lon="-1.17489">
        <ele>50.6</ele>
        <time>2020-01-26T09:42:42Z</time>
      </trkpt>
      <trkpt lat="45.79096" lon="-1.17492">
        <ele>51.2</ele>
        <time>2020-01-26T09:42:43Z</time>
      </trkpt>
      <trkpt lat="45.79095" lon="-1.17495">
        <ele>51.2</ele>
        <time>2020-01-26T09:42:44Z</time>
      </trkpt>
      <trkpt lat="45.79094" lon="-1.17499">
        <ele>51.4</ele>
        <time>2020-01-26T09:42:45Z</time>
      </trkpt>
      <trkpt lat="45.79092" lon="-1.17502">
        <ele>51.2</ele>
        <time>2020-01-26T09:42:46Z</time>
      </trkpt>
      <trkpt lat="45.7909" lon="-1.17507">
        <ele>50.6</ele>
        <time>2020-01-26T09:42:47Z</time>
      </trkpt>
      <trkpt lat="45.79089" lon="-1.17513">
        <ele>50</ele>
        <time>2020-01-26T09:42:48Z</time>
      </trkpt>
      <trkpt lat="45.79087" lon="-1.17519">
        <ele>49.4</ele>
        <time>2020-01-26T09:42:49Z</time>
      </trkpt>
      <trkpt lat="45.79084" lon="-1.17525">
        <ele>49.2</ele>
        <time>2020-01-26T09:42:50Z</time>
      </trkpt>
      <trkpt lat="45.79083" lon="-1.17533">
        <ele>48.8</ele>
        <time>2020-01-26T09:42:51Z</time>
      </trkpt>
      <trkpt lat="45.79084" lon="-1.1754">
        <ele>49.2</ele>
        <time>2020-01-26T09:42:52Z</time>
      </trkpt>
      <trkpt lat="45.79083" lon="-1.17548">
        <ele>49.4</ele>
        <time>2020-01-26T09:42:53Z</time>
      </trkpt>
      <trkpt lat="45.79082" lon="-1.17554">
        <ele>49.8</ele>
        <time>2020-01-26T09:42:54Z</time>
      </trkpt>
      <trkpt lat="45.79083" lon="-1.17562">
        <ele>50.6</ele>
        <time>2020-01-26T09:42:55Z</time>
      </trkpt>
      <trkpt lat="45.79085" lon="-1.17568">
        <ele>50.6</ele>
        <time>2020-01-26T09:42:56Z</time>
      </trkpt>
      <trkpt lat="45.79086" lon="-1.17575">
        <ele>50.8</ele>
        <time>2020-01-26T09:42:57Z</time>
      </trkpt>
      <trkpt lat="45.79085" lon="-1.17583">
        <ele>50.8</ele>
        <time>2020-01-26T09:42:58Z</time>
      </trkpt>
      <trkpt lat="45.79085" lon="-1.17591">
        <ele>50.8</ele>
        <time>2020-01-26T09:42:59Z</time>
      </trkpt>
      <trkpt lat="45.79084" lon="-1.17597">
        <ele>51</ele>
        <time>2020-01-26T09:43:00Z</time>
      </trkpt>
      <trkpt lat="45.79082" lon="-1.17606">
        <ele>51.2</ele>
        <time>2020-01-26T09:43:01Z</time>
      </trkpt>
      <trkpt lat="45.79082" lon="-1.17615">
        <ele>51.6</ele>
        <time>2020-01-26T09:43:02Z</time>
      </trkpt>
      <trkpt lat="45.79081" lon="-1.17624">
        <ele>52</ele>
        <time>2020-01-26T09:43:03Z</time>
      </trkpt>
      <trkpt lat="45.7908" lon="-1.17632">
        <ele>52.2</ele>
        <time>2020-01-26T09:43:04Z</time>
      </trkpt>
      <trkpt lat="45.7908" lon="-1.1764">
        <ele>52.2</ele>
        <time>2020-01-26T09:43:05Z</time>
      </trkpt>
      <trkpt lat="45.79079" lon="-1.17649">
        <ele>52.2</ele>
        <time>2020-01-26T09:43:06Z</time>
      </trkpt>
      <trkpt lat="45.79078" lon="-1.17659">
        <ele>52</ele>
        <time>2020-01-26T09:43:07Z</time>
      </trkpt>
      <trkpt lat="45.79077" lon="-1.17669">
        <ele>52</ele>
        <time>2020-01-26T09:43:08Z</time>
      </trkpt>
      <trkpt lat="45.79076" lon="-1.17678">
        <ele>52</ele>
        <time>2020-01-26T09:43:09Z</time>
      </trkpt>
      <trkpt lat="45.79073" lon="-1.17688">
        <ele>52</ele>
        <time>2020-01-26T09:43:10Z</time>
      </trkpt>
      <trkpt lat="45.79075" lon="-1.17698">
        <ele>52</ele>
        <time>2020-01-26T09:43:11Z</time>
      </trkpt>
      <trkpt lat="45.79076" lon="-1.17707">
        <ele>52</ele>
        <time>2020-01-26T09:43:12Z</time>
      </trkpt>
      <trkpt lat="45.79079" lon="-1.17716">
        <ele>51.8</ele>
        <time>2020-01-26T09:43:13Z</time>
      </trkpt>
      <trkpt lat="45.79082" lon="-1.17724">
        <ele>51.6</ele>
        <time>2020-01-26T09:43:14Z</time>
      </trkpt>
      <trkpt lat="45.79084" lon="-1.17733">
        <ele>51.2</ele>
        <time>2020-01-26T09:43:15Z</time>
      </trkpt>
      <trkpt lat="45.79088" lon="-1.1774">
        <ele>50.8</ele>
        <time>2020-01-26T09:43:16Z</time>
      </trkpt>
      <trkpt lat="45.79092" lon="-1.17749">
        <ele>50.6</ele>
        <time>2020-01-26T09:43:17Z</time>
      </trkpt>
      <trkpt lat="45.79095" lon="-1.17757">
        <ele>50.8</ele>
        <time>2020-01-26T09:43:18Z</time>
      </trkpt>
      <trkpt lat="45.79099" lon="-1.17765">
        <ele>51</ele>
        <time>2020-01-26T09:43:19Z</time>
      </trkpt>
      <trkpt lat="45.79102" lon="-1.17774">
        <ele>51.4</ele>
        <time>2020-01-26T09:43:20Z</time>
      </trkpt>
      <trkpt lat="45.79105" lon="-1.17783">
        <ele>51.4</ele>
        <time>2020-01-26T09:43:21Z</time>
      </trkpt>
      <trkpt lat="45.79107" lon="-1.17791">
        <ele>51.8</ele>
        <time>2020-01-26T09:43:22Z</time>
      </trkpt>
      <trkpt lat="45.7911" lon="-1.178">
        <ele>52.2</ele>
        <time>2020-01-26T09:43:23Z</time>
      </trkpt>
      <trkpt lat="45.79113" lon="-1.17808">
        <ele>52.4</ele>
        <time>2020-01-26T09:43:24Z</time>
      </trkpt>
      <trkpt lat="45.79115" lon="-1.17815">
        <ele>52.2</ele>
        <time>2020-01-26T09:43:25Z</time>
      </trkpt>
      <trkpt lat="45.79119" lon="-1.17821">
        <ele>52</ele>
        <time>2020-01-26T09:43:26Z</time>
      </trkpt>
      <trkpt lat="45.79121" lon="-1.1783">
        <ele>51.6</ele>
        <time>2020-01-26T09:43:27Z</time>
      </trkpt>
      <trkpt lat="45.79123" lon="-1.17839">
        <ele>51.6</ele>
        <time>2020-01-26T09:43:28Z</time>
      </trkpt>
      <trkpt lat="45.79125" lon="-1.1785">
        <ele>51.2</ele>
        <time>2020-01-26T09:43:29Z</time>
      </trkpt>
      <trkpt lat="45.79125" lon="-1.17858">
        <ele>50.8</ele>
        <time>2020-01-26T09:43:30Z</time>
      </trkpt>
      <trkpt lat="45.79126" lon="-1.17868">
        <ele>50.6</ele>
        <time>2020-01-26T09:43:31Z</time>
      </trkpt>
      <trkpt lat="45.79124" lon="-1.17877">
        <ele>50.8</ele>
        <time>2020-01-26T09:43:32Z</time>
      </trkpt>
      <trkpt lat="45.79123" lon="-1.17888">
        <ele>50.8</ele>
        <time>2020-01-26T09:43:33Z</time>
      </trkpt>
      <trkpt lat="45.79123" lon="-1.17897">
        <ele>50.8</ele>
        <time>2020-01-26T09:43:34Z</time>
      </trkpt>
      <trkpt lat="45.79123" lon="-1.17907">
        <ele>51.2</ele>
        <time>2020-01-26T09:43:35Z</time>
      </trkpt>
      <trkpt lat="45.79122" lon="-1.17915">
        <ele>51.2</ele>
        <time>2020-01-26T09:43:36Z</time>
      </trkpt>
      <trkpt lat="45.79121" lon="-1.17925">
        <ele>51</ele>
        <time>2020-01-26T09:43:37Z</time>
      </trkpt>
      <trkpt lat="45.79123" lon="-1.17934">
        <ele>51.4</ele>
        <time>2020-01-26T09:43:38Z</time>
      </trkpt>
      <trkpt lat="45.79125" lon="-1.17941">
        <ele>51.8</ele>
        <time>2020-01-26T09:43:39Z</time>
      </trkpt>
      <trkpt lat="45.79126" lon="-1.1795">
        <ele>52</ele>
        <time>2020-01-26T09:43:40Z</time>
      </trkpt>
      <trkpt lat="45.79127" lon="-1.17956">
        <ele>52</ele>
        <time>2020-01-26T09:43:41Z</time>
      </trkpt>
      <trkpt lat="45.79128" lon="-1.17965">
        <ele>52.2</ele>
        <time>2020-01-26T09:43:42Z</time>
      </trkpt>
      <trkpt lat="45.79129" lon="-1.17974">
        <ele>52.4</ele>
        <time>2020-01-26T09:43:43Z</time>
      </trkpt>
      <trkpt lat="45.79128" lon="-1.1798">
        <ele>52.6</ele>
        <time>2020-01-26T09:43:44Z</time>
      </trkpt>
      <trkpt lat="45.79128" lon="-1.17988">
        <ele>53</ele>
        <time>2020-01-26T09:43:45Z</time>
      </trkpt>
      <trkpt lat="45.79127" lon="-1.17996">
        <ele>53.4</ele>
        <time>2020-01-26T09:43:46Z</time>
      </trkpt>
      <trkpt lat="45.79127" lon="-1.18003">
        <ele>53.8</ele>
        <time>2020-01-26T09:43:47Z</time>
      </trkpt>
      <trkpt lat="45.79126" lon="-1.1801">
        <ele>54.4</ele>
        <time>2020-01-26T09:43:48Z</time>
      </trkpt>
      <trkpt lat="45.79125" lon="-1.18017">
        <ele>54.6</ele>
        <time>2020-01-26T09:43:49Z</time>
      </trkpt>
      <trkpt lat="45.79124" lon="-1.18023">
        <ele>55</ele>
        <time>2020-01-26T09:43:50Z</time>
      </trkpt>
      <trkpt lat="45.79123" lon="-1.18028">
        <ele>55.2</ele>
        <time>2020-01-26T09:43:51Z</time>
      </trkpt>
      <trkpt lat="45.79122" lon="-1.18032">
        <ele>55.2</ele>
        <time>2020-01-26T09:43:52Z</time>
      </trkpt>
      <trkpt lat="45.79121" lon="-1.18037">
        <ele>55</ele>
        <time>2020-01-26T09:43:53Z</time>
      </trkpt>
      <trkpt lat="45.79121" lon="-1.18042">
        <ele>55</ele>
        <time>2020-01-26T09:43:54Z</time>
      </trkpt>
      <trkpt lat="45.7912" lon="-1.18048">
        <ele>55</ele>
        <time>2020-01-26T09:43:55Z</time>
      </trkpt>
      <trkpt lat="45.7912" lon="-1.18054">
        <ele>55</ele>
        <time>2020-01-26T09:43:56Z</time>
      </trkpt>
      <trkpt lat="45.7912" lon="-1.18061">
        <ele>55.2</ele>
        <time>2020-01-26T09:43:57Z</time>
      </trkpt>
      <trkpt lat="45.7912" lon="-1.18065">
        <ele>55.6</ele>
        <time>2020-01-26T09:43:58Z</time>
      </trkpt>
      <trkpt lat="45.79119" lon="-1.18071">
        <ele>56.2</ele>
        <time>2020-01-26T09:43:59Z</time>
      </trkpt>
      <trkpt lat="45.79119" lon="-1.18075">
        <ele>56.4</ele>
        <time>2020-01-26T09:44:00Z</time>
      </trkpt>
      <trkpt lat="45.79119" lon="-1.1808">
        <ele>56.2</ele>
        <time>2020-01-26T09:44:01Z</time>
      </trkpt>
      <trkpt lat="45.79118" lon="-1.18085">
        <ele>56.2</ele>
        <time>2020-01-26T09:44:02Z</time>
      </trkpt>
      <trkpt lat="45.79118" lon="-1.18089">
        <ele>56.2</ele>
        <time>2020-01-26T09:44:03Z</time>
      </trkpt>
      <trkpt lat="45.79117" lon="-1.18093">
        <ele>56.4</ele>
        <time>2020-01-26T09:44:04Z</time>
      </trkpt>
      <trkpt lat="45.79117" lon="-1.18097">
        <ele>56.6</ele>
        <time>2020-01-26T09:44:05Z</time>
      </trkpt>
      <trkpt lat="45.79115" lon="-1.18102">
        <ele>56.4</ele>
        <time>2020-01-26T09:44:06Z</time>
      </trkpt>
      <trkpt lat="45.79113" lon="-1.18107">
        <ele>56</ele>
        <time>2020-01-26T09:44:07Z</time>
      </trkpt>
      <trkpt lat="45.79112" lon="-1.18111">
        <ele>55.6</ele>
        <time>2020-01-26T09:44:08Z</time>
      </trkpt>
      <trkpt lat="45.79111" lon="-1.18118">
        <ele>54.8</ele>
        <time>2020-01-26T09:44:09Z</time>
      </trkpt>
      <trkpt lat="45.7911" lon="-1.18124">
        <ele>54.4</ele>
        <time>2020-01-26T09:44:10Z</time>
      </trkpt>
      <trkpt lat="45.7911" lon="-1.1813">
        <ele>54.4</ele>
        <time>2020-01-26T09:44:11Z</time>
      </trkpt>
      <trkpt lat="45.79107" lon="-1.18135">
        <ele>54.4</ele>
        <time>2020-01-26T09:44:12Z</time>
      </trkpt>
      <trkpt lat="45.79104" lon="-1.18137">
        <ele>54.4</ele>
        <time>2020-01-26T09:44:13Z</time>
      </trkpt>
      <trkpt lat="45.791" lon="-1.18139">
        <ele>54.6</ele>
        <time>2020-01-26T09:44:14Z</time>
      </trkpt>
      <trkpt lat="45.79096" lon="-1.18139">
        <ele>54.6</ele>
        <time>2020-01-26T09:44:15Z</time>
      </trkpt>
      <trkpt lat="45.79091" lon="-1.18139">
        <ele>54.8</ele>
        <time>2020-01-26T09:44:16Z</time>
      </trkpt>
      <trkpt lat="45.79087" lon="-1.1814">
        <ele>54.6</ele>
        <time>2020-01-26T09:44:17Z</time>
      </trkpt>
      <trkpt lat="45.79082" lon="-1.1814">
        <ele>54.2</ele>
        <time>2020-01-26T09:44:18Z</time>
      </trkpt>
      <trkpt lat="45.79078" lon="-1.18141">
        <ele>53.8</ele>
        <time>2020-01-26T09:44:19Z</time>
      </trkpt>
      <trkpt lat="45.79074" lon="-1.18145">
        <ele>54</ele>
        <time>2020-01-26T09:44:20Z</time>
      </trkpt>
      <trkpt lat="45.79071" lon="-1.1815">
        <ele>54</ele>
        <time>2020-01-26T09:44:21Z</time>
      </trkpt>
      <trkpt lat="45.79071" lon="-1.18155">
        <ele>54.2</ele>
        <time>2020-01-26T09:44:22Z</time>
      </trkpt>
      <trkpt lat="45.7907" lon="-1.1816">
        <ele>54.4</ele>
        <time>2020-01-26T09:44:23Z</time>
      </trkpt>
      <trkpt lat="45.7907" lon="-1.18165">
        <ele>54.6</ele>
        <time>2020-01-26T09:44:24Z</time>
      </trkpt>
      <trkpt lat="45.7907" lon="-1.1817">
        <ele>54.6</ele>
        <time>2020-01-26T09:44:25Z</time>
      </trkpt>
      <trkpt lat="45.7907" lon="-1.18175">
        <ele>54.8</ele>
        <time>2020-01-26T09:44:26Z</time>
      </trkpt>
      <trkpt lat="45.79071" lon="-1.1818">
        <ele>55</ele>
        <time>2020-01-26T09:44:27Z</time>
      </trkpt>
      <trkpt lat="45.79071" lon="-1.18184">
        <ele>55.4</ele>
        <time>2020-01-26T09:44:28Z</time>
      </trkpt>
      <trkpt lat="45.79071" lon="-1.18189">
        <ele>55.6</ele>
        <time>2020-01-26T09:44:29Z</time>
      </trkpt>
      <trkpt lat="45.79071" lon="-1.18193">
        <ele>55.8</ele>
        <time>2020-01-26T09:44:30Z</time>
      </trkpt>
      <trkpt lat="45.79071" lon="-1.18198">
        <ele>56.2</ele>
        <time>2020-01-26T09:44:31Z</time>
      </trkpt>
      <trkpt lat="45.79071" lon="-1.18202">
        <ele>56.4</ele>
        <time>2020-01-26T09:44:32Z</time>
      </trkpt>
      <trkpt lat="45.79071" lon="-1.18207">
        <ele>56.6</ele>
        <time>2020-01-26T09:44:33Z</time>
      </trkpt>
      <trkpt lat="45.79071" lon="-1.18211">
        <ele>57</ele>
        <time>2020-01-26T09:44:34Z</time>
      </trkpt>
      <trkpt lat="45.79072" lon="-1.18216">
        <ele>57.2</ele>
        <time>2020-01-26T09:44:35Z</time>
      </trkpt>
      <trkpt lat="45.79071" lon="-1.1822">
        <ele>57.4</ele>
        <time>2020-01-26T09:44:36Z</time>
      </trkpt>
      <trkpt lat="45.79072" lon="-1.18224">
        <ele>57.6</ele>
        <time>2020-01-26T09:44:37Z</time>
      </trkpt>
      <trkpt lat="45.79071" lon="-1.18229">
        <ele>57.6</ele>
        <time>2020-01-26T09:44:38Z</time>
      </trkpt>
      <trkpt lat="45.79071" lon="-1.18235">
        <ele>57.8</ele>
        <time>2020-01-26T09:44:39Z</time>
      </trkpt>
      <trkpt lat="45.79071" lon="-1.18241">
        <ele>57.6</ele>
        <time>2020-01-26T09:44:40Z</time>
      </trkpt>
      <trkpt lat="45.79071" lon="-1.18247">
        <ele>57.6</ele>
        <time>2020-01-26T09:44:41Z</time>
      </trkpt>
      <trkpt lat="45.79071" lon="-1.18252">
        <ele>57.4</ele>
        <time>2020-01-26T09:44:42Z</time>
      </trkpt>
      <trkpt lat="45.79071" lon="-1.18258">
        <ele>57.4</ele>
        <time>2020-01-26T09:44:43Z</time>
      </trkpt>
      <trkpt lat="45.79071" lon="-1.18264">
        <ele>57.6</ele>
        <time>2020-01-26T09:44:44Z</time>
      </trkpt>
      <trkpt lat="45.79072" lon="-1.18268">
        <ele>57.6</ele>
        <time>2020-01-26T09:44:45Z</time>
      </trkpt>
      <trkpt lat="45.79073" lon="-1.18273">
        <ele>57.8</ele>
        <time>2020-01-26T09:44:46Z</time>
      </trkpt>
      <trkpt lat="45.79073" lon="-1.18278">
        <ele>57.8</ele>
        <time>2020-01-26T09:44:47Z</time>
      </trkpt>
      <trkpt lat="45.79073" lon="-1.18282">
        <ele>58.2</ele>
        <time>2020-01-26T09:44:48Z</time>
      </trkpt>
      <trkpt lat="45.79073" lon="-1.18288">
        <ele>58.4</ele>
        <time>2020-01-26T09:44:49Z</time>
      </trkpt>
      <trkpt lat="45.79073" lon="-1.18292">
        <ele>58.8</ele>
        <time>2020-01-26T09:44:50Z</time>
      </trkpt>
      <trkpt lat="45.79072" lon="-1.18296">
        <ele>59</ele>
        <time>2020-01-26T09:44:51Z</time>
      </trkpt>
      <trkpt lat="45.79071" lon="-1.18301">
        <ele>59.4</ele>
        <time>2020-01-26T09:44:52Z</time>
      </trkpt>
      <trkpt lat="45.79068" lon="-1.18305">
        <ele>59.4</ele>
        <time>2020-01-26T09:44:53Z</time>
      </trkpt>
      <trkpt lat="45.79066" lon="-1.18309">
        <ele>59.6</ele>
        <time>2020-01-26T09:44:54Z</time>
      </trkpt>
      <trkpt lat="45.79063" lon="-1.18312">
        <ele>59.8</ele>
        <time>2020-01-26T09:44:55Z</time>
      </trkpt>
      <trkpt lat="45.79059" lon="-1.18314">
        <ele>60</ele>
        <time>2020-01-26T09:44:56Z</time>
      </trkpt>
      <trkpt lat="45.79056" lon="-1.18314">
        <ele>60</ele>
        <time>2020-01-26T09:44:57Z</time>
      </trkpt>
      <trkpt lat="45.79053" lon="-1.18314">
        <ele>60</ele>
        <time>2020-01-26T09:44:58Z</time>
      </trkpt>
      <trkpt lat="45.7905" lon="-1.18313">
        <ele>60</ele>
        <time>2020-01-26T09:44:59Z</time>
      </trkpt>
      <trkpt lat="45.79047" lon="-1.18312">
        <ele>60</ele>
        <time>2020-01-26T09:45:00Z</time>
      </trkpt>
      <trkpt lat="45.79044" lon="-1.18311">
        <ele>59.8</ele>
        <time>2020-01-26T09:45:01Z</time>
      </trkpt>
      <trkpt lat="45.7904" lon="-1.18312">
        <ele>59.8</ele>
        <time>2020-01-26T09:45:02Z</time>
      </trkpt>
      <trkpt lat="45.79037" lon="-1.18314">
        <ele>59.8</ele>
        <time>2020-01-26T09:45:03Z</time>
      </trkpt>
      <trkpt lat="45.79034" lon="-1.18317">
        <ele>60.2</ele>
        <time>2020-01-26T09:45:04Z</time>
      </trkpt>
      <trkpt lat="45.79032" lon="-1.1832">
        <ele>60.6</ele>
        <time>2020-01-26T09:45:05Z</time>
      </trkpt>
      <trkpt lat="45.7903" lon="-1.18323">
        <ele>60.8</ele>
        <time>2020-01-26T09:45:06Z</time>
      </trkpt>
      <trkpt lat="45.79028" lon="-1.18326">
        <ele>61</ele>
        <time>2020-01-26T09:45:07Z</time>
      </trkpt>
      <trkpt lat="45.79025" lon="-1.18329">
        <ele>61.2</ele>
        <time>2020-01-26T09:45:08Z</time>
      </trkpt>
      <trkpt lat="45.79023" lon="-1.18331">
        <ele>61.4</ele>
        <time>2020-01-26T09:45:09Z</time>
      </trkpt>
      <trkpt lat="45.79021" lon="-1.18334">
        <ele>61.4</ele>
        <time>2020-01-26T09:45:10Z</time>
      </trkpt>
      <trkpt lat="45.79019" lon="-1.18338">
        <ele>61.6</ele>
        <time>2020-01-26T09:45:11Z</time>
      </trkpt>
      <trkpt lat="45.79017" lon="-1.18342">
        <ele>61.6</ele>
        <time>2020-01-26T09:45:12Z</time>
      </trkpt>
      <trkpt lat="45.79015" lon="-1.18346">
        <ele>62</ele>
        <time>2020-01-26T09:45:13Z</time>
      </trkpt>
      <trkpt lat="45.79013" lon="-1.18349">
        <ele>62.6</ele>
        <time>2020-01-26T09:45:14Z</time>
      </trkpt>
      <trkpt lat="45.79012" lon="-1.18354">
        <ele>63</ele>
        <time>2020-01-26T09:45:15Z</time>
      </trkpt>
      <trkpt lat="45.79009" lon="-1.18357">
        <ele>63.8</ele>
        <time>2020-01-26T09:45:16Z</time>
      </trkpt>
      <trkpt lat="45.79007" lon="-1.18361">
        <ele>64.8</ele>
        <time>2020-01-26T09:45:17Z</time>
      </trkpt>
      <trkpt lat="45.79005" lon="-1.18365">
        <ele>65.6</ele>
        <time>2020-01-26T09:45:18Z</time>
      </trkpt>
      <trkpt lat="45.79004" lon="-1.18369">
        <ele>66.2</ele>
        <time>2020-01-26T09:45:19Z</time>
      </trkpt>
      <trkpt lat="45.79003" lon="-1.18374">
        <ele>66.4</ele>
        <time>2020-01-26T09:45:20Z</time>
      </trkpt>
      <trkpt lat="45.79001" lon="-1.18379">
        <ele>66.8</ele>
        <time>2020-01-26T09:45:21Z</time>
      </trkpt>
      <trkpt lat="45.78999" lon="-1.18382">
        <ele>66.8</ele>
        <time>2020-01-26T09:45:22Z</time>
      </trkpt>
      <trkpt lat="45.78996" lon="-1.18385">
        <ele>66.8</ele>
        <time>2020-01-26T09:45:23Z</time>
      </trkpt>
      <trkpt lat="45.78994" lon="-1.18389">
        <ele>67</ele>
        <time>2020-01-26T09:45:24Z</time>
      </trkpt>
      <trkpt lat="45.78991" lon="-1.18392">
        <ele>67</ele>
        <time>2020-01-26T09:45:25Z</time>
      </trkpt>
      <trkpt lat="45.78988" lon="-1.18395">
        <ele>67</ele>
        <time>2020-01-26T09:45:26Z</time>
      </trkpt>
      <trkpt lat="45.78984" lon="-1.18396">
        <ele>66.6</ele>
        <time>2020-01-26T09:45:27Z</time>
      </trkpt>
      <trkpt lat="45.78979" lon="-1.18397">
        <ele>66.6</ele>
        <time>2020-01-26T09:45:28Z</time>
      </trkpt>
      <trkpt lat="45.78976" lon="-1.18398">
        <ele>66.4</ele>
        <time>2020-01-26T09:45:29Z</time>
      </trkpt>
      <trkpt lat="45.78972" lon="-1.18398">
        <ele>66</ele>
        <time>2020-01-26T09:45:30Z</time>
      </trkpt>
      <trkpt lat="45.78968" lon="-1.18398">
        <ele>66</ele>
        <time>2020-01-26T09:45:31Z</time>
      </trkpt>
      <trkpt lat="45.78966" lon="-1.18397">
        <ele>66</ele>
        <time>2020-01-26T09:45:32Z</time>
      </trkpt>
      <trkpt lat="45.78963" lon="-1.18397">
        <ele>66</ele>
        <time>2020-01-26T09:45:33Z</time>
      </trkpt>
      <trkpt lat="45.78961" lon="-1.18398">
        <ele>66</ele>
        <time>2020-01-26T09:45:34Z</time>
      </trkpt>
      <trkpt lat="45.78959" lon="-1.18398">
        <ele>66</ele>
        <time>2020-01-26T09:45:35Z</time>
      </trkpt>
      <trkpt lat="45.78957" lon="-1.18399">
        <ele>66</ele>
        <time>2020-01-26T09:45:36Z</time>
      </trkpt>
      <trkpt lat="45.78954" lon="-1.18399">
        <ele>66</ele>
        <time>2020-01-26T09:45:37Z</time>
      </trkpt>
      <trkpt lat="45.78952" lon="-1.184">
        <ele>66</ele>
        <time>2020-01-26T09:45:38Z</time>
      </trkpt>
      <trkpt lat="45.7895" lon="-1.18402">
        <ele>66.2</ele>
        <time>2020-01-26T09:45:39Z</time>
      </trkpt>
      <trkpt lat="45.78947" lon="-1.18403">
        <ele>66.4</ele>
        <time>2020-01-26T09:45:40Z</time>
      </trkpt>
      <trkpt lat="45.78945" lon="-1.18403">
        <ele>66.6</ele>
        <time>2020-01-26T09:45:41Z</time>
      </trkpt>
      <trkpt lat="45.78942" lon="-1.18404">
        <ele>66.6</ele>
        <time>2020-01-26T09:45:42Z</time>
      </trkpt>
      <trkpt lat="45.7894" lon="-1.18403">
        <ele>66.8</ele>
        <time>2020-01-26T09:45:43Z</time>
      </trkpt>
      <trkpt lat="45.78938" lon="-1.18404">
        <ele>67</ele>
        <time>2020-01-26T09:45:44Z</time>
      </trkpt>
      <trkpt lat="45.78936" lon="-1.18404">
        <ele>67.4</ele>
        <time>2020-01-26T09:45:45Z</time>
      </trkpt>
      <trkpt lat="45.78934" lon="-1.18404">
        <ele>67.6</ele>
        <time>2020-01-26T09:45:46Z</time>
      </trkpt>
      <trkpt lat="45.78932" lon="-1.18405">
        <ele>67.8</ele>
        <time>2020-01-26T09:45:47Z</time>
      </trkpt>
      <trkpt lat="45.7893" lon="-1.18405">
        <ele>68.2</ele>
        <time>2020-01-26T09:45:48Z</time>
      </trkpt>
      <trkpt lat="45.78928" lon="-1.18405">
        <ele>68.4</ele>
        <time>2020-01-26T09:45:49Z</time>
      </trkpt>
      <trkpt lat="45.78926" lon="-1.18406">
        <ele>68.6</ele>
        <time>2020-01-26T09:45:50Z</time>
      </trkpt>
      <trkpt lat="45.78925" lon="-1.18406">
        <ele>69</ele>
        <time>2020-01-26T09:45:51Z</time>
      </trkpt>
      <trkpt lat="45.78923" lon="-1.18406">
        <ele>69.4</ele>
        <time>2020-01-26T09:45:52Z</time>
      </trkpt>
      <trkpt lat="45.78921" lon="-1.18407">
        <ele>69.8</ele>
        <time>2020-01-26T09:45:53Z</time>
      </trkpt>
      <trkpt lat="45.78919" lon="-1.18407">
        <ele>70.2</ele>
        <time>2020-01-26T09:45:54Z</time>
      </trkpt>
      <trkpt lat="45.78917" lon="-1.18407">
        <ele>70.6</ele>
        <time>2020-01-26T09:45:55Z</time>
      </trkpt>
      <trkpt lat="45.78915" lon="-1.18407">
        <ele>71</ele>
        <time>2020-01-26T09:45:56Z</time>
      </trkpt>
      <trkpt lat="45.78914" lon="-1.18406">
        <ele>71.4</ele>
        <time>2020-01-26T09:45:57Z</time>
      </trkpt>
      <trkpt lat="45.78912" lon="-1.18406">
        <ele>71.8</ele>
        <time>2020-01-26T09:45:58Z</time>
      </trkpt>
      <trkpt lat="45.7891" lon="-1.18407">
        <ele>72.2</ele>
        <time>2020-01-26T09:45:59Z</time>
      </trkpt>
      <trkpt lat="45.78909" lon="-1.18407">
        <ele>72.4</ele>
        <time>2020-01-26T09:46:00Z</time>
      </trkpt>
      <trkpt lat="45.78907" lon="-1.18407">
        <ele>72.6</ele>
        <time>2020-01-26T09:46:01Z</time>
      </trkpt>
      <trkpt lat="45.78905" lon="-1.18407">
        <ele>73</ele>
        <time>2020-01-26T09:46:02Z</time>
      </trkpt>
      <trkpt lat="45.78903" lon="-1.18407">
        <ele>73.2</ele>
        <time>2020-01-26T09:46:03Z</time>
      </trkpt>
      <trkpt lat="45.78901" lon="-1.18407">
        <ele>73.4</ele>
        <time>2020-01-26T09:46:04Z</time>
      </trkpt>
      <trkpt lat="45.789" lon="-1.18407">
        <ele>73.6</ele>
        <time>2020-01-26T09:46:05Z</time>
      </trkpt>
      <trkpt lat="45.78897" lon="-1.18407">
        <ele>73.8</ele>
        <time>2020-01-26T09:46:06Z</time>
      </trkpt>
      <trkpt lat="45.78896" lon="-1.18407">
        <ele>74</ele>
        <time>2020-01-26T09:46:07Z</time>
      </trkpt>
      <trkpt lat="45.78894" lon="-1.18408">
        <ele>74.6</ele>
        <time>2020-01-26T09:46:08Z</time>
      </trkpt>
      <trkpt lat="45.78892" lon="-1.18408">
        <ele>74.8</ele>
        <time>2020-01-26T09:46:09Z</time>
      </trkpt>
      <trkpt lat="45.7889" lon="-1.18408">
        <ele>75.2</ele>
        <time>2020-01-26T09:46:10Z</time>
      </trkpt>
      <trkpt lat="45.78888" lon="-1.18408">
        <ele>75.4</ele>
        <time>2020-01-26T09:46:11Z</time>
      </trkpt>
      <trkpt lat="45.78886" lon="-1.18408">
        <ele>75.6</ele>
        <time>2020-01-26T09:46:12Z</time>
      </trkpt>
      <trkpt lat="45.78885" lon="-1.18408">
        <ele>76</ele>
        <time>2020-01-26T09:46:13Z</time>
      </trkpt>
      <trkpt lat="45.78884" lon="-1.18407">
        <ele>76.2</ele>
        <time>2020-01-26T09:46:14Z</time>
      </trkpt>
      <trkpt lat="45.78883" lon="-1.18407">
        <ele>76.4</ele>
        <time>2020-01-26T09:46:15Z</time>
      </trkpt>
      <trkpt lat="45.78881" lon="-1.18407">
        <ele>76.4</ele>
        <time>2020-01-26T09:46:16Z</time>
      </trkpt>
      <trkpt lat="45.7888" lon="-1.18407">
        <ele>76.6</ele>
        <time>2020-01-26T09:46:17Z</time>
      </trkpt>
      <trkpt lat="45.7888" lon="-1.18407">
        <ele>76.6</ele>
        <time>2020-01-26T09:46:18Z</time>
      </trkpt>
      <trkpt lat="45.78878" lon="-1.18407">
        <ele>76.8</ele>
        <time>2020-01-26T09:46:19Z</time>
      </trkpt>
      <trkpt lat="45.78878" lon="-1.18407">
        <ele>76.8</ele>
        <time>2020-01-26T09:46:20Z</time>
      </trkpt>
      <trkpt lat="45.78877" lon="-1.18407">
        <ele>76.8</ele>
        <time>2020-01-26T09:46:21Z</time>
      </trkpt>
      <trkpt lat="45.78876" lon="-1.18407">
        <ele>76.8</ele>
        <time>2020-01-26T09:46:22Z</time>
      </trkpt>
      <trkpt lat="45.78875" lon="-1.18407">
        <ele>77</ele>
        <time>2020-01-26T09:46:23Z</time>
      </trkpt>
      <trkpt lat="45.78874" lon="-1.18408">
        <ele>77</ele>
        <time>2020-01-26T09:46:24Z</time>
      </trkpt>
      <trkpt lat="45.78873" lon="-1.18408">
        <ele>77</ele>
        <time>2020-01-26T09:46:25Z</time>
      </trkpt>
      <trkpt lat="45.78872" lon="-1.18408">
        <ele>77</ele>
        <time>2020-01-26T09:46:26Z</time>
      </trkpt>
      <trkpt lat="45.78871" lon="-1.18409">
        <ele>77.2</ele>
        <time>2020-01-26T09:46:27Z</time>
      </trkpt>
      <trkpt lat="45.7887" lon="-1.18409">
        <ele>77.4</ele>
        <time>2020-01-26T09:46:28Z</time>
      </trkpt>
      <trkpt lat="45.78868" lon="-1.18409">
        <ele>77.6</ele>
        <time>2020-01-26T09:46:29Z</time>
      </trkpt>
      <trkpt lat="45.78868" lon="-1.18409">
        <ele>77.8</ele>
        <time>2020-01-26T09:46:30Z</time>
      </trkpt>
      <trkpt lat="45.78866" lon="-1.1841">
        <ele>78</ele>
        <time>2020-01-26T09:46:31Z</time>
      </trkpt>
      <trkpt lat="45.78865" lon="-1.1841">
        <ele>78.2</ele>
        <time>2020-01-26T09:46:32Z</time>
      </trkpt>
      <trkpt lat="45.78864" lon="-1.18409">
        <ele>78</ele>
        <time>2020-01-26T09:46:33Z</time>
      </trkpt>
      <trkpt lat="45.78862" lon="-1.18408">
        <ele>78</ele>
        <time>2020-01-26T09:46:34Z</time>
      </trkpt>
      <trkpt lat="45.7886" lon="-1.18409">
        <ele>78</ele>
        <time>2020-01-26T09:46:35Z</time>
      </trkpt>
      <trkpt lat="45.78858" lon="-1.18408">
        <ele>77.6</ele>
        <time>2020-01-26T09:46:36Z</time>
      </trkpt>
      <trkpt lat="45.78854" lon="-1.18407">
        <ele>77.2</ele>
        <time>2020-01-26T09:46:37Z</time>
      </trkpt>
      <trkpt lat="45.78851" lon="-1.18407">
        <ele>77</ele>
        <time>2020-01-26T09:46:38Z</time>
      </trkpt>
      <trkpt lat="45.78847" lon="-1.18408">
        <ele>76.4</ele>
        <time>2020-01-26T09:46:39Z</time>
      </trkpt>
      <trkpt lat="45.78842" lon="-1.18408">
        <ele>75.8</ele>
        <time>2020-01-26T09:46:40Z</time>
      </trkpt>
      <trkpt lat="45.78837" lon="-1.18408">
        <ele>75.4</ele>
        <time>2020-01-26T09:46:41Z</time>
      </trkpt>
      <trkpt lat="45.78831" lon="-1.18409">
        <ele>74.8</ele>
        <time>2020-01-26T09:46:42Z</time>
      </trkpt>
      <trkpt lat="45.78826" lon="-1.18409">
        <ele>74</ele>
        <time>2020-01-26T09:46:43Z</time>
      </trkpt>
      <trkpt lat="45.78819" lon="-1.1841">
        <ele>73.6</ele>
        <time>2020-01-26T09:46:44Z</time>
      </trkpt>
      <trkpt lat="45.78812" lon="-1.18411">
        <ele>73.2</ele>
        <time>2020-01-26T09:46:45Z</time>
      </trkpt>
      <trkpt lat="45.78805" lon="-1.18411">
        <ele>72.6</ele>
        <time>2020-01-26T09:46:46Z</time>
      </trkpt>
      <trkpt lat="45.78798" lon="-1.18411">
        <ele>72.2</ele>
        <time>2020-01-26T09:46:47Z</time>
      </trkpt>
      <trkpt lat="45.7879" lon="-1.18412">
        <ele>71.8</ele>
        <time>2020-01-26T09:46:48Z</time>
      </trkpt>
      <trkpt lat="45.78784" lon="-1.18412">
        <ele>71.6</ele>
        <time>2020-01-26T09:46:49Z</time>
      </trkpt>
      <trkpt lat="45.78777" lon="-1.18412">
        <ele>71.2</ele>
        <time>2020-01-26T09:46:50Z</time>
      </trkpt>
      <trkpt lat="45.7877" lon="-1.18412">
        <ele>70.6</ele>
        <time>2020-01-26T09:46:51Z</time>
      </trkpt>
      <trkpt lat="45.78764" lon="-1.1841">
        <ele>70</ele>
        <time>2020-01-26T09:46:52Z</time>
      </trkpt>
      <trkpt lat="45.78756" lon="-1.1841">
        <ele>69.4</ele>
        <time>2020-01-26T09:46:53Z</time>
      </trkpt>
      <trkpt lat="45.78749" lon="-1.18411">
        <ele>69.2</ele>
        <time>2020-01-26T09:46:54Z</time>
      </trkpt>
      <trkpt lat="45.78742" lon="-1.1841">
        <ele>68.6</ele>
        <time>2020-01-26T09:46:55Z</time>
      </trkpt>
      <trkpt lat="45.78737" lon="-1.1841">
        <ele>67.8</ele>
        <time>2020-01-26T09:46:56Z</time>
      </trkpt>
      <trkpt lat="45.78732" lon="-1.18411">
        <ele>67.2</ele>
        <time>2020-01-26T09:46:57Z</time>
      </trkpt>
      <trkpt lat="45.78727" lon="-1.18412">
        <ele>66.4</ele>
        <time>2020-01-26T09:46:58Z</time>
      </trkpt>
      <trkpt lat="45.78723" lon="-1.18415">
        <ele>65.4</ele>
        <time>2020-01-26T09:46:59Z</time>
      </trkpt>
      <trkpt lat="45.78719" lon="-1.18419">
        <ele>64.6</ele>
        <time>2020-01-26T09:47:00Z</time>
      </trkpt>
      <trkpt lat="45.78717" lon="-1.18425">
        <ele>64</ele>
        <time>2020-01-26T09:47:01Z</time>
      </trkpt>
      <trkpt lat="45.78717" lon="-1.18431">
        <ele>63.8</ele>
        <time>2020-01-26T09:47:02Z</time>
      </trkpt>
      <trkpt lat="45.78713" lon="-1.18438">
        <ele>63.4</ele>
        <time>2020-01-26T09:47:03Z</time>
      </trkpt>
      <trkpt lat="45.78711" lon="-1.18446">
        <ele>63.2</ele>
        <time>2020-01-26T09:47:04Z</time>
      </trkpt>
      <trkpt lat="45.78711" lon="-1.18454">
        <ele>63.4</ele>
        <time>2020-01-26T09:47:05Z</time>
      </trkpt>
      <trkpt lat="45.78709" lon="-1.18461">
        <ele>63.6</ele>
        <time>2020-01-26T09:47:06Z</time>
      </trkpt>
      <trkpt lat="45.78708" lon="-1.1847">
        <ele>63.8</ele>
        <time>2020-01-26T09:47:07Z</time>
      </trkpt>
      <trkpt lat="45.78706" lon="-1.18482">
        <ele>64</ele>
        <time>2020-01-26T09:47:08Z</time>
      </trkpt>
      <trkpt lat="45.78706" lon="-1.18491">
        <ele>64.2</ele>
        <time>2020-01-26T09:47:09Z</time>
      </trkpt>
      <trkpt lat="45.78704" lon="-1.18501">
        <ele>64.2</ele>
        <time>2020-01-26T09:47:10Z</time>
      </trkpt>
      <trkpt lat="45.78704" lon="-1.18512">
        <ele>64.4</ele>
        <time>2020-01-26T09:47:11Z</time>
      </trkpt>
      <trkpt lat="45.78705" lon="-1.18522">
        <ele>64.2</ele>
        <time>2020-01-26T09:47:12Z</time>
      </trkpt>
      <trkpt lat="45.78705" lon="-1.18531">
        <ele>64</ele>
        <time>2020-01-26T09:47:13Z</time>
      </trkpt>
      <trkpt lat="45.78704" lon="-1.18541">
        <ele>63.8</ele>
        <time>2020-01-26T09:47:14Z</time>
      </trkpt>
      <trkpt lat="45.78702" lon="-1.18547">
        <ele>63</ele>
        <time>2020-01-26T09:47:15Z</time>
      </trkpt>
      <trkpt lat="45.78698" lon="-1.18553">
        <ele>62.4</ele>
        <time>2020-01-26T09:47:16Z</time>
      </trkpt>
      <trkpt lat="45.78694" lon="-1.18556">
        <ele>62.2</ele>
        <time>2020-01-26T09:47:17Z</time>
      </trkpt>
      <trkpt lat="45.7869" lon="-1.18561">
        <ele>61.8</ele>
        <time>2020-01-26T09:47:18Z</time>
      </trkpt>
      <trkpt lat="45.78686" lon="-1.18565">
        <ele>61.8</ele>
        <time>2020-01-26T09:47:19Z</time>
      </trkpt>
      <trkpt lat="45.78683" lon="-1.18566">
        <ele>62.2</ele>
        <time>2020-01-26T09:47:20Z</time>
      </trkpt>
      <trkpt lat="45.78681" lon="-1.18565">
        <ele>62.6</ele>
        <time>2020-01-26T09:47:21Z</time>
      </trkpt>
      <trkpt lat="45.7868" lon="-1.18564">
        <ele>62.6</ele>
        <time>2020-01-26T09:47:22Z</time>
      </trkpt>
      <trkpt lat="45.78679" lon="-1.18561">
        <ele>62.4</ele>
        <time>2020-01-26T09:47:23Z</time>
      </trkpt>
      <trkpt lat="45.78678" lon="-1.18558">
        <ele>62.2</ele>
        <time>2020-01-26T09:47:24Z</time>
      </trkpt>
      <trkpt lat="45.78677" lon="-1.18556">
        <ele>61.8</ele>
        <time>2020-01-26T09:47:25Z</time>
      </trkpt>
      <trkpt lat="45.78676" lon="-1.18556">
        <ele>62</ele>
        <time>2020-01-26T09:47:26Z</time>
      </trkpt>
      <trkpt lat="45.78677" lon="-1.18553">
        <ele>62.2</ele>
        <time>2020-01-26T09:47:27Z</time>
      </trkpt>
      <trkpt lat="45.78678" lon="-1.18551">
        <ele>61.8</ele>
        <time>2020-01-26T09:47:28Z</time>
      </trkpt>
      <trkpt lat="45.78678" lon="-1.18549">
        <ele>61.4</ele>
        <time>2020-01-26T09:47:29Z</time>
      </trkpt>
      <trkpt lat="45.78679" lon="-1.18545">
        <ele>60.8</ele>
        <time>2020-01-26T09:47:30Z</time>
      </trkpt>
      <trkpt lat="45.78677" lon="-1.1854">
        <ele>60</ele>
        <time>2020-01-26T09:47:31Z</time>
      </trkpt>
      <trkpt lat="45.78676" lon="-1.18537">
        <ele>59.6</ele>
        <time>2020-01-26T09:47:32Z</time>
      </trkpt>
      <trkpt lat="45.78674" lon="-1.18532">
        <ele>58.8</ele>
        <time>2020-01-26T09:47:33Z</time>
      </trkpt>
      <trkpt lat="45.78673" lon="-1.18526">
        <ele>57.8</ele>
        <time>2020-01-26T09:47:34Z</time>
      </trkpt>
      <trkpt lat="45.78671" lon="-1.18518">
        <ele>57.2</ele>
        <time>2020-01-26T09:47:35Z</time>
      </trkpt>
      <trkpt lat="45.78671" lon="-1.18509">
        <ele>57</ele>
        <time>2020-01-26T09:47:36Z</time>
      </trkpt>
      <trkpt lat="45.78669" lon="-1.18501">
        <ele>57</ele>
        <time>2020-01-26T09:47:37Z</time>
      </trkpt>
      <trkpt lat="45.78664" lon="-1.18491">
        <ele>57</ele>
        <time>2020-01-26T09:47:38Z</time>
      </trkpt>
      <trkpt lat="45.78661" lon="-1.18479">
        <ele>57.2</ele>
        <time>2020-01-26T09:47:39Z</time>
      </trkpt>
      <trkpt lat="45.78659" lon="-1.18466">
        <ele>57.8</ele>
        <time>2020-01-26T09:47:40Z</time>
      </trkpt>
      <trkpt lat="45.78656" lon="-1.18455">
        <ele>58.2</ele>
        <time>2020-01-26T09:47:41Z</time>
      </trkpt>
      <trkpt lat="45.78654" lon="-1.18449">
        <ele>58.6</ele>
        <time>2020-01-26T09:47:42Z</time>
      </trkpt>
      <trkpt lat="45.78652" lon="-1.18446">
        <ele>58.2</ele>
        <time>2020-01-26T09:47:43Z</time>
      </trkpt>
      <trkpt lat="45.78649" lon="-1.18442">
        <ele>58</ele>
        <time>2020-01-26T09:47:44Z</time>
      </trkpt>
      <trkpt lat="45.78646" lon="-1.18439">
        <ele>57.4</ele>
        <time>2020-01-26T09:47:45Z</time>
      </trkpt>
      <trkpt lat="45.78646" lon="-1.18433">
        <ele>57</ele>
        <time>2020-01-26T09:47:46Z</time>
      </trkpt>
      <trkpt lat="45.78647" lon="-1.18428">
        <ele>56.6</ele>
        <time>2020-01-26T09:47:47Z</time>
      </trkpt>
      <trkpt lat="45.78648" lon="-1.18421">
        <ele>56.4</ele>
        <time>2020-01-26T09:47:48Z</time>
      </trkpt>
      <trkpt lat="45.78648" lon="-1.18416">
        <ele>56.6</ele>
        <time>2020-01-26T09:47:49Z</time>
      </trkpt>
      <trkpt lat="45.78646" lon="-1.18414">
        <ele>55.8</ele>
        <time>2020-01-26T09:47:50Z</time>
      </trkpt>
      <trkpt lat="45.78645" lon="-1.1841">
        <ele>55.2</ele>
        <time>2020-01-26T09:47:51Z</time>
      </trkpt>
      <trkpt lat="45.78645" lon="-1.18401">
        <ele>54</ele>
        <time>2020-01-26T09:47:52Z</time>
      </trkpt>
      <trkpt lat="45.78645" lon="-1.18392">
        <ele>53.4</ele>
        <time>2020-01-26T09:47:53Z</time>
      </trkpt>
      <trkpt lat="45.78645" lon="-1.18382">
        <ele>52.8</ele>
        <time>2020-01-26T09:47:54Z</time>
      </trkpt>
      <trkpt lat="45.78643" lon="-1.18372">
        <ele>52.6</ele>
        <time>2020-01-26T09:47:55Z</time>
      </trkpt>
      <trkpt lat="45.78643" lon="-1.18363">
        <ele>52.2</ele>
        <time>2020-01-26T09:47:56Z</time>
      </trkpt>
      <trkpt lat="45.78644" lon="-1.18353">
        <ele>51.6</ele>
        <time>2020-01-26T09:47:57Z</time>
      </trkpt>
      <trkpt lat="45.78644" lon="-1.18341">
        <ele>51.2</ele>
        <time>2020-01-26T09:47:58Z</time>
      </trkpt>
      <trkpt lat="45.78645" lon="-1.18331">
        <ele>51.4</ele>
        <time>2020-01-26T09:47:59Z</time>
      </trkpt>
      <trkpt lat="45.78647" lon="-1.18323">
        <ele>51.6</ele>
        <time>2020-01-26T09:48:00Z</time>
      </trkpt>
      <trkpt lat="45.78649" lon="-1.18315">
        <ele>51.6</ele>
        <time>2020-01-26T09:48:01Z</time>
      </trkpt>
      <trkpt lat="45.78651" lon="-1.18305">
        <ele>52</ele>
        <time>2020-01-26T09:48:02Z</time>
      </trkpt>
      <trkpt lat="45.78651" lon="-1.18295">
        <ele>52.6</ele>
        <time>2020-01-26T09:48:03Z</time>
      </trkpt>
      <trkpt lat="45.78652" lon="-1.18284">
        <ele>53.2</ele>
        <time>2020-01-26T09:48:04Z</time>
      </trkpt>
      <trkpt lat="45.78653" lon="-1.18276">
        <ele>53.6</ele>
        <time>2020-01-26T09:48:05Z</time>
      </trkpt>
      <trkpt lat="45.78655" lon="-1.18267">
        <ele>54</ele>
        <time>2020-01-26T09:48:06Z</time>
      </trkpt>
      <trkpt lat="45.78657" lon="-1.18258">
        <ele>54.4</ele>
        <time>2020-01-26T09:48:07Z</time>
      </trkpt>
      <trkpt lat="45.78661" lon="-1.18249">
        <ele>54.8</ele>
        <time>2020-01-26T09:48:08Z</time>
      </trkpt>
      <trkpt lat="45.78663" lon="-1.1824">
        <ele>55.4</ele>
        <time>2020-01-26T09:48:09Z</time>
      </trkpt>
      <trkpt lat="45.78665" lon="-1.18232">
        <ele>56</ele>
        <time>2020-01-26T09:48:10Z</time>
      </trkpt>
      <trkpt lat="45.78668" lon="-1.18227">
        <ele>56.6</ele>
        <time>2020-01-26T09:48:11Z</time>
      </trkpt>
      <trkpt lat="45.7867" lon="-1.18219">
        <ele>56</ele>
        <time>2020-01-26T09:48:12Z</time>
      </trkpt>
      <trkpt lat="45.78672" lon="-1.18212">
        <ele>55</ele>
        <time>2020-01-26T09:48:13Z</time>
      </trkpt>
      <trkpt lat="45.78675" lon="-1.18203">
        <ele>54.8</ele>
        <time>2020-01-26T09:48:14Z</time>
      </trkpt>
      <trkpt lat="45.78679" lon="-1.18194">
        <ele>54.8</ele>
        <time>2020-01-26T09:48:15Z</time>
      </trkpt>
      <trkpt lat="45.78681" lon="-1.18186">
        <ele>55</ele>
        <time>2020-01-26T09:48:16Z</time>
      </trkpt>
      <trkpt lat="45.78683" lon="-1.18178">
        <ele>55</ele>
        <time>2020-01-26T09:48:17Z</time>
      </trkpt>
      <trkpt lat="45.78684" lon="-1.1817">
        <ele>55.2</ele>
        <time>2020-01-26T09:48:18Z</time>
      </trkpt>
      <trkpt lat="45.78686" lon="-1.18162">
        <ele>55.4</ele>
        <time>2020-01-26T09:48:19Z</time>
      </trkpt>
      <trkpt lat="45.78689" lon="-1.18155">
        <ele>55.6</ele>
        <time>2020-01-26T09:48:20Z</time>
      </trkpt>
      <trkpt lat="45.78692" lon="-1.18149">
        <ele>55.6</ele>
        <time>2020-01-26T09:48:21Z</time>
      </trkpt>
      <trkpt lat="45.78695" lon="-1.18143">
        <ele>55.8</ele>
        <time>2020-01-26T09:48:22Z</time>
      </trkpt>
      <trkpt lat="45.78697" lon="-1.18135">
        <ele>55.8</ele>
        <time>2020-01-26T09:48:23Z</time>
      </trkpt>
      <trkpt lat="45.78698" lon="-1.18128">
        <ele>56.2</ele>
        <time>2020-01-26T09:48:24Z</time>
      </trkpt>
      <trkpt lat="45.78701" lon="-1.1812">
        <ele>56.4</ele>
        <time>2020-01-26T09:48:25Z</time>
      </trkpt>
      <trkpt lat="45.78703" lon="-1.18113">
        <ele>56.6</ele>
        <time>2020-01-26T09:48:26Z</time>
      </trkpt>
      <trkpt lat="45.78706" lon="-1.18108">
        <ele>56.6</ele>
        <time>2020-01-26T09:48:27Z</time>
      </trkpt>
      <trkpt lat="45.78709" lon="-1.18104">
        <ele>57</ele>
        <time>2020-01-26T09:48:28Z</time>
      </trkpt>
      <trkpt lat="45.78711" lon="-1.18102">
        <ele>57.4</ele>
        <time>2020-01-26T09:48:29Z</time>
      </trkpt>
      <trkpt lat="45.78714" lon="-1.18099">
        <ele>57.6</ele>
        <time>2020-01-26T09:48:30Z</time>
      </trkpt>
      <trkpt lat="45.78717" lon="-1.18095">
        <ele>57.8</ele>
        <time>2020-01-26T09:48:31Z</time>
      </trkpt>
      <trkpt lat="45.78718" lon="-1.1809">
        <ele>57.8</ele>
        <time>2020-01-26T09:48:32Z</time>
      </trkpt>
      <trkpt lat="45.78719" lon="-1.18084">
        <ele>57.6</ele>
        <time>2020-01-26T09:48:33Z</time>
      </trkpt>
      <trkpt lat="45.78721" lon="-1.18078">
        <ele>57.2</ele>
        <time>2020-01-26T09:48:34Z</time>
      </trkpt>
      <trkpt lat="45.78723" lon="-1.18071">
        <ele>57.2</ele>
        <time>2020-01-26T09:48:35Z</time>
      </trkpt>
      <trkpt lat="45.78724" lon="-1.18064">
        <ele>56.8</ele>
        <time>2020-01-26T09:48:36Z</time>
      </trkpt>
      <trkpt lat="45.78727" lon="-1.1806">
        <ele>56.6</ele>
        <time>2020-01-26T09:48:37Z</time>
      </trkpt>
      <trkpt lat="45.78728" lon="-1.18054">
        <ele>56.8</ele>
        <time>2020-01-26T09:48:38Z</time>
      </trkpt>
      <trkpt lat="45.78729" lon="-1.18049">
        <ele>56.8</ele>
        <time>2020-01-26T09:48:39Z</time>
      </trkpt>
      <trkpt lat="45.78732" lon="-1.18046">
        <ele>57.2</ele>
        <time>2020-01-26T09:48:40Z</time>
      </trkpt>
      <trkpt lat="45.78734" lon="-1.18039">
        <ele>57.8</ele>
        <time>2020-01-26T09:48:41Z</time>
      </trkpt>
      <trkpt lat="45.78736" lon="-1.18033">
        <ele>57.8</ele>
        <time>2020-01-26T09:48:42Z</time>
      </trkpt>
      <trkpt lat="45.78738" lon="-1.18025">
        <ele>58</ele>
        <time>2020-01-26T09:48:43Z</time>
      </trkpt>
      <trkpt lat="45.78741" lon="-1.18018">
        <ele>58</ele>
        <time>2020-01-26T09:48:44Z</time>
      </trkpt>
      <trkpt lat="45.78743" lon="-1.18011">
        <ele>57.6</ele>
        <time>2020-01-26T09:48:45Z</time>
      </trkpt>
      <trkpt lat="45.78744" lon="-1.18002">
        <ele>57.8</ele>
        <time>2020-01-26T09:48:46Z</time>
      </trkpt>
      <trkpt lat="45.78746" lon="-1.17995">
        <ele>57.8</ele>
        <time>2020-01-26T09:48:47Z</time>
      </trkpt>
      <trkpt lat="45.78748" lon="-1.1799">
        <ele>57.8</ele>
        <time>2020-01-26T09:48:48Z</time>
      </trkpt>
      <trkpt lat="45.78751" lon="-1.17982">
        <ele>57.6</ele>
        <time>2020-01-26T09:48:49Z</time>
      </trkpt>
      <trkpt lat="45.78753" lon="-1.17975">
        <ele>57.2</ele>
        <time>2020-01-26T09:48:50Z</time>
      </trkpt>
      <trkpt lat="45.78756" lon="-1.17967">
        <ele>57.2</ele>
        <time>2020-01-26T09:48:51Z</time>
      </trkpt>
      <trkpt lat="45.78759" lon="-1.17962">
        <ele>57.4</ele>
        <time>2020-01-26T09:48:52Z</time>
      </trkpt>
      <trkpt lat="45.78763" lon="-1.17958">
        <ele>57.6</ele>
        <time>2020-01-26T09:48:53Z</time>
      </trkpt>
      <trkpt lat="45.78766" lon="-1.17953">
        <ele>57.6</ele>
        <time>2020-01-26T09:48:54Z</time>
      </trkpt>
      <trkpt lat="45.78769" lon="-1.17948">
        <ele>57.8</ele>
        <time>2020-01-26T09:48:55Z</time>
      </trkpt>
      <trkpt lat="45.78771" lon="-1.17943">
        <ele>57.8</ele>
        <time>2020-01-26T09:48:56Z</time>
      </trkpt>
      <trkpt lat="45.78773" lon="-1.17937">
        <ele>57.8</ele>
        <time>2020-01-26T09:48:57Z</time>
      </trkpt>
      <trkpt lat="45.78775" lon="-1.17932">
        <ele>57.8</ele>
        <time>2020-01-26T09:48:58Z</time>
      </trkpt>
      <trkpt lat="45.78778" lon="-1.17928">
        <ele>58</ele>
        <time>2020-01-26T09:48:59Z</time>
      </trkpt>
      <trkpt lat="45.78779" lon="-1.17923">
        <ele>58</ele>
        <time>2020-01-26T09:49:00Z</time>
      </trkpt>
      <trkpt lat="45.78779" lon="-1.17916">
        <ele>57.8</ele>
        <time>2020-01-26T09:49:01Z</time>
      </trkpt>
      <trkpt lat="45.7878" lon="-1.17911">
        <ele>58.4</ele>
        <time>2020-01-26T09:49:02Z</time>
      </trkpt>
      <trkpt lat="45.78782" lon="-1.17906">
        <ele>59</ele>
        <time>2020-01-26T09:49:03Z</time>
      </trkpt>
      <trkpt lat="45.78783" lon="-1.17899">
        <ele>59.8</ele>
        <time>2020-01-26T09:49:04Z</time>
      </trkpt>
      <trkpt lat="45.78784" lon="-1.17893">
        <ele>60</ele>
        <time>2020-01-26T09:49:05Z</time>
      </trkpt>
      <trkpt lat="45.78786" lon="-1.17887">
        <ele>60.2</ele>
        <time>2020-01-26T09:49:06Z</time>
      </trkpt>
      <trkpt lat="45.7879" lon="-1.17884">
        <ele>60.2</ele>
        <time>2020-01-26T09:49:07Z</time>
      </trkpt>
      <trkpt lat="45.7879" lon="-1.17879">
        <ele>59.8</ele>
        <time>2020-01-26T09:49:08Z</time>
      </trkpt>
      <trkpt lat="45.78791" lon="-1.17874">
        <ele>59.2</ele>
        <time>2020-01-26T09:49:09Z</time>
      </trkpt>
      <trkpt lat="45.78792" lon="-1.17869">
        <ele>58.6</ele>
        <time>2020-01-26T09:49:10Z</time>
      </trkpt>
      <trkpt lat="45.78794" lon="-1.17863">
        <ele>58.2</ele>
        <time>2020-01-26T09:49:11Z</time>
      </trkpt>
      <trkpt lat="45.78796" lon="-1.17857">
        <ele>58.2</ele>
        <time>2020-01-26T09:49:12Z</time>
      </trkpt>
      <trkpt lat="45.78798" lon="-1.17852">
        <ele>57.8</ele>
        <time>2020-01-26T09:49:13Z</time>
      </trkpt>
      <trkpt lat="45.78799" lon="-1.17848">
        <ele>57.4</ele>
        <time>2020-01-26T09:49:14Z</time>
      </trkpt>
      <trkpt lat="45.78802" lon="-1.17843">
        <ele>57.4</ele>
        <time>2020-01-26T09:49:15Z</time>
      </trkpt>
      <trkpt lat="45.78803" lon="-1.17839">
        <ele>57.2</ele>
        <time>2020-01-26T09:49:16Z</time>
      </trkpt>
      <trkpt lat="45.78805" lon="-1.17834">
        <ele>57.4</ele>
        <time>2020-01-26T09:49:17Z</time>
      </trkpt>
      <trkpt lat="45.78806" lon="-1.1783">
        <ele>57.6</ele>
        <time>2020-01-26T09:49:18Z</time>
      </trkpt>
      <trkpt lat="45.78807" lon="-1.17825">
        <ele>58</ele>
        <time>2020-01-26T09:49:19Z</time>
      </trkpt>
      <trkpt lat="45.78808" lon="-1.17821">
        <ele>58.2</ele>
        <time>2020-01-26T09:49:20Z</time>
      </trkpt>
      <trkpt lat="45.78811" lon="-1.17817">
        <ele>58.6</ele>
        <time>2020-01-26T09:49:21Z</time>
      </trkpt>
      <trkpt lat="45.78814" lon="-1.17813">
        <ele>59</ele>
        <time>2020-01-26T09:49:22Z</time>
      </trkpt>
      <trkpt lat="45.78815" lon="-1.17808">
        <ele>59.2</ele>
        <time>2020-01-26T09:49:23Z</time>
      </trkpt>
      <trkpt lat="45.78817" lon="-1.17805">
        <ele>58.8</ele>
        <time>2020-01-26T09:49:24Z</time>
      </trkpt>
      <trkpt lat="45.78819" lon="-1.17802">
        <ele>57.8</ele>
        <time>2020-01-26T09:49:25Z</time>
      </trkpt>
      <trkpt lat="45.78822" lon="-1.17798">
        <ele>56.6</ele>
        <time>2020-01-26T09:49:26Z</time>
      </trkpt>
      <trkpt lat="45.78824" lon="-1.17794">
        <ele>56.2</ele>
        <time>2020-01-26T09:49:27Z</time>
      </trkpt>
      <trkpt lat="45.78825" lon="-1.17789">
        <ele>56</ele>
        <time>2020-01-26T09:49:28Z</time>
      </trkpt>
      <trkpt lat="45.78827" lon="-1.17786">
        <ele>56.2</ele>
        <time>2020-01-26T09:49:29Z</time>
      </trkpt>
      <trkpt lat="45.78827" lon="-1.17782">
        <ele>56.8</ele>
        <time>2020-01-26T09:49:30Z</time>
      </trkpt>
      <trkpt lat="45.78827" lon="-1.17777">
        <ele>57.2</ele>
        <time>2020-01-26T09:49:31Z</time>
      </trkpt>
      <trkpt lat="45.78827" lon="-1.17773">
        <ele>57.8</ele>
        <time>2020-01-26T09:49:32Z</time>
      </trkpt>
      <trkpt lat="45.78828" lon="-1.17769">
        <ele>58</ele>
        <time>2020-01-26T09:49:33Z</time>
      </trkpt>
      <trkpt lat="45.7883" lon="-1.17766">
        <ele>58.6</ele>
        <time>2020-01-26T09:49:34Z</time>
      </trkpt>
      <trkpt lat="45.78831" lon="-1.17762">
        <ele>58.6</ele>
        <time>2020-01-26T09:49:35Z</time>
      </trkpt>
      <trkpt lat="45.78832" lon="-1.17756">
        <ele>59</ele>
        <time>2020-01-26T09:49:36Z</time>
      </trkpt>
      <trkpt lat="45.78834" lon="-1.17749">
        <ele>59.6</ele>
        <time>2020-01-26T09:49:37Z</time>
      </trkpt>
      <trkpt lat="45.78836" lon="-1.17744">
        <ele>60.2</ele>
        <time>2020-01-26T09:49:38Z</time>
      </trkpt>
      <trkpt lat="45.78838" lon="-1.17739">
        <ele>60.8</ele>
        <time>2020-01-26T09:49:39Z</time>
      </trkpt>
      <trkpt lat="45.78841" lon="-1.17732">
        <ele>61.6</ele>
        <time>2020-01-26T09:49:40Z</time>
      </trkpt>
      <trkpt lat="45.78841" lon="-1.17726">
        <ele>62.4</ele>
        <time>2020-01-26T09:49:41Z</time>
      </trkpt>
      <trkpt lat="45.78843" lon="-1.17721">
        <ele>63.2</ele>
        <time>2020-01-26T09:49:42Z</time>
      </trkpt>
      <trkpt lat="45.78844" lon="-1.17716">
        <ele>64.2</ele>
        <time>2020-01-26T09:49:43Z</time>
      </trkpt>
      <trkpt lat="45.78844" lon="-1.17713">
        <ele>64.6</ele>
        <time>2020-01-26T09:49:44Z</time>
      </trkpt>
      <trkpt lat="45.78846" lon="-1.17709">
        <ele>65</ele>
        <time>2020-01-26T09:49:45Z</time>
      </trkpt>
      <trkpt lat="45.78849" lon="-1.17704">
        <ele>64.8</ele>
        <time>2020-01-26T09:49:46Z</time>
      </trkpt>
      <trkpt lat="45.78849" lon="-1.17697">
        <ele>64.8</ele>
        <time>2020-01-26T09:49:47Z</time>
      </trkpt>
      <trkpt lat="45.78853" lon="-1.17692">
        <ele>65.2</ele>
        <time>2020-01-26T09:49:48Z</time>
      </trkpt>
      <trkpt lat="45.78857" lon="-1.17689">
        <ele>65.2</ele>
        <time>2020-01-26T09:49:49Z</time>
      </trkpt>
      <trkpt lat="45.78859" lon="-1.17684">
        <ele>65</ele>
        <time>2020-01-26T09:49:50Z</time>
      </trkpt>
      <trkpt lat="45.78862" lon="-1.1768">
        <ele>64.2</ele>
        <time>2020-01-26T09:49:51Z</time>
      </trkpt>
      <trkpt lat="45.78864" lon="-1.17677">
        <ele>63.4</ele>
        <time>2020-01-26T09:49:52Z</time>
      </trkpt>
      <trkpt lat="45.78865" lon="-1.17671">
        <ele>62.2</ele>
        <time>2020-01-26T09:49:53Z</time>
      </trkpt>
      <trkpt lat="45.78867" lon="-1.17668">
        <ele>61.4</ele>
        <time>2020-01-26T09:49:54Z</time>
      </trkpt>
      <trkpt lat="45.78868" lon="-1.17664">
        <ele>60.8</ele>
        <time>2020-01-26T09:49:55Z</time>
      </trkpt>
      <trkpt lat="45.78869" lon="-1.17658">
        <ele>60.4</ele>
        <time>2020-01-26T09:49:56Z</time>
      </trkpt>
      <trkpt lat="45.7887" lon="-1.17653">
        <ele>60</ele>
        <time>2020-01-26T09:49:57Z</time>
      </trkpt>
      <trkpt lat="45.7887" lon="-1.17649">
        <ele>60</ele>
        <time>2020-01-26T09:49:58Z</time>
      </trkpt>
      <trkpt lat="45.78871" lon="-1.17644">
        <ele>60.4</ele>
        <time>2020-01-26T09:49:59Z</time>
      </trkpt>
      <trkpt lat="45.78872" lon="-1.17639">
        <ele>60.8</ele>
        <time>2020-01-26T09:50:00Z</time>
      </trkpt>
      <trkpt lat="45.78874" lon="-1.17634">
        <ele>61.2</ele>
        <time>2020-01-26T09:50:01Z</time>
      </trkpt>
      <trkpt lat="45.78876" lon="-1.17629">
        <ele>61.4</ele>
        <time>2020-01-26T09:50:02Z</time>
      </trkpt>
      <trkpt lat="45.78878" lon="-1.17625">
        <ele>61.6</ele>
        <time>2020-01-26T09:50:03Z</time>
      </trkpt>
      <trkpt lat="45.7888" lon="-1.1762">
        <ele>61.4</ele>
        <time>2020-01-26T09:50:04Z</time>
      </trkpt>
      <trkpt lat="45.78882" lon="-1.17616">
        <ele>60.8</ele>
        <time>2020-01-26T09:50:05Z</time>
      </trkpt>
      <trkpt lat="45.78885" lon="-1.17613">
        <ele>60.4</ele>
        <time>2020-01-26T09:50:06Z</time>
      </trkpt>
      <trkpt lat="45.78887" lon="-1.17609">
        <ele>60.2</ele>
        <time>2020-01-26T09:50:07Z</time>
      </trkpt>
      <trkpt lat="45.78888" lon="-1.17607">
        <ele>58.8</ele>
        <time>2020-01-26T09:50:08Z</time>
      </trkpt>
      <trkpt lat="45.78889" lon="-1.17601">
        <ele>57.6</ele>
        <time>2020-01-26T09:50:09Z</time>
      </trkpt>
      <trkpt lat="45.7889" lon="-1.17597">
        <ele>56.2</ele>
        <time>2020-01-26T09:50:10Z</time>
      </trkpt>
      <trkpt lat="45.78892" lon="-1.17592">
        <ele>55.2</ele>
        <time>2020-01-26T09:50:11Z</time>
      </trkpt>
      <trkpt lat="45.78895" lon="-1.17587">
        <ele>54.4</ele>
        <time>2020-01-26T09:50:12Z</time>
      </trkpt>
      <trkpt lat="45.78897" lon="-1.17581">
        <ele>54</ele>
        <time>2020-01-26T09:50:13Z</time>
      </trkpt>
      <trkpt lat="45.78899" lon="-1.17574">
        <ele>53.8</ele>
        <time>2020-01-26T09:50:14Z</time>
      </trkpt>
      <trkpt lat="45.78902" lon="-1.17567">
        <ele>53.6</ele>
        <time>2020-01-26T09:50:15Z</time>
      </trkpt>
      <trkpt lat="45.78904" lon="-1.1756">
        <ele>53.8</ele>
        <time>2020-01-26T09:50:16Z</time>
      </trkpt>
      <trkpt lat="45.78906" lon="-1.17551">
        <ele>54</ele>
        <time>2020-01-26T09:50:17Z</time>
      </trkpt>
      <trkpt lat="45.78908" lon="-1.17545">
        <ele>54</ele>
        <time>2020-01-26T09:50:18Z</time>
      </trkpt>
      <trkpt lat="45.78909" lon="-1.1754">
        <ele>53.8</ele>
        <time>2020-01-26T09:50:19Z</time>
      </trkpt>
      <trkpt lat="45.78911" lon="-1.17536">
        <ele>53.2</ele>
        <time>2020-01-26T09:50:20Z</time>
      </trkpt>
      <trkpt lat="45.78911" lon="-1.1753">
        <ele>53</ele>
        <time>2020-01-26T09:50:21Z</time>
      </trkpt>
      <trkpt lat="45.78912" lon="-1.17526">
        <ele>52.8</ele>
        <time>2020-01-26T09:50:22Z</time>
      </trkpt>
      <trkpt lat="45.78914" lon="-1.1752">
        <ele>52.2</ele>
        <time>2020-01-26T09:50:23Z</time>
      </trkpt>
      <trkpt lat="45.78917" lon="-1.17515">
        <ele>51.4</ele>
        <time>2020-01-26T09:50:24Z</time>
      </trkpt>
      <trkpt lat="45.7892" lon="-1.17511">
        <ele>50.2</ele>
        <time>2020-01-26T09:50:25Z</time>
      </trkpt>
      <trkpt lat="45.78923" lon="-1.17506">
        <ele>49.2</ele>
        <time>2020-01-26T09:50:26Z</time>
      </trkpt>
      <trkpt lat="45.78926" lon="-1.175">
        <ele>48.4</ele>
        <time>2020-01-26T09:50:27Z</time>
      </trkpt>
      <trkpt lat="45.78928" lon="-1.17491">
        <ele>48</ele>
        <time>2020-01-26T09:50:28Z</time>
      </trkpt>
      <trkpt lat="45.78931" lon="-1.17485">
        <ele>48</ele>
        <time>2020-01-26T09:50:29Z</time>
      </trkpt>
      <trkpt lat="45.78934" lon="-1.17478">
        <ele>48.4</ele>
        <time>2020-01-26T09:50:30Z</time>
      </trkpt>
      <trkpt lat="45.78937" lon="-1.17473">
        <ele>49</ele>
        <time>2020-01-26T09:50:31Z</time>
      </trkpt>
      <trkpt lat="45.78938" lon="-1.17467">
        <ele>49.6</ele>
        <time>2020-01-26T09:50:32Z</time>
      </trkpt>
      <trkpt lat="45.7894" lon="-1.17462">
        <ele>50.2</ele>
        <time>2020-01-26T09:50:33Z</time>
      </trkpt>
      <trkpt lat="45.78942" lon="-1.17456">
        <ele>50.6</ele>
        <time>2020-01-26T09:50:34Z</time>
      </trkpt>
      <trkpt lat="45.78944" lon="-1.1745">
        <ele>51.2</ele>
        <time>2020-01-26T09:50:35Z</time>
      </trkpt>
      <trkpt lat="45.78943" lon="-1.17443">
        <ele>51.8</ele>
        <time>2020-01-26T09:50:36Z</time>
      </trkpt>
      <trkpt lat="45.78944" lon="-1.17437">
        <ele>52.6</ele>
        <time>2020-01-26T09:50:37Z</time>
      </trkpt>
      <trkpt lat="45.78947" lon="-1.17434">
        <ele>52.8</ele>
        <time>2020-01-26T09:50:38Z</time>
      </trkpt>
      <trkpt lat="45.78948" lon="-1.17427">
        <ele>53.2</ele>
        <time>2020-01-26T09:50:39Z</time>
      </trkpt>
      <trkpt lat="45.78951" lon="-1.17421">
        <ele>53.6</ele>
        <time>2020-01-26T09:50:40Z</time>
      </trkpt>
      <trkpt lat="45.78954" lon="-1.17417">
        <ele>54.2</ele>
        <time>2020-01-26T09:50:41Z</time>
      </trkpt>
      <trkpt lat="45.78955" lon="-1.17411">
        <ele>55.2</ele>
        <time>2020-01-26T09:50:42Z</time>
      </trkpt>
      <trkpt lat="45.78957" lon="-1.17406">
        <ele>56</ele>
        <time>2020-01-26T09:50:43Z</time>
      </trkpt>
      <trkpt lat="45.7896" lon="-1.17403">
        <ele>56.4</ele>
        <time>2020-01-26T09:50:44Z</time>
      </trkpt>
      <trkpt lat="45.78962" lon="-1.17399">
        <ele>57.2</ele>
        <time>2020-01-26T09:50:45Z</time>
      </trkpt>
      <trkpt lat="45.78964" lon="-1.17393">
        <ele>57.8</ele>
        <time>2020-01-26T09:50:46Z</time>
      </trkpt>
      <trkpt lat="45.78967" lon="-1.17389">
        <ele>58.6</ele>
        <time>2020-01-26T09:50:47Z</time>
      </trkpt>
      <trkpt lat="45.7897" lon="-1.17388">
        <ele>59</ele>
        <time>2020-01-26T09:50:48Z</time>
      </trkpt>
      <trkpt lat="45.78971" lon="-1.17384">
        <ele>59</ele>
        <time>2020-01-26T09:50:49Z</time>
      </trkpt>
      <trkpt lat="45.78971" lon="-1.17379">
        <ele>59</ele>
        <time>2020-01-26T09:50:50Z</time>
      </trkpt>
      <trkpt lat="45.7897" lon="-1.17374">
        <ele>58.8</ele>
        <time>2020-01-26T09:50:51Z</time>
      </trkpt>
      <trkpt lat="45.7897" lon="-1.17368">
        <ele>58.6</ele>
        <time>2020-01-26T09:50:52Z</time>
      </trkpt>
      <trkpt lat="45.78971" lon="-1.17363">
        <ele>58.4</ele>
        <time>2020-01-26T09:50:53Z</time>
      </trkpt>
      <trkpt lat="45.78973" lon="-1.17356">
        <ele>58.8</ele>
        <time>2020-01-26T09:50:54Z</time>
      </trkpt>
      <trkpt lat="45.78975" lon="-1.17349">
        <ele>59.6</ele>
        <time>2020-01-26T09:50:55Z</time>
      </trkpt>
      <trkpt lat="45.78976" lon="-1.17342">
        <ele>60.2</ele>
        <time>2020-01-26T09:50:56Z</time>
      </trkpt>
      <trkpt lat="45.78978" lon="-1.17336">
        <ele>61</ele>
        <time>2020-01-26T09:50:57Z</time>
      </trkpt>
      <trkpt lat="45.78981" lon="-1.17331">
        <ele>61.4</ele>
        <time>2020-01-26T09:50:58Z</time>
      </trkpt>
      <trkpt lat="45.78983" lon="-1.17327">
        <ele>61.8</ele>
        <time>2020-01-26T09:50:59Z</time>
      </trkpt>
      <trkpt lat="45.78985" lon="-1.17322">
        <ele>61.8</ele>
        <time>2020-01-26T09:51:00Z</time>
      </trkpt>
      <trkpt lat="45.78987" lon="-1.17317">
        <ele>61.4</ele>
        <time>2020-01-26T09:51:01Z</time>
      </trkpt>
      <trkpt lat="45.78989" lon="-1.17311">
        <ele>61</ele>
        <time>2020-01-26T09:51:02Z</time>
      </trkpt>
      <trkpt lat="45.7899" lon="-1.17304">
        <ele>61</ele>
        <time>2020-01-26T09:51:03Z</time>
      </trkpt>
      <trkpt lat="45.7899" lon="-1.17298">
        <ele>60.4</ele>
        <time>2020-01-26T09:51:04Z</time>
      </trkpt>
      <trkpt lat="45.78991" lon="-1.17292">
        <ele>59.8</ele>
        <time>2020-01-26T09:51:05Z</time>
      </trkpt>
      <trkpt lat="45.78995" lon="-1.17285">
        <ele>59.6</ele>
        <time>2020-01-26T09:51:06Z</time>
      </trkpt>
      <trkpt lat="45.78997" lon="-1.17278">
        <ele>59.6</ele>
        <time>2020-01-26T09:51:07Z</time>
      </trkpt>
      <trkpt lat="45.79" lon="-1.17271">
        <ele>59.6</ele>
        <time>2020-01-26T09:51:08Z</time>
      </trkpt>
      <trkpt lat="45.79002" lon="-1.17264">
        <ele>60</ele>
        <time>2020-01-26T09:51:09Z</time>
      </trkpt>
      <trkpt lat="45.79004" lon="-1.17258">
        <ele>60.2</ele>
        <time>2020-01-26T09:51:10Z</time>
      </trkpt>
      <trkpt lat="45.79005" lon="-1.17252">
        <ele>60.2</ele>
        <time>2020-01-26T09:51:11Z</time>
      </trkpt>
      <trkpt lat="45.79008" lon="-1.17246">
        <ele>60.2</ele>
        <time>2020-01-26T09:51:12Z</time>
      </trkpt>
      <trkpt lat="45.7901" lon="-1.1724">
        <ele>59.8</ele>
        <time>2020-01-26T09:51:13Z</time>
      </trkpt>
      <trkpt lat="45.79012" lon="-1.17234">
        <ele>59.6</ele>
        <time>2020-01-26T09:51:14Z</time>
      </trkpt>
      <trkpt lat="45.79014" lon="-1.17228">
        <ele>59.2</ele>
        <time>2020-01-26T09:51:15Z</time>
      </trkpt>
      <trkpt lat="45.79016" lon="-1.17223">
        <ele>59.2</ele>
        <time>2020-01-26T09:51:16Z</time>
      </trkpt>
      <trkpt lat="45.79018" lon="-1.17216">
        <ele>58.8</ele>
        <time>2020-01-26T09:51:17Z</time>
      </trkpt>
      <trkpt lat="45.7902" lon="-1.1721">
        <ele>58.6</ele>
        <time>2020-01-26T09:51:18Z</time>
      </trkpt>
      <trkpt lat="45.79021" lon="-1.17202">
        <ele>58.4</ele>
        <time>2020-01-26T09:51:19Z</time>
      </trkpt>
      <trkpt lat="45.79022" lon="-1.17195">
        <ele>58</ele>
        <time>2020-01-26T09:51:20Z</time>
      </trkpt>
      <trkpt lat="45.79024" lon="-1.17189">
        <ele>57.2</ele>
        <time>2020-01-26T09:51:21Z</time>
      </trkpt>
      <trkpt lat="45.79025" lon="-1.17181">
        <ele>56.8</ele>
        <time>2020-01-26T09:51:22Z</time>
      </trkpt>
      <trkpt lat="45.79028" lon="-1.17175">
        <ele>56.6</ele>
        <time>2020-01-26T09:51:23Z</time>
      </trkpt>
      <trkpt lat="45.7903" lon="-1.17169">
        <ele>56.4</ele>
        <time>2020-01-26T09:51:24Z</time>
      </trkpt>
      <trkpt lat="45.79033" lon="-1.17164">
        <ele>55.8</ele>
        <time>2020-01-26T09:51:25Z</time>
      </trkpt>
      <trkpt lat="45.79036" lon="-1.17159">
        <ele>55</ele>
        <time>2020-01-26T09:51:26Z</time>
      </trkpt>
      <trkpt lat="45.79038" lon="-1.17154">
        <ele>54.2</ele>
        <time>2020-01-26T09:51:27Z</time>
      </trkpt>
      <trkpt lat="45.79041" lon="-1.17147">
        <ele>54</ele>
        <time>2020-01-26T09:51:28Z</time>
      </trkpt>
      <trkpt lat="45.79044" lon="-1.17142">
        <ele>53.8</ele>
        <time>2020-01-26T09:51:29Z</time>
      </trkpt>
      <trkpt lat="45.79045" lon="-1.17134">
        <ele>53.6</ele>
        <time>2020-01-26T09:51:30Z</time>
      </trkpt>
      <trkpt lat="45.79047" lon="-1.17128">
        <ele>53.6</ele>
        <time>2020-01-26T09:51:31Z</time>
      </trkpt>
      <trkpt lat="45.7905" lon="-1.17119">
        <ele>53.4</ele>
        <time>2020-01-26T09:51:32Z</time>
      </trkpt>
      <trkpt lat="45.79054" lon="-1.17113">
        <ele>53.4</ele>
        <time>2020-01-26T09:51:33Z</time>
      </trkpt>
      <trkpt lat="45.79057" lon="-1.17107">
        <ele>53.8</ele>
        <time>2020-01-26T09:51:34Z</time>
      </trkpt>
      <trkpt lat="45.7906" lon="-1.17102">
        <ele>54.4</ele>
        <time>2020-01-26T09:51:35Z</time>
      </trkpt>
      <trkpt lat="45.79063" lon="-1.17097">
        <ele>55</ele>
        <time>2020-01-26T09:51:36Z</time>
      </trkpt>
      <trkpt lat="45.79065" lon="-1.17093">
        <ele>55.8</ele>
        <time>2020-01-26T09:51:37Z</time>
      </trkpt>
      <trkpt lat="45.79065" lon="-1.17087">
        <ele>56.4</ele>
        <time>2020-01-26T09:51:38Z</time>
      </trkpt>
      <trkpt lat="45.79066" lon="-1.1708">
        <ele>56.8</ele>
        <time>2020-01-26T09:51:39Z</time>
      </trkpt>
      <trkpt lat="45.79068" lon="-1.17073">
        <ele>57</ele>
        <time>2020-01-26T09:51:40Z</time>
      </trkpt>
      <trkpt lat="45.79068" lon="-1.17064">
        <ele>57</ele>
        <time>2020-01-26T09:51:41Z</time>
      </trkpt>
      <trkpt lat="45.7907" lon="-1.17054">
        <ele>56.8</ele>
        <time>2020-01-26T09:51:42Z</time>
      </trkpt>
      <trkpt lat="45.79071" lon="-1.17044">
        <ele>56.8</ele>
        <time>2020-01-26T09:51:43Z</time>
      </trkpt>
      <trkpt lat="45.79072" lon="-1.17039">
        <ele>56.8</ele>
        <time>2020-01-26T09:51:44Z</time>
      </trkpt>
      <trkpt lat="45.79073" lon="-1.17034">
        <ele>56.6</ele>
        <time>2020-01-26T09:51:45Z</time>
      </trkpt>
      <trkpt lat="45.79082" lon="-1.1703">
        <ele>56.6</ele>
        <time>2020-01-26T09:51:46Z</time>
      </trkpt>
      <trkpt lat="45.79086" lon="-1.17022">
        <ele>56.6</ele>
        <time>2020-01-26T09:51:47Z</time>
      </trkpt>
      <trkpt lat="45.79089" lon="-1.17015">
        <ele>56.8</ele>
        <time>2020-01-26T09:51:48Z</time>
      </trkpt>
      <trkpt lat="45.79093" lon="-1.17008">
        <ele>56.8</ele>
        <time>2020-01-26T09:51:49Z</time>
      </trkpt>
      <trkpt lat="45.79096" lon="-1.17">
        <ele>56.8</ele>
        <time>2020-01-26T09:51:50Z</time>
      </trkpt>
      <trkpt lat="45.79099" lon="-1.16993">
        <ele>56.6</ele>
        <time>2020-01-26T09:51:51Z</time>
      </trkpt>
      <trkpt lat="45.79102" lon="-1.16988">
        <ele>56.4</ele>
        <time>2020-01-26T09:51:52Z</time>
      </trkpt>
      <trkpt lat="45.79103" lon="-1.16983">
        <ele>56</ele>
        <time>2020-01-26T09:51:53Z</time>
      </trkpt>
      <trkpt lat="45.79103" lon="-1.16977">
        <ele>55.6</ele>
        <time>2020-01-26T09:51:54Z</time>
      </trkpt>
      <trkpt lat="45.79105" lon="-1.16971">
        <ele>55.4</ele>
        <time>2020-01-26T09:51:55Z</time>
      </trkpt>
      <trkpt lat="45.79108" lon="-1.16967">
        <ele>55.6</ele>
        <time>2020-01-26T09:51:56Z</time>
      </trkpt>
      <trkpt lat="45.79111" lon="-1.16959">
        <ele>55.4</ele>
        <time>2020-01-26T09:51:57Z</time>
      </trkpt>
      <trkpt lat="45.79112" lon="-1.16953">
        <ele>55.8</ele>
        <time>2020-01-26T09:51:58Z</time>
      </trkpt>
      <trkpt lat="45.79111" lon="-1.16947">
        <ele>56.4</ele>
        <time>2020-01-26T09:51:59Z</time>
      </trkpt>
      <trkpt lat="45.79113" lon="-1.1694">
        <ele>56.4</ele>
        <time>2020-01-26T09:52:00Z</time>
      </trkpt>
      <trkpt lat="45.79117" lon="-1.16934">
        <ele>57.2</ele>
        <time>2020-01-26T09:52:01Z</time>
      </trkpt>
      <trkpt lat="45.79118" lon="-1.16928">
        <ele>58</ele>
        <time>2020-01-26T09:52:02Z</time>
      </trkpt>
      <trkpt lat="45.7912" lon="-1.16923">
        <ele>58.4</ele>
        <time>2020-01-26T09:52:03Z</time>
      </trkpt>
      <trkpt lat="45.79123" lon="-1.1692">
        <ele>58</ele>
        <time>2020-01-26T09:52:04Z</time>
      </trkpt>
      <trkpt lat="45.79124" lon="-1.16916">
        <ele>57.8</ele>
        <time>2020-01-26T09:52:05Z</time>
      </trkpt>
      <trkpt lat="45.79122" lon="-1.16912">
        <ele>57</ele>
        <time>2020-01-26T09:52:06Z</time>
      </trkpt>
      <trkpt lat="45.79122" lon="-1.16909">
        <ele>56.2</ele>
        <time>2020-01-26T09:52:07Z</time>
      </trkpt>
      <trkpt lat="45.79123" lon="-1.16905">
        <ele>55.8</ele>
        <time>2020-01-26T09:52:08Z</time>
      </trkpt>
      <trkpt lat="45.79123" lon="-1.16902">
        <ele>55</ele>
        <time>2020-01-26T09:52:09Z</time>
      </trkpt>
      <trkpt lat="45.79129" lon="-1.16899">
        <ele>55</ele>
        <time>2020-01-26T09:52:10Z</time>
      </trkpt>
      <trkpt lat="45.79131" lon="-1.16894">
        <ele>54.2</ele>
        <time>2020-01-26T09:52:11Z</time>
      </trkpt>
      <trkpt lat="45.79132" lon="-1.16889">
        <ele>53.6</ele>
        <time>2020-01-26T09:52:12Z</time>
      </trkpt>
      <trkpt lat="45.79132" lon="-1.16885">
        <ele>53.2</ele>
        <time>2020-01-26T09:52:13Z</time>
      </trkpt>
      <trkpt lat="45.79134" lon="-1.16884">
        <ele>52.4</ele>
        <time>2020-01-26T09:52:14Z</time>
      </trkpt>
      <trkpt lat="45.79135" lon="-1.16882">
        <ele>51.2</ele>
        <time>2020-01-26T09:52:15Z</time>
      </trkpt>
      <trkpt lat="45.79138" lon="-1.16877">
        <ele>49.8</ele>
        <time>2020-01-26T09:52:16Z</time>
      </trkpt>
      <trkpt lat="45.7914" lon="-1.16872">
        <ele>48.6</ele>
        <time>2020-01-26T09:52:17Z</time>
      </trkpt>
      <trkpt lat="45.79144" lon="-1.16865">
        <ele>48</ele>
        <time>2020-01-26T09:52:18Z</time>
      </trkpt>
      <trkpt lat="45.79146" lon="-1.16858">
        <ele>47</ele>
        <time>2020-01-26T09:52:19Z</time>
      </trkpt>
      <trkpt lat="45.7915" lon="-1.16851">
        <ele>46.6</ele>
        <time>2020-01-26T09:52:20Z</time>
      </trkpt>
      <trkpt lat="45.79152" lon="-1.16843">
        <ele>47</ele>
        <time>2020-01-26T09:52:21Z</time>
      </trkpt>
      <trkpt lat="45.79157" lon="-1.16838">
        <ele>47.4</ele>
        <time>2020-01-26T09:52:22Z</time>
      </trkpt>
      <trkpt lat="45.7916" lon="-1.16831">
        <ele>48.2</ele>
        <time>2020-01-26T09:52:23Z</time>
      </trkpt>
      <trkpt lat="45.79163" lon="-1.16824">
        <ele>49.2</ele>
        <time>2020-01-26T09:52:24Z</time>
      </trkpt>
      <trkpt lat="45.79164" lon="-1.16817">
        <ele>50.2</ele>
        <time>2020-01-26T09:52:25Z</time>
      </trkpt>
      <trkpt lat="45.79166" lon="-1.16811">
        <ele>51</ele>
        <time>2020-01-26T09:52:26Z</time>
      </trkpt>
      <trkpt lat="45.79169" lon="-1.16805">
        <ele>51.6</ele>
        <time>2020-01-26T09:52:27Z</time>
      </trkpt>
      <trkpt lat="45.79173" lon="-1.168">
        <ele>52</ele>
        <time>2020-01-26T09:52:28Z</time>
      </trkpt>
      <trkpt lat="45.79176" lon="-1.16794">
        <ele>52.2</ele>
        <time>2020-01-26T09:52:29Z</time>
      </trkpt>
      <trkpt lat="45.79176" lon="-1.16786">
        <ele>52.2</ele>
        <time>2020-01-26T09:52:30Z</time>
      </trkpt>
      <trkpt lat="45.79178" lon="-1.16779">
        <ele>52.4</ele>
        <time>2020-01-26T09:52:31Z</time>
      </trkpt>
      <trkpt lat="45.7918" lon="-1.16772">
        <ele>52.6</ele>
        <time>2020-01-26T09:52:32Z</time>
      </trkpt>
      <trkpt lat="45.79182" lon="-1.16764">
        <ele>52.6</ele>
        <time>2020-01-26T09:52:33Z</time>
      </trkpt>
      <trkpt lat="45.79186" lon="-1.16758">
        <ele>52.8</ele>
        <time>2020-01-26T09:52:34Z</time>
      </trkpt>
      <trkpt lat="45.79191" lon="-1.16753">
        <ele>52.8</ele>
        <time>2020-01-26T09:52:35Z</time>
      </trkpt>
      <trkpt lat="45.79196" lon="-1.16748">
        <ele>52.8</ele>
        <time>2020-01-26T09:52:36Z</time>
      </trkpt>
      <trkpt lat="45.792" lon="-1.16744">
        <ele>52.6</ele>
        <time>2020-01-26T09:52:37Z</time>
      </trkpt>
      <trkpt lat="45.79204" lon="-1.1674">
        <ele>52.4</ele>
        <time>2020-01-26T09:52:38Z</time>
      </trkpt>
      <trkpt lat="45.7921" lon="-1.16739">
        <ele>51.8</ele>
        <time>2020-01-26T09:52:39Z</time>
      </trkpt>
      <trkpt lat="45.79215" lon="-1.16737">
        <ele>51.6</ele>
        <time>2020-01-26T09:52:40Z</time>
      </trkpt>
      <trkpt lat="45.79221" lon="-1.16735">
        <ele>51.4</ele>
        <time>2020-01-26T09:52:41Z</time>
      </trkpt>
      <trkpt lat="45.79226" lon="-1.16734">
        <ele>51.2</ele>
        <time>2020-01-26T09:52:42Z</time>
      </trkpt>
      <trkpt lat="45.79229" lon="-1.16736">
        <ele>51</ele>
        <time>2020-01-26T09:52:43Z</time>
      </trkpt>
      <trkpt lat="45.79233" lon="-1.16737">
        <ele>51</ele>
        <time>2020-01-26T09:52:44Z</time>
      </trkpt>
      <trkpt lat="45.79237" lon="-1.16738">
        <ele>51</ele>
        <time>2020-01-26T09:52:45Z</time>
      </trkpt>
      <trkpt lat="45.79243" lon="-1.16741">
        <ele>51</ele>
        <time>2020-01-26T09:52:46Z</time>
      </trkpt>
      <trkpt lat="45.79247" lon="-1.16742">
        <ele>50.8</ele>
        <time>2020-01-26T09:52:47Z</time>
      </trkpt>
      <trkpt lat="45.79251" lon="-1.16746">
        <ele>50.4</ele>
        <time>2020-01-26T09:52:48Z</time>
      </trkpt>
      <trkpt lat="45.79255" lon="-1.16749">
        <ele>50.2</ele>
        <time>2020-01-26T09:52:49Z</time>
      </trkpt>
      <trkpt lat="45.79259" lon="-1.16749">
        <ele>50</ele>
        <time>2020-01-26T09:52:50Z</time>
      </trkpt>
      <trkpt lat="45.79263" lon="-1.16749">
        <ele>49.6</ele>
        <time>2020-01-26T09:52:51Z</time>
      </trkpt>
      <trkpt lat="45.79267" lon="-1.16747">
        <ele>49.6</ele>
        <time>2020-01-26T09:52:52Z</time>
      </trkpt>
      <trkpt lat="45.79269" lon="-1.16731">
        <ele>49.4</ele>
        <time>2020-01-26T09:52:53Z</time>
      </trkpt>
      <trkpt lat="45.79271" lon="-1.16724">
        <ele>49.2</ele>
        <time>2020-01-26T09:52:54Z</time>
      </trkpt>
      <trkpt lat="45.79271" lon="-1.16718">
        <ele>49</ele>
        <time>2020-01-26T09:52:55Z</time>
      </trkpt>
      <trkpt lat="45.79272" lon="-1.16712">
        <ele>48.4</ele>
        <time>2020-01-26T09:52:56Z</time>
      </trkpt>
      <trkpt lat="45.79273" lon="-1.16705">
        <ele>48.4</ele>
        <time>2020-01-26T09:52:57Z</time>
      </trkpt>
      <trkpt lat="45.79274" lon="-1.167">
        <ele>49.2</ele>
        <time>2020-01-26T09:52:58Z</time>
      </trkpt>
      <trkpt lat="45.79276" lon="-1.16695">
        <ele>50</ele>
        <time>2020-01-26T09:52:59Z</time>
      </trkpt>
      <trkpt lat="45.79278" lon="-1.16688">
        <ele>51</ele>
        <time>2020-01-26T09:53:00Z</time>
      </trkpt>
      <trkpt lat="45.79279" lon="-1.16682">
        <ele>51.8</ele>
        <time>2020-01-26T09:53:01Z</time>
      </trkpt>
      <trkpt lat="45.7928" lon="-1.16677">
        <ele>52.4</ele>
        <time>2020-01-26T09:53:02Z</time>
      </trkpt>
      <trkpt lat="45.79288" lon="-1.16673">
        <ele>53.2</ele>
        <time>2020-01-26T09:53:03Z</time>
      </trkpt>
      <trkpt lat="45.79292" lon="-1.16668">
        <ele>54</ele>
        <time>2020-01-26T09:53:04Z</time>
      </trkpt>
      <trkpt lat="45.79294" lon="-1.16665">
        <ele>54.4</ele>
        <time>2020-01-26T09:53:05Z</time>
      </trkpt>
      <trkpt lat="45.79298" lon="-1.16664">
        <ele>54.6</ele>
        <time>2020-01-26T09:53:06Z</time>
      </trkpt>
      <trkpt lat="45.79301" lon="-1.16662">
        <ele>54.8</ele>
        <time>2020-01-26T09:53:07Z</time>
      </trkpt>
      <trkpt lat="45.79303" lon="-1.16659">
        <ele>55.2</ele>
        <time>2020-01-26T09:53:08Z</time>
      </trkpt>
      <trkpt lat="45.79306" lon="-1.16654">
        <ele>55.2</ele>
        <time>2020-01-26T09:53:09Z</time>
      </trkpt>
      <trkpt lat="45.79308" lon="-1.16651">
        <ele>54.8</ele>
        <time>2020-01-26T09:53:10Z</time>
      </trkpt>
      <trkpt lat="45.7931" lon="-1.16648">
        <ele>54.4</ele>
        <time>2020-01-26T09:53:11Z</time>
      </trkpt>
      <trkpt lat="45.79311" lon="-1.16646">
        <ele>53.4</ele>
        <time>2020-01-26T09:53:12Z</time>
      </trkpt>
      <trkpt lat="45.79313" lon="-1.16642">
        <ele>52.8</ele>
        <time>2020-01-26T09:53:13Z</time>
      </trkpt>
      <trkpt lat="45.79314" lon="-1.1664">
        <ele>52.2</ele>
        <time>2020-01-26T09:53:14Z</time>
      </trkpt>
      <trkpt lat="45.79316" lon="-1.16638">
        <ele>51.4</ele>
        <time>2020-01-26T09:53:15Z</time>
      </trkpt>
      <trkpt lat="45.79318" lon="-1.16635">
        <ele>51</ele>
        <time>2020-01-26T09:53:16Z</time>
      </trkpt>
      <trkpt lat="45.7932" lon="-1.16632">
        <ele>50.8</ele>
        <time>2020-01-26T09:53:17Z</time>
      </trkpt>
      <trkpt lat="45.79322" lon="-1.16629">
        <ele>50.6</ele>
        <time>2020-01-26T09:53:18Z</time>
      </trkpt>
      <trkpt lat="45.79322" lon="-1.16624">
        <ele>50.4</ele>
        <time>2020-01-26T09:53:19Z</time>
      </trkpt>
      <trkpt lat="45.79324" lon="-1.16621">
        <ele>50.4</ele>
        <time>2020-01-26T09:53:20Z</time>
      </trkpt>
      <trkpt lat="45.79323" lon="-1.16617">
        <ele>50.8</ele>
        <time>2020-01-26T09:53:21Z</time>
      </trkpt>
      <trkpt lat="45.79323" lon="-1.16612">
        <ele>51.4</ele>
        <time>2020-01-26T09:53:22Z</time>
      </trkpt>
      <trkpt lat="45.79323" lon="-1.16608">
        <ele>51.6</ele>
        <time>2020-01-26T09:53:23Z</time>
      </trkpt>
      <trkpt lat="45.79321" lon="-1.16603">
        <ele>52.4</ele>
        <time>2020-01-26T09:53:24Z</time>
      </trkpt>
      <trkpt lat="45.79318" lon="-1.16601">
        <ele>53.4</ele>
        <time>2020-01-26T09:53:25Z</time>
      </trkpt>
      <trkpt lat="45.79317" lon="-1.166">
        <ele>54</ele>
        <time>2020-01-26T09:53:26Z</time>
      </trkpt>
      <trkpt lat="45.79314" lon="-1.16599">
        <ele>55.2</ele>
        <time>2020-01-26T09:53:27Z</time>
      </trkpt>
      <trkpt lat="45.79311" lon="-1.16598">
        <ele>56.2</ele>
        <time>2020-01-26T09:53:28Z</time>
      </trkpt>
      <trkpt lat="45.7931" lon="-1.16597">
        <ele>57</ele>
        <time>2020-01-26T09:53:29Z</time>
      </trkpt>
      <trkpt lat="45.79308" lon="-1.16597">
        <ele>57.4</ele>
        <time>2020-01-26T09:53:30Z</time>
      </trkpt>
      <trkpt lat="45.79305" lon="-1.16593">
        <ele>58</ele>
        <time>2020-01-26T09:53:31Z</time>
      </trkpt>
      <trkpt lat="45.79304" lon="-1.16589">
        <ele>58.6</ele>
        <time>2020-01-26T09:53:32Z</time>
      </trkpt>
      <trkpt lat="45.79303" lon="-1.16582">
        <ele>58.6</ele>
        <time>2020-01-26T09:53:33Z</time>
      </trkpt>
      <trkpt lat="45.79301" lon="-1.16575">
        <ele>58.8</ele>
        <time>2020-01-26T09:53:34Z</time>
      </trkpt>
      <trkpt lat="45.79301" lon="-1.16569">
        <ele>58.8</ele>
        <time>2020-01-26T09:53:35Z</time>
      </trkpt>
      <trkpt lat="45.79301" lon="-1.16564">
        <ele>58.8</ele>
        <time>2020-01-26T09:53:36Z</time>
      </trkpt>
      <trkpt lat="45.79305" lon="-1.1656">
        <ele>58.8</ele>
        <time>2020-01-26T09:53:37Z</time>
      </trkpt>
      <trkpt lat="45.79306" lon="-1.16557">
        <ele>59</ele>
        <time>2020-01-26T09:53:38Z</time>
      </trkpt>
      <trkpt lat="45.79309" lon="-1.16555">
        <ele>59</ele>
        <time>2020-01-26T09:53:39Z</time>
      </trkpt>
      <trkpt lat="45.79312" lon="-1.16552">
        <ele>58.8</ele>
        <time>2020-01-26T09:53:40Z</time>
      </trkpt>
      <trkpt lat="45.79309" lon="-1.16547">
        <ele>58.4</ele>
        <time>2020-01-26T09:53:41Z</time>
      </trkpt>
      <trkpt lat="45.79309" lon="-1.16543">
        <ele>58.8</ele>
        <time>2020-01-26T09:53:42Z</time>
      </trkpt>
      <trkpt lat="45.79311" lon="-1.1654">
        <ele>59.4</ele>
        <time>2020-01-26T09:53:43Z</time>
      </trkpt>
      <trkpt lat="45.79308" lon="-1.16536">
        <ele>59.6</ele>
        <time>2020-01-26T09:53:44Z</time>
      </trkpt>
      <trkpt lat="45.79306" lon="-1.16532">
        <ele>59.4</ele>
        <time>2020-01-26T09:53:45Z</time>
      </trkpt>
      <trkpt lat="45.79304" lon="-1.16529">
        <ele>59.4</ele>
        <time>2020-01-26T09:53:46Z</time>
      </trkpt>
      <trkpt lat="45.79302" lon="-1.16525">
        <ele>59.6</ele>
        <time>2020-01-26T09:53:47Z</time>
      </trkpt>
      <trkpt lat="45.79299" lon="-1.1652">
        <ele>59.2</ele>
        <time>2020-01-26T09:53:48Z</time>
      </trkpt>
      <trkpt lat="45.79295" lon="-1.16514">
        <ele>58.8</ele>
        <time>2020-01-26T09:53:49Z</time>
      </trkpt>
      <trkpt lat="45.79292" lon="-1.16507">
        <ele>58.8</ele>
        <time>2020-01-26T09:53:50Z</time>
      </trkpt>
      <trkpt lat="45.79289" lon="-1.165">
        <ele>58.6</ele>
        <time>2020-01-26T09:53:51Z</time>
      </trkpt>
      <trkpt lat="45.79291" lon="-1.16494">
        <ele>58.6</ele>
        <time>2020-01-26T09:53:52Z</time>
      </trkpt>
      <trkpt lat="45.79293" lon="-1.16486">
        <ele>58.6</ele>
        <time>2020-01-26T09:53:53Z</time>
      </trkpt>
      <trkpt lat="45.79295" lon="-1.16481">
        <ele>58.4</ele>
        <time>2020-01-26T09:53:54Z</time>
      </trkpt>
      <trkpt lat="45.79297" lon="-1.16474">
        <ele>58.2</ele>
        <time>2020-01-26T09:53:55Z</time>
      </trkpt>
      <trkpt lat="45.79299" lon="-1.16467">
        <ele>57.8</ele>
        <time>2020-01-26T09:53:56Z</time>
      </trkpt>
      <trkpt lat="45.793" lon="-1.16461">
        <ele>57.2</ele>
        <time>2020-01-26T09:53:57Z</time>
      </trkpt>
      <trkpt lat="45.79301" lon="-1.16454">
        <ele>56.8</ele>
        <time>2020-01-26T09:53:58Z</time>
      </trkpt>
      <trkpt lat="45.793" lon="-1.16447">
        <ele>57</ele>
        <time>2020-01-26T09:53:59Z</time>
      </trkpt>
      <trkpt lat="45.79298" lon="-1.16439">
        <ele>57.2</ele>
        <time>2020-01-26T09:54:00Z</time>
      </trkpt>
      <trkpt lat="45.79298" lon="-1.16432">
        <ele>57.2</ele>
        <time>2020-01-26T09:54:01Z</time>
      </trkpt>
      <trkpt lat="45.79297" lon="-1.16425">
        <ele>57.4</ele>
        <time>2020-01-26T09:54:02Z</time>
      </trkpt>
      <trkpt lat="45.79296" lon="-1.16418">
        <ele>57.6</ele>
        <time>2020-01-26T09:54:03Z</time>
      </trkpt>
      <trkpt lat="45.79293" lon="-1.16412">
        <ele>57.6</ele>
        <time>2020-01-26T09:54:04Z</time>
      </trkpt>
      <trkpt lat="45.79289" lon="-1.16409">
        <ele>57.8</ele>
        <time>2020-01-26T09:54:05Z</time>
      </trkpt>
      <trkpt lat="45.79285" lon="-1.16409">
        <ele>57.6</ele>
        <time>2020-01-26T09:54:06Z</time>
      </trkpt>
      <trkpt lat="45.7928" lon="-1.16409">
        <ele>57.2</ele>
        <time>2020-01-26T09:54:07Z</time>
      </trkpt>
      <trkpt lat="45.79276" lon="-1.16413">
        <ele>57.2</ele>
        <time>2020-01-26T09:54:08Z</time>
      </trkpt>
      <trkpt lat="45.79271" lon="-1.16415">
        <ele>57.2</ele>
        <time>2020-01-26T09:54:09Z</time>
      </trkpt>
      <trkpt lat="45.79266" lon="-1.16414">
        <ele>57.4</ele>
        <time>2020-01-26T09:54:10Z</time>
      </trkpt>
      <trkpt lat="45.79261" lon="-1.16415">
        <ele>57.4</ele>
        <time>2020-01-26T09:54:11Z</time>
      </trkpt>
      <trkpt lat="45.79257" lon="-1.16416">
        <ele>57.4</ele>
        <time>2020-01-26T09:54:12Z</time>
      </trkpt>
      <trkpt lat="45.79255" lon="-1.1642">
        <ele>57.2</ele>
        <time>2020-01-26T09:54:13Z</time>
      </trkpt>
      <trkpt lat="45.79256" lon="-1.16426">
        <ele>57.4</ele>
        <time>2020-01-26T09:54:14Z</time>
      </trkpt>
      <trkpt lat="45.79258" lon="-1.1643">
        <ele>57.6</ele>
        <time>2020-01-26T09:54:15Z</time>
      </trkpt>
      <trkpt lat="45.7926" lon="-1.16433">
        <ele>57.4</ele>
        <time>2020-01-26T09:54:16Z</time>
      </trkpt>
      <trkpt lat="45.79261" lon="-1.16436">
        <ele>57.2</ele>
        <time>2020-01-26T09:54:17Z</time>
      </trkpt>
      <trkpt lat="45.79263" lon="-1.16439">
        <ele>56.8</ele>
        <time>2020-01-26T09:54:18Z</time>
      </trkpt>
      <trkpt lat="45.79265" lon="-1.16442">
        <ele>56.4</ele>
        <time>2020-01-26T09:54:19Z</time>
      </trkpt>
      <trkpt lat="45.79268" lon="-1.16447">
        <ele>55.6</ele>
        <time>2020-01-26T09:54:20Z</time>
      </trkpt>
      <trkpt lat="45.79269" lon="-1.16453">
        <ele>54.6</ele>
        <time>2020-01-26T09:54:21Z</time>
      </trkpt>
      <trkpt lat="45.79268" lon="-1.16457">
        <ele>54.2</ele>
        <time>2020-01-26T09:54:22Z</time>
      </trkpt>
      <trkpt lat="45.79267" lon="-1.1646">
        <ele>53.8</ele>
        <time>2020-01-26T09:54:23Z</time>
      </trkpt>
      <trkpt lat="45.79267" lon="-1.16464">
        <ele>53</ele>
        <time>2020-01-26T09:54:24Z</time>
      </trkpt>
      <trkpt lat="45.79268" lon="-1.16468">
        <ele>52.6</ele>
        <time>2020-01-26T09:54:25Z</time>
      </trkpt>
      <trkpt lat="45.79266" lon="-1.16471">
        <ele>52.6</ele>
        <time>2020-01-26T09:54:26Z</time>
      </trkpt>
      <trkpt lat="45.79264" lon="-1.16473">
        <ele>52.8</ele>
        <time>2020-01-26T09:54:27Z</time>
      </trkpt>
      <trkpt lat="45.79261" lon="-1.16473">
        <ele>52.8</ele>
        <time>2020-01-26T09:54:28Z</time>
      </trkpt>
      <trkpt lat="45.79259" lon="-1.16475">
        <ele>52.8</ele>
        <time>2020-01-26T09:54:29Z</time>
      </trkpt>
      <trkpt lat="45.79258" lon="-1.16479">
        <ele>52.6</ele>
        <time>2020-01-26T09:54:30Z</time>
      </trkpt>
      <trkpt lat="45.79259" lon="-1.16483">
        <ele>52.4</ele>
        <time>2020-01-26T09:54:31Z</time>
      </trkpt>
      <trkpt lat="45.79259" lon="-1.16487">
        <ele>52.4</ele>
        <time>2020-01-26T09:54:32Z</time>
      </trkpt>
      <trkpt lat="45.79259" lon="-1.16492">
        <ele>51.8</ele>
        <time>2020-01-26T09:54:33Z</time>
      </trkpt>
      <trkpt lat="45.7926" lon="-1.16497">
        <ele>51.4</ele>
        <time>2020-01-26T09:54:34Z</time>
      </trkpt>
      <trkpt lat="45.79261" lon="-1.16499">
        <ele>51.4</ele>
        <time>2020-01-26T09:54:35Z</time>
      </trkpt>
      <trkpt lat="45.7926" lon="-1.16501">
        <ele>51.4</ele>
        <time>2020-01-26T09:54:36Z</time>
      </trkpt>
      <trkpt lat="45.79259" lon="-1.16504">
        <ele>50.8</ele>
        <time>2020-01-26T09:54:37Z</time>
      </trkpt>
      <trkpt lat="45.79257" lon="-1.16505">
        <ele>50.2</ele>
        <time>2020-01-26T09:54:38Z</time>
      </trkpt>
      <trkpt lat="45.79252" lon="-1.16504">
        <ele>49.8</ele>
        <time>2020-01-26T09:54:39Z</time>
      </trkpt>
      <trkpt lat="45.7925" lon="-1.16509">
        <ele>49.8</ele>
        <time>2020-01-26T09:54:40Z</time>
      </trkpt>
      <trkpt lat="45.7925" lon="-1.16513">
        <ele>49.8</ele>
        <time>2020-01-26T09:54:41Z</time>
      </trkpt>
      <trkpt lat="45.79249" lon="-1.16518">
        <ele>50</ele>
        <time>2020-01-26T09:54:42Z</time>
      </trkpt>
      <trkpt lat="45.79248" lon="-1.16523">
        <ele>50.4</ele>
        <time>2020-01-26T09:54:43Z</time>
      </trkpt>
      <trkpt lat="45.79247" lon="-1.16528">
        <ele>50.8</ele>
        <time>2020-01-26T09:54:44Z</time>
      </trkpt>
      <trkpt lat="45.79247" lon="-1.16534">
        <ele>50.8</ele>
        <time>2020-01-26T09:54:45Z</time>
      </trkpt>
      <trkpt lat="45.79243" lon="-1.16542">
        <ele>50.8</ele>
        <time>2020-01-26T09:54:46Z</time>
      </trkpt>
      <trkpt lat="45.7924" lon="-1.16549">
        <ele>51</ele>
        <time>2020-01-26T09:54:47Z</time>
      </trkpt>
      <trkpt lat="45.79237" lon="-1.16554">
        <ele>51</ele>
        <time>2020-01-26T09:54:48Z</time>
      </trkpt>
      <trkpt lat="45.79232" lon="-1.16557">
        <ele>51</ele>
        <time>2020-01-26T09:54:49Z</time>
      </trkpt>
      <trkpt lat="45.79227" lon="-1.16558">
        <ele>51</ele>
        <time>2020-01-26T09:54:50Z</time>
      </trkpt>
      <trkpt lat="45.79224" lon="-1.16561">
        <ele>51.2</ele>
        <time>2020-01-26T09:54:51Z</time>
      </trkpt>
      <trkpt lat="45.79222" lon="-1.16569">
        <ele>51.4</ele>
        <time>2020-01-26T09:54:52Z</time>
      </trkpt>
      <trkpt lat="45.79222" lon="-1.16576">
        <ele>51.6</ele>
        <time>2020-01-26T09:54:53Z</time>
      </trkpt>
      <trkpt lat="45.7922" lon="-1.16583">
        <ele>51.6</ele>
        <time>2020-01-26T09:54:54Z</time>
      </trkpt>
      <trkpt lat="45.79216" lon="-1.1659">
        <ele>52</ele>
        <time>2020-01-26T09:54:55Z</time>
      </trkpt>
      <trkpt lat="45.79212" lon="-1.16593">
        <ele>52.6</ele>
        <time>2020-01-26T09:54:56Z</time>
      </trkpt>
      <trkpt lat="45.79207" lon="-1.16595">
        <ele>53.2</ele>
        <time>2020-01-26T09:54:57Z</time>
      </trkpt>
      <trkpt lat="45.79203" lon="-1.16598">
        <ele>53.6</ele>
        <time>2020-01-26T09:54:58Z</time>
      </trkpt>
      <trkpt lat="45.79202" lon="-1.16602">
        <ele>54</ele>
        <time>2020-01-26T09:54:59Z</time>
      </trkpt>
      <trkpt lat="45.79201" lon="-1.16604">
        <ele>54.2</ele>
        <time>2020-01-26T09:55:00Z</time>
      </trkpt>
      <trkpt lat="45.79199" lon="-1.16607">
        <ele>54.4</ele>
        <time>2020-01-26T09:55:01Z</time>
      </trkpt>
      <trkpt lat="45.79199" lon="-1.1661">
        <ele>54.8</ele>
        <time>2020-01-26T09:55:02Z</time>
      </trkpt>
      <trkpt lat="45.79198" lon="-1.16614">
        <ele>55.4</ele>
        <time>2020-01-26T09:55:03Z</time>
      </trkpt>
      <trkpt lat="45.79197" lon="-1.16617">
        <ele>56</ele>
        <time>2020-01-26T09:55:04Z</time>
      </trkpt>
      <trkpt lat="45.79192" lon="-1.16616">
        <ele>56.2</ele>
        <time>2020-01-26T09:55:05Z</time>
      </trkpt>
      <trkpt lat="45.7919" lon="-1.16619">
        <ele>56.4</ele>
        <time>2020-01-26T09:55:06Z</time>
      </trkpt>
      <trkpt lat="45.79189" lon="-1.16623">
        <ele>56.4</ele>
        <time>2020-01-26T09:55:07Z</time>
      </trkpt>
      <trkpt lat="45.79186" lon="-1.16628">
        <ele>56.4</ele>
        <time>2020-01-26T09:55:08Z</time>
      </trkpt>
      <trkpt lat="45.79185" lon="-1.16633">
        <ele>56.4</ele>
        <time>2020-01-26T09:55:09Z</time>
      </trkpt>
      <trkpt lat="45.79185" lon="-1.16638">
        <ele>56.2</ele>
        <time>2020-01-26T09:55:10Z</time>
      </trkpt>
      <trkpt lat="45.79185" lon="-1.16644">
        <ele>56.2</ele>
        <time>2020-01-26T09:55:11Z</time>
      </trkpt>
      <trkpt lat="45.79186" lon="-1.16648">
        <ele>56.8</ele>
        <time>2020-01-26T09:55:12Z</time>
      </trkpt>
      <trkpt lat="45.79184" lon="-1.16652">
        <ele>57.2</ele>
        <time>2020-01-26T09:55:13Z</time>
      </trkpt>
      <trkpt lat="45.79183" lon="-1.16656">
        <ele>57.6</ele>
        <time>2020-01-26T09:55:14Z</time>
      </trkpt>
      <trkpt lat="45.79182" lon="-1.16661">
        <ele>57.8</ele>
        <time>2020-01-26T09:55:15Z</time>
      </trkpt>
      <trkpt lat="45.79182" lon="-1.16667">
        <ele>57.8</ele>
        <time>2020-01-26T09:55:16Z</time>
      </trkpt>
      <trkpt lat="45.79182" lon="-1.16672">
        <ele>57.6</ele>
        <time>2020-01-26T09:55:17Z</time>
      </trkpt>
      <trkpt lat="45.79181" lon="-1.16677">
        <ele>56.6</ele>
        <time>2020-01-26T09:55:18Z</time>
      </trkpt>
      <trkpt lat="45.79181" lon="-1.16682">
        <ele>56</ele>
        <time>2020-01-26T09:55:19Z</time>
      </trkpt>
      <trkpt lat="45.79179" lon="-1.16686">
        <ele>55.2</ele>
        <time>2020-01-26T09:55:20Z</time>
      </trkpt>
      <trkpt lat="45.79175" lon="-1.16688">
        <ele>54.4</ele>
        <time>2020-01-26T09:55:21Z</time>
      </trkpt>
      <trkpt lat="45.79169" lon="-1.16689">
        <ele>53.6</ele>
        <time>2020-01-26T09:55:22Z</time>
      </trkpt>
      <trkpt lat="45.79166" lon="-1.16691">
        <ele>53.4</ele>
        <time>2020-01-26T09:55:23Z</time>
      </trkpt>
      <trkpt lat="45.79163" lon="-1.16692">
        <ele>53.4</ele>
        <time>2020-01-26T09:55:24Z</time>
      </trkpt>
      <trkpt lat="45.7916" lon="-1.16693">
        <ele>53.2</ele>
        <time>2020-01-26T09:55:25Z</time>
      </trkpt>
      <trkpt lat="45.79158" lon="-1.16695">
        <ele>53</ele>
        <time>2020-01-26T09:55:26Z</time>
      </trkpt>
      <trkpt lat="45.79156" lon="-1.16698">
        <ele>52.6</ele>
        <time>2020-01-26T09:55:27Z</time>
      </trkpt>
      <trkpt lat="45.79155" lon="-1.16699">
        <ele>52.2</ele>
        <time>2020-01-26T09:55:28Z</time>
      </trkpt>
      <trkpt lat="45.79154" lon="-1.16701">
        <ele>51.6</ele>
        <time>2020-01-26T09:55:29Z</time>
      </trkpt>
      <trkpt lat="45.79153" lon="-1.16703">
        <ele>51</ele>
        <time>2020-01-26T09:55:30Z</time>
      </trkpt>
      <trkpt lat="45.79152" lon="-1.16704">
        <ele>50.6</ele>
        <time>2020-01-26T09:55:31Z</time>
      </trkpt>
      <trkpt lat="45.79152" lon="-1.16707">
        <ele>50.4</ele>
        <time>2020-01-26T09:55:32Z</time>
      </trkpt>
      <trkpt lat="45.7915" lon="-1.16707">
        <ele>49.8</ele>
        <time>2020-01-26T09:55:33Z</time>
      </trkpt>
      <trkpt lat="45.79149" lon="-1.1671">
        <ele>49.8</ele>
        <time>2020-01-26T09:55:34Z</time>
      </trkpt>
      <trkpt lat="45.79147" lon="-1.16712">
        <ele>50</ele>
        <time>2020-01-26T09:55:35Z</time>
      </trkpt>
      <trkpt lat="45.79147" lon="-1.16714">
        <ele>50.2</ele>
        <time>2020-01-26T09:55:36Z</time>
      </trkpt>
      <trkpt lat="45.79146" lon="-1.16714">
        <ele>50.4</ele>
        <time>2020-01-26T09:55:37Z</time>
      </trkpt>
      <trkpt lat="45.79145" lon="-1.16717">
        <ele>50.6</ele>
        <time>2020-01-26T09:55:38Z</time>
      </trkpt>
      <trkpt lat="45.79145" lon="-1.16719">
        <ele>50.6</ele>
        <time>2020-01-26T09:55:39Z</time>
      </trkpt>
      <trkpt lat="45.79144" lon="-1.16721">
        <ele>50.8</ele>
        <time>2020-01-26T09:55:40Z</time>
      </trkpt>
      <trkpt lat="45.79142" lon="-1.16721">
        <ele>50.8</ele>
        <time>2020-01-26T09:55:41Z</time>
      </trkpt>
      <trkpt lat="45.79141" lon="-1.16723">
        <ele>50.8</ele>
        <time>2020-01-26T09:55:42Z</time>
      </trkpt>
      <trkpt lat="45.7914" lon="-1.16724">
        <ele>50.6</ele>
        <time>2020-01-26T09:55:43Z</time>
      </trkpt>
      <trkpt lat="45.7914" lon="-1.16726">
        <ele>50.2</ele>
        <time>2020-01-26T09:55:44Z</time>
      </trkpt>
      <trkpt lat="45.79139" lon="-1.16728">
        <ele>50.6</ele>
        <time>2020-01-26T09:55:45Z</time>
      </trkpt>
      <trkpt lat="45.79138" lon="-1.16729">
        <ele>50.4</ele>
        <time>2020-01-26T09:55:46Z</time>
      </trkpt>
      <trkpt lat="45.79137" lon="-1.16731">
        <ele>50.4</ele>
        <time>2020-01-26T09:55:47Z</time>
      </trkpt>
      <trkpt lat="45.79135" lon="-1.16731">
        <ele>50.2</ele>
        <time>2020-01-26T09:55:48Z</time>
      </trkpt>
      <trkpt lat="45.79131" lon="-1.16732">
        <ele>50.4</ele>
        <time>2020-01-26T09:55:49Z</time>
      </trkpt>
      <trkpt lat="45.79128" lon="-1.16733">
        <ele>50.8</ele>
        <time>2020-01-26T09:55:50Z</time>
      </trkpt>
      <trkpt lat="45.79124" lon="-1.16733">
        <ele>51.2</ele>
        <time>2020-01-26T09:55:51Z</time>
      </trkpt>
      <trkpt lat="45.7912" lon="-1.16733">
        <ele>51.8</ele>
        <time>2020-01-26T09:55:52Z</time>
      </trkpt>
      <trkpt lat="45.79117" lon="-1.16732">
        <ele>52.4</ele>
        <time>2020-01-26T09:55:53Z</time>
      </trkpt>
      <trkpt lat="45.79113" lon="-1.16732">
        <ele>52.8</ele>
        <time>2020-01-26T09:55:54Z</time>
      </trkpt>
      <trkpt lat="45.79109" lon="-1.16733">
        <ele>52.6</ele>
        <time>2020-01-26T09:55:55Z</time>
      </trkpt>
      <trkpt lat="45.79105" lon="-1.16734">
        <ele>52.2</ele>
        <time>2020-01-26T09:55:56Z</time>
      </trkpt>
      <trkpt lat="45.791" lon="-1.16737">
        <ele>52.2</ele>
        <time>2020-01-26T09:55:57Z</time>
      </trkpt>
      <trkpt lat="45.79096" lon="-1.16741">
        <ele>52.2</ele>
        <time>2020-01-26T09:55:58Z</time>
      </trkpt>
      <trkpt lat="45.79093" lon="-1.16746">
        <ele>52.2</ele>
        <time>2020-01-26T09:55:59Z</time>
      </trkpt>
      <trkpt lat="45.79094" lon="-1.16751">
        <ele>53</ele>
        <time>2020-01-26T09:56:00Z</time>
      </trkpt>
      <trkpt lat="45.79092" lon="-1.16756">
        <ele>54</ele>
        <time>2020-01-26T09:56:01Z</time>
      </trkpt>
      <trkpt lat="45.7909" lon="-1.16759">
        <ele>54.6</ele>
        <time>2020-01-26T09:56:02Z</time>
      </trkpt>
      <trkpt lat="45.79088" lon="-1.16766">
        <ele>55.8</ele>
        <time>2020-01-26T09:56:03Z</time>
      </trkpt>
      <trkpt lat="45.79087" lon="-1.16772">
        <ele>57.2</ele>
        <time>2020-01-26T09:56:04Z</time>
      </trkpt>
      <trkpt lat="45.79086" lon="-1.16778">
        <ele>58</ele>
        <time>2020-01-26T09:56:05Z</time>
      </trkpt>
      <trkpt lat="45.79084" lon="-1.16785">
        <ele>58.6</ele>
        <time>2020-01-26T09:56:06Z</time>
      </trkpt>
      <trkpt lat="45.79082" lon="-1.16789">
        <ele>59.2</ele>
        <time>2020-01-26T09:56:07Z</time>
      </trkpt>
      <trkpt lat="45.79082" lon="-1.16792">
        <ele>59.2</ele>
        <time>2020-01-26T09:56:08Z</time>
      </trkpt>
      <trkpt lat="45.79081" lon="-1.16797">
        <ele>59</ele>
        <time>2020-01-26T09:56:09Z</time>
      </trkpt>
      <trkpt lat="45.7908" lon="-1.16803">
        <ele>59</ele>
        <time>2020-01-26T09:56:10Z</time>
      </trkpt>
      <trkpt lat="45.79079" lon="-1.16808">
        <ele>59</ele>
        <time>2020-01-26T09:56:11Z</time>
      </trkpt>
      <trkpt lat="45.7908" lon="-1.16812">
        <ele>59.4</ele>
        <time>2020-01-26T09:56:12Z</time>
      </trkpt>
      <trkpt lat="45.79081" lon="-1.16818">
        <ele>59.8</ele>
        <time>2020-01-26T09:56:13Z</time>
      </trkpt>
      <trkpt lat="45.7908" lon="-1.16825">
        <ele>60</ele>
        <time>2020-01-26T09:56:14Z</time>
      </trkpt>
      <trkpt lat="45.79079" lon="-1.1683">
        <ele>60.2</ele>
        <time>2020-01-26T09:56:15Z</time>
      </trkpt>
      <trkpt lat="45.79078" lon="-1.16835">
        <ele>60.4</ele>
        <time>2020-01-26T09:56:16Z</time>
      </trkpt>
      <trkpt lat="45.79078" lon="-1.1684">
        <ele>60.4</ele>
        <time>2020-01-26T09:56:17Z</time>
      </trkpt>
      <trkpt lat="45.79079" lon="-1.16844">
        <ele>60</ele>
        <time>2020-01-26T09:56:18Z</time>
      </trkpt>
      <trkpt lat="45.79078" lon="-1.16849">
        <ele>59.8</ele>
        <time>2020-01-26T09:56:19Z</time>
      </trkpt>
      <trkpt lat="45.79076" lon="-1.16854">
        <ele>59.6</ele>
        <time>2020-01-26T09:56:20Z</time>
      </trkpt>
      <trkpt lat="45.79075" lon="-1.16861">
        <ele>59.4</ele>
        <time>2020-01-26T09:56:21Z</time>
      </trkpt>
      <trkpt lat="45.79074" lon="-1.16867">
        <ele>59</ele>
        <time>2020-01-26T09:56:22Z</time>
      </trkpt>
      <trkpt lat="45.79073" lon="-1.16872">
        <ele>58.8</ele>
        <time>2020-01-26T09:56:23Z</time>
      </trkpt>
      <trkpt lat="45.79074" lon="-1.16876">
        <ele>58.6</ele>
        <time>2020-01-26T09:56:24Z</time>
      </trkpt>
      <trkpt lat="45.79077" lon="-1.16879">
        <ele>58.8</ele>
        <time>2020-01-26T09:56:25Z</time>
      </trkpt>
      <trkpt lat="45.79078" lon="-1.16882">
        <ele>59.2</ele>
        <time>2020-01-26T09:56:26Z</time>
      </trkpt>
      <trkpt lat="45.79078" lon="-1.16884">
        <ele>59.8</ele>
        <time>2020-01-26T09:56:27Z</time>
      </trkpt>
      <trkpt lat="45.79079" lon="-1.16886">
        <ele>60.4</ele>
        <time>2020-01-26T09:56:28Z</time>
      </trkpt>
      <trkpt lat="45.79081" lon="-1.16888">
        <ele>60.8</ele>
        <time>2020-01-26T09:56:29Z</time>
      </trkpt>
      <trkpt lat="45.79082" lon="-1.16889">
        <ele>61</ele>
        <time>2020-01-26T09:56:30Z</time>
      </trkpt>
      <trkpt lat="45.79082" lon="-1.1689">
        <ele>60.4</ele>
        <time>2020-01-26T09:56:31Z</time>
      </trkpt>
      <trkpt lat="45.79083" lon="-1.16891">
        <ele>59.8</ele>
        <time>2020-01-26T09:56:32Z</time>
      </trkpt>
      <trkpt lat="45.79083" lon="-1.16892">
        <ele>59.2</ele>
        <time>2020-01-26T09:56:33Z</time>
      </trkpt>
      <trkpt lat="45.7908" lon="-1.16896">
        <ele>58.6</ele>
        <time>2020-01-26T09:56:34Z</time>
      </trkpt>
      <trkpt lat="45.79078" lon="-1.16898">
        <ele>58</ele>
        <time>2020-01-26T09:56:35Z</time>
      </trkpt>
      <trkpt lat="45.79076" lon="-1.16903">
        <ele>57.4</ele>
        <time>2020-01-26T09:56:36Z</time>
      </trkpt>
      <trkpt lat="45.79075" lon="-1.16905">
        <ele>57.4</ele>
        <time>2020-01-26T09:56:37Z</time>
      </trkpt>
      <trkpt lat="45.79074" lon="-1.16908">
        <ele>57.2</ele>
        <time>2020-01-26T09:56:38Z</time>
      </trkpt>
      <trkpt lat="45.79076" lon="-1.16914">
        <ele>57.2</ele>
        <time>2020-01-26T09:56:39Z</time>
      </trkpt>
      <trkpt lat="45.79076" lon="-1.16919">
        <ele>57.2</ele>
        <time>2020-01-26T09:56:40Z</time>
      </trkpt>
      <trkpt lat="45.79073" lon="-1.16924">
        <ele>56.6</ele>
        <time>2020-01-26T09:56:41Z</time>
      </trkpt>
      <trkpt lat="45.79071" lon="-1.16928">
        <ele>56</ele>
        <time>2020-01-26T09:56:42Z</time>
      </trkpt>
      <trkpt lat="45.79068" lon="-1.16934">
        <ele>55.4</ele>
        <time>2020-01-26T09:56:43Z</time>
      </trkpt>
      <trkpt lat="45.79067" lon="-1.1694">
        <ele>54.8</ele>
        <time>2020-01-26T09:56:44Z</time>
      </trkpt>
      <trkpt lat="45.79066" lon="-1.16946">
        <ele>54</ele>
        <time>2020-01-26T09:56:45Z</time>
      </trkpt>
      <trkpt lat="45.79065" lon="-1.16952">
        <ele>53.4</ele>
        <time>2020-01-26T09:56:46Z</time>
      </trkpt>
      <trkpt lat="45.79062" lon="-1.16958">
        <ele>52.6</ele>
        <time>2020-01-26T09:56:47Z</time>
      </trkpt>
      <trkpt lat="45.79062" lon="-1.16958">
        <ele>51.2</ele>
        <time>2020-01-26T09:56:48Z</time>
      </trkpt>
      <trkpt lat="45.7906" lon="-1.16959">
        <ele>49.8</ele>
        <time>2020-01-26T09:56:49Z</time>
      </trkpt>
      <trkpt lat="45.79056" lon="-1.16961">
        <ele>48.4</ele>
        <time>2020-01-26T09:56:50Z</time>
      </trkpt>
      <trkpt lat="45.79052" lon="-1.16962">
        <ele>47.8</ele>
        <time>2020-01-26T09:56:51Z</time>
      </trkpt>
      <trkpt lat="45.79048" lon="-1.16964">
        <ele>47.6</ele>
        <time>2020-01-26T09:56:52Z</time>
      </trkpt>
      <trkpt lat="45.79046" lon="-1.16965">
        <ele>47.8</ele>
        <time>2020-01-26T09:56:53Z</time>
      </trkpt>
      <trkpt lat="45.79045" lon="-1.16969">
        <ele>47.8</ele>
        <time>2020-01-26T09:56:54Z</time>
      </trkpt>
      <trkpt lat="45.79042" lon="-1.16972">
        <ele>48.4</ele>
        <time>2020-01-26T09:56:55Z</time>
      </trkpt>
      <trkpt lat="45.79039" lon="-1.16976">
        <ele>49</ele>
        <time>2020-01-26T09:56:56Z</time>
      </trkpt>
      <trkpt lat="45.79037" lon="-1.1698">
        <ele>49.6</ele>
        <time>2020-01-26T09:56:57Z</time>
      </trkpt>
      <trkpt lat="45.79037" lon="-1.16982">
        <ele>50.2</ele>
        <time>2020-01-26T09:56:58Z</time>
      </trkpt>
      <trkpt lat="45.79036" lon="-1.16986">
        <ele>51.2</ele>
        <time>2020-01-26T09:56:59Z</time>
      </trkpt>
      <trkpt lat="45.79036" lon="-1.1699">
        <ele>51.8</ele>
        <time>2020-01-26T09:57:00Z</time>
      </trkpt>
      <trkpt lat="45.79034" lon="-1.16993">
        <ele>52.4</ele>
        <time>2020-01-26T09:57:01Z</time>
      </trkpt>
      <trkpt lat="45.79034" lon="-1.16996">
        <ele>52.8</ele>
        <time>2020-01-26T09:57:02Z</time>
      </trkpt>
      <trkpt lat="45.79031" lon="-1.16999">
        <ele>53.4</ele>
        <time>2020-01-26T09:57:03Z</time>
      </trkpt>
      <trkpt lat="45.79028" lon="-1.17002">
        <ele>53.8</ele>
        <time>2020-01-26T09:57:04Z</time>
      </trkpt>
      <trkpt lat="45.79025" lon="-1.17004">
        <ele>54.4</ele>
        <time>2020-01-26T09:57:05Z</time>
      </trkpt>
      <trkpt lat="45.79021" lon="-1.17007">
        <ele>55</ele>
        <time>2020-01-26T09:57:06Z</time>
      </trkpt>
      <trkpt lat="45.79018" lon="-1.17011">
        <ele>55.8</ele>
        <time>2020-01-26T09:57:07Z</time>
      </trkpt>
      <trkpt lat="45.79015" lon="-1.17012">
        <ele>56.4</ele>
        <time>2020-01-26T09:57:08Z</time>
      </trkpt>
      <trkpt lat="45.79012" lon="-1.17013">
        <ele>57</ele>
        <time>2020-01-26T09:57:09Z</time>
      </trkpt>
      <trkpt lat="45.7901" lon="-1.17015">
        <ele>57.6</ele>
        <time>2020-01-26T09:57:10Z</time>
      </trkpt>
      <trkpt lat="45.79007" lon="-1.17016">
        <ele>57.8</ele>
        <time>2020-01-26T09:57:11Z</time>
      </trkpt>
      <trkpt lat="45.79005" lon="-1.17017">
        <ele>58.2</ele>
        <time>2020-01-26T09:57:12Z</time>
      </trkpt>
      <trkpt lat="45.79004" lon="-1.17021">
        <ele>58.6</ele>
        <time>2020-01-26T09:57:13Z</time>
      </trkpt>
      <trkpt lat="45.79002" lon="-1.17023">
        <ele>59</ele>
        <time>2020-01-26T09:57:14Z</time>
      </trkpt>
      <trkpt lat="45.79001" lon="-1.17026">
        <ele>59</ele>
        <time>2020-01-26T09:57:15Z</time>
      </trkpt>
      <trkpt lat="45.78998" lon="-1.17029">
        <ele>58.6</ele>
        <time>2020-01-26T09:57:16Z</time>
      </trkpt>
      <trkpt lat="45.78995" lon="-1.17032">
        <ele>58.2</ele>
        <time>2020-01-26T09:57:17Z</time>
      </trkpt>
      <trkpt lat="45.78992" lon="-1.17035">
        <ele>58.2</ele>
        <time>2020-01-26T09:57:18Z</time>
      </trkpt>
      <trkpt lat="45.7899" lon="-1.1704">
        <ele>58.2</ele>
        <time>2020-01-26T09:57:19Z</time>
      </trkpt>
      <trkpt lat="45.78988" lon="-1.17044">
        <ele>58.8</ele>
        <time>2020-01-26T09:57:20Z</time>
      </trkpt>
      <trkpt lat="45.78986" lon="-1.17047">
        <ele>59</ele>
        <time>2020-01-26T09:57:21Z</time>
      </trkpt>
      <trkpt lat="45.78984" lon="-1.17052">
        <ele>59</ele>
        <time>2020-01-26T09:57:22Z</time>
      </trkpt>
      <trkpt lat="45.78983" lon="-1.17054">
        <ele>59.2</ele>
        <time>2020-01-26T09:57:23Z</time>
      </trkpt>
      <trkpt lat="45.78981" lon="-1.17058">
        <ele>59.2</ele>
        <time>2020-01-26T09:57:24Z</time>
      </trkpt>
      <trkpt lat="45.78981" lon="-1.17062">
        <ele>58.8</ele>
        <time>2020-01-26T09:57:25Z</time>
      </trkpt>
      <trkpt lat="45.7898" lon="-1.17066">
        <ele>58.8</ele>
        <time>2020-01-26T09:57:26Z</time>
      </trkpt>
      <trkpt lat="45.7898" lon="-1.17071">
        <ele>58.6</ele>
        <time>2020-01-26T09:57:27Z</time>
      </trkpt>
      <trkpt lat="45.7898" lon="-1.17075">
        <ele>58.8</ele>
        <time>2020-01-26T09:57:28Z</time>
      </trkpt>
      <trkpt lat="45.7898" lon="-1.1708">
        <ele>58.8</ele>
        <time>2020-01-26T09:57:29Z</time>
      </trkpt>
      <trkpt lat="45.78982" lon="-1.17085">
        <ele>58</ele>
        <time>2020-01-26T09:57:30Z</time>
      </trkpt>
      <trkpt lat="45.78982" lon="-1.17091">
        <ele>57.6</ele>
        <time>2020-01-26T09:57:31Z</time>
      </trkpt>
      <trkpt lat="45.78981" lon="-1.17095">
        <ele>57</ele>
        <time>2020-01-26T09:57:32Z</time>
      </trkpt>
      <trkpt lat="45.78981" lon="-1.17098">
        <ele>56.4</ele>
        <time>2020-01-26T09:57:33Z</time>
      </trkpt>
      <trkpt lat="45.78982" lon="-1.17103">
        <ele>55.8</ele>
        <time>2020-01-26T09:57:34Z</time>
      </trkpt>
      <trkpt lat="45.78983" lon="-1.17107">
        <ele>55.4</ele>
        <time>2020-01-26T09:57:35Z</time>
      </trkpt>
      <trkpt lat="45.78981" lon="-1.17109">
        <ele>55</ele>
        <time>2020-01-26T09:57:36Z</time>
      </trkpt>
      <trkpt lat="45.7898" lon="-1.17111">
        <ele>54.8</ele>
        <time>2020-01-26T09:57:37Z</time>
      </trkpt>
      <trkpt lat="45.78978" lon="-1.17113">
        <ele>54.6</ele>
        <time>2020-01-26T09:57:38Z</time>
      </trkpt>
      <trkpt lat="45.78976" lon="-1.17114">
        <ele>54.8</ele>
        <time>2020-01-26T09:57:39Z</time>
      </trkpt>
      <trkpt lat="45.78975" lon="-1.17116">
        <ele>55</ele>
        <time>2020-01-26T09:57:40Z</time>
      </trkpt>
      <trkpt lat="45.78975" lon="-1.17119">
        <ele>55.2</ele>
        <time>2020-01-26T09:57:41Z</time>
      </trkpt>
      <trkpt lat="45.78975" lon="-1.1712">
        <ele>55.8</ele>
        <time>2020-01-26T09:57:42Z</time>
      </trkpt>
      <trkpt lat="45.78975" lon="-1.17123">
        <ele>56</ele>
        <time>2020-01-26T09:57:43Z</time>
      </trkpt>
      <trkpt lat="45.78975" lon="-1.17124">
        <ele>56.4</ele>
        <time>2020-01-26T09:57:44Z</time>
      </trkpt>
      <trkpt lat="45.78975" lon="-1.17128">
        <ele>57</ele>
        <time>2020-01-26T09:57:45Z</time>
      </trkpt>
      <trkpt lat="45.78974" lon="-1.1713">
        <ele>58</ele>
        <time>2020-01-26T09:57:46Z</time>
      </trkpt>
      <trkpt lat="45.78974" lon="-1.17132">
        <ele>58.6</ele>
        <time>2020-01-26T09:57:47Z</time>
      </trkpt>
      <trkpt lat="45.78971" lon="-1.17133">
        <ele>58.8</ele>
        <time>2020-01-26T09:57:48Z</time>
      </trkpt>
      <trkpt lat="45.78968" lon="-1.17134">
        <ele>59.4</ele>
        <time>2020-01-26T09:57:49Z</time>
      </trkpt>
      <trkpt lat="45.78965" lon="-1.17134">
        <ele>60</ele>
        <time>2020-01-26T09:57:50Z</time>
      </trkpt>
      <trkpt lat="45.78963" lon="-1.17135">
        <ele>60.6</ele>
        <time>2020-01-26T09:57:51Z</time>
      </trkpt>
      <trkpt lat="45.78961" lon="-1.17136">
        <ele>61</ele>
        <time>2020-01-26T09:57:52Z</time>
      </trkpt>
      <trkpt lat="45.78959" lon="-1.17136">
        <ele>60.8</ele>
        <time>2020-01-26T09:57:53Z</time>
      </trkpt>
      <trkpt lat="45.78958" lon="-1.17137">
        <ele>60.6</ele>
        <time>2020-01-26T09:57:54Z</time>
      </trkpt>
      <trkpt lat="45.78956" lon="-1.17138">
        <ele>60.6</ele>
        <time>2020-01-26T09:57:55Z</time>
      </trkpt>
      <trkpt lat="45.78955" lon="-1.17138">
        <ele>60.4</ele>
        <time>2020-01-26T09:57:56Z</time>
      </trkpt>
      <trkpt lat="45.78954" lon="-1.17137">
        <ele>60.2</ele>
        <time>2020-01-26T09:57:57Z</time>
      </trkpt>
      <trkpt lat="45.78952" lon="-1.17137">
        <ele>60.2</ele>
        <time>2020-01-26T09:57:58Z</time>
      </trkpt>
      <trkpt lat="45.7895" lon="-1.17138">
        <ele>60.2</ele>
        <time>2020-01-26T09:57:59Z</time>
      </trkpt>
      <trkpt lat="45.78948" lon="-1.17139">
        <ele>60.4</ele>
        <time>2020-01-26T09:58:00Z</time>
      </trkpt>
      <trkpt lat="45.78947" lon="-1.17143">
        <ele>60.6</ele>
        <time>2020-01-26T09:58:01Z</time>
      </trkpt>
      <trkpt lat="45.78947" lon="-1.17145">
        <ele>60.6</ele>
        <time>2020-01-26T09:58:02Z</time>
      </trkpt>
      <trkpt lat="45.78947" lon="-1.17149">
        <ele>60.8</ele>
        <time>2020-01-26T09:58:03Z</time>
      </trkpt>
      <trkpt lat="45.78947" lon="-1.17153">
        <ele>60.8</ele>
        <time>2020-01-26T09:58:04Z</time>
      </trkpt>
      <trkpt lat="45.78947" lon="-1.17157">
        <ele>61.2</ele>
        <time>2020-01-26T09:58:05Z</time>
      </trkpt>
      <trkpt lat="45.78945" lon="-1.17159">
        <ele>61.4</ele>
        <time>2020-01-26T09:58:06Z</time>
      </trkpt>
      <trkpt lat="45.78944" lon="-1.1716">
        <ele>61.8</ele>
        <time>2020-01-26T09:58:07Z</time>
      </trkpt>
      <trkpt lat="45.78942" lon="-1.17161">
        <ele>61.8</ele>
        <time>2020-01-26T09:58:08Z</time>
      </trkpt>
      <trkpt lat="45.7894" lon="-1.17164">
        <ele>61.8</ele>
        <time>2020-01-26T09:58:09Z</time>
      </trkpt>
      <trkpt lat="45.78938" lon="-1.17167">
        <ele>62</ele>
        <time>2020-01-26T09:58:10Z</time>
      </trkpt>
      <trkpt lat="45.78937" lon="-1.17171">
        <ele>62.2</ele>
        <time>2020-01-26T09:58:11Z</time>
      </trkpt>
      <trkpt lat="45.78937" lon="-1.17174">
        <ele>62.4</ele>
        <time>2020-01-26T09:58:12Z</time>
      </trkpt>
      <trkpt lat="45.78937" lon="-1.17177">
        <ele>62.6</ele>
        <time>2020-01-26T09:58:13Z</time>
      </trkpt>
      <trkpt lat="45.78937" lon="-1.17178">
        <ele>63.2</ele>
        <time>2020-01-26T09:58:14Z</time>
      </trkpt>
      <trkpt lat="45.78937" lon="-1.17181">
        <ele>63.4</ele>
        <time>2020-01-26T09:58:15Z</time>
      </trkpt>
      <trkpt lat="45.78936" lon="-1.17184">
        <ele>63.2</ele>
        <time>2020-01-26T09:58:16Z</time>
      </trkpt>
      <trkpt lat="45.78934" lon="-1.17185">
        <ele>63.2</ele>
        <time>2020-01-26T09:58:17Z</time>
      </trkpt>
      <trkpt lat="45.7893" lon="-1.17185">
        <ele>62.6</ele>
        <time>2020-01-26T09:58:18Z</time>
      </trkpt>
      <trkpt lat="45.78924" lon="-1.17185">
        <ele>62.8</ele>
        <time>2020-01-26T09:58:19Z</time>
      </trkpt>
      <trkpt lat="45.78918" lon="-1.17187">
        <ele>62.8</ele>
        <time>2020-01-26T09:58:20Z</time>
      </trkpt>
      <trkpt lat="45.78913" lon="-1.17188">
        <ele>62.6</ele>
        <time>2020-01-26T09:58:21Z</time>
      </trkpt>
      <trkpt lat="45.78909" lon="-1.17188">
        <ele>62.4</ele>
        <time>2020-01-26T09:58:22Z</time>
      </trkpt>
      <trkpt lat="45.78904" lon="-1.1719">
        <ele>62.6</ele>
        <time>2020-01-26T09:58:23Z</time>
      </trkpt>
      <trkpt lat="45.78901" lon="-1.17192">
        <ele>62.6</ele>
        <time>2020-01-26T09:58:24Z</time>
      </trkpt>
      <trkpt lat="45.78899" lon="-1.17197">
        <ele>62.8</ele>
        <time>2020-01-26T09:58:25Z</time>
      </trkpt>
      <trkpt lat="45.78898" lon="-1.172">
        <ele>62.8</ele>
        <time>2020-01-26T09:58:26Z</time>
      </trkpt>
      <trkpt lat="45.78897" lon="-1.17202">
        <ele>62.8</ele>
        <time>2020-01-26T09:58:27Z</time>
      </trkpt>
      <trkpt lat="45.78895" lon="-1.17203">
        <ele>62.6</ele>
        <time>2020-01-26T09:58:28Z</time>
      </trkpt>
      <trkpt lat="45.78892" lon="-1.17204">
        <ele>62.4</ele>
        <time>2020-01-26T09:58:29Z</time>
      </trkpt>
      <trkpt lat="45.7889" lon="-1.17205">
        <ele>62.4</ele>
        <time>2020-01-26T09:58:30Z</time>
      </trkpt>
      <trkpt lat="45.78888" lon="-1.17208">
        <ele>62</ele>
        <time>2020-01-26T09:58:31Z</time>
      </trkpt>
      <trkpt lat="45.78887" lon="-1.17211">
        <ele>62</ele>
        <time>2020-01-26T09:58:32Z</time>
      </trkpt>
      <trkpt lat="45.78883" lon="-1.17213">
        <ele>61.6</ele>
        <time>2020-01-26T09:58:33Z</time>
      </trkpt>
      <trkpt lat="45.78881" lon="-1.17215">
        <ele>61.4</ele>
        <time>2020-01-26T09:58:34Z</time>
      </trkpt>
      <trkpt lat="45.7888" lon="-1.17216">
        <ele>61.4</ele>
        <time>2020-01-26T09:58:35Z</time>
      </trkpt>
      <trkpt lat="45.78878" lon="-1.17217">
        <ele>61.8</ele>
        <time>2020-01-26T09:58:36Z</time>
      </trkpt>
      <trkpt lat="45.78876" lon="-1.17218">
        <ele>62.4</ele>
        <time>2020-01-26T09:58:37Z</time>
      </trkpt>
      <trkpt lat="45.78875" lon="-1.1722">
        <ele>62.8</ele>
        <time>2020-01-26T09:58:38Z</time>
      </trkpt>
      <trkpt lat="45.78874" lon="-1.17227">
        <ele>63.6</ele>
        <time>2020-01-26T09:58:39Z</time>
      </trkpt>
      <trkpt lat="45.78873" lon="-1.1723">
        <ele>64.2</ele>
        <time>2020-01-26T09:58:40Z</time>
      </trkpt>
      <trkpt lat="45.78873" lon="-1.17234">
        <ele>64.6</ele>
        <time>2020-01-26T09:58:41Z</time>
      </trkpt>
      <trkpt lat="45.78872" lon="-1.17235">
        <ele>65.6</ele>
        <time>2020-01-26T09:58:42Z</time>
      </trkpt>
      <trkpt lat="45.7887" lon="-1.17236">
        <ele>66</ele>
        <time>2020-01-26T09:58:43Z</time>
      </trkpt>
      <trkpt lat="45.78865" lon="-1.17238">
        <ele>66</ele>
        <time>2020-01-26T09:58:44Z</time>
      </trkpt>
      <trkpt lat="45.78863" lon="-1.17239">
        <ele>65.8</ele>
        <time>2020-01-26T09:58:45Z</time>
      </trkpt>
      <trkpt lat="45.78859" lon="-1.17242">
        <ele>65.4</ele>
        <time>2020-01-26T09:58:46Z</time>
      </trkpt>
      <trkpt lat="45.7886" lon="-1.17243">
        <ele>64.8</ele>
        <time>2020-01-26T09:58:47Z</time>
      </trkpt>
      <trkpt lat="45.7886" lon="-1.17244">
        <ele>64.2</ele>
        <time>2020-01-26T09:58:48Z</time>
      </trkpt>
      <trkpt lat="45.78857" lon="-1.17247">
        <ele>64</ele>
        <time>2020-01-26T09:58:49Z</time>
      </trkpt>
      <trkpt lat="45.78852" lon="-1.17248">
        <ele>63.4</ele>
        <time>2020-01-26T09:58:50Z</time>
      </trkpt>
      <trkpt lat="45.78849" lon="-1.1725">
        <ele>63</ele>
        <time>2020-01-26T09:58:51Z</time>
      </trkpt>
      <trkpt lat="45.78845" lon="-1.17254">
        <ele>62.6</ele>
        <time>2020-01-26T09:58:52Z</time>
      </trkpt>
      <trkpt lat="45.78843" lon="-1.17256">
        <ele>62.2</ele>
        <time>2020-01-26T09:58:53Z</time>
      </trkpt>
      <trkpt lat="45.78841" lon="-1.1726">
        <ele>62.2</ele>
        <time>2020-01-26T09:58:54Z</time>
      </trkpt>
      <trkpt lat="45.78844" lon="-1.17264">
        <ele>61.8</ele>
        <time>2020-01-26T09:58:55Z</time>
      </trkpt>
      <trkpt lat="45.78846" lon="-1.17267">
        <ele>61.4</ele>
        <time>2020-01-26T09:58:56Z</time>
      </trkpt>
      <trkpt lat="45.78846" lon="-1.1727">
        <ele>61</ele>
        <time>2020-01-26T09:58:57Z</time>
      </trkpt>
      <trkpt lat="45.78845" lon="-1.17274">
        <ele>61</ele>
        <time>2020-01-26T09:58:58Z</time>
      </trkpt>
      <trkpt lat="45.78844" lon="-1.17276">
        <ele>60.8</ele>
        <time>2020-01-26T09:58:59Z</time>
      </trkpt>
      <trkpt lat="45.78841" lon="-1.1728">
        <ele>60.6</ele>
        <time>2020-01-26T09:59:00Z</time>
      </trkpt>
      <trkpt lat="45.7884" lon="-1.17283">
        <ele>60.4</ele>
        <time>2020-01-26T09:59:01Z</time>
      </trkpt>
      <trkpt lat="45.78834" lon="-1.17287">
        <ele>60.4</ele>
        <time>2020-01-26T09:59:02Z</time>
      </trkpt>
      <trkpt lat="45.7883" lon="-1.1729">
        <ele>60.2</ele>
        <time>2020-01-26T09:59:03Z</time>
      </trkpt>
      <trkpt lat="45.78827" lon="-1.17292">
        <ele>60.4</ele>
        <time>2020-01-26T09:59:04Z</time>
      </trkpt>
      <trkpt lat="45.78826" lon="-1.17297">
        <ele>60.8</ele>
        <time>2020-01-26T09:59:05Z</time>
      </trkpt>
      <trkpt lat="45.78826" lon="-1.17302">
        <ele>61.2</ele>
        <time>2020-01-26T09:59:06Z</time>
      </trkpt>
      <trkpt lat="45.78827" lon="-1.17306">
        <ele>61.4</ele>
        <time>2020-01-26T09:59:07Z</time>
      </trkpt>
      <trkpt lat="45.78827" lon="-1.17307">
        <ele>61.2</ele>
        <time>2020-01-26T09:59:08Z</time>
      </trkpt>
      <trkpt lat="45.7883" lon="-1.17306">
        <ele>61.4</ele>
        <time>2020-01-26T09:59:09Z</time>
      </trkpt>
      <trkpt lat="45.78833" lon="-1.17308">
        <ele>61.6</ele>
        <time>2020-01-26T09:59:10Z</time>
      </trkpt>
      <trkpt lat="45.78836" lon="-1.1731">
        <ele>61.4</ele>
        <time>2020-01-26T09:59:11Z</time>
      </trkpt>
      <trkpt lat="45.78839" lon="-1.17318">
        <ele>61.4</ele>
        <time>2020-01-26T09:59:12Z</time>
      </trkpt>
      <trkpt lat="45.78843" lon="-1.17323">
        <ele>61.4</ele>
        <time>2020-01-26T09:59:13Z</time>
      </trkpt>
      <trkpt lat="45.78844" lon="-1.17331">
        <ele>61.4</ele>
        <time>2020-01-26T09:59:14Z</time>
      </trkpt>
      <trkpt lat="45.78845" lon="-1.17337">
        <ele>61</ele>
        <time>2020-01-26T09:59:15Z</time>
      </trkpt>
      <trkpt lat="45.78844" lon="-1.17341">
        <ele>60.8</ele>
        <time>2020-01-26T09:59:16Z</time>
      </trkpt>
      <trkpt lat="45.78844" lon="-1.17342">
        <ele>60.8</ele>
        <time>2020-01-26T09:59:17Z</time>
      </trkpt>
      <trkpt lat="45.78845" lon="-1.17345">
        <ele>60.6</ele>
        <time>2020-01-26T09:59:18Z</time>
      </trkpt>
      <trkpt lat="45.78846" lon="-1.17347">
        <ele>60.8</ele>
        <time>2020-01-26T09:59:19Z</time>
      </trkpt>
      <trkpt lat="45.78849" lon="-1.17347">
        <ele>61</ele>
        <time>2020-01-26T09:59:20Z</time>
      </trkpt>
      <trkpt lat="45.78854" lon="-1.17347">
        <ele>61.2</ele>
        <time>2020-01-26T09:59:21Z</time>
      </trkpt>
      <trkpt lat="45.78856" lon="-1.17352">
        <ele>60.6</ele>
        <time>2020-01-26T09:59:22Z</time>
      </trkpt>
      <trkpt lat="45.7886" lon="-1.17361">
        <ele>60.2</ele>
        <time>2020-01-26T09:59:23Z</time>
      </trkpt>
      <trkpt lat="45.78864" lon="-1.17364">
        <ele>60</ele>
        <time>2020-01-26T09:59:24Z</time>
      </trkpt>
      <trkpt lat="45.78865" lon="-1.17368">
        <ele>59.8</ele>
        <time>2020-01-26T09:59:25Z</time>
      </trkpt>
      <trkpt lat="45.78867" lon="-1.17373">
        <ele>59.8</ele>
        <time>2020-01-26T09:59:26Z</time>
      </trkpt>
      <trkpt lat="45.7887" lon="-1.17377">
        <ele>59.8</ele>
        <time>2020-01-26T09:59:27Z</time>
      </trkpt>
      <trkpt lat="45.7887" lon="-1.17382">
        <ele>59.2</ele>
        <time>2020-01-26T09:59:28Z</time>
      </trkpt>
      <trkpt lat="45.78871" lon="-1.17388">
        <ele>58.6</ele>
        <time>2020-01-26T09:59:29Z</time>
      </trkpt>
      <trkpt lat="45.7887" lon="-1.17395">
        <ele>57.8</ele>
        <time>2020-01-26T09:59:30Z</time>
      </trkpt>
      <trkpt lat="45.78868" lon="-1.174">
        <ele>57.2</ele>
        <time>2020-01-26T09:59:31Z</time>
      </trkpt>
      <trkpt lat="45.78867" lon="-1.17406">
        <ele>56.8</ele>
        <time>2020-01-26T09:59:32Z</time>
      </trkpt>
      <trkpt lat="45.78867" lon="-1.17413">
        <ele>56.2</ele>
        <time>2020-01-26T09:59:33Z</time>
      </trkpt>
      <trkpt lat="45.78867" lon="-1.17419">
        <ele>55.6</ele>
        <time>2020-01-26T09:59:34Z</time>
      </trkpt>
      <trkpt lat="45.78871" lon="-1.17424">
        <ele>55</ele>
        <time>2020-01-26T09:59:35Z</time>
      </trkpt>
      <trkpt lat="45.78872" lon="-1.17431">
        <ele>55</ele>
        <time>2020-01-26T09:59:36Z</time>
      </trkpt>
      <trkpt lat="45.78873" lon="-1.17436">
        <ele>55.2</ele>
        <time>2020-01-26T09:59:37Z</time>
      </trkpt>
      <trkpt lat="45.78875" lon="-1.17439">
        <ele>55.2</ele>
        <time>2020-01-26T09:59:38Z</time>
      </trkpt>
      <trkpt lat="45.78878" lon="-1.17442">
        <ele>55.6</ele>
        <time>2020-01-26T09:59:39Z</time>
      </trkpt>
      <trkpt lat="45.78879" lon="-1.17446">
        <ele>56</ele>
        <time>2020-01-26T09:59:40Z</time>
      </trkpt>
      <trkpt lat="45.78878" lon="-1.1745">
        <ele>56.6</ele>
        <time>2020-01-26T09:59:41Z</time>
      </trkpt>
      <trkpt lat="45.78876" lon="-1.1745">
        <ele>56.8</ele>
        <time>2020-01-26T09:59:42Z</time>
      </trkpt>
      <trkpt lat="45.78872" lon="-1.17451">
        <ele>57</ele>
        <time>2020-01-26T09:59:43Z</time>
      </trkpt>
      <trkpt lat="45.78869" lon="-1.17453">
        <ele>57.2</ele>
        <time>2020-01-26T09:59:44Z</time>
      </trkpt>
      <trkpt lat="45.78866" lon="-1.17454">
        <ele>57</ele>
        <time>2020-01-26T09:59:45Z</time>
      </trkpt>
      <trkpt lat="45.78864" lon="-1.17456">
        <ele>56.6</ele>
        <time>2020-01-26T09:59:46Z</time>
      </trkpt>
      <trkpt lat="45.78862" lon="-1.1746">
        <ele>56.2</ele>
        <time>2020-01-26T09:59:47Z</time>
      </trkpt>
      <trkpt lat="45.7886" lon="-1.17463">
        <ele>55.8</ele>
        <time>2020-01-26T09:59:48Z</time>
      </trkpt>
      <trkpt lat="45.78859" lon="-1.17467">
        <ele>55.6</ele>
        <time>2020-01-26T09:59:49Z</time>
      </trkpt>
      <trkpt lat="45.78858" lon="-1.17471">
        <ele>56</ele>
        <time>2020-01-26T09:59:50Z</time>
      </trkpt>
      <trkpt lat="45.78858" lon="-1.17476">
        <ele>56</ele>
        <time>2020-01-26T09:59:51Z</time>
      </trkpt>
      <trkpt lat="45.78859" lon="-1.17481">
        <ele>56.2</ele>
        <time>2020-01-26T09:59:52Z</time>
      </trkpt>
      <trkpt lat="45.78859" lon="-1.17487">
        <ele>56.8</ele>
        <time>2020-01-26T09:59:53Z</time>
      </trkpt>
      <trkpt lat="45.78859" lon="-1.17491">
        <ele>57.2</ele>
        <time>2020-01-26T09:59:54Z</time>
      </trkpt>
      <trkpt lat="45.78856" lon="-1.17493">
        <ele>57.4</ele>
        <time>2020-01-26T09:59:55Z</time>
      </trkpt>
      <trkpt lat="45.78853" lon="-1.17496">
        <ele>57.4</ele>
        <time>2020-01-26T09:59:56Z</time>
      </trkpt>
      <trkpt lat="45.78851" lon="-1.17499">
        <ele>57.2</ele>
        <time>2020-01-26T09:59:57Z</time>
      </trkpt>
      <trkpt lat="45.78848" lon="-1.17503">
        <ele>57.6</ele>
        <time>2020-01-26T09:59:58Z</time>
      </trkpt>
      <trkpt lat="45.78843" lon="-1.17505">
        <ele>58.4</ele>
        <time>2020-01-26T09:59:59Z</time>
      </trkpt>
      <trkpt lat="45.78839" lon="-1.17507">
        <ele>59</ele>
        <time>2020-01-26T10:00:00Z</time>
      </trkpt>
      <trkpt lat="45.78837" lon="-1.1751">
        <ele>59.6</ele>
        <time>2020-01-26T10:00:01Z</time>
      </trkpt>
      <trkpt lat="45.78834" lon="-1.17512">
        <ele>60</ele>
        <time>2020-01-26T10:00:02Z</time>
      </trkpt>
      <trkpt lat="45.78831" lon="-1.17513">
        <ele>60.2</ele>
        <time>2020-01-26T10:00:03Z</time>
      </trkpt>
      <trkpt lat="45.78828" lon="-1.17515">
        <ele>60.2</ele>
        <time>2020-01-26T10:00:04Z</time>
      </trkpt>
      <trkpt lat="45.78826" lon="-1.17515">
        <ele>59.8</ele>
        <time>2020-01-26T10:00:05Z</time>
      </trkpt>
      <trkpt lat="45.78824" lon="-1.17517">
        <ele>59.6</ele>
        <time>2020-01-26T10:00:06Z</time>
      </trkpt>
      <trkpt lat="45.78821" lon="-1.17518">
        <ele>59.2</ele>
        <time>2020-01-26T10:00:07Z</time>
      </trkpt>
      <trkpt lat="45.78817" lon="-1.17519">
        <ele>58.8</ele>
        <time>2020-01-26T10:00:08Z</time>
      </trkpt>
      <trkpt lat="45.78813" lon="-1.17522">
        <ele>58.6</ele>
        <time>2020-01-26T10:00:09Z</time>
      </trkpt>
      <trkpt lat="45.78812" lon="-1.17527">
        <ele>58.2</ele>
        <time>2020-01-26T10:00:10Z</time>
      </trkpt>
      <trkpt lat="45.78811" lon="-1.17532">
        <ele>57.8</ele>
        <time>2020-01-26T10:00:11Z</time>
      </trkpt>
      <trkpt lat="45.78809" lon="-1.17536">
        <ele>57.2</ele>
        <time>2020-01-26T10:00:12Z</time>
      </trkpt>
      <trkpt lat="45.78807" lon="-1.1754">
        <ele>56.8</ele>
        <time>2020-01-26T10:00:13Z</time>
      </trkpt>
      <trkpt lat="45.78806" lon="-1.17544">
        <ele>56.4</ele>
        <time>2020-01-26T10:00:14Z</time>
      </trkpt>
      <trkpt lat="45.78805" lon="-1.17548">
        <ele>55.8</ele>
        <time>2020-01-26T10:00:15Z</time>
      </trkpt>
      <trkpt lat="45.78802" lon="-1.17553">
        <ele>55</ele>
        <time>2020-01-26T10:00:16Z</time>
      </trkpt>
      <trkpt lat="45.78801" lon="-1.17556">
        <ele>54.6</ele>
        <time>2020-01-26T10:00:17Z</time>
      </trkpt>
      <trkpt lat="45.78799" lon="-1.17561">
        <ele>54</ele>
        <time>2020-01-26T10:00:18Z</time>
      </trkpt>
      <trkpt lat="45.78798" lon="-1.17566">
        <ele>53.6</ele>
        <time>2020-01-26T10:00:19Z</time>
      </trkpt>
      <trkpt lat="45.78796" lon="-1.1757">
        <ele>53.6</ele>
        <time>2020-01-26T10:00:20Z</time>
      </trkpt>
      <trkpt lat="45.78794" lon="-1.17573">
        <ele>53.4</ele>
        <time>2020-01-26T10:00:21Z</time>
      </trkpt>
      <trkpt lat="45.78793" lon="-1.17575">
        <ele>53.6</ele>
        <time>2020-01-26T10:00:22Z</time>
      </trkpt>
      <trkpt lat="45.78792" lon="-1.17578">
        <ele>53.6</ele>
        <time>2020-01-26T10:00:23Z</time>
      </trkpt>
      <trkpt lat="45.78791" lon="-1.1758">
        <ele>53.8</ele>
        <time>2020-01-26T10:00:24Z</time>
      </trkpt>
      <trkpt lat="45.7879" lon="-1.17582">
        <ele>53.6</ele>
        <time>2020-01-26T10:00:25Z</time>
      </trkpt>
      <trkpt lat="45.7879" lon="-1.17586">
        <ele>53.2</ele>
        <time>2020-01-26T10:00:26Z</time>
      </trkpt>
      <trkpt lat="45.78788" lon="-1.17589">
        <ele>53.2</ele>
        <time>2020-01-26T10:00:27Z</time>
      </trkpt>
      <trkpt lat="45.78785" lon="-1.17592">
        <ele>52.8</ele>
        <time>2020-01-26T10:00:28Z</time>
      </trkpt>
      <trkpt lat="45.78781" lon="-1.17594">
        <ele>52.4</ele>
        <time>2020-01-26T10:00:29Z</time>
      </trkpt>
      <trkpt lat="45.78777" lon="-1.17599">
        <ele>52</ele>
        <time>2020-01-26T10:00:30Z</time>
      </trkpt>
      <trkpt lat="45.78772" lon="-1.17604">
        <ele>51.4</ele>
        <time>2020-01-26T10:00:31Z</time>
      </trkpt>
      <trkpt lat="45.78769" lon="-1.1761">
        <ele>50.8</ele>
        <time>2020-01-26T10:00:32Z</time>
      </trkpt>
      <trkpt lat="45.78765" lon="-1.17615">
        <ele>50.6</ele>
        <time>2020-01-26T10:00:33Z</time>
      </trkpt>
      <trkpt lat="45.78762" lon="-1.17621">
        <ele>50.8</ele>
        <time>2020-01-26T10:00:34Z</time>
      </trkpt>
      <trkpt lat="45.78759" lon="-1.17627">
        <ele>51.2</ele>
        <time>2020-01-26T10:00:35Z</time>
      </trkpt>
      <trkpt lat="45.78755" lon="-1.17631">
        <ele>51.8</ele>
        <time>2020-01-26T10:00:36Z</time>
      </trkpt>
      <trkpt lat="45.78751" lon="-1.17634">
        <ele>52.6</ele>
        <time>2020-01-26T10:00:37Z</time>
      </trkpt>
      <trkpt lat="45.78747" lon="-1.17636">
        <ele>53.6</ele>
        <time>2020-01-26T10:00:38Z</time>
      </trkpt>
      <trkpt lat="45.78743" lon="-1.17639">
        <ele>54.4</ele>
        <time>2020-01-26T10:00:39Z</time>
      </trkpt>
      <trkpt lat="45.78741" lon="-1.17644">
        <ele>54.8</ele>
        <time>2020-01-26T10:00:40Z</time>
      </trkpt>
      <trkpt lat="45.7874" lon="-1.17649">
        <ele>54.8</ele>
        <time>2020-01-26T10:00:41Z</time>
      </trkpt>
      <trkpt lat="45.78738" lon="-1.17653">
        <ele>55.6</ele>
        <time>2020-01-26T10:00:42Z</time>
      </trkpt>
      <trkpt lat="45.78738" lon="-1.17656">
        <ele>56.2</ele>
        <time>2020-01-26T10:00:43Z</time>
      </trkpt>
      <trkpt lat="45.78737" lon="-1.1766">
        <ele>56.6</ele>
        <time>2020-01-26T10:00:44Z</time>
      </trkpt>
      <trkpt lat="45.78735" lon="-1.17662">
        <ele>57</ele>
        <time>2020-01-26T10:00:45Z</time>
      </trkpt>
      <trkpt lat="45.78733" lon="-1.17664">
        <ele>57.2</ele>
        <time>2020-01-26T10:00:46Z</time>
      </trkpt>
      <trkpt lat="45.78731" lon="-1.17666">
        <ele>57.2</ele>
        <time>2020-01-26T10:00:47Z</time>
      </trkpt>
      <trkpt lat="45.7873" lon="-1.17667">
        <ele>57.2</ele>
        <time>2020-01-26T10:00:48Z</time>
      </trkpt>
      <trkpt lat="45.7873" lon="-1.17669">
        <ele>57.2</ele>
        <time>2020-01-26T10:00:49Z</time>
      </trkpt>
      <trkpt lat="45.78729" lon="-1.17671">
        <ele>57</ele>
        <time>2020-01-26T10:00:50Z</time>
      </trkpt>
      <trkpt lat="45.78728" lon="-1.17672">
        <ele>57</ele>
        <time>2020-01-26T10:00:51Z</time>
      </trkpt>
      <trkpt lat="45.78728" lon="-1.17675">
        <ele>56.8</ele>
        <time>2020-01-26T10:00:52Z</time>
      </trkpt>
      <trkpt lat="45.78728" lon="-1.17677">
        <ele>56.6</ele>
        <time>2020-01-26T10:00:53Z</time>
      </trkpt>
      <trkpt lat="45.78728" lon="-1.17679">
        <ele>56.4</ele>
        <time>2020-01-26T10:00:54Z</time>
      </trkpt>
      <trkpt lat="45.78728" lon="-1.17681">
        <ele>55.8</ele>
        <time>2020-01-26T10:00:55Z</time>
      </trkpt>
      <trkpt lat="45.78728" lon="-1.17683">
        <ele>55</ele>
        <time>2020-01-26T10:00:56Z</time>
      </trkpt>
      <trkpt lat="45.78728" lon="-1.17686">
        <ele>54.4</ele>
        <time>2020-01-26T10:00:57Z</time>
      </trkpt>
      <trkpt lat="45.78726" lon="-1.17688">
        <ele>54</ele>
        <time>2020-01-26T10:00:58Z</time>
      </trkpt>
      <trkpt lat="45.78726" lon="-1.1769">
        <ele>53.6</ele>
        <time>2020-01-26T10:00:59Z</time>
      </trkpt>
      <trkpt lat="45.78725" lon="-1.17692">
        <ele>53</ele>
        <time>2020-01-26T10:01:00Z</time>
      </trkpt>
      <trkpt lat="45.78723" lon="-1.17694">
        <ele>52.6</ele>
        <time>2020-01-26T10:01:01Z</time>
      </trkpt>
      <trkpt lat="45.78722" lon="-1.17696">
        <ele>52.2</ele>
        <time>2020-01-26T10:01:02Z</time>
      </trkpt>
      <trkpt lat="45.78721" lon="-1.177">
        <ele>51.6</ele>
        <time>2020-01-26T10:01:03Z</time>
      </trkpt>
      <trkpt lat="45.7872" lon="-1.17703">
        <ele>51.2</ele>
        <time>2020-01-26T10:01:04Z</time>
      </trkpt>
      <trkpt lat="45.78719" lon="-1.17705">
        <ele>51</ele>
        <time>2020-01-26T10:01:05Z</time>
      </trkpt>
      <trkpt lat="45.78716" lon="-1.17707">
        <ele>51</ele>
        <time>2020-01-26T10:01:06Z</time>
      </trkpt>
      <trkpt lat="45.78712" lon="-1.17707">
        <ele>51</ele>
        <time>2020-01-26T10:01:07Z</time>
      </trkpt>
      <trkpt lat="45.78709" lon="-1.17707">
        <ele>51.2</ele>
        <time>2020-01-26T10:01:08Z</time>
      </trkpt>
      <trkpt lat="45.78704" lon="-1.17709">
        <ele>52</ele>
        <time>2020-01-26T10:01:09Z</time>
      </trkpt>
      <trkpt lat="45.787" lon="-1.1771">
        <ele>52.6</ele>
        <time>2020-01-26T10:01:10Z</time>
      </trkpt>
      <trkpt lat="45.78698" lon="-1.17713">
        <ele>53</ele>
        <time>2020-01-26T10:01:11Z</time>
      </trkpt>
      <trkpt lat="45.78697" lon="-1.17716">
        <ele>53.4</ele>
        <time>2020-01-26T10:01:12Z</time>
      </trkpt>
      <trkpt lat="45.78698" lon="-1.1772">
        <ele>53.6</ele>
        <time>2020-01-26T10:01:13Z</time>
      </trkpt>
      <trkpt lat="45.78698" lon="-1.17724">
        <ele>53.8</ele>
        <time>2020-01-26T10:01:14Z</time>
      </trkpt>
      <trkpt lat="45.78697" lon="-1.17729">
        <ele>54.2</ele>
        <time>2020-01-26T10:01:15Z</time>
      </trkpt>
      <trkpt lat="45.78696" lon="-1.17733">
        <ele>54.2</ele>
        <time>2020-01-26T10:01:16Z</time>
      </trkpt>
      <trkpt lat="45.78695" lon="-1.17737">
        <ele>54.4</ele>
        <time>2020-01-26T10:01:17Z</time>
      </trkpt>
      <trkpt lat="45.78692" lon="-1.1774">
        <ele>54.6</ele>
        <time>2020-01-26T10:01:18Z</time>
      </trkpt>
      <trkpt lat="45.78688" lon="-1.17743">
        <ele>55</ele>
        <time>2020-01-26T10:01:19Z</time>
      </trkpt>
      <trkpt lat="45.78685" lon="-1.17746">
        <ele>55.4</ele>
        <time>2020-01-26T10:01:20Z</time>
      </trkpt>
      <trkpt lat="45.7868" lon="-1.17745">
        <ele>55.8</ele>
        <time>2020-01-26T10:01:21Z</time>
      </trkpt>
      <trkpt lat="45.78677" lon="-1.17744">
        <ele>56.4</ele>
        <time>2020-01-26T10:01:22Z</time>
      </trkpt>
      <trkpt lat="45.78673" lon="-1.17745">
        <ele>57</ele>
        <time>2020-01-26T10:01:23Z</time>
      </trkpt>
      <trkpt lat="45.78669" lon="-1.17746">
        <ele>57.6</ele>
        <time>2020-01-26T10:01:24Z</time>
      </trkpt>
      <trkpt lat="45.78664" lon="-1.17745">
        <ele>58.4</ele>
        <time>2020-01-26T10:01:25Z</time>
      </trkpt>
      <trkpt lat="45.78659" lon="-1.17743">
        <ele>58.6</ele>
        <time>2020-01-26T10:01:26Z</time>
      </trkpt>
      <trkpt lat="45.78655" lon="-1.17741">
        <ele>58.6</ele>
        <time>2020-01-26T10:01:27Z</time>
      </trkpt>
      <trkpt lat="45.78651" lon="-1.17743">
        <ele>58.8</ele>
        <time>2020-01-26T10:01:28Z</time>
      </trkpt>
      <trkpt lat="45.78647" lon="-1.17741">
        <ele>58.6</ele>
        <time>2020-01-26T10:01:29Z</time>
      </trkpt>
      <trkpt lat="45.78644" lon="-1.17742">
        <ele>58.2</ele>
        <time>2020-01-26T10:01:30Z</time>
      </trkpt>
      <trkpt lat="45.78639" lon="-1.17745">
        <ele>58.4</ele>
        <time>2020-01-26T10:01:31Z</time>
      </trkpt>
      <trkpt lat="45.78636" lon="-1.17747">
        <ele>58.6</ele>
        <time>2020-01-26T10:01:32Z</time>
      </trkpt>
      <trkpt lat="45.78635" lon="-1.17751">
        <ele>59.4</ele>
        <time>2020-01-26T10:01:33Z</time>
      </trkpt>
      <trkpt lat="45.78634" lon="-1.17753">
        <ele>59.6</ele>
        <time>2020-01-26T10:01:34Z</time>
      </trkpt>
      <trkpt lat="45.78632" lon="-1.17758">
        <ele>59.6</ele>
        <time>2020-01-26T10:01:35Z</time>
      </trkpt>
      <trkpt lat="45.78631" lon="-1.17762">
        <ele>59.6</ele>
        <time>2020-01-26T10:01:36Z</time>
      </trkpt>
      <trkpt lat="45.78629" lon="-1.17766">
        <ele>59.4</ele>
        <time>2020-01-26T10:01:37Z</time>
      </trkpt>
      <trkpt lat="45.78627" lon="-1.17769">
        <ele>59.4</ele>
        <time>2020-01-26T10:01:38Z</time>
      </trkpt>
      <trkpt lat="45.78623" lon="-1.17773">
        <ele>59.2</ele>
        <time>2020-01-26T10:01:39Z</time>
      </trkpt>
      <trkpt lat="45.7862" lon="-1.17777">
        <ele>59.2</ele>
        <time>2020-01-26T10:01:40Z</time>
      </trkpt>
      <trkpt lat="45.78618" lon="-1.1778">
        <ele>59.4</ele>
        <time>2020-01-26T10:01:41Z</time>
      </trkpt>
      <trkpt lat="45.78619" lon="-1.17783">
        <ele>59.8</ele>
        <time>2020-01-26T10:01:42Z</time>
      </trkpt>
      <trkpt lat="45.78618" lon="-1.17786">
        <ele>60.2</ele>
        <time>2020-01-26T10:01:43Z</time>
      </trkpt>
      <trkpt lat="45.78619" lon="-1.17792">
        <ele>60.6</ele>
        <time>2020-01-26T10:01:44Z</time>
      </trkpt>
      <trkpt lat="45.7862" lon="-1.17795">
        <ele>60.6</ele>
        <time>2020-01-26T10:01:45Z</time>
      </trkpt>
      <trkpt lat="45.7862" lon="-1.17799">
        <ele>60.6</ele>
        <time>2020-01-26T10:01:46Z</time>
      </trkpt>
      <trkpt lat="45.7862" lon="-1.178">
        <ele>61</ele>
        <time>2020-01-26T10:01:47Z</time>
      </trkpt>
      <trkpt lat="45.7862" lon="-1.17802">
        <ele>61.2</ele>
        <time>2020-01-26T10:01:48Z</time>
      </trkpt>
      <trkpt lat="45.78619" lon="-1.17806">
        <ele>61.4</ele>
        <time>2020-01-26T10:01:49Z</time>
      </trkpt>
      <trkpt lat="45.78618" lon="-1.17808">
        <ele>61.6</ele>
        <time>2020-01-26T10:01:50Z</time>
      </trkpt>
      <trkpt lat="45.78617" lon="-1.17811">
        <ele>61.4</ele>
        <time>2020-01-26T10:01:51Z</time>
      </trkpt>
      <trkpt lat="45.78616" lon="-1.17813">
        <ele>61.2</ele>
        <time>2020-01-26T10:01:52Z</time>
      </trkpt>
      <trkpt lat="45.78616" lon="-1.17817">
        <ele>61.2</ele>
        <time>2020-01-26T10:01:53Z</time>
      </trkpt>
      <trkpt lat="45.78616" lon="-1.17821">
        <ele>61.2</ele>
        <time>2020-01-26T10:01:54Z</time>
      </trkpt>
      <trkpt lat="45.78617" lon="-1.17824">
        <ele>61.4</ele>
        <time>2020-01-26T10:01:55Z</time>
      </trkpt>
      <trkpt lat="45.78618" lon="-1.17828">
        <ele>61.6</ele>
        <time>2020-01-26T10:01:56Z</time>
      </trkpt>
      <trkpt lat="45.78619" lon="-1.17832">
        <ele>61.2</ele>
        <time>2020-01-26T10:01:57Z</time>
      </trkpt>
      <trkpt lat="45.78619" lon="-1.17836">
        <ele>60.8</ele>
        <time>2020-01-26T10:01:58Z</time>
      </trkpt>
      <trkpt lat="45.78619" lon="-1.17839">
        <ele>60.6</ele>
        <time>2020-01-26T10:01:59Z</time>
      </trkpt>
      <trkpt lat="45.78619" lon="-1.17842">
        <ele>60.2</ele>
        <time>2020-01-26T10:02:00Z</time>
      </trkpt>
      <trkpt lat="45.78619" lon="-1.17845">
        <ele>60</ele>
        <time>2020-01-26T10:02:01Z</time>
      </trkpt>
      <trkpt lat="45.7862" lon="-1.17849">
        <ele>59.6</ele>
        <time>2020-01-26T10:02:02Z</time>
      </trkpt>
      <trkpt lat="45.78618" lon="-1.17853">
        <ele>59.2</ele>
        <time>2020-01-26T10:02:03Z</time>
      </trkpt>
      <trkpt lat="45.78617" lon="-1.17857">
        <ele>58.6</ele>
        <time>2020-01-26T10:02:04Z</time>
      </trkpt>
      <trkpt lat="45.78617" lon="-1.17859">
        <ele>58.6</ele>
        <time>2020-01-26T10:02:05Z</time>
      </trkpt>
      <trkpt lat="45.78618" lon="-1.17861">
        <ele>58.4</ele>
        <time>2020-01-26T10:02:06Z</time>
      </trkpt>
      <trkpt lat="45.78619" lon="-1.17864">
        <ele>58.2</ele>
        <time>2020-01-26T10:02:07Z</time>
      </trkpt>
      <trkpt lat="45.78619" lon="-1.17868">
        <ele>58.2</ele>
        <time>2020-01-26T10:02:08Z</time>
      </trkpt>
      <trkpt lat="45.78619" lon="-1.17871">
        <ele>57.6</ele>
        <time>2020-01-26T10:02:09Z</time>
      </trkpt>
      <trkpt lat="45.78618" lon="-1.17875">
        <ele>57.2</ele>
        <time>2020-01-26T10:02:10Z</time>
      </trkpt>
      <trkpt lat="45.78618" lon="-1.17877">
        <ele>56.8</ele>
        <time>2020-01-26T10:02:11Z</time>
      </trkpt>
      <trkpt lat="45.78618" lon="-1.17881">
        <ele>56.4</ele>
        <time>2020-01-26T10:02:12Z</time>
      </trkpt>
      <trkpt lat="45.78619" lon="-1.17884">
        <ele>55.8</ele>
        <time>2020-01-26T10:02:13Z</time>
      </trkpt>
      <trkpt lat="45.78619" lon="-1.17887">
        <ele>55.4</ele>
        <time>2020-01-26T10:02:14Z</time>
      </trkpt>
      <trkpt lat="45.7862" lon="-1.1789">
        <ele>55.2</ele>
        <time>2020-01-26T10:02:15Z</time>
      </trkpt>
      <trkpt lat="45.7862" lon="-1.17894">
        <ele>55</ele>
        <time>2020-01-26T10:02:16Z</time>
      </trkpt>
      <trkpt lat="45.78619" lon="-1.17897">
        <ele>54.8</ele>
        <time>2020-01-26T10:02:17Z</time>
      </trkpt>
      <trkpt lat="45.7862" lon="-1.179">
        <ele>54.6</ele>
        <time>2020-01-26T10:02:18Z</time>
      </trkpt>
      <trkpt lat="45.78621" lon="-1.17903">
        <ele>54.6</ele>
        <time>2020-01-26T10:02:19Z</time>
      </trkpt>
      <trkpt lat="45.78621" lon="-1.17905">
        <ele>54.8</ele>
        <time>2020-01-26T10:02:20Z</time>
      </trkpt>
      <trkpt lat="45.78621" lon="-1.17908">
        <ele>55</ele>
        <time>2020-01-26T10:02:21Z</time>
      </trkpt>
      <trkpt lat="45.78621" lon="-1.17911">
        <ele>55.4</ele>
        <time>2020-01-26T10:02:22Z</time>
      </trkpt>
      <trkpt lat="45.78621" lon="-1.17915">
        <ele>55.8</ele>
        <time>2020-01-26T10:02:23Z</time>
      </trkpt>
      <trkpt lat="45.78619" lon="-1.17917">
        <ele>55.8</ele>
        <time>2020-01-26T10:02:24Z</time>
      </trkpt>
      <trkpt lat="45.78618" lon="-1.17919">
        <ele>56</ele>
        <time>2020-01-26T10:02:25Z</time>
      </trkpt>
      <trkpt lat="45.78618" lon="-1.17922">
        <ele>56.4</ele>
        <time>2020-01-26T10:02:26Z</time>
      </trkpt>
      <trkpt lat="45.78617" lon="-1.17925">
        <ele>56.6</ele>
        <time>2020-01-26T10:02:27Z</time>
      </trkpt>
      <trkpt lat="45.78617" lon="-1.17929">
        <ele>56.6</ele>
        <time>2020-01-26T10:02:28Z</time>
      </trkpt>
      <trkpt lat="45.78616" lon="-1.17931">
        <ele>56.8</ele>
        <time>2020-01-26T10:02:29Z</time>
      </trkpt>
      <trkpt lat="45.78616" lon="-1.17934">
        <ele>56.8</ele>
        <time>2020-01-26T10:02:30Z</time>
      </trkpt>
      <trkpt lat="45.78617" lon="-1.17937">
        <ele>57.2</ele>
        <time>2020-01-26T10:02:31Z</time>
      </trkpt>
      <trkpt lat="45.78618" lon="-1.17942">
        <ele>57.8</ele>
        <time>2020-01-26T10:02:32Z</time>
      </trkpt>
      <trkpt lat="45.78618" lon="-1.17943">
        <ele>58.4</ele>
        <time>2020-01-26T10:02:33Z</time>
      </trkpt>
      <trkpt lat="45.78617" lon="-1.17944">
        <ele>59</ele>
        <time>2020-01-26T10:02:34Z</time>
      </trkpt>
      <trkpt lat="45.78616" lon="-1.17945">
        <ele>59.2</ele>
        <time>2020-01-26T10:02:35Z</time>
      </trkpt>
      <trkpt lat="45.78616" lon="-1.17948">
        <ele>59.4</ele>
        <time>2020-01-26T10:02:36Z</time>
      </trkpt>
      <trkpt lat="45.78616" lon="-1.17951">
        <ele>60</ele>
        <time>2020-01-26T10:02:37Z</time>
      </trkpt>
      <trkpt lat="45.78614" lon="-1.17954">
        <ele>60.6</ele>
        <time>2020-01-26T10:02:38Z</time>
      </trkpt>
      <trkpt lat="45.78613" lon="-1.17956">
        <ele>61.2</ele>
        <time>2020-01-26T10:02:39Z</time>
      </trkpt>
      <trkpt lat="45.78611" lon="-1.17957">
        <ele>61.4</ele>
        <time>2020-01-26T10:02:40Z</time>
      </trkpt>
      <trkpt lat="45.78611" lon="-1.17961">
        <ele>61.8</ele>
        <time>2020-01-26T10:02:41Z</time>
      </trkpt>
      <trkpt lat="45.78611" lon="-1.17964">
        <ele>62.2</ele>
        <time>2020-01-26T10:02:42Z</time>
      </trkpt>
      <trkpt lat="45.78611" lon="-1.17968">
        <ele>62</ele>
        <time>2020-01-26T10:02:43Z</time>
      </trkpt>
      <trkpt lat="45.78609" lon="-1.17972">
        <ele>62.4</ele>
        <time>2020-01-26T10:02:44Z</time>
      </trkpt>
      <trkpt lat="45.78608" lon="-1.17974">
        <ele>62.6</ele>
        <time>2020-01-26T10:02:45Z</time>
      </trkpt>
      <trkpt lat="45.78605" lon="-1.17976">
        <ele>62.8</ele>
        <time>2020-01-26T10:02:46Z</time>
      </trkpt>
      <trkpt lat="45.78602" lon="-1.17979">
        <ele>63.2</ele>
        <time>2020-01-26T10:02:47Z</time>
      </trkpt>
      <trkpt lat="45.786" lon="-1.17984">
        <ele>63.4</ele>
        <time>2020-01-26T10:02:48Z</time>
      </trkpt>
      <trkpt lat="45.786" lon="-1.1799">
        <ele>64</ele>
        <time>2020-01-26T10:02:49Z</time>
      </trkpt>
      <trkpt lat="45.786" lon="-1.17996">
        <ele>64.6</ele>
        <time>2020-01-26T10:02:50Z</time>
      </trkpt>
      <trkpt lat="45.78603" lon="-1.18002">
        <ele>65</ele>
        <time>2020-01-26T10:02:51Z</time>
      </trkpt>
      <trkpt lat="45.78604" lon="-1.18008">
        <ele>65.4</ele>
        <time>2020-01-26T10:02:52Z</time>
      </trkpt>
      <trkpt lat="45.78604" lon="-1.18013">
        <ele>65.8</ele>
        <time>2020-01-26T10:02:53Z</time>
      </trkpt>
      <trkpt lat="45.78605" lon="-1.18019">
        <ele>66.4</ele>
        <time>2020-01-26T10:02:54Z</time>
      </trkpt>
      <trkpt lat="45.78606" lon="-1.18025">
        <ele>66.6</ele>
        <time>2020-01-26T10:02:55Z</time>
      </trkpt>
      <trkpt lat="45.78609" lon="-1.18032">
        <ele>66.6</ele>
        <time>2020-01-26T10:02:56Z</time>
      </trkpt>
      <trkpt lat="45.78611" lon="-1.18039">
        <ele>66.6</ele>
        <time>2020-01-26T10:02:57Z</time>
      </trkpt>
      <trkpt lat="45.78612" lon="-1.18045">
        <ele>66.2</ele>
        <time>2020-01-26T10:02:58Z</time>
      </trkpt>
      <trkpt lat="45.78612" lon="-1.18049">
        <ele>65.4</ele>
        <time>2020-01-26T10:02:59Z</time>
      </trkpt>
      <trkpt lat="45.78615" lon="-1.18053">
        <ele>64.6</ele>
        <time>2020-01-26T10:03:00Z</time>
      </trkpt>
      <trkpt lat="45.78617" lon="-1.18058">
        <ele>64.2</ele>
        <time>2020-01-26T10:03:01Z</time>
      </trkpt>
      <trkpt lat="45.7862" lon="-1.18065">
        <ele>63.6</ele>
        <time>2020-01-26T10:03:02Z</time>
      </trkpt>
      <trkpt lat="45.78623" lon="-1.18073">
        <ele>63.2</ele>
        <time>2020-01-26T10:03:03Z</time>
      </trkpt>
      <trkpt lat="45.78627" lon="-1.18081">
        <ele>63</ele>
        <time>2020-01-26T10:03:04Z</time>
      </trkpt>
      <trkpt lat="45.7863" lon="-1.1809">
        <ele>62.6</ele>
        <time>2020-01-26T10:03:05Z</time>
      </trkpt>
      <trkpt lat="45.78632" lon="-1.18095">
        <ele>62.2</ele>
        <time>2020-01-26T10:03:06Z</time>
      </trkpt>
      <trkpt lat="45.78634" lon="-1.18102">
        <ele>62</ele>
        <time>2020-01-26T10:03:07Z</time>
      </trkpt>
      <trkpt lat="45.78633" lon="-1.18107">
        <ele>61.6</ele>
        <time>2020-01-26T10:03:08Z</time>
      </trkpt>
      <trkpt lat="45.7863" lon="-1.18109">
        <ele>61.2</ele>
        <time>2020-01-26T10:03:09Z</time>
      </trkpt>
      <trkpt lat="45.78626" lon="-1.18109">
        <ele>61</ele>
        <time>2020-01-26T10:03:10Z</time>
      </trkpt>
      <trkpt lat="45.7862" lon="-1.18106">
        <ele>61</ele>
        <time>2020-01-26T10:03:11Z</time>
      </trkpt>
      <trkpt lat="45.78616" lon="-1.18106">
        <ele>61.2</ele>
        <time>2020-01-26T10:03:12Z</time>
      </trkpt>
      <trkpt lat="45.78611" lon="-1.1811">
        <ele>61.4</ele>
        <time>2020-01-26T10:03:13Z</time>
      </trkpt>
      <trkpt lat="45.78608" lon="-1.18114">
        <ele>61.2</ele>
        <time>2020-01-26T10:03:14Z</time>
      </trkpt>
      <trkpt lat="45.78605" lon="-1.18117">
        <ele>61</ele>
        <time>2020-01-26T10:03:15Z</time>
      </trkpt>
      <trkpt lat="45.78603" lon="-1.18121">
        <ele>60.4</ele>
        <time>2020-01-26T10:03:16Z</time>
      </trkpt>
      <trkpt lat="45.78601" lon="-1.18124">
        <ele>59.8</ele>
        <time>2020-01-26T10:03:17Z</time>
      </trkpt>
      <trkpt lat="45.78602" lon="-1.18128">
        <ele>58.8</ele>
        <time>2020-01-26T10:03:18Z</time>
      </trkpt>
      <trkpt lat="45.78601" lon="-1.18133">
        <ele>58.2</ele>
        <time>2020-01-26T10:03:19Z</time>
      </trkpt>
      <trkpt lat="45.786" lon="-1.18139">
        <ele>57.6</ele>
        <time>2020-01-26T10:03:20Z</time>
      </trkpt>
      <trkpt lat="45.78599" lon="-1.18146">
        <ele>57.2</ele>
        <time>2020-01-26T10:03:21Z</time>
      </trkpt>
      <trkpt lat="45.78601" lon="-1.1815">
        <ele>56.8</ele>
        <time>2020-01-26T10:03:22Z</time>
      </trkpt>
      <trkpt lat="45.78603" lon="-1.18154">
        <ele>56.6</ele>
        <time>2020-01-26T10:03:23Z</time>
      </trkpt>
      <trkpt lat="45.78606" lon="-1.18159">
        <ele>56.6</ele>
        <time>2020-01-26T10:03:24Z</time>
      </trkpt>
      <trkpt lat="45.78608" lon="-1.18165">
        <ele>56.6</ele>
        <time>2020-01-26T10:03:25Z</time>
      </trkpt>
      <trkpt lat="45.78609" lon="-1.18171">
        <ele>56.4</ele>
        <time>2020-01-26T10:03:26Z</time>
      </trkpt>
      <trkpt lat="45.7861" lon="-1.18175">
        <ele>56</ele>
        <time>2020-01-26T10:03:27Z</time>
      </trkpt>
      <trkpt lat="45.78611" lon="-1.1818">
        <ele>55.6</ele>
        <time>2020-01-26T10:03:28Z</time>
      </trkpt>
      <trkpt lat="45.78613" lon="-1.18188">
        <ele>55.2</ele>
        <time>2020-01-26T10:03:29Z</time>
      </trkpt>
      <trkpt lat="45.78613" lon="-1.18196">
        <ele>54.6</ele>
        <time>2020-01-26T10:03:30Z</time>
      </trkpt>
      <trkpt lat="45.78612" lon="-1.18204">
        <ele>54.4</ele>
        <time>2020-01-26T10:03:31Z</time>
      </trkpt>
      <trkpt lat="45.78611" lon="-1.18212">
        <ele>54</ele>
        <time>2020-01-26T10:03:32Z</time>
      </trkpt>
      <trkpt lat="45.78606" lon="-1.18217">
        <ele>53.6</ele>
        <time>2020-01-26T10:03:33Z</time>
      </trkpt>
      <trkpt lat="45.78602" lon="-1.18221">
        <ele>53</ele>
        <time>2020-01-26T10:03:34Z</time>
      </trkpt>
      <trkpt lat="45.78598" lon="-1.18225">
        <ele>52.4</ele>
        <time>2020-01-26T10:03:35Z</time>
      </trkpt>
      <trkpt lat="45.78596" lon="-1.1823">
        <ele>52</ele>
        <time>2020-01-26T10:03:36Z</time>
      </trkpt>
      <trkpt lat="45.78594" lon="-1.18233">
        <ele>52</ele>
        <time>2020-01-26T10:03:37Z</time>
      </trkpt>
      <trkpt lat="45.78591" lon="-1.18236">
        <ele>52</ele>
        <time>2020-01-26T10:03:38Z</time>
      </trkpt>
      <trkpt lat="45.78588" lon="-1.18239">
        <ele>51.8</ele>
        <time>2020-01-26T10:03:39Z</time>
      </trkpt>
      <trkpt lat="45.78588" lon="-1.18242">
        <ele>51.6</ele>
        <time>2020-01-26T10:03:40Z</time>
      </trkpt>
      <trkpt lat="45.78588" lon="-1.18246">
        <ele>51.2</ele>
        <time>2020-01-26T10:03:41Z</time>
      </trkpt>
      <trkpt lat="45.78589" lon="-1.18251">
        <ele>50.8</ele>
        <time>2020-01-26T10:03:42Z</time>
      </trkpt>
      <trkpt lat="45.78588" lon="-1.18256">
        <ele>50.6</ele>
        <time>2020-01-26T10:03:43Z</time>
      </trkpt>
      <trkpt lat="45.78589" lon="-1.18262">
        <ele>50.8</ele>
        <time>2020-01-26T10:03:44Z</time>
      </trkpt>
      <trkpt lat="45.78588" lon="-1.18268">
        <ele>51.2</ele>
        <time>2020-01-26T10:03:45Z</time>
      </trkpt>
      <trkpt lat="45.78588" lon="-1.18273">
        <ele>51.6</ele>
        <time>2020-01-26T10:03:46Z</time>
      </trkpt>
      <trkpt lat="45.78589" lon="-1.18279">
        <ele>52.2</ele>
        <time>2020-01-26T10:03:47Z</time>
      </trkpt>
      <trkpt lat="45.7859" lon="-1.18284">
        <ele>52.4</ele>
        <time>2020-01-26T10:03:48Z</time>
      </trkpt>
      <trkpt lat="45.7859" lon="-1.18289">
        <ele>52.6</ele>
        <time>2020-01-26T10:03:49Z</time>
      </trkpt>
      <trkpt lat="45.7859" lon="-1.18294">
        <ele>52.6</ele>
        <time>2020-01-26T10:03:50Z</time>
      </trkpt>
      <trkpt lat="45.7859" lon="-1.18299">
        <ele>52.4</ele>
        <time>2020-01-26T10:03:51Z</time>
      </trkpt>
      <trkpt lat="45.78591" lon="-1.18303">
        <ele>52.6</ele>
        <time>2020-01-26T10:03:52Z</time>
      </trkpt>
      <trkpt lat="45.78589" lon="-1.18306">
        <ele>52.4</ele>
        <time>2020-01-26T10:03:53Z</time>
      </trkpt>
      <trkpt lat="45.78585" lon="-1.18304">
        <ele>52.4</ele>
        <time>2020-01-26T10:03:54Z</time>
      </trkpt>
      <trkpt lat="45.78583" lon="-1.18306">
        <ele>52</ele>
        <time>2020-01-26T10:03:55Z</time>
      </trkpt>
      <trkpt lat="45.78582" lon="-1.18311">
        <ele>51.8</ele>
        <time>2020-01-26T10:03:56Z</time>
      </trkpt>
      <trkpt lat="45.78581" lon="-1.18315">
        <ele>51.6</ele>
        <time>2020-01-26T10:03:57Z</time>
      </trkpt>
      <trkpt lat="45.78581" lon="-1.18317">
        <ele>51.4</ele>
        <time>2020-01-26T10:03:58Z</time>
      </trkpt>
      <trkpt lat="45.78581" lon="-1.18319">
        <ele>51.2</ele>
        <time>2020-01-26T10:03:59Z</time>
      </trkpt>
      <trkpt lat="45.78582" lon="-1.18322">
        <ele>51</ele>
        <time>2020-01-26T10:04:00Z</time>
      </trkpt>
      <trkpt lat="45.78581" lon="-1.18325">
        <ele>50.8</ele>
        <time>2020-01-26T10:04:01Z</time>
      </trkpt>
      <trkpt lat="45.7858" lon="-1.1833">
        <ele>50.6</ele>
        <time>2020-01-26T10:04:02Z</time>
      </trkpt>
      <trkpt lat="45.78579" lon="-1.18333">
        <ele>50.2</ele>
        <time>2020-01-26T10:04:03Z</time>
      </trkpt>
      <trkpt lat="45.78577" lon="-1.18337">
        <ele>49.8</ele>
        <time>2020-01-26T10:04:04Z</time>
      </trkpt>
      <trkpt lat="45.78576" lon="-1.18343">
        <ele>49.6</ele>
        <time>2020-01-26T10:04:05Z</time>
      </trkpt>
      <trkpt lat="45.78575" lon="-1.18349">
        <ele>49.4</ele>
        <time>2020-01-26T10:04:06Z</time>
      </trkpt>
      <trkpt lat="45.78573" lon="-1.18354">
        <ele>49.4</ele>
        <time>2020-01-26T10:04:07Z</time>
      </trkpt>
      <trkpt lat="45.7857" lon="-1.18357">
        <ele>49</ele>
        <time>2020-01-26T10:04:08Z</time>
      </trkpt>
      <trkpt lat="45.78566" lon="-1.18361">
        <ele>49</ele>
        <time>2020-01-26T10:04:09Z</time>
      </trkpt>
      <trkpt lat="45.78564" lon="-1.18364">
        <ele>49.2</ele>
        <time>2020-01-26T10:04:10Z</time>
      </trkpt>
      <trkpt lat="45.78562" lon="-1.18367">
        <ele>49.2</ele>
        <time>2020-01-26T10:04:11Z</time>
      </trkpt>
      <trkpt lat="45.7856" lon="-1.18369">
        <ele>49.2</ele>
        <time>2020-01-26T10:04:12Z</time>
      </trkpt>
      <trkpt lat="45.78557" lon="-1.18373">
        <ele>49.2</ele>
        <time>2020-01-26T10:04:13Z</time>
      </trkpt>
      <trkpt lat="45.78556" lon="-1.18374">
        <ele>49.6</ele>
        <time>2020-01-26T10:04:14Z</time>
      </trkpt>
      <trkpt lat="45.78555" lon="-1.18375">
        <ele>50</ele>
        <time>2020-01-26T10:04:15Z</time>
      </trkpt>
      <trkpt lat="45.78554" lon="-1.18378">
        <ele>50.2</ele>
        <time>2020-01-26T10:04:16Z</time>
      </trkpt>
      <trkpt lat="45.78552" lon="-1.1838">
        <ele>50.2</ele>
        <time>2020-01-26T10:04:17Z</time>
      </trkpt>
      <trkpt lat="45.78552" lon="-1.18383">
        <ele>50.2</ele>
        <time>2020-01-26T10:04:18Z</time>
      </trkpt>
      <trkpt lat="45.78552" lon="-1.18385">
        <ele>50.4</ele>
        <time>2020-01-26T10:04:19Z</time>
      </trkpt>
      <trkpt lat="45.7855" lon="-1.18388">
        <ele>50.6</ele>
        <time>2020-01-26T10:04:20Z</time>
      </trkpt>
      <trkpt lat="45.78548" lon="-1.18389">
        <ele>50.6</ele>
        <time>2020-01-26T10:04:21Z</time>
      </trkpt>
      <trkpt lat="45.78545" lon="-1.1839">
        <ele>50.8</ele>
        <time>2020-01-26T10:04:22Z</time>
      </trkpt>
      <trkpt lat="45.78542" lon="-1.18389">
        <ele>50.8</ele>
        <time>2020-01-26T10:04:23Z</time>
      </trkpt>
      <trkpt lat="45.78538" lon="-1.18389">
        <ele>50.6</ele>
        <time>2020-01-26T10:04:24Z</time>
      </trkpt>
      <trkpt lat="45.78534" lon="-1.18387">
        <ele>50</ele>
        <time>2020-01-26T10:04:25Z</time>
      </trkpt>
      <trkpt lat="45.7853" lon="-1.18385">
        <ele>49.4</ele>
        <time>2020-01-26T10:04:26Z</time>
      </trkpt>
      <trkpt lat="45.78528" lon="-1.18387">
        <ele>49.2</ele>
        <time>2020-01-26T10:04:27Z</time>
      </trkpt>
      <trkpt lat="45.78525" lon="-1.18387">
        <ele>49.4</ele>
        <time>2020-01-26T10:04:28Z</time>
      </trkpt>
      <trkpt lat="45.78524" lon="-1.18387">
        <ele>49.4</ele>
        <time>2020-01-26T10:04:29Z</time>
      </trkpt>
      <trkpt lat="45.78522" lon="-1.18387">
        <ele>49.2</ele>
        <time>2020-01-26T10:04:30Z</time>
      </trkpt>
      <trkpt lat="45.78521" lon="-1.18388">
        <ele>48.2</ele>
        <time>2020-01-26T10:04:31Z</time>
      </trkpt>
      <trkpt lat="45.78521" lon="-1.18389">
        <ele>47.4</ele>
        <time>2020-01-26T10:04:32Z</time>
      </trkpt>
      <trkpt lat="45.78521" lon="-1.18391">
        <ele>46.8</ele>
        <time>2020-01-26T10:04:33Z</time>
      </trkpt>
      <trkpt lat="45.7852" lon="-1.18394">
        <ele>46.4</ele>
        <time>2020-01-26T10:04:34Z</time>
      </trkpt>
      <trkpt lat="45.78519" lon="-1.18398">
        <ele>46</ele>
        <time>2020-01-26T10:04:35Z</time>
      </trkpt>
      <trkpt lat="45.78519" lon="-1.18401">
        <ele>45.8</ele>
        <time>2020-01-26T10:04:36Z</time>
      </trkpt>
      <trkpt lat="45.78515" lon="-1.18407">
        <ele>45.4</ele>
        <time>2020-01-26T10:04:37Z</time>
      </trkpt>
      <trkpt lat="45.78513" lon="-1.18411">
        <ele>45</ele>
        <time>2020-01-26T10:04:38Z</time>
      </trkpt>
      <trkpt lat="45.78512" lon="-1.18415">
        <ele>44.8</ele>
        <time>2020-01-26T10:04:39Z</time>
      </trkpt>
      <trkpt lat="45.78511" lon="-1.1842">
        <ele>44.8</ele>
        <time>2020-01-26T10:04:40Z</time>
      </trkpt>
      <trkpt lat="45.7851" lon="-1.18423">
        <ele>44.8</ele>
        <time>2020-01-26T10:04:41Z</time>
      </trkpt>
      <trkpt lat="45.78508" lon="-1.18427">
        <ele>44.8</ele>
        <time>2020-01-26T10:04:42Z</time>
      </trkpt>
      <trkpt lat="45.78508" lon="-1.18431">
        <ele>45</ele>
        <time>2020-01-26T10:04:43Z</time>
      </trkpt>
      <trkpt lat="45.78508" lon="-1.18434">
        <ele>45.2</ele>
        <time>2020-01-26T10:04:44Z</time>
      </trkpt>
      <trkpt lat="45.78507" lon="-1.18436">
        <ele>45.4</ele>
        <time>2020-01-26T10:04:45Z</time>
      </trkpt>
      <trkpt lat="45.78508" lon="-1.18439">
        <ele>45.8</ele>
        <time>2020-01-26T10:04:46Z</time>
      </trkpt>
      <trkpt lat="45.78508" lon="-1.18442">
        <ele>46.2</ele>
        <time>2020-01-26T10:04:47Z</time>
      </trkpt>
      <trkpt lat="45.78509" lon="-1.18446">
        <ele>46.4</ele>
        <time>2020-01-26T10:04:48Z</time>
      </trkpt>
      <trkpt lat="45.78509" lon="-1.18448">
        <ele>46.8</ele>
        <time>2020-01-26T10:04:49Z</time>
      </trkpt>
      <trkpt lat="45.78509" lon="-1.1845">
        <ele>47</ele>
        <time>2020-01-26T10:04:50Z</time>
      </trkpt>
      <trkpt lat="45.78509" lon="-1.18452">
        <ele>47.4</ele>
        <time>2020-01-26T10:04:51Z</time>
      </trkpt>
      <trkpt lat="45.7851" lon="-1.18455">
        <ele>47.8</ele>
        <time>2020-01-26T10:04:52Z</time>
      </trkpt>
      <trkpt lat="45.7851" lon="-1.18456">
        <ele>48.6</ele>
        <time>2020-01-26T10:04:53Z</time>
      </trkpt>
      <trkpt lat="45.78509" lon="-1.18459">
        <ele>49.2</ele>
        <time>2020-01-26T10:04:54Z</time>
      </trkpt>
      <trkpt lat="45.78509" lon="-1.18461">
        <ele>50</ele>
        <time>2020-01-26T10:04:55Z</time>
      </trkpt>
      <trkpt lat="45.78509" lon="-1.18464">
        <ele>50.4</ele>
        <time>2020-01-26T10:04:56Z</time>
      </trkpt>
      <trkpt lat="45.78508" lon="-1.18466">
        <ele>50.8</ele>
        <time>2020-01-26T10:04:57Z</time>
      </trkpt>
      <trkpt lat="45.78509" lon="-1.18469">
        <ele>51.2</ele>
        <time>2020-01-26T10:04:58Z</time>
      </trkpt>
      <trkpt lat="45.78509" lon="-1.18471">
        <ele>51.6</ele>
        <time>2020-01-26T10:04:59Z</time>
      </trkpt>
      <trkpt lat="45.7851" lon="-1.18472">
        <ele>52.2</ele>
        <time>2020-01-26T10:05:00Z</time>
      </trkpt>
      <trkpt lat="45.78511" lon="-1.18473">
        <ele>53</ele>
        <time>2020-01-26T10:05:01Z</time>
      </trkpt>
      <trkpt lat="45.78513" lon="-1.18473">
        <ele>53.4</ele>
        <time>2020-01-26T10:05:02Z</time>
      </trkpt>
      <trkpt lat="45.78514" lon="-1.18475">
        <ele>53.8</ele>
        <time>2020-01-26T10:05:03Z</time>
      </trkpt>
      <trkpt lat="45.78515" lon="-1.18477">
        <ele>54.2</ele>
        <time>2020-01-26T10:05:04Z</time>
      </trkpt>
      <trkpt lat="45.78515" lon="-1.18478">
        <ele>54</ele>
        <time>2020-01-26T10:05:05Z</time>
      </trkpt>
      <trkpt lat="45.78515" lon="-1.1848">
        <ele>54</ele>
        <time>2020-01-26T10:05:06Z</time>
      </trkpt>
      <trkpt lat="45.78516" lon="-1.18483">
        <ele>54.4</ele>
        <time>2020-01-26T10:05:07Z</time>
      </trkpt>
      <trkpt lat="45.78515" lon="-1.18485">
        <ele>55</ele>
        <time>2020-01-26T10:05:08Z</time>
      </trkpt>
      <trkpt lat="45.78514" lon="-1.18486">
        <ele>55.6</ele>
        <time>2020-01-26T10:05:09Z</time>
      </trkpt>
      <trkpt lat="45.78513" lon="-1.18486">
        <ele>55.8</ele>
        <time>2020-01-26T10:05:10Z</time>
      </trkpt>
      <trkpt lat="45.78512" lon="-1.18487">
        <ele>56.2</ele>
        <time>2020-01-26T10:05:11Z</time>
      </trkpt>
      <trkpt lat="45.78512" lon="-1.18488">
        <ele>56.4</ele>
        <time>2020-01-26T10:05:12Z</time>
      </trkpt>
      <trkpt lat="45.7851" lon="-1.18489">
        <ele>56.6</ele>
        <time>2020-01-26T10:05:13Z</time>
      </trkpt>
      <trkpt lat="45.78509" lon="-1.18491">
        <ele>56.8</ele>
        <time>2020-01-26T10:05:14Z</time>
      </trkpt>
      <trkpt lat="45.78508" lon="-1.18492">
        <ele>57</ele>
        <time>2020-01-26T10:05:15Z</time>
      </trkpt>
      <trkpt lat="45.78508" lon="-1.18494">
        <ele>57</ele>
        <time>2020-01-26T10:05:16Z</time>
      </trkpt>
      <trkpt lat="45.78508" lon="-1.18496">
        <ele>57.2</ele>
        <time>2020-01-26T10:05:17Z</time>
      </trkpt>
      <trkpt lat="45.78508" lon="-1.18497">
        <ele>57.4</ele>
        <time>2020-01-26T10:05:18Z</time>
      </trkpt>
      <trkpt lat="45.78506" lon="-1.18498">
        <ele>57.6</ele>
        <time>2020-01-26T10:05:19Z</time>
      </trkpt>
      <trkpt lat="45.78506" lon="-1.18499">
        <ele>57.4</ele>
        <time>2020-01-26T10:05:20Z</time>
      </trkpt>
      <trkpt lat="45.78505" lon="-1.185">
        <ele>57.2</ele>
        <time>2020-01-26T10:05:21Z</time>
      </trkpt>
      <trkpt lat="45.78504" lon="-1.18501">
        <ele>57</ele>
        <time>2020-01-26T10:05:22Z</time>
      </trkpt>
      <trkpt lat="45.78503" lon="-1.18503">
        <ele>56.6</ele>
        <time>2020-01-26T10:05:23Z</time>
      </trkpt>
      <trkpt lat="45.78503" lon="-1.18504">
        <ele>56.2</ele>
        <time>2020-01-26T10:05:24Z</time>
      </trkpt>
      <trkpt lat="45.78501" lon="-1.18505">
        <ele>56.2</ele>
        <time>2020-01-26T10:05:25Z</time>
      </trkpt>
      <trkpt lat="45.785" lon="-1.18506">
        <ele>56.2</ele>
        <time>2020-01-26T10:05:26Z</time>
      </trkpt>
      <trkpt lat="45.78499" lon="-1.18508">
        <ele>56.4</ele>
        <time>2020-01-26T10:05:27Z</time>
      </trkpt>
      <trkpt lat="45.785" lon="-1.18509">
        <ele>56.2</ele>
        <time>2020-01-26T10:05:28Z</time>
      </trkpt>
      <trkpt lat="45.78499" lon="-1.18512">
        <ele>56</ele>
        <time>2020-01-26T10:05:29Z</time>
      </trkpt>
      <trkpt lat="45.785" lon="-1.18515">
        <ele>55.4</ele>
        <time>2020-01-26T10:05:30Z</time>
      </trkpt>
      <trkpt lat="45.785" lon="-1.18518">
        <ele>54.6</ele>
        <time>2020-01-26T10:05:31Z</time>
      </trkpt>
      <trkpt lat="45.78499" lon="-1.1852">
        <ele>53.8</ele>
        <time>2020-01-26T10:05:32Z</time>
      </trkpt>
      <trkpt lat="45.78498" lon="-1.18522">
        <ele>53.2</ele>
        <time>2020-01-26T10:05:33Z</time>
      </trkpt>
      <trkpt lat="45.78498" lon="-1.18523">
        <ele>52.6</ele>
        <time>2020-01-26T10:05:34Z</time>
      </trkpt>
      <trkpt lat="45.78497" lon="-1.18524">
        <ele>52.2</ele>
        <time>2020-01-26T10:05:35Z</time>
      </trkpt>
      <trkpt lat="45.78497" lon="-1.18526">
        <ele>52.2</ele>
        <time>2020-01-26T10:05:36Z</time>
      </trkpt>
      <trkpt lat="45.78497" lon="-1.18526">
        <ele>52.2</ele>
        <time>2020-01-26T10:05:37Z</time>
      </trkpt>
      <trkpt lat="45.78496" lon="-1.18529">
        <ele>52</ele>
        <time>2020-01-26T10:05:38Z</time>
      </trkpt>
      <trkpt lat="45.78496" lon="-1.1853">
        <ele>51.6</ele>
        <time>2020-01-26T10:05:39Z</time>
      </trkpt>
      <trkpt lat="45.78496" lon="-1.18532">
        <ele>51.2</ele>
        <time>2020-01-26T10:05:40Z</time>
      </trkpt>
      <trkpt lat="45.78495" lon="-1.18534">
        <ele>50.8</ele>
        <time>2020-01-26T10:05:41Z</time>
      </trkpt>
      <trkpt lat="45.78496" lon="-1.18537">
        <ele>50.2</ele>
        <time>2020-01-26T10:05:42Z</time>
      </trkpt>
      <trkpt lat="45.78496" lon="-1.18539">
        <ele>49.6</ele>
        <time>2020-01-26T10:05:43Z</time>
      </trkpt>
      <trkpt lat="45.78496" lon="-1.1854">
        <ele>49.4</ele>
        <time>2020-01-26T10:05:44Z</time>
      </trkpt>
      <trkpt lat="45.78497" lon="-1.18541">
        <ele>49.4</ele>
        <time>2020-01-26T10:05:45Z</time>
      </trkpt>
      <trkpt lat="45.78497" lon="-1.18543">
        <ele>49</ele>
        <time>2020-01-26T10:05:46Z</time>
      </trkpt>
      <trkpt lat="45.78497" lon="-1.18545">
        <ele>48.8</ele>
        <time>2020-01-26T10:05:47Z</time>
      </trkpt>
      <trkpt lat="45.78497" lon="-1.18547">
        <ele>48.4</ele>
        <time>2020-01-26T10:05:48Z</time>
      </trkpt>
      <trkpt lat="45.78497" lon="-1.18548">
        <ele>48</ele>
        <time>2020-01-26T10:05:49Z</time>
      </trkpt>
      <trkpt lat="45.78498" lon="-1.1855">
        <ele>47.8</ele>
        <time>2020-01-26T10:05:50Z</time>
      </trkpt>
      <trkpt lat="45.78498" lon="-1.18553">
        <ele>47.8</ele>
        <time>2020-01-26T10:05:51Z</time>
      </trkpt>
      <trkpt lat="45.78499" lon="-1.18554">
        <ele>47.8</ele>
        <time>2020-01-26T10:05:52Z</time>
      </trkpt>
      <trkpt lat="45.78498" lon="-1.18555">
        <ele>47.8</ele>
        <time>2020-01-26T10:05:53Z</time>
      </trkpt>
      <trkpt lat="45.78499" lon="-1.18556">
        <ele>48</ele>
        <time>2020-01-26T10:05:54Z</time>
      </trkpt>
      <trkpt lat="45.78498" lon="-1.18558">
        <ele>48</ele>
        <time>2020-01-26T10:05:55Z</time>
      </trkpt>
      <trkpt lat="45.78498" lon="-1.1856">
        <ele>47.6</ele>
        <time>2020-01-26T10:05:56Z</time>
      </trkpt>
      <trkpt lat="45.78497" lon="-1.18562">
        <ele>47.4</ele>
        <time>2020-01-26T10:05:57Z</time>
      </trkpt>
      <trkpt lat="45.78497" lon="-1.18563">
        <ele>47.2</ele>
        <time>2020-01-26T10:05:58Z</time>
      </trkpt>
      <trkpt lat="45.78497" lon="-1.18565">
        <ele>46.8</ele>
        <time>2020-01-26T10:05:59Z</time>
      </trkpt>
      <trkpt lat="45.78497" lon="-1.18566">
        <ele>47.2</ele>
        <time>2020-01-26T10:06:00Z</time>
      </trkpt>
      <trkpt lat="45.78497" lon="-1.18567">
        <ele>47.4</ele>
        <time>2020-01-26T10:06:01Z</time>
      </trkpt>
      <trkpt lat="45.78498" lon="-1.18569">
        <ele>47.8</ele>
        <time>2020-01-26T10:06:02Z</time>
      </trkpt>
      <trkpt lat="45.78499" lon="-1.1857">
        <ele>48.4</ele>
        <time>2020-01-26T10:06:03Z</time>
      </trkpt>
      <trkpt lat="45.78501" lon="-1.1857">
        <ele>49</ele>
        <time>2020-01-26T10:06:04Z</time>
      </trkpt>
      <trkpt lat="45.78503" lon="-1.18571">
        <ele>49.6</ele>
        <time>2020-01-26T10:06:05Z</time>
      </trkpt>
      <trkpt lat="45.78505" lon="-1.18572">
        <ele>50</ele>
        <time>2020-01-26T10:06:06Z</time>
      </trkpt>
      <trkpt lat="45.78506" lon="-1.18575">
        <ele>50.4</ele>
        <time>2020-01-26T10:06:07Z</time>
      </trkpt>
      <trkpt lat="45.78508" lon="-1.18578">
        <ele>50.8</ele>
        <time>2020-01-26T10:06:08Z</time>
      </trkpt>
      <trkpt lat="45.78509" lon="-1.18581">
        <ele>51.2</ele>
        <time>2020-01-26T10:06:09Z</time>
      </trkpt>
      <trkpt lat="45.7851" lon="-1.18584">
        <ele>51.6</ele>
        <time>2020-01-26T10:06:10Z</time>
      </trkpt>
      <trkpt lat="45.78511" lon="-1.18586">
        <ele>52.2</ele>
        <time>2020-01-26T10:06:11Z</time>
      </trkpt>
      <trkpt lat="45.78513" lon="-1.18587">
        <ele>53</ele>
        <time>2020-01-26T10:06:12Z</time>
      </trkpt>
      <trkpt lat="45.78514" lon="-1.18587">
        <ele>53.8</ele>
        <time>2020-01-26T10:06:13Z</time>
      </trkpt>
      <trkpt lat="45.78517" lon="-1.18587">
        <ele>54.8</ele>
        <time>2020-01-26T10:06:14Z</time>
      </trkpt>
      <trkpt lat="45.7852" lon="-1.18588">
        <ele>55.6</ele>
        <time>2020-01-26T10:06:15Z</time>
      </trkpt>
      <trkpt lat="45.78522" lon="-1.1859">
        <ele>56.8</ele>
        <time>2020-01-26T10:06:16Z</time>
      </trkpt>
      <trkpt lat="45.78525" lon="-1.18593">
        <ele>57.6</ele>
        <time>2020-01-26T10:06:17Z</time>
      </trkpt>
      <trkpt lat="45.78527" lon="-1.18595">
        <ele>58.4</ele>
        <time>2020-01-26T10:06:18Z</time>
      </trkpt>
      <trkpt lat="45.78529" lon="-1.18597">
        <ele>59.6</ele>
        <time>2020-01-26T10:06:19Z</time>
      </trkpt>
      <trkpt lat="45.7853" lon="-1.18599">
        <ele>60.4</ele>
        <time>2020-01-26T10:06:20Z</time>
      </trkpt>
      <trkpt lat="45.78531" lon="-1.186">
        <ele>61.6</ele>
        <time>2020-01-26T10:06:21Z</time>
      </trkpt>
      <trkpt lat="45.78534" lon="-1.186">
        <ele>62.2</ele>
        <time>2020-01-26T10:06:22Z</time>
      </trkpt>
      <trkpt lat="45.78537" lon="-1.186">
        <ele>62.6</ele>
        <time>2020-01-26T10:06:23Z</time>
      </trkpt>
      <trkpt lat="45.78539" lon="-1.18603">
        <ele>63.2</ele>
        <time>2020-01-26T10:06:24Z</time>
      </trkpt>
      <trkpt lat="45.78541" lon="-1.18608">
        <ele>63.8</ele>
        <time>2020-01-26T10:06:25Z</time>
      </trkpt>
      <trkpt lat="45.78542" lon="-1.18612">
        <ele>64.2</ele>
        <time>2020-01-26T10:06:26Z</time>
      </trkpt>
      <trkpt lat="45.78542" lon="-1.18616">
        <ele>64.8</ele>
        <time>2020-01-26T10:06:27Z</time>
      </trkpt>
      <trkpt lat="45.78544" lon="-1.18618">
        <ele>65</ele>
        <time>2020-01-26T10:06:28Z</time>
      </trkpt>
      <trkpt lat="45.78545" lon="-1.18622">
        <ele>65</ele>
        <time>2020-01-26T10:06:29Z</time>
      </trkpt>
      <trkpt lat="45.78547" lon="-1.18625">
        <ele>64.8</ele>
        <time>2020-01-26T10:06:30Z</time>
      </trkpt>
      <trkpt lat="45.78548" lon="-1.18628">
        <ele>64.6</ele>
        <time>2020-01-26T10:06:31Z</time>
      </trkpt>
      <trkpt lat="45.78548" lon="-1.1863">
        <ele>64.8</ele>
        <time>2020-01-26T10:06:32Z</time>
      </trkpt>
      <trkpt lat="45.78548" lon="-1.18635">
        <ele>65</ele>
        <time>2020-01-26T10:06:33Z</time>
      </trkpt>
      <trkpt lat="45.78549" lon="-1.18638">
        <ele>65.6</ele>
        <time>2020-01-26T10:06:34Z</time>
      </trkpt>
      <trkpt lat="45.7855" lon="-1.18641">
        <ele>66.2</ele>
        <time>2020-01-26T10:06:35Z</time>
      </trkpt>
      <trkpt lat="45.78549" lon="-1.18644">
        <ele>66.6</ele>
        <time>2020-01-26T10:06:36Z</time>
      </trkpt>
      <trkpt lat="45.78549" lon="-1.18648">
        <ele>67</ele>
        <time>2020-01-26T10:06:37Z</time>
      </trkpt>
      <trkpt lat="45.78549" lon="-1.18651">
        <ele>67.2</ele>
        <time>2020-01-26T10:06:38Z</time>
      </trkpt>
      <trkpt lat="45.78551" lon="-1.18654">
        <ele>67.2</ele>
        <time>2020-01-26T10:06:39Z</time>
      </trkpt>
      <trkpt lat="45.78551" lon="-1.18657">
        <ele>67.6</ele>
        <time>2020-01-26T10:06:40Z</time>
      </trkpt>
      <trkpt lat="45.78552" lon="-1.1866">
        <ele>68</ele>
        <time>2020-01-26T10:06:41Z</time>
      </trkpt>
      <trkpt lat="45.78551" lon="-1.18662">
        <ele>68.2</ele>
        <time>2020-01-26T10:06:42Z</time>
      </trkpt>
      <trkpt lat="45.78551" lon="-1.18665">
        <ele>69</ele>
        <time>2020-01-26T10:06:43Z</time>
      </trkpt>
      <trkpt lat="45.78551" lon="-1.18668">
        <ele>69.4</ele>
        <time>2020-01-26T10:06:44Z</time>
      </trkpt>
      <trkpt lat="45.78552" lon="-1.18671">
        <ele>70.2</ele>
        <time>2020-01-26T10:06:45Z</time>
      </trkpt>
      <trkpt lat="45.78552" lon="-1.18674">
        <ele>70.8</ele>
        <time>2020-01-26T10:06:46Z</time>
      </trkpt>
      <trkpt lat="45.78555" lon="-1.18678">
        <ele>71.2</ele>
        <time>2020-01-26T10:06:47Z</time>
      </trkpt>
      <trkpt lat="45.78557" lon="-1.18681">
        <ele>71.4</ele>
        <time>2020-01-26T10:06:48Z</time>
      </trkpt>
      <trkpt lat="45.78559" lon="-1.18685">
        <ele>71.6</ele>
        <time>2020-01-26T10:06:49Z</time>
      </trkpt>
      <trkpt lat="45.78561" lon="-1.18688">
        <ele>72.2</ele>
        <time>2020-01-26T10:06:50Z</time>
      </trkpt>
      <trkpt lat="45.78562" lon="-1.18691">
        <ele>73</ele>
        <time>2020-01-26T10:06:51Z</time>
      </trkpt>
      <trkpt lat="45.78563" lon="-1.18694">
        <ele>73.6</ele>
        <time>2020-01-26T10:06:52Z</time>
      </trkpt>
      <trkpt lat="45.78563" lon="-1.18699">
        <ele>74.2</ele>
        <time>2020-01-26T10:06:53Z</time>
      </trkpt>
      <trkpt lat="45.78564" lon="-1.18705">
        <ele>74.8</ele>
        <time>2020-01-26T10:06:54Z</time>
      </trkpt>
      <trkpt lat="45.78563" lon="-1.1871">
        <ele>75.2</ele>
        <time>2020-01-26T10:06:55Z</time>
      </trkpt>
      <trkpt lat="45.78562" lon="-1.18714">
        <ele>75.4</ele>
        <time>2020-01-26T10:06:56Z</time>
      </trkpt>
      <trkpt lat="45.78562" lon="-1.1872">
        <ele>75.6</ele>
        <time>2020-01-26T10:06:57Z</time>
      </trkpt>
      <trkpt lat="45.78563" lon="-1.18727">
        <ele>76</ele>
        <time>2020-01-26T10:06:58Z</time>
      </trkpt>
      <trkpt lat="45.78564" lon="-1.18733">
        <ele>76.4</ele>
        <time>2020-01-26T10:06:59Z</time>
      </trkpt>
      <trkpt lat="45.78567" lon="-1.18735">
        <ele>76.8</ele>
        <time>2020-01-26T10:07:00Z</time>
      </trkpt>
      <trkpt lat="45.78571" lon="-1.18737">
        <ele>77.2</ele>
        <time>2020-01-26T10:07:01Z</time>
      </trkpt>
      <trkpt lat="45.78576" lon="-1.18738">
        <ele>77.6</ele>
        <time>2020-01-26T10:07:02Z</time>
      </trkpt>
      <trkpt lat="45.78579" lon="-1.18739">
        <ele>78</ele>
        <time>2020-01-26T10:07:03Z</time>
      </trkpt>
      <trkpt lat="45.78583" lon="-1.1874">
        <ele>78</ele>
        <time>2020-01-26T10:07:04Z</time>
      </trkpt>
      <trkpt lat="45.78585" lon="-1.18741">
        <ele>77.8</ele>
        <time>2020-01-26T10:07:05Z</time>
      </trkpt>
      <trkpt lat="45.78588" lon="-1.18744">
        <ele>77.6</ele>
        <time>2020-01-26T10:07:06Z</time>
      </trkpt>
      <trkpt lat="45.78587" lon="-1.18747">
        <ele>77.2</ele>
        <time>2020-01-26T10:07:07Z</time>
      </trkpt>
      <trkpt lat="45.78588" lon="-1.1875">
        <ele>76.8</ele>
        <time>2020-01-26T10:07:08Z</time>
      </trkpt>
      <trkpt lat="45.78589" lon="-1.18755">
        <ele>76.4</ele>
        <time>2020-01-26T10:07:09Z</time>
      </trkpt>
      <trkpt lat="45.7859" lon="-1.1876">
        <ele>76</ele>
        <time>2020-01-26T10:07:10Z</time>
      </trkpt>
      <trkpt lat="45.78592" lon="-1.18765">
        <ele>76</ele>
        <time>2020-01-26T10:07:11Z</time>
      </trkpt>
      <trkpt lat="45.78593" lon="-1.18771">
        <ele>76</ele>
        <time>2020-01-26T10:07:12Z</time>
      </trkpt>
      <trkpt lat="45.78594" lon="-1.18777">
        <ele>75.8</ele>
        <time>2020-01-26T10:07:13Z</time>
      </trkpt>
      <trkpt lat="45.78595" lon="-1.18782">
        <ele>75.8</ele>
        <time>2020-01-26T10:07:14Z</time>
      </trkpt>
      <trkpt lat="45.78596" lon="-1.18787">
        <ele>76</ele>
        <time>2020-01-26T10:07:15Z</time>
      </trkpt>
      <trkpt lat="45.78596" lon="-1.18792">
        <ele>76.4</ele>
        <time>2020-01-26T10:07:16Z</time>
      </trkpt>
      <trkpt lat="45.78598" lon="-1.18797">
        <ele>76.6</ele>
        <time>2020-01-26T10:07:17Z</time>
      </trkpt>
      <trkpt lat="45.78599" lon="-1.188">
        <ele>76.4</ele>
        <time>2020-01-26T10:07:18Z</time>
      </trkpt>
      <trkpt lat="45.78597" lon="-1.18805">
        <ele>75.8</ele>
        <time>2020-01-26T10:07:19Z</time>
      </trkpt>
      <trkpt lat="45.78597" lon="-1.18809">
        <ele>75.4</ele>
        <time>2020-01-26T10:07:20Z</time>
      </trkpt>
      <trkpt lat="45.78596" lon="-1.18815">
        <ele>74.6</ele>
        <time>2020-01-26T10:07:21Z</time>
      </trkpt>
      <trkpt lat="45.78594" lon="-1.18818">
        <ele>73.4</ele>
        <time>2020-01-26T10:07:22Z</time>
      </trkpt>
      <trkpt lat="45.78592" lon="-1.18823">
        <ele>72.6</ele>
        <time>2020-01-26T10:07:23Z</time>
      </trkpt>
      <trkpt lat="45.78591" lon="-1.1883">
        <ele>72.2</ele>
        <time>2020-01-26T10:07:24Z</time>
      </trkpt>
      <trkpt lat="45.7859" lon="-1.18838">
        <ele>72</ele>
        <time>2020-01-26T10:07:25Z</time>
      </trkpt>
      <trkpt lat="45.78589" lon="-1.18846">
        <ele>71.6</ele>
        <time>2020-01-26T10:07:26Z</time>
      </trkpt>
      <trkpt lat="45.78587" lon="-1.18854">
        <ele>71.4</ele>
        <time>2020-01-26T10:07:27Z</time>
      </trkpt>
      <trkpt lat="45.78587" lon="-1.1886">
        <ele>70.8</ele>
        <time>2020-01-26T10:07:28Z</time>
      </trkpt>
      <trkpt lat="45.78586" lon="-1.18868">
        <ele>70.6</ele>
        <time>2020-01-26T10:07:29Z</time>
      </trkpt>
      <trkpt lat="45.78584" lon="-1.18873">
        <ele>70.4</ele>
        <time>2020-01-26T10:07:30Z</time>
      </trkpt>
      <trkpt lat="45.78583" lon="-1.18879">
        <ele>70.4</ele>
        <time>2020-01-26T10:07:31Z</time>
      </trkpt>
      <trkpt lat="45.78583" lon="-1.18885">
        <ele>70.2</ele>
        <time>2020-01-26T10:07:32Z</time>
      </trkpt>
      <trkpt lat="45.78582" lon="-1.18892">
        <ele>70.2</ele>
        <time>2020-01-26T10:07:33Z</time>
      </trkpt>
      <trkpt lat="45.78585" lon="-1.189">
        <ele>69.8</ele>
        <time>2020-01-26T10:07:34Z</time>
      </trkpt>
      <trkpt lat="45.78583" lon="-1.18907">
        <ele>69.2</ele>
        <time>2020-01-26T10:07:35Z</time>
      </trkpt>
      <trkpt lat="45.78584" lon="-1.18914">
        <ele>69.2</ele>
        <time>2020-01-26T10:07:36Z</time>
      </trkpt>
      <trkpt lat="45.78583" lon="-1.18922">
        <ele>69</ele>
        <time>2020-01-26T10:07:37Z</time>
      </trkpt>
      <trkpt lat="45.78581" lon="-1.18928">
        <ele>68.8</ele>
        <time>2020-01-26T10:07:38Z</time>
      </trkpt>
      <trkpt lat="45.78582" lon="-1.18933">
        <ele>68.4</ele>
        <time>2020-01-26T10:07:39Z</time>
      </trkpt>
      <trkpt lat="45.78583" lon="-1.18938">
        <ele>68</ele>
        <time>2020-01-26T10:07:40Z</time>
      </trkpt>
      <trkpt lat="45.78585" lon="-1.18943">
        <ele>67.8</ele>
        <time>2020-01-26T10:07:41Z</time>
      </trkpt>
      <trkpt lat="45.78584" lon="-1.18946">
        <ele>67.2</ele>
        <time>2020-01-26T10:07:42Z</time>
      </trkpt>
      <trkpt lat="45.78582" lon="-1.18951">
        <ele>66.8</ele>
        <time>2020-01-26T10:07:43Z</time>
      </trkpt>
      <trkpt lat="45.78582" lon="-1.18957">
        <ele>66.4</ele>
        <time>2020-01-26T10:07:44Z</time>
      </trkpt>
      <trkpt lat="45.78582" lon="-1.18965">
        <ele>66.2</ele>
        <time>2020-01-26T10:07:45Z</time>
      </trkpt>
      <trkpt lat="45.7858" lon="-1.18971">
        <ele>66.2</ele>
        <time>2020-01-26T10:07:46Z</time>
      </trkpt>
      <trkpt lat="45.7858" lon="-1.18978">
        <ele>66.2</ele>
        <time>2020-01-26T10:07:47Z</time>
      </trkpt>
      <trkpt lat="45.78583" lon="-1.18984">
        <ele>66</ele>
        <time>2020-01-26T10:07:48Z</time>
      </trkpt>
      <trkpt lat="45.78586" lon="-1.18988">
        <ele>66</ele>
        <time>2020-01-26T10:07:49Z</time>
      </trkpt>
      <trkpt lat="45.78589" lon="-1.18989">
        <ele>66</ele>
        <time>2020-01-26T10:07:50Z</time>
      </trkpt>
      <trkpt lat="45.78593" lon="-1.18991">
        <ele>65.8</ele>
        <time>2020-01-26T10:07:51Z</time>
      </trkpt>
      <trkpt lat="45.78596" lon="-1.18995">
        <ele>65.8</ele>
        <time>2020-01-26T10:07:52Z</time>
      </trkpt>
      <trkpt lat="45.78597" lon="-1.18998">
        <ele>65.8</ele>
        <time>2020-01-26T10:07:53Z</time>
      </trkpt>
      <trkpt lat="45.78598" lon="-1.19003">
        <ele>65.6</ele>
        <time>2020-01-26T10:07:54Z</time>
      </trkpt>
      <trkpt lat="45.78601" lon="-1.19009">
        <ele>65.6</ele>
        <time>2020-01-26T10:07:55Z</time>
      </trkpt>
      <trkpt lat="45.78602" lon="-1.19016">
        <ele>65.6</ele>
        <time>2020-01-26T10:07:56Z</time>
      </trkpt>
      <trkpt lat="45.78604" lon="-1.19023">
        <ele>65.8</ele>
        <time>2020-01-26T10:07:57Z</time>
      </trkpt>
      <trkpt lat="45.78605" lon="-1.19031">
        <ele>65.8</ele>
        <time>2020-01-26T10:07:58Z</time>
      </trkpt>
      <trkpt lat="45.78606" lon="-1.19038">
        <ele>65.8</ele>
        <time>2020-01-26T10:07:59Z</time>
      </trkpt>
      <trkpt lat="45.78604" lon="-1.19047">
        <ele>66.2</ele>
        <time>2020-01-26T10:08:00Z</time>
      </trkpt>
      <trkpt lat="45.78604" lon="-1.19055">
        <ele>66.4</ele>
        <time>2020-01-26T10:08:01Z</time>
      </trkpt>
      <trkpt lat="45.78608" lon="-1.19056">
        <ele>66.6</ele>
        <time>2020-01-26T10:08:02Z</time>
      </trkpt>
      <trkpt lat="45.78612" lon="-1.19057">
        <ele>66.8</ele>
        <time>2020-01-26T10:08:03Z</time>
      </trkpt>
      <trkpt lat="45.78613" lon="-1.19054">
        <ele>66.6</ele>
        <time>2020-01-26T10:08:04Z</time>
      </trkpt>
      <trkpt lat="45.78616" lon="-1.19052">
        <ele>66.2</ele>
        <time>2020-01-26T10:08:05Z</time>
      </trkpt>
      <trkpt lat="45.78619" lon="-1.19055">
        <ele>65.8</ele>
        <time>2020-01-26T10:08:06Z</time>
      </trkpt>
      <trkpt lat="45.78623" lon="-1.19058">
        <ele>65.4</ele>
        <time>2020-01-26T10:08:07Z</time>
      </trkpt>
      <trkpt lat="45.78626" lon="-1.19064">
        <ele>64.8</ele>
        <time>2020-01-26T10:08:08Z</time>
      </trkpt>
      <trkpt lat="45.7863" lon="-1.19069">
        <ele>64</ele>
        <time>2020-01-26T10:08:09Z</time>
      </trkpt>
      <trkpt lat="45.78634" lon="-1.19071">
        <ele>63.6</ele>
        <time>2020-01-26T10:08:10Z</time>
      </trkpt>
      <trkpt lat="45.78637" lon="-1.19075">
        <ele>63</ele>
        <time>2020-01-26T10:08:11Z</time>
      </trkpt>
      <trkpt lat="45.78639" lon="-1.1908">
        <ele>62.6</ele>
        <time>2020-01-26T10:08:12Z</time>
      </trkpt>
      <trkpt lat="45.78638" lon="-1.19085">
        <ele>62.2</ele>
        <time>2020-01-26T10:08:13Z</time>
      </trkpt>
      <trkpt lat="45.78637" lon="-1.1909">
        <ele>61.8</ele>
        <time>2020-01-26T10:08:14Z</time>
      </trkpt>
      <trkpt lat="45.78639" lon="-1.19095">
        <ele>61</ele>
        <time>2020-01-26T10:08:15Z</time>
      </trkpt>
      <trkpt lat="45.78641" lon="-1.19099">
        <ele>60.6</ele>
        <time>2020-01-26T10:08:16Z</time>
      </trkpt>
      <trkpt lat="45.78643" lon="-1.19103">
        <ele>60.2</ele>
        <time>2020-01-26T10:08:17Z</time>
      </trkpt>
      <trkpt lat="45.78647" lon="-1.19105">
        <ele>59.4</ele>
        <time>2020-01-26T10:08:18Z</time>
      </trkpt>
      <trkpt lat="45.78651" lon="-1.19106">
        <ele>59.2</ele>
        <time>2020-01-26T10:08:19Z</time>
      </trkpt>
      <trkpt lat="45.78655" lon="-1.19107">
        <ele>59.2</ele>
        <time>2020-01-26T10:08:20Z</time>
      </trkpt>
      <trkpt lat="45.78659" lon="-1.19106">
        <ele>59</ele>
        <time>2020-01-26T10:08:21Z</time>
      </trkpt>
      <trkpt lat="45.78664" lon="-1.19105">
        <ele>59</ele>
        <time>2020-01-26T10:08:22Z</time>
      </trkpt>
      <trkpt lat="45.78666" lon="-1.19107">
        <ele>58.2</ele>
        <time>2020-01-26T10:08:23Z</time>
      </trkpt>
      <trkpt lat="45.78669" lon="-1.19109">
        <ele>57.8</ele>
        <time>2020-01-26T10:08:24Z</time>
      </trkpt>
      <trkpt lat="45.78673" lon="-1.19107">
        <ele>57.6</ele>
        <time>2020-01-26T10:08:25Z</time>
      </trkpt>
      <trkpt lat="45.78676" lon="-1.19105">
        <ele>57.6</ele>
        <time>2020-01-26T10:08:26Z</time>
      </trkpt>
      <trkpt lat="45.78679" lon="-1.19103">
        <ele>57.6</ele>
        <time>2020-01-26T10:08:27Z</time>
      </trkpt>
      <trkpt lat="45.78683" lon="-1.19104">
        <ele>57.4</ele>
        <time>2020-01-26T10:08:28Z</time>
      </trkpt>
      <trkpt lat="45.78685" lon="-1.19104">
        <ele>57.4</ele>
        <time>2020-01-26T10:08:29Z</time>
      </trkpt>
      <trkpt lat="45.78688" lon="-1.19102">
        <ele>57</ele>
        <time>2020-01-26T10:08:30Z</time>
      </trkpt>
      <trkpt lat="45.78691" lon="-1.19101">
        <ele>57</ele>
        <time>2020-01-26T10:08:31Z</time>
      </trkpt>
      <trkpt lat="45.78695" lon="-1.19101">
        <ele>57</ele>
        <time>2020-01-26T10:08:32Z</time>
      </trkpt>
      <trkpt lat="45.78697" lon="-1.19101">
        <ele>57</ele>
        <time>2020-01-26T10:08:33Z</time>
      </trkpt>
      <trkpt lat="45.78699" lon="-1.19102">
        <ele>57</ele>
        <time>2020-01-26T10:08:34Z</time>
      </trkpt>
      <trkpt lat="45.78702" lon="-1.19105">
        <ele>56.8</ele>
        <time>2020-01-26T10:08:35Z</time>
      </trkpt>
      <trkpt lat="45.78705" lon="-1.19104">
        <ele>56.2</ele>
        <time>2020-01-26T10:08:36Z</time>
      </trkpt>
      <trkpt lat="45.78708" lon="-1.19105">
        <ele>55.8</ele>
        <time>2020-01-26T10:08:37Z</time>
      </trkpt>
      <trkpt lat="45.7871" lon="-1.19106">
        <ele>55.4</ele>
        <time>2020-01-26T10:08:38Z</time>
      </trkpt>
      <trkpt lat="45.78713" lon="-1.19104">
        <ele>54.6</ele>
        <time>2020-01-26T10:08:39Z</time>
      </trkpt>
      <trkpt lat="45.78717" lon="-1.19102">
        <ele>53.6</ele>
        <time>2020-01-26T10:08:40Z</time>
      </trkpt>
      <trkpt lat="45.78722" lon="-1.19103">
        <ele>53.6</ele>
        <time>2020-01-26T10:08:41Z</time>
      </trkpt>
      <trkpt lat="45.78726" lon="-1.19105">
        <ele>53.6</ele>
        <time>2020-01-26T10:08:42Z</time>
      </trkpt>
      <trkpt lat="45.78727" lon="-1.19108">
        <ele>53.4</ele>
        <time>2020-01-26T10:08:43Z</time>
      </trkpt>
      <trkpt lat="45.7873" lon="-1.19107">
        <ele>53</ele>
        <time>2020-01-26T10:08:44Z</time>
      </trkpt>
      <trkpt lat="45.78732" lon="-1.19105">
        <ele>52.6</ele>
        <time>2020-01-26T10:08:45Z</time>
      </trkpt>
      <trkpt lat="45.78735" lon="-1.19106">
        <ele>52.2</ele>
        <time>2020-01-26T10:08:46Z</time>
      </trkpt>
      <trkpt lat="45.7874" lon="-1.19107">
        <ele>51.4</ele>
        <time>2020-01-26T10:08:47Z</time>
      </trkpt>
      <trkpt lat="45.78743" lon="-1.19105">
        <ele>50.8</ele>
        <time>2020-01-26T10:08:48Z</time>
      </trkpt>
      <trkpt lat="45.78747" lon="-1.19104">
        <ele>50</ele>
        <time>2020-01-26T10:08:49Z</time>
      </trkpt>
      <trkpt lat="45.78752" lon="-1.19104">
        <ele>49.6</ele>
        <time>2020-01-26T10:08:50Z</time>
      </trkpt>
      <trkpt lat="45.78756" lon="-1.19104">
        <ele>49.2</ele>
        <time>2020-01-26T10:08:51Z</time>
      </trkpt>
      <trkpt lat="45.7876" lon="-1.19104">
        <ele>49.2</ele>
        <time>2020-01-26T10:08:52Z</time>
      </trkpt>
      <trkpt lat="45.78761" lon="-1.19102">
        <ele>49.6</ele>
        <time>2020-01-26T10:08:53Z</time>
      </trkpt>
      <trkpt lat="45.78764" lon="-1.19103">
        <ele>50</ele>
        <time>2020-01-26T10:08:54Z</time>
      </trkpt>
      <trkpt lat="45.78766" lon="-1.19104">
        <ele>50.4</ele>
        <time>2020-01-26T10:08:55Z</time>
      </trkpt>
      <trkpt lat="45.78769" lon="-1.19105">
        <ele>50.6</ele>
        <time>2020-01-26T10:08:56Z</time>
      </trkpt>
      <trkpt lat="45.78772" lon="-1.19105">
        <ele>51.2</ele>
        <time>2020-01-26T10:08:57Z</time>
      </trkpt>
      <trkpt lat="45.78775" lon="-1.19105">
        <ele>51.4</ele>
        <time>2020-01-26T10:08:58Z</time>
      </trkpt>
      <trkpt lat="45.78777" lon="-1.19107">
        <ele>51.8</ele>
        <time>2020-01-26T10:08:59Z</time>
      </trkpt>
      <trkpt lat="45.78779" lon="-1.19111">
        <ele>52.2</ele>
        <time>2020-01-26T10:09:00Z</time>
      </trkpt>
      <trkpt lat="45.78781" lon="-1.19115">
        <ele>52.6</ele>
        <time>2020-01-26T10:09:01Z</time>
      </trkpt>
      <trkpt lat="45.78784" lon="-1.19118">
        <ele>53</ele>
        <time>2020-01-26T10:09:02Z</time>
      </trkpt>
      <trkpt lat="45.78788" lon="-1.19118">
        <ele>53.2</ele>
        <time>2020-01-26T10:09:03Z</time>
      </trkpt>
      <trkpt lat="45.78791" lon="-1.19119">
        <ele>53.6</ele>
        <time>2020-01-26T10:09:04Z</time>
      </trkpt>
      <trkpt lat="45.78794" lon="-1.19121">
        <ele>53.8</ele>
        <time>2020-01-26T10:09:05Z</time>
      </trkpt>
      <trkpt lat="45.78798" lon="-1.19124">
        <ele>54</ele>
        <time>2020-01-26T10:09:06Z</time>
      </trkpt>
      <trkpt lat="45.78801" lon="-1.19128">
        <ele>54</ele>
        <time>2020-01-26T10:09:07Z</time>
      </trkpt>
      <trkpt lat="45.78804" lon="-1.19131">
        <ele>54</ele>
        <time>2020-01-26T10:09:08Z</time>
      </trkpt>
      <trkpt lat="45.78806" lon="-1.19132">
        <ele>53.8</ele>
        <time>2020-01-26T10:09:09Z</time>
      </trkpt>
      <trkpt lat="45.7881" lon="-1.19134">
        <ele>53.6</ele>
        <time>2020-01-26T10:09:10Z</time>
      </trkpt>
      <trkpt lat="45.78812" lon="-1.19137">
        <ele>53.6</ele>
        <time>2020-01-26T10:09:11Z</time>
      </trkpt>
      <trkpt lat="45.78815" lon="-1.19133">
        <ele>53.4</ele>
        <time>2020-01-26T10:09:12Z</time>
      </trkpt>
      <trkpt lat="45.78817" lon="-1.19132">
        <ele>53</ele>
        <time>2020-01-26T10:09:13Z</time>
      </trkpt>
      <trkpt lat="45.7882" lon="-1.19135">
        <ele>52.6</ele>
        <time>2020-01-26T10:09:14Z</time>
      </trkpt>
      <trkpt lat="45.78824" lon="-1.19139">
        <ele>52.4</ele>
        <time>2020-01-26T10:09:15Z</time>
      </trkpt>
      <trkpt lat="45.78827" lon="-1.19142">
        <ele>51.8</ele>
        <time>2020-01-26T10:09:16Z</time>
      </trkpt>
      <trkpt lat="45.78831" lon="-1.19146">
        <ele>51.4</ele>
        <time>2020-01-26T10:09:17Z</time>
      </trkpt>
      <trkpt lat="45.78833" lon="-1.19153">
        <ele>51.6</ele>
        <time>2020-01-26T10:09:18Z</time>
      </trkpt>
      <trkpt lat="45.78834" lon="-1.19159">
        <ele>51.6</ele>
        <time>2020-01-26T10:09:19Z</time>
      </trkpt>
      <trkpt lat="45.78834" lon="-1.19164">
        <ele>51.8</ele>
        <time>2020-01-26T10:09:20Z</time>
      </trkpt>
      <trkpt lat="45.78836" lon="-1.19169">
        <ele>51.8</ele>
        <time>2020-01-26T10:09:21Z</time>
      </trkpt>
      <trkpt lat="45.78838" lon="-1.19173">
        <ele>51.8</ele>
        <time>2020-01-26T10:09:22Z</time>
      </trkpt>
      <trkpt lat="45.78844" lon="-1.19174">
        <ele>51.8</ele>
        <time>2020-01-26T10:09:23Z</time>
      </trkpt>
      <trkpt lat="45.78848" lon="-1.19176">
        <ele>52.2</ele>
        <time>2020-01-26T10:09:24Z</time>
      </trkpt>
      <trkpt lat="45.78852" lon="-1.19177">
        <ele>52.4</ele>
        <time>2020-01-26T10:09:25Z</time>
      </trkpt>
      <trkpt lat="45.78856" lon="-1.19177">
        <ele>52.8</ele>
        <time>2020-01-26T10:09:26Z</time>
      </trkpt>
      <trkpt lat="45.7886" lon="-1.19177">
        <ele>52.8</ele>
        <time>2020-01-26T10:09:27Z</time>
      </trkpt>
      <trkpt lat="45.78863" lon="-1.1918">
        <ele>53</ele>
        <time>2020-01-26T10:09:28Z</time>
      </trkpt>
      <trkpt lat="45.78866" lon="-1.19182">
        <ele>53.2</ele>
        <time>2020-01-26T10:09:29Z</time>
      </trkpt>
      <trkpt lat="45.78868" lon="-1.19185">
        <ele>52.8</ele>
        <time>2020-01-26T10:09:30Z</time>
      </trkpt>
      <trkpt lat="45.7887" lon="-1.19189">
        <ele>52.6</ele>
        <time>2020-01-26T10:09:31Z</time>
      </trkpt>
      <trkpt lat="45.78871" lon="-1.19194">
        <ele>52.4</ele>
        <time>2020-01-26T10:09:32Z</time>
      </trkpt>
      <trkpt lat="45.78872" lon="-1.19201">
        <ele>52.4</ele>
        <time>2020-01-26T10:09:33Z</time>
      </trkpt>
      <trkpt lat="45.78871" lon="-1.19209">
        <ele>52.2</ele>
        <time>2020-01-26T10:09:34Z</time>
      </trkpt>
      <trkpt lat="45.78869" lon="-1.19216">
        <ele>51.6</ele>
        <time>2020-01-26T10:09:35Z</time>
      </trkpt>
      <trkpt lat="45.78869" lon="-1.19224">
        <ele>51.2</ele>
        <time>2020-01-26T10:09:36Z</time>
      </trkpt>
      <trkpt lat="45.78868" lon="-1.19231">
        <ele>51.2</ele>
        <time>2020-01-26T10:09:37Z</time>
      </trkpt>
      <trkpt lat="45.78868" lon="-1.19238">
        <ele>51.2</ele>
        <time>2020-01-26T10:09:38Z</time>
      </trkpt>
      <trkpt lat="45.78867" lon="-1.19245">
        <ele>51.2</ele>
        <time>2020-01-26T10:09:39Z</time>
      </trkpt>
      <trkpt lat="45.78866" lon="-1.19252">
        <ele>51</ele>
        <time>2020-01-26T10:09:40Z</time>
      </trkpt>
      <trkpt lat="45.78866" lon="-1.19257">
        <ele>51</ele>
        <time>2020-01-26T10:09:41Z</time>
      </trkpt>
      <trkpt lat="45.78865" lon="-1.19262">
        <ele>51</ele>
        <time>2020-01-26T10:09:42Z</time>
      </trkpt>
      <trkpt lat="45.78865" lon="-1.19267">
        <ele>51</ele>
        <time>2020-01-26T10:09:43Z</time>
      </trkpt>
      <trkpt lat="45.78864" lon="-1.19271">
        <ele>51</ele>
        <time>2020-01-26T10:09:44Z</time>
      </trkpt>
      <trkpt lat="45.78864" lon="-1.19273">
        <ele>51</ele>
        <time>2020-01-26T10:09:45Z</time>
      </trkpt>
      <trkpt lat="45.78863" lon="-1.19273">
        <ele>51</ele>
        <time>2020-01-26T10:09:46Z</time>
      </trkpt>
      <trkpt lat="45.78863" lon="-1.19273">
        <ele>51.2</ele>
        <time>2020-01-26T10:09:47Z</time>
      </trkpt>
      <trkpt lat="45.78863" lon="-1.19273">
        <ele>51.4</ele>
        <time>2020-01-26T10:09:48Z</time>
      </trkpt>
      <trkpt lat="45.78863" lon="-1.19273">
        <ele>51.6</ele>
        <time>2020-01-26T10:09:49Z</time>
      </trkpt>
      <trkpt lat="45.78863" lon="-1.19274">
        <ele>51.6</ele>
        <time>2020-01-26T10:09:50Z</time>
      </trkpt>
      <trkpt lat="45.78863" lon="-1.19273">
        <ele>51.8</ele>
        <time>2020-01-26T10:09:51Z</time>
      </trkpt>
      <trkpt lat="45.78863" lon="-1.19273">
        <ele>52</ele>
        <time>2020-01-26T10:09:52Z</time>
      </trkpt>
      <trkpt lat="45.78864" lon="-1.19274">
        <ele>52.4</ele>
        <time>2020-01-26T10:09:53Z</time>
      </trkpt>
      <trkpt lat="45.78864" lon="-1.19274">
        <ele>52.4</ele>
        <time>2020-01-26T10:09:54Z</time>
      </trkpt>
      <trkpt lat="45.78864" lon="-1.19274">
        <ele>52.6</ele>
        <time>2020-01-26T10:09:55Z</time>
      </trkpt>
      <trkpt lat="45.78864" lon="-1.19274">
        <ele>53</ele>
        <time>2020-01-26T10:09:56Z</time>
      </trkpt>
      <trkpt lat="45.78864" lon="-1.19274">
        <ele>53</ele>
        <time>2020-01-26T10:09:57Z</time>
      </trkpt>
      <trkpt lat="45.78864" lon="-1.19274">
        <ele>53.2</ele>
        <time>2020-01-26T10:09:58Z</time>
      </trkpt>
      <trkpt lat="45.78864" lon="-1.19274">
        <ele>53.4</ele>
        <time>2020-01-26T10:09:59Z</time>
      </trkpt>
      <trkpt lat="45.78864" lon="-1.19274">
        <ele>53.6</ele>
        <time>2020-01-26T10:10:00Z</time>
      </trkpt>
      <trkpt lat="45.78865" lon="-1.19274">
        <ele>53.6</ele>
        <time>2020-01-26T10:10:01Z</time>
      </trkpt>
      <trkpt lat="45.78864" lon="-1.19274">
        <ele>53.8</ele>
        <time>2020-01-26T10:10:02Z</time>
      </trkpt>
      <trkpt lat="45.78864" lon="-1.19274">
        <ele>54</ele>
        <time>2020-01-26T10:10:03Z</time>
      </trkpt>
      <trkpt lat="45.78864" lon="-1.19274">
        <ele>54.4</ele>
        <time>2020-01-26T10:10:04Z</time>
      </trkpt>
      <trkpt lat="45.78865" lon="-1.19274">
        <ele>54.4</ele>
        <time>2020-01-26T10:10:05Z</time>
      </trkpt>
      <trkpt lat="45.78865" lon="-1.19276">
        <ele>54.6</ele>
        <time>2020-01-26T10:10:06Z</time>
      </trkpt>
      <trkpt lat="45.78865" lon="-1.19278">
        <ele>54.8</ele>
        <time>2020-01-26T10:10:07Z</time>
      </trkpt>
      <trkpt lat="45.78865" lon="-1.19279">
        <ele>54.8</ele>
        <time>2020-01-26T10:10:08Z</time>
      </trkpt>
      <trkpt lat="45.78865" lon="-1.1928">
        <ele>54.8</ele>
        <time>2020-01-26T10:10:09Z</time>
      </trkpt>
      <trkpt lat="45.78865" lon="-1.19282">
        <ele>54.8</ele>
        <time>2020-01-26T10:10:10Z</time>
      </trkpt>
      <trkpt lat="45.78866" lon="-1.19285">
        <ele>55</ele>
        <time>2020-01-26T10:10:11Z</time>
      </trkpt>
      <trkpt lat="45.78868" lon="-1.19289">
        <ele>55</ele>
        <time>2020-01-26T10:10:12Z</time>
      </trkpt>
      <trkpt lat="45.78869" lon="-1.19293">
        <ele>55</ele>
        <time>2020-01-26T10:10:13Z</time>
      </trkpt>
      <trkpt lat="45.78869" lon="-1.19298">
        <ele>55</ele>
        <time>2020-01-26T10:10:14Z</time>
      </trkpt>
      <trkpt lat="45.78868" lon="-1.19302">
        <ele>55</ele>
        <time>2020-01-26T10:10:15Z</time>
      </trkpt>
      <trkpt lat="45.78867" lon="-1.19308">
        <ele>55</ele>
        <time>2020-01-26T10:10:16Z</time>
      </trkpt>
      <trkpt lat="45.78866" lon="-1.19312">
        <ele>55</ele>
        <time>2020-01-26T10:10:17Z</time>
      </trkpt>
      <trkpt lat="45.78866" lon="-1.19315">
        <ele>55</ele>
        <time>2020-01-26T10:10:18Z</time>
      </trkpt>
      <trkpt lat="45.78867" lon="-1.19317">
        <ele>55</ele>
        <time>2020-01-26T10:10:19Z</time>
      </trkpt>
      <trkpt lat="45.78866" lon="-1.19319">
        <ele>54.8</ele>
        <time>2020-01-26T10:10:20Z</time>
      </trkpt>
      <trkpt lat="45.78865" lon="-1.19323">
        <ele>54.6</ele>
        <time>2020-01-26T10:10:21Z</time>
      </trkpt>
      <trkpt lat="45.78864" lon="-1.19329">
        <ele>54.6</ele>
        <time>2020-01-26T10:10:22Z</time>
      </trkpt>
      <trkpt lat="45.78864" lon="-1.19333">
        <ele>54.8</ele>
        <time>2020-01-26T10:10:23Z</time>
      </trkpt>
      <trkpt lat="45.78862" lon="-1.19335">
        <ele>54.8</ele>
        <time>2020-01-26T10:10:24Z</time>
      </trkpt>
      <trkpt lat="45.78862" lon="-1.1934">
        <ele>55.2</ele>
        <time>2020-01-26T10:10:25Z</time>
      </trkpt>
      <trkpt lat="45.7886" lon="-1.19345">
        <ele>55.6</ele>
        <time>2020-01-26T10:10:26Z</time>
      </trkpt>
      <trkpt lat="45.78858" lon="-1.19349">
        <ele>56</ele>
        <time>2020-01-26T10:10:27Z</time>
      </trkpt>
      <trkpt lat="45.78856" lon="-1.19354">
        <ele>56.4</ele>
        <time>2020-01-26T10:10:28Z</time>
      </trkpt>
      <trkpt lat="45.78853" lon="-1.19359">
        <ele>56.8</ele>
        <time>2020-01-26T10:10:29Z</time>
      </trkpt>
      <trkpt lat="45.78851" lon="-1.19364">
        <ele>57.2</ele>
        <time>2020-01-26T10:10:30Z</time>
      </trkpt>
      <trkpt lat="45.7885" lon="-1.1937">
        <ele>57.4</ele>
        <time>2020-01-26T10:10:31Z</time>
      </trkpt>
      <trkpt lat="45.78849" lon="-1.19374">
        <ele>57.6</ele>
        <time>2020-01-26T10:10:32Z</time>
      </trkpt>
      <trkpt lat="45.78848" lon="-1.19379">
        <ele>58</ele>
        <time>2020-01-26T10:10:33Z</time>
      </trkpt>
      <trkpt lat="45.78851" lon="-1.19383">
        <ele>58.4</ele>
        <time>2020-01-26T10:10:34Z</time>
      </trkpt>
      <trkpt lat="45.78854" lon="-1.19386">
        <ele>58.2</ele>
        <time>2020-01-26T10:10:35Z</time>
      </trkpt>
      <trkpt lat="45.78857" lon="-1.19389">
        <ele>58</ele>
        <time>2020-01-26T10:10:36Z</time>
      </trkpt>
      <trkpt lat="45.78859" lon="-1.19394">
        <ele>57.8</ele>
        <time>2020-01-26T10:10:37Z</time>
      </trkpt>
      <trkpt lat="45.78861" lon="-1.19399">
        <ele>57.2</ele>
        <time>2020-01-26T10:10:38Z</time>
      </trkpt>
      <trkpt lat="45.78861" lon="-1.19405">
        <ele>57</ele>
        <time>2020-01-26T10:10:39Z</time>
      </trkpt>
      <trkpt lat="45.7886" lon="-1.1941">
        <ele>56.4</ele>
        <time>2020-01-26T10:10:40Z</time>
      </trkpt>
      <trkpt lat="45.78859" lon="-1.19414">
        <ele>56.4</ele>
        <time>2020-01-26T10:10:41Z</time>
      </trkpt>
      <trkpt lat="45.78859" lon="-1.19415">
        <ele>56.6</ele>
        <time>2020-01-26T10:10:42Z</time>
      </trkpt>
      <trkpt lat="45.78859" lon="-1.19419">
        <ele>56.6</ele>
        <time>2020-01-26T10:10:43Z</time>
      </trkpt>
      <trkpt lat="45.78859" lon="-1.19424">
        <ele>57</ele>
        <time>2020-01-26T10:10:44Z</time>
      </trkpt>
      <trkpt lat="45.78859" lon="-1.19427">
        <ele>57.6</ele>
        <time>2020-01-26T10:10:45Z</time>
      </trkpt>
      <trkpt lat="45.78858" lon="-1.1943">
        <ele>58.2</ele>
        <time>2020-01-26T10:10:46Z</time>
      </trkpt>
      <trkpt lat="45.78857" lon="-1.19433">
        <ele>58.6</ele>
        <time>2020-01-26T10:10:47Z</time>
      </trkpt>
      <trkpt lat="45.78854" lon="-1.19435">
        <ele>59</ele>
        <time>2020-01-26T10:10:48Z</time>
      </trkpt>
      <trkpt lat="45.78851" lon="-1.19439">
        <ele>59</ele>
        <time>2020-01-26T10:10:49Z</time>
      </trkpt>
      <trkpt lat="45.78848" lon="-1.19443">
        <ele>59.4</ele>
        <time>2020-01-26T10:10:50Z</time>
      </trkpt>
      <trkpt lat="45.78847" lon="-1.19447">
        <ele>59.8</ele>
        <time>2020-01-26T10:10:51Z</time>
      </trkpt>
      <trkpt lat="45.78846" lon="-1.19452">
        <ele>60.4</ele>
        <time>2020-01-26T10:10:52Z</time>
      </trkpt>
      <trkpt lat="45.78845" lon="-1.19455">
        <ele>60.8</ele>
        <time>2020-01-26T10:10:53Z</time>
      </trkpt>
      <trkpt lat="45.78846" lon="-1.19458">
        <ele>61.4</ele>
        <time>2020-01-26T10:10:54Z</time>
      </trkpt>
      <trkpt lat="45.78846" lon="-1.19459">
        <ele>61.8</ele>
        <time>2020-01-26T10:10:55Z</time>
      </trkpt>
      <trkpt lat="45.78846" lon="-1.19461">
        <ele>62</ele>
        <time>2020-01-26T10:10:56Z</time>
      </trkpt>
      <trkpt lat="45.78845" lon="-1.19464">
        <ele>62.4</ele>
        <time>2020-01-26T10:10:57Z</time>
      </trkpt>
      <trkpt lat="45.78843" lon="-1.19467">
        <ele>62.8</ele>
        <time>2020-01-26T10:10:58Z</time>
      </trkpt>
      <trkpt lat="45.78843" lon="-1.19469">
        <ele>63</ele>
        <time>2020-01-26T10:10:59Z</time>
      </trkpt>
      <trkpt lat="45.78843" lon="-1.19472">
        <ele>63.6</ele>
        <time>2020-01-26T10:11:00Z</time>
      </trkpt>
      <trkpt lat="45.78843" lon="-1.19476">
        <ele>64.4</ele>
        <time>2020-01-26T10:11:01Z</time>
      </trkpt>
      <trkpt lat="45.78844" lon="-1.19478">
        <ele>65</ele>
        <time>2020-01-26T10:11:02Z</time>
      </trkpt>
      <trkpt lat="45.78843" lon="-1.19481">
        <ele>65.6</ele>
        <time>2020-01-26T10:11:03Z</time>
      </trkpt>
      <trkpt lat="45.78844" lon="-1.19483">
        <ele>66.4</ele>
        <time>2020-01-26T10:11:04Z</time>
      </trkpt>
      <trkpt lat="45.78844" lon="-1.19485">
        <ele>66.8</ele>
        <time>2020-01-26T10:11:05Z</time>
      </trkpt>
      <trkpt lat="45.78844" lon="-1.19489">
        <ele>67.2</ele>
        <time>2020-01-26T10:11:06Z</time>
      </trkpt>
      <trkpt lat="45.78844" lon="-1.19492">
        <ele>67.6</ele>
        <time>2020-01-26T10:11:07Z</time>
      </trkpt>
      <trkpt lat="45.78845" lon="-1.19495">
        <ele>67.6</ele>
        <time>2020-01-26T10:11:08Z</time>
      </trkpt>
      <trkpt lat="45.78846" lon="-1.195">
        <ele>67.8</ele>
        <time>2020-01-26T10:11:09Z</time>
      </trkpt>
      <trkpt lat="45.78846" lon="-1.19505">
        <ele>67.8</ele>
        <time>2020-01-26T10:11:10Z</time>
      </trkpt>
      <trkpt lat="45.78847" lon="-1.1951">
        <ele>67.8</ele>
        <time>2020-01-26T10:11:11Z</time>
      </trkpt>
      <trkpt lat="45.78847" lon="-1.19517">
        <ele>67.8</ele>
        <time>2020-01-26T10:11:12Z</time>
      </trkpt>
      <trkpt lat="45.78848" lon="-1.19525">
        <ele>67.6</ele>
        <time>2020-01-26T10:11:13Z</time>
      </trkpt>
      <trkpt lat="45.78852" lon="-1.1953">
        <ele>67.2</ele>
        <time>2020-01-26T10:11:14Z</time>
      </trkpt>
      <trkpt lat="45.78853" lon="-1.19538">
        <ele>67</ele>
        <time>2020-01-26T10:11:15Z</time>
      </trkpt>
      <trkpt lat="45.78854" lon="-1.19545">
        <ele>66.6</ele>
        <time>2020-01-26T10:11:16Z</time>
      </trkpt>
      <trkpt lat="45.78854" lon="-1.1955">
        <ele>65.8</ele>
        <time>2020-01-26T10:11:17Z</time>
      </trkpt>
      <trkpt lat="45.78854" lon="-1.19556">
        <ele>64.8</ele>
        <time>2020-01-26T10:11:18Z</time>
      </trkpt>
      <trkpt lat="45.78852" lon="-1.19563">
        <ele>63.8</ele>
        <time>2020-01-26T10:11:19Z</time>
      </trkpt>
      <trkpt lat="45.78852" lon="-1.19572">
        <ele>62.8</ele>
        <time>2020-01-26T10:11:20Z</time>
      </trkpt>
      <trkpt lat="45.78852" lon="-1.1958">
        <ele>61.8</ele>
        <time>2020-01-26T10:11:21Z</time>
      </trkpt>
      <trkpt lat="45.78852" lon="-1.19586">
        <ele>60.8</ele>
        <time>2020-01-26T10:11:22Z</time>
      </trkpt>
      <trkpt lat="45.78852" lon="-1.19592">
        <ele>60.2</ele>
        <time>2020-01-26T10:11:23Z</time>
      </trkpt>
      <trkpt lat="45.78847" lon="-1.19594">
        <ele>59.2</ele>
        <time>2020-01-26T10:11:24Z</time>
      </trkpt>
      <trkpt lat="45.78846" lon="-1.19599">
        <ele>58.6</ele>
        <time>2020-01-26T10:11:25Z</time>
      </trkpt>
      <trkpt lat="45.78845" lon="-1.19604">
        <ele>57.8</ele>
        <time>2020-01-26T10:11:26Z</time>
      </trkpt>
      <trkpt lat="45.78844" lon="-1.1961">
        <ele>57.2</ele>
        <time>2020-01-26T10:11:27Z</time>
      </trkpt>
      <trkpt lat="45.78842" lon="-1.19615">
        <ele>56.4</ele>
        <time>2020-01-26T10:11:28Z</time>
      </trkpt>
      <trkpt lat="45.78842" lon="-1.19621">
        <ele>55.6</ele>
        <time>2020-01-26T10:11:29Z</time>
      </trkpt>
      <trkpt lat="45.78841" lon="-1.19629">
        <ele>54.8</ele>
        <time>2020-01-26T10:11:30Z</time>
      </trkpt>
      <trkpt lat="45.78839" lon="-1.19639">
        <ele>53.8</ele>
        <time>2020-01-26T10:11:31Z</time>
      </trkpt>
      <trkpt lat="45.78839" lon="-1.19649">
        <ele>53.2</ele>
        <time>2020-01-26T10:11:32Z</time>
      </trkpt>
      <trkpt lat="45.78843" lon="-1.19655">
        <ele>52.4</ele>
        <time>2020-01-26T10:11:33Z</time>
      </trkpt>
      <trkpt lat="45.78845" lon="-1.19659">
        <ele>51.8</ele>
        <time>2020-01-26T10:11:34Z</time>
      </trkpt>
      <trkpt lat="45.78847" lon="-1.19663">
        <ele>51.4</ele>
        <time>2020-01-26T10:11:35Z</time>
      </trkpt>
      <trkpt lat="45.78849" lon="-1.19669">
        <ele>51.2</ele>
        <time>2020-01-26T10:11:36Z</time>
      </trkpt>
      <trkpt lat="45.7885" lon="-1.19673">
        <ele>51.4</ele>
        <time>2020-01-26T10:11:37Z</time>
      </trkpt>
      <trkpt lat="45.7885" lon="-1.19677">
        <ele>52.2</ele>
        <time>2020-01-26T10:11:38Z</time>
      </trkpt>
      <trkpt lat="45.78851" lon="-1.19679">
        <ele>53.4</ele>
        <time>2020-01-26T10:11:39Z</time>
      </trkpt>
      <trkpt lat="45.78849" lon="-1.19681">
        <ele>54</ele>
        <time>2020-01-26T10:11:40Z</time>
      </trkpt>
      <trkpt lat="45.78848" lon="-1.19682">
        <ele>54.8</ele>
        <time>2020-01-26T10:11:41Z</time>
      </trkpt>
      <trkpt lat="45.78848" lon="-1.19682">
        <ele>55.4</ele>
        <time>2020-01-26T10:11:42Z</time>
      </trkpt>
      <trkpt lat="45.78848" lon="-1.19682">
        <ele>55.8</ele>
        <time>2020-01-26T10:11:43Z</time>
      </trkpt>
      <trkpt lat="45.78848" lon="-1.19681">
        <ele>56</ele>
        <time>2020-01-26T10:11:44Z</time>
      </trkpt>
      <trkpt lat="45.78848" lon="-1.19681">
        <ele>56</ele>
        <time>2020-01-26T10:11:45Z</time>
      </trkpt>
      <trkpt lat="45.78848" lon="-1.19682">
        <ele>56</ele>
        <time>2020-01-26T10:11:46Z</time>
      </trkpt>
      <trkpt lat="45.78848" lon="-1.19682">
        <ele>56</ele>
        <time>2020-01-26T10:11:47Z</time>
      </trkpt>
      <trkpt lat="45.78848" lon="-1.19682">
        <ele>56</ele>
        <time>2020-01-26T10:11:48Z</time>
      </trkpt>
      <trkpt lat="45.78848" lon="-1.19682">
        <ele>56</ele>
        <time>2020-01-26T10:11:49Z</time>
      </trkpt>
      <trkpt lat="45.78848" lon="-1.19683">
        <ele>56.2</ele>
        <time>2020-01-26T10:11:50Z</time>
      </trkpt>
      <trkpt lat="45.78848" lon="-1.19685">
        <ele>56.4</ele>
        <time>2020-01-26T10:11:51Z</time>
      </trkpt>
      <trkpt lat="45.78848" lon="-1.19688">
        <ele>56.8</ele>
        <time>2020-01-26T10:11:52Z</time>
      </trkpt>
      <trkpt lat="45.78848" lon="-1.19691">
        <ele>57.4</ele>
        <time>2020-01-26T10:11:53Z</time>
      </trkpt>
      <trkpt lat="45.78849" lon="-1.19693">
        <ele>58.2</ele>
        <time>2020-01-26T10:11:54Z</time>
      </trkpt>
      <trkpt lat="45.7885" lon="-1.19695">
        <ele>58.8</ele>
        <time>2020-01-26T10:11:55Z</time>
      </trkpt>
      <trkpt lat="45.7885" lon="-1.19699">
        <ele>59.6</ele>
        <time>2020-01-26T10:11:56Z</time>
      </trkpt>
      <trkpt lat="45.78849" lon="-1.19702">
        <ele>60.2</ele>
        <time>2020-01-26T10:11:57Z</time>
      </trkpt>
      <trkpt lat="45.78848" lon="-1.19704">
        <ele>60.6</ele>
        <time>2020-01-26T10:11:58Z</time>
      </trkpt>
      <trkpt lat="45.78848" lon="-1.19706">
        <ele>60.4</ele>
        <time>2020-01-26T10:11:59Z</time>
      </trkpt>
      <trkpt lat="45.78848" lon="-1.19709">
        <ele>60.4</ele>
        <time>2020-01-26T10:12:00Z</time>
      </trkpt>
      <trkpt lat="45.78848" lon="-1.19712">
        <ele>60.2</ele>
        <time>2020-01-26T10:12:01Z</time>
      </trkpt>
      <trkpt lat="45.78849" lon="-1.19715">
        <ele>60.2</ele>
        <time>2020-01-26T10:12:02Z</time>
      </trkpt>
      <trkpt lat="45.78851" lon="-1.19719">
        <ele>60</ele>
        <time>2020-01-26T10:12:03Z</time>
      </trkpt>
      <trkpt lat="45.78853" lon="-1.19725">
        <ele>60.2</ele>
        <time>2020-01-26T10:12:04Z</time>
      </trkpt>
      <trkpt lat="45.78855" lon="-1.19731">
        <ele>60.4</ele>
        <time>2020-01-26T10:12:05Z</time>
      </trkpt>
      <trkpt lat="45.78856" lon="-1.19736">
        <ele>60.2</ele>
        <time>2020-01-26T10:12:06Z</time>
      </trkpt>
      <trkpt lat="45.78858" lon="-1.19742">
        <ele>60.2</ele>
        <time>2020-01-26T10:12:07Z</time>
      </trkpt>
      <trkpt lat="45.7886" lon="-1.19747">
        <ele>60.4</ele>
        <time>2020-01-26T10:12:08Z</time>
      </trkpt>
      <trkpt lat="45.7886" lon="-1.19753">
        <ele>60.6</ele>
        <time>2020-01-26T10:12:09Z</time>
      </trkpt>
      <trkpt lat="45.78859" lon="-1.19758">
        <ele>60.6</ele>
        <time>2020-01-26T10:12:10Z</time>
      </trkpt>
      <trkpt lat="45.78857" lon="-1.19762">
        <ele>60.8</ele>
        <time>2020-01-26T10:12:11Z</time>
      </trkpt>
      <trkpt lat="45.78857" lon="-1.19765">
        <ele>60.8</ele>
        <time>2020-01-26T10:12:12Z</time>
      </trkpt>
      <trkpt lat="45.78856" lon="-1.19768">
        <ele>61.2</ele>
        <time>2020-01-26T10:12:13Z</time>
      </trkpt>
      <trkpt lat="45.78856" lon="-1.1977">
        <ele>61.4</ele>
        <time>2020-01-26T10:12:14Z</time>
      </trkpt>
      <trkpt lat="45.78855" lon="-1.19773">
        <ele>61.6</ele>
        <time>2020-01-26T10:12:15Z</time>
      </trkpt>
      <trkpt lat="45.78855" lon="-1.19773">
        <ele>61.6</ele>
        <time>2020-01-26T10:12:16Z</time>
      </trkpt>
      <trkpt lat="45.78854" lon="-1.19775">
        <ele>61.8</ele>
        <time>2020-01-26T10:12:17Z</time>
      </trkpt>
      <trkpt lat="45.78853" lon="-1.19776">
        <ele>61.6</ele>
        <time>2020-01-26T10:12:18Z</time>
      </trkpt>
      <trkpt lat="45.78852" lon="-1.19777">
        <ele>61.6</ele>
        <time>2020-01-26T10:12:19Z</time>
      </trkpt>
      <trkpt lat="45.78851" lon="-1.19778">
        <ele>61.4</ele>
        <time>2020-01-26T10:12:20Z</time>
      </trkpt>
      <trkpt lat="45.7885" lon="-1.1978">
        <ele>61.4</ele>
        <time>2020-01-26T10:12:21Z</time>
      </trkpt>
      <trkpt lat="45.7885" lon="-1.19782">
        <ele>61.4</ele>
        <time>2020-01-26T10:12:22Z</time>
      </trkpt>
      <trkpt lat="45.7885" lon="-1.19784">
        <ele>61.8</ele>
        <time>2020-01-26T10:12:23Z</time>
      </trkpt>
      <trkpt lat="45.78849" lon="-1.19786">
        <ele>62</ele>
        <time>2020-01-26T10:12:24Z</time>
      </trkpt>
      <trkpt lat="45.78848" lon="-1.19787">
        <ele>62.6</ele>
        <time>2020-01-26T10:12:25Z</time>
      </trkpt>
      <trkpt lat="45.78847" lon="-1.19788">
        <ele>63</ele>
        <time>2020-01-26T10:12:26Z</time>
      </trkpt>
      <trkpt lat="45.78845" lon="-1.19789">
        <ele>63.2</ele>
        <time>2020-01-26T10:12:27Z</time>
      </trkpt>
      <trkpt lat="45.78844" lon="-1.19791">
        <ele>63.6</ele>
        <time>2020-01-26T10:12:28Z</time>
      </trkpt>
      <trkpt lat="45.78843" lon="-1.19791">
        <ele>64</ele>
        <time>2020-01-26T10:12:29Z</time>
      </trkpt>
      <trkpt lat="45.78841" lon="-1.19792">
        <ele>64.2</ele>
        <time>2020-01-26T10:12:30Z</time>
      </trkpt>
      <trkpt lat="45.78841" lon="-1.19793">
        <ele>64.4</ele>
        <time>2020-01-26T10:12:31Z</time>
      </trkpt>
      <trkpt lat="45.78839" lon="-1.19794">
        <ele>64.6</ele>
        <time>2020-01-26T10:12:32Z</time>
      </trkpt>
      <trkpt lat="45.78838" lon="-1.19795">
        <ele>64.6</ele>
        <time>2020-01-26T10:12:33Z</time>
      </trkpt>
      <trkpt lat="45.78837" lon="-1.19797">
        <ele>64.8</ele>
        <time>2020-01-26T10:12:34Z</time>
      </trkpt>
      <trkpt lat="45.78836" lon="-1.19799">
        <ele>64.6</ele>
        <time>2020-01-26T10:12:35Z</time>
      </trkpt>
      <trkpt lat="45.78836" lon="-1.198">
        <ele>64.6</ele>
        <time>2020-01-26T10:12:36Z</time>
      </trkpt>
      <trkpt lat="45.78837" lon="-1.19802">
        <ele>65</ele>
        <time>2020-01-26T10:12:37Z</time>
      </trkpt>
      <trkpt lat="45.78837" lon="-1.19805">
        <ele>65.6</ele>
        <time>2020-01-26T10:12:38Z</time>
      </trkpt>
      <trkpt lat="45.78837" lon="-1.19807">
        <ele>66.2</ele>
        <time>2020-01-26T10:12:39Z</time>
      </trkpt>
      <trkpt lat="45.78836" lon="-1.19809">
        <ele>67.2</ele>
        <time>2020-01-26T10:12:40Z</time>
      </trkpt>
      <trkpt lat="45.78836" lon="-1.19811">
        <ele>68.2</ele>
        <time>2020-01-26T10:12:41Z</time>
      </trkpt>
      <trkpt lat="45.78836" lon="-1.19813">
        <ele>68.8</ele>
        <time>2020-01-26T10:12:42Z</time>
      </trkpt>
      <trkpt lat="45.78834" lon="-1.19814">
        <ele>69.4</ele>
        <time>2020-01-26T10:12:43Z</time>
      </trkpt>
      <trkpt lat="45.78832" lon="-1.19815">
        <ele>69.2</ele>
        <time>2020-01-26T10:12:44Z</time>
      </trkpt>
      <trkpt lat="45.7883" lon="-1.19817">
        <ele>69.2</ele>
        <time>2020-01-26T10:12:45Z</time>
      </trkpt>
      <trkpt lat="45.78828" lon="-1.19818">
        <ele>69.2</ele>
        <time>2020-01-26T10:12:46Z</time>
      </trkpt>
      <trkpt lat="45.78827" lon="-1.19819">
        <ele>69.2</ele>
        <time>2020-01-26T10:12:47Z</time>
      </trkpt>
      <trkpt lat="45.78827" lon="-1.19821">
        <ele>69</ele>
        <time>2020-01-26T10:12:48Z</time>
      </trkpt>
      <trkpt lat="45.78825" lon="-1.19822">
        <ele>69</ele>
        <time>2020-01-26T10:12:49Z</time>
      </trkpt>
      <trkpt lat="45.78823" lon="-1.19824">
        <ele>69</ele>
        <time>2020-01-26T10:12:50Z</time>
      </trkpt>
      <trkpt lat="45.78822" lon="-1.19825">
        <ele>69</ele>
        <time>2020-01-26T10:12:51Z</time>
      </trkpt>
      <trkpt lat="45.78822" lon="-1.19827">
        <ele>69</ele>
        <time>2020-01-26T10:12:52Z</time>
      </trkpt>
      <trkpt lat="45.7882" lon="-1.1983">
        <ele>68.8</ele>
        <time>2020-01-26T10:12:53Z</time>
      </trkpt>
      <trkpt lat="45.78819" lon="-1.19834">
        <ele>68.8</ele>
        <time>2020-01-26T10:12:54Z</time>
      </trkpt>
      <trkpt lat="45.78819" lon="-1.19838">
        <ele>68.8</ele>
        <time>2020-01-26T10:12:55Z</time>
      </trkpt>
      <trkpt lat="45.78818" lon="-1.19843">
        <ele>69</ele>
        <time>2020-01-26T10:12:56Z</time>
      </trkpt>
      <trkpt lat="45.78817" lon="-1.19849">
        <ele>69</ele>
        <time>2020-01-26T10:12:57Z</time>
      </trkpt>
      <trkpt lat="45.78817" lon="-1.19855">
        <ele>69</ele>
        <time>2020-01-26T10:12:58Z</time>
      </trkpt>
      <trkpt lat="45.78817" lon="-1.19862">
        <ele>69.2</ele>
        <time>2020-01-26T10:12:59Z</time>
      </trkpt>
      <trkpt lat="45.78815" lon="-1.19868">
        <ele>69.2</ele>
        <time>2020-01-26T10:13:00Z</time>
      </trkpt>
      <trkpt lat="45.78816" lon="-1.19873">
        <ele>68.8</ele>
        <time>2020-01-26T10:13:01Z</time>
      </trkpt>
      <trkpt lat="45.78818" lon="-1.19878">
        <ele>68.6</ele>
        <time>2020-01-26T10:13:02Z</time>
      </trkpt>
      <trkpt lat="45.7882" lon="-1.19883">
        <ele>68.2</ele>
        <time>2020-01-26T10:13:03Z</time>
      </trkpt>
      <trkpt lat="45.78824" lon="-1.19887">
        <ele>67.8</ele>
        <time>2020-01-26T10:13:04Z</time>
      </trkpt>
      <trkpt lat="45.78829" lon="-1.1989">
        <ele>67.4</ele>
        <time>2020-01-26T10:13:05Z</time>
      </trkpt>
      <trkpt lat="45.78832" lon="-1.19895">
        <ele>67</ele>
        <time>2020-01-26T10:13:06Z</time>
      </trkpt>
      <trkpt lat="45.78835" lon="-1.19901">
        <ele>67</ele>
        <time>2020-01-26T10:13:07Z</time>
      </trkpt>
      <trkpt lat="45.78836" lon="-1.19908">
        <ele>66.6</ele>
        <time>2020-01-26T10:13:08Z</time>
      </trkpt>
      <trkpt lat="45.78835" lon="-1.19915">
        <ele>66.2</ele>
        <time>2020-01-26T10:13:09Z</time>
      </trkpt>
      <trkpt lat="45.78836" lon="-1.19921">
        <ele>65.8</ele>
        <time>2020-01-26T10:13:10Z</time>
      </trkpt>
      <trkpt lat="45.78838" lon="-1.19929">
        <ele>65.4</ele>
        <time>2020-01-26T10:13:11Z</time>
      </trkpt>
      <trkpt lat="45.7884" lon="-1.19934">
        <ele>65</ele>
        <time>2020-01-26T10:13:12Z</time>
      </trkpt>
      <trkpt lat="45.78843" lon="-1.19937">
        <ele>64.8</ele>
        <time>2020-01-26T10:13:13Z</time>
      </trkpt>
      <trkpt lat="45.78845" lon="-1.19943">
        <ele>64.6</ele>
        <time>2020-01-26T10:13:14Z</time>
      </trkpt>
      <trkpt lat="45.78849" lon="-1.19946">
        <ele>64.4</ele>
        <time>2020-01-26T10:13:15Z</time>
      </trkpt>
      <trkpt lat="45.78852" lon="-1.19944">
        <ele>64</ele>
        <time>2020-01-26T10:13:16Z</time>
      </trkpt>
      <trkpt lat="45.78859" lon="-1.19941">
        <ele>63.6</ele>
        <time>2020-01-26T10:13:17Z</time>
      </trkpt>
      <trkpt lat="45.78865" lon="-1.19942">
        <ele>63</ele>
        <time>2020-01-26T10:13:18Z</time>
      </trkpt>
      <trkpt lat="45.7887" lon="-1.19945">
        <ele>63</ele>
        <time>2020-01-26T10:13:19Z</time>
      </trkpt>
      <trkpt lat="45.78871" lon="-1.1995">
        <ele>63</ele>
        <time>2020-01-26T10:13:20Z</time>
      </trkpt>
      <trkpt lat="45.78873" lon="-1.19954">
        <ele>63</ele>
        <time>2020-01-26T10:13:21Z</time>
      </trkpt>
      <trkpt lat="45.78875" lon="-1.19957">
        <ele>62.8</ele>
        <time>2020-01-26T10:13:22Z</time>
      </trkpt>
      <trkpt lat="45.78876" lon="-1.19963">
        <ele>62.8</ele>
        <time>2020-01-26T10:13:23Z</time>
      </trkpt>
      <trkpt lat="45.78877" lon="-1.19968">
        <ele>62.6</ele>
        <time>2020-01-26T10:13:24Z</time>
      </trkpt>
      <trkpt lat="45.78879" lon="-1.19975">
        <ele>62.8</ele>
        <time>2020-01-26T10:13:25Z</time>
      </trkpt>
      <trkpt lat="45.78883" lon="-1.19978">
        <ele>62.8</ele>
        <time>2020-01-26T10:13:26Z</time>
      </trkpt>
      <trkpt lat="45.78886" lon="-1.1998">
        <ele>62.8</ele>
        <time>2020-01-26T10:13:27Z</time>
      </trkpt>
      <trkpt lat="45.7889" lon="-1.1998">
        <ele>62.8</ele>
        <time>2020-01-26T10:13:28Z</time>
      </trkpt>
      <trkpt lat="45.78892" lon="-1.19981">
        <ele>63</ele>
        <time>2020-01-26T10:13:29Z</time>
      </trkpt>
      <trkpt lat="45.78894" lon="-1.19985">
        <ele>63</ele>
        <time>2020-01-26T10:13:30Z</time>
      </trkpt>
      <trkpt lat="45.78896" lon="-1.19988">
        <ele>63</ele>
        <time>2020-01-26T10:13:31Z</time>
      </trkpt>
      <trkpt lat="45.78898" lon="-1.19992">
        <ele>62.6</ele>
        <time>2020-01-26T10:13:32Z</time>
      </trkpt>
      <trkpt lat="45.78897" lon="-1.19995">
        <ele>62.2</ele>
        <time>2020-01-26T10:13:33Z</time>
      </trkpt>
      <trkpt lat="45.78894" lon="-1.2">
        <ele>61.6</ele>
        <time>2020-01-26T10:13:34Z</time>
      </trkpt>
      <trkpt lat="45.78894" lon="-1.20002">
        <ele>61.2</ele>
        <time>2020-01-26T10:13:35Z</time>
      </trkpt>
      <trkpt lat="45.78892" lon="-1.20005">
        <ele>60.6</ele>
        <time>2020-01-26T10:13:36Z</time>
      </trkpt>
      <trkpt lat="45.78892" lon="-1.20007">
        <ele>60.2</ele>
        <time>2020-01-26T10:13:37Z</time>
      </trkpt>
      <trkpt lat="45.78891" lon="-1.20008">
        <ele>60</ele>
        <time>2020-01-26T10:13:38Z</time>
      </trkpt>
      <trkpt lat="45.7889" lon="-1.20009">
        <ele>59.4</ele>
        <time>2020-01-26T10:13:39Z</time>
      </trkpt>
      <trkpt lat="45.78888" lon="-1.2001">
        <ele>59</ele>
        <time>2020-01-26T10:13:40Z</time>
      </trkpt>
      <trkpt lat="45.78887" lon="-1.20013">
        <ele>58.8</ele>
        <time>2020-01-26T10:13:41Z</time>
      </trkpt>
      <trkpt lat="45.78886" lon="-1.20015">
        <ele>58.8</ele>
        <time>2020-01-26T10:13:42Z</time>
      </trkpt>
      <trkpt lat="45.78886" lon="-1.20017">
        <ele>59.2</ele>
        <time>2020-01-26T10:13:43Z</time>
      </trkpt>
      <trkpt lat="45.78884" lon="-1.20018">
        <ele>59.2</ele>
        <time>2020-01-26T10:13:44Z</time>
      </trkpt>
      <trkpt lat="45.78883" lon="-1.2002">
        <ele>58.8</ele>
        <time>2020-01-26T10:13:45Z</time>
      </trkpt>
      <trkpt lat="45.78882" lon="-1.20021">
        <ele>58</ele>
        <time>2020-01-26T10:13:46Z</time>
      </trkpt>
      <trkpt lat="45.78881" lon="-1.20022">
        <ele>57.6</ele>
        <time>2020-01-26T10:13:47Z</time>
      </trkpt>
      <trkpt lat="45.78881" lon="-1.20024">
        <ele>57.2</ele>
        <time>2020-01-26T10:13:48Z</time>
      </trkpt>
      <trkpt lat="45.78881" lon="-1.20026">
        <ele>57.4</ele>
        <time>2020-01-26T10:13:49Z</time>
      </trkpt>
      <trkpt lat="45.7888" lon="-1.20028">
        <ele>57.6</ele>
        <time>2020-01-26T10:13:50Z</time>
      </trkpt>
      <trkpt lat="45.7888" lon="-1.20028">
        <ele>57.6</ele>
        <time>2020-01-26T10:13:51Z</time>
      </trkpt>
      <trkpt lat="45.78879" lon="-1.20029">
        <ele>57.8</ele>
        <time>2020-01-26T10:13:52Z</time>
      </trkpt>
      <trkpt lat="45.78878" lon="-1.2003">
        <ele>57.6</ele>
        <time>2020-01-26T10:13:53Z</time>
      </trkpt>
      <trkpt lat="45.78876" lon="-1.20031">
        <ele>57.4</ele>
        <time>2020-01-26T10:13:54Z</time>
      </trkpt>
      <trkpt lat="45.78875" lon="-1.20032">
        <ele>57.6</ele>
        <time>2020-01-26T10:13:55Z</time>
      </trkpt>
      <trkpt lat="45.78872" lon="-1.20032">
        <ele>57.4</ele>
        <time>2020-01-26T10:13:56Z</time>
      </trkpt>
      <trkpt lat="45.78868" lon="-1.20037">
        <ele>56.8</ele>
        <time>2020-01-26T10:13:57Z</time>
      </trkpt>
      <trkpt lat="45.78866" lon="-1.20039">
        <ele>56</ele>
        <time>2020-01-26T10:13:58Z</time>
      </trkpt>
      <trkpt lat="45.78863" lon="-1.20041">
        <ele>55.4</ele>
        <time>2020-01-26T10:13:59Z</time>
      </trkpt>
      <trkpt lat="45.78864" lon="-1.20045">
        <ele>55</ele>
        <time>2020-01-26T10:14:00Z</time>
      </trkpt>
      <trkpt lat="45.78865" lon="-1.20054">
        <ele>54.4</ele>
        <time>2020-01-26T10:14:01Z</time>
      </trkpt>
      <trkpt lat="45.78864" lon="-1.20062">
        <ele>54.4</ele>
        <time>2020-01-26T10:14:02Z</time>
      </trkpt>
      <trkpt lat="45.78865" lon="-1.20068">
        <ele>54.2</ele>
        <time>2020-01-26T10:14:03Z</time>
      </trkpt>
      <trkpt lat="45.78862" lon="-1.20074">
        <ele>54</ele>
        <time>2020-01-26T10:14:04Z</time>
      </trkpt>
      <trkpt lat="45.78863" lon="-1.20082">
        <ele>53.4</ele>
        <time>2020-01-26T10:14:05Z</time>
      </trkpt>
      <trkpt lat="45.78862" lon="-1.20088">
        <ele>52.6</ele>
        <time>2020-01-26T10:14:06Z</time>
      </trkpt>
      <trkpt lat="45.78863" lon="-1.20095">
        <ele>51.6</ele>
        <time>2020-01-26T10:14:07Z</time>
      </trkpt>
      <trkpt lat="45.78863" lon="-1.20104">
        <ele>51</ele>
        <time>2020-01-26T10:14:08Z</time>
      </trkpt>
      <trkpt lat="45.78864" lon="-1.20111">
        <ele>51</ele>
        <time>2020-01-26T10:14:09Z</time>
      </trkpt>
      <trkpt lat="45.78863" lon="-1.20115">
        <ele>50.4</ele>
        <time>2020-01-26T10:14:10Z</time>
      </trkpt>
      <trkpt lat="45.78871" lon="-1.20111">
        <ele>50.2</ele>
        <time>2020-01-26T10:14:11Z</time>
      </trkpt>
      <trkpt lat="45.78875" lon="-1.20111">
        <ele>49.8</ele>
        <time>2020-01-26T10:14:12Z</time>
      </trkpt>
      <trkpt lat="45.78881" lon="-1.20111">
        <ele>50.8</ele>
        <time>2020-01-26T10:14:13Z</time>
      </trkpt>
      <trkpt lat="45.78883" lon="-1.20115">
        <ele>52</ele>
        <time>2020-01-26T10:14:14Z</time>
      </trkpt>
      <trkpt lat="45.78886" lon="-1.20119">
        <ele>52.8</ele>
        <time>2020-01-26T10:14:15Z</time>
      </trkpt>
      <trkpt lat="45.78889" lon="-1.20123">
        <ele>53.6</ele>
        <time>2020-01-26T10:14:16Z</time>
      </trkpt>
      <trkpt lat="45.78891" lon="-1.20127">
        <ele>54.4</ele>
        <time>2020-01-26T10:14:17Z</time>
      </trkpt>
      <trkpt lat="45.78893" lon="-1.20133">
        <ele>54.8</ele>
        <time>2020-01-26T10:14:18Z</time>
      </trkpt>
      <trkpt lat="45.78893" lon="-1.2014">
        <ele>55.4</ele>
        <time>2020-01-26T10:14:19Z</time>
      </trkpt>
      <trkpt lat="45.78892" lon="-1.20146">
        <ele>56</ele>
        <time>2020-01-26T10:14:20Z</time>
      </trkpt>
      <trkpt lat="45.78889" lon="-1.20149">
        <ele>55.8</ele>
        <time>2020-01-26T10:14:21Z</time>
      </trkpt>
      <trkpt lat="45.78889" lon="-1.20152">
        <ele>55.2</ele>
        <time>2020-01-26T10:14:22Z</time>
      </trkpt>
      <trkpt lat="45.78888" lon="-1.20152">
        <ele>54.8</ele>
        <time>2020-01-26T10:14:23Z</time>
      </trkpt>
      <trkpt lat="45.78888" lon="-1.20155">
        <ele>54.2</ele>
        <time>2020-01-26T10:14:24Z</time>
      </trkpt>
      <trkpt lat="45.78888" lon="-1.20159">
        <ele>53.8</ele>
        <time>2020-01-26T10:14:25Z</time>
      </trkpt>
      <trkpt lat="45.78888" lon="-1.20163">
        <ele>53.6</ele>
        <time>2020-01-26T10:14:26Z</time>
      </trkpt>
      <trkpt lat="45.78889" lon="-1.20168">
        <ele>53.6</ele>
        <time>2020-01-26T10:14:27Z</time>
      </trkpt>
      <trkpt lat="45.78891" lon="-1.20173">
        <ele>53.8</ele>
        <time>2020-01-26T10:14:28Z</time>
      </trkpt>
      <trkpt lat="45.78892" lon="-1.20178">
        <ele>53.8</ele>
        <time>2020-01-26T10:14:29Z</time>
      </trkpt>
      <trkpt lat="45.78893" lon="-1.20183">
        <ele>53.6</ele>
        <time>2020-01-26T10:14:30Z</time>
      </trkpt>
      <trkpt lat="45.78893" lon="-1.20188">
        <ele>53.4</ele>
        <time>2020-01-26T10:14:31Z</time>
      </trkpt>
      <trkpt lat="45.78891" lon="-1.20194">
        <ele>53.2</ele>
        <time>2020-01-26T10:14:32Z</time>
      </trkpt>
      <trkpt lat="45.7889" lon="-1.20199">
        <ele>53</ele>
        <time>2020-01-26T10:14:33Z</time>
      </trkpt>
      <trkpt lat="45.78892" lon="-1.20204">
        <ele>53</ele>
        <time>2020-01-26T10:14:34Z</time>
      </trkpt>
      <trkpt lat="45.78893" lon="-1.20208">
        <ele>53</ele>
        <time>2020-01-26T10:14:35Z</time>
      </trkpt>
      <trkpt lat="45.78896" lon="-1.20213">
        <ele>53.2</ele>
        <time>2020-01-26T10:14:36Z</time>
      </trkpt>
      <trkpt lat="45.78898" lon="-1.20217">
        <ele>53.2</ele>
        <time>2020-01-26T10:14:37Z</time>
      </trkpt>
      <trkpt lat="45.78901" lon="-1.20221">
        <ele>53.4</ele>
        <time>2020-01-26T10:14:38Z</time>
      </trkpt>
      <trkpt lat="45.78905" lon="-1.20225">
        <ele>53.2</ele>
        <time>2020-01-26T10:14:39Z</time>
      </trkpt>
      <trkpt lat="45.78909" lon="-1.20229">
        <ele>53</ele>
        <time>2020-01-26T10:14:40Z</time>
      </trkpt>
      <trkpt lat="45.78913" lon="-1.20233">
        <ele>52.8</ele>
        <time>2020-01-26T10:14:41Z</time>
      </trkpt>
      <trkpt lat="45.78915" lon="-1.20239">
        <ele>52.6</ele>
        <time>2020-01-26T10:14:42Z</time>
      </trkpt>
      <trkpt lat="45.78915" lon="-1.20244">
        <ele>52.8</ele>
        <time>2020-01-26T10:14:43Z</time>
      </trkpt>
      <trkpt lat="45.78917" lon="-1.20248">
        <ele>52.8</ele>
        <time>2020-01-26T10:14:44Z</time>
      </trkpt>
      <trkpt lat="45.7892" lon="-1.2025">
        <ele>52.6</ele>
        <time>2020-01-26T10:14:45Z</time>
      </trkpt>
      <trkpt lat="45.78923" lon="-1.20253">
        <ele>52.6</ele>
        <time>2020-01-26T10:14:46Z</time>
      </trkpt>
      <trkpt lat="45.78924" lon="-1.2026">
        <ele>52.4</ele>
        <time>2020-01-26T10:14:47Z</time>
      </trkpt>
      <trkpt lat="45.78927" lon="-1.20267">
        <ele>52.4</ele>
        <time>2020-01-26T10:14:48Z</time>
      </trkpt>
      <trkpt lat="45.7893" lon="-1.20273">
        <ele>52.2</ele>
        <time>2020-01-26T10:14:49Z</time>
      </trkpt>
      <trkpt lat="45.78933" lon="-1.20279">
        <ele>52</ele>
        <time>2020-01-26T10:14:50Z</time>
      </trkpt>
      <trkpt lat="45.78935" lon="-1.20284">
        <ele>51.8</ele>
        <time>2020-01-26T10:14:51Z</time>
      </trkpt>
      <trkpt lat="45.78938" lon="-1.20289">
        <ele>51.8</ele>
        <time>2020-01-26T10:14:52Z</time>
      </trkpt>
      <trkpt lat="45.78938" lon="-1.20294">
        <ele>51.6</ele>
        <time>2020-01-26T10:14:53Z</time>
      </trkpt>
      <trkpt lat="45.78939" lon="-1.20296">
        <ele>51.4</ele>
        <time>2020-01-26T10:14:54Z</time>
      </trkpt>
      <trkpt lat="45.78939" lon="-1.20298">
        <ele>51.2</ele>
        <time>2020-01-26T10:14:55Z</time>
      </trkpt>
      <trkpt lat="45.7894" lon="-1.20301">
        <ele>51</ele>
        <time>2020-01-26T10:14:56Z</time>
      </trkpt>
      <trkpt lat="45.78942" lon="-1.20304">
        <ele>51</ele>
        <time>2020-01-26T10:14:57Z</time>
      </trkpt>
      <trkpt lat="45.78947" lon="-1.20305">
        <ele>51.2</ele>
        <time>2020-01-26T10:14:58Z</time>
      </trkpt>
      <trkpt lat="45.78953" lon="-1.20303">
        <ele>51.2</ele>
        <time>2020-01-26T10:14:59Z</time>
      </trkpt>
      <trkpt lat="45.78957" lon="-1.20305">
        <ele>51.2</ele>
        <time>2020-01-26T10:15:00Z</time>
      </trkpt>
      <trkpt lat="45.7896" lon="-1.20304">
        <ele>51.2</ele>
        <time>2020-01-26T10:15:01Z</time>
      </trkpt>
      <trkpt lat="45.78964" lon="-1.20304">
        <ele>51</ele>
        <time>2020-01-26T10:15:02Z</time>
      </trkpt>
      <trkpt lat="45.78967" lon="-1.20307">
        <ele>50.8</ele>
        <time>2020-01-26T10:15:03Z</time>
      </trkpt>
      <trkpt lat="45.78969" lon="-1.20311">
        <ele>51.4</ele>
        <time>2020-01-26T10:15:04Z</time>
      </trkpt>
      <trkpt lat="45.78971" lon="-1.20314">
        <ele>52</ele>
        <time>2020-01-26T10:15:05Z</time>
      </trkpt>
      <trkpt lat="45.78975" lon="-1.20321">
        <ele>52.2</ele>
        <time>2020-01-26T10:15:06Z</time>
      </trkpt>
      <trkpt lat="45.78977" lon="-1.20332">
        <ele>52</ele>
        <time>2020-01-26T10:15:07Z</time>
      </trkpt>
      <trkpt lat="45.78979" lon="-1.20339">
        <ele>51.6</ele>
        <time>2020-01-26T10:15:08Z</time>
      </trkpt>
      <trkpt lat="45.78983" lon="-1.20346">
        <ele>51.2</ele>
        <time>2020-01-26T10:15:09Z</time>
      </trkpt>
      <trkpt lat="45.78984" lon="-1.20355">
        <ele>51</ele>
        <time>2020-01-26T10:15:10Z</time>
      </trkpt>
      <trkpt lat="45.78987" lon="-1.20363">
        <ele>51</ele>
        <time>2020-01-26T10:15:11Z</time>
      </trkpt>
      <trkpt lat="45.78989" lon="-1.20369">
        <ele>51</ele>
        <time>2020-01-26T10:15:12Z</time>
      </trkpt>
      <trkpt lat="45.78992" lon="-1.20376">
        <ele>51</ele>
        <time>2020-01-26T10:15:13Z</time>
      </trkpt>
      <trkpt lat="45.78993" lon="-1.20381">
        <ele>51</ele>
        <time>2020-01-26T10:15:14Z</time>
      </trkpt>
      <trkpt lat="45.78994" lon="-1.20387">
        <ele>51</ele>
        <time>2020-01-26T10:15:15Z</time>
      </trkpt>
      <trkpt lat="45.78997" lon="-1.20391">
        <ele>50.8</ele>
        <time>2020-01-26T10:15:16Z</time>
      </trkpt>
      <trkpt lat="45.78997" lon="-1.20397">
        <ele>50</ele>
        <time>2020-01-26T10:15:17Z</time>
      </trkpt>
      <trkpt lat="45.78998" lon="-1.20403">
        <ele>49.2</ele>
        <time>2020-01-26T10:15:18Z</time>
      </trkpt>
      <trkpt lat="45.78999" lon="-1.20406">
        <ele>48.6</ele>
        <time>2020-01-26T10:15:19Z</time>
      </trkpt>
      <trkpt lat="45.79003" lon="-1.20411">
        <ele>48.2</ele>
        <time>2020-01-26T10:15:20Z</time>
      </trkpt>
      <trkpt lat="45.79005" lon="-1.20415">
        <ele>48</ele>
        <time>2020-01-26T10:15:21Z</time>
      </trkpt>
      <trkpt lat="45.79007" lon="-1.20422">
        <ele>48</ele>
        <time>2020-01-26T10:15:22Z</time>
      </trkpt>
      <trkpt lat="45.79007" lon="-1.20428">
        <ele>48</ele>
        <time>2020-01-26T10:15:23Z</time>
      </trkpt>
      <trkpt lat="45.79009" lon="-1.20434">
        <ele>48.2</ele>
        <time>2020-01-26T10:15:24Z</time>
      </trkpt>
      <trkpt lat="45.79009" lon="-1.20441">
        <ele>48.4</ele>
        <time>2020-01-26T10:15:25Z</time>
      </trkpt>
      <trkpt lat="45.79011" lon="-1.20446">
        <ele>48.6</ele>
        <time>2020-01-26T10:15:26Z</time>
      </trkpt>
      <trkpt lat="45.79012" lon="-1.20452">
        <ele>49</ele>
        <time>2020-01-26T10:15:27Z</time>
      </trkpt>
      <trkpt lat="45.79009" lon="-1.20455">
        <ele>49.2</ele>
        <time>2020-01-26T10:15:28Z</time>
      </trkpt>
      <trkpt lat="45.79007" lon="-1.20457">
        <ele>49.4</ele>
        <time>2020-01-26T10:15:29Z</time>
      </trkpt>
      <trkpt lat="45.79006" lon="-1.20463">
        <ele>48.8</ele>
        <time>2020-01-26T10:15:30Z</time>
      </trkpt>
      <trkpt lat="45.79005" lon="-1.20466">
        <ele>48.6</ele>
        <time>2020-01-26T10:15:31Z</time>
      </trkpt>
      <trkpt lat="45.79005" lon="-1.20473">
        <ele>48.4</ele>
        <time>2020-01-26T10:15:32Z</time>
      </trkpt>
      <trkpt lat="45.79004" lon="-1.2048">
        <ele>48</ele>
        <time>2020-01-26T10:15:33Z</time>
      </trkpt>
      <trkpt lat="45.79007" lon="-1.20484">
        <ele>47.8</ele>
        <time>2020-01-26T10:15:34Z</time>
      </trkpt>
      <trkpt lat="45.79009" lon="-1.2049">
        <ele>47.4</ele>
        <time>2020-01-26T10:15:35Z</time>
      </trkpt>
      <trkpt lat="45.79012" lon="-1.20494">
        <ele>47</ele>
        <time>2020-01-26T10:15:36Z</time>
      </trkpt>
      <trkpt lat="45.79013" lon="-1.20496">
        <ele>46.8</ele>
        <time>2020-01-26T10:15:37Z</time>
      </trkpt>
      <trkpt lat="45.79015" lon="-1.20499">
        <ele>46.2</ele>
        <time>2020-01-26T10:15:38Z</time>
      </trkpt>
      <trkpt lat="45.79017" lon="-1.20504">
        <ele>46</ele>
        <time>2020-01-26T10:15:39Z</time>
      </trkpt>
      <trkpt lat="45.79017" lon="-1.2051">
        <ele>45.8</ele>
        <time>2020-01-26T10:15:40Z</time>
      </trkpt>
      <trkpt lat="45.79019" lon="-1.20515">
        <ele>45.6</ele>
        <time>2020-01-26T10:15:41Z</time>
      </trkpt>
      <trkpt lat="45.7902" lon="-1.2052">
        <ele>45.6</ele>
        <time>2020-01-26T10:15:42Z</time>
      </trkpt>
      <trkpt lat="45.79022" lon="-1.20522">
        <ele>45.8</ele>
        <time>2020-01-26T10:15:43Z</time>
      </trkpt>
      <trkpt lat="45.79025" lon="-1.20527">
        <ele>45.8</ele>
        <time>2020-01-26T10:15:44Z</time>
      </trkpt>
      <trkpt lat="45.79023" lon="-1.20533">
        <ele>45.8</ele>
        <time>2020-01-26T10:15:45Z</time>
      </trkpt>
      <trkpt lat="45.79025" lon="-1.20538">
        <ele>46</ele>
        <time>2020-01-26T10:15:46Z</time>
      </trkpt>
      <trkpt lat="45.79028" lon="-1.20543">
        <ele>46.4</ele>
        <time>2020-01-26T10:15:47Z</time>
      </trkpt>
      <trkpt lat="45.79031" lon="-1.20548">
        <ele>47.2</ele>
        <time>2020-01-26T10:15:48Z</time>
      </trkpt>
      <trkpt lat="45.79032" lon="-1.20554">
        <ele>47.6</ele>
        <time>2020-01-26T10:15:49Z</time>
      </trkpt>
      <trkpt lat="45.79031" lon="-1.20559">
        <ele>48</ele>
        <time>2020-01-26T10:15:50Z</time>
      </trkpt>
      <trkpt lat="45.79029" lon="-1.20564">
        <ele>48.4</ele>
        <time>2020-01-26T10:15:51Z</time>
      </trkpt>
      <trkpt lat="45.79027" lon="-1.20568">
        <ele>49.2</ele>
        <time>2020-01-26T10:15:52Z</time>
      </trkpt>
      <trkpt lat="45.79025" lon="-1.20572">
        <ele>49.6</ele>
        <time>2020-01-26T10:15:53Z</time>
      </trkpt>
      <trkpt lat="45.79025" lon="-1.20577">
        <ele>50</ele>
        <time>2020-01-26T10:15:54Z</time>
      </trkpt>
      <trkpt lat="45.79025" lon="-1.20582">
        <ele>50.2</ele>
        <time>2020-01-26T10:15:55Z</time>
      </trkpt>
      <trkpt lat="45.79026" lon="-1.20585">
        <ele>50.4</ele>
        <time>2020-01-26T10:15:56Z</time>
      </trkpt>
      <trkpt lat="45.79026" lon="-1.20589">
        <ele>50.6</ele>
        <time>2020-01-26T10:15:57Z</time>
      </trkpt>
      <trkpt lat="45.79026" lon="-1.20593">
        <ele>50.6</ele>
        <time>2020-01-26T10:15:58Z</time>
      </trkpt>
      <trkpt lat="45.79026" lon="-1.20598">
        <ele>50.8</ele>
        <time>2020-01-26T10:15:59Z</time>
      </trkpt>
      <trkpt lat="45.79026" lon="-1.20601">
        <ele>51</ele>
        <time>2020-01-26T10:16:00Z</time>
      </trkpt>
      <trkpt lat="45.79025" lon="-1.20604">
        <ele>51</ele>
        <time>2020-01-26T10:16:01Z</time>
      </trkpt>
      <trkpt lat="45.79024" lon="-1.20606">
        <ele>50.4</ele>
        <time>2020-01-26T10:16:02Z</time>
      </trkpt>
      <trkpt lat="45.79025" lon="-1.2061">
        <ele>50.2</ele>
        <time>2020-01-26T10:16:03Z</time>
      </trkpt>
      <trkpt lat="45.79026" lon="-1.20615">
        <ele>50</ele>
        <time>2020-01-26T10:16:04Z</time>
      </trkpt>
      <trkpt lat="45.79026" lon="-1.20619">
        <ele>49.8</ele>
        <time>2020-01-26T10:16:05Z</time>
      </trkpt>
      <trkpt lat="45.79028" lon="-1.20624">
        <ele>50.2</ele>
        <time>2020-01-26T10:16:06Z</time>
      </trkpt>
      <trkpt lat="45.79027" lon="-1.20627">
        <ele>50.6</ele>
        <time>2020-01-26T10:16:07Z</time>
      </trkpt>
      <trkpt lat="45.79026" lon="-1.20628">
        <ele>51.2</ele>
        <time>2020-01-26T10:16:08Z</time>
      </trkpt>
      <trkpt lat="45.79025" lon="-1.2063">
        <ele>51.4</ele>
        <time>2020-01-26T10:16:09Z</time>
      </trkpt>
      <trkpt lat="45.79024" lon="-1.20631">
        <ele>51.4</ele>
        <time>2020-01-26T10:16:10Z</time>
      </trkpt>
      <trkpt lat="45.79024" lon="-1.20634">
        <ele>51.4</ele>
        <time>2020-01-26T10:16:11Z</time>
      </trkpt>
      <trkpt lat="45.79023" lon="-1.20637">
        <ele>51.4</ele>
        <time>2020-01-26T10:16:12Z</time>
      </trkpt>
      <trkpt lat="45.79023" lon="-1.20642">
        <ele>51.2</ele>
        <time>2020-01-26T10:16:13Z</time>
      </trkpt>
      <trkpt lat="45.79022" lon="-1.20646">
        <ele>51.2</ele>
        <time>2020-01-26T10:16:14Z</time>
      </trkpt>
      <trkpt lat="45.79021" lon="-1.2065">
        <ele>51.2</ele>
        <time>2020-01-26T10:16:15Z</time>
      </trkpt>
      <trkpt lat="45.79022" lon="-1.20655">
        <ele>51.6</ele>
        <time>2020-01-26T10:16:16Z</time>
      </trkpt>
      <trkpt lat="45.7902" lon="-1.20659">
        <ele>52</ele>
        <time>2020-01-26T10:16:17Z</time>
      </trkpt>
      <trkpt lat="45.79016" lon="-1.2066">
        <ele>51.4</ele>
        <time>2020-01-26T10:16:18Z</time>
      </trkpt>
      <trkpt lat="45.79014" lon="-1.20662">
        <ele>51</ele>
        <time>2020-01-26T10:16:19Z</time>
      </trkpt>
      <trkpt lat="45.79013" lon="-1.20666">
        <ele>50.8</ele>
        <time>2020-01-26T10:16:20Z</time>
      </trkpt>
      <trkpt lat="45.79013" lon="-1.2067">
        <ele>50.6</ele>
        <time>2020-01-26T10:16:21Z</time>
      </trkpt>
      <trkpt lat="45.79012" lon="-1.20674">
        <ele>50.6</ele>
        <time>2020-01-26T10:16:22Z</time>
      </trkpt>
      <trkpt lat="45.79013" lon="-1.20678">
        <ele>51.2</ele>
        <time>2020-01-26T10:16:23Z</time>
      </trkpt>
      <trkpt lat="45.79015" lon="-1.2068">
        <ele>51.6</ele>
        <time>2020-01-26T10:16:24Z</time>
      </trkpt>
      <trkpt lat="45.79015" lon="-1.20682">
        <ele>52</ele>
        <time>2020-01-26T10:16:25Z</time>
      </trkpt>
      <trkpt lat="45.79015" lon="-1.20685">
        <ele>52.2</ele>
        <time>2020-01-26T10:16:26Z</time>
      </trkpt>
      <trkpt lat="45.79015" lon="-1.20689">
        <ele>52.4</ele>
        <time>2020-01-26T10:16:27Z</time>
      </trkpt>
      <trkpt lat="45.79015" lon="-1.20694">
        <ele>52.8</ele>
        <time>2020-01-26T10:16:28Z</time>
      </trkpt>
      <trkpt lat="45.79018" lon="-1.20693">
        <ele>53</ele>
        <time>2020-01-26T10:16:29Z</time>
      </trkpt>
      <trkpt lat="45.79021" lon="-1.20693">
        <ele>52.8</ele>
        <time>2020-01-26T10:16:30Z</time>
      </trkpt>
      <trkpt lat="45.79025" lon="-1.20693">
        <ele>52.6</ele>
        <time>2020-01-26T10:16:31Z</time>
      </trkpt>
      <trkpt lat="45.7903" lon="-1.20694">
        <ele>52.4</ele>
        <time>2020-01-26T10:16:32Z</time>
      </trkpt>
      <trkpt lat="45.79037" lon="-1.20702">
        <ele>52</ele>
        <time>2020-01-26T10:16:33Z</time>
      </trkpt>
      <trkpt lat="45.79041" lon="-1.20707">
        <ele>51.8</ele>
        <time>2020-01-26T10:16:34Z</time>
      </trkpt>
      <trkpt lat="45.79045" lon="-1.20713">
        <ele>51.4</ele>
        <time>2020-01-26T10:16:35Z</time>
      </trkpt>
      <trkpt lat="45.79049" lon="-1.20719">
        <ele>51</ele>
        <time>2020-01-26T10:16:36Z</time>
      </trkpt>
      <trkpt lat="45.79053" lon="-1.20723">
        <ele>50.8</ele>
        <time>2020-01-26T10:16:37Z</time>
      </trkpt>
      <trkpt lat="45.79057" lon="-1.20726">
        <ele>50.8</ele>
        <time>2020-01-26T10:16:38Z</time>
      </trkpt>
      <trkpt lat="45.79059" lon="-1.20728">
        <ele>50.8</ele>
        <time>2020-01-26T10:16:39Z</time>
      </trkpt>
      <trkpt lat="45.79062" lon="-1.20732">
        <ele>50.6</ele>
        <time>2020-01-26T10:16:40Z</time>
      </trkpt>
      <trkpt lat="45.79062" lon="-1.20738">
        <ele>50</ele>
        <time>2020-01-26T10:16:41Z</time>
      </trkpt>
      <trkpt lat="45.79064" lon="-1.20743">
        <ele>49.4</ele>
        <time>2020-01-26T10:16:42Z</time>
      </trkpt>
      <trkpt lat="45.79063" lon="-1.20745">
        <ele>49.2</ele>
        <time>2020-01-26T10:16:43Z</time>
      </trkpt>
      <trkpt lat="45.79063" lon="-1.20748">
        <ele>49</ele>
        <time>2020-01-26T10:16:44Z</time>
      </trkpt>
      <trkpt lat="45.79062" lon="-1.20752">
        <ele>48.8</ele>
        <time>2020-01-26T10:16:45Z</time>
      </trkpt>
      <trkpt lat="45.79062" lon="-1.20758">
        <ele>48.2</ele>
        <time>2020-01-26T10:16:46Z</time>
      </trkpt>
      <trkpt lat="45.79061" lon="-1.20764">
        <ele>46.8</ele>
        <time>2020-01-26T10:16:47Z</time>
      </trkpt>
      <trkpt lat="45.79063" lon="-1.20771">
        <ele>45.6</ele>
        <time>2020-01-26T10:16:48Z</time>
      </trkpt>
      <trkpt lat="45.79065" lon="-1.20778">
        <ele>45</ele>
        <time>2020-01-26T10:16:49Z</time>
      </trkpt>
      <trkpt lat="45.79064" lon="-1.20784">
        <ele>44.2</ele>
        <time>2020-01-26T10:16:50Z</time>
      </trkpt>
      <trkpt lat="45.79062" lon="-1.20786">
        <ele>42.4</ele>
        <time>2020-01-26T10:16:51Z</time>
      </trkpt>
      <trkpt lat="45.79061" lon="-1.20792">
        <ele>40.2</ele>
        <time>2020-01-26T10:16:52Z</time>
      </trkpt>
      <trkpt lat="45.7906" lon="-1.20799">
        <ele>38.6</ele>
        <time>2020-01-26T10:16:53Z</time>
      </trkpt>
      <trkpt lat="45.79058" lon="-1.20805">
        <ele>37.6</ele>
        <time>2020-01-26T10:16:54Z</time>
      </trkpt>
      <trkpt lat="45.79056" lon="-1.20809">
        <ele>36.6</ele>
        <time>2020-01-26T10:16:55Z</time>
      </trkpt>
      <trkpt lat="45.79053" lon="-1.20812">
        <ele>36</ele>
        <time>2020-01-26T10:16:56Z</time>
      </trkpt>
      <trkpt lat="45.79051" lon="-1.20815">
        <ele>35.4</ele>
        <time>2020-01-26T10:16:57Z</time>
      </trkpt>
      <trkpt lat="45.79049" lon="-1.20818">
        <ele>35.4</ele>
        <time>2020-01-26T10:16:58Z</time>
      </trkpt>
      <trkpt lat="45.79048" lon="-1.20815">
        <ele>35.2</ele>
        <time>2020-01-26T10:16:59Z</time>
      </trkpt>
      <trkpt lat="45.79047" lon="-1.20816">
        <ele>34.2</ele>
        <time>2020-01-26T10:17:00Z</time>
      </trkpt>
      <trkpt lat="45.79044" lon="-1.20815">
        <ele>33</ele>
        <time>2020-01-26T10:17:01Z</time>
      </trkpt>
      <trkpt lat="45.7904" lon="-1.20816">
        <ele>32</ele>
        <time>2020-01-26T10:17:02Z</time>
      </trkpt>
      <trkpt lat="45.79035" lon="-1.2082">
        <ele>31.2</ele>
        <time>2020-01-26T10:17:03Z</time>
      </trkpt>
      <trkpt lat="45.79031" lon="-1.20823">
        <ele>30.8</ele>
        <time>2020-01-26T10:17:04Z</time>
      </trkpt>
      <trkpt lat="45.79027" lon="-1.20827">
        <ele>30.2</ele>
        <time>2020-01-26T10:17:05Z</time>
      </trkpt>
      <trkpt lat="45.79022" lon="-1.20832">
        <ele>29.8</ele>
        <time>2020-01-26T10:17:06Z</time>
      </trkpt>
      <trkpt lat="45.79021" lon="-1.20839">
        <ele>29.6</ele>
        <time>2020-01-26T10:17:07Z</time>
      </trkpt>
      <trkpt lat="45.79025" lon="-1.20842">
        <ele>29.2</ele>
        <time>2020-01-26T10:17:08Z</time>
      </trkpt>
      <trkpt lat="45.79025" lon="-1.20849">
        <ele>29.2</ele>
        <time>2020-01-26T10:17:09Z</time>
      </trkpt>
      <trkpt lat="45.79026" lon="-1.20858">
        <ele>29</ele>
        <time>2020-01-26T10:17:10Z</time>
      </trkpt>
      <trkpt lat="45.79026" lon="-1.20866">
        <ele>29</ele>
        <time>2020-01-26T10:17:11Z</time>
      </trkpt>
      <trkpt lat="45.79028" lon="-1.20872">
        <ele>29</ele>
        <time>2020-01-26T10:17:12Z</time>
      </trkpt>
      <trkpt lat="45.79031" lon="-1.2088">
        <ele>29.4</ele>
        <time>2020-01-26T10:17:13Z</time>
      </trkpt>
      <trkpt lat="45.79037" lon="-1.20884">
        <ele>29.8</ele>
        <time>2020-01-26T10:17:14Z</time>
      </trkpt>
      <trkpt lat="45.79041" lon="-1.2089">
        <ele>30</ele>
        <time>2020-01-26T10:17:15Z</time>
      </trkpt>
      <trkpt lat="45.79043" lon="-1.20895">
        <ele>30.2</ele>
        <time>2020-01-26T10:17:16Z</time>
      </trkpt>
      <trkpt lat="45.79046" lon="-1.20899">
        <ele>30.4</ele>
        <time>2020-01-26T10:17:17Z</time>
      </trkpt>
      <trkpt lat="45.79047" lon="-1.20905">
        <ele>30.6</ele>
        <time>2020-01-26T10:17:18Z</time>
      </trkpt>
      <trkpt lat="45.79048" lon="-1.2091">
        <ele>30.6</ele>
        <time>2020-01-26T10:17:19Z</time>
      </trkpt>
      <trkpt lat="45.79047" lon="-1.20915">
        <ele>30.6</ele>
        <time>2020-01-26T10:17:20Z</time>
      </trkpt>
      <trkpt lat="45.79047" lon="-1.20921">
        <ele>30.4</ele>
        <time>2020-01-26T10:17:21Z</time>
      </trkpt>
      <trkpt lat="45.79046" lon="-1.20928">
        <ele>30</ele>
        <time>2020-01-26T10:17:22Z</time>
      </trkpt>
      <trkpt lat="45.79047" lon="-1.20935">
        <ele>29.8</ele>
        <time>2020-01-26T10:17:23Z</time>
      </trkpt>
      <trkpt lat="45.79045" lon="-1.20941">
        <ele>29.6</ele>
        <time>2020-01-26T10:17:24Z</time>
      </trkpt>
      <trkpt lat="45.79042" lon="-1.20946">
        <ele>30.2</ele>
        <time>2020-01-26T10:17:25Z</time>
      </trkpt>
      <trkpt lat="45.79041" lon="-1.20952">
        <ele>31.2</ele>
        <time>2020-01-26T10:17:26Z</time>
      </trkpt>
      <trkpt lat="45.7904" lon="-1.20957">
        <ele>31.8</ele>
        <time>2020-01-26T10:17:27Z</time>
      </trkpt>
      <trkpt lat="45.79041" lon="-1.2096">
        <ele>32.8</ele>
        <time>2020-01-26T10:17:28Z</time>
      </trkpt>
      <trkpt lat="45.79042" lon="-1.20964">
        <ele>33.6</ele>
        <time>2020-01-26T10:17:29Z</time>
      </trkpt>
      <trkpt lat="45.79042" lon="-1.2097">
        <ele>34.2</ele>
        <time>2020-01-26T10:17:30Z</time>
      </trkpt>
      <trkpt lat="45.79042" lon="-1.20973">
        <ele>35.4</ele>
        <time>2020-01-26T10:17:31Z</time>
      </trkpt>
      <trkpt lat="45.79042" lon="-1.20977">
        <ele>36.8</ele>
        <time>2020-01-26T10:17:32Z</time>
      </trkpt>
      <trkpt lat="45.79037" lon="-1.20981">
        <ele>37.6</ele>
        <time>2020-01-26T10:17:33Z</time>
      </trkpt>
      <trkpt lat="45.79036" lon="-1.20987">
        <ele>38.2</ele>
        <time>2020-01-26T10:17:34Z</time>
      </trkpt>
      <trkpt lat="45.79035" lon="-1.20992">
        <ele>38.6</ele>
        <time>2020-01-26T10:17:35Z</time>
      </trkpt>
      <trkpt lat="45.79033" lon="-1.20996">
        <ele>39</ele>
        <time>2020-01-26T10:17:36Z</time>
      </trkpt>
      <trkpt lat="45.79032" lon="-1.21">
        <ele>39.2</ele>
        <time>2020-01-26T10:17:37Z</time>
      </trkpt>
      <trkpt lat="45.7903" lon="-1.21003">
        <ele>38.8</ele>
        <time>2020-01-26T10:17:38Z</time>
      </trkpt>
      <trkpt lat="45.79029" lon="-1.21007">
        <ele>38.4</ele>
        <time>2020-01-26T10:17:39Z</time>
      </trkpt>
      <trkpt lat="45.79029" lon="-1.21012">
        <ele>38.4</ele>
        <time>2020-01-26T10:17:40Z</time>
      </trkpt>
      <trkpt lat="45.79027" lon="-1.21016">
        <ele>38.2</ele>
        <time>2020-01-26T10:17:41Z</time>
      </trkpt>
      <trkpt lat="45.79024" lon="-1.21018">
        <ele>38.4</ele>
        <time>2020-01-26T10:17:42Z</time>
      </trkpt>
      <trkpt lat="45.79023" lon="-1.21023">
        <ele>38.8</ele>
        <time>2020-01-26T10:17:43Z</time>
      </trkpt>
      <trkpt lat="45.79022" lon="-1.21029">
        <ele>38.8</ele>
        <time>2020-01-26T10:17:44Z</time>
      </trkpt>
      <trkpt lat="45.79022" lon="-1.21036">
        <ele>39.2</ele>
        <time>2020-01-26T10:17:45Z</time>
      </trkpt>
      <trkpt lat="45.79021" lon="-1.21041">
        <ele>39.4</ele>
        <time>2020-01-26T10:17:46Z</time>
      </trkpt>
      <trkpt lat="45.79021" lon="-1.21044">
        <ele>39.2</ele>
        <time>2020-01-26T10:17:47Z</time>
      </trkpt>
      <trkpt lat="45.79022" lon="-1.21048">
        <ele>39.4</ele>
        <time>2020-01-26T10:17:48Z</time>
      </trkpt>
      <trkpt lat="45.79022" lon="-1.21051">
        <ele>39.6</ele>
        <time>2020-01-26T10:17:49Z</time>
      </trkpt>
      <trkpt lat="45.79021" lon="-1.21055">
        <ele>39.2</ele>
        <time>2020-01-26T10:17:50Z</time>
      </trkpt>
      <trkpt lat="45.79022" lon="-1.2106">
        <ele>39.6</ele>
        <time>2020-01-26T10:17:51Z</time>
      </trkpt>
      <trkpt lat="45.79021" lon="-1.21065">
        <ele>39.8</ele>
        <time>2020-01-26T10:17:52Z</time>
      </trkpt>
      <trkpt lat="45.79022" lon="-1.21071">
        <ele>39.6</ele>
        <time>2020-01-26T10:17:53Z</time>
      </trkpt>
      <trkpt lat="45.79023" lon="-1.21077">
        <ele>40</ele>
        <time>2020-01-26T10:17:54Z</time>
      </trkpt>
      <trkpt lat="45.79021" lon="-1.21083">
        <ele>40.8</ele>
        <time>2020-01-26T10:17:55Z</time>
      </trkpt>
      <trkpt lat="45.7902" lon="-1.21087">
        <ele>41.4</ele>
        <time>2020-01-26T10:17:56Z</time>
      </trkpt>
      <trkpt lat="45.79017" lon="-1.21092">
        <ele>42.2</ele>
        <time>2020-01-26T10:17:57Z</time>
      </trkpt>
      <trkpt lat="45.79013" lon="-1.211">
        <ele>42.4</ele>
        <time>2020-01-26T10:17:58Z</time>
      </trkpt>
      <trkpt lat="45.79013" lon="-1.21105">
        <ele>42.8</ele>
        <time>2020-01-26T10:17:59Z</time>
      </trkpt>
      <trkpt lat="45.79014" lon="-1.2111">
        <ele>43.4</ele>
        <time>2020-01-26T10:18:00Z</time>
      </trkpt>
      <trkpt lat="45.79016" lon="-1.21114">
        <ele>43.8</ele>
        <time>2020-01-26T10:18:01Z</time>
      </trkpt>
      <trkpt lat="45.79018" lon="-1.21116">
        <ele>44.4</ele>
        <time>2020-01-26T10:18:02Z</time>
      </trkpt>
      <trkpt lat="45.79019" lon="-1.21119">
        <ele>45</ele>
        <time>2020-01-26T10:18:03Z</time>
      </trkpt>
      <trkpt lat="45.79019" lon="-1.21123">
        <ele>45.2</ele>
        <time>2020-01-26T10:18:04Z</time>
      </trkpt>
      <trkpt lat="45.7902" lon="-1.21128">
        <ele>45.4</ele>
        <time>2020-01-26T10:18:05Z</time>
      </trkpt>
      <trkpt lat="45.79021" lon="-1.21133">
        <ele>45.8</ele>
        <time>2020-01-26T10:18:06Z</time>
      </trkpt>
      <trkpt lat="45.79022" lon="-1.21137">
        <ele>46.6</ele>
        <time>2020-01-26T10:18:07Z</time>
      </trkpt>
      <trkpt lat="45.79021" lon="-1.21142">
        <ele>47.2</ele>
        <time>2020-01-26T10:18:08Z</time>
      </trkpt>
      <trkpt lat="45.79022" lon="-1.21148">
        <ele>48</ele>
        <time>2020-01-26T10:18:09Z</time>
      </trkpt>
      <trkpt lat="45.79023" lon="-1.21153">
        <ele>48.6</ele>
        <time>2020-01-26T10:18:10Z</time>
      </trkpt>
      <trkpt lat="45.79024" lon="-1.21158">
        <ele>49.2</ele>
        <time>2020-01-26T10:18:11Z</time>
      </trkpt>
      <trkpt lat="45.79025" lon="-1.21162">
        <ele>49.6</ele>
        <time>2020-01-26T10:18:12Z</time>
      </trkpt>
      <trkpt lat="45.79023" lon="-1.21166">
        <ele>50</ele>
        <time>2020-01-26T10:18:13Z</time>
      </trkpt>
      <trkpt lat="45.79023" lon="-1.21169">
        <ele>50.4</ele>
        <time>2020-01-26T10:18:14Z</time>
      </trkpt>
      <trkpt lat="45.79022" lon="-1.2117">
        <ele>51</ele>
        <time>2020-01-26T10:18:15Z</time>
      </trkpt>
      <trkpt lat="45.79021" lon="-1.21172">
        <ele>51.4</ele>
        <time>2020-01-26T10:18:16Z</time>
      </trkpt>
      <trkpt lat="45.79019" lon="-1.21175">
        <ele>51.8</ele>
        <time>2020-01-26T10:18:17Z</time>
      </trkpt>
      <trkpt lat="45.79016" lon="-1.21176">
        <ele>52</ele>
        <time>2020-01-26T10:18:18Z</time>
      </trkpt>
      <trkpt lat="45.79012" lon="-1.21176">
        <ele>51.8</ele>
        <time>2020-01-26T10:18:19Z</time>
      </trkpt>
      <trkpt lat="45.79008" lon="-1.21177">
        <ele>51.6</ele>
        <time>2020-01-26T10:18:20Z</time>
      </trkpt>
      <trkpt lat="45.79006" lon="-1.2118">
        <ele>51.8</ele>
        <time>2020-01-26T10:18:21Z</time>
      </trkpt>
      <trkpt lat="45.79005" lon="-1.21184">
        <ele>52</ele>
        <time>2020-01-26T10:18:22Z</time>
      </trkpt>
      <trkpt lat="45.79003" lon="-1.21188">
        <ele>52.2</ele>
        <time>2020-01-26T10:18:23Z</time>
      </trkpt>
      <trkpt lat="45.79" lon="-1.21189">
        <ele>52.2</ele>
        <time>2020-01-26T10:18:24Z</time>
      </trkpt>
      <trkpt lat="45.78997" lon="-1.21188">
        <ele>51.8</ele>
        <time>2020-01-26T10:18:25Z</time>
      </trkpt>
      <trkpt lat="45.78994" lon="-1.21189">
        <ele>51.4</ele>
        <time>2020-01-26T10:18:26Z</time>
      </trkpt>
      <trkpt lat="45.78991" lon="-1.21189">
        <ele>51</ele>
        <time>2020-01-26T10:18:27Z</time>
      </trkpt>
      <trkpt lat="45.78988" lon="-1.21187">
        <ele>50</ele>
        <time>2020-01-26T10:18:28Z</time>
      </trkpt>
      <trkpt lat="45.78986" lon="-1.21187">
        <ele>50</ele>
        <time>2020-01-26T10:18:29Z</time>
      </trkpt>
      <trkpt lat="45.78981" lon="-1.21188">
        <ele>49.4</ele>
        <time>2020-01-26T10:18:30Z</time>
      </trkpt>
      <trkpt lat="45.78976" lon="-1.21191">
        <ele>48.8</ele>
        <time>2020-01-26T10:18:31Z</time>
      </trkpt>
      <trkpt lat="45.78971" lon="-1.21199">
        <ele>48.2</ele>
        <time>2020-01-26T10:18:32Z</time>
      </trkpt>
      <trkpt lat="45.78972" lon="-1.21208">
        <ele>47.6</ele>
        <time>2020-01-26T10:18:33Z</time>
      </trkpt>
      <trkpt lat="45.78973" lon="-1.21215">
        <ele>47.4</ele>
        <time>2020-01-26T10:18:34Z</time>
      </trkpt>
      <trkpt lat="45.78975" lon="-1.21219">
        <ele>47</ele>
        <time>2020-01-26T10:18:35Z</time>
      </trkpt>
      <trkpt lat="45.78974" lon="-1.21223">
        <ele>46.8</ele>
        <time>2020-01-26T10:18:36Z</time>
      </trkpt>
      <trkpt lat="45.78975" lon="-1.21229">
        <ele>46.6</ele>
        <time>2020-01-26T10:18:37Z</time>
      </trkpt>
      <trkpt lat="45.78976" lon="-1.21239">
        <ele>46.4</ele>
        <time>2020-01-26T10:18:38Z</time>
      </trkpt>
      <trkpt lat="45.78976" lon="-1.21248">
        <ele>46.4</ele>
        <time>2020-01-26T10:18:39Z</time>
      </trkpt>
      <trkpt lat="45.78978" lon="-1.21257">
        <ele>46.4</ele>
        <time>2020-01-26T10:18:40Z</time>
      </trkpt>
      <trkpt lat="45.78983" lon="-1.21263">
        <ele>46.8</ele>
        <time>2020-01-26T10:18:41Z</time>
      </trkpt>
      <trkpt lat="45.78987" lon="-1.21269">
        <ele>47</ele>
        <time>2020-01-26T10:18:42Z</time>
      </trkpt>
      <trkpt lat="45.78986" lon="-1.21276">
        <ele>47.6</ele>
        <time>2020-01-26T10:18:43Z</time>
      </trkpt>
      <trkpt lat="45.78989" lon="-1.21281">
        <ele>48</ele>
        <time>2020-01-26T10:18:44Z</time>
      </trkpt>
      <trkpt lat="45.78991" lon="-1.21286">
        <ele>48.4</ele>
        <time>2020-01-26T10:18:45Z</time>
      </trkpt>
      <trkpt lat="45.78991" lon="-1.21288">
        <ele>48.6</ele>
        <time>2020-01-26T10:18:46Z</time>
      </trkpt>
      <trkpt lat="45.78992" lon="-1.21292">
        <ele>48.6</ele>
        <time>2020-01-26T10:18:47Z</time>
      </trkpt>
      <trkpt lat="45.78992" lon="-1.21295">
        <ele>48.8</ele>
        <time>2020-01-26T10:18:48Z</time>
      </trkpt>
      <trkpt lat="45.78991" lon="-1.21298">
        <ele>48.8</ele>
        <time>2020-01-26T10:18:49Z</time>
      </trkpt>
      <trkpt lat="45.78987" lon="-1.21302">
        <ele>48.4</ele>
        <time>2020-01-26T10:18:50Z</time>
      </trkpt>
      <trkpt lat="45.78985" lon="-1.21307">
        <ele>47.8</ele>
        <time>2020-01-26T10:18:51Z</time>
      </trkpt>
      <trkpt lat="45.78983" lon="-1.21314">
        <ele>47.6</ele>
        <time>2020-01-26T10:18:52Z</time>
      </trkpt>
      <trkpt lat="45.7898" lon="-1.2132">
        <ele>47.4</ele>
        <time>2020-01-26T10:18:53Z</time>
      </trkpt>
      <trkpt lat="45.78976" lon="-1.21324">
        <ele>47</ele>
        <time>2020-01-26T10:18:54Z</time>
      </trkpt>
      <trkpt lat="45.78973" lon="-1.21328">
        <ele>46.8</ele>
        <time>2020-01-26T10:18:55Z</time>
      </trkpt>
      <trkpt lat="45.78969" lon="-1.21331">
        <ele>46.6</ele>
        <time>2020-01-26T10:18:56Z</time>
      </trkpt>
      <trkpt lat="45.78967" lon="-1.21334">
        <ele>46.8</ele>
        <time>2020-01-26T10:18:57Z</time>
      </trkpt>
      <trkpt lat="45.78967" lon="-1.21336">
        <ele>46.8</ele>
        <time>2020-01-26T10:18:58Z</time>
      </trkpt>
      <trkpt lat="45.78965" lon="-1.21338">
        <ele>46.8</ele>
        <time>2020-01-26T10:18:59Z</time>
      </trkpt>
      <trkpt lat="45.78963" lon="-1.21342">
        <ele>46.6</ele>
        <time>2020-01-26T10:19:00Z</time>
      </trkpt>
      <trkpt lat="45.78961" lon="-1.21345">
        <ele>46.2</ele>
        <time>2020-01-26T10:19:01Z</time>
      </trkpt>
      <trkpt lat="45.7896" lon="-1.2135">
        <ele>46.2</ele>
        <time>2020-01-26T10:19:02Z</time>
      </trkpt>
      <trkpt lat="45.78959" lon="-1.21356">
        <ele>46.2</ele>
        <time>2020-01-26T10:19:03Z</time>
      </trkpt>
      <trkpt lat="45.78959" lon="-1.21362">
        <ele>46.4</ele>
        <time>2020-01-26T10:19:04Z</time>
      </trkpt>
      <trkpt lat="45.78959" lon="-1.21366">
        <ele>46.2</ele>
        <time>2020-01-26T10:19:05Z</time>
      </trkpt>
      <trkpt lat="45.78959" lon="-1.21371">
        <ele>46.2</ele>
        <time>2020-01-26T10:19:06Z</time>
      </trkpt>
      <trkpt lat="45.78957" lon="-1.21375">
        <ele>45.6</ele>
        <time>2020-01-26T10:19:07Z</time>
      </trkpt>
      <trkpt lat="45.78955" lon="-1.21378">
        <ele>45.2</ele>
        <time>2020-01-26T10:19:08Z</time>
      </trkpt>
      <trkpt lat="45.78952" lon="-1.2138">
        <ele>45.2</ele>
        <time>2020-01-26T10:19:09Z</time>
      </trkpt>
      <trkpt lat="45.78948" lon="-1.21385">
        <ele>45.2</ele>
        <time>2020-01-26T10:19:10Z</time>
      </trkpt>
      <trkpt lat="45.78945" lon="-1.2139">
        <ele>45.2</ele>
        <time>2020-01-26T10:19:11Z</time>
      </trkpt>
      <trkpt lat="45.78944" lon="-1.21395">
        <ele>45.4</ele>
        <time>2020-01-26T10:19:12Z</time>
      </trkpt>
      <trkpt lat="45.78941" lon="-1.214">
        <ele>45.6</ele>
        <time>2020-01-26T10:19:13Z</time>
      </trkpt>
      <trkpt lat="45.78938" lon="-1.21403">
        <ele>45.8</ele>
        <time>2020-01-26T10:19:14Z</time>
      </trkpt>
      <trkpt lat="45.78936" lon="-1.21407">
        <ele>46.2</ele>
        <time>2020-01-26T10:19:15Z</time>
      </trkpt>
      <trkpt lat="45.78932" lon="-1.21409">
        <ele>46.4</ele>
        <time>2020-01-26T10:19:16Z</time>
      </trkpt>
      <trkpt lat="45.7893" lon="-1.2141">
        <ele>46.6</ele>
        <time>2020-01-26T10:19:17Z</time>
      </trkpt>
      <trkpt lat="45.78927" lon="-1.21413">
        <ele>46.6</ele>
        <time>2020-01-26T10:19:18Z</time>
      </trkpt>
      <trkpt lat="45.78928" lon="-1.21422">
        <ele>46.8</ele>
        <time>2020-01-26T10:19:19Z</time>
      </trkpt>
      <trkpt lat="45.78928" lon="-1.21428">
        <ele>47</ele>
        <time>2020-01-26T10:19:20Z</time>
      </trkpt>
      <trkpt lat="45.78927" lon="-1.21433">
        <ele>47.6</ele>
        <time>2020-01-26T10:19:21Z</time>
      </trkpt>
      <trkpt lat="45.78925" lon="-1.21437">
        <ele>47.6</ele>
        <time>2020-01-26T10:19:22Z</time>
      </trkpt>
      <trkpt lat="45.78923" lon="-1.2144">
        <ele>47.6</ele>
        <time>2020-01-26T10:19:23Z</time>
      </trkpt>
      <trkpt lat="45.78923" lon="-1.21444">
        <ele>47.6</ele>
        <time>2020-01-26T10:19:24Z</time>
      </trkpt>
      <trkpt lat="45.78925" lon="-1.21451">
        <ele>47.2</ele>
        <time>2020-01-26T10:19:25Z</time>
      </trkpt>
      <trkpt lat="45.78926" lon="-1.21457">
        <ele>47</ele>
        <time>2020-01-26T10:19:26Z</time>
      </trkpt>
      <trkpt lat="45.78929" lon="-1.21462">
        <ele>47</ele>
        <time>2020-01-26T10:19:27Z</time>
      </trkpt>
      <trkpt lat="45.78931" lon="-1.21466">
        <ele>47</ele>
        <time>2020-01-26T10:19:28Z</time>
      </trkpt>
      <trkpt lat="45.78931" lon="-1.21471">
        <ele>47</ele>
        <time>2020-01-26T10:19:29Z</time>
      </trkpt>
      <trkpt lat="45.78926" lon="-1.21475">
        <ele>46.8</ele>
        <time>2020-01-26T10:19:30Z</time>
      </trkpt>
      <trkpt lat="45.78925" lon="-1.21477">
        <ele>46.6</ele>
        <time>2020-01-26T10:19:31Z</time>
      </trkpt>
      <trkpt lat="45.78924" lon="-1.21481">
        <ele>46.6</ele>
        <time>2020-01-26T10:19:32Z</time>
      </trkpt>
      <trkpt lat="45.78924" lon="-1.21484">
        <ele>46.8</ele>
        <time>2020-01-26T10:19:33Z</time>
      </trkpt>
      <trkpt lat="45.78925" lon="-1.21489">
        <ele>46.6</ele>
        <time>2020-01-26T10:19:34Z</time>
      </trkpt>
      <trkpt lat="45.78926" lon="-1.21497">
        <ele>46.4</ele>
        <time>2020-01-26T10:19:35Z</time>
      </trkpt>
      <trkpt lat="45.78927" lon="-1.21504">
        <ele>46.6</ele>
        <time>2020-01-26T10:19:36Z</time>
      </trkpt>
      <trkpt lat="45.78928" lon="-1.2151">
        <ele>46.6</ele>
        <time>2020-01-26T10:19:37Z</time>
      </trkpt>
      <trkpt lat="45.7893" lon="-1.21519">
        <ele>46.8</ele>
        <time>2020-01-26T10:19:38Z</time>
      </trkpt>
      <trkpt lat="45.78928" lon="-1.21525">
        <ele>47.2</ele>
        <time>2020-01-26T10:19:39Z</time>
      </trkpt>
      <trkpt lat="45.78927" lon="-1.2153">
        <ele>47.8</ele>
        <time>2020-01-26T10:19:40Z</time>
      </trkpt>
      <trkpt lat="45.78924" lon="-1.21536">
        <ele>48.4</ele>
        <time>2020-01-26T10:19:41Z</time>
      </trkpt>
      <trkpt lat="45.7892" lon="-1.21541">
        <ele>48.2</ele>
        <time>2020-01-26T10:19:42Z</time>
      </trkpt>
      <trkpt lat="45.78917" lon="-1.21546">
        <ele>48.2</ele>
        <time>2020-01-26T10:19:43Z</time>
      </trkpt>
      <trkpt lat="45.78912" lon="-1.21553">
        <ele>48.2</ele>
        <time>2020-01-26T10:19:44Z</time>
      </trkpt>
      <trkpt lat="45.78908" lon="-1.21556">
        <ele>48</ele>
        <time>2020-01-26T10:19:45Z</time>
      </trkpt>
      <trkpt lat="45.78905" lon="-1.21561">
        <ele>47.8</ele>
        <time>2020-01-26T10:19:46Z</time>
      </trkpt>
      <trkpt lat="45.78904" lon="-1.21567">
        <ele>47.6</ele>
        <time>2020-01-26T10:19:47Z</time>
      </trkpt>
      <trkpt lat="45.78903" lon="-1.21574">
        <ele>47.2</ele>
        <time>2020-01-26T10:19:48Z</time>
      </trkpt>
      <trkpt lat="45.78904" lon="-1.2158">
        <ele>46.8</ele>
        <time>2020-01-26T10:19:49Z</time>
      </trkpt>
      <trkpt lat="45.78906" lon="-1.21588">
        <ele>46.4</ele>
        <time>2020-01-26T10:19:50Z</time>
      </trkpt>
      <trkpt lat="45.78909" lon="-1.21594">
        <ele>46</ele>
        <time>2020-01-26T10:19:51Z</time>
      </trkpt>
      <trkpt lat="45.78911" lon="-1.216">
        <ele>45.8</ele>
        <time>2020-01-26T10:19:52Z</time>
      </trkpt>
      <trkpt lat="45.78913" lon="-1.21606">
        <ele>45.6</ele>
        <time>2020-01-26T10:19:53Z</time>
      </trkpt>
      <trkpt lat="45.78913" lon="-1.21609">
        <ele>45.8</ele>
        <time>2020-01-26T10:19:54Z</time>
      </trkpt>
      <trkpt lat="45.78913" lon="-1.21614">
        <ele>45.8</ele>
        <time>2020-01-26T10:19:55Z</time>
      </trkpt>
      <trkpt lat="45.78913" lon="-1.21618">
        <ele>45.8</ele>
        <time>2020-01-26T10:19:56Z</time>
      </trkpt>
      <trkpt lat="45.78912" lon="-1.2162">
        <ele>45.6</ele>
        <time>2020-01-26T10:19:57Z</time>
      </trkpt>
      <trkpt lat="45.78912" lon="-1.21624">
        <ele>45.4</ele>
        <time>2020-01-26T10:19:58Z</time>
      </trkpt>
      <trkpt lat="45.78911" lon="-1.21627">
        <ele>45</ele>
        <time>2020-01-26T10:19:59Z</time>
      </trkpt>
      <trkpt lat="45.7891" lon="-1.21631">
        <ele>44.8</ele>
        <time>2020-01-26T10:20:00Z</time>
      </trkpt>
      <trkpt lat="45.78909" lon="-1.21636">
        <ele>44.6</ele>
        <time>2020-01-26T10:20:01Z</time>
      </trkpt>
      <trkpt lat="45.78908" lon="-1.21644">
        <ele>44.2</ele>
        <time>2020-01-26T10:20:02Z</time>
      </trkpt>
      <trkpt lat="45.78907" lon="-1.21651">
        <ele>43.6</ele>
        <time>2020-01-26T10:20:03Z</time>
      </trkpt>
      <trkpt lat="45.78906" lon="-1.21657">
        <ele>43.2</ele>
        <time>2020-01-26T10:20:04Z</time>
      </trkpt>
      <trkpt lat="45.78905" lon="-1.21662">
        <ele>43.4</ele>
        <time>2020-01-26T10:20:05Z</time>
      </trkpt>
      <trkpt lat="45.78903" lon="-1.21669">
        <ele>43.4</ele>
        <time>2020-01-26T10:20:06Z</time>
      </trkpt>
      <trkpt lat="45.78899" lon="-1.21675">
        <ele>43</ele>
        <time>2020-01-26T10:20:07Z</time>
      </trkpt>
      <trkpt lat="45.78896" lon="-1.21683">
        <ele>42.4</ele>
        <time>2020-01-26T10:20:08Z</time>
      </trkpt>
      <trkpt lat="45.78894" lon="-1.21689">
        <ele>42.2</ele>
        <time>2020-01-26T10:20:09Z</time>
      </trkpt>
      <trkpt lat="45.78894" lon="-1.21694">
        <ele>42.4</ele>
        <time>2020-01-26T10:20:10Z</time>
      </trkpt>
      <trkpt lat="45.78892" lon="-1.21699">
        <ele>42.8</ele>
        <time>2020-01-26T10:20:11Z</time>
      </trkpt>
      <trkpt lat="45.78888" lon="-1.21702">
        <ele>42.6</ele>
        <time>2020-01-26T10:20:12Z</time>
      </trkpt>
      <trkpt lat="45.78881" lon="-1.21706">
        <ele>42.6</ele>
        <time>2020-01-26T10:20:13Z</time>
      </trkpt>
      <trkpt lat="45.78876" lon="-1.21711">
        <ele>42.4</ele>
        <time>2020-01-26T10:20:14Z</time>
      </trkpt>
      <trkpt lat="45.78874" lon="-1.21716">
        <ele>42.4</ele>
        <time>2020-01-26T10:20:15Z</time>
      </trkpt>
      <trkpt lat="45.78873" lon="-1.21724">
        <ele>41.8</ele>
        <time>2020-01-26T10:20:16Z</time>
      </trkpt>
      <trkpt lat="45.78874" lon="-1.21731">
        <ele>41.6</ele>
        <time>2020-01-26T10:20:17Z</time>
      </trkpt>
      <trkpt lat="45.78873" lon="-1.21736">
        <ele>41.2</ele>
        <time>2020-01-26T10:20:18Z</time>
      </trkpt>
      <trkpt lat="45.78871" lon="-1.2174">
        <ele>41.2</ele>
        <time>2020-01-26T10:20:19Z</time>
      </trkpt>
      <trkpt lat="45.78867" lon="-1.21743">
        <ele>40.8</ele>
        <time>2020-01-26T10:20:20Z</time>
      </trkpt>
      <trkpt lat="45.78862" lon="-1.21748">
        <ele>40.6</ele>
        <time>2020-01-26T10:20:21Z</time>
      </trkpt>
      <trkpt lat="45.78861" lon="-1.21753">
        <ele>40.8</ele>
        <time>2020-01-26T10:20:22Z</time>
      </trkpt>
      <trkpt lat="45.78863" lon="-1.21758">
        <ele>41.4</ele>
        <time>2020-01-26T10:20:23Z</time>
      </trkpt>
      <trkpt lat="45.78862" lon="-1.21763">
        <ele>42</ele>
        <time>2020-01-26T10:20:24Z</time>
      </trkpt>
      <trkpt lat="45.78862" lon="-1.21767">
        <ele>43</ele>
        <time>2020-01-26T10:20:25Z</time>
      </trkpt>
      <trkpt lat="45.7886" lon="-1.21771">
        <ele>43.8</ele>
        <time>2020-01-26T10:20:26Z</time>
      </trkpt>
      <trkpt lat="45.78858" lon="-1.21773">
        <ele>44.4</ele>
        <time>2020-01-26T10:20:27Z</time>
      </trkpt>
      <trkpt lat="45.78854" lon="-1.21775">
        <ele>44.4</ele>
        <time>2020-01-26T10:20:28Z</time>
      </trkpt>
      <trkpt lat="45.78851" lon="-1.21778">
        <ele>44.6</ele>
        <time>2020-01-26T10:20:29Z</time>
      </trkpt>
      <trkpt lat="45.78849" lon="-1.21783">
        <ele>44.6</ele>
        <time>2020-01-26T10:20:30Z</time>
      </trkpt>
      <trkpt lat="45.78846" lon="-1.21784">
        <ele>44.2</ele>
        <time>2020-01-26T10:20:31Z</time>
      </trkpt>
      <trkpt lat="45.78843" lon="-1.21784">
        <ele>43.6</ele>
        <time>2020-01-26T10:20:32Z</time>
      </trkpt>
      <trkpt lat="45.78841" lon="-1.21785">
        <ele>43</ele>
        <time>2020-01-26T10:20:33Z</time>
      </trkpt>
      <trkpt lat="45.78839" lon="-1.21789">
        <ele>42.8</ele>
        <time>2020-01-26T10:20:34Z</time>
      </trkpt>
      <trkpt lat="45.78836" lon="-1.21793">
        <ele>42.4</ele>
        <time>2020-01-26T10:20:35Z</time>
      </trkpt>
      <trkpt lat="45.78834" lon="-1.21795">
        <ele>42.2</ele>
        <time>2020-01-26T10:20:36Z</time>
      </trkpt>
      <trkpt lat="45.78832" lon="-1.21798">
        <ele>41.8</ele>
        <time>2020-01-26T10:20:37Z</time>
      </trkpt>
      <trkpt lat="45.78831" lon="-1.21802">
        <ele>41.4</ele>
        <time>2020-01-26T10:20:38Z</time>
      </trkpt>
      <trkpt lat="45.78832" lon="-1.21804">
        <ele>41</ele>
        <time>2020-01-26T10:20:39Z</time>
      </trkpt>
      <trkpt lat="45.78829" lon="-1.21807">
        <ele>40.8</ele>
        <time>2020-01-26T10:20:40Z</time>
      </trkpt>
      <trkpt lat="45.78827" lon="-1.2181">
        <ele>40.4</ele>
        <time>2020-01-26T10:20:41Z</time>
      </trkpt>
      <trkpt lat="45.78825" lon="-1.21816">
        <ele>40.8</ele>
        <time>2020-01-26T10:20:42Z</time>
      </trkpt>
      <trkpt lat="45.78825" lon="-1.21819">
        <ele>40.8</ele>
        <time>2020-01-26T10:20:43Z</time>
      </trkpt>
      <trkpt lat="45.78824" lon="-1.21822">
        <ele>41.2</ele>
        <time>2020-01-26T10:20:44Z</time>
      </trkpt>
      <trkpt lat="45.78821" lon="-1.21825">
        <ele>41</ele>
        <time>2020-01-26T10:20:45Z</time>
      </trkpt>
      <trkpt lat="45.78819" lon="-1.21827">
        <ele>41</ele>
        <time>2020-01-26T10:20:46Z</time>
      </trkpt>
      <trkpt lat="45.78817" lon="-1.21829">
        <ele>41</ele>
        <time>2020-01-26T10:20:47Z</time>
      </trkpt>
      <trkpt lat="45.78812" lon="-1.21832">
        <ele>41</ele>
        <time>2020-01-26T10:20:48Z</time>
      </trkpt>
      <trkpt lat="45.78809" lon="-1.21833">
        <ele>41.4</ele>
        <time>2020-01-26T10:20:49Z</time>
      </trkpt>
      <trkpt lat="45.78807" lon="-1.21837">
        <ele>41.8</ele>
        <time>2020-01-26T10:20:50Z</time>
      </trkpt>
      <trkpt lat="45.78807" lon="-1.21841">
        <ele>42</ele>
        <time>2020-01-26T10:20:51Z</time>
      </trkpt>
      <trkpt lat="45.78807" lon="-1.21845">
        <ele>42.2</ele>
        <time>2020-01-26T10:20:52Z</time>
      </trkpt>
      <trkpt lat="45.78806" lon="-1.21851">
        <ele>42.2</ele>
        <time>2020-01-26T10:20:53Z</time>
      </trkpt>
      <trkpt lat="45.78807" lon="-1.21856">
        <ele>42.2</ele>
        <time>2020-01-26T10:20:54Z</time>
      </trkpt>
      <trkpt lat="45.78806" lon="-1.2186">
        <ele>42</ele>
        <time>2020-01-26T10:20:55Z</time>
      </trkpt>
      <trkpt lat="45.78801" lon="-1.21856">
        <ele>41.4</ele>
        <time>2020-01-26T10:20:56Z</time>
      </trkpt>
      <trkpt lat="45.78797" lon="-1.21858">
        <ele>41</ele>
        <time>2020-01-26T10:20:57Z</time>
      </trkpt>
      <trkpt lat="45.78793" lon="-1.21858">
        <ele>40.4</ele>
        <time>2020-01-26T10:20:58Z</time>
      </trkpt>
      <trkpt lat="45.78791" lon="-1.21861">
        <ele>40.4</ele>
        <time>2020-01-26T10:20:59Z</time>
      </trkpt>
      <trkpt lat="45.78791" lon="-1.21863">
        <ele>40.6</ele>
        <time>2020-01-26T10:21:00Z</time>
      </trkpt>
      <trkpt lat="45.78789" lon="-1.21865">
        <ele>40.2</ele>
        <time>2020-01-26T10:21:01Z</time>
      </trkpt>
      <trkpt lat="45.78787" lon="-1.21866">
        <ele>39.6</ele>
        <time>2020-01-26T10:21:02Z</time>
      </trkpt>
      <trkpt lat="45.78784" lon="-1.2187">
        <ele>39.2</ele>
        <time>2020-01-26T10:21:03Z</time>
      </trkpt>
      <trkpt lat="45.7878" lon="-1.21877">
        <ele>38.8</ele>
        <time>2020-01-26T10:21:04Z</time>
      </trkpt>
      <trkpt lat="45.78778" lon="-1.21884">
        <ele>38.6</ele>
        <time>2020-01-26T10:21:05Z</time>
      </trkpt>
      <trkpt lat="45.78775" lon="-1.2189">
        <ele>38.8</ele>
        <time>2020-01-26T10:21:06Z</time>
      </trkpt>
      <trkpt lat="45.78771" lon="-1.21896">
        <ele>39</ele>
        <time>2020-01-26T10:21:07Z</time>
      </trkpt>
      <trkpt lat="45.78767" lon="-1.219">
        <ele>39.4</ele>
        <time>2020-01-26T10:21:08Z</time>
      </trkpt>
      <trkpt lat="45.78763" lon="-1.21903">
        <ele>39.4</ele>
        <time>2020-01-26T10:21:09Z</time>
      </trkpt>
      <trkpt lat="45.78759" lon="-1.21904">
        <ele>39.4</ele>
        <time>2020-01-26T10:21:10Z</time>
      </trkpt>
      <trkpt lat="45.78757" lon="-1.21909">
        <ele>39.6</ele>
        <time>2020-01-26T10:21:11Z</time>
      </trkpt>
      <trkpt lat="45.78756" lon="-1.21914">
        <ele>39.6</ele>
        <time>2020-01-26T10:21:12Z</time>
      </trkpt>
      <trkpt lat="45.78754" lon="-1.2192">
        <ele>39.6</ele>
        <time>2020-01-26T10:21:13Z</time>
      </trkpt>
      <trkpt lat="45.7875" lon="-1.21925">
        <ele>39.2</ele>
        <time>2020-01-26T10:21:14Z</time>
      </trkpt>
      <trkpt lat="45.78746" lon="-1.21929">
        <ele>39</ele>
        <time>2020-01-26T10:21:15Z</time>
      </trkpt>
      <trkpt lat="45.78743" lon="-1.21933">
        <ele>38.6</ele>
        <time>2020-01-26T10:21:16Z</time>
      </trkpt>
      <trkpt lat="45.78743" lon="-1.21938">
        <ele>38.2</ele>
        <time>2020-01-26T10:21:17Z</time>
      </trkpt>
      <trkpt lat="45.78741" lon="-1.21943">
        <ele>38</ele>
        <time>2020-01-26T10:21:18Z</time>
      </trkpt>
      <trkpt lat="45.78741" lon="-1.21948">
        <ele>37.8</ele>
        <time>2020-01-26T10:21:19Z</time>
      </trkpt>
      <trkpt lat="45.78741" lon="-1.21954">
        <ele>38</ele>
        <time>2020-01-26T10:21:20Z</time>
      </trkpt>
      <trkpt lat="45.78739" lon="-1.21959">
        <ele>38.4</ele>
        <time>2020-01-26T10:21:21Z</time>
      </trkpt>
      <trkpt lat="45.78738" lon="-1.21963">
        <ele>38.8</ele>
        <time>2020-01-26T10:21:22Z</time>
      </trkpt>
      <trkpt lat="45.78736" lon="-1.21967">
        <ele>39</ele>
        <time>2020-01-26T10:21:23Z</time>
      </trkpt>
      <trkpt lat="45.78735" lon="-1.21973">
        <ele>39.2</ele>
        <time>2020-01-26T10:21:24Z</time>
      </trkpt>
      <trkpt lat="45.78734" lon="-1.21977">
        <ele>39.4</ele>
        <time>2020-01-26T10:21:25Z</time>
      </trkpt>
      <trkpt lat="45.78732" lon="-1.21983">
        <ele>39.6</ele>
        <time>2020-01-26T10:21:26Z</time>
      </trkpt>
      <trkpt lat="45.78728" lon="-1.21986">
        <ele>39.8</ele>
        <time>2020-01-26T10:21:27Z</time>
      </trkpt>
      <trkpt lat="45.78723" lon="-1.21991">
        <ele>39.8</ele>
        <time>2020-01-26T10:21:28Z</time>
      </trkpt>
      <trkpt lat="45.7872" lon="-1.21997">
        <ele>39.8</ele>
        <time>2020-01-26T10:21:29Z</time>
      </trkpt>
      <trkpt lat="45.78718" lon="-1.22004">
        <ele>40.2</ele>
        <time>2020-01-26T10:21:30Z</time>
      </trkpt>
      <trkpt lat="45.78715" lon="-1.22009">
        <ele>40.6</ele>
        <time>2020-01-26T10:21:31Z</time>
      </trkpt>
      <trkpt lat="45.78712" lon="-1.22013">
        <ele>41</ele>
        <time>2020-01-26T10:21:32Z</time>
      </trkpt>
      <trkpt lat="45.78709" lon="-1.22016">
        <ele>41.4</ele>
        <time>2020-01-26T10:21:33Z</time>
      </trkpt>
      <trkpt lat="45.78706" lon="-1.2202">
        <ele>42</ele>
        <time>2020-01-26T10:21:34Z</time>
      </trkpt>
      <trkpt lat="45.78705" lon="-1.22025">
        <ele>42.4</ele>
        <time>2020-01-26T10:21:35Z</time>
      </trkpt>
      <trkpt lat="45.78702" lon="-1.22029">
        <ele>42.8</ele>
        <time>2020-01-26T10:21:36Z</time>
      </trkpt>
      <trkpt lat="45.78699" lon="-1.22033">
        <ele>42.8</ele>
        <time>2020-01-26T10:21:37Z</time>
      </trkpt>
      <trkpt lat="45.78694" lon="-1.22038">
        <ele>42.8</ele>
        <time>2020-01-26T10:21:38Z</time>
      </trkpt>
      <trkpt lat="45.78693" lon="-1.22043">
        <ele>42.6</ele>
        <time>2020-01-26T10:21:39Z</time>
      </trkpt>
      <trkpt lat="45.78692" lon="-1.22045">
        <ele>42.8</ele>
        <time>2020-01-26T10:21:40Z</time>
      </trkpt>
      <trkpt lat="45.78691" lon="-1.22048">
        <ele>43.8</ele>
        <time>2020-01-26T10:21:41Z</time>
      </trkpt>
      <trkpt lat="45.7869" lon="-1.22051">
        <ele>44.6</ele>
        <time>2020-01-26T10:21:42Z</time>
      </trkpt>
      <trkpt lat="45.78686" lon="-1.22057">
        <ele>45.2</ele>
        <time>2020-01-26T10:21:43Z</time>
      </trkpt>
      <trkpt lat="45.78682" lon="-1.22059">
        <ele>45.4</ele>
        <time>2020-01-26T10:21:44Z</time>
      </trkpt>
      <trkpt lat="45.78681" lon="-1.22058">
        <ele>46</ele>
        <time>2020-01-26T10:21:45Z</time>
      </trkpt>
      <trkpt lat="45.7868" lon="-1.22061">
        <ele>46.2</ele>
        <time>2020-01-26T10:21:46Z</time>
      </trkpt>
      <trkpt lat="45.78678" lon="-1.22064">
        <ele>46.4</ele>
        <time>2020-01-26T10:21:47Z</time>
      </trkpt>
      <trkpt lat="45.78676" lon="-1.22066">
        <ele>46.6</ele>
        <time>2020-01-26T10:21:48Z</time>
      </trkpt>
      <trkpt lat="45.78675" lon="-1.2207">
        <ele>47.2</ele>
        <time>2020-01-26T10:21:49Z</time>
      </trkpt>
      <trkpt lat="45.78675" lon="-1.22072">
        <ele>47.2</ele>
        <time>2020-01-26T10:21:50Z</time>
      </trkpt>
      <trkpt lat="45.78675" lon="-1.22074">
        <ele>47.4</ele>
        <time>2020-01-26T10:21:51Z</time>
      </trkpt>
      <trkpt lat="45.78675" lon="-1.22076">
        <ele>47.2</ele>
        <time>2020-01-26T10:21:52Z</time>
      </trkpt>
      <trkpt lat="45.78676" lon="-1.22078">
        <ele>47.2</ele>
        <time>2020-01-26T10:21:53Z</time>
      </trkpt>
      <trkpt lat="45.78677" lon="-1.2208">
        <ele>46.8</ele>
        <time>2020-01-26T10:21:54Z</time>
      </trkpt>
      <trkpt lat="45.78679" lon="-1.22082">
        <ele>46</ele>
        <time>2020-01-26T10:21:55Z</time>
      </trkpt>
      <trkpt lat="45.78681" lon="-1.22085">
        <ele>45.6</ele>
        <time>2020-01-26T10:21:56Z</time>
      </trkpt>
      <trkpt lat="45.78682" lon="-1.22087">
        <ele>45.4</ele>
        <time>2020-01-26T10:21:57Z</time>
      </trkpt>
      <trkpt lat="45.7868" lon="-1.2209">
        <ele>45.2</ele>
        <time>2020-01-26T10:21:58Z</time>
      </trkpt>
      <trkpt lat="45.7868" lon="-1.22093">
        <ele>45.4</ele>
        <time>2020-01-26T10:21:59Z</time>
      </trkpt>
      <trkpt lat="45.7868" lon="-1.22096">
        <ele>45.8</ele>
        <time>2020-01-26T10:22:00Z</time>
      </trkpt>
      <trkpt lat="45.78679" lon="-1.221">
        <ele>46.4</ele>
        <time>2020-01-26T10:22:01Z</time>
      </trkpt>
      <trkpt lat="45.78677" lon="-1.22105">
        <ele>46.6</ele>
        <time>2020-01-26T10:22:02Z</time>
      </trkpt>
      <trkpt lat="45.78675" lon="-1.2211">
        <ele>47</ele>
        <time>2020-01-26T10:22:03Z</time>
      </trkpt>
      <trkpt lat="45.78672" lon="-1.22114">
        <ele>47</ele>
        <time>2020-01-26T10:22:04Z</time>
      </trkpt>
      <trkpt lat="45.7867" lon="-1.22118">
        <ele>47</ele>
        <time>2020-01-26T10:22:05Z</time>
      </trkpt>
      <trkpt lat="45.78667" lon="-1.2212">
        <ele>46.8</ele>
        <time>2020-01-26T10:22:06Z</time>
      </trkpt>
      <trkpt lat="45.78664" lon="-1.22122">
        <ele>46.4</ele>
        <time>2020-01-26T10:22:07Z</time>
      </trkpt>
      <trkpt lat="45.78662" lon="-1.22124">
        <ele>46.2</ele>
        <time>2020-01-26T10:22:08Z</time>
      </trkpt>
      <trkpt lat="45.78662" lon="-1.22127">
        <ele>46.2</ele>
        <time>2020-01-26T10:22:09Z</time>
      </trkpt>
      <trkpt lat="45.78661" lon="-1.2213">
        <ele>46</ele>
        <time>2020-01-26T10:22:10Z</time>
      </trkpt>
      <trkpt lat="45.78661" lon="-1.22133">
        <ele>46</ele>
        <time>2020-01-26T10:22:11Z</time>
      </trkpt>
      <trkpt lat="45.78659" lon="-1.22135">
        <ele>46</ele>
        <time>2020-01-26T10:22:12Z</time>
      </trkpt>
      <trkpt lat="45.78656" lon="-1.22138">
        <ele>46</ele>
        <time>2020-01-26T10:22:13Z</time>
      </trkpt>
      <trkpt lat="45.78653" lon="-1.22141">
        <ele>45.8</ele>
        <time>2020-01-26T10:22:14Z</time>
      </trkpt>
      <trkpt lat="45.78651" lon="-1.22144">
        <ele>45.4</ele>
        <time>2020-01-26T10:22:15Z</time>
      </trkpt>
      <trkpt lat="45.78648" lon="-1.22147">
        <ele>44.6</ele>
        <time>2020-01-26T10:22:16Z</time>
      </trkpt>
      <trkpt lat="45.78646" lon="-1.2215">
        <ele>43.6</ele>
        <time>2020-01-26T10:22:17Z</time>
      </trkpt>
      <trkpt lat="45.78645" lon="-1.22154">
        <ele>43</ele>
        <time>2020-01-26T10:22:18Z</time>
      </trkpt>
      <trkpt lat="45.78643" lon="-1.22156">
        <ele>43</ele>
        <time>2020-01-26T10:22:19Z</time>
      </trkpt>
      <trkpt lat="45.78641" lon="-1.22158">
        <ele>42.8</ele>
        <time>2020-01-26T10:22:20Z</time>
      </trkpt>
      <trkpt lat="45.78637" lon="-1.22162">
        <ele>42.8</ele>
        <time>2020-01-26T10:22:21Z</time>
      </trkpt>
      <trkpt lat="45.78634" lon="-1.22165">
        <ele>42.8</ele>
        <time>2020-01-26T10:22:22Z</time>
      </trkpt>
      <trkpt lat="45.7863" lon="-1.22167">
        <ele>42.8</ele>
        <time>2020-01-26T10:22:23Z</time>
      </trkpt>
      <trkpt lat="45.78626" lon="-1.22168">
        <ele>42.8</ele>
        <time>2020-01-26T10:22:24Z</time>
      </trkpt>
      <trkpt lat="45.78623" lon="-1.22167">
        <ele>42.6</ele>
        <time>2020-01-26T10:22:25Z</time>
      </trkpt>
      <trkpt lat="45.7862" lon="-1.22167">
        <ele>42.6</ele>
        <time>2020-01-26T10:22:26Z</time>
      </trkpt>
      <trkpt lat="45.78617" lon="-1.22168">
        <ele>42.4</ele>
        <time>2020-01-26T10:22:27Z</time>
      </trkpt>
      <trkpt lat="45.78611" lon="-1.22173">
        <ele>42.6</ele>
        <time>2020-01-26T10:22:28Z</time>
      </trkpt>
      <trkpt lat="45.78606" lon="-1.22175">
        <ele>42.4</ele>
        <time>2020-01-26T10:22:29Z</time>
      </trkpt>
      <trkpt lat="45.78608" lon="-1.22181">
        <ele>42</ele>
        <time>2020-01-26T10:22:30Z</time>
      </trkpt>
      <trkpt lat="45.78608" lon="-1.22186">
        <ele>41.8</ele>
        <time>2020-01-26T10:22:31Z</time>
      </trkpt>
      <trkpt lat="45.78608" lon="-1.22193">
        <ele>41.6</ele>
        <time>2020-01-26T10:22:32Z</time>
      </trkpt>
      <trkpt lat="45.78611" lon="-1.22204">
        <ele>41.4</ele>
        <time>2020-01-26T10:22:33Z</time>
      </trkpt>
      <trkpt lat="45.7861" lon="-1.22212">
        <ele>41.2</ele>
        <time>2020-01-26T10:22:34Z</time>
      </trkpt>
      <trkpt lat="45.78611" lon="-1.22218">
        <ele>41.6</ele>
        <time>2020-01-26T10:22:35Z</time>
      </trkpt>
      <trkpt lat="45.78611" lon="-1.22224">
        <ele>42</ele>
        <time>2020-01-26T10:22:36Z</time>
      </trkpt>
      <trkpt lat="45.78609" lon="-1.22229">
        <ele>42.2</ele>
        <time>2020-01-26T10:22:37Z</time>
      </trkpt>
      <trkpt lat="45.78606" lon="-1.22234">
        <ele>42.2</ele>
        <time>2020-01-26T10:22:38Z</time>
      </trkpt>
      <trkpt lat="45.78605" lon="-1.22238">
        <ele>42.2</ele>
        <time>2020-01-26T10:22:39Z</time>
      </trkpt>
      <trkpt lat="45.786" lon="-1.22238">
        <ele>42</ele>
        <time>2020-01-26T10:22:40Z</time>
      </trkpt>
      <trkpt lat="45.78596" lon="-1.22233">
        <ele>41.8</ele>
        <time>2020-01-26T10:22:41Z</time>
      </trkpt>
      <trkpt lat="45.78593" lon="-1.22233">
        <ele>41.6</ele>
        <time>2020-01-26T10:22:42Z</time>
      </trkpt>
      <trkpt lat="45.78591" lon="-1.22239">
        <ele>41.6</ele>
        <time>2020-01-26T10:22:43Z</time>
      </trkpt>
      <trkpt lat="45.78588" lon="-1.22243">
        <ele>41.6</ele>
        <time>2020-01-26T10:22:44Z</time>
      </trkpt>
      <trkpt lat="45.78584" lon="-1.22248">
        <ele>41.2</ele>
        <time>2020-01-26T10:22:45Z</time>
      </trkpt>
      <trkpt lat="45.78584" lon="-1.22254">
        <ele>40.8</ele>
        <time>2020-01-26T10:22:46Z</time>
      </trkpt>
      <trkpt lat="45.78587" lon="-1.22256">
        <ele>40.6</ele>
        <time>2020-01-26T10:22:47Z</time>
      </trkpt>
      <trkpt lat="45.78587" lon="-1.22258">
        <ele>40.2</ele>
        <time>2020-01-26T10:22:48Z</time>
      </trkpt>
      <trkpt lat="45.78588" lon="-1.22261">
        <ele>39.6</ele>
        <time>2020-01-26T10:22:49Z</time>
      </trkpt>
      <trkpt lat="45.7859" lon="-1.22265">
        <ele>39.6</ele>
        <time>2020-01-26T10:22:50Z</time>
      </trkpt>
      <trkpt lat="45.78593" lon="-1.22269">
        <ele>39.6</ele>
        <time>2020-01-26T10:22:51Z</time>
      </trkpt>
      <trkpt lat="45.78594" lon="-1.22272">
        <ele>39.4</ele>
        <time>2020-01-26T10:22:52Z</time>
      </trkpt>
      <trkpt lat="45.78593" lon="-1.22276">
        <ele>39.6</ele>
        <time>2020-01-26T10:22:53Z</time>
      </trkpt>
      <trkpt lat="45.78591" lon="-1.2228">
        <ele>39.8</ele>
        <time>2020-01-26T10:22:54Z</time>
      </trkpt>
      <trkpt lat="45.78588" lon="-1.22285">
        <ele>39.8</ele>
        <time>2020-01-26T10:22:55Z</time>
      </trkpt>
      <trkpt lat="45.78585" lon="-1.22289">
        <ele>39.8</ele>
        <time>2020-01-26T10:22:56Z</time>
      </trkpt>
      <trkpt lat="45.78583" lon="-1.22292">
        <ele>39.8</ele>
        <time>2020-01-26T10:22:57Z</time>
      </trkpt>
      <trkpt lat="45.78579" lon="-1.22297">
        <ele>39.8</ele>
        <time>2020-01-26T10:22:58Z</time>
      </trkpt>
      <trkpt lat="45.78576" lon="-1.22301">
        <ele>39.4</ele>
        <time>2020-01-26T10:22:59Z</time>
      </trkpt>
      <trkpt lat="45.78573" lon="-1.22305">
        <ele>39</ele>
        <time>2020-01-26T10:23:00Z</time>
      </trkpt>
      <trkpt lat="45.78569" lon="-1.2231">
        <ele>38.4</ele>
        <time>2020-01-26T10:23:01Z</time>
      </trkpt>
      <trkpt lat="45.78566" lon="-1.22315">
        <ele>37.8</ele>
        <time>2020-01-26T10:23:02Z</time>
      </trkpt>
      <trkpt lat="45.78564" lon="-1.22321">
        <ele>37.4</ele>
        <time>2020-01-26T10:23:03Z</time>
      </trkpt>
      <trkpt lat="45.78559" lon="-1.22326">
        <ele>36.8</ele>
        <time>2020-01-26T10:23:04Z</time>
      </trkpt>
      <trkpt lat="45.78557" lon="-1.22331">
        <ele>36.4</ele>
        <time>2020-01-26T10:23:05Z</time>
      </trkpt>
      <trkpt lat="45.78555" lon="-1.22336">
        <ele>36.6</ele>
        <time>2020-01-26T10:23:06Z</time>
      </trkpt>
      <trkpt lat="45.78552" lon="-1.22341">
        <ele>36.6</ele>
        <time>2020-01-26T10:23:07Z</time>
      </trkpt>
      <trkpt lat="45.7855" lon="-1.22344">
        <ele>36.8</ele>
        <time>2020-01-26T10:23:08Z</time>
      </trkpt>
      <trkpt lat="45.78547" lon="-1.22348">
        <ele>36.8</ele>
        <time>2020-01-26T10:23:09Z</time>
      </trkpt>
      <trkpt lat="45.78546" lon="-1.22352">
        <ele>37.4</ele>
        <time>2020-01-26T10:23:10Z</time>
      </trkpt>
      <trkpt lat="45.78544" lon="-1.22356">
        <ele>38</ele>
        <time>2020-01-26T10:23:11Z</time>
      </trkpt>
      <trkpt lat="45.78542" lon="-1.22361">
        <ele>38.8</ele>
        <time>2020-01-26T10:23:12Z</time>
      </trkpt>
      <trkpt lat="45.78538" lon="-1.22365">
        <ele>39</ele>
        <time>2020-01-26T10:23:13Z</time>
      </trkpt>
      <trkpt lat="45.78535" lon="-1.2237">
        <ele>39.6</ele>
        <time>2020-01-26T10:23:14Z</time>
      </trkpt>
      <trkpt lat="45.78532" lon="-1.22375">
        <ele>40.2</ele>
        <time>2020-01-26T10:23:15Z</time>
      </trkpt>
      <trkpt lat="45.7853" lon="-1.2238">
        <ele>40.8</ele>
        <time>2020-01-26T10:23:16Z</time>
      </trkpt>
      <trkpt lat="45.78527" lon="-1.22386">
        <ele>41.2</ele>
        <time>2020-01-26T10:23:17Z</time>
      </trkpt>
      <trkpt lat="45.78524" lon="-1.22392">
        <ele>41.6</ele>
        <time>2020-01-26T10:23:18Z</time>
      </trkpt>
      <trkpt lat="45.78522" lon="-1.22398">
        <ele>42.2</ele>
        <time>2020-01-26T10:23:19Z</time>
      </trkpt>
      <trkpt lat="45.78519" lon="-1.22404">
        <ele>43</ele>
        <time>2020-01-26T10:23:20Z</time>
      </trkpt>
      <trkpt lat="45.78516" lon="-1.2241">
        <ele>43.8</ele>
        <time>2020-01-26T10:23:21Z</time>
      </trkpt>
      <trkpt lat="45.78514" lon="-1.22416">
        <ele>44.4</ele>
        <time>2020-01-26T10:23:22Z</time>
      </trkpt>
      <trkpt lat="45.78509" lon="-1.2242">
        <ele>45</ele>
        <time>2020-01-26T10:23:23Z</time>
      </trkpt>
      <trkpt lat="45.78507" lon="-1.22424">
        <ele>45.4</ele>
        <time>2020-01-26T10:23:24Z</time>
      </trkpt>
      <trkpt lat="45.78505" lon="-1.2243">
        <ele>46.2</ele>
        <time>2020-01-26T10:23:25Z</time>
      </trkpt>
      <trkpt lat="45.78502" lon="-1.22435">
        <ele>46.6</ele>
        <time>2020-01-26T10:23:26Z</time>
      </trkpt>
      <trkpt lat="45.785" lon="-1.2244">
        <ele>47</ele>
        <time>2020-01-26T10:23:27Z</time>
      </trkpt>
      <trkpt lat="45.78498" lon="-1.22446">
        <ele>47.4</ele>
        <time>2020-01-26T10:23:28Z</time>
      </trkpt>
      <trkpt lat="45.78495" lon="-1.2245">
        <ele>47.8</ele>
        <time>2020-01-26T10:23:29Z</time>
      </trkpt>
      <trkpt lat="45.78492" lon="-1.22456">
        <ele>47.8</ele>
        <time>2020-01-26T10:23:30Z</time>
      </trkpt>
      <trkpt lat="45.7849" lon="-1.22462">
        <ele>48</ele>
        <time>2020-01-26T10:23:31Z</time>
      </trkpt>
      <trkpt lat="45.78487" lon="-1.22467">
        <ele>48.2</ele>
        <time>2020-01-26T10:23:32Z</time>
      </trkpt>
      <trkpt lat="45.78484" lon="-1.22471">
        <ele>48.2</ele>
        <time>2020-01-26T10:23:33Z</time>
      </trkpt>
      <trkpt lat="45.78482" lon="-1.22476">
        <ele>48.4</ele>
        <time>2020-01-26T10:23:34Z</time>
      </trkpt>
      <trkpt lat="45.78478" lon="-1.22479">
        <ele>48.6</ele>
        <time>2020-01-26T10:23:35Z</time>
      </trkpt>
      <trkpt lat="45.78475" lon="-1.22484">
        <ele>48.8</ele>
        <time>2020-01-26T10:23:36Z</time>
      </trkpt>
      <trkpt lat="45.78471" lon="-1.22489">
        <ele>49.2</ele>
        <time>2020-01-26T10:23:37Z</time>
      </trkpt>
      <trkpt lat="45.78468" lon="-1.22493">
        <ele>49.6</ele>
        <time>2020-01-26T10:23:38Z</time>
      </trkpt>
      <trkpt lat="45.78464" lon="-1.22497">
        <ele>50.4</ele>
        <time>2020-01-26T10:23:39Z</time>
      </trkpt>
      <trkpt lat="45.78461" lon="-1.22501">
        <ele>51.2</ele>
        <time>2020-01-26T10:23:40Z</time>
      </trkpt>
      <trkpt lat="45.78459" lon="-1.22505">
        <ele>52.4</ele>
        <time>2020-01-26T10:23:41Z</time>
      </trkpt>
      <trkpt lat="45.78457" lon="-1.22508">
        <ele>53</ele>
        <time>2020-01-26T10:23:42Z</time>
      </trkpt>
      <trkpt lat="45.78455" lon="-1.22513">
        <ele>53.6</ele>
        <time>2020-01-26T10:23:43Z</time>
      </trkpt>
      <trkpt lat="45.78453" lon="-1.22519">
        <ele>54</ele>
        <time>2020-01-26T10:23:44Z</time>
      </trkpt>
      <trkpt lat="45.78454" lon="-1.22525">
        <ele>54.4</ele>
        <time>2020-01-26T10:23:45Z</time>
      </trkpt>
      <trkpt lat="45.78458" lon="-1.22529">
        <ele>55.2</ele>
        <time>2020-01-26T10:23:46Z</time>
      </trkpt>
      <trkpt lat="45.78462" lon="-1.22532">
        <ele>56.2</ele>
        <time>2020-01-26T10:23:47Z</time>
      </trkpt>
      <trkpt lat="45.78465" lon="-1.22535">
        <ele>57.6</ele>
        <time>2020-01-26T10:23:48Z</time>
      </trkpt>
      <trkpt lat="45.78466" lon="-1.22538">
        <ele>59</ele>
        <time>2020-01-26T10:23:49Z</time>
      </trkpt>
      <trkpt lat="45.78465" lon="-1.22541">
        <ele>60</ele>
        <time>2020-01-26T10:23:50Z</time>
      </trkpt>
      <trkpt lat="45.78463" lon="-1.22545">
        <ele>60.4</ele>
        <time>2020-01-26T10:23:51Z</time>
      </trkpt>
      <trkpt lat="45.78461" lon="-1.22545">
        <ele>60.6</ele>
        <time>2020-01-26T10:23:52Z</time>
      </trkpt>
      <trkpt lat="45.78459" lon="-1.22548">
        <ele>60.4</ele>
        <time>2020-01-26T10:23:53Z</time>
      </trkpt>
      <trkpt lat="45.78456" lon="-1.22552">
        <ele>60.2</ele>
        <time>2020-01-26T10:23:54Z</time>
      </trkpt>
      <trkpt lat="45.78452" lon="-1.22555">
        <ele>60</ele>
        <time>2020-01-26T10:23:55Z</time>
      </trkpt>
      <trkpt lat="45.78447" lon="-1.22556">
        <ele>59.8</ele>
        <time>2020-01-26T10:23:56Z</time>
      </trkpt>
      <trkpt lat="45.78444" lon="-1.22558">
        <ele>59.2</ele>
        <time>2020-01-26T10:23:57Z</time>
      </trkpt>
      <trkpt lat="45.78442" lon="-1.22563">
        <ele>59</ele>
        <time>2020-01-26T10:23:58Z</time>
      </trkpt>
      <trkpt lat="45.7844" lon="-1.22569">
        <ele>58.2</ele>
        <time>2020-01-26T10:23:59Z</time>
      </trkpt>
      <trkpt lat="45.78438" lon="-1.22577">
        <ele>57.6</ele>
        <time>2020-01-26T10:24:00Z</time>
      </trkpt>
      <trkpt lat="45.78436" lon="-1.22585">
        <ele>57.2</ele>
        <time>2020-01-26T10:24:01Z</time>
      </trkpt>
      <trkpt lat="45.78432" lon="-1.22588">
        <ele>57</ele>
        <time>2020-01-26T10:24:02Z</time>
      </trkpt>
      <trkpt lat="45.78431" lon="-1.22594">
        <ele>57.2</ele>
        <time>2020-01-26T10:24:03Z</time>
      </trkpt>
      <trkpt lat="45.78428" lon="-1.22597">
        <ele>57.6</ele>
        <time>2020-01-26T10:24:04Z</time>
      </trkpt>
      <trkpt lat="45.78421" lon="-1.22599">
        <ele>57.8</ele>
        <time>2020-01-26T10:24:05Z</time>
      </trkpt>
      <trkpt lat="45.78415" lon="-1.22604">
        <ele>57.6</ele>
        <time>2020-01-26T10:24:06Z</time>
      </trkpt>
      <trkpt lat="45.7841" lon="-1.22608">
        <ele>57.4</ele>
        <time>2020-01-26T10:24:07Z</time>
      </trkpt>
      <trkpt lat="45.78405" lon="-1.22612">
        <ele>57.6</ele>
        <time>2020-01-26T10:24:08Z</time>
      </trkpt>
      <trkpt lat="45.784" lon="-1.22613">
        <ele>57.6</ele>
        <time>2020-01-26T10:24:09Z</time>
      </trkpt>
      <trkpt lat="45.78397" lon="-1.22618">
        <ele>57.8</ele>
        <time>2020-01-26T10:24:10Z</time>
      </trkpt>
      <trkpt lat="45.78392" lon="-1.2262">
        <ele>57.8</ele>
        <time>2020-01-26T10:24:11Z</time>
      </trkpt>
      <trkpt lat="45.78389" lon="-1.22624">
        <ele>57.8</ele>
        <time>2020-01-26T10:24:12Z</time>
      </trkpt>
      <trkpt lat="45.78384" lon="-1.22628">
        <ele>57.6</ele>
        <time>2020-01-26T10:24:13Z</time>
      </trkpt>
      <trkpt lat="45.7838" lon="-1.22633">
        <ele>57.4</ele>
        <time>2020-01-26T10:24:14Z</time>
      </trkpt>
      <trkpt lat="45.78375" lon="-1.22638">
        <ele>57.4</ele>
        <time>2020-01-26T10:24:15Z</time>
      </trkpt>
      <trkpt lat="45.7837" lon="-1.22643">
        <ele>57.2</ele>
        <time>2020-01-26T10:24:16Z</time>
      </trkpt>
      <trkpt lat="45.78366" lon="-1.22649">
        <ele>57.2</ele>
        <time>2020-01-26T10:24:17Z</time>
      </trkpt>
      <trkpt lat="45.78362" lon="-1.22654">
        <ele>57.2</ele>
        <time>2020-01-26T10:24:18Z</time>
      </trkpt>
      <trkpt lat="45.78358" lon="-1.22658">
        <ele>56.8</ele>
        <time>2020-01-26T10:24:19Z</time>
      </trkpt>
      <trkpt lat="45.78354" lon="-1.22662">
        <ele>56.6</ele>
        <time>2020-01-26T10:24:20Z</time>
      </trkpt>
      <trkpt lat="45.7835" lon="-1.22669">
        <ele>56.8</ele>
        <time>2020-01-26T10:24:21Z</time>
      </trkpt>
      <trkpt lat="45.78348" lon="-1.22676">
        <ele>57</ele>
        <time>2020-01-26T10:24:22Z</time>
      </trkpt>
      <trkpt lat="45.78344" lon="-1.22681">
        <ele>57</ele>
        <time>2020-01-26T10:24:23Z</time>
      </trkpt>
      <trkpt lat="45.78339" lon="-1.22685">
        <ele>57.4</ele>
        <time>2020-01-26T10:24:24Z</time>
      </trkpt>
      <trkpt lat="45.78334" lon="-1.22691">
        <ele>57.8</ele>
        <time>2020-01-26T10:24:25Z</time>
      </trkpt>
      <trkpt lat="45.78329" lon="-1.22696">
        <ele>58.4</ele>
        <time>2020-01-26T10:24:26Z</time>
      </trkpt>
      <trkpt lat="45.78324" lon="-1.227">
        <ele>58.8</ele>
        <time>2020-01-26T10:24:27Z</time>
      </trkpt>
      <trkpt lat="45.78322" lon="-1.22705">
        <ele>59</ele>
        <time>2020-01-26T10:24:28Z</time>
      </trkpt>
      <trkpt lat="45.78319" lon="-1.2271">
        <ele>59.2</ele>
        <time>2020-01-26T10:24:29Z</time>
      </trkpt>
      <trkpt lat="45.78319" lon="-1.22718">
        <ele>59.4</ele>
        <time>2020-01-26T10:24:30Z</time>
      </trkpt>
      <trkpt lat="45.78316" lon="-1.22724">
        <ele>59.4</ele>
        <time>2020-01-26T10:24:31Z</time>
      </trkpt>
      <trkpt lat="45.78313" lon="-1.2273">
        <ele>59</ele>
        <time>2020-01-26T10:24:32Z</time>
      </trkpt>
      <trkpt lat="45.78308" lon="-1.22731">
        <ele>58.4</ele>
        <time>2020-01-26T10:24:33Z</time>
      </trkpt>
      <trkpt lat="45.78303" lon="-1.22731">
        <ele>58.2</ele>
        <time>2020-01-26T10:24:34Z</time>
      </trkpt>
      <trkpt lat="45.78299" lon="-1.22732">
        <ele>58</ele>
        <time>2020-01-26T10:24:35Z</time>
      </trkpt>
      <trkpt lat="45.78296" lon="-1.22735">
        <ele>57.6</ele>
        <time>2020-01-26T10:24:36Z</time>
      </trkpt>
      <trkpt lat="45.78293" lon="-1.22739">
        <ele>57.2</ele>
        <time>2020-01-26T10:24:37Z</time>
      </trkpt>
      <trkpt lat="45.78289" lon="-1.22743">
        <ele>56.8</ele>
        <time>2020-01-26T10:24:38Z</time>
      </trkpt>
      <trkpt lat="45.78286" lon="-1.22745">
        <ele>56.4</ele>
        <time>2020-01-26T10:24:39Z</time>
      </trkpt>
      <trkpt lat="45.78282" lon="-1.22748">
        <ele>56</ele>
        <time>2020-01-26T10:24:40Z</time>
      </trkpt>
      <trkpt lat="45.78279" lon="-1.22749">
        <ele>55.6</ele>
        <time>2020-01-26T10:24:41Z</time>
      </trkpt>
      <trkpt lat="45.78275" lon="-1.2275">
        <ele>55.4</ele>
        <time>2020-01-26T10:24:42Z</time>
      </trkpt>
      <trkpt lat="45.78271" lon="-1.2275">
        <ele>55.4</ele>
        <time>2020-01-26T10:24:43Z</time>
      </trkpt>
      <trkpt lat="45.78268" lon="-1.22751">
        <ele>55.2</ele>
        <time>2020-01-26T10:24:44Z</time>
      </trkpt>
      <trkpt lat="45.78265" lon="-1.22753">
        <ele>55</ele>
        <time>2020-01-26T10:24:45Z</time>
      </trkpt>
      <trkpt lat="45.78261" lon="-1.22754">
        <ele>54.6</ele>
        <time>2020-01-26T10:24:46Z</time>
      </trkpt>
      <trkpt lat="45.78258" lon="-1.22753">
        <ele>54.8</ele>
        <time>2020-01-26T10:24:47Z</time>
      </trkpt>
      <trkpt lat="45.78255" lon="-1.22752">
        <ele>54.6</ele>
        <time>2020-01-26T10:24:48Z</time>
      </trkpt>
      <trkpt lat="45.78252" lon="-1.22751">
        <ele>54.2</ele>
        <time>2020-01-26T10:24:49Z</time>
      </trkpt>
      <trkpt lat="45.78249" lon="-1.22752">
        <ele>54.2</ele>
        <time>2020-01-26T10:24:50Z</time>
      </trkpt>
      <trkpt lat="45.78247" lon="-1.22752">
        <ele>54</ele>
        <time>2020-01-26T10:24:51Z</time>
      </trkpt>
      <trkpt lat="45.78245" lon="-1.22753">
        <ele>53.8</ele>
        <time>2020-01-26T10:24:52Z</time>
      </trkpt>
      <trkpt lat="45.78243" lon="-1.22754">
        <ele>53.6</ele>
        <time>2020-01-26T10:24:53Z</time>
      </trkpt>
      <trkpt lat="45.78241" lon="-1.22754">
        <ele>53.4</ele>
        <time>2020-01-26T10:24:54Z</time>
      </trkpt>
      <trkpt lat="45.78239" lon="-1.22754">
        <ele>53</ele>
        <time>2020-01-26T10:24:55Z</time>
      </trkpt>
      <trkpt lat="45.78237" lon="-1.22753">
        <ele>52.8</ele>
        <time>2020-01-26T10:24:56Z</time>
      </trkpt>
      <trkpt lat="45.78235" lon="-1.22753">
        <ele>52.6</ele>
        <time>2020-01-26T10:24:57Z</time>
      </trkpt>
      <trkpt lat="45.78234" lon="-1.22752">
        <ele>52.4</ele>
        <time>2020-01-26T10:24:58Z</time>
      </trkpt>
      <trkpt lat="45.78233" lon="-1.22754">
        <ele>53</ele>
        <time>2020-01-26T10:24:59Z</time>
      </trkpt>
      <trkpt lat="45.78233" lon="-1.22757">
        <ele>54</ele>
        <time>2020-01-26T10:25:00Z</time>
      </trkpt>
      <trkpt lat="45.78231" lon="-1.22759">
        <ele>55.2</ele>
        <time>2020-01-26T10:25:01Z</time>
      </trkpt>
      <trkpt lat="45.78229" lon="-1.22761">
        <ele>56.4</ele>
        <time>2020-01-26T10:25:02Z</time>
      </trkpt>
      <trkpt lat="45.78226" lon="-1.22763">
        <ele>57.4</ele>
        <time>2020-01-26T10:25:03Z</time>
      </trkpt>
      <trkpt lat="45.78225" lon="-1.22767">
        <ele>57.8</ele>
        <time>2020-01-26T10:25:04Z</time>
      </trkpt>
      <trkpt lat="45.78223" lon="-1.22771">
        <ele>57.8</ele>
        <time>2020-01-26T10:25:05Z</time>
      </trkpt>
      <trkpt lat="45.78221" lon="-1.22775">
        <ele>57.6</ele>
        <time>2020-01-26T10:25:06Z</time>
      </trkpt>
      <trkpt lat="45.78218" lon="-1.22781">
        <ele>57.2</ele>
        <time>2020-01-26T10:25:07Z</time>
      </trkpt>
      <trkpt lat="45.78215" lon="-1.22783">
        <ele>56.4</ele>
        <time>2020-01-26T10:25:08Z</time>
      </trkpt>
      <trkpt lat="45.78211" lon="-1.22784">
        <ele>55.4</ele>
        <time>2020-01-26T10:25:09Z</time>
      </trkpt>
      <trkpt lat="45.78209" lon="-1.22787">
        <ele>54.8</ele>
        <time>2020-01-26T10:25:10Z</time>
      </trkpt>
      <trkpt lat="45.78205" lon="-1.2279">
        <ele>54.2</ele>
        <time>2020-01-26T10:25:11Z</time>
      </trkpt>
      <trkpt lat="45.78202" lon="-1.22791">
        <ele>53.6</ele>
        <time>2020-01-26T10:25:12Z</time>
      </trkpt>
      <trkpt lat="45.782" lon="-1.22787">
        <ele>53</ele>
        <time>2020-01-26T10:25:13Z</time>
      </trkpt>
      <trkpt lat="45.78198" lon="-1.22783">
        <ele>52.8</ele>
        <time>2020-01-26T10:25:14Z</time>
      </trkpt>
      <trkpt lat="45.78196" lon="-1.2278">
        <ele>52.6</ele>
        <time>2020-01-26T10:25:15Z</time>
      </trkpt>
      <trkpt lat="45.78194" lon="-1.22781">
        <ele>52.2</ele>
        <time>2020-01-26T10:25:16Z</time>
      </trkpt>
      <trkpt lat="45.78192" lon="-1.22782">
        <ele>52.2</ele>
        <time>2020-01-26T10:25:17Z</time>
      </trkpt>
      <trkpt lat="45.78187" lon="-1.22781">
        <ele>51.8</ele>
        <time>2020-01-26T10:25:18Z</time>
      </trkpt>
      <trkpt lat="45.78185" lon="-1.22782">
        <ele>51.8</ele>
        <time>2020-01-26T10:25:19Z</time>
      </trkpt>
      <trkpt lat="45.78181" lon="-1.22785">
        <ele>52</ele>
        <time>2020-01-26T10:25:20Z</time>
      </trkpt>
      <trkpt lat="45.78178" lon="-1.22784">
        <ele>52</ele>
        <time>2020-01-26T10:25:21Z</time>
      </trkpt>
      <trkpt lat="45.78173" lon="-1.22783">
        <ele>52.2</ele>
        <time>2020-01-26T10:25:22Z</time>
      </trkpt>
      <trkpt lat="45.78168" lon="-1.22785">
        <ele>52.2</ele>
        <time>2020-01-26T10:25:23Z</time>
      </trkpt>
      <trkpt lat="45.78164" lon="-1.22787">
        <ele>52</ele>
        <time>2020-01-26T10:25:24Z</time>
      </trkpt>
      <trkpt lat="45.78161" lon="-1.22787">
        <ele>51.6</ele>
        <time>2020-01-26T10:25:25Z</time>
      </trkpt>
      <trkpt lat="45.78159" lon="-1.22788">
        <ele>51.2</ele>
        <time>2020-01-26T10:25:26Z</time>
      </trkpt>
      <trkpt lat="45.78155" lon="-1.22788">
        <ele>50.6</ele>
        <time>2020-01-26T10:25:27Z</time>
      </trkpt>
      <trkpt lat="45.78151" lon="-1.22788">
        <ele>50.4</ele>
        <time>2020-01-26T10:25:28Z</time>
      </trkpt>
      <trkpt lat="45.78148" lon="-1.22788">
        <ele>50.2</ele>
        <time>2020-01-26T10:25:29Z</time>
      </trkpt>
      <trkpt lat="45.78147" lon="-1.22789">
        <ele>50.2</ele>
        <time>2020-01-26T10:25:30Z</time>
      </trkpt>
      <trkpt lat="45.78145" lon="-1.22792">
        <ele>50.4</ele>
        <time>2020-01-26T10:25:31Z</time>
      </trkpt>
      <trkpt lat="45.78142" lon="-1.22796">
        <ele>50.4</ele>
        <time>2020-01-26T10:25:32Z</time>
      </trkpt>
      <trkpt lat="45.78139" lon="-1.22799">
        <ele>50.2</ele>
        <time>2020-01-26T10:25:33Z</time>
      </trkpt>
      <trkpt lat="45.78136" lon="-1.22802">
        <ele>50</ele>
        <time>2020-01-26T10:25:34Z</time>
      </trkpt>
      <trkpt lat="45.78132" lon="-1.22803">
        <ele>50</ele>
        <time>2020-01-26T10:25:35Z</time>
      </trkpt>
      <trkpt lat="45.78129" lon="-1.22804">
        <ele>50</ele>
        <time>2020-01-26T10:25:36Z</time>
      </trkpt>
      <trkpt lat="45.78126" lon="-1.22807">
        <ele>50</ele>
        <time>2020-01-26T10:25:37Z</time>
      </trkpt>
      <trkpt lat="45.78123" lon="-1.2281">
        <ele>50</ele>
        <time>2020-01-26T10:25:38Z</time>
      </trkpt>
      <trkpt lat="45.78121" lon="-1.22812">
        <ele>50</ele>
        <time>2020-01-26T10:25:39Z</time>
      </trkpt>
      <trkpt lat="45.7812" lon="-1.22812">
        <ele>50</ele>
        <time>2020-01-26T10:25:40Z</time>
      </trkpt>
      <trkpt lat="45.78117" lon="-1.22814">
        <ele>50.2</ele>
        <time>2020-01-26T10:25:41Z</time>
      </trkpt>
      <trkpt lat="45.78115" lon="-1.22813">
        <ele>50.4</ele>
        <time>2020-01-26T10:25:42Z</time>
      </trkpt>
      <trkpt lat="45.78114" lon="-1.22812">
        <ele>50.8</ele>
        <time>2020-01-26T10:25:43Z</time>
      </trkpt>
      <trkpt lat="45.78111" lon="-1.22811">
        <ele>50.8</ele>
        <time>2020-01-26T10:25:44Z</time>
      </trkpt>
      <trkpt lat="45.78109" lon="-1.22809">
        <ele>50.6</ele>
        <time>2020-01-26T10:25:45Z</time>
      </trkpt>
      <trkpt lat="45.78107" lon="-1.22808">
        <ele>50.4</ele>
        <time>2020-01-26T10:25:46Z</time>
      </trkpt>
      <trkpt lat="45.78104" lon="-1.22807">
        <ele>50.4</ele>
        <time>2020-01-26T10:25:47Z</time>
      </trkpt>
      <trkpt lat="45.78101" lon="-1.22807">
        <ele>50</ele>
        <time>2020-01-26T10:25:48Z</time>
      </trkpt>
      <trkpt lat="45.78098" lon="-1.22808">
        <ele>50</ele>
        <time>2020-01-26T10:25:49Z</time>
      </trkpt>
      <trkpt lat="45.78096" lon="-1.2281">
        <ele>50</ele>
        <time>2020-01-26T10:25:50Z</time>
      </trkpt>
      <trkpt lat="45.78094" lon="-1.2281">
        <ele>50</ele>
        <time>2020-01-26T10:25:51Z</time>
      </trkpt>
      <trkpt lat="45.78091" lon="-1.2281">
        <ele>50</ele>
        <time>2020-01-26T10:25:52Z</time>
      </trkpt>
      <trkpt lat="45.78089" lon="-1.22808">
        <ele>49.8</ele>
        <time>2020-01-26T10:25:53Z</time>
      </trkpt>
      <trkpt lat="45.78087" lon="-1.22805">
        <ele>49.2</ele>
        <time>2020-01-26T10:25:54Z</time>
      </trkpt>
      <trkpt lat="45.78086" lon="-1.22803">
        <ele>48.8</ele>
        <time>2020-01-26T10:25:55Z</time>
      </trkpt>
      <trkpt lat="45.78084" lon="-1.22802">
        <ele>48.2</ele>
        <time>2020-01-26T10:25:56Z</time>
      </trkpt>
      <trkpt lat="45.78082" lon="-1.22801">
        <ele>47.8</ele>
        <time>2020-01-26T10:25:57Z</time>
      </trkpt>
      <trkpt lat="45.78079" lon="-1.22799">
        <ele>47.2</ele>
        <time>2020-01-26T10:25:58Z</time>
      </trkpt>
      <trkpt lat="45.78077" lon="-1.22796">
        <ele>46.4</ele>
        <time>2020-01-26T10:25:59Z</time>
      </trkpt>
      <trkpt lat="45.78075" lon="-1.22792">
        <ele>45.8</ele>
        <time>2020-01-26T10:26:00Z</time>
      </trkpt>
      <trkpt lat="45.78074" lon="-1.22792">
        <ele>45.6</ele>
        <time>2020-01-26T10:26:01Z</time>
      </trkpt>
      <trkpt lat="45.7807" lon="-1.22791">
        <ele>46</ele>
        <time>2020-01-26T10:26:02Z</time>
      </trkpt>
      <trkpt lat="45.78067" lon="-1.2279">
        <ele>46.2</ele>
        <time>2020-01-26T10:26:03Z</time>
      </trkpt>
      <trkpt lat="45.78063" lon="-1.22788">
        <ele>47</ele>
        <time>2020-01-26T10:26:04Z</time>
      </trkpt>
      <trkpt lat="45.78059" lon="-1.22787">
        <ele>47.4</ele>
        <time>2020-01-26T10:26:05Z</time>
      </trkpt>
      <trkpt lat="45.78055" lon="-1.22787">
        <ele>47.8</ele>
        <time>2020-01-26T10:26:06Z</time>
      </trkpt>
      <trkpt lat="45.78051" lon="-1.22789">
        <ele>48.4</ele>
        <time>2020-01-26T10:26:07Z</time>
      </trkpt>
      <trkpt lat="45.78048" lon="-1.2279">
        <ele>48.6</ele>
        <time>2020-01-26T10:26:08Z</time>
      </trkpt>
      <trkpt lat="45.78046" lon="-1.2279">
        <ele>48.6</ele>
        <time>2020-01-26T10:26:09Z</time>
      </trkpt>
      <trkpt lat="45.78045" lon="-1.2279">
        <ele>49</ele>
        <time>2020-01-26T10:26:10Z</time>
      </trkpt>
      <trkpt lat="45.78042" lon="-1.22789">
        <ele>49.6</ele>
        <time>2020-01-26T10:26:11Z</time>
      </trkpt>
      <trkpt lat="45.78039" lon="-1.2279">
        <ele>50</ele>
        <time>2020-01-26T10:26:12Z</time>
      </trkpt>
      <trkpt lat="45.78036" lon="-1.22791">
        <ele>50.4</ele>
        <time>2020-01-26T10:26:13Z</time>
      </trkpt>
      <trkpt lat="45.78033" lon="-1.22791">
        <ele>50.6</ele>
        <time>2020-01-26T10:26:14Z</time>
      </trkpt>
      <trkpt lat="45.7803" lon="-1.22791">
        <ele>50.6</ele>
        <time>2020-01-26T10:26:15Z</time>
      </trkpt>
      <trkpt lat="45.78028" lon="-1.22791">
        <ele>51</ele>
        <time>2020-01-26T10:26:16Z</time>
      </trkpt>
      <trkpt lat="45.78025" lon="-1.22791">
        <ele>51.2</ele>
        <time>2020-01-26T10:26:17Z</time>
      </trkpt>
      <trkpt lat="45.78023" lon="-1.2279">
        <ele>51.4</ele>
        <time>2020-01-26T10:26:18Z</time>
      </trkpt>
      <trkpt lat="45.7802" lon="-1.22789">
        <ele>51.6</ele>
        <time>2020-01-26T10:26:19Z</time>
      </trkpt>
      <trkpt lat="45.78017" lon="-1.22791">
        <ele>52</ele>
        <time>2020-01-26T10:26:20Z</time>
      </trkpt>
      <trkpt lat="45.78014" lon="-1.22791">
        <ele>52.2</ele>
        <time>2020-01-26T10:26:21Z</time>
      </trkpt>
      <trkpt lat="45.78011" lon="-1.22793">
        <ele>52.6</ele>
        <time>2020-01-26T10:26:22Z</time>
      </trkpt>
      <trkpt lat="45.78009" lon="-1.22795">
        <ele>53</ele>
        <time>2020-01-26T10:26:23Z</time>
      </trkpt>
      <trkpt lat="45.78007" lon="-1.22796">
        <ele>53.2</ele>
        <time>2020-01-26T10:26:24Z</time>
      </trkpt>
      <trkpt lat="45.78002" lon="-1.22797">
        <ele>53.4</ele>
        <time>2020-01-26T10:26:25Z</time>
      </trkpt>
      <trkpt lat="45.77998" lon="-1.22798">
        <ele>53.8</ele>
        <time>2020-01-26T10:26:26Z</time>
      </trkpt>
      <trkpt lat="45.77994" lon="-1.22798">
        <ele>54.4</ele>
        <time>2020-01-26T10:26:27Z</time>
      </trkpt>
      <trkpt lat="45.7799" lon="-1.22796">
        <ele>54.6</ele>
        <time>2020-01-26T10:26:28Z</time>
      </trkpt>
      <trkpt lat="45.77983" lon="-1.22793">
        <ele>54.6</ele>
        <time>2020-01-26T10:26:29Z</time>
      </trkpt>
      <trkpt lat="45.77976" lon="-1.2279">
        <ele>54.8</ele>
        <time>2020-01-26T10:26:30Z</time>
      </trkpt>
      <trkpt lat="45.77971" lon="-1.22789">
        <ele>54.8</ele>
        <time>2020-01-26T10:26:31Z</time>
      </trkpt>
      <trkpt lat="45.77966" lon="-1.2279">
        <ele>55.2</ele>
        <time>2020-01-26T10:26:32Z</time>
      </trkpt>
      <trkpt lat="45.77962" lon="-1.22795">
        <ele>55.6</ele>
        <time>2020-01-26T10:26:33Z</time>
      </trkpt>
      <trkpt lat="45.77958" lon="-1.22795">
        <ele>56</ele>
        <time>2020-01-26T10:26:34Z</time>
      </trkpt>
      <trkpt lat="45.77951" lon="-1.22794">
        <ele>56.2</ele>
        <time>2020-01-26T10:26:35Z</time>
      </trkpt>
      <trkpt lat="45.77948" lon="-1.22792">
        <ele>56.4</ele>
        <time>2020-01-26T10:26:36Z</time>
      </trkpt>
      <trkpt lat="45.77946" lon="-1.22793">
        <ele>56.6</ele>
        <time>2020-01-26T10:26:37Z</time>
      </trkpt>
      <trkpt lat="45.77946" lon="-1.22796">
        <ele>57</ele>
        <time>2020-01-26T10:26:38Z</time>
      </trkpt>
      <trkpt lat="45.77947" lon="-1.228">
        <ele>57</ele>
        <time>2020-01-26T10:26:39Z</time>
      </trkpt>
      <trkpt lat="45.77946" lon="-1.22805">
        <ele>57</ele>
        <time>2020-01-26T10:26:40Z</time>
      </trkpt>
      <trkpt lat="45.77948" lon="-1.2281">
        <ele>57.2</ele>
        <time>2020-01-26T10:26:41Z</time>
      </trkpt>
      <trkpt lat="45.77947" lon="-1.22815">
        <ele>57.2</ele>
        <time>2020-01-26T10:26:42Z</time>
      </trkpt>
      <trkpt lat="45.77946" lon="-1.2282">
        <ele>57.2</ele>
        <time>2020-01-26T10:26:43Z</time>
      </trkpt>
      <trkpt lat="45.77945" lon="-1.22826">
        <ele>57</ele>
        <time>2020-01-26T10:26:44Z</time>
      </trkpt>
      <trkpt lat="45.77945" lon="-1.22832">
        <ele>56.6</ele>
        <time>2020-01-26T10:26:45Z</time>
      </trkpt>
      <trkpt lat="45.77943" lon="-1.22838">
        <ele>56</ele>
        <time>2020-01-26T10:26:46Z</time>
      </trkpt>
      <trkpt lat="45.77943" lon="-1.22845">
        <ele>56</ele>
        <time>2020-01-26T10:26:47Z</time>
      </trkpt>
      <trkpt lat="45.77943" lon="-1.22851">
        <ele>55.8</ele>
        <time>2020-01-26T10:26:48Z</time>
      </trkpt>
      <trkpt lat="45.77942" lon="-1.22857">
        <ele>55.8</ele>
        <time>2020-01-26T10:26:49Z</time>
      </trkpt>
      <trkpt lat="45.77944" lon="-1.22861">
        <ele>56.2</ele>
        <time>2020-01-26T10:26:50Z</time>
      </trkpt>
      <trkpt lat="45.77945" lon="-1.22868">
        <ele>56.6</ele>
        <time>2020-01-26T10:26:51Z</time>
      </trkpt>
      <trkpt lat="45.77946" lon="-1.22875">
        <ele>57</ele>
        <time>2020-01-26T10:26:52Z</time>
      </trkpt>
      <trkpt lat="45.77947" lon="-1.22882">
        <ele>57.4</ele>
        <time>2020-01-26T10:26:53Z</time>
      </trkpt>
      <trkpt lat="45.77947" lon="-1.22889">
        <ele>57.8</ele>
        <time>2020-01-26T10:26:54Z</time>
      </trkpt>
      <trkpt lat="45.77947" lon="-1.22897">
        <ele>58.2</ele>
        <time>2020-01-26T10:26:55Z</time>
      </trkpt>
      <trkpt lat="45.77947" lon="-1.22904">
        <ele>58.4</ele>
        <time>2020-01-26T10:26:56Z</time>
      </trkpt>
      <trkpt lat="45.77948" lon="-1.2291">
        <ele>58.6</ele>
        <time>2020-01-26T10:26:57Z</time>
      </trkpt>
      <trkpt lat="45.77948" lon="-1.22918">
        <ele>58.6</ele>
        <time>2020-01-26T10:26:58Z</time>
      </trkpt>
      <trkpt lat="45.77948" lon="-1.22925">
        <ele>58.8</ele>
        <time>2020-01-26T10:26:59Z</time>
      </trkpt>
      <trkpt lat="45.77949" lon="-1.22933">
        <ele>58.6</ele>
        <time>2020-01-26T10:27:00Z</time>
      </trkpt>
      <trkpt lat="45.7795" lon="-1.2294">
        <ele>58.4</ele>
        <time>2020-01-26T10:27:01Z</time>
      </trkpt>
      <trkpt lat="45.7795" lon="-1.22947">
        <ele>58.2</ele>
        <time>2020-01-26T10:27:02Z</time>
      </trkpt>
      <trkpt lat="45.7795" lon="-1.22954">
        <ele>58</ele>
        <time>2020-01-26T10:27:03Z</time>
      </trkpt>
      <trkpt lat="45.77949" lon="-1.22961">
        <ele>57.6</ele>
        <time>2020-01-26T10:27:04Z</time>
      </trkpt>
      <trkpt lat="45.77948" lon="-1.22968">
        <ele>56.8</ele>
        <time>2020-01-26T10:27:05Z</time>
      </trkpt>
      <trkpt lat="45.77948" lon="-1.22975">
        <ele>56</ele>
        <time>2020-01-26T10:27:06Z</time>
      </trkpt>
      <trkpt lat="45.77948" lon="-1.22983">
        <ele>55.6</ele>
        <time>2020-01-26T10:27:07Z</time>
      </trkpt>
      <trkpt lat="45.77948" lon="-1.2299">
        <ele>55.2</ele>
        <time>2020-01-26T10:27:08Z</time>
      </trkpt>
      <trkpt lat="45.7795" lon="-1.22997">
        <ele>55.2</ele>
        <time>2020-01-26T10:27:09Z</time>
      </trkpt>
      <trkpt lat="45.7795" lon="-1.23004">
        <ele>55.4</ele>
        <time>2020-01-26T10:27:10Z</time>
      </trkpt>
      <trkpt lat="45.7795" lon="-1.2301">
        <ele>55.2</ele>
        <time>2020-01-26T10:27:11Z</time>
      </trkpt>
      <trkpt lat="45.77952" lon="-1.23017">
        <ele>55</ele>
        <time>2020-01-26T10:27:12Z</time>
      </trkpt>
      <trkpt lat="45.77952" lon="-1.23024">
        <ele>54.8</ele>
        <time>2020-01-26T10:27:13Z</time>
      </trkpt>
      <trkpt lat="45.77951" lon="-1.23032">
        <ele>54.6</ele>
        <time>2020-01-26T10:27:14Z</time>
      </trkpt>
      <trkpt lat="45.77952" lon="-1.2304">
        <ele>54.4</ele>
        <time>2020-01-26T10:27:15Z</time>
      </trkpt>
      <trkpt lat="45.77952" lon="-1.23047">
        <ele>54</ele>
        <time>2020-01-26T10:27:16Z</time>
      </trkpt>
      <trkpt lat="45.77952" lon="-1.23054">
        <ele>53.6</ele>
        <time>2020-01-26T10:27:17Z</time>
      </trkpt>
      <trkpt lat="45.77952" lon="-1.2306">
        <ele>53.2</ele>
        <time>2020-01-26T10:27:18Z</time>
      </trkpt>
      <trkpt lat="45.77952" lon="-1.23068">
        <ele>53.2</ele>
        <time>2020-01-26T10:27:19Z</time>
      </trkpt>
      <trkpt lat="45.77953" lon="-1.23075">
        <ele>53.2</ele>
        <time>2020-01-26T10:27:20Z</time>
      </trkpt>
      <trkpt lat="45.77953" lon="-1.23083">
        <ele>53.4</ele>
        <time>2020-01-26T10:27:21Z</time>
      </trkpt>
      <trkpt lat="45.77954" lon="-1.2309">
        <ele>53.4</ele>
        <time>2020-01-26T10:27:22Z</time>
      </trkpt>
      <trkpt lat="45.77954" lon="-1.23098">
        <ele>53.4</ele>
        <time>2020-01-26T10:27:23Z</time>
      </trkpt>
      <trkpt lat="45.77954" lon="-1.23104">
        <ele>53</ele>
        <time>2020-01-26T10:27:24Z</time>
      </trkpt>
      <trkpt lat="45.77954" lon="-1.2311">
        <ele>52.8</ele>
        <time>2020-01-26T10:27:25Z</time>
      </trkpt>
      <trkpt lat="45.77956" lon="-1.23117">
        <ele>53</ele>
        <time>2020-01-26T10:27:26Z</time>
      </trkpt>
      <trkpt lat="45.77956" lon="-1.23124">
        <ele>53.4</ele>
        <time>2020-01-26T10:27:27Z</time>
      </trkpt>
      <trkpt lat="45.77955" lon="-1.2313">
        <ele>53.4</ele>
        <time>2020-01-26T10:27:28Z</time>
      </trkpt>
      <trkpt lat="45.77955" lon="-1.23136">
        <ele>53.4</ele>
        <time>2020-01-26T10:27:29Z</time>
      </trkpt>
      <trkpt lat="45.77954" lon="-1.23147">
        <ele>53.4</ele>
        <time>2020-01-26T10:27:30Z</time>
      </trkpt>
      <trkpt lat="45.77952" lon="-1.23154">
        <ele>53.2</ele>
        <time>2020-01-26T10:27:31Z</time>
      </trkpt>
      <trkpt lat="45.7795" lon="-1.23163">
        <ele>53.2</ele>
        <time>2020-01-26T10:27:32Z</time>
      </trkpt>
      <trkpt lat="45.77949" lon="-1.23171">
        <ele>53.2</ele>
        <time>2020-01-26T10:27:33Z</time>
      </trkpt>
      <trkpt lat="45.77947" lon="-1.2318">
        <ele>53.2</ele>
        <time>2020-01-26T10:27:34Z</time>
      </trkpt>
      <trkpt lat="45.77946" lon="-1.23187">
        <ele>53</ele>
        <time>2020-01-26T10:27:35Z</time>
      </trkpt>
      <trkpt lat="45.77944" lon="-1.23194">
        <ele>52.8</ele>
        <time>2020-01-26T10:27:36Z</time>
      </trkpt>
      <trkpt lat="45.77942" lon="-1.23202">
        <ele>52.4</ele>
        <time>2020-01-26T10:27:37Z</time>
      </trkpt>
      <trkpt lat="45.7794" lon="-1.23209">
        <ele>52</ele>
        <time>2020-01-26T10:27:38Z</time>
      </trkpt>
      <trkpt lat="45.77939" lon="-1.23217">
        <ele>51.8</ele>
        <time>2020-01-26T10:27:39Z</time>
      </trkpt>
      <trkpt lat="45.77938" lon="-1.23223">
        <ele>51.8</ele>
        <time>2020-01-26T10:27:40Z</time>
      </trkpt>
      <trkpt lat="45.77937" lon="-1.23232">
        <ele>51.6</ele>
        <time>2020-01-26T10:27:41Z</time>
      </trkpt>
      <trkpt lat="45.77937" lon="-1.23239">
        <ele>51.8</ele>
        <time>2020-01-26T10:27:42Z</time>
      </trkpt>
      <trkpt lat="45.77935" lon="-1.23246">
        <ele>52.4</ele>
        <time>2020-01-26T10:27:43Z</time>
      </trkpt>
      <trkpt lat="45.77934" lon="-1.23255">
        <ele>52.8</ele>
        <time>2020-01-26T10:27:44Z</time>
      </trkpt>
      <trkpt lat="45.77932" lon="-1.23262">
        <ele>52.8</ele>
        <time>2020-01-26T10:27:45Z</time>
      </trkpt>
      <trkpt lat="45.7793" lon="-1.23271">
        <ele>52.8</ele>
        <time>2020-01-26T10:27:46Z</time>
      </trkpt>
      <trkpt lat="45.77929" lon="-1.2328">
        <ele>52.8</ele>
        <time>2020-01-26T10:27:47Z</time>
      </trkpt>
      <trkpt lat="45.77928" lon="-1.23289">
        <ele>52.6</ele>
        <time>2020-01-26T10:27:48Z</time>
      </trkpt>
      <trkpt lat="45.77927" lon="-1.23297">
        <ele>52.2</ele>
        <time>2020-01-26T10:27:49Z</time>
      </trkpt>
      <trkpt lat="45.77926" lon="-1.23305">
        <ele>52</ele>
        <time>2020-01-26T10:27:50Z</time>
      </trkpt>
      <trkpt lat="45.77924" lon="-1.23314">
        <ele>51.6</ele>
        <time>2020-01-26T10:27:51Z</time>
      </trkpt>
      <trkpt lat="45.77923" lon="-1.23323">
        <ele>51.4</ele>
        <time>2020-01-26T10:27:52Z</time>
      </trkpt>
      <trkpt lat="45.77922" lon="-1.23331">
        <ele>51.2</ele>
        <time>2020-01-26T10:27:53Z</time>
      </trkpt>
      <trkpt lat="45.77921" lon="-1.2334">
        <ele>50.8</ele>
        <time>2020-01-26T10:27:54Z</time>
      </trkpt>
      <trkpt lat="45.7792" lon="-1.23348">
        <ele>50.6</ele>
        <time>2020-01-26T10:27:55Z</time>
      </trkpt>
      <trkpt lat="45.7792" lon="-1.23357">
        <ele>50.4</ele>
        <time>2020-01-26T10:27:56Z</time>
      </trkpt>
      <trkpt lat="45.77918" lon="-1.23365">
        <ele>50.4</ele>
        <time>2020-01-26T10:27:57Z</time>
      </trkpt>
      <trkpt lat="45.77917" lon="-1.23373">
        <ele>50.6</ele>
        <time>2020-01-26T10:27:58Z</time>
      </trkpt>
      <trkpt lat="45.77917" lon="-1.23382">
        <ele>50.6</ele>
        <time>2020-01-26T10:27:59Z</time>
      </trkpt>
      <trkpt lat="45.77916" lon="-1.2339">
        <ele>50.8</ele>
        <time>2020-01-26T10:28:00Z</time>
      </trkpt>
      <trkpt lat="45.77915" lon="-1.23399">
        <ele>50.6</ele>
        <time>2020-01-26T10:28:01Z</time>
      </trkpt>
      <trkpt lat="45.77914" lon="-1.23407">
        <ele>50.2</ele>
        <time>2020-01-26T10:28:02Z</time>
      </trkpt>
      <trkpt lat="45.77913" lon="-1.23416">
        <ele>50.2</ele>
        <time>2020-01-26T10:28:03Z</time>
      </trkpt>
      <trkpt lat="45.77912" lon="-1.23424">
        <ele>50.4</ele>
        <time>2020-01-26T10:28:04Z</time>
      </trkpt>
      <trkpt lat="45.77911" lon="-1.23432">
        <ele>50.2</ele>
        <time>2020-01-26T10:28:05Z</time>
      </trkpt>
      <trkpt lat="45.77911" lon="-1.23439">
        <ele>50.4</ele>
        <time>2020-01-26T10:28:06Z</time>
      </trkpt>
      <trkpt lat="45.77911" lon="-1.23447">
        <ele>50.4</ele>
        <time>2020-01-26T10:28:07Z</time>
      </trkpt>
      <trkpt lat="45.77911" lon="-1.23455">
        <ele>50.2</ele>
        <time>2020-01-26T10:28:08Z</time>
      </trkpt>
      <trkpt lat="45.77912" lon="-1.23462">
        <ele>50.4</ele>
        <time>2020-01-26T10:28:09Z</time>
      </trkpt>
      <trkpt lat="45.77912" lon="-1.23471">
        <ele>50.8</ele>
        <time>2020-01-26T10:28:10Z</time>
      </trkpt>
      <trkpt lat="45.77913" lon="-1.23478">
        <ele>51.2</ele>
        <time>2020-01-26T10:28:11Z</time>
      </trkpt>
      <trkpt lat="45.77913" lon="-1.23486">
        <ele>51.4</ele>
        <time>2020-01-26T10:28:12Z</time>
      </trkpt>
      <trkpt lat="45.77913" lon="-1.23495">
        <ele>51.2</ele>
        <time>2020-01-26T10:28:13Z</time>
      </trkpt>
      <trkpt lat="45.77913" lon="-1.23503">
        <ele>51.2</ele>
        <time>2020-01-26T10:28:14Z</time>
      </trkpt>
      <trkpt lat="45.77913" lon="-1.23512">
        <ele>51.2</ele>
        <time>2020-01-26T10:28:15Z</time>
      </trkpt>
      <trkpt lat="45.77913" lon="-1.2352">
        <ele>51</ele>
        <time>2020-01-26T10:28:16Z</time>
      </trkpt>
      <trkpt lat="45.77913" lon="-1.23527">
        <ele>50.8</ele>
        <time>2020-01-26T10:28:17Z</time>
      </trkpt>
      <trkpt lat="45.77914" lon="-1.23534">
        <ele>51</ele>
        <time>2020-01-26T10:28:18Z</time>
      </trkpt>
      <trkpt lat="45.77914" lon="-1.23542">
        <ele>51.2</ele>
        <time>2020-01-26T10:28:19Z</time>
      </trkpt>
      <trkpt lat="45.77914" lon="-1.2355">
        <ele>51.6</ele>
        <time>2020-01-26T10:28:20Z</time>
      </trkpt>
      <trkpt lat="45.77913" lon="-1.23558">
        <ele>52</ele>
        <time>2020-01-26T10:28:21Z</time>
      </trkpt>
      <trkpt lat="45.77913" lon="-1.23566">
        <ele>52.2</ele>
        <time>2020-01-26T10:28:22Z</time>
      </trkpt>
      <trkpt lat="45.77913" lon="-1.23573">
        <ele>52.4</ele>
        <time>2020-01-26T10:28:23Z</time>
      </trkpt>
      <trkpt lat="45.77913" lon="-1.2358">
        <ele>52.8</ele>
        <time>2020-01-26T10:28:24Z</time>
      </trkpt>
      <trkpt lat="45.77913" lon="-1.23585">
        <ele>52.8</ele>
        <time>2020-01-26T10:28:25Z</time>
      </trkpt>
      <trkpt lat="45.77911" lon="-1.2359">
        <ele>52.8</ele>
        <time>2020-01-26T10:28:26Z</time>
      </trkpt>
      <trkpt lat="45.77909" lon="-1.23593">
        <ele>53</ele>
        <time>2020-01-26T10:28:27Z</time>
      </trkpt>
      <trkpt lat="45.77907" lon="-1.23594">
        <ele>53.8</ele>
        <time>2020-01-26T10:28:28Z</time>
      </trkpt>
      <trkpt lat="45.77905" lon="-1.23597">
        <ele>54.8</ele>
        <time>2020-01-26T10:28:29Z</time>
      </trkpt>
      <trkpt lat="45.77903" lon="-1.23601">
        <ele>54.6</ele>
        <time>2020-01-26T10:28:30Z</time>
      </trkpt>
      <trkpt lat="45.77901" lon="-1.23604">
        <ele>54.2</ele>
        <time>2020-01-26T10:28:31Z</time>
      </trkpt>
      <trkpt lat="45.77901" lon="-1.23611">
        <ele>53.8</ele>
        <time>2020-01-26T10:28:32Z</time>
      </trkpt>
      <trkpt lat="45.77901" lon="-1.23616">
        <ele>54</ele>
        <time>2020-01-26T10:28:33Z</time>
      </trkpt>
      <trkpt lat="45.77901" lon="-1.23622">
        <ele>54</ele>
        <time>2020-01-26T10:28:34Z</time>
      </trkpt>
      <trkpt lat="45.77901" lon="-1.23628">
        <ele>54.2</ele>
        <time>2020-01-26T10:28:35Z</time>
      </trkpt>
      <trkpt lat="45.779" lon="-1.23633">
        <ele>54.6</ele>
        <time>2020-01-26T10:28:36Z</time>
      </trkpt>
      <trkpt lat="45.779" lon="-1.23638">
        <ele>55</ele>
        <time>2020-01-26T10:28:37Z</time>
      </trkpt>
      <trkpt lat="45.779" lon="-1.23642">
        <ele>55.6</ele>
        <time>2020-01-26T10:28:38Z</time>
      </trkpt>
      <trkpt lat="45.77899" lon="-1.23646">
        <ele>56.2</ele>
        <time>2020-01-26T10:28:39Z</time>
      </trkpt>
      <trkpt lat="45.77899" lon="-1.2365">
        <ele>56.6</ele>
        <time>2020-01-26T10:28:40Z</time>
      </trkpt>
      <trkpt lat="45.77899" lon="-1.23654">
        <ele>57</ele>
        <time>2020-01-26T10:28:41Z</time>
      </trkpt>
      <trkpt lat="45.77899" lon="-1.23658">
        <ele>57.4</ele>
        <time>2020-01-26T10:28:42Z</time>
      </trkpt>
      <trkpt lat="45.77899" lon="-1.23662">
        <ele>57.8</ele>
        <time>2020-01-26T10:28:43Z</time>
      </trkpt>
      <trkpt lat="45.77898" lon="-1.23665">
        <ele>58.2</ele>
        <time>2020-01-26T10:28:44Z</time>
      </trkpt>
      <trkpt lat="45.77898" lon="-1.23669">
        <ele>58.6</ele>
        <time>2020-01-26T10:28:45Z</time>
      </trkpt>
      <trkpt lat="45.77898" lon="-1.23672">
        <ele>59</ele>
        <time>2020-01-26T10:28:46Z</time>
      </trkpt>
      <trkpt lat="45.77899" lon="-1.23674">
        <ele>59.2</ele>
        <time>2020-01-26T10:28:47Z</time>
      </trkpt>
      <trkpt lat="45.77899" lon="-1.23677">
        <ele>59.6</ele>
        <time>2020-01-26T10:28:48Z</time>
      </trkpt>
      <trkpt lat="45.77899" lon="-1.2368">
        <ele>60</ele>
        <time>2020-01-26T10:28:49Z</time>
      </trkpt>
      <trkpt lat="45.779" lon="-1.23683">
        <ele>60.2</ele>
        <time>2020-01-26T10:28:50Z</time>
      </trkpt>
      <trkpt lat="45.77898" lon="-1.23685">
        <ele>60.4</ele>
        <time>2020-01-26T10:28:51Z</time>
      </trkpt>
      <trkpt lat="45.77898" lon="-1.23687">
        <ele>60.4</ele>
        <time>2020-01-26T10:28:52Z</time>
      </trkpt>
      <trkpt lat="45.77897" lon="-1.23688">
        <ele>60.2</ele>
        <time>2020-01-26T10:28:53Z</time>
      </trkpt>
      <trkpt lat="45.77897" lon="-1.23691">
        <ele>60</ele>
        <time>2020-01-26T10:28:54Z</time>
      </trkpt>
      <trkpt lat="45.77898" lon="-1.23693">
        <ele>60</ele>
        <time>2020-01-26T10:28:55Z</time>
      </trkpt>
      <trkpt lat="45.77897" lon="-1.23696">
        <ele>60</ele>
        <time>2020-01-26T10:28:56Z</time>
      </trkpt>
      <trkpt lat="45.77897" lon="-1.23698">
        <ele>60</ele>
        <time>2020-01-26T10:28:57Z</time>
      </trkpt>
      <trkpt lat="45.77897" lon="-1.237">
        <ele>60</ele>
        <time>2020-01-26T10:28:58Z</time>
      </trkpt>
      <trkpt lat="45.77897" lon="-1.23702">
        <ele>60.2</ele>
        <time>2020-01-26T10:28:59Z</time>
      </trkpt>
      <trkpt lat="45.77896" lon="-1.23702">
        <ele>60.2</ele>
        <time>2020-01-26T10:29:00Z</time>
      </trkpt>
      <trkpt lat="45.77894" lon="-1.23703">
        <ele>59.6</ele>
        <time>2020-01-26T10:29:01Z</time>
      </trkpt>
      <trkpt lat="45.77894" lon="-1.23705">
        <ele>59.2</ele>
        <time>2020-01-26T10:29:02Z</time>
      </trkpt>
      <trkpt lat="45.77894" lon="-1.23708">
        <ele>59</ele>
        <time>2020-01-26T10:29:03Z</time>
      </trkpt>
      <trkpt lat="45.77895" lon="-1.2371">
        <ele>59</ele>
        <time>2020-01-26T10:29:04Z</time>
      </trkpt>
      <trkpt lat="45.77895" lon="-1.23712">
        <ele>59</ele>
        <time>2020-01-26T10:29:05Z</time>
      </trkpt>
      <trkpt lat="45.77895" lon="-1.23714">
        <ele>59</ele>
        <time>2020-01-26T10:29:06Z</time>
      </trkpt>
      <trkpt lat="45.77895" lon="-1.23715">
        <ele>59</ele>
        <time>2020-01-26T10:29:07Z</time>
      </trkpt>
      <trkpt lat="45.77895" lon="-1.23715">
        <ele>59</ele>
        <time>2020-01-26T10:29:08Z</time>
      </trkpt>
      <trkpt lat="45.77895" lon="-1.23716">
        <ele>59</ele>
        <time>2020-01-26T10:29:09Z</time>
      </trkpt>
      <trkpt lat="45.77895" lon="-1.23717">
        <ele>59</ele>
        <time>2020-01-26T10:29:10Z</time>
      </trkpt>
      <trkpt lat="45.77895" lon="-1.23718">
        <ele>59</ele>
        <time>2020-01-26T10:29:11Z</time>
      </trkpt>
      <trkpt lat="45.77894" lon="-1.2372">
        <ele>59</ele>
        <time>2020-01-26T10:29:12Z</time>
      </trkpt>
      <trkpt lat="45.77893" lon="-1.23721">
        <ele>59</ele>
        <time>2020-01-26T10:29:13Z</time>
      </trkpt>
      <trkpt lat="45.77894" lon="-1.23722">
        <ele>59</ele>
        <time>2020-01-26T10:29:14Z</time>
      </trkpt>
      <trkpt lat="45.77894" lon="-1.23723">
        <ele>59</ele>
        <time>2020-01-26T10:29:15Z</time>
      </trkpt>
      <trkpt lat="45.77894" lon="-1.23724">
        <ele>59</ele>
        <time>2020-01-26T10:29:16Z</time>
      </trkpt>
      <trkpt lat="45.77895" lon="-1.23726">
        <ele>59</ele>
        <time>2020-01-26T10:29:17Z</time>
      </trkpt>
      <trkpt lat="45.77894" lon="-1.23728">
        <ele>59</ele>
        <time>2020-01-26T10:29:18Z</time>
      </trkpt>
      <trkpt lat="45.77893" lon="-1.23728">
        <ele>59.2</ele>
        <time>2020-01-26T10:29:19Z</time>
      </trkpt>
      <trkpt lat="45.77892" lon="-1.23729">
        <ele>59.4</ele>
        <time>2020-01-26T10:29:20Z</time>
      </trkpt>
      <trkpt lat="45.77893" lon="-1.23729">
        <ele>59.6</ele>
        <time>2020-01-26T10:29:21Z</time>
      </trkpt>
      <trkpt lat="45.77893" lon="-1.2373">
        <ele>59.6</ele>
        <time>2020-01-26T10:29:22Z</time>
      </trkpt>
      <trkpt lat="45.77893" lon="-1.2373">
        <ele>59.8</ele>
        <time>2020-01-26T10:29:23Z</time>
      </trkpt>
      <trkpt lat="45.77893" lon="-1.2373">
        <ele>59.8</ele>
        <time>2020-01-26T10:29:24Z</time>
      </trkpt>
      <trkpt lat="45.77893" lon="-1.2373">
        <ele>59.8</ele>
        <time>2020-01-26T10:29:25Z</time>
      </trkpt>
      <trkpt lat="45.77893" lon="-1.2373">
        <ele>60</ele>
        <time>2020-01-26T10:29:26Z</time>
      </trkpt>
      <trkpt lat="45.77893" lon="-1.2373">
        <ele>60.2</ele>
        <time>2020-01-26T10:29:27Z</time>
      </trkpt>
      <trkpt lat="45.77893" lon="-1.2373">
        <ele>60.4</ele>
        <time>2020-01-26T10:29:28Z</time>
      </trkpt>
      <trkpt lat="45.77893" lon="-1.2373">
        <ele>60.6</ele>
        <time>2020-01-26T10:29:29Z</time>
      </trkpt>
      <trkpt lat="45.77893" lon="-1.2373">
        <ele>60.6</ele>
        <time>2020-01-26T10:29:30Z</time>
      </trkpt>
      <trkpt lat="45.77893" lon="-1.2373">
        <ele>60.8</ele>
        <time>2020-01-26T10:29:31Z</time>
      </trkpt>
      <trkpt lat="45.77893" lon="-1.2373">
        <ele>60.8</ele>
        <time>2020-01-26T10:29:32Z</time>
      </trkpt>
      <trkpt lat="45.77893" lon="-1.2373">
        <ele>60.6</ele>
        <time>2020-01-26T10:29:33Z</time>
      </trkpt>
      <trkpt lat="45.77893" lon="-1.2373">
        <ele>60.4</ele>
        <time>2020-01-26T10:29:34Z</time>
      </trkpt>
      <trkpt lat="45.77893" lon="-1.2373">
        <ele>60.4</ele>
        <time>2020-01-26T10:29:35Z</time>
      </trkpt>
      <trkpt lat="45.77893" lon="-1.2373">
        <ele>60.2</ele>
        <time>2020-01-26T10:29:36Z</time>
      </trkpt>
      <trkpt lat="45.77893" lon="-1.2373">
        <ele>60.2</ele>
        <time>2020-01-26T10:29:37Z</time>
      </trkpt>
      <trkpt lat="45.77893" lon="-1.2373">
        <ele>60.2</ele>
        <time>2020-01-26T10:29:38Z</time>
      </trkpt>
      <trkpt lat="45.77893" lon="-1.2373">
        <ele>60.2</ele>
        <time>2020-01-26T10:29:39Z</time>
      </trkpt>
      <trkpt lat="45.77893" lon="-1.2373">
        <ele>60</ele>
        <time>2020-01-26T10:29:40Z</time>
      </trkpt>
      <trkpt lat="45.77893" lon="-1.2373">
        <ele>60</ele>
        <time>2020-01-26T10:29:41Z</time>
      </trkpt>
      <trkpt lat="45.77893" lon="-1.2373">
        <ele>60</ele>
        <time>2020-01-26T10:29:42Z</time>
      </trkpt>
      <trkpt lat="45.77893" lon="-1.2373">
        <ele>60</ele>
        <time>2020-01-26T10:29:43Z</time>
      </trkpt>
      <trkpt lat="45.77893" lon="-1.2373">
        <ele>60</ele>
        <time>2020-01-26T10:29:44Z</time>
      </trkpt>
      <trkpt lat="45.77893" lon="-1.2373">
        <ele>60</ele>
        <time>2020-01-26T10:29:45Z</time>
      </trkpt>
      <trkpt lat="45.77893" lon="-1.2373">
        <ele>60</ele>
        <time>2020-01-26T10:29:46Z</time>
      </trkpt>
      <trkpt lat="45.77893" lon="-1.2373">
        <ele>60</ele>
        <time>2020-01-26T10:29:47Z</time>
      </trkpt>
      <trkpt lat="45.77893" lon="-1.2373">
        <ele>60</ele>
        <time>2020-01-26T10:29:48Z</time>
      </trkpt>
      <trkpt lat="45.77893" lon="-1.2373">
        <ele>60</ele>
        <time>2020-01-26T10:29:49Z</time>
      </trkpt>
      <trkpt lat="45.77893" lon="-1.2373">
        <ele>60</ele>
        <time>2020-01-26T10:29:50Z</time>
      </trkpt>
      <trkpt lat="45.77893" lon="-1.2373">
        <ele>60</ele>
        <time>2020-01-26T10:29:51Z</time>
      </trkpt>
      <trkpt lat="45.77893" lon="-1.2373">
        <ele>60</ele>
        <time>2020-01-26T10:29:52Z</time>
      </trkpt>
      <trkpt lat="45.77893" lon="-1.2373">
        <ele>60</ele>
        <time>2020-01-26T10:29:53Z</time>
      </trkpt>
      <trkpt lat="45.77892" lon="-1.2373">
        <ele>60</ele>
        <time>2020-01-26T10:29:54Z</time>
      </trkpt>
      <trkpt lat="45.77892" lon="-1.2373">
        <ele>60</ele>
        <time>2020-01-26T10:29:55Z</time>
      </trkpt>
      <trkpt lat="45.77892" lon="-1.2373">
        <ele>60</ele>
        <time>2020-01-26T10:29:56Z</time>
      </trkpt>
      <trkpt lat="45.77892" lon="-1.2373">
        <ele>60</ele>
        <time>2020-01-26T10:29:57Z</time>
      </trkpt>
      <trkpt lat="45.77892" lon="-1.2373">
        <ele>60</ele>
        <time>2020-01-26T10:29:58Z</time>
      </trkpt>
      <trkpt lat="45.77892" lon="-1.2373">
        <ele>60</ele>
        <time>2020-01-26T10:29:59Z</time>
      </trkpt>
      <trkpt lat="45.77892" lon="-1.2373">
        <ele>60</ele>
        <time>2020-01-26T10:30:00Z</time>
      </trkpt>
      <trkpt lat="45.77892" lon="-1.2373">
        <ele>60</ele>
        <time>2020-01-26T10:30:01Z</time>
      </trkpt>
      <trkpt lat="45.77892" lon="-1.2373">
        <ele>60</ele>
        <time>2020-01-26T10:30:02Z</time>
      </trkpt>
      <trkpt lat="45.77892" lon="-1.2373">
        <ele>60</ele>
        <time>2020-01-26T10:30:03Z</time>
      </trkpt>
      <trkpt lat="45.77892" lon="-1.2373">
        <ele>60</ele>
        <time>2020-01-26T10:30:04Z</time>
      </trkpt>
      <trkpt lat="45.77892" lon="-1.2373">
        <ele>60</ele>
        <time>2020-01-26T10:30:05Z</time>
      </trkpt>
      <trkpt lat="45.77892" lon="-1.2373">
        <ele>60</ele>
        <time>2020-01-26T10:30:06Z</time>
      </trkpt>
      <trkpt lat="45.77892" lon="-1.2373">
        <ele>59.8</ele>
        <time>2020-01-26T10:30:07Z</time>
      </trkpt>
      <trkpt lat="45.77892" lon="-1.2373">
        <ele>59.6</ele>
        <time>2020-01-26T10:30:08Z</time>
      </trkpt>
      <trkpt lat="45.77892" lon="-1.2373">
        <ele>59.4</ele>
        <time>2020-01-26T10:30:09Z</time>
      </trkpt>
      <trkpt lat="45.77892" lon="-1.2373">
        <ele>59.4</ele>
        <time>2020-01-26T10:30:10Z</time>
      </trkpt>
      <trkpt lat="45.77892" lon="-1.2373">
        <ele>59.2</ele>
        <time>2020-01-26T10:30:11Z</time>
      </trkpt>
      <trkpt lat="45.77892" lon="-1.2373">
        <ele>59.2</ele>
        <time>2020-01-26T10:30:12Z</time>
      </trkpt>
      <trkpt lat="45.77892" lon="-1.2373">
        <ele>59.2</ele>
        <time>2020-01-26T10:30:13Z</time>
      </trkpt>
      <trkpt lat="45.77892" lon="-1.2373">
        <ele>59</ele>
        <time>2020-01-26T10:30:14Z</time>
      </trkpt>
      <trkpt lat="45.77892" lon="-1.2373">
        <ele>59</ele>
        <time>2020-01-26T10:30:15Z</time>
      </trkpt>
      <trkpt lat="45.77892" lon="-1.2373">
        <ele>59</ele>
        <time>2020-01-26T10:30:16Z</time>
      </trkpt>
      <trkpt lat="45.77892" lon="-1.2373">
        <ele>59</ele>
        <time>2020-01-26T10:30:17Z</time>
      </trkpt>
      <trkpt lat="45.77892" lon="-1.2373">
        <ele>59</ele>
        <time>2020-01-26T10:30:18Z</time>
      </trkpt>
      <trkpt lat="45.77892" lon="-1.2373">
        <ele>59</ele>
        <time>2020-01-26T10:30:19Z</time>
      </trkpt>
      <trkpt lat="45.77892" lon="-1.2373">
        <ele>59</ele>
        <time>2020-01-26T10:30:20Z</time>
      </trkpt>
      <trkpt lat="45.77892" lon="-1.2373">
        <ele>59</ele>
        <time>2020-01-26T10:30:21Z</time>
      </trkpt>
      <trkpt lat="45.77892" lon="-1.2373">
        <ele>59</ele>
        <time>2020-01-26T10:30:22Z</time>
      </trkpt>
      <trkpt lat="45.77892" lon="-1.2373">
        <ele>59</ele>
        <time>2020-01-26T10:30:23Z</time>
      </trkpt>
      <trkpt lat="45.77892" lon="-1.2373">
        <ele>59</ele>
        <time>2020-01-26T10:30:24Z</time>
      </trkpt>
      <trkpt lat="45.77892" lon="-1.2373">
        <ele>59</ele>
        <time>2020-01-26T10:30:25Z</time>
      </trkpt>
      <trkpt lat="45.77892" lon="-1.2373">
        <ele>59</ele>
        <time>2020-01-26T10:30:26Z</time>
      </trkpt>
      <trkpt lat="45.77892" lon="-1.2373">
        <ele>59</ele>
        <time>2020-01-26T10:30:27Z</time>
      </trkpt>
      <trkpt lat="45.77892" lon="-1.2373">
        <ele>59</ele>
        <time>2020-01-26T10:30:28Z</time>
      </trkpt>
      <trkpt lat="45.77892" lon="-1.2373">
        <ele>59</ele>
        <time>2020-01-26T10:30:29Z</time>
      </trkpt>
      <trkpt lat="45.77892" lon="-1.2373">
        <ele>59</ele>
        <time>2020-01-26T10:30:30Z</time>
      </trkpt>
      <trkpt lat="45.77892" lon="-1.2373">
        <ele>59</ele>
        <time>2020-01-26T10:30:31Z</time>
      </trkpt>
      <trkpt lat="45.77892" lon="-1.2373">
        <ele>59</ele>
        <time>2020-01-26T10:30:32Z</time>
      </trkpt>
      <trkpt lat="45.77892" lon="-1.2373">
        <ele>59</ele>
        <time>2020-01-26T10:30:33Z</time>
      </trkpt>
      <trkpt lat="45.77892" lon="-1.2373">
        <ele>59</ele>
        <time>2020-01-26T10:30:34Z</time>
      </trkpt>
      <trkpt lat="45.77892" lon="-1.2373">
        <ele>59</ele>
        <time>2020-01-26T10:30:35Z</time>
      </trkpt>
      <trkpt lat="45.77892" lon="-1.2373">
        <ele>59</ele>
        <time>2020-01-26T10:30:36Z</time>
      </trkpt>
      <trkpt lat="45.77891" lon="-1.2373">
        <ele>59</ele>
        <time>2020-01-26T10:30:37Z</time>
      </trkpt>
      <trkpt lat="45.77891" lon="-1.2373">
        <ele>59</ele>
        <time>2020-01-26T10:30:38Z</time>
      </trkpt>
      <trkpt lat="45.77891" lon="-1.2373">
        <ele>59</ele>
        <time>2020-01-26T10:30:39Z</time>
      </trkpt>
      <trkpt lat="45.77891" lon="-1.2373">
        <ele>59</ele>
        <time>2020-01-26T10:30:40Z</time>
      </trkpt>
      <trkpt lat="45.77891" lon="-1.2373">
        <ele>58.8</ele>
        <time>2020-01-26T10:30:41Z</time>
      </trkpt>
      <trkpt lat="45.7789" lon="-1.2373">
        <ele>58.6</ele>
        <time>2020-01-26T10:30:42Z</time>
      </trkpt>
      <trkpt lat="45.7789" lon="-1.2373">
        <ele>58.4</ele>
        <time>2020-01-26T10:30:43Z</time>
      </trkpt>
      <trkpt lat="45.7789" lon="-1.2373">
        <ele>58.4</ele>
        <time>2020-01-26T10:30:44Z</time>
      </trkpt>
      <trkpt lat="45.7789" lon="-1.2373">
        <ele>58.2</ele>
        <time>2020-01-26T10:30:45Z</time>
      </trkpt>
      <trkpt lat="45.7789" lon="-1.2373">
        <ele>58.2</ele>
        <time>2020-01-26T10:30:46Z</time>
      </trkpt>
      <trkpt lat="45.7789" lon="-1.2373">
        <ele>58.2</ele>
        <time>2020-01-26T10:30:47Z</time>
      </trkpt>
      <trkpt lat="45.7789" lon="-1.2373">
        <ele>58</ele>
        <time>2020-01-26T10:30:48Z</time>
      </trkpt>
      <trkpt lat="45.7789" lon="-1.2373">
        <ele>58</ele>
        <time>2020-01-26T10:30:49Z</time>
      </trkpt>
      <trkpt lat="45.7789" lon="-1.2373">
        <ele>58</ele>
        <time>2020-01-26T10:30:50Z</time>
      </trkpt>
      <trkpt lat="45.7789" lon="-1.2373">
        <ele>58</ele>
        <time>2020-01-26T10:30:51Z</time>
      </trkpt>
      <trkpt lat="45.7789" lon="-1.2373">
        <ele>58</ele>
        <time>2020-01-26T10:30:52Z</time>
      </trkpt>
      <trkpt lat="45.7789" lon="-1.2373">
        <ele>58</ele>
        <time>2020-01-26T10:30:53Z</time>
      </trkpt>
      <trkpt lat="45.7789" lon="-1.2373">
        <ele>58</ele>
        <time>2020-01-26T10:30:54Z</time>
      </trkpt>
      <trkpt lat="45.7789" lon="-1.2373">
        <ele>58</ele>
        <time>2020-01-26T10:30:55Z</time>
      </trkpt>
      <trkpt lat="45.7789" lon="-1.2373">
        <ele>58</ele>
        <time>2020-01-26T10:30:56Z</time>
      </trkpt>
      <trkpt lat="45.7789" lon="-1.2373">
        <ele>58</ele>
        <time>2020-01-26T10:30:57Z</time>
      </trkpt>
      <trkpt lat="45.7789" lon="-1.2373">
        <ele>58</ele>
        <time>2020-01-26T10:30:58Z</time>
      </trkpt>
      <trkpt lat="45.7789" lon="-1.2373">
        <ele>58</ele>
        <time>2020-01-26T10:30:59Z</time>
      </trkpt>
      <trkpt lat="45.7789" lon="-1.2373">
        <ele>58</ele>
        <time>2020-01-26T10:31:00Z</time>
      </trkpt>
      <trkpt lat="45.7789" lon="-1.2373">
        <ele>58</ele>
        <time>2020-01-26T10:31:01Z</time>
      </trkpt>
      <trkpt lat="45.7789" lon="-1.2373">
        <ele>58</ele>
        <time>2020-01-26T10:31:02Z</time>
      </trkpt>
      <trkpt lat="45.7789" lon="-1.2373">
        <ele>58</ele>
        <time>2020-01-26T10:31:03Z</time>
      </trkpt>
      <trkpt lat="45.7789" lon="-1.2373">
        <ele>58</ele>
        <time>2020-01-26T10:31:04Z</time>
      </trkpt>
      <trkpt lat="45.7789" lon="-1.2373">
        <ele>58</ele>
        <time>2020-01-26T10:31:05Z</time>
      </trkpt>
      <trkpt lat="45.7789" lon="-1.2373">
        <ele>58</ele>
        <time>2020-01-26T10:31:06Z</time>
      </trkpt>
      <trkpt lat="45.7789" lon="-1.2373">
        <ele>58</ele>
        <time>2020-01-26T10:31:07Z</time>
      </trkpt>
      <trkpt lat="45.7789" lon="-1.2373">
        <ele>58</ele>
        <time>2020-01-26T10:31:08Z</time>
      </trkpt>
      <trkpt lat="45.7789" lon="-1.2373">
        <ele>58</ele>
        <time>2020-01-26T10:31:09Z</time>
      </trkpt>
      <trkpt lat="45.7789" lon="-1.2373">
        <ele>58</ele>
        <time>2020-01-26T10:31:10Z</time>
      </trkpt>
      <trkpt lat="45.7789" lon="-1.2373">
        <ele>58</ele>
        <time>2020-01-26T10:31:11Z</time>
      </trkpt>
      <trkpt lat="45.7789" lon="-1.2373">
        <ele>58</ele>
        <time>2020-01-26T10:31:12Z</time>
      </trkpt>
      <trkpt lat="45.7789" lon="-1.2373">
        <ele>58</ele>
        <time>2020-01-26T10:31:13Z</time>
      </trkpt>
      <trkpt lat="45.7789" lon="-1.2373">
        <ele>58</ele>
        <time>2020-01-26T10:31:14Z</time>
      </trkpt>
      <trkpt lat="45.7789" lon="-1.2373">
        <ele>58</ele>
        <time>2020-01-26T10:31:15Z</time>
      </trkpt>
      <trkpt lat="45.7789" lon="-1.2373">
        <ele>58</ele>
        <time>2020-01-26T10:31:16Z</time>
      </trkpt>
      <trkpt lat="45.7789" lon="-1.2373">
        <ele>58</ele>
        <time>2020-01-26T10:31:17Z</time>
      </trkpt>
      <trkpt lat="45.7789" lon="-1.2373">
        <ele>58</ele>
        <time>2020-01-26T10:31:18Z</time>
      </trkpt>
      <trkpt lat="45.7789" lon="-1.2373">
        <ele>58</ele>
        <time>2020-01-26T10:31:19Z</time>
      </trkpt>
      <trkpt lat="45.7789" lon="-1.2373">
        <ele>58</ele>
        <time>2020-01-26T10:31:20Z</time>
      </trkpt>
      <trkpt lat="45.7789" lon="-1.2373">
        <ele>58</ele>
        <time>2020-01-26T10:31:21Z</time>
      </trkpt>
      <trkpt lat="45.7789" lon="-1.2373">
        <ele>58</ele>
        <time>2020-01-26T10:31:22Z</time>
      </trkpt>
      <trkpt lat="45.7789" lon="-1.2373">
        <ele>58</ele>
        <time>2020-01-26T10:31:23Z</time>
      </trkpt>
      <trkpt lat="45.7789" lon="-1.2373">
        <ele>58</ele>
        <time>2020-01-26T10:31:24Z</time>
      </trkpt>
      <trkpt lat="45.7789" lon="-1.2373">
        <ele>58</ele>
        <time>2020-01-26T10:31:25Z</time>
      </trkpt>
      <trkpt lat="45.7789" lon="-1.2373">
        <ele>58</ele>
        <time>2020-01-26T10:31:26Z</time>
      </trkpt>
      <trkpt lat="45.7789" lon="-1.2373">
        <ele>58</ele>
        <time>2020-01-26T10:31:27Z</time>
      </trkpt>
      <trkpt lat="45.7789" lon="-1.2373">
        <ele>58</ele>
        <time>2020-01-26T10:31:28Z</time>
      </trkpt>
      <trkpt lat="45.7789" lon="-1.2373">
        <ele>58</ele>
        <time>2020-01-26T10:31:29Z</time>
      </trkpt>
      <trkpt lat="45.7789" lon="-1.2373">
        <ele>58</ele>
        <time>2020-01-26T10:31:30Z</time>
      </trkpt>
      <trkpt lat="45.7789" lon="-1.2373">
        <ele>58</ele>
        <time>2020-01-26T10:31:31Z</time>
      </trkpt>
      <trkpt lat="45.7789" lon="-1.2373">
        <ele>58</ele>
        <time>2020-01-26T10:31:32Z</time>
      </trkpt>
      <trkpt lat="45.7789" lon="-1.2373">
        <ele>58</ele>
        <time>2020-01-26T10:31:33Z</time>
      </trkpt>
      <trkpt lat="45.7789" lon="-1.2373">
        <ele>58</ele>
        <time>2020-01-26T10:31:34Z</time>
      </trkpt>
      <trkpt lat="45.7789" lon="-1.2373">
        <ele>58</ele>
        <time>2020-01-26T10:31:35Z</time>
      </trkpt>
      <trkpt lat="45.7789" lon="-1.2373">
        <ele>58</ele>
        <time>2020-01-26T10:31:36Z</time>
      </trkpt>
      <trkpt lat="45.7789" lon="-1.2373">
        <ele>58</ele>
        <time>2020-01-26T10:31:37Z</time>
      </trkpt>
      <trkpt lat="45.7789" lon="-1.2373">
        <ele>58</ele>
        <time>2020-01-26T10:31:38Z</time>
      </trkpt>
      <trkpt lat="45.7789" lon="-1.2373">
        <ele>58</ele>
        <time>2020-01-26T10:31:39Z</time>
      </trkpt>
      <trkpt lat="45.7789" lon="-1.2373">
        <ele>58</ele>
        <time>2020-01-26T10:31:40Z</time>
      </trkpt>
      <trkpt lat="45.7789" lon="-1.2373">
        <ele>58</ele>
        <time>2020-01-26T10:31:41Z</time>
      </trkpt>
      <trkpt lat="45.7789" lon="-1.2373">
        <ele>58</ele>
        <time>2020-01-26T10:31:42Z</time>
      </trkpt>
      <trkpt lat="45.7789" lon="-1.2373">
        <ele>58</ele>
        <time>2020-01-26T10:31:43Z</time>
      </trkpt>
      <trkpt lat="45.7789" lon="-1.2373">
        <ele>58</ele>
        <time>2020-01-26T10:31:44Z</time>
      </trkpt>
      <trkpt lat="45.7789" lon="-1.2373">
        <ele>58</ele>
        <time>2020-01-26T10:31:45Z</time>
      </trkpt>
      <trkpt lat="45.7789" lon="-1.2373">
        <ele>58</ele>
        <time>2020-01-26T10:31:46Z</time>
      </trkpt>
      <trkpt lat="45.7789" lon="-1.2373">
        <ele>58</ele>
        <time>2020-01-26T10:31:47Z</time>
      </trkpt>
      <trkpt lat="45.7789" lon="-1.2373">
        <ele>58</ele>
        <time>2020-01-26T10:31:48Z</time>
      </trkpt>
      <trkpt lat="45.7789" lon="-1.2373">
        <ele>58</ele>
        <time>2020-01-26T10:31:49Z</time>
      </trkpt>
      <trkpt lat="45.7789" lon="-1.2373">
        <ele>58</ele>
        <time>2020-01-26T10:31:50Z</time>
      </trkpt>
      <trkpt lat="45.7789" lon="-1.2373">
        <ele>58</ele>
        <time>2020-01-26T10:31:51Z</time>
      </trkpt>
      <trkpt lat="45.7789" lon="-1.2373">
        <ele>58</ele>
        <time>2020-01-26T10:31:52Z</time>
      </trkpt>
      <trkpt lat="45.7789" lon="-1.2373">
        <ele>58</ele>
        <time>2020-01-26T10:31:53Z</time>
      </trkpt>
      <trkpt lat="45.7789" lon="-1.2373">
        <ele>58</ele>
        <time>2020-01-26T10:31:54Z</time>
      </trkpt>
      <trkpt lat="45.7789" lon="-1.2373">
        <ele>58</ele>
        <time>2020-01-26T10:31:55Z</time>
      </trkpt>
      <trkpt lat="45.7789" lon="-1.2373">
        <ele>58</ele>
        <time>2020-01-26T10:31:56Z</time>
      </trkpt>
      <trkpt lat="45.7789" lon="-1.2373">
        <ele>58</ele>
        <time>2020-01-26T10:31:57Z</time>
      </trkpt>
      <trkpt lat="45.7789" lon="-1.2373">
        <ele>58</ele>
        <time>2020-01-26T10:31:58Z</time>
      </trkpt>
      <trkpt lat="45.7789" lon="-1.2373">
        <ele>58</ele>
        <time>2020-01-26T10:31:59Z</time>
      </trkpt>
      <trkpt lat="45.7789" lon="-1.2373">
        <ele>58</ele>
        <time>2020-01-26T10:32:00Z</time>
      </trkpt>
      <trkpt lat="45.7789" lon="-1.2373">
        <ele>58</ele>
        <time>2020-01-26T10:32:01Z</time>
      </trkpt>
      <trkpt lat="45.7789" lon="-1.2373">
        <ele>58</ele>
        <time>2020-01-26T10:32:02Z</time>
      </trkpt>
      <trkpt lat="45.7789" lon="-1.2373">
        <ele>58</ele>
        <time>2020-01-26T10:32:03Z</time>
      </trkpt>
      <trkpt lat="45.7789" lon="-1.2373">
        <ele>58</ele>
        <time>2020-01-26T10:32:04Z</time>
      </trkpt>
      <trkpt lat="45.7789" lon="-1.2373">
        <ele>58</ele>
        <time>2020-01-26T10:32:05Z</time>
      </trkpt>
      <trkpt lat="45.7789" lon="-1.2373">
        <ele>58</ele>
        <time>2020-01-26T10:32:06Z</time>
      </trkpt>
      <trkpt lat="45.7789" lon="-1.2373">
        <ele>58</ele>
        <time>2020-01-26T10:32:07Z</time>
      </trkpt>
      <trkpt lat="45.7789" lon="-1.2373">
        <ele>58</ele>
        <time>2020-01-26T10:32:08Z</time>
      </trkpt>
      <trkpt lat="45.7789" lon="-1.2373">
        <ele>58</ele>
        <time>2020-01-26T10:32:09Z</time>
      </trkpt>
      <trkpt lat="45.7789" lon="-1.2373">
        <ele>58</ele>
        <time>2020-01-26T10:32:10Z</time>
      </trkpt>
      <trkpt lat="45.7789" lon="-1.2373">
        <ele>58</ele>
        <time>2020-01-26T10:32:11Z</time>
      </trkpt>
      <trkpt lat="45.7789" lon="-1.2373">
        <ele>58</ele>
        <time>2020-01-26T10:32:12Z</time>
      </trkpt>
      <trkpt lat="45.7789" lon="-1.2373">
        <ele>58</ele>
        <time>2020-01-26T10:32:13Z</time>
      </trkpt>
      <trkpt lat="45.7789" lon="-1.2373">
        <ele>58</ele>
        <time>2020-01-26T10:32:14Z</time>
      </trkpt>
      <trkpt lat="45.7789" lon="-1.2373">
        <ele>58</ele>
        <time>2020-01-26T10:32:15Z</time>
      </trkpt>
      <trkpt lat="45.7789" lon="-1.2373">
        <ele>58</ele>
        <time>2020-01-26T10:32:16Z</time>
      </trkpt>
      <trkpt lat="45.7789" lon="-1.2373">
        <ele>58</ele>
        <time>2020-01-26T10:32:17Z</time>
      </trkpt>
      <trkpt lat="45.7789" lon="-1.2373">
        <ele>58</ele>
        <time>2020-01-26T10:32:18Z</time>
      </trkpt>
      <trkpt lat="45.7789" lon="-1.2373">
        <ele>58</ele>
        <time>2020-01-26T10:32:19Z</time>
      </trkpt>
      <trkpt lat="45.77889" lon="-1.2373">
        <ele>58</ele>
        <time>2020-01-26T10:32:20Z</time>
      </trkpt>
      <trkpt lat="45.7789" lon="-1.2373">
        <ele>58.2</ele>
        <time>2020-01-26T10:32:21Z</time>
      </trkpt>
      <trkpt lat="45.77889" lon="-1.23729">
        <ele>58.4</ele>
        <time>2020-01-26T10:32:22Z</time>
      </trkpt>
      <trkpt lat="45.77889" lon="-1.2373">
        <ele>58.6</ele>
        <time>2020-01-26T10:32:23Z</time>
      </trkpt>
      <trkpt lat="45.77889" lon="-1.2373">
        <ele>59</ele>
        <time>2020-01-26T10:32:24Z</time>
      </trkpt>
      <trkpt lat="45.77889" lon="-1.2373">
        <ele>59.2</ele>
        <time>2020-01-26T10:32:25Z</time>
      </trkpt>
      <trkpt lat="45.77889" lon="-1.23731">
        <ele>59.6</ele>
        <time>2020-01-26T10:32:26Z</time>
      </trkpt>
      <trkpt lat="45.77889" lon="-1.23731">
        <ele>60</ele>
        <time>2020-01-26T10:32:27Z</time>
      </trkpt>
      <trkpt lat="45.77889" lon="-1.23731">
        <ele>60.6</ele>
        <time>2020-01-26T10:32:28Z</time>
      </trkpt>
      <trkpt lat="45.77889" lon="-1.23731">
        <ele>60.8</ele>
        <time>2020-01-26T10:32:29Z</time>
      </trkpt>
      <trkpt lat="45.77889" lon="-1.23731">
        <ele>61.2</ele>
        <time>2020-01-26T10:32:30Z</time>
      </trkpt>
      <trkpt lat="45.77889" lon="-1.23731">
        <ele>61.4</ele>
        <time>2020-01-26T10:32:31Z</time>
      </trkpt>
      <trkpt lat="45.77889" lon="-1.23731">
        <ele>61.6</ele>
        <time>2020-01-26T10:32:32Z</time>
      </trkpt>
      <trkpt lat="45.77889" lon="-1.23731">
        <ele>61.6</ele>
        <time>2020-01-26T10:32:33Z</time>
      </trkpt>
      <trkpt lat="45.77889" lon="-1.23731">
        <ele>61.8</ele>
        <time>2020-01-26T10:32:34Z</time>
      </trkpt>
      <trkpt lat="45.77889" lon="-1.23731">
        <ele>61.8</ele>
        <time>2020-01-26T10:32:35Z</time>
      </trkpt>
      <trkpt lat="45.77889" lon="-1.23731">
        <ele>61.8</ele>
        <time>2020-01-26T10:32:36Z</time>
      </trkpt>
      <trkpt lat="45.77889" lon="-1.23731">
        <ele>61.8</ele>
        <time>2020-01-26T10:32:37Z</time>
      </trkpt>
      <trkpt lat="45.77889" lon="-1.23731">
        <ele>62</ele>
        <time>2020-01-26T10:32:38Z</time>
      </trkpt>
      <trkpt lat="45.77889" lon="-1.23731">
        <ele>62</ele>
        <time>2020-01-26T10:32:39Z</time>
      </trkpt>
      <trkpt lat="45.77889" lon="-1.23731">
        <ele>62</ele>
        <time>2020-01-26T10:32:40Z</time>
      </trkpt>
      <trkpt lat="45.77889" lon="-1.23731">
        <ele>62</ele>
        <time>2020-01-26T10:32:41Z</time>
      </trkpt>
      <trkpt lat="45.77889" lon="-1.23731">
        <ele>62</ele>
        <time>2020-01-26T10:32:42Z</time>
      </trkpt>
      <trkpt lat="45.77889" lon="-1.23731">
        <ele>62</ele>
        <time>2020-01-26T10:32:43Z</time>
      </trkpt>
      <trkpt lat="45.77889" lon="-1.23731">
        <ele>62</ele>
        <time>2020-01-26T10:32:44Z</time>
      </trkpt>
      <trkpt lat="45.77889" lon="-1.23731">
        <ele>62</ele>
        <time>2020-01-26T10:32:45Z</time>
      </trkpt>
      <trkpt lat="45.77889" lon="-1.23731">
        <ele>62</ele>
        <time>2020-01-26T10:32:46Z</time>
      </trkpt>
      <trkpt lat="45.77889" lon="-1.23731">
        <ele>62</ele>
        <time>2020-01-26T10:32:47Z</time>
      </trkpt>
      <trkpt lat="45.77889" lon="-1.23731">
        <ele>62</ele>
        <time>2020-01-26T10:32:48Z</time>
      </trkpt>
      <trkpt lat="45.77889" lon="-1.23731">
        <ele>62</ele>
        <time>2020-01-26T10:32:49Z</time>
      </trkpt>
      <trkpt lat="45.77889" lon="-1.23731">
        <ele>62</ele>
        <time>2020-01-26T10:32:50Z</time>
      </trkpt>
      <trkpt lat="45.77889" lon="-1.23731">
        <ele>62</ele>
        <time>2020-01-26T10:32:51Z</time>
      </trkpt>
      <trkpt lat="45.77889" lon="-1.23731">
        <ele>62</ele>
        <time>2020-01-26T10:32:52Z</time>
      </trkpt>
      <trkpt lat="45.77889" lon="-1.23731">
        <ele>62</ele>
        <time>2020-01-26T10:32:53Z</time>
      </trkpt>
      <trkpt lat="45.77889" lon="-1.23731">
        <ele>62</ele>
        <time>2020-01-26T10:32:54Z</time>
      </trkpt>
      <trkpt lat="45.77889" lon="-1.23731">
        <ele>62</ele>
        <time>2020-01-26T10:32:55Z</time>
      </trkpt>
      <trkpt lat="45.77889" lon="-1.23731">
        <ele>62</ele>
        <time>2020-01-26T10:32:56Z</time>
      </trkpt>
      <trkpt lat="45.77889" lon="-1.23731">
        <ele>62</ele>
        <time>2020-01-26T10:32:57Z</time>
      </trkpt>
      <trkpt lat="45.77889" lon="-1.23731">
        <ele>62</ele>
        <time>2020-01-26T10:32:58Z</time>
      </trkpt>
      <trkpt lat="45.77889" lon="-1.23731">
        <ele>62</ele>
        <time>2020-01-26T10:32:59Z</time>
      </trkpt>
      <trkpt lat="45.77889" lon="-1.23731">
        <ele>62</ele>
        <time>2020-01-26T10:33:00Z</time>
      </trkpt>
      <trkpt lat="45.77889" lon="-1.23731">
        <ele>62</ele>
        <time>2020-01-26T10:33:01Z</time>
      </trkpt>
      <trkpt lat="45.77889" lon="-1.23731">
        <ele>62</ele>
        <time>2020-01-26T10:33:02Z</time>
      </trkpt>
      <trkpt lat="45.77889" lon="-1.23731">
        <ele>62</ele>
        <time>2020-01-26T10:33:03Z</time>
      </trkpt>
      <trkpt lat="45.77889" lon="-1.23731">
        <ele>62</ele>
        <time>2020-01-26T10:33:04Z</time>
      </trkpt>
      <trkpt lat="45.77889" lon="-1.23731">
        <ele>62</ele>
        <time>2020-01-26T10:33:05Z</time>
      </trkpt>
      <trkpt lat="45.77889" lon="-1.23731">
        <ele>62</ele>
        <time>2020-01-26T10:33:06Z</time>
      </trkpt>
      <trkpt lat="45.77889" lon="-1.23731">
        <ele>62</ele>
        <time>2020-01-26T10:33:07Z</time>
      </trkpt>
      <trkpt lat="45.77889" lon="-1.23731">
        <ele>62</ele>
        <time>2020-01-26T10:33:08Z</time>
      </trkpt>
      <trkpt lat="45.77889" lon="-1.23731">
        <ele>62</ele>
        <time>2020-01-26T10:33:09Z</time>
      </trkpt>
      <trkpt lat="45.77889" lon="-1.23731">
        <ele>62</ele>
        <time>2020-01-26T10:33:10Z</time>
      </trkpt>
      <trkpt lat="45.77889" lon="-1.23731">
        <ele>62</ele>
        <time>2020-01-26T10:33:11Z</time>
      </trkpt>
      <trkpt lat="45.77889" lon="-1.23731">
        <ele>62</ele>
        <time>2020-01-26T10:33:12Z</time>
      </trkpt>
      <trkpt lat="45.77889" lon="-1.23731">
        <ele>62</ele>
        <time>2020-01-26T10:33:13Z</time>
      </trkpt>
      <trkpt lat="45.77889" lon="-1.23731">
        <ele>62</ele>
        <time>2020-01-26T10:33:14Z</time>
      </trkpt>
      <trkpt lat="45.77889" lon="-1.23731">
        <ele>62</ele>
        <time>2020-01-26T10:33:15Z</time>
      </trkpt>
      <trkpt lat="45.77889" lon="-1.23731">
        <ele>62</ele>
        <time>2020-01-26T10:33:16Z</time>
      </trkpt>
      <trkpt lat="45.77889" lon="-1.23731">
        <ele>62</ele>
        <time>2020-01-26T10:33:17Z</time>
      </trkpt>
      <trkpt lat="45.77889" lon="-1.23731">
        <ele>62</ele>
        <time>2020-01-26T10:33:18Z</time>
      </trkpt>
      <trkpt lat="45.77889" lon="-1.23731">
        <ele>62</ele>
        <time>2020-01-26T10:33:19Z</time>
      </trkpt>
      <trkpt lat="45.77889" lon="-1.23731">
        <ele>62</ele>
        <time>2020-01-26T10:33:20Z</time>
      </trkpt>
      <trkpt lat="45.77889" lon="-1.23731">
        <ele>62</ele>
        <time>2020-01-26T10:33:21Z</time>
      </trkpt>
      <trkpt lat="45.77889" lon="-1.23731">
        <ele>62</ele>
        <time>2020-01-26T10:33:22Z</time>
      </trkpt>
      <trkpt lat="45.77889" lon="-1.23731">
        <ele>62</ele>
        <time>2020-01-26T10:33:23Z</time>
      </trkpt>
      <trkpt lat="45.77889" lon="-1.23731">
        <ele>62</ele>
        <time>2020-01-26T10:33:24Z</time>
      </trkpt>
      <trkpt lat="45.77889" lon="-1.23731">
        <ele>62</ele>
        <time>2020-01-26T10:33:25Z</time>
      </trkpt>
      <trkpt lat="45.77889" lon="-1.23731">
        <ele>62</ele>
        <time>2020-01-26T10:33:26Z</time>
      </trkpt>
      <trkpt lat="45.77889" lon="-1.23731">
        <ele>62</ele>
        <time>2020-01-26T10:33:27Z</time>
      </trkpt>
      <trkpt lat="45.77889" lon="-1.23731">
        <ele>62</ele>
        <time>2020-01-26T10:33:28Z</time>
      </trkpt>
      <trkpt lat="45.77889" lon="-1.23731">
        <ele>62</ele>
        <time>2020-01-26T10:33:29Z</time>
      </trkpt>
      <trkpt lat="45.77889" lon="-1.23731">
        <ele>62</ele>
        <time>2020-01-26T10:33:30Z</time>
      </trkpt>
      <trkpt lat="45.77889" lon="-1.23731">
        <ele>62</ele>
        <time>2020-01-26T10:33:31Z</time>
      </trkpt>
      <trkpt lat="45.77889" lon="-1.23731">
        <ele>62</ele>
        <time>2020-01-26T10:33:32Z</time>
      </trkpt>
      <trkpt lat="45.77889" lon="-1.23731">
        <ele>62</ele>
        <time>2020-01-26T10:33:33Z</time>
      </trkpt>
      <trkpt lat="45.77889" lon="-1.23731">
        <ele>62</ele>
        <time>2020-01-26T10:33:34Z</time>
      </trkpt>
      <trkpt lat="45.77889" lon="-1.23731">
        <ele>62</ele>
        <time>2020-01-26T10:33:35Z</time>
      </trkpt>
      <trkpt lat="45.77889" lon="-1.23731">
        <ele>62</ele>
        <time>2020-01-26T10:33:36Z</time>
      </trkpt>
      <trkpt lat="45.77889" lon="-1.23731">
        <ele>62</ele>
        <time>2020-01-26T10:33:37Z</time>
      </trkpt>
      <trkpt lat="45.77889" lon="-1.23731">
        <ele>62</ele>
        <time>2020-01-26T10:33:38Z</time>
      </trkpt>
      <trkpt lat="45.77889" lon="-1.23731">
        <ele>62</ele>
        <time>2020-01-26T10:33:39Z</time>
      </trkpt>
      <trkpt lat="45.77889" lon="-1.23731">
        <ele>62</ele>
        <time>2020-01-26T10:33:40Z</time>
      </trkpt>
      <trkpt lat="45.77889" lon="-1.23731">
        <ele>62</ele>
        <time>2020-01-26T10:33:41Z</time>
      </trkpt>
      <trkpt lat="45.77889" lon="-1.23731">
        <ele>62</ele>
        <time>2020-01-26T10:33:42Z</time>
      </trkpt>
      <trkpt lat="45.77889" lon="-1.23731">
        <ele>62</ele>
        <time>2020-01-26T10:33:43Z</time>
      </trkpt>
      <trkpt lat="45.77889" lon="-1.23731">
        <ele>62</ele>
        <time>2020-01-26T10:33:44Z</time>
      </trkpt>
      <trkpt lat="45.77889" lon="-1.23731">
        <ele>62</ele>
        <time>2020-01-26T10:33:45Z</time>
      </trkpt>
      <trkpt lat="45.77889" lon="-1.23731">
        <ele>62</ele>
        <time>2020-01-26T10:33:46Z</time>
      </trkpt>
      <trkpt lat="45.77889" lon="-1.23731">
        <ele>62</ele>
        <time>2020-01-26T10:33:47Z</time>
      </trkpt>
      <trkpt lat="45.77889" lon="-1.23731">
        <ele>62</ele>
        <time>2020-01-26T10:33:48Z</time>
      </trkpt>
      <trkpt lat="45.77889" lon="-1.23731">
        <ele>62</ele>
        <time>2020-01-26T10:33:49Z</time>
      </trkpt>
      <trkpt lat="45.77889" lon="-1.23731">
        <ele>62</ele>
        <time>2020-01-26T10:33:50Z</time>
      </trkpt>
      <trkpt lat="45.77889" lon="-1.23731">
        <ele>62</ele>
        <time>2020-01-26T10:33:51Z</time>
      </trkpt>
      <trkpt lat="45.77889" lon="-1.23731">
        <ele>62</ele>
        <time>2020-01-26T10:33:52Z</time>
      </trkpt>
      <trkpt lat="45.77889" lon="-1.23731">
        <ele>62</ele>
        <time>2020-01-26T10:33:53Z</time>
      </trkpt>
      <trkpt lat="45.77889" lon="-1.23731">
        <ele>62</ele>
        <time>2020-01-26T10:33:54Z</time>
      </trkpt>
      <trkpt lat="45.77889" lon="-1.23731">
        <ele>62</ele>
        <time>2020-01-26T10:33:55Z</time>
      </trkpt>
      <trkpt lat="45.77889" lon="-1.23731">
        <ele>62</ele>
        <time>2020-01-26T10:33:56Z</time>
      </trkpt>
      <trkpt lat="45.77889" lon="-1.23731">
        <ele>62</ele>
        <time>2020-01-26T10:33:57Z</time>
      </trkpt>
      <trkpt lat="45.77889" lon="-1.23731">
        <ele>62</ele>
        <time>2020-01-26T10:33:58Z</time>
      </trkpt>
      <trkpt lat="45.77889" lon="-1.23731">
        <ele>62</ele>
        <time>2020-01-26T10:33:59Z</time>
      </trkpt>
      <trkpt lat="45.77889" lon="-1.23731">
        <ele>62</ele>
        <time>2020-01-26T10:34:00Z</time>
      </trkpt>
      <trkpt lat="45.77889" lon="-1.23731">
        <ele>62</ele>
        <time>2020-01-26T10:34:01Z</time>
      </trkpt>
      <trkpt lat="45.77889" lon="-1.23731">
        <ele>62</ele>
        <time>2020-01-26T10:34:02Z</time>
      </trkpt>
      <trkpt lat="45.77889" lon="-1.23731">
        <ele>62</ele>
        <time>2020-01-26T10:34:03Z</time>
      </trkpt>
      <trkpt lat="45.77889" lon="-1.23731">
        <ele>62</ele>
        <time>2020-01-26T10:34:04Z</time>
      </trkpt>
      <trkpt lat="45.77889" lon="-1.23731">
        <ele>62</ele>
        <time>2020-01-26T10:34:05Z</time>
      </trkpt>
      <trkpt lat="45.77889" lon="-1.23731">
        <ele>62</ele>
        <time>2020-01-26T10:34:06Z</time>
      </trkpt>
      <trkpt lat="45.77889" lon="-1.23731">
        <ele>62</ele>
        <time>2020-01-26T10:34:07Z</time>
      </trkpt>
      <trkpt lat="45.77889" lon="-1.23731">
        <ele>62</ele>
        <time>2020-01-26T10:34:08Z</time>
      </trkpt>
      <trkpt lat="45.77889" lon="-1.23731">
        <ele>62</ele>
        <time>2020-01-26T10:34:09Z</time>
      </trkpt>
      <trkpt lat="45.77889" lon="-1.23731">
        <ele>62</ele>
        <time>2020-01-26T10:34:10Z</time>
      </trkpt>
      <trkpt lat="45.77889" lon="-1.23731">
        <ele>62</ele>
        <time>2020-01-26T10:34:11Z</time>
      </trkpt>
      <trkpt lat="45.77889" lon="-1.23731">
        <ele>62</ele>
        <time>2020-01-26T10:34:12Z</time>
      </trkpt>
      <trkpt lat="45.77889" lon="-1.23731">
        <ele>62</ele>
        <time>2020-01-26T10:34:13Z</time>
      </trkpt>
      <trkpt lat="45.77889" lon="-1.23731">
        <ele>62</ele>
        <time>2020-01-26T10:34:14Z</time>
      </trkpt>
      <trkpt lat="45.77889" lon="-1.23731">
        <ele>62</ele>
        <time>2020-01-26T10:34:15Z</time>
      </trkpt>
      <trkpt lat="45.77889" lon="-1.23731">
        <ele>62</ele>
        <time>2020-01-26T10:34:16Z</time>
      </trkpt>
      <trkpt lat="45.77889" lon="-1.23731">
        <ele>62</ele>
        <time>2020-01-26T10:34:17Z</time>
      </trkpt>
      <trkpt lat="45.77889" lon="-1.23731">
        <ele>62</ele>
        <time>2020-01-26T10:34:18Z</time>
      </trkpt>
      <trkpt lat="45.77889" lon="-1.23731">
        <ele>62</ele>
        <time>2020-01-26T10:34:19Z</time>
      </trkpt>
      <trkpt lat="45.77889" lon="-1.23731">
        <ele>62</ele>
        <time>2020-01-26T10:34:20Z</time>
      </trkpt>
      <trkpt lat="45.77889" lon="-1.23731">
        <ele>62</ele>
        <time>2020-01-26T10:34:21Z</time>
      </trkpt>
      <trkpt lat="45.77889" lon="-1.23731">
        <ele>62</ele>
        <time>2020-01-26T10:34:22Z</time>
      </trkpt>
      <trkpt lat="45.77889" lon="-1.23731">
        <ele>62</ele>
        <time>2020-01-26T10:34:23Z</time>
      </trkpt>
      <trkpt lat="45.77889" lon="-1.23731">
        <ele>62</ele>
        <time>2020-01-26T10:34:24Z</time>
      </trkpt>
      <trkpt lat="45.77889" lon="-1.23731">
        <ele>62</ele>
        <time>2020-01-26T10:34:25Z</time>
      </trkpt>
      <trkpt lat="45.77889" lon="-1.23731">
        <ele>62</ele>
        <time>2020-01-26T10:34:26Z</time>
      </trkpt>
      <trkpt lat="45.77889" lon="-1.23731">
        <ele>62</ele>
        <time>2020-01-26T10:34:27Z</time>
      </trkpt>
      <trkpt lat="45.77889" lon="-1.23731">
        <ele>62</ele>
        <time>2020-01-26T10:34:28Z</time>
      </trkpt>
      <trkpt lat="45.77889" lon="-1.23731">
        <ele>62</ele>
        <time>2020-01-26T10:34:29Z</time>
      </trkpt>
      <trkpt lat="45.77889" lon="-1.23731">
        <ele>62</ele>
        <time>2020-01-26T10:34:30Z</time>
      </trkpt>
      <trkpt lat="45.77889" lon="-1.23731">
        <ele>62</ele>
        <time>2020-01-26T10:34:31Z</time>
      </trkpt>
      <trkpt lat="45.77889" lon="-1.23731">
        <ele>62</ele>
        <time>2020-01-26T10:34:32Z</time>
      </trkpt>
      <trkpt lat="45.77889" lon="-1.23731">
        <ele>62</ele>
        <time>2020-01-26T10:34:33Z</time>
      </trkpt>
      <trkpt lat="45.77889" lon="-1.23731">
        <ele>62</ele>
        <time>2020-01-26T10:34:34Z</time>
      </trkpt>
      <trkpt lat="45.77889" lon="-1.23731">
        <ele>62</ele>
        <time>2020-01-26T10:34:35Z</time>
      </trkpt>
      <trkpt lat="45.77889" lon="-1.23731">
        <ele>62</ele>
        <time>2020-01-26T10:34:36Z</time>
      </trkpt>
      <trkpt lat="45.77889" lon="-1.23731">
        <ele>62</ele>
        <time>2020-01-26T10:34:37Z</time>
      </trkpt>
      <trkpt lat="45.77889" lon="-1.23731">
        <ele>62</ele>
        <time>2020-01-26T10:34:38Z</time>
      </trkpt>
      <trkpt lat="45.77889" lon="-1.23731">
        <ele>62</ele>
        <time>2020-01-26T10:34:39Z</time>
      </trkpt>
      <trkpt lat="45.77889" lon="-1.23731">
        <ele>62</ele>
        <time>2020-01-26T10:34:40Z</time>
      </trkpt>
      <trkpt lat="45.77889" lon="-1.23731">
        <ele>62</ele>
        <time>2020-01-26T10:34:41Z</time>
      </trkpt>
      <trkpt lat="45.77889" lon="-1.23731">
        <ele>62</ele>
        <time>2020-01-26T10:34:42Z</time>
      </trkpt>
      <trkpt lat="45.77889" lon="-1.23731">
        <ele>62</ele>
        <time>2020-01-26T10:34:43Z</time>
      </trkpt>
      <trkpt lat="45.77889" lon="-1.23731">
        <ele>62</ele>
        <time>2020-01-26T10:34:44Z</time>
      </trkpt>
      <trkpt lat="45.77889" lon="-1.23731">
        <ele>62</ele>
        <time>2020-01-26T10:34:45Z</time>
      </trkpt>
      <trkpt lat="45.77889" lon="-1.23731">
        <ele>62</ele>
        <time>2020-01-26T10:34:46Z</time>
      </trkpt>
      <trkpt lat="45.77889" lon="-1.23731">
        <ele>62</ele>
        <time>2020-01-26T10:34:47Z</time>
      </trkpt>
      <trkpt lat="45.77889" lon="-1.23731">
        <ele>62</ele>
        <time>2020-01-26T10:34:48Z</time>
      </trkpt>
      <trkpt lat="45.77889" lon="-1.23731">
        <ele>62</ele>
        <time>2020-01-26T10:34:49Z</time>
      </trkpt>
      <trkpt lat="45.77889" lon="-1.23731">
        <ele>62</ele>
        <time>2020-01-26T10:34:50Z</time>
      </trkpt>
      <trkpt lat="45.77889" lon="-1.23731">
        <ele>62</ele>
        <time>2020-01-26T10:34:51Z</time>
      </trkpt>
      <trkpt lat="45.77889" lon="-1.23731">
        <ele>62</ele>
        <time>2020-01-26T10:34:52Z</time>
      </trkpt>
      <trkpt lat="45.77889" lon="-1.23731">
        <ele>62</ele>
        <time>2020-01-26T10:34:53Z</time>
      </trkpt>
      <trkpt lat="45.77889" lon="-1.23731">
        <ele>62</ele>
        <time>2020-01-26T10:34:54Z</time>
      </trkpt>
      <trkpt lat="45.77889" lon="-1.23731">
        <ele>62</ele>
        <time>2020-01-26T10:34:55Z</time>
      </trkpt>
      <trkpt lat="45.77889" lon="-1.23731">
        <ele>62</ele>
        <time>2020-01-26T10:34:56Z</time>
      </trkpt>
      <trkpt lat="45.77889" lon="-1.23731">
        <ele>62</ele>
        <time>2020-01-26T10:34:57Z</time>
      </trkpt>
      <trkpt lat="45.77889" lon="-1.23731">
        <ele>62</ele>
        <time>2020-01-26T10:34:58Z</time>
      </trkpt>
      <trkpt lat="45.77889" lon="-1.23731">
        <ele>62</ele>
        <time>2020-01-26T10:34:59Z</time>
      </trkpt>
      <trkpt lat="45.77889" lon="-1.23731">
        <ele>62</ele>
        <time>2020-01-26T10:35:00Z</time>
      </trkpt>
      <trkpt lat="45.77889" lon="-1.23731">
        <ele>62</ele>
        <time>2020-01-26T10:35:01Z</time>
      </trkpt>
      <trkpt lat="45.77889" lon="-1.23731">
        <ele>62</ele>
        <time>2020-01-26T10:35:02Z</time>
      </trkpt>
      <trkpt lat="45.77889" lon="-1.23731">
        <ele>62</ele>
        <time>2020-01-26T10:35:03Z</time>
      </trkpt>
      <trkpt lat="45.77889" lon="-1.23731">
        <ele>62</ele>
        <time>2020-01-26T10:35:04Z</time>
      </trkpt>
      <trkpt lat="45.77889" lon="-1.23731">
        <ele>62</ele>
        <time>2020-01-26T10:35:05Z</time>
      </trkpt>
      <trkpt lat="45.77889" lon="-1.23731">
        <ele>62</ele>
        <time>2020-01-26T10:35:06Z</time>
      </trkpt>
      <trkpt lat="45.77889" lon="-1.23731">
        <ele>62</ele>
        <time>2020-01-26T10:35:07Z</time>
      </trkpt>
      <trkpt lat="45.77889" lon="-1.23731">
        <ele>62</ele>
        <time>2020-01-26T10:35:08Z</time>
      </trkpt>
      <trkpt lat="45.77889" lon="-1.23731">
        <ele>62</ele>
        <time>2020-01-26T10:35:09Z</time>
      </trkpt>
      <trkpt lat="45.77889" lon="-1.23731">
        <ele>62</ele>
        <time>2020-01-26T10:35:10Z</time>
      </trkpt>
      <trkpt lat="45.77889" lon="-1.23731">
        <ele>62</ele>
        <time>2020-01-26T10:35:11Z</time>
      </trkpt>
      <trkpt lat="45.77889" lon="-1.23731">
        <ele>62</ele>
        <time>2020-01-26T10:35:12Z</time>
      </trkpt>
      <trkpt lat="45.77889" lon="-1.23731">
        <ele>62</ele>
        <time>2020-01-26T10:35:13Z</time>
      </trkpt>
      <trkpt lat="45.77889" lon="-1.23731">
        <ele>62</ele>
        <time>2020-01-26T10:35:14Z</time>
      </trkpt>
      <trkpt lat="45.77889" lon="-1.23731">
        <ele>62</ele>
        <time>2020-01-26T10:35:15Z</time>
      </trkpt>
      <trkpt lat="45.77889" lon="-1.23731">
        <ele>62</ele>
        <time>2020-01-26T10:35:16Z</time>
      </trkpt>
      <trkpt lat="45.77889" lon="-1.23731">
        <ele>62</ele>
        <time>2020-01-26T10:35:17Z</time>
      </trkpt>
      <trkpt lat="45.77889" lon="-1.23731">
        <ele>62</ele>
        <time>2020-01-26T10:35:18Z</time>
      </trkpt>
      <trkpt lat="45.77889" lon="-1.23731">
        <ele>62</ele>
        <time>2020-01-26T10:35:19Z</time>
      </trkpt>
      <trkpt lat="45.77889" lon="-1.23731">
        <ele>62</ele>
        <time>2020-01-26T10:35:20Z</time>
      </trkpt>
      <trkpt lat="45.77889" lon="-1.23731">
        <ele>62</ele>
        <time>2020-01-26T10:35:21Z</time>
      </trkpt>
      <trkpt lat="45.77889" lon="-1.23731">
        <ele>62</ele>
        <time>2020-01-26T10:35:22Z</time>
      </trkpt>
      <trkpt lat="45.77889" lon="-1.23731">
        <ele>62</ele>
        <time>2020-01-26T10:35:23Z</time>
      </trkpt>
      <trkpt lat="45.77889" lon="-1.23731">
        <ele>62</ele>
        <time>2020-01-26T10:35:24Z</time>
      </trkpt>
      <trkpt lat="45.77889" lon="-1.23731">
        <ele>62</ele>
        <time>2020-01-26T10:35:25Z</time>
      </trkpt>
      <trkpt lat="45.77889" lon="-1.23731">
        <ele>62</ele>
        <time>2020-01-26T10:35:26Z</time>
      </trkpt>
      <trkpt lat="45.77889" lon="-1.23731">
        <ele>62</ele>
        <time>2020-01-26T10:35:27Z</time>
      </trkpt>
      <trkpt lat="45.77889" lon="-1.23731">
        <ele>62</ele>
        <time>2020-01-26T10:35:28Z</time>
      </trkpt>
      <trkpt lat="45.77889" lon="-1.23731">
        <ele>62</ele>
        <time>2020-01-26T10:35:29Z</time>
      </trkpt>
      <trkpt lat="45.77889" lon="-1.23731">
        <ele>62</ele>
        <time>2020-01-26T10:35:30Z</time>
      </trkpt>
      <trkpt lat="45.77889" lon="-1.23731">
        <ele>62</ele>
        <time>2020-01-26T10:35:31Z</time>
      </trkpt>
      <trkpt lat="45.77889" lon="-1.23731">
        <ele>62</ele>
        <time>2020-01-26T10:35:32Z</time>
      </trkpt>
      <trkpt lat="45.77889" lon="-1.23731">
        <ele>62</ele>
        <time>2020-01-26T10:35:33Z</time>
      </trkpt>
      <trkpt lat="45.77889" lon="-1.23731">
        <ele>62</ele>
        <time>2020-01-26T10:35:34Z</time>
      </trkpt>
      <trkpt lat="45.77889" lon="-1.23731">
        <ele>62</ele>
        <time>2020-01-26T10:35:35Z</time>
      </trkpt>
      <trkpt lat="45.77889" lon="-1.23731">
        <ele>62</ele>
        <time>2020-01-26T10:35:36Z</time>
      </trkpt>
      <trkpt lat="45.77889" lon="-1.23731">
        <ele>62</ele>
        <time>2020-01-26T10:35:37Z</time>
      </trkpt>
      <trkpt lat="45.77889" lon="-1.23731">
        <ele>62</ele>
        <time>2020-01-26T10:35:38Z</time>
      </trkpt>
      <trkpt lat="45.77889" lon="-1.23731">
        <ele>62</ele>
        <time>2020-01-26T10:35:39Z</time>
      </trkpt>
      <trkpt lat="45.77889" lon="-1.23731">
        <ele>62</ele>
        <time>2020-01-26T10:35:40Z</time>
      </trkpt>
      <trkpt lat="45.77889" lon="-1.23731">
        <ele>62</ele>
        <time>2020-01-26T10:35:41Z</time>
      </trkpt>
      <trkpt lat="45.77889" lon="-1.23731">
        <ele>62</ele>
        <time>2020-01-26T10:35:42Z</time>
      </trkpt>
      <trkpt lat="45.77889" lon="-1.23731">
        <ele>62</ele>
        <time>2020-01-26T10:35:43Z</time>
      </trkpt>
      <trkpt lat="45.77889" lon="-1.23731">
        <ele>62</ele>
        <time>2020-01-26T10:35:44Z</time>
      </trkpt>
      <trkpt lat="45.77889" lon="-1.23731">
        <ele>62</ele>
        <time>2020-01-26T10:35:45Z</time>
      </trkpt>
      <trkpt lat="45.77889" lon="-1.23731">
        <ele>62</ele>
        <time>2020-01-26T10:35:46Z</time>
      </trkpt>
      <trkpt lat="45.77889" lon="-1.23731">
        <ele>62</ele>
        <time>2020-01-26T10:35:47Z</time>
      </trkpt>
      <trkpt lat="45.77889" lon="-1.23731">
        <ele>62</ele>
        <time>2020-01-26T10:35:48Z</time>
      </trkpt>
      <trkpt lat="45.77889" lon="-1.23731">
        <ele>62</ele>
        <time>2020-01-26T10:35:49Z</time>
      </trkpt>
      <trkpt lat="45.77889" lon="-1.23731">
        <ele>62</ele>
        <time>2020-01-26T10:35:50Z</time>
      </trkpt>
      <trkpt lat="45.77889" lon="-1.23731">
        <ele>62</ele>
        <time>2020-01-26T10:35:51Z</time>
      </trkpt>
      <trkpt lat="45.77889" lon="-1.23731">
        <ele>62</ele>
        <time>2020-01-26T10:35:52Z</time>
      </trkpt>
      <trkpt lat="45.77889" lon="-1.23731">
        <ele>62</ele>
        <time>2020-01-26T10:35:53Z</time>
      </trkpt>
      <trkpt lat="45.77889" lon="-1.23731">
        <ele>62</ele>
        <time>2020-01-26T10:35:54Z</time>
      </trkpt>
      <trkpt lat="45.77889" lon="-1.23731">
        <ele>62</ele>
        <time>2020-01-26T10:35:55Z</time>
      </trkpt>
      <trkpt lat="45.77889" lon="-1.23731">
        <ele>62</ele>
        <time>2020-01-26T10:35:56Z</time>
      </trkpt>
      <trkpt lat="45.77889" lon="-1.23731">
        <ele>62</ele>
        <time>2020-01-26T10:35:57Z</time>
      </trkpt>
      <trkpt lat="45.77889" lon="-1.23731">
        <ele>62</ele>
        <time>2020-01-26T10:35:58Z</time>
      </trkpt>
      <trkpt lat="45.77889" lon="-1.23731">
        <ele>62</ele>
        <time>2020-01-26T10:35:59Z</time>
      </trkpt>
      <trkpt lat="45.77889" lon="-1.23731">
        <ele>62</ele>
        <time>2020-01-26T10:36:00Z</time>
      </trkpt>
      <trkpt lat="45.77889" lon="-1.23731">
        <ele>62</ele>
        <time>2020-01-26T10:36:01Z</time>
      </trkpt>
      <trkpt lat="45.77889" lon="-1.23731">
        <ele>62</ele>
        <time>2020-01-26T10:36:02Z</time>
      </trkpt>
      <trkpt lat="45.77889" lon="-1.23731">
        <ele>62</ele>
        <time>2020-01-26T10:36:03Z</time>
      </trkpt>
      <trkpt lat="45.77889" lon="-1.23731">
        <ele>62</ele>
        <time>2020-01-26T10:36:04Z</time>
      </trkpt>
      <trkpt lat="45.77889" lon="-1.23731">
        <ele>62</ele>
        <time>2020-01-26T10:36:05Z</time>
      </trkpt>
      <trkpt lat="45.77889" lon="-1.23731">
        <ele>62</ele>
        <time>2020-01-26T10:36:06Z</time>
      </trkpt>
      <trkpt lat="45.77889" lon="-1.23731">
        <ele>62</ele>
        <time>2020-01-26T10:36:07Z</time>
      </trkpt>
      <trkpt lat="45.77889" lon="-1.23731">
        <ele>62</ele>
        <time>2020-01-26T10:36:08Z</time>
      </trkpt>
      <trkpt lat="45.77889" lon="-1.23731">
        <ele>62</ele>
        <time>2020-01-26T10:36:09Z</time>
      </trkpt>
      <trkpt lat="45.77889" lon="-1.23731">
        <ele>62</ele>
        <time>2020-01-26T10:36:10Z</time>
      </trkpt>
      <trkpt lat="45.77889" lon="-1.23731">
        <ele>62</ele>
        <time>2020-01-26T10:36:11Z</time>
      </trkpt>
      <trkpt lat="45.77889" lon="-1.23731">
        <ele>62</ele>
        <time>2020-01-26T10:36:12Z</time>
      </trkpt>
      <trkpt lat="45.77889" lon="-1.23731">
        <ele>62</ele>
        <time>2020-01-26T10:36:13Z</time>
      </trkpt>
      <trkpt lat="45.77889" lon="-1.23731">
        <ele>62</ele>
        <time>2020-01-26T10:36:14Z</time>
      </trkpt>
      <trkpt lat="45.77889" lon="-1.23731">
        <ele>62</ele>
        <time>2020-01-26T10:36:15Z</time>
      </trkpt>
      <trkpt lat="45.77889" lon="-1.23731">
        <ele>62</ele>
        <time>2020-01-26T10:36:16Z</time>
      </trkpt>
      <trkpt lat="45.77889" lon="-1.23731">
        <ele>62</ele>
        <time>2020-01-26T10:36:17Z</time>
      </trkpt>
      <trkpt lat="45.77889" lon="-1.23731">
        <ele>62</ele>
        <time>2020-01-26T10:36:18Z</time>
      </trkpt>
      <trkpt lat="45.77889" lon="-1.23731">
        <ele>62</ele>
        <time>2020-01-26T10:36:19Z</time>
      </trkpt>
      <trkpt lat="45.77889" lon="-1.23731">
        <ele>62</ele>
        <time>2020-01-26T10:36:20Z</time>
      </trkpt>
      <trkpt lat="45.77889" lon="-1.23731">
        <ele>62</ele>
        <time>2020-01-26T10:36:21Z</time>
      </trkpt>
      <trkpt lat="45.77889" lon="-1.23731">
        <ele>62</ele>
        <time>2020-01-26T10:36:22Z</time>
      </trkpt>
      <trkpt lat="45.77889" lon="-1.23731">
        <ele>62</ele>
        <time>2020-01-26T10:36:23Z</time>
      </trkpt>
      <trkpt lat="45.77889" lon="-1.23731">
        <ele>62</ele>
        <time>2020-01-26T10:36:24Z</time>
      </trkpt>
      <trkpt lat="45.77889" lon="-1.23731">
        <ele>62</ele>
        <time>2020-01-26T10:36:25Z</time>
      </trkpt>
      <trkpt lat="45.77889" lon="-1.23731">
        <ele>62</ele>
        <time>2020-01-26T10:36:26Z</time>
      </trkpt>
      <trkpt lat="45.77889" lon="-1.23731">
        <ele>62</ele>
        <time>2020-01-26T10:36:27Z</time>
      </trkpt>
      <trkpt lat="45.77889" lon="-1.23731">
        <ele>62</ele>
        <time>2020-01-26T10:36:28Z</time>
      </trkpt>
      <trkpt lat="45.77889" lon="-1.23731">
        <ele>62</ele>
        <time>2020-01-26T10:36:29Z</time>
      </trkpt>
      <trkpt lat="45.77889" lon="-1.23731">
        <ele>62</ele>
        <time>2020-01-26T10:36:30Z</time>
      </trkpt>
      <trkpt lat="45.77889" lon="-1.23731">
        <ele>62</ele>
        <time>2020-01-26T10:36:31Z</time>
      </trkpt>
      <trkpt lat="45.77889" lon="-1.23731">
        <ele>62</ele>
        <time>2020-01-26T10:36:32Z</time>
      </trkpt>
      <trkpt lat="45.77889" lon="-1.23731">
        <ele>62</ele>
        <time>2020-01-26T10:36:33Z</time>
      </trkpt>
      <trkpt lat="45.77889" lon="-1.23731">
        <ele>62</ele>
        <time>2020-01-26T10:36:34Z</time>
      </trkpt>
      <trkpt lat="45.77889" lon="-1.23731">
        <ele>62</ele>
        <time>2020-01-26T10:36:35Z</time>
      </trkpt>
      <trkpt lat="45.77889" lon="-1.23731">
        <ele>62</ele>
        <time>2020-01-26T10:36:36Z</time>
      </trkpt>
      <trkpt lat="45.77889" lon="-1.23731">
        <ele>62</ele>
        <time>2020-01-26T10:36:37Z</time>
      </trkpt>
      <trkpt lat="45.77889" lon="-1.23731">
        <ele>62</ele>
        <time>2020-01-26T10:36:38Z</time>
      </trkpt>
      <trkpt lat="45.77889" lon="-1.23731">
        <ele>62</ele>
        <time>2020-01-26T10:36:39Z</time>
      </trkpt>
      <trkpt lat="45.77889" lon="-1.23731">
        <ele>62</ele>
        <time>2020-01-26T10:36:40Z</time>
      </trkpt>
      <trkpt lat="45.77889" lon="-1.23731">
        <ele>62</ele>
        <time>2020-01-26T10:36:41Z</time>
      </trkpt>
      <trkpt lat="45.77889" lon="-1.23731">
        <ele>62</ele>
        <time>2020-01-26T10:36:42Z</time>
      </trkpt>
      <trkpt lat="45.77889" lon="-1.23731">
        <ele>62</ele>
        <time>2020-01-26T10:36:43Z</time>
      </trkpt>
      <trkpt lat="45.77889" lon="-1.23731">
        <ele>62</ele>
        <time>2020-01-26T10:36:44Z</time>
      </trkpt>
      <trkpt lat="45.77889" lon="-1.23731">
        <ele>62</ele>
        <time>2020-01-26T10:36:45Z</time>
      </trkpt>
      <trkpt lat="45.77889" lon="-1.23731">
        <ele>62</ele>
        <time>2020-01-26T10:36:46Z</time>
      </trkpt>
      <trkpt lat="45.77889" lon="-1.23731">
        <ele>62</ele>
        <time>2020-01-26T10:36:47Z</time>
      </trkpt>
      <trkpt lat="45.77889" lon="-1.23731">
        <ele>62</ele>
        <time>2020-01-26T10:36:48Z</time>
      </trkpt>
      <trkpt lat="45.77889" lon="-1.23731">
        <ele>62</ele>
        <time>2020-01-26T10:36:49Z</time>
      </trkpt>
      <trkpt lat="45.77889" lon="-1.23731">
        <ele>62</ele>
        <time>2020-01-26T10:36:50Z</time>
      </trkpt>
      <trkpt lat="45.77889" lon="-1.23731">
        <ele>62</ele>
        <time>2020-01-26T10:36:51Z</time>
      </trkpt>
      <trkpt lat="45.77889" lon="-1.23731">
        <ele>61.8</ele>
        <time>2020-01-26T10:36:52Z</time>
      </trkpt>
      <trkpt lat="45.7789" lon="-1.23731">
        <ele>61.6</ele>
        <time>2020-01-26T10:36:53Z</time>
      </trkpt>
      <trkpt lat="45.7789" lon="-1.23731">
        <ele>61.6</ele>
        <time>2020-01-26T10:36:54Z</time>
      </trkpt>
      <trkpt lat="45.7789" lon="-1.23731">
        <ele>61.8</ele>
        <time>2020-01-26T10:36:55Z</time>
      </trkpt>
      <trkpt lat="45.7789" lon="-1.23731">
        <ele>61.8</ele>
        <time>2020-01-26T10:36:56Z</time>
      </trkpt>
      <trkpt lat="45.7789" lon="-1.2373">
        <ele>61.8</ele>
        <time>2020-01-26T10:36:57Z</time>
      </trkpt>
      <trkpt lat="45.7789" lon="-1.2373">
        <ele>61.8</ele>
        <time>2020-01-26T10:36:58Z</time>
      </trkpt>
      <trkpt lat="45.7789" lon="-1.2373">
        <ele>62</ele>
        <time>2020-01-26T10:36:59Z</time>
      </trkpt>
      <trkpt lat="45.7789" lon="-1.2373">
        <ele>62</ele>
        <time>2020-01-26T10:37:00Z</time>
      </trkpt>
      <trkpt lat="45.7789" lon="-1.2373">
        <ele>62</ele>
        <time>2020-01-26T10:37:01Z</time>
      </trkpt>
      <trkpt lat="45.7789" lon="-1.2373">
        <ele>62</ele>
        <time>2020-01-26T10:37:02Z</time>
      </trkpt>
      <trkpt lat="45.7789" lon="-1.2373">
        <ele>62</ele>
        <time>2020-01-26T10:37:03Z</time>
      </trkpt>
      <trkpt lat="45.7789" lon="-1.2373">
        <ele>62</ele>
        <time>2020-01-26T10:37:04Z</time>
      </trkpt>
      <trkpt lat="45.7789" lon="-1.2373">
        <ele>62</ele>
        <time>2020-01-26T10:37:05Z</time>
      </trkpt>
      <trkpt lat="45.7789" lon="-1.2373">
        <ele>62</ele>
        <time>2020-01-26T10:37:06Z</time>
      </trkpt>
      <trkpt lat="45.7789" lon="-1.2373">
        <ele>62</ele>
        <time>2020-01-26T10:37:07Z</time>
      </trkpt>
      <trkpt lat="45.7789" lon="-1.2373">
        <ele>62</ele>
        <time>2020-01-26T10:37:08Z</time>
      </trkpt>
      <trkpt lat="45.7789" lon="-1.2373">
        <ele>62</ele>
        <time>2020-01-26T10:37:09Z</time>
      </trkpt>
      <trkpt lat="45.7789" lon="-1.2373">
        <ele>62</ele>
        <time>2020-01-26T10:37:10Z</time>
      </trkpt>
      <trkpt lat="45.7789" lon="-1.2373">
        <ele>62</ele>
        <time>2020-01-26T10:37:11Z</time>
      </trkpt>
      <trkpt lat="45.7789" lon="-1.2373">
        <ele>62</ele>
        <time>2020-01-26T10:37:12Z</time>
      </trkpt>
      <trkpt lat="45.7789" lon="-1.2373">
        <ele>62</ele>
        <time>2020-01-26T10:37:13Z</time>
      </trkpt>
      <trkpt lat="45.7789" lon="-1.2373">
        <ele>62</ele>
        <time>2020-01-26T10:37:14Z</time>
      </trkpt>
      <trkpt lat="45.7789" lon="-1.2373">
        <ele>62</ele>
        <time>2020-01-26T10:37:15Z</time>
      </trkpt>
      <trkpt lat="45.7789" lon="-1.2373">
        <ele>62</ele>
        <time>2020-01-26T10:37:16Z</time>
      </trkpt>
      <trkpt lat="45.7789" lon="-1.2373">
        <ele>62</ele>
        <time>2020-01-26T10:37:17Z</time>
      </trkpt>
      <trkpt lat="45.7789" lon="-1.2373">
        <ele>62</ele>
        <time>2020-01-26T10:37:18Z</time>
      </trkpt>
      <trkpt lat="45.7789" lon="-1.2373">
        <ele>62</ele>
        <time>2020-01-26T10:37:19Z</time>
      </trkpt>
      <trkpt lat="45.7789" lon="-1.2373">
        <ele>62</ele>
        <time>2020-01-26T10:37:20Z</time>
      </trkpt>
      <trkpt lat="45.7789" lon="-1.2373">
        <ele>62</ele>
        <time>2020-01-26T10:37:21Z</time>
      </trkpt>
      <trkpt lat="45.7789" lon="-1.2373">
        <ele>62</ele>
        <time>2020-01-26T10:37:22Z</time>
      </trkpt>
      <trkpt lat="45.7789" lon="-1.2373">
        <ele>62</ele>
        <time>2020-01-26T10:37:23Z</time>
      </trkpt>
      <trkpt lat="45.7789" lon="-1.2373">
        <ele>62</ele>
        <time>2020-01-26T10:37:24Z</time>
      </trkpt>
      <trkpt lat="45.7789" lon="-1.2373">
        <ele>62</ele>
        <time>2020-01-26T10:37:25Z</time>
      </trkpt>
      <trkpt lat="45.77889" lon="-1.2373">
        <ele>62</ele>
        <time>2020-01-26T10:37:26Z</time>
      </trkpt>
      <trkpt lat="45.77889" lon="-1.2373">
        <ele>62.2</ele>
        <time>2020-01-26T10:37:27Z</time>
      </trkpt>
      <trkpt lat="45.77888" lon="-1.2373">
        <ele>62.4</ele>
        <time>2020-01-26T10:37:28Z</time>
      </trkpt>
      <trkpt lat="45.77888" lon="-1.2373">
        <ele>62.6</ele>
        <time>2020-01-26T10:37:29Z</time>
      </trkpt>
      <trkpt lat="45.77888" lon="-1.2373">
        <ele>62.6</ele>
        <time>2020-01-26T10:37:30Z</time>
      </trkpt>
      <trkpt lat="45.77888" lon="-1.2373">
        <ele>62.8</ele>
        <time>2020-01-26T10:37:31Z</time>
      </trkpt>
      <trkpt lat="45.77887" lon="-1.2373">
        <ele>62.8</ele>
        <time>2020-01-26T10:37:32Z</time>
      </trkpt>
      <trkpt lat="45.77887" lon="-1.2373">
        <ele>62.8</ele>
        <time>2020-01-26T10:37:33Z</time>
      </trkpt>
      <trkpt lat="45.77887" lon="-1.2373">
        <ele>63</ele>
        <time>2020-01-26T10:37:34Z</time>
      </trkpt>
      <trkpt lat="45.77887" lon="-1.2373">
        <ele>63</ele>
        <time>2020-01-26T10:37:35Z</time>
      </trkpt>
      <trkpt lat="45.77888" lon="-1.2373">
        <ele>63</ele>
        <time>2020-01-26T10:37:36Z</time>
      </trkpt>
      <trkpt lat="45.77888" lon="-1.2373">
        <ele>63</ele>
        <time>2020-01-26T10:37:37Z</time>
      </trkpt>
      <trkpt lat="45.77888" lon="-1.2373">
        <ele>63</ele>
        <time>2020-01-26T10:37:38Z</time>
      </trkpt>
      <trkpt lat="45.77888" lon="-1.2373">
        <ele>63</ele>
        <time>2020-01-26T10:37:39Z</time>
      </trkpt>
      <trkpt lat="45.77888" lon="-1.2373">
        <ele>63</ele>
        <time>2020-01-26T10:37:40Z</time>
      </trkpt>
      <trkpt lat="45.77888" lon="-1.2373">
        <ele>63</ele>
        <time>2020-01-26T10:37:41Z</time>
      </trkpt>
      <trkpt lat="45.77888" lon="-1.2373">
        <ele>63</ele>
        <time>2020-01-26T10:37:42Z</time>
      </trkpt>
      <trkpt lat="45.77888" lon="-1.2373">
        <ele>63</ele>
        <time>2020-01-26T10:37:43Z</time>
      </trkpt>
      <trkpt lat="45.77888" lon="-1.2373">
        <ele>63.2</ele>
        <time>2020-01-26T10:37:44Z</time>
      </trkpt>
      <trkpt lat="45.77888" lon="-1.2373">
        <ele>63.4</ele>
        <time>2020-01-26T10:37:45Z</time>
      </trkpt>
      <trkpt lat="45.77888" lon="-1.2373">
        <ele>63.4</ele>
        <time>2020-01-26T10:37:46Z</time>
      </trkpt>
      <trkpt lat="45.77888" lon="-1.2373">
        <ele>63.2</ele>
        <time>2020-01-26T10:37:47Z</time>
      </trkpt>
      <trkpt lat="45.77888" lon="-1.2373">
        <ele>63.2</ele>
        <time>2020-01-26T10:37:48Z</time>
      </trkpt>
      <trkpt lat="45.77888" lon="-1.2373">
        <ele>63.2</ele>
        <time>2020-01-26T10:37:49Z</time>
      </trkpt>
      <trkpt lat="45.77888" lon="-1.2373">
        <ele>63.2</ele>
        <time>2020-01-26T10:37:50Z</time>
      </trkpt>
      <trkpt lat="45.77888" lon="-1.2373">
        <ele>63</ele>
        <time>2020-01-26T10:37:51Z</time>
      </trkpt>
      <trkpt lat="45.77888" lon="-1.2373">
        <ele>63</ele>
        <time>2020-01-26T10:37:52Z</time>
      </trkpt>
      <trkpt lat="45.77888" lon="-1.2373">
        <ele>63</ele>
        <time>2020-01-26T10:37:53Z</time>
      </trkpt>
      <trkpt lat="45.77888" lon="-1.2373">
        <ele>63</ele>
        <time>2020-01-26T10:37:54Z</time>
      </trkpt>
      <trkpt lat="45.77888" lon="-1.2373">
        <ele>63</ele>
        <time>2020-01-26T10:37:55Z</time>
      </trkpt>
      <trkpt lat="45.77888" lon="-1.2373">
        <ele>63</ele>
        <time>2020-01-26T10:37:56Z</time>
      </trkpt>
      <trkpt lat="45.77888" lon="-1.2373">
        <ele>63</ele>
        <time>2020-01-26T10:37:57Z</time>
      </trkpt>
      <trkpt lat="45.77888" lon="-1.2373">
        <ele>63.2</ele>
        <time>2020-01-26T10:37:58Z</time>
      </trkpt>
      <trkpt lat="45.77888" lon="-1.2373">
        <ele>63.4</ele>
        <time>2020-01-26T10:37:59Z</time>
      </trkpt>
      <trkpt lat="45.77888" lon="-1.2373">
        <ele>63.6</ele>
        <time>2020-01-26T10:38:00Z</time>
      </trkpt>
      <trkpt lat="45.77888" lon="-1.2373">
        <ele>63.6</ele>
        <time>2020-01-26T10:38:01Z</time>
      </trkpt>
      <trkpt lat="45.77888" lon="-1.2373">
        <ele>63.8</ele>
        <time>2020-01-26T10:38:02Z</time>
      </trkpt>
      <trkpt lat="45.77888" lon="-1.2373">
        <ele>63.6</ele>
        <time>2020-01-26T10:38:03Z</time>
      </trkpt>
      <trkpt lat="45.77888" lon="-1.2373">
        <ele>63.4</ele>
        <time>2020-01-26T10:38:04Z</time>
      </trkpt>
      <trkpt lat="45.77888" lon="-1.2373">
        <ele>63.4</ele>
        <time>2020-01-26T10:38:05Z</time>
      </trkpt>
      <trkpt lat="45.77888" lon="-1.2373">
        <ele>63.2</ele>
        <time>2020-01-26T10:38:06Z</time>
      </trkpt>
      <trkpt lat="45.77888" lon="-1.2373">
        <ele>63.2</ele>
        <time>2020-01-26T10:38:07Z</time>
      </trkpt>
      <trkpt lat="45.77888" lon="-1.2373">
        <ele>63.2</ele>
        <time>2020-01-26T10:38:08Z</time>
      </trkpt>
      <trkpt lat="45.77888" lon="-1.2373">
        <ele>63</ele>
        <time>2020-01-26T10:38:09Z</time>
      </trkpt>
      <trkpt lat="45.77888" lon="-1.2373">
        <ele>63</ele>
        <time>2020-01-26T10:38:10Z</time>
      </trkpt>
      <trkpt lat="45.77888" lon="-1.2373">
        <ele>63</ele>
        <time>2020-01-26T10:38:11Z</time>
      </trkpt>
      <trkpt lat="45.77888" lon="-1.2373">
        <ele>63</ele>
        <time>2020-01-26T10:38:12Z</time>
      </trkpt>
      <trkpt lat="45.77888" lon="-1.2373">
        <ele>63</ele>
        <time>2020-01-26T10:38:13Z</time>
      </trkpt>
      <trkpt lat="45.77888" lon="-1.2373">
        <ele>63</ele>
        <time>2020-01-26T10:38:14Z</time>
      </trkpt>
      <trkpt lat="45.77888" lon="-1.2373">
        <ele>63</ele>
        <time>2020-01-26T10:38:15Z</time>
      </trkpt>
      <trkpt lat="45.77888" lon="-1.2373">
        <ele>63</ele>
        <time>2020-01-26T10:38:16Z</time>
      </trkpt>
      <trkpt lat="45.77888" lon="-1.2373">
        <ele>63</ele>
        <time>2020-01-26T10:38:17Z</time>
      </trkpt>
      <trkpt lat="45.77888" lon="-1.2373">
        <ele>63</ele>
        <time>2020-01-26T10:38:18Z</time>
      </trkpt>
      <trkpt lat="45.77888" lon="-1.2373">
        <ele>63</ele>
        <time>2020-01-26T10:38:19Z</time>
      </trkpt>
      <trkpt lat="45.77888" lon="-1.2373">
        <ele>63</ele>
        <time>2020-01-26T10:38:20Z</time>
      </trkpt>
      <trkpt lat="45.77888" lon="-1.2373">
        <ele>63</ele>
        <time>2020-01-26T10:38:21Z</time>
      </trkpt>
      <trkpt lat="45.77888" lon="-1.2373">
        <ele>63</ele>
        <time>2020-01-26T10:38:22Z</time>
      </trkpt>
      <trkpt lat="45.77888" lon="-1.2373">
        <ele>63</ele>
        <time>2020-01-26T10:38:23Z</time>
      </trkpt>
      <trkpt lat="45.77888" lon="-1.2373">
        <ele>63</ele>
        <time>2020-01-26T10:38:24Z</time>
      </trkpt>
      <trkpt lat="45.77888" lon="-1.2373">
        <ele>63</ele>
        <time>2020-01-26T10:38:25Z</time>
      </trkpt>
      <trkpt lat="45.77888" lon="-1.2373">
        <ele>63</ele>
        <time>2020-01-26T10:38:26Z</time>
      </trkpt>
      <trkpt lat="45.77888" lon="-1.2373">
        <ele>63</ele>
        <time>2020-01-26T10:38:27Z</time>
      </trkpt>
      <trkpt lat="45.77888" lon="-1.2373">
        <ele>63</ele>
        <time>2020-01-26T10:38:28Z</time>
      </trkpt>
      <trkpt lat="45.77888" lon="-1.2373">
        <ele>63</ele>
        <time>2020-01-26T10:38:29Z</time>
      </trkpt>
      <trkpt lat="45.77888" lon="-1.2373">
        <ele>63</ele>
        <time>2020-01-26T10:38:30Z</time>
      </trkpt>
      <trkpt lat="45.77888" lon="-1.2373">
        <ele>63</ele>
        <time>2020-01-26T10:38:31Z</time>
      </trkpt>
      <trkpt lat="45.77886" lon="-1.23729">
        <ele>62.4</ele>
        <time>2020-01-26T10:38:32Z</time>
      </trkpt>
      <trkpt lat="45.77886" lon="-1.23729">
        <ele>62.2</ele>
        <time>2020-01-26T10:38:33Z</time>
      </trkpt>
      <trkpt lat="45.77886" lon="-1.23729">
        <ele>61.8</ele>
        <time>2020-01-26T10:38:34Z</time>
      </trkpt>
      <trkpt lat="45.77885" lon="-1.23729">
        <ele>61.4</ele>
        <time>2020-01-26T10:38:35Z</time>
      </trkpt>
      <trkpt lat="45.77885" lon="-1.23729">
        <ele>61.2</ele>
        <time>2020-01-26T10:38:36Z</time>
      </trkpt>
      <trkpt lat="45.77885" lon="-1.23729">
        <ele>61.2</ele>
        <time>2020-01-26T10:38:37Z</time>
      </trkpt>
      <trkpt lat="45.77885" lon="-1.23729">
        <ele>61.2</ele>
        <time>2020-01-26T10:38:38Z</time>
      </trkpt>
      <trkpt lat="45.77885" lon="-1.23729">
        <ele>61.2</ele>
        <time>2020-01-26T10:38:39Z</time>
      </trkpt>
      <trkpt lat="45.77885" lon="-1.23729">
        <ele>61</ele>
        <time>2020-01-26T10:38:40Z</time>
      </trkpt>
      <trkpt lat="45.77885" lon="-1.23729">
        <ele>61</ele>
        <time>2020-01-26T10:38:41Z</time>
      </trkpt>
      <trkpt lat="45.77885" lon="-1.23729">
        <ele>61</ele>
        <time>2020-01-26T10:38:42Z</time>
      </trkpt>
      <trkpt lat="45.77885" lon="-1.23729">
        <ele>61</ele>
        <time>2020-01-26T10:38:43Z</time>
      </trkpt>
      <trkpt lat="45.77885" lon="-1.23729">
        <ele>61</ele>
        <time>2020-01-26T10:38:44Z</time>
      </trkpt>
      <trkpt lat="45.77885" lon="-1.23729">
        <ele>61</ele>
        <time>2020-01-26T10:38:45Z</time>
      </trkpt>
      <trkpt lat="45.77885" lon="-1.23729">
        <ele>61</ele>
        <time>2020-01-26T10:38:46Z</time>
      </trkpt>
      <trkpt lat="45.77885" lon="-1.23729">
        <ele>61</ele>
        <time>2020-01-26T10:38:47Z</time>
      </trkpt>
      <trkpt lat="45.77885" lon="-1.23729">
        <ele>61</ele>
        <time>2020-01-26T10:38:48Z</time>
      </trkpt>
      <trkpt lat="45.77885" lon="-1.23729">
        <ele>61</ele>
        <time>2020-01-26T10:38:49Z</time>
      </trkpt>
      <trkpt lat="45.77885" lon="-1.23729">
        <ele>61</ele>
        <time>2020-01-26T10:38:50Z</time>
      </trkpt>
      <trkpt lat="45.77885" lon="-1.23729">
        <ele>61</ele>
        <time>2020-01-26T10:38:51Z</time>
      </trkpt>
      <trkpt lat="45.77885" lon="-1.23729">
        <ele>61</ele>
        <time>2020-01-26T10:38:52Z</time>
      </trkpt>
      <trkpt lat="45.77885" lon="-1.23729">
        <ele>61</ele>
        <time>2020-01-26T10:38:53Z</time>
      </trkpt>
      <trkpt lat="45.77885" lon="-1.23729">
        <ele>61</ele>
        <time>2020-01-26T10:38:54Z</time>
      </trkpt>
      <trkpt lat="45.77885" lon="-1.23729">
        <ele>61</ele>
        <time>2020-01-26T10:38:55Z</time>
      </trkpt>
      <trkpt lat="45.77885" lon="-1.23729">
        <ele>61</ele>
        <time>2020-01-26T10:38:56Z</time>
      </trkpt>
      <trkpt lat="45.77885" lon="-1.23729">
        <ele>61</ele>
        <time>2020-01-26T10:38:57Z</time>
      </trkpt>
      <trkpt lat="45.77885" lon="-1.23729">
        <ele>61</ele>
        <time>2020-01-26T10:38:58Z</time>
      </trkpt>
      <trkpt lat="45.77885" lon="-1.23729">
        <ele>61</ele>
        <time>2020-01-26T10:38:59Z</time>
      </trkpt>
      <trkpt lat="45.77885" lon="-1.23729">
        <ele>61</ele>
        <time>2020-01-26T10:39:00Z</time>
      </trkpt>
      <trkpt lat="45.77885" lon="-1.23728">
        <ele>61</ele>
        <time>2020-01-26T10:39:01Z</time>
      </trkpt>
      <trkpt lat="45.77885" lon="-1.23728">
        <ele>61</ele>
        <time>2020-01-26T10:39:02Z</time>
      </trkpt>
      <trkpt lat="45.77885" lon="-1.23728">
        <ele>61</ele>
        <time>2020-01-26T10:39:03Z</time>
      </trkpt>
      <trkpt lat="45.77885" lon="-1.23728">
        <ele>61</ele>
        <time>2020-01-26T10:39:04Z</time>
      </trkpt>
      <trkpt lat="45.77885" lon="-1.23728">
        <ele>60.8</ele>
        <time>2020-01-26T10:39:05Z</time>
      </trkpt>
      <trkpt lat="45.77885" lon="-1.23728">
        <ele>60.6</ele>
        <time>2020-01-26T10:39:06Z</time>
      </trkpt>
      <trkpt lat="45.77885" lon="-1.23728">
        <ele>60.4</ele>
        <time>2020-01-26T10:39:07Z</time>
      </trkpt>
      <trkpt lat="45.77885" lon="-1.23728">
        <ele>60</ele>
        <time>2020-01-26T10:39:08Z</time>
      </trkpt>
      <trkpt lat="45.77885" lon="-1.23728">
        <ele>59.8</ele>
        <time>2020-01-26T10:39:09Z</time>
      </trkpt>
      <trkpt lat="45.77885" lon="-1.23728">
        <ele>59.6</ele>
        <time>2020-01-26T10:39:10Z</time>
      </trkpt>
      <trkpt lat="45.77885" lon="-1.23728">
        <ele>59.4</ele>
        <time>2020-01-26T10:39:11Z</time>
      </trkpt>
      <trkpt lat="45.77885" lon="-1.23728">
        <ele>59.4</ele>
        <time>2020-01-26T10:39:12Z</time>
      </trkpt>
      <trkpt lat="45.77885" lon="-1.23728">
        <ele>59.2</ele>
        <time>2020-01-26T10:39:13Z</time>
      </trkpt>
      <trkpt lat="45.77885" lon="-1.23728">
        <ele>59.2</ele>
        <time>2020-01-26T10:39:14Z</time>
      </trkpt>
      <trkpt lat="45.77885" lon="-1.23728">
        <ele>59.2</ele>
        <time>2020-01-26T10:39:15Z</time>
      </trkpt>
      <trkpt lat="45.77885" lon="-1.23728">
        <ele>59.2</ele>
        <time>2020-01-26T10:39:16Z</time>
      </trkpt>
      <trkpt lat="45.77885" lon="-1.23728">
        <ele>59</ele>
        <time>2020-01-26T10:39:17Z</time>
      </trkpt>
      <trkpt lat="45.77885" lon="-1.23728">
        <ele>59</ele>
        <time>2020-01-26T10:39:18Z</time>
      </trkpt>
      <trkpt lat="45.77885" lon="-1.23728">
        <ele>59</ele>
        <time>2020-01-26T10:39:19Z</time>
      </trkpt>
      <trkpt lat="45.77885" lon="-1.23728">
        <ele>59</ele>
        <time>2020-01-26T10:39:20Z</time>
      </trkpt>
      <trkpt lat="45.77885" lon="-1.23728">
        <ele>59</ele>
        <time>2020-01-26T10:39:21Z</time>
      </trkpt>
      <trkpt lat="45.77885" lon="-1.23728">
        <ele>59</ele>
        <time>2020-01-26T10:39:22Z</time>
      </trkpt>
      <trkpt lat="45.77885" lon="-1.23728">
        <ele>59</ele>
        <time>2020-01-26T10:39:23Z</time>
      </trkpt>
      <trkpt lat="45.77885" lon="-1.23728">
        <ele>59</ele>
        <time>2020-01-26T10:39:24Z</time>
      </trkpt>
      <trkpt lat="45.77885" lon="-1.23728">
        <ele>59</ele>
        <time>2020-01-26T10:39:25Z</time>
      </trkpt>
      <trkpt lat="45.77885" lon="-1.23728">
        <ele>59</ele>
        <time>2020-01-26T10:39:26Z</time>
      </trkpt>
      <trkpt lat="45.77885" lon="-1.23728">
        <ele>59</ele>
        <time>2020-01-26T10:39:27Z</time>
      </trkpt>
      <trkpt lat="45.77885" lon="-1.23728">
        <ele>59</ele>
        <time>2020-01-26T10:39:28Z</time>
      </trkpt>
      <trkpt lat="45.77885" lon="-1.23728">
        <ele>59</ele>
        <time>2020-01-26T10:39:29Z</time>
      </trkpt>
      <trkpt lat="45.77885" lon="-1.23728">
        <ele>59</ele>
        <time>2020-01-26T10:39:30Z</time>
      </trkpt>
      <trkpt lat="45.77885" lon="-1.23728">
        <ele>59</ele>
        <time>2020-01-26T10:39:31Z</time>
      </trkpt>
      <trkpt lat="45.77885" lon="-1.23728">
        <ele>59</ele>
        <time>2020-01-26T10:39:32Z</time>
      </trkpt>
      <trkpt lat="45.77885" lon="-1.23728">
        <ele>59</ele>
        <time>2020-01-26T10:39:33Z</time>
      </trkpt>
      <trkpt lat="45.77885" lon="-1.23728">
        <ele>59</ele>
        <time>2020-01-26T10:39:34Z</time>
      </trkpt>
      <trkpt lat="45.77885" lon="-1.23728">
        <ele>59</ele>
        <time>2020-01-26T10:39:35Z</time>
      </trkpt>
      <trkpt lat="45.77885" lon="-1.23728">
        <ele>59</ele>
        <time>2020-01-26T10:39:36Z</time>
      </trkpt>
      <trkpt lat="45.77885" lon="-1.23728">
        <ele>59</ele>
        <time>2020-01-26T10:39:37Z</time>
      </trkpt>
      <trkpt lat="45.77885" lon="-1.23728">
        <ele>59</ele>
        <time>2020-01-26T10:39:38Z</time>
      </trkpt>
      <trkpt lat="45.77885" lon="-1.23728">
        <ele>59</ele>
        <time>2020-01-26T10:39:39Z</time>
      </trkpt>
      <trkpt lat="45.77885" lon="-1.23728">
        <ele>59</ele>
        <time>2020-01-26T10:39:40Z</time>
      </trkpt>
      <trkpt lat="45.77885" lon="-1.23728">
        <ele>59</ele>
        <time>2020-01-26T10:39:41Z</time>
      </trkpt>
      <trkpt lat="45.77885" lon="-1.23728">
        <ele>59</ele>
        <time>2020-01-26T10:39:42Z</time>
      </trkpt>
      <trkpt lat="45.77885" lon="-1.23728">
        <ele>59</ele>
        <time>2020-01-26T10:39:43Z</time>
      </trkpt>
      <trkpt lat="45.77885" lon="-1.23728">
        <ele>59</ele>
        <time>2020-01-26T10:39:44Z</time>
      </trkpt>
      <trkpt lat="45.77885" lon="-1.23728">
        <ele>59</ele>
        <time>2020-01-26T10:39:45Z</time>
      </trkpt>
      <trkpt lat="45.77885" lon="-1.23728">
        <ele>59</ele>
        <time>2020-01-26T10:39:46Z</time>
      </trkpt>
      <trkpt lat="45.77885" lon="-1.23728">
        <ele>59</ele>
        <time>2020-01-26T10:39:47Z</time>
      </trkpt>
      <trkpt lat="45.77885" lon="-1.23728">
        <ele>59</ele>
        <time>2020-01-26T10:39:48Z</time>
      </trkpt>
      <trkpt lat="45.77885" lon="-1.23728">
        <ele>59</ele>
        <time>2020-01-26T10:39:49Z</time>
      </trkpt>
      <trkpt lat="45.77885" lon="-1.23728">
        <ele>59</ele>
        <time>2020-01-26T10:39:50Z</time>
      </trkpt>
      <trkpt lat="45.77885" lon="-1.23728">
        <ele>59</ele>
        <time>2020-01-26T10:39:51Z</time>
      </trkpt>
      <trkpt lat="45.77885" lon="-1.23728">
        <ele>59</ele>
        <time>2020-01-26T10:39:52Z</time>
      </trkpt>
      <trkpt lat="45.77885" lon="-1.23728">
        <ele>59</ele>
        <time>2020-01-26T10:39:53Z</time>
      </trkpt>
      <trkpt lat="45.77885" lon="-1.23728">
        <ele>59</ele>
        <time>2020-01-26T10:39:54Z</time>
      </trkpt>
      <trkpt lat="45.77885" lon="-1.23728">
        <ele>59</ele>
        <time>2020-01-26T10:39:55Z</time>
      </trkpt>
      <trkpt lat="45.77885" lon="-1.23728">
        <ele>59</ele>
        <time>2020-01-26T10:39:56Z</time>
      </trkpt>
      <trkpt lat="45.77885" lon="-1.23728">
        <ele>59</ele>
        <time>2020-01-26T10:39:57Z</time>
      </trkpt>
      <trkpt lat="45.77885" lon="-1.23728">
        <ele>59</ele>
        <time>2020-01-26T10:39:58Z</time>
      </trkpt>
      <trkpt lat="45.77885" lon="-1.23728">
        <ele>59</ele>
        <time>2020-01-26T10:39:59Z</time>
      </trkpt>
      <trkpt lat="45.77885" lon="-1.23728">
        <ele>59</ele>
        <time>2020-01-26T10:40:00Z</time>
      </trkpt>
      <trkpt lat="45.77885" lon="-1.23728">
        <ele>59</ele>
        <time>2020-01-26T10:40:01Z</time>
      </trkpt>
      <trkpt lat="45.77885" lon="-1.23728">
        <ele>59</ele>
        <time>2020-01-26T10:40:02Z</time>
      </trkpt>
      <trkpt lat="45.77885" lon="-1.23728">
        <ele>59</ele>
        <time>2020-01-26T10:40:03Z</time>
      </trkpt>
      <trkpt lat="45.77885" lon="-1.23728">
        <ele>59</ele>
        <time>2020-01-26T10:40:04Z</time>
      </trkpt>
      <trkpt lat="45.77885" lon="-1.23728">
        <ele>59</ele>
        <time>2020-01-26T10:40:05Z</time>
      </trkpt>
      <trkpt lat="45.77885" lon="-1.23728">
        <ele>59</ele>
        <time>2020-01-26T10:40:06Z</time>
      </trkpt>
      <trkpt lat="45.77885" lon="-1.23728">
        <ele>59</ele>
        <time>2020-01-26T10:40:07Z</time>
      </trkpt>
      <trkpt lat="45.77885" lon="-1.23728">
        <ele>59</ele>
        <time>2020-01-26T10:40:08Z</time>
      </trkpt>
      <trkpt lat="45.77885" lon="-1.23728">
        <ele>59</ele>
        <time>2020-01-26T10:40:09Z</time>
      </trkpt>
      <trkpt lat="45.77885" lon="-1.23728">
        <ele>59</ele>
        <time>2020-01-26T10:40:10Z</time>
      </trkpt>
      <trkpt lat="45.77885" lon="-1.23728">
        <ele>59</ele>
        <time>2020-01-26T10:40:11Z</time>
      </trkpt>
      <trkpt lat="45.77885" lon="-1.23728">
        <ele>59</ele>
        <time>2020-01-26T10:40:12Z</time>
      </trkpt>
      <trkpt lat="45.77885" lon="-1.23728">
        <ele>59</ele>
        <time>2020-01-26T10:40:13Z</time>
      </trkpt>
      <trkpt lat="45.77885" lon="-1.23728">
        <ele>59</ele>
        <time>2020-01-26T10:40:14Z</time>
      </trkpt>
      <trkpt lat="45.77885" lon="-1.23728">
        <ele>59</ele>
        <time>2020-01-26T10:40:15Z</time>
      </trkpt>
      <trkpt lat="45.77885" lon="-1.23728">
        <ele>59</ele>
        <time>2020-01-26T10:40:16Z</time>
      </trkpt>
      <trkpt lat="45.77885" lon="-1.23728">
        <ele>59</ele>
        <time>2020-01-26T10:40:17Z</time>
      </trkpt>
      <trkpt lat="45.77885" lon="-1.23728">
        <ele>59</ele>
        <time>2020-01-26T10:40:18Z</time>
      </trkpt>
      <trkpt lat="45.77885" lon="-1.23728">
        <ele>59</ele>
        <time>2020-01-26T10:40:19Z</time>
      </trkpt>
      <trkpt lat="45.77885" lon="-1.23728">
        <ele>59</ele>
        <time>2020-01-26T10:40:20Z</time>
      </trkpt>
      <trkpt lat="45.77885" lon="-1.23728">
        <ele>59</ele>
        <time>2020-01-26T10:40:21Z</time>
      </trkpt>
      <trkpt lat="45.77885" lon="-1.23728">
        <ele>59</ele>
        <time>2020-01-26T10:40:22Z</time>
      </trkpt>
      <trkpt lat="45.77885" lon="-1.23728">
        <ele>59</ele>
        <time>2020-01-26T10:40:23Z</time>
      </trkpt>
      <trkpt lat="45.77885" lon="-1.23728">
        <ele>59</ele>
        <time>2020-01-26T10:40:24Z</time>
      </trkpt>
      <trkpt lat="45.77885" lon="-1.23728">
        <ele>59</ele>
        <time>2020-01-26T10:40:25Z</time>
      </trkpt>
      <trkpt lat="45.77885" lon="-1.23728">
        <ele>59</ele>
        <time>2020-01-26T10:40:26Z</time>
      </trkpt>
      <trkpt lat="45.77885" lon="-1.23728">
        <ele>59</ele>
        <time>2020-01-26T10:40:27Z</time>
      </trkpt>
      <trkpt lat="45.77885" lon="-1.23728">
        <ele>59</ele>
        <time>2020-01-26T10:40:28Z</time>
      </trkpt>
      <trkpt lat="45.77885" lon="-1.23728">
        <ele>59</ele>
        <time>2020-01-26T10:40:29Z</time>
      </trkpt>
      <trkpt lat="45.77885" lon="-1.23728">
        <ele>59</ele>
        <time>2020-01-26T10:40:30Z</time>
      </trkpt>
      <trkpt lat="45.77885" lon="-1.23728">
        <ele>59</ele>
        <time>2020-01-26T10:40:31Z</time>
      </trkpt>
      <trkpt lat="45.77885" lon="-1.23728">
        <ele>59</ele>
        <time>2020-01-26T10:40:32Z</time>
      </trkpt>
      <trkpt lat="45.77885" lon="-1.23728">
        <ele>59</ele>
        <time>2020-01-26T10:40:33Z</time>
      </trkpt>
      <trkpt lat="45.77885" lon="-1.23728">
        <ele>59</ele>
        <time>2020-01-26T10:40:34Z</time>
      </trkpt>
      <trkpt lat="45.77885" lon="-1.23728">
        <ele>59</ele>
        <time>2020-01-26T10:40:35Z</time>
      </trkpt>
      <trkpt lat="45.77885" lon="-1.23728">
        <ele>59</ele>
        <time>2020-01-26T10:40:36Z</time>
      </trkpt>
      <trkpt lat="45.77885" lon="-1.23728">
        <ele>59</ele>
        <time>2020-01-26T10:40:37Z</time>
      </trkpt>
      <trkpt lat="45.77885" lon="-1.23728">
        <ele>59</ele>
        <time>2020-01-26T10:40:38Z</time>
      </trkpt>
      <trkpt lat="45.77885" lon="-1.23728">
        <ele>59</ele>
        <time>2020-01-26T10:40:39Z</time>
      </trkpt>
      <trkpt lat="45.77885" lon="-1.23728">
        <ele>59</ele>
        <time>2020-01-26T10:40:40Z</time>
      </trkpt>
      <trkpt lat="45.77885" lon="-1.23728">
        <ele>59</ele>
        <time>2020-01-26T10:40:41Z</time>
      </trkpt>
      <trkpt lat="45.77885" lon="-1.23728">
        <ele>59</ele>
        <time>2020-01-26T10:40:42Z</time>
      </trkpt>
      <trkpt lat="45.77885" lon="-1.23728">
        <ele>59</ele>
        <time>2020-01-26T10:40:43Z</time>
      </trkpt>
      <trkpt lat="45.77885" lon="-1.23728">
        <ele>59</ele>
        <time>2020-01-26T10:40:44Z</time>
      </trkpt>
      <trkpt lat="45.77885" lon="-1.23728">
        <ele>59</ele>
        <time>2020-01-26T10:40:45Z</time>
      </trkpt>
      <trkpt lat="45.77885" lon="-1.23728">
        <ele>59</ele>
        <time>2020-01-26T10:40:46Z</time>
      </trkpt>
      <trkpt lat="45.77885" lon="-1.23728">
        <ele>59</ele>
        <time>2020-01-26T10:40:47Z</time>
      </trkpt>
      <trkpt lat="45.77885" lon="-1.23728">
        <ele>59</ele>
        <time>2020-01-26T10:40:48Z</time>
      </trkpt>
      <trkpt lat="45.77885" lon="-1.23728">
        <ele>59</ele>
        <time>2020-01-26T10:40:49Z</time>
      </trkpt>
      <trkpt lat="45.77885" lon="-1.23728">
        <ele>59</ele>
        <time>2020-01-26T10:40:50Z</time>
      </trkpt>
      <trkpt lat="45.77885" lon="-1.23728">
        <ele>59</ele>
        <time>2020-01-26T10:40:51Z</time>
      </trkpt>
      <trkpt lat="45.77885" lon="-1.23728">
        <ele>59</ele>
        <time>2020-01-26T10:40:52Z</time>
      </trkpt>
      <trkpt lat="45.77885" lon="-1.23728">
        <ele>59</ele>
        <time>2020-01-26T10:40:53Z</time>
      </trkpt>
      <trkpt lat="45.77885" lon="-1.23728">
        <ele>59</ele>
        <time>2020-01-26T10:40:54Z</time>
      </trkpt>
      <trkpt lat="45.77885" lon="-1.23728">
        <ele>59</ele>
        <time>2020-01-26T10:40:55Z</time>
      </trkpt>
      <trkpt lat="45.77885" lon="-1.23728">
        <ele>59</ele>
        <time>2020-01-26T10:40:56Z</time>
      </trkpt>
      <trkpt lat="45.77885" lon="-1.23728">
        <ele>59</ele>
        <time>2020-01-26T10:40:57Z</time>
      </trkpt>
      <trkpt lat="45.77885" lon="-1.23728">
        <ele>59</ele>
        <time>2020-01-26T10:40:58Z</time>
      </trkpt>
      <trkpt lat="45.77885" lon="-1.23728">
        <ele>59</ele>
        <time>2020-01-26T10:40:59Z</time>
      </trkpt>
      <trkpt lat="45.77885" lon="-1.23728">
        <ele>59</ele>
        <time>2020-01-26T10:41:00Z</time>
      </trkpt>
      <trkpt lat="45.77885" lon="-1.23728">
        <ele>59</ele>
        <time>2020-01-26T10:41:01Z</time>
      </trkpt>
      <trkpt lat="45.77885" lon="-1.23728">
        <ele>59</ele>
        <time>2020-01-26T10:41:02Z</time>
      </trkpt>
      <trkpt lat="45.77885" lon="-1.23728">
        <ele>59</ele>
        <time>2020-01-26T10:41:03Z</time>
      </trkpt>
      <trkpt lat="45.77885" lon="-1.23728">
        <ele>59</ele>
        <time>2020-01-26T10:41:04Z</time>
      </trkpt>
      <trkpt lat="45.77885" lon="-1.23728">
        <ele>59</ele>
        <time>2020-01-26T10:41:05Z</time>
      </trkpt>
      <trkpt lat="45.77885" lon="-1.23728">
        <ele>59</ele>
        <time>2020-01-26T10:41:06Z</time>
      </trkpt>
      <trkpt lat="45.77885" lon="-1.23728">
        <ele>59</ele>
        <time>2020-01-26T10:41:07Z</time>
      </trkpt>
      <trkpt lat="45.77885" lon="-1.23728">
        <ele>59</ele>
        <time>2020-01-26T10:41:08Z</time>
      </trkpt>
      <trkpt lat="45.77885" lon="-1.23728">
        <ele>59</ele>
        <time>2020-01-26T10:41:09Z</time>
      </trkpt>
      <trkpt lat="45.77885" lon="-1.23728">
        <ele>59</ele>
        <time>2020-01-26T10:41:10Z</time>
      </trkpt>
      <trkpt lat="45.77885" lon="-1.23728">
        <ele>59</ele>
        <time>2020-01-26T10:41:11Z</time>
      </trkpt>
      <trkpt lat="45.77885" lon="-1.23728">
        <ele>59</ele>
        <time>2020-01-26T10:41:12Z</time>
      </trkpt>
      <trkpt lat="45.77885" lon="-1.23728">
        <ele>59</ele>
        <time>2020-01-26T10:41:13Z</time>
      </trkpt>
      <trkpt lat="45.77885" lon="-1.23728">
        <ele>59</ele>
        <time>2020-01-26T10:41:14Z</time>
      </trkpt>
      <trkpt lat="45.77885" lon="-1.23728">
        <ele>59</ele>
        <time>2020-01-26T10:41:15Z</time>
      </trkpt>
      <trkpt lat="45.77885" lon="-1.23728">
        <ele>59</ele>
        <time>2020-01-26T10:41:16Z</time>
      </trkpt>
      <trkpt lat="45.77885" lon="-1.23728">
        <ele>59</ele>
        <time>2020-01-26T10:41:17Z</time>
      </trkpt>
      <trkpt lat="45.77885" lon="-1.23728">
        <ele>59</ele>
        <time>2020-01-26T10:41:18Z</time>
      </trkpt>
      <trkpt lat="45.77885" lon="-1.23728">
        <ele>59</ele>
        <time>2020-01-26T10:41:19Z</time>
      </trkpt>
      <trkpt lat="45.77885" lon="-1.23728">
        <ele>59</ele>
        <time>2020-01-26T10:41:20Z</time>
      </trkpt>
      <trkpt lat="45.77885" lon="-1.23728">
        <ele>59</ele>
        <time>2020-01-26T10:41:21Z</time>
      </trkpt>
      <trkpt lat="45.77885" lon="-1.23728">
        <ele>59</ele>
        <time>2020-01-26T10:41:22Z</time>
      </trkpt>
      <trkpt lat="45.77885" lon="-1.23728">
        <ele>59</ele>
        <time>2020-01-26T10:41:23Z</time>
      </trkpt>
      <trkpt lat="45.77885" lon="-1.23728">
        <ele>59</ele>
        <time>2020-01-26T10:41:24Z</time>
      </trkpt>
      <trkpt lat="45.77885" lon="-1.23728">
        <ele>59</ele>
        <time>2020-01-26T10:41:25Z</time>
      </trkpt>
      <trkpt lat="45.77885" lon="-1.23728">
        <ele>59</ele>
        <time>2020-01-26T10:41:26Z</time>
      </trkpt>
      <trkpt lat="45.77885" lon="-1.23728">
        <ele>59</ele>
        <time>2020-01-26T10:41:27Z</time>
      </trkpt>
      <trkpt lat="45.77885" lon="-1.23728">
        <ele>59</ele>
        <time>2020-01-26T10:41:28Z</time>
      </trkpt>
      <trkpt lat="45.77885" lon="-1.23728">
        <ele>59</ele>
        <time>2020-01-26T10:41:29Z</time>
      </trkpt>
      <trkpt lat="45.77885" lon="-1.23728">
        <ele>59</ele>
        <time>2020-01-26T10:41:30Z</time>
      </trkpt>
      <trkpt lat="45.77885" lon="-1.23728">
        <ele>59</ele>
        <time>2020-01-26T10:41:31Z</time>
      </trkpt>
      <trkpt lat="45.77885" lon="-1.23728">
        <ele>59</ele>
        <time>2020-01-26T10:41:32Z</time>
      </trkpt>
      <trkpt lat="45.77885" lon="-1.23728">
        <ele>59</ele>
        <time>2020-01-26T10:41:33Z</time>
      </trkpt>
      <trkpt lat="45.77885" lon="-1.23728">
        <ele>59</ele>
        <time>2020-01-26T10:41:34Z</time>
      </trkpt>
      <trkpt lat="45.77885" lon="-1.23728">
        <ele>59</ele>
        <time>2020-01-26T10:41:35Z</time>
      </trkpt>
      <trkpt lat="45.77885" lon="-1.23728">
        <ele>59</ele>
        <time>2020-01-26T10:41:36Z</time>
      </trkpt>
      <trkpt lat="45.77885" lon="-1.23728">
        <ele>59</ele>
        <time>2020-01-26T10:41:37Z</time>
      </trkpt>
      <trkpt lat="45.77885" lon="-1.23728">
        <ele>59</ele>
        <time>2020-01-26T10:41:38Z</time>
      </trkpt>
      <trkpt lat="45.77885" lon="-1.23728">
        <ele>59</ele>
        <time>2020-01-26T10:41:39Z</time>
      </trkpt>
      <trkpt lat="45.77885" lon="-1.23728">
        <ele>59</ele>
        <time>2020-01-26T10:41:40Z</time>
      </trkpt>
      <trkpt lat="45.77885" lon="-1.23728">
        <ele>59</ele>
        <time>2020-01-26T10:41:41Z</time>
      </trkpt>
      <trkpt lat="45.77885" lon="-1.23728">
        <ele>59</ele>
        <time>2020-01-26T10:41:42Z</time>
      </trkpt>
      <trkpt lat="45.77885" lon="-1.23728">
        <ele>59</ele>
        <time>2020-01-26T10:41:43Z</time>
      </trkpt>
      <trkpt lat="45.77885" lon="-1.23728">
        <ele>59</ele>
        <time>2020-01-26T10:41:44Z</time>
      </trkpt>
      <trkpt lat="45.77885" lon="-1.23728">
        <ele>59</ele>
        <time>2020-01-26T10:41:45Z</time>
      </trkpt>
      <trkpt lat="45.77885" lon="-1.23728">
        <ele>59</ele>
        <time>2020-01-26T10:41:46Z</time>
      </trkpt>
      <trkpt lat="45.77885" lon="-1.23728">
        <ele>59</ele>
        <time>2020-01-26T10:41:47Z</time>
      </trkpt>
      <trkpt lat="45.77885" lon="-1.23728">
        <ele>59</ele>
        <time>2020-01-26T10:41:48Z</time>
      </trkpt>
      <trkpt lat="45.77885" lon="-1.23728">
        <ele>59</ele>
        <time>2020-01-26T10:41:49Z</time>
      </trkpt>
      <trkpt lat="45.77885" lon="-1.23728">
        <ele>59</ele>
        <time>2020-01-26T10:41:50Z</time>
      </trkpt>
      <trkpt lat="45.77885" lon="-1.23728">
        <ele>59</ele>
        <time>2020-01-26T10:41:51Z</time>
      </trkpt>
      <trkpt lat="45.77885" lon="-1.23728">
        <ele>59</ele>
        <time>2020-01-26T10:41:52Z</time>
      </trkpt>
      <trkpt lat="45.77884" lon="-1.23728">
        <ele>59</ele>
        <time>2020-01-26T10:41:53Z</time>
      </trkpt>
      <trkpt lat="45.77884" lon="-1.23728">
        <ele>59</ele>
        <time>2020-01-26T10:41:54Z</time>
      </trkpt>
      <trkpt lat="45.77884" lon="-1.23728">
        <ele>58.8</ele>
        <time>2020-01-26T10:41:55Z</time>
      </trkpt>
      <trkpt lat="45.77884" lon="-1.23728">
        <ele>58.6</ele>
        <time>2020-01-26T10:41:56Z</time>
      </trkpt>
      <trkpt lat="45.77884" lon="-1.23728">
        <ele>58.4</ele>
        <time>2020-01-26T10:41:57Z</time>
      </trkpt>
      <trkpt lat="45.77883" lon="-1.23727">
        <ele>58</ele>
        <time>2020-01-26T10:41:58Z</time>
      </trkpt>
      <trkpt lat="45.77883" lon="-1.23727">
        <ele>57.8</ele>
        <time>2020-01-26T10:41:59Z</time>
      </trkpt>
      <trkpt lat="45.77883" lon="-1.23727">
        <ele>57.6</ele>
        <time>2020-01-26T10:42:00Z</time>
      </trkpt>
      <trkpt lat="45.77883" lon="-1.23727">
        <ele>57.4</ele>
        <time>2020-01-26T10:42:01Z</time>
      </trkpt>
      <trkpt lat="45.77883" lon="-1.23727">
        <ele>57</ele>
        <time>2020-01-26T10:42:02Z</time>
      </trkpt>
      <trkpt lat="45.77883" lon="-1.23727">
        <ele>56.8</ele>
        <time>2020-01-26T10:42:03Z</time>
      </trkpt>
      <trkpt lat="45.77883" lon="-1.23727">
        <ele>56.6</ele>
        <time>2020-01-26T10:42:04Z</time>
      </trkpt>
      <trkpt lat="45.77883" lon="-1.23727">
        <ele>56.4</ele>
        <time>2020-01-26T10:42:05Z</time>
      </trkpt>
      <trkpt lat="45.77883" lon="-1.23727">
        <ele>56.4</ele>
        <time>2020-01-26T10:42:06Z</time>
      </trkpt>
      <trkpt lat="45.77883" lon="-1.23727">
        <ele>56.2</ele>
        <time>2020-01-26T10:42:07Z</time>
      </trkpt>
      <trkpt lat="45.77883" lon="-1.23727">
        <ele>56.2</ele>
        <time>2020-01-26T10:42:08Z</time>
      </trkpt>
      <trkpt lat="45.77883" lon="-1.23727">
        <ele>56.2</ele>
        <time>2020-01-26T10:42:09Z</time>
      </trkpt>
      <trkpt lat="45.77883" lon="-1.23727">
        <ele>56</ele>
        <time>2020-01-26T10:42:10Z</time>
      </trkpt>
      <trkpt lat="45.77883" lon="-1.23727">
        <ele>55.8</ele>
        <time>2020-01-26T10:42:11Z</time>
      </trkpt>
      <trkpt lat="45.77883" lon="-1.23727">
        <ele>55.6</ele>
        <time>2020-01-26T10:42:12Z</time>
      </trkpt>
      <trkpt lat="45.77883" lon="-1.23727">
        <ele>55.4</ele>
        <time>2020-01-26T10:42:13Z</time>
      </trkpt>
      <trkpt lat="45.77883" lon="-1.23727">
        <ele>55.4</ele>
        <time>2020-01-26T10:42:14Z</time>
      </trkpt>
      <trkpt lat="45.77883" lon="-1.23727">
        <ele>55.2</ele>
        <time>2020-01-26T10:42:15Z</time>
      </trkpt>
      <trkpt lat="45.77883" lon="-1.23727">
        <ele>55.2</ele>
        <time>2020-01-26T10:42:16Z</time>
      </trkpt>
      <trkpt lat="45.77883" lon="-1.23727">
        <ele>55.2</ele>
        <time>2020-01-26T10:42:17Z</time>
      </trkpt>
      <trkpt lat="45.77883" lon="-1.23727">
        <ele>55.2</ele>
        <time>2020-01-26T10:42:18Z</time>
      </trkpt>
      <trkpt lat="45.77883" lon="-1.23727">
        <ele>55</ele>
        <time>2020-01-26T10:42:19Z</time>
      </trkpt>
      <trkpt lat="45.77883" lon="-1.23727">
        <ele>55</ele>
        <time>2020-01-26T10:42:20Z</time>
      </trkpt>
      <trkpt lat="45.77883" lon="-1.23727">
        <ele>55</ele>
        <time>2020-01-26T10:42:21Z</time>
      </trkpt>
      <trkpt lat="45.77883" lon="-1.23727">
        <ele>55</ele>
        <time>2020-01-26T10:42:22Z</time>
      </trkpt>
      <trkpt lat="45.77883" lon="-1.23727">
        <ele>55</ele>
        <time>2020-01-26T10:42:23Z</time>
      </trkpt>
      <trkpt lat="45.77883" lon="-1.23727">
        <ele>55</ele>
        <time>2020-01-26T10:42:24Z</time>
      </trkpt>
      <trkpt lat="45.77883" lon="-1.23727">
        <ele>55</ele>
        <time>2020-01-26T10:42:25Z</time>
      </trkpt>
      <trkpt lat="45.77883" lon="-1.23727">
        <ele>55</ele>
        <time>2020-01-26T10:42:26Z</time>
      </trkpt>
      <trkpt lat="45.77883" lon="-1.23727">
        <ele>55</ele>
        <time>2020-01-26T10:42:27Z</time>
      </trkpt>
      <trkpt lat="45.77883" lon="-1.23727">
        <ele>55</ele>
        <time>2020-01-26T10:42:28Z</time>
      </trkpt>
      <trkpt lat="45.77883" lon="-1.23727">
        <ele>55</ele>
        <time>2020-01-26T10:42:29Z</time>
      </trkpt>
      <trkpt lat="45.77883" lon="-1.23727">
        <ele>55</ele>
        <time>2020-01-26T10:42:30Z</time>
      </trkpt>
      <trkpt lat="45.77883" lon="-1.23727">
        <ele>55</ele>
        <time>2020-01-26T10:42:31Z</time>
      </trkpt>
      <trkpt lat="45.77883" lon="-1.23727">
        <ele>55</ele>
        <time>2020-01-26T10:42:32Z</time>
      </trkpt>
      <trkpt lat="45.77883" lon="-1.23727">
        <ele>55</ele>
        <time>2020-01-26T10:42:33Z</time>
      </trkpt>
      <trkpt lat="45.77883" lon="-1.23727">
        <ele>55</ele>
        <time>2020-01-26T10:42:34Z</time>
      </trkpt>
      <trkpt lat="45.77883" lon="-1.23727">
        <ele>55</ele>
        <time>2020-01-26T10:42:35Z</time>
      </trkpt>
      <trkpt lat="45.77883" lon="-1.23727">
        <ele>55</ele>
        <time>2020-01-26T10:42:36Z</time>
      </trkpt>
      <trkpt lat="45.77883" lon="-1.23727">
        <ele>55</ele>
        <time>2020-01-26T10:42:37Z</time>
      </trkpt>
      <trkpt lat="45.77883" lon="-1.23727">
        <ele>55</ele>
        <time>2020-01-26T10:42:38Z</time>
      </trkpt>
      <trkpt lat="45.77883" lon="-1.23727">
        <ele>55</ele>
        <time>2020-01-26T10:42:39Z</time>
      </trkpt>
      <trkpt lat="45.77883" lon="-1.23727">
        <ele>55</ele>
        <time>2020-01-26T10:42:40Z</time>
      </trkpt>
      <trkpt lat="45.77883" lon="-1.23727">
        <ele>55</ele>
        <time>2020-01-26T10:42:41Z</time>
      </trkpt>
      <trkpt lat="45.77883" lon="-1.23727">
        <ele>55</ele>
        <time>2020-01-26T10:42:42Z</time>
      </trkpt>
      <trkpt lat="45.77883" lon="-1.23727">
        <ele>55</ele>
        <time>2020-01-26T10:42:43Z</time>
      </trkpt>
      <trkpt lat="45.77883" lon="-1.23727">
        <ele>55</ele>
        <time>2020-01-26T10:42:44Z</time>
      </trkpt>
      <trkpt lat="45.77883" lon="-1.23727">
        <ele>55</ele>
        <time>2020-01-26T10:42:45Z</time>
      </trkpt>
      <trkpt lat="45.77883" lon="-1.23727">
        <ele>55</ele>
        <time>2020-01-26T10:42:46Z</time>
      </trkpt>
      <trkpt lat="45.77883" lon="-1.23727">
        <ele>55</ele>
        <time>2020-01-26T10:42:47Z</time>
      </trkpt>
      <trkpt lat="45.77883" lon="-1.23727">
        <ele>55</ele>
        <time>2020-01-26T10:42:48Z</time>
      </trkpt>
      <trkpt lat="45.77883" lon="-1.23727">
        <ele>55</ele>
        <time>2020-01-26T10:42:49Z</time>
      </trkpt>
      <trkpt lat="45.77883" lon="-1.23727">
        <ele>55</ele>
        <time>2020-01-26T10:42:50Z</time>
      </trkpt>
      <trkpt lat="45.77883" lon="-1.23727">
        <ele>55</ele>
        <time>2020-01-26T10:42:51Z</time>
      </trkpt>
      <trkpt lat="45.77883" lon="-1.23727">
        <ele>55</ele>
        <time>2020-01-26T10:42:52Z</time>
      </trkpt>
      <trkpt lat="45.77883" lon="-1.23727">
        <ele>55</ele>
        <time>2020-01-26T10:42:53Z</time>
      </trkpt>
      <trkpt lat="45.77883" lon="-1.23727">
        <ele>55</ele>
        <time>2020-01-26T10:42:54Z</time>
      </trkpt>
      <trkpt lat="45.77883" lon="-1.23727">
        <ele>55</ele>
        <time>2020-01-26T10:42:55Z</time>
      </trkpt>
      <trkpt lat="45.77883" lon="-1.23727">
        <ele>55</ele>
        <time>2020-01-26T10:42:56Z</time>
      </trkpt>
      <trkpt lat="45.77883" lon="-1.23727">
        <ele>55</ele>
        <time>2020-01-26T10:42:57Z</time>
      </trkpt>
      <trkpt lat="45.77883" lon="-1.23727">
        <ele>55</ele>
        <time>2020-01-26T10:42:58Z</time>
      </trkpt>
      <trkpt lat="45.77883" lon="-1.23727">
        <ele>55</ele>
        <time>2020-01-26T10:42:59Z</time>
      </trkpt>
      <trkpt lat="45.77883" lon="-1.23727">
        <ele>55</ele>
        <time>2020-01-26T10:43:00Z</time>
      </trkpt>
      <trkpt lat="45.77883" lon="-1.23727">
        <ele>55</ele>
        <time>2020-01-26T10:43:01Z</time>
      </trkpt>
      <trkpt lat="45.77883" lon="-1.23727">
        <ele>55</ele>
        <time>2020-01-26T10:43:02Z</time>
      </trkpt>
      <trkpt lat="45.77883" lon="-1.23727">
        <ele>55</ele>
        <time>2020-01-26T10:43:03Z</time>
      </trkpt>
      <trkpt lat="45.77883" lon="-1.23727">
        <ele>55</ele>
        <time>2020-01-26T10:43:04Z</time>
      </trkpt>
      <trkpt lat="45.77883" lon="-1.23727">
        <ele>55</ele>
        <time>2020-01-26T10:43:05Z</time>
      </trkpt>
      <trkpt lat="45.77883" lon="-1.23727">
        <ele>55</ele>
        <time>2020-01-26T10:43:06Z</time>
      </trkpt>
      <trkpt lat="45.77883" lon="-1.23727">
        <ele>55</ele>
        <time>2020-01-26T10:43:07Z</time>
      </trkpt>
      <trkpt lat="45.77883" lon="-1.23727">
        <ele>55</ele>
        <time>2020-01-26T10:43:08Z</time>
      </trkpt>
      <trkpt lat="45.77883" lon="-1.23727">
        <ele>55</ele>
        <time>2020-01-26T10:43:09Z</time>
      </trkpt>
      <trkpt lat="45.77883" lon="-1.23727">
        <ele>55</ele>
        <time>2020-01-26T10:43:10Z</time>
      </trkpt>
      <trkpt lat="45.77883" lon="-1.23727">
        <ele>55</ele>
        <time>2020-01-26T10:43:11Z</time>
      </trkpt>
      <trkpt lat="45.77883" lon="-1.23727">
        <ele>55</ele>
        <time>2020-01-26T10:43:12Z</time>
      </trkpt>
      <trkpt lat="45.77883" lon="-1.23727">
        <ele>55</ele>
        <time>2020-01-26T10:43:13Z</time>
      </trkpt>
      <trkpt lat="45.77883" lon="-1.23727">
        <ele>55</ele>
        <time>2020-01-26T10:43:14Z</time>
      </trkpt>
      <trkpt lat="45.77883" lon="-1.23727">
        <ele>55</ele>
        <time>2020-01-26T10:43:15Z</time>
      </trkpt>
      <trkpt lat="45.77883" lon="-1.23727">
        <ele>55</ele>
        <time>2020-01-26T10:43:16Z</time>
      </trkpt>
      <trkpt lat="45.77883" lon="-1.23727">
        <ele>55</ele>
        <time>2020-01-26T10:43:17Z</time>
      </trkpt>
      <trkpt lat="45.77883" lon="-1.23727">
        <ele>55</ele>
        <time>2020-01-26T10:43:18Z</time>
      </trkpt>
      <trkpt lat="45.77883" lon="-1.23727">
        <ele>55</ele>
        <time>2020-01-26T10:43:19Z</time>
      </trkpt>
      <trkpt lat="45.77883" lon="-1.23727">
        <ele>55</ele>
        <time>2020-01-26T10:43:20Z</time>
      </trkpt>
      <trkpt lat="45.77883" lon="-1.23727">
        <ele>55</ele>
        <time>2020-01-26T10:43:21Z</time>
      </trkpt>
      <trkpt lat="45.77883" lon="-1.23727">
        <ele>55</ele>
        <time>2020-01-26T10:43:22Z</time>
      </trkpt>
      <trkpt lat="45.77883" lon="-1.23727">
        <ele>55</ele>
        <time>2020-01-26T10:43:23Z</time>
      </trkpt>
      <trkpt lat="45.77883" lon="-1.23727">
        <ele>55</ele>
        <time>2020-01-26T10:43:24Z</time>
      </trkpt>
      <trkpt lat="45.77883" lon="-1.23727">
        <ele>55</ele>
        <time>2020-01-26T10:43:25Z</time>
      </trkpt>
      <trkpt lat="45.77883" lon="-1.23727">
        <ele>55</ele>
        <time>2020-01-26T10:43:26Z</time>
      </trkpt>
      <trkpt lat="45.77883" lon="-1.23727">
        <ele>55</ele>
        <time>2020-01-26T10:43:27Z</time>
      </trkpt>
      <trkpt lat="45.77883" lon="-1.23727">
        <ele>55</ele>
        <time>2020-01-26T10:43:28Z</time>
      </trkpt>
      <trkpt lat="45.77883" lon="-1.23727">
        <ele>55</ele>
        <time>2020-01-26T10:43:29Z</time>
      </trkpt>
      <trkpt lat="45.77883" lon="-1.23727">
        <ele>55</ele>
        <time>2020-01-26T10:43:30Z</time>
      </trkpt>
      <trkpt lat="45.77883" lon="-1.23727">
        <ele>55</ele>
        <time>2020-01-26T10:43:31Z</time>
      </trkpt>
      <trkpt lat="45.77883" lon="-1.23727">
        <ele>55</ele>
        <time>2020-01-26T10:43:32Z</time>
      </trkpt>
      <trkpt lat="45.77883" lon="-1.23727">
        <ele>55</ele>
        <time>2020-01-26T10:43:33Z</time>
      </trkpt>
      <trkpt lat="45.77883" lon="-1.23727">
        <ele>55</ele>
        <time>2020-01-26T10:43:34Z</time>
      </trkpt>
      <trkpt lat="45.77883" lon="-1.23727">
        <ele>55</ele>
        <time>2020-01-26T10:43:35Z</time>
      </trkpt>
      <trkpt lat="45.77883" lon="-1.23727">
        <ele>55</ele>
        <time>2020-01-26T10:43:36Z</time>
      </trkpt>
      <trkpt lat="45.77883" lon="-1.23727">
        <ele>55</ele>
        <time>2020-01-26T10:43:37Z</time>
      </trkpt>
      <trkpt lat="45.77883" lon="-1.23727">
        <ele>55</ele>
        <time>2020-01-26T10:43:38Z</time>
      </trkpt>
      <trkpt lat="45.77883" lon="-1.23727">
        <ele>55</ele>
        <time>2020-01-26T10:43:39Z</time>
      </trkpt>
      <trkpt lat="45.77883" lon="-1.23727">
        <ele>55</ele>
        <time>2020-01-26T10:43:40Z</time>
      </trkpt>
      <trkpt lat="45.77883" lon="-1.23727">
        <ele>55</ele>
        <time>2020-01-26T10:43:41Z</time>
      </trkpt>
      <trkpt lat="45.77883" lon="-1.23727">
        <ele>55</ele>
        <time>2020-01-26T10:43:42Z</time>
      </trkpt>
      <trkpt lat="45.77883" lon="-1.23727">
        <ele>55</ele>
        <time>2020-01-26T10:43:43Z</time>
      </trkpt>
      <trkpt lat="45.77883" lon="-1.23727">
        <ele>55</ele>
        <time>2020-01-26T10:43:44Z</time>
      </trkpt>
      <trkpt lat="45.77883" lon="-1.23727">
        <ele>55</ele>
        <time>2020-01-26T10:43:45Z</time>
      </trkpt>
      <trkpt lat="45.77883" lon="-1.23727">
        <ele>55</ele>
        <time>2020-01-26T10:43:46Z</time>
      </trkpt>
      <trkpt lat="45.77883" lon="-1.23727">
        <ele>55</ele>
        <time>2020-01-26T10:43:47Z</time>
      </trkpt>
      <trkpt lat="45.77883" lon="-1.23727">
        <ele>55</ele>
        <time>2020-01-26T10:43:48Z</time>
      </trkpt>
      <trkpt lat="45.77883" lon="-1.23727">
        <ele>55</ele>
        <time>2020-01-26T10:43:49Z</time>
      </trkpt>
      <trkpt lat="45.77883" lon="-1.23727">
        <ele>55</ele>
        <time>2020-01-26T10:43:50Z</time>
      </trkpt>
      <trkpt lat="45.77883" lon="-1.23727">
        <ele>55</ele>
        <time>2020-01-26T10:43:51Z</time>
      </trkpt>
      <trkpt lat="45.77883" lon="-1.23727">
        <ele>55</ele>
        <time>2020-01-26T10:43:52Z</time>
      </trkpt>
      <trkpt lat="45.77883" lon="-1.23727">
        <ele>55</ele>
        <time>2020-01-26T10:43:53Z</time>
      </trkpt>
      <trkpt lat="45.77883" lon="-1.23727">
        <ele>55</ele>
        <time>2020-01-26T10:43:54Z</time>
      </trkpt>
      <trkpt lat="45.77883" lon="-1.23727">
        <ele>55</ele>
        <time>2020-01-26T10:43:55Z</time>
      </trkpt>
      <trkpt lat="45.77883" lon="-1.23727">
        <ele>55</ele>
        <time>2020-01-26T10:43:56Z</time>
      </trkpt>
      <trkpt lat="45.77883" lon="-1.23727">
        <ele>55</ele>
        <time>2020-01-26T10:43:57Z</time>
      </trkpt>
      <trkpt lat="45.77883" lon="-1.23727">
        <ele>55</ele>
        <time>2020-01-26T10:43:58Z</time>
      </trkpt>
      <trkpt lat="45.77883" lon="-1.23727">
        <ele>55</ele>
        <time>2020-01-26T10:43:59Z</time>
      </trkpt>
      <trkpt lat="45.77883" lon="-1.23727">
        <ele>55</ele>
        <time>2020-01-26T10:44:00Z</time>
      </trkpt>
      <trkpt lat="45.77883" lon="-1.23727">
        <ele>55</ele>
        <time>2020-01-26T10:44:01Z</time>
      </trkpt>
      <trkpt lat="45.77883" lon="-1.23727">
        <ele>55</ele>
        <time>2020-01-26T10:44:02Z</time>
      </trkpt>
      <trkpt lat="45.77883" lon="-1.23727">
        <ele>55</ele>
        <time>2020-01-26T10:44:03Z</time>
      </trkpt>
      <trkpt lat="45.77883" lon="-1.23727">
        <ele>55</ele>
        <time>2020-01-26T10:44:04Z</time>
      </trkpt>
      <trkpt lat="45.77883" lon="-1.23727">
        <ele>55</ele>
        <time>2020-01-26T10:44:05Z</time>
      </trkpt>
      <trkpt lat="45.77883" lon="-1.23727">
        <ele>55</ele>
        <time>2020-01-26T10:44:06Z</time>
      </trkpt>
      <trkpt lat="45.77883" lon="-1.23727">
        <ele>55</ele>
        <time>2020-01-26T10:44:07Z</time>
      </trkpt>
      <trkpt lat="45.77883" lon="-1.23727">
        <ele>55</ele>
        <time>2020-01-26T10:44:08Z</time>
      </trkpt>
      <trkpt lat="45.77883" lon="-1.23727">
        <ele>55</ele>
        <time>2020-01-26T10:44:09Z</time>
      </trkpt>
      <trkpt lat="45.77883" lon="-1.23727">
        <ele>55</ele>
        <time>2020-01-26T10:44:10Z</time>
      </trkpt>
      <trkpt lat="45.77883" lon="-1.23727">
        <ele>55</ele>
        <time>2020-01-26T10:44:11Z</time>
      </trkpt>
      <trkpt lat="45.77883" lon="-1.23727">
        <ele>55</ele>
        <time>2020-01-26T10:44:12Z</time>
      </trkpt>
      <trkpt lat="45.77883" lon="-1.23727">
        <ele>55</ele>
        <time>2020-01-26T10:44:13Z</time>
      </trkpt>
      <trkpt lat="45.77883" lon="-1.23727">
        <ele>55</ele>
        <time>2020-01-26T10:44:14Z</time>
      </trkpt>
      <trkpt lat="45.77883" lon="-1.23727">
        <ele>55</ele>
        <time>2020-01-26T10:44:15Z</time>
      </trkpt>
      <trkpt lat="45.77883" lon="-1.23727">
        <ele>55</ele>
        <time>2020-01-26T10:44:16Z</time>
      </trkpt>
      <trkpt lat="45.77883" lon="-1.23727">
        <ele>55</ele>
        <time>2020-01-26T10:44:17Z</time>
      </trkpt>
      <trkpt lat="45.77883" lon="-1.23727">
        <ele>55</ele>
        <time>2020-01-26T10:44:18Z</time>
      </trkpt>
      <trkpt lat="45.77883" lon="-1.23727">
        <ele>55</ele>
        <time>2020-01-26T10:44:19Z</time>
      </trkpt>
      <trkpt lat="45.77883" lon="-1.23727">
        <ele>55</ele>
        <time>2020-01-26T10:44:20Z</time>
      </trkpt>
      <trkpt lat="45.77883" lon="-1.23727">
        <ele>55</ele>
        <time>2020-01-26T10:44:21Z</time>
      </trkpt>
      <trkpt lat="45.77883" lon="-1.23727">
        <ele>55</ele>
        <time>2020-01-26T10:44:22Z</time>
      </trkpt>
      <trkpt lat="45.77883" lon="-1.23727">
        <ele>55</ele>
        <time>2020-01-26T10:44:23Z</time>
      </trkpt>
      <trkpt lat="45.77883" lon="-1.23727">
        <ele>55</ele>
        <time>2020-01-26T10:44:24Z</time>
      </trkpt>
      <trkpt lat="45.77883" lon="-1.23727">
        <ele>55</ele>
        <time>2020-01-26T10:44:25Z</time>
      </trkpt>
      <trkpt lat="45.77883" lon="-1.23727">
        <ele>55</ele>
        <time>2020-01-26T10:44:26Z</time>
      </trkpt>
      <trkpt lat="45.77883" lon="-1.23727">
        <ele>55</ele>
        <time>2020-01-26T10:44:27Z</time>
      </trkpt>
      <trkpt lat="45.77883" lon="-1.23727">
        <ele>55</ele>
        <time>2020-01-26T10:44:28Z</time>
      </trkpt>
      <trkpt lat="45.77883" lon="-1.23727">
        <ele>55</ele>
        <time>2020-01-26T10:44:29Z</time>
      </trkpt>
      <trkpt lat="45.77883" lon="-1.23727">
        <ele>55</ele>
        <time>2020-01-26T10:44:30Z</time>
      </trkpt>
      <trkpt lat="45.77883" lon="-1.23727">
        <ele>55</ele>
        <time>2020-01-26T10:44:31Z</time>
      </trkpt>
      <trkpt lat="45.77883" lon="-1.23727">
        <ele>55</ele>
        <time>2020-01-26T10:44:32Z</time>
      </trkpt>
      <trkpt lat="45.77883" lon="-1.23727">
        <ele>55</ele>
        <time>2020-01-26T10:44:33Z</time>
      </trkpt>
      <trkpt lat="45.77883" lon="-1.23727">
        <ele>55</ele>
        <time>2020-01-26T10:44:34Z</time>
      </trkpt>
      <trkpt lat="45.77883" lon="-1.23727">
        <ele>55</ele>
        <time>2020-01-26T10:44:35Z</time>
      </trkpt>
      <trkpt lat="45.77883" lon="-1.23727">
        <ele>55</ele>
        <time>2020-01-26T10:44:36Z</time>
      </trkpt>
      <trkpt lat="45.77883" lon="-1.23727">
        <ele>55</ele>
        <time>2020-01-26T10:44:37Z</time>
      </trkpt>
      <trkpt lat="45.77883" lon="-1.23727">
        <ele>55</ele>
        <time>2020-01-26T10:44:38Z</time>
      </trkpt>
      <trkpt lat="45.77883" lon="-1.23727">
        <ele>55</ele>
        <time>2020-01-26T10:44:39Z</time>
      </trkpt>
      <trkpt lat="45.77883" lon="-1.23727">
        <ele>55</ele>
        <time>2020-01-26T10:44:40Z</time>
      </trkpt>
      <trkpt lat="45.77883" lon="-1.23727">
        <ele>55</ele>
        <time>2020-01-26T10:44:41Z</time>
      </trkpt>
      <trkpt lat="45.77883" lon="-1.23727">
        <ele>55</ele>
        <time>2020-01-26T10:44:42Z</time>
      </trkpt>
      <trkpt lat="45.77883" lon="-1.23727">
        <ele>55</ele>
        <time>2020-01-26T10:44:43Z</time>
      </trkpt>
      <trkpt lat="45.77883" lon="-1.23727">
        <ele>55</ele>
        <time>2020-01-26T10:44:44Z</time>
      </trkpt>
      <trkpt lat="45.77883" lon="-1.23727">
        <ele>55</ele>
        <time>2020-01-26T10:44:45Z</time>
      </trkpt>
      <trkpt lat="45.77883" lon="-1.23727">
        <ele>55</ele>
        <time>2020-01-26T10:44:46Z</time>
      </trkpt>
      <trkpt lat="45.77883" lon="-1.23727">
        <ele>55</ele>
        <time>2020-01-26T10:44:47Z</time>
      </trkpt>
      <trkpt lat="45.77883" lon="-1.23727">
        <ele>55</ele>
        <time>2020-01-26T10:44:48Z</time>
      </trkpt>
      <trkpt lat="45.77883" lon="-1.23727">
        <ele>55</ele>
        <time>2020-01-26T10:44:49Z</time>
      </trkpt>
      <trkpt lat="45.77883" lon="-1.23727">
        <ele>55</ele>
        <time>2020-01-26T10:44:50Z</time>
      </trkpt>
      <trkpt lat="45.77883" lon="-1.23727">
        <ele>55</ele>
        <time>2020-01-26T10:44:51Z</time>
      </trkpt>
      <trkpt lat="45.77883" lon="-1.23727">
        <ele>55</ele>
        <time>2020-01-26T10:44:52Z</time>
      </trkpt>
      <trkpt lat="45.77883" lon="-1.23727">
        <ele>55</ele>
        <time>2020-01-26T10:44:53Z</time>
      </trkpt>
      <trkpt lat="45.77883" lon="-1.23727">
        <ele>55</ele>
        <time>2020-01-26T10:44:54Z</time>
      </trkpt>
      <trkpt lat="45.77883" lon="-1.23727">
        <ele>55</ele>
        <time>2020-01-26T10:44:55Z</time>
      </trkpt>
      <trkpt lat="45.77883" lon="-1.23727">
        <ele>55</ele>
        <time>2020-01-26T10:44:56Z</time>
      </trkpt>
      <trkpt lat="45.77883" lon="-1.23728">
        <ele>55</ele>
        <time>2020-01-26T10:44:57Z</time>
      </trkpt>
      <trkpt lat="45.77883" lon="-1.23729">
        <ele>54.8</ele>
        <time>2020-01-26T10:44:58Z</time>
      </trkpt>
      <trkpt lat="45.77883" lon="-1.23729">
        <ele>54.8</ele>
        <time>2020-01-26T10:44:59Z</time>
      </trkpt>
      <trkpt lat="45.77883" lon="-1.23729">
        <ele>54.8</ele>
        <time>2020-01-26T10:45:00Z</time>
      </trkpt>
      <trkpt lat="45.77883" lon="-1.23729">
        <ele>54.8</ele>
        <time>2020-01-26T10:45:01Z</time>
      </trkpt>
      <trkpt lat="45.77883" lon="-1.23729">
        <ele>55</ele>
        <time>2020-01-26T10:45:02Z</time>
      </trkpt>
      <trkpt lat="45.77884" lon="-1.23729">
        <ele>55</ele>
        <time>2020-01-26T10:45:03Z</time>
      </trkpt>
      <trkpt lat="45.77884" lon="-1.23729">
        <ele>54.6</ele>
        <time>2020-01-26T10:45:04Z</time>
      </trkpt>
      <trkpt lat="45.77884" lon="-1.2373">
        <ele>54.6</ele>
        <time>2020-01-26T10:45:05Z</time>
      </trkpt>
      <trkpt lat="45.77884" lon="-1.2373">
        <ele>54.4</ele>
        <time>2020-01-26T10:45:06Z</time>
      </trkpt>
      <trkpt lat="45.77884" lon="-1.2373">
        <ele>54.2</ele>
        <time>2020-01-26T10:45:07Z</time>
      </trkpt>
      <trkpt lat="45.77884" lon="-1.2373">
        <ele>54.2</ele>
        <time>2020-01-26T10:45:08Z</time>
      </trkpt>
      <trkpt lat="45.77884" lon="-1.2373">
        <ele>54.2</ele>
        <time>2020-01-26T10:45:09Z</time>
      </trkpt>
      <trkpt lat="45.77884" lon="-1.23731">
        <ele>53.8</ele>
        <time>2020-01-26T10:45:10Z</time>
      </trkpt>
      <trkpt lat="45.77884" lon="-1.2373">
        <ele>53.6</ele>
        <time>2020-01-26T10:45:11Z</time>
      </trkpt>
      <trkpt lat="45.77885" lon="-1.2373">
        <ele>53.4</ele>
        <time>2020-01-26T10:45:12Z</time>
      </trkpt>
      <trkpt lat="45.77885" lon="-1.2373">
        <ele>53.4</ele>
        <time>2020-01-26T10:45:13Z</time>
      </trkpt>
      <trkpt lat="45.77885" lon="-1.2373">
        <ele>53.6</ele>
        <time>2020-01-26T10:45:14Z</time>
      </trkpt>
      <trkpt lat="45.77885" lon="-1.2373">
        <ele>53.4</ele>
        <time>2020-01-26T10:45:15Z</time>
      </trkpt>
      <trkpt lat="45.77885" lon="-1.2373">
        <ele>53.6</ele>
        <time>2020-01-26T10:45:16Z</time>
      </trkpt>
      <trkpt lat="45.77885" lon="-1.2373">
        <ele>53.6</ele>
        <time>2020-01-26T10:45:17Z</time>
      </trkpt>
      <trkpt lat="45.77885" lon="-1.2373">
        <ele>53.8</ele>
        <time>2020-01-26T10:45:18Z</time>
      </trkpt>
      <trkpt lat="45.77885" lon="-1.23729">
        <ele>54</ele>
        <time>2020-01-26T10:45:19Z</time>
      </trkpt>
      <trkpt lat="45.77885" lon="-1.23729">
        <ele>54</ele>
        <time>2020-01-26T10:45:20Z</time>
      </trkpt>
      <trkpt lat="45.77886" lon="-1.23728">
        <ele>54</ele>
        <time>2020-01-26T10:45:21Z</time>
      </trkpt>
      <trkpt lat="45.77887" lon="-1.23728">
        <ele>54</ele>
        <time>2020-01-26T10:45:22Z</time>
      </trkpt>
      <trkpt lat="45.77887" lon="-1.23727">
        <ele>54</ele>
        <time>2020-01-26T10:45:23Z</time>
      </trkpt>
      <trkpt lat="45.77887" lon="-1.23727">
        <ele>54</ele>
        <time>2020-01-26T10:45:24Z</time>
      </trkpt>
      <trkpt lat="45.77887" lon="-1.23727">
        <ele>54.2</ele>
        <time>2020-01-26T10:45:25Z</time>
      </trkpt>
      <trkpt lat="45.77887" lon="-1.23727">
        <ele>54.2</ele>
        <time>2020-01-26T10:45:26Z</time>
      </trkpt>
      <trkpt lat="45.77887" lon="-1.23727">
        <ele>54.2</ele>
        <time>2020-01-26T10:45:27Z</time>
      </trkpt>
      <trkpt lat="45.77887" lon="-1.23727">
        <ele>54</ele>
        <time>2020-01-26T10:45:28Z</time>
      </trkpt>
      <trkpt lat="45.77888" lon="-1.23725">
        <ele>53.8</ele>
        <time>2020-01-26T10:45:29Z</time>
      </trkpt>
      <trkpt lat="45.77888" lon="-1.23724">
        <ele>53.6</ele>
        <time>2020-01-26T10:45:30Z</time>
      </trkpt>
      <trkpt lat="45.77887" lon="-1.23723">
        <ele>53.8</ele>
        <time>2020-01-26T10:45:31Z</time>
      </trkpt>
      <trkpt lat="45.77887" lon="-1.23722">
        <ele>53.8</ele>
        <time>2020-01-26T10:45:32Z</time>
      </trkpt>
      <trkpt lat="45.77888" lon="-1.23722">
        <ele>53.6</ele>
        <time>2020-01-26T10:45:33Z</time>
      </trkpt>
      <trkpt lat="45.77888" lon="-1.2372">
        <ele>53.4</ele>
        <time>2020-01-26T10:45:34Z</time>
      </trkpt>
      <trkpt lat="45.77888" lon="-1.23719">
        <ele>53</ele>
        <time>2020-01-26T10:45:35Z</time>
      </trkpt>
      <trkpt lat="45.77888" lon="-1.23718">
        <ele>52.6</ele>
        <time>2020-01-26T10:45:36Z</time>
      </trkpt>
      <trkpt lat="45.77888" lon="-1.23717">
        <ele>52.2</ele>
        <time>2020-01-26T10:45:37Z</time>
      </trkpt>
      <trkpt lat="45.77888" lon="-1.23717">
        <ele>51.8</ele>
        <time>2020-01-26T10:45:38Z</time>
      </trkpt>
      <trkpt lat="45.77888" lon="-1.23717">
        <ele>51.6</ele>
        <time>2020-01-26T10:45:39Z</time>
      </trkpt>
      <trkpt lat="45.77888" lon="-1.23717">
        <ele>51.4</ele>
        <time>2020-01-26T10:45:40Z</time>
      </trkpt>
      <trkpt lat="45.77889" lon="-1.23716">
        <ele>51.4</ele>
        <time>2020-01-26T10:45:41Z</time>
      </trkpt>
      <trkpt lat="45.77889" lon="-1.23715">
        <ele>51.2</ele>
        <time>2020-01-26T10:45:42Z</time>
      </trkpt>
      <trkpt lat="45.77888" lon="-1.23715">
        <ele>51.4</ele>
        <time>2020-01-26T10:45:43Z</time>
      </trkpt>
      <trkpt lat="45.77888" lon="-1.23715">
        <ele>51.8</ele>
        <time>2020-01-26T10:45:44Z</time>
      </trkpt>
      <trkpt lat="45.77888" lon="-1.23715">
        <ele>52.4</ele>
        <time>2020-01-26T10:45:45Z</time>
      </trkpt>
      <trkpt lat="45.77888" lon="-1.23713">
        <ele>52.6</ele>
        <time>2020-01-26T10:45:46Z</time>
      </trkpt>
      <trkpt lat="45.77889" lon="-1.23711">
        <ele>52.6</ele>
        <time>2020-01-26T10:45:47Z</time>
      </trkpt>
      <trkpt lat="45.77889" lon="-1.23709">
        <ele>52.6</ele>
        <time>2020-01-26T10:45:48Z</time>
      </trkpt>
      <trkpt lat="45.77889" lon="-1.23707">
        <ele>52.8</ele>
        <time>2020-01-26T10:45:49Z</time>
      </trkpt>
      <trkpt lat="45.77889" lon="-1.23705">
        <ele>53</ele>
        <time>2020-01-26T10:45:50Z</time>
      </trkpt>
      <trkpt lat="45.77888" lon="-1.23702">
        <ele>53</ele>
        <time>2020-01-26T10:45:51Z</time>
      </trkpt>
    </trkseg>
  </trk>
</gpx>